<?xml version="1.0" encoding="UTF-8" standalone="no" ?>
<gpx xmlns="http://www.topografix.com/GPX/1/1" xmlns:xsi="http://www.w3.org/2001/XMLSchema-instance" xsi:schemaLocation="http://www.topografix.com/GPX/1/1 http://www.topografix.com/GPX/1/1/gpx.xsd" version="1.1" creator="VisuGPX - https://www.visugpx.com">
  <metadata>
    <name>CST Bike challenge MTB day1</name>
    <desc><![CDATA[first day of MTB Crouzet]]></desc>
  </metadata>
  <trk>
    <name><![CDATA[Tracé]]></name>
    <trkseg>
      <trkpt lat="44.91198" lon="4.91025">
        <ele>147.22</ele>
        <time>2013-09-27T06:20:15Z</time>
      </trkpt>
      <trkpt lat="44.91221" lon="4.91012">
        <ele>148.18</ele>
        <time>2013-09-27T06:20:20Z</time>
      </trkpt>
      <trkpt lat="44.9124" lon="4.91001">
        <ele>147.7</ele>
        <time>2013-09-27T06:20:25Z</time>
      </trkpt>
      <trkpt lat="44.91254" lon="4.90995">
        <ele>148.66</ele>
        <time>2013-09-27T06:20:33Z</time>
      </trkpt>
      <trkpt lat="44.91276" lon="4.90987">
        <ele>148.66</ele>
        <time>2013-09-27T06:20:38Z</time>
      </trkpt>
      <trkpt lat="44.91295" lon="4.90987">
        <ele>149.14</ele>
        <time>2013-09-27T06:20:42Z</time>
      </trkpt>
      <trkpt lat="44.91315" lon="4.90986">
        <ele>148.66</ele>
        <time>2013-09-27T06:20:47Z</time>
      </trkpt>
      <trkpt lat="44.91332" lon="4.90983">
        <ele>149.62</ele>
        <time>2013-09-27T06:21:14Z</time>
      </trkpt>
      <trkpt lat="44.91315" lon="4.90987">
        <ele>149.62</ele>
        <time>2013-09-27T06:21:24Z</time>
      </trkpt>
      <trkpt lat="44.9132" lon="4.90987">
        <ele>149.14</ele>
        <time>2013-09-27T06:21:34Z</time>
      </trkpt>
      <trkpt lat="44.91335" lon="4.9097">
        <ele>149.14</ele>
        <time>2013-09-27T06:21:39Z</time>
      </trkpt>
      <trkpt lat="44.91347" lon="4.90944">
        <ele>149.14</ele>
        <time>2013-09-27T06:21:44Z</time>
      </trkpt>
      <trkpt lat="44.91356" lon="4.90922">
        <ele>148.66</ele>
        <time>2013-09-27T06:21:48Z</time>
      </trkpt>
      <trkpt lat="44.91364" lon="4.90896">
        <ele>149.14</ele>
        <time>2013-09-27T06:21:53Z</time>
      </trkpt>
      <trkpt lat="44.91365" lon="4.90868">
        <ele>149.14</ele>
        <time>2013-09-27T06:21:58Z</time>
      </trkpt>
      <trkpt lat="44.91372" lon="4.90843">
        <ele>149.62</ele>
        <time>2013-09-27T06:22:04Z</time>
      </trkpt>
      <trkpt lat="44.91385" lon="4.90823">
        <ele>150.1</ele>
        <time>2013-09-27T06:22:10Z</time>
      </trkpt>
      <trkpt lat="44.91404" lon="4.90812">
        <ele>150.58</ele>
        <time>2013-09-27T06:22:16Z</time>
      </trkpt>
      <trkpt lat="44.91416" lon="4.90798">
        <ele>151.06</ele>
        <time>2013-09-27T06:22:22Z</time>
      </trkpt>
      <trkpt lat="44.9143" lon="4.90785">
        <ele>150.58</ele>
        <time>2013-09-27T06:22:46Z</time>
      </trkpt>
      <trkpt lat="44.91455" lon="4.90788">
        <ele>150.1</ele>
        <time>2013-09-27T06:22:52Z</time>
      </trkpt>
      <trkpt lat="44.91475" lon="4.90792">
        <ele>149.62</ele>
        <time>2013-09-27T06:22:56Z</time>
      </trkpt>
      <trkpt lat="44.91496" lon="4.90798">
        <ele>149.62</ele>
        <time>2013-09-27T06:23:00Z</time>
      </trkpt>
      <trkpt lat="44.91518" lon="4.90805">
        <ele>149.14</ele>
        <time>2013-09-27T06:23:04Z</time>
      </trkpt>
      <trkpt lat="44.91535" lon="4.90811">
        <ele>149.14</ele>
        <time>2013-09-27T06:23:07Z</time>
      </trkpt>
      <trkpt lat="44.91553" lon="4.9081">
        <ele>149.14</ele>
        <time>2013-09-27T06:23:10Z</time>
      </trkpt>
      <trkpt lat="44.91578" lon="4.90808">
        <ele>147.7</ele>
        <time>2013-09-27T06:23:14Z</time>
      </trkpt>
      <trkpt lat="44.91598" lon="4.90809">
        <ele>148.18</ele>
        <time>2013-09-27T06:23:18Z</time>
      </trkpt>
      <trkpt lat="44.91619" lon="4.9081">
        <ele>148.66</ele>
        <time>2013-09-27T06:23:22Z</time>
      </trkpt>
      <trkpt lat="44.91642" lon="4.90806">
        <ele>148.66</ele>
        <time>2013-09-27T06:23:26Z</time>
      </trkpt>
      <trkpt lat="44.91665" lon="4.90801">
        <ele>149.14</ele>
        <time>2013-09-27T06:23:30Z</time>
      </trkpt>
      <trkpt lat="44.91688" lon="4.90799">
        <ele>149.14</ele>
        <time>2013-09-27T06:23:34Z</time>
      </trkpt>
      <trkpt lat="44.91711" lon="4.90795">
        <ele>149.62</ele>
        <time>2013-09-27T06:23:38Z</time>
      </trkpt>
      <trkpt lat="44.9173" lon="4.90792">
        <ele>149.62</ele>
        <time>2013-09-27T06:23:41Z</time>
      </trkpt>
      <trkpt lat="44.91748" lon="4.9079">
        <ele>149.14</ele>
        <time>2013-09-27T06:23:44Z</time>
      </trkpt>
      <trkpt lat="44.91767" lon="4.90786">
        <ele>149.14</ele>
        <time>2013-09-27T06:23:47Z</time>
      </trkpt>
      <trkpt lat="44.91785" lon="4.90781">
        <ele>148.66</ele>
        <time>2013-09-27T06:23:50Z</time>
      </trkpt>
      <trkpt lat="44.91805" lon="4.90778">
        <ele>148.18</ele>
        <time>2013-09-27T06:23:53Z</time>
      </trkpt>
      <trkpt lat="44.91825" lon="4.90776">
        <ele>147.22</ele>
        <time>2013-09-27T06:23:56Z</time>
      </trkpt>
      <trkpt lat="44.91846" lon="4.90776">
        <ele>147.22</ele>
        <time>2013-09-27T06:23:59Z</time>
      </trkpt>
      <trkpt lat="44.91866" lon="4.90776">
        <ele>146.74</ele>
        <time>2013-09-27T06:24:02Z</time>
      </trkpt>
      <trkpt lat="44.91885" lon="4.9078">
        <ele>145.78</ele>
        <time>2013-09-27T06:24:05Z</time>
      </trkpt>
      <trkpt lat="44.91907" lon="4.90784">
        <ele>145.78</ele>
        <time>2013-09-27T06:24:09Z</time>
      </trkpt>
      <trkpt lat="44.91925" lon="4.90789">
        <ele>145.3</ele>
        <time>2013-09-27T06:24:16Z</time>
      </trkpt>
      <trkpt lat="44.91945" lon="4.90787">
        <ele>143.85</ele>
        <time>2013-09-27T06:24:20Z</time>
      </trkpt>
      <trkpt lat="44.91963" lon="4.90792">
        <ele>142.41</ele>
        <time>2013-09-27T06:24:23Z</time>
      </trkpt>
      <trkpt lat="44.91983" lon="4.90798">
        <ele>141.93</ele>
        <time>2013-09-27T06:24:26Z</time>
      </trkpt>
      <trkpt lat="44.92004" lon="4.90805">
        <ele>140.49</ele>
        <time>2013-09-27T06:24:29Z</time>
      </trkpt>
      <trkpt lat="44.92023" lon="4.90811">
        <ele>139.05</ele>
        <time>2013-09-27T06:24:32Z</time>
      </trkpt>
      <trkpt lat="44.92047" lon="4.90819">
        <ele>137.61</ele>
        <time>2013-09-27T06:24:36Z</time>
      </trkpt>
      <trkpt lat="44.92067" lon="4.90826">
        <ele>136.64</ele>
        <time>2013-09-27T06:24:39Z</time>
      </trkpt>
      <trkpt lat="44.92088" lon="4.90833">
        <ele>135.2</ele>
        <time>2013-09-27T06:24:42Z</time>
      </trkpt>
      <trkpt lat="44.92112" lon="4.90834">
        <ele>133.76</ele>
        <time>2013-09-27T06:24:45Z</time>
      </trkpt>
      <trkpt lat="44.92135" lon="4.90815">
        <ele>132.32</ele>
        <time>2013-09-27T06:24:48Z</time>
      </trkpt>
      <trkpt lat="44.92149" lon="4.90797">
        <ele>131.36</ele>
        <time>2013-09-27T06:24:50Z</time>
      </trkpt>
      <trkpt lat="44.92162" lon="4.90778">
        <ele>130.4</ele>
        <time>2013-09-27T06:24:52Z</time>
      </trkpt>
      <trkpt lat="44.92175" lon="4.90759">
        <ele>129.92</ele>
        <time>2013-09-27T06:24:54Z</time>
      </trkpt>
      <trkpt lat="44.92194" lon="4.90733">
        <ele>129.43</ele>
        <time>2013-09-27T06:24:57Z</time>
      </trkpt>
      <trkpt lat="44.92211" lon="4.90708">
        <ele>128.95</ele>
        <time>2013-09-27T06:25:00Z</time>
      </trkpt>
      <trkpt lat="44.92226" lon="4.90687">
        <ele>128.95</ele>
        <time>2013-09-27T06:25:03Z</time>
      </trkpt>
      <trkpt lat="44.92242" lon="4.90664">
        <ele>128.95</ele>
        <time>2013-09-27T06:25:07Z</time>
      </trkpt>
      <trkpt lat="44.92256" lon="4.90645">
        <ele>129.43</ele>
        <time>2013-09-27T06:25:12Z</time>
      </trkpt>
      <trkpt lat="44.92268" lon="4.90628">
        <ele>128.95</ele>
        <time>2013-09-27T06:25:32Z</time>
      </trkpt>
      <trkpt lat="44.92281" lon="4.90609">
        <ele>128.47</ele>
        <time>2013-09-27T06:25:37Z</time>
      </trkpt>
      <trkpt lat="44.92296" lon="4.90587">
        <ele>127.99</ele>
        <time>2013-09-27T06:25:41Z</time>
      </trkpt>
      <trkpt lat="44.92313" lon="4.90564">
        <ele>128.95</ele>
        <time>2013-09-27T06:25:45Z</time>
      </trkpt>
      <trkpt lat="44.92329" lon="4.9054">
        <ele>128.47</ele>
        <time>2013-09-27T06:25:49Z</time>
      </trkpt>
      <trkpt lat="44.92347" lon="4.90516">
        <ele>128.47</ele>
        <time>2013-09-27T06:25:53Z</time>
      </trkpt>
      <trkpt lat="44.92359" lon="4.90498">
        <ele>128.47</ele>
        <time>2013-09-27T06:25:56Z</time>
      </trkpt>
      <trkpt lat="44.92373" lon="4.90478">
        <ele>128.47</ele>
        <time>2013-09-27T06:25:59Z</time>
      </trkpt>
      <trkpt lat="44.92387" lon="4.90458">
        <ele>127.99</ele>
        <time>2013-09-27T06:26:02Z</time>
      </trkpt>
      <trkpt lat="44.924" lon="4.90438">
        <ele>127.51</ele>
        <time>2013-09-27T06:26:05Z</time>
      </trkpt>
      <trkpt lat="44.92412" lon="4.90419">
        <ele>127.99</ele>
        <time>2013-09-27T06:26:08Z</time>
      </trkpt>
      <trkpt lat="44.92425" lon="4.90401">
        <ele>127.99</ele>
        <time>2013-09-27T06:26:11Z</time>
      </trkpt>
      <trkpt lat="44.92437" lon="4.90381">
        <ele>128.47</ele>
        <time>2013-09-27T06:26:14Z</time>
      </trkpt>
      <trkpt lat="44.92453" lon="4.90367">
        <ele>127.99</ele>
        <time>2013-09-27T06:26:17Z</time>
      </trkpt>
      <trkpt lat="44.92468" lon="4.90352">
        <ele>127.99</ele>
        <time>2013-09-27T06:26:20Z</time>
      </trkpt>
      <trkpt lat="44.92484" lon="4.90336">
        <ele>127.99</ele>
        <time>2013-09-27T06:26:23Z</time>
      </trkpt>
      <trkpt lat="44.92499" lon="4.90319">
        <ele>127.99</ele>
        <time>2013-09-27T06:26:26Z</time>
      </trkpt>
      <trkpt lat="44.92514" lon="4.90302">
        <ele>127.99</ele>
        <time>2013-09-27T06:26:29Z</time>
      </trkpt>
      <trkpt lat="44.9253" lon="4.90286">
        <ele>127.99</ele>
        <time>2013-09-27T06:26:32Z</time>
      </trkpt>
      <trkpt lat="44.92546" lon="4.90269">
        <ele>127.99</ele>
        <time>2013-09-27T06:26:35Z</time>
      </trkpt>
      <trkpt lat="44.92562" lon="4.90252">
        <ele>127.99</ele>
        <time>2013-09-27T06:26:38Z</time>
      </trkpt>
      <trkpt lat="44.92578" lon="4.90236">
        <ele>127.99</ele>
        <time>2013-09-27T06:26:41Z</time>
      </trkpt>
      <trkpt lat="44.92593" lon="4.90221">
        <ele>127.99</ele>
        <time>2013-09-27T06:26:44Z</time>
      </trkpt>
      <trkpt lat="44.92611" lon="4.90201">
        <ele>128.47</ele>
        <time>2013-09-27T06:26:48Z</time>
      </trkpt>
      <trkpt lat="44.92628" lon="4.90184">
        <ele>128.47</ele>
        <time>2013-09-27T06:26:52Z</time>
      </trkpt>
      <trkpt lat="44.92641" lon="4.90168">
        <ele>128.95</ele>
        <time>2013-09-27T06:26:59Z</time>
      </trkpt>
      <trkpt lat="44.92658" lon="4.90149">
        <ele>128.47</ele>
        <time>2013-09-27T06:27:06Z</time>
      </trkpt>
      <trkpt lat="44.92672" lon="4.90133">
        <ele>127.99</ele>
        <time>2013-09-27T06:27:10Z</time>
      </trkpt>
      <trkpt lat="44.92689" lon="4.90115">
        <ele>127.99</ele>
        <time>2013-09-27T06:27:14Z</time>
      </trkpt>
      <trkpt lat="44.92706" lon="4.90097">
        <ele>127.99</ele>
        <time>2013-09-27T06:27:18Z</time>
      </trkpt>
      <trkpt lat="44.92724" lon="4.90077">
        <ele>127.99</ele>
        <time>2013-09-27T06:27:22Z</time>
      </trkpt>
      <trkpt lat="44.92743" lon="4.90057">
        <ele>128.47</ele>
        <time>2013-09-27T06:27:26Z</time>
      </trkpt>
      <trkpt lat="44.9276" lon="4.90038">
        <ele>127.99</ele>
        <time>2013-09-27T06:27:30Z</time>
      </trkpt>
      <trkpt lat="44.92779" lon="4.90018">
        <ele>127.99</ele>
        <time>2013-09-27T06:27:34Z</time>
      </trkpt>
      <trkpt lat="44.92797" lon="4.89996">
        <ele>127.99</ele>
        <time>2013-09-27T06:27:38Z</time>
      </trkpt>
      <trkpt lat="44.92812" lon="4.8998">
        <ele>127.99</ele>
        <time>2013-09-27T06:27:41Z</time>
      </trkpt>
      <trkpt lat="44.92831" lon="4.89959">
        <ele>127.99</ele>
        <time>2013-09-27T06:27:45Z</time>
      </trkpt>
      <trkpt lat="44.92845" lon="4.89944">
        <ele>127.99</ele>
        <time>2013-09-27T06:27:48Z</time>
      </trkpt>
      <trkpt lat="44.92859" lon="4.89928">
        <ele>128.47</ele>
        <time>2013-09-27T06:27:51Z</time>
      </trkpt>
      <trkpt lat="44.92875" lon="4.89912">
        <ele>127.99</ele>
        <time>2013-09-27T06:27:54Z</time>
      </trkpt>
      <trkpt lat="44.92894" lon="4.89893">
        <ele>128.47</ele>
        <time>2013-09-27T06:27:58Z</time>
      </trkpt>
      <trkpt lat="44.92911" lon="4.89873">
        <ele>128.47</ele>
        <time>2013-09-27T06:28:02Z</time>
      </trkpt>
      <trkpt lat="44.92928" lon="4.89856">
        <ele>128.47</ele>
        <time>2013-09-27T06:28:06Z</time>
      </trkpt>
      <trkpt lat="44.92946" lon="4.89835">
        <ele>128.47</ele>
        <time>2013-09-27T06:28:10Z</time>
      </trkpt>
      <trkpt lat="44.9296" lon="4.8982">
        <ele>128.47</ele>
        <time>2013-09-27T06:28:13Z</time>
      </trkpt>
      <trkpt lat="44.92979" lon="4.898">
        <ele>127.99</ele>
        <time>2013-09-27T06:28:17Z</time>
      </trkpt>
      <trkpt lat="44.92994" lon="4.89784">
        <ele>128.47</ele>
        <time>2013-09-27T06:28:21Z</time>
      </trkpt>
      <trkpt lat="44.93008" lon="4.89769">
        <ele>128.47</ele>
        <time>2013-09-27T06:28:27Z</time>
      </trkpt>
      <trkpt lat="44.93025" lon="4.89747">
        <ele>129.43</ele>
        <time>2013-09-27T06:28:49Z</time>
      </trkpt>
      <trkpt lat="44.93043" lon="4.8973">
        <ele>129.43</ele>
        <time>2013-09-27T06:28:57Z</time>
      </trkpt>
      <trkpt lat="44.93064" lon="4.89711">
        <ele>129.43</ele>
        <time>2013-09-27T06:29:02Z</time>
      </trkpt>
      <trkpt lat="44.93083" lon="4.89686">
        <ele>129.43</ele>
        <time>2013-09-27T06:29:06Z</time>
      </trkpt>
      <trkpt lat="44.93103" lon="4.89666">
        <ele>129.43</ele>
        <time>2013-09-27T06:29:10Z</time>
      </trkpt>
      <trkpt lat="44.93122" lon="4.89647">
        <ele>129.92</ele>
        <time>2013-09-27T06:29:14Z</time>
      </trkpt>
      <trkpt lat="44.93142" lon="4.89632">
        <ele>129.92</ele>
        <time>2013-09-27T06:29:18Z</time>
      </trkpt>
      <trkpt lat="44.93162" lon="4.89617">
        <ele>130.4</ele>
        <time>2013-09-27T06:29:22Z</time>
      </trkpt>
      <trkpt lat="44.93177" lon="4.89598">
        <ele>129.92</ele>
        <time>2013-09-27T06:29:26Z</time>
      </trkpt>
      <trkpt lat="44.93192" lon="4.89573">
        <ele>130.88</ele>
        <time>2013-09-27T06:29:31Z</time>
      </trkpt>
      <trkpt lat="44.93202" lon="4.89544">
        <ele>131.36</ele>
        <time>2013-09-27T06:29:36Z</time>
      </trkpt>
      <trkpt lat="44.9319" lon="4.89517">
        <ele>130.88</ele>
        <time>2013-09-27T06:29:41Z</time>
      </trkpt>
      <trkpt lat="44.9317" lon="4.89505">
        <ele>130.88</ele>
        <time>2013-09-27T06:29:45Z</time>
      </trkpt>
      <trkpt lat="44.93148" lon="4.89494">
        <ele>130.88</ele>
        <time>2013-09-27T06:29:49Z</time>
      </trkpt>
      <trkpt lat="44.93126" lon="4.89486">
        <ele>131.36</ele>
        <time>2013-09-27T06:29:53Z</time>
      </trkpt>
      <trkpt lat="44.93105" lon="4.89477">
        <ele>130.88</ele>
        <time>2013-09-27T06:29:57Z</time>
      </trkpt>
      <trkpt lat="44.93085" lon="4.89468">
        <ele>130.88</ele>
        <time>2013-09-27T06:30:01Z</time>
      </trkpt>
      <trkpt lat="44.93066" lon="4.89459">
        <ele>130.88</ele>
        <time>2013-09-27T06:30:05Z</time>
      </trkpt>
      <trkpt lat="44.93047" lon="4.89447">
        <ele>130.4</ele>
        <time>2013-09-27T06:30:09Z</time>
      </trkpt>
      <trkpt lat="44.93038" lon="4.89422">
        <ele>129.92</ele>
        <time>2013-09-27T06:30:13Z</time>
      </trkpt>
      <trkpt lat="44.9304" lon="4.89392">
        <ele>129.92</ele>
        <time>2013-09-27T06:30:17Z</time>
      </trkpt>
      <trkpt lat="44.93041" lon="4.89359">
        <ele>129.43</ele>
        <time>2013-09-27T06:30:21Z</time>
      </trkpt>
      <trkpt lat="44.93042" lon="4.89333">
        <ele>129.43</ele>
        <time>2013-09-27T06:30:24Z</time>
      </trkpt>
      <trkpt lat="44.93043" lon="4.89308">
        <ele>128.47</ele>
        <time>2013-09-27T06:30:27Z</time>
      </trkpt>
      <trkpt lat="44.93046" lon="4.89274">
        <ele>128.47</ele>
        <time>2013-09-27T06:30:31Z</time>
      </trkpt>
      <trkpt lat="44.93047" lon="4.89246">
        <ele>127.99</ele>
        <time>2013-09-27T06:30:34Z</time>
      </trkpt>
      <trkpt lat="44.93049" lon="4.89218">
        <ele>127.51</ele>
        <time>2013-09-27T06:30:37Z</time>
      </trkpt>
      <trkpt lat="44.93049" lon="4.89189">
        <ele>127.51</ele>
        <time>2013-09-27T06:30:40Z</time>
      </trkpt>
      <trkpt lat="44.93051" lon="4.89161">
        <ele>127.51</ele>
        <time>2013-09-27T06:30:43Z</time>
      </trkpt>
      <trkpt lat="44.93052" lon="4.89133">
        <ele>127.51</ele>
        <time>2013-09-27T06:30:46Z</time>
      </trkpt>
      <trkpt lat="44.93053" lon="4.89107">
        <ele>127.51</ele>
        <time>2013-09-27T06:30:49Z</time>
      </trkpt>
      <trkpt lat="44.93053" lon="4.8908">
        <ele>127.51</ele>
        <time>2013-09-27T06:30:52Z</time>
      </trkpt>
      <trkpt lat="44.93055" lon="4.89053">
        <ele>127.51</ele>
        <time>2013-09-27T06:30:55Z</time>
      </trkpt>
      <trkpt lat="44.93056" lon="4.89027">
        <ele>127.99</ele>
        <time>2013-09-27T06:31:00Z</time>
      </trkpt>
      <trkpt lat="44.93058" lon="4.88999">
        <ele>127.03</ele>
        <time>2013-09-27T06:31:25Z</time>
      </trkpt>
      <trkpt lat="44.93059" lon="4.8897">
        <ele>125.59</ele>
        <time>2013-09-27T06:31:29Z</time>
      </trkpt>
      <trkpt lat="44.9306" lon="4.88941">
        <ele>124.63</ele>
        <time>2013-09-27T06:31:32Z</time>
      </trkpt>
      <trkpt lat="44.93061" lon="4.88908">
        <ele>123.67</ele>
        <time>2013-09-27T06:31:35Z</time>
      </trkpt>
      <trkpt lat="44.93065" lon="4.88876">
        <ele>122.71</ele>
        <time>2013-09-27T06:31:38Z</time>
      </trkpt>
      <trkpt lat="44.93071" lon="4.88846">
        <ele>121.74</ele>
        <time>2013-09-27T06:31:42Z</time>
      </trkpt>
      <trkpt lat="44.93077" lon="4.88821">
        <ele>120.3</ele>
        <time>2013-09-27T06:31:45Z</time>
      </trkpt>
      <trkpt lat="44.93084" lon="4.88792">
        <ele>119.34</ele>
        <time>2013-09-27T06:31:48Z</time>
      </trkpt>
      <trkpt lat="44.9309" lon="4.88761">
        <ele>118.38</ele>
        <time>2013-09-27T06:31:51Z</time>
      </trkpt>
      <trkpt lat="44.93096" lon="4.8873">
        <ele>117.42</ele>
        <time>2013-09-27T06:31:54Z</time>
      </trkpt>
      <trkpt lat="44.93102" lon="4.88698">
        <ele>116.94</ele>
        <time>2013-09-27T06:31:57Z</time>
      </trkpt>
      <trkpt lat="44.93103" lon="4.88671">
        <ele>116.94</ele>
        <time>2013-09-27T06:32:00Z</time>
      </trkpt>
      <trkpt lat="44.93111" lon="4.88641">
        <ele>115.5</ele>
        <time>2013-09-27T06:32:04Z</time>
      </trkpt>
      <trkpt lat="44.93115" lon="4.88609">
        <ele>115.5</ele>
        <time>2013-09-27T06:32:08Z</time>
      </trkpt>
      <trkpt lat="44.9312" lon="4.88579">
        <ele>115.98</ele>
        <time>2013-09-27T06:32:12Z</time>
      </trkpt>
      <trkpt lat="44.93126" lon="4.88554">
        <ele>117.9</ele>
        <time>2013-09-27T06:32:16Z</time>
      </trkpt>
      <trkpt lat="44.93133" lon="4.8853">
        <ele>118.86</ele>
        <time>2013-09-27T06:32:20Z</time>
      </trkpt>
      <trkpt lat="44.93142" lon="4.88503">
        <ele>119.34</ele>
        <time>2013-09-27T06:32:24Z</time>
      </trkpt>
      <trkpt lat="44.9315" lon="4.88475">
        <ele>119.82</ele>
        <time>2013-09-27T06:32:28Z</time>
      </trkpt>
      <trkpt lat="44.93159" lon="4.88446">
        <ele>120.78</ele>
        <time>2013-09-27T06:32:32Z</time>
      </trkpt>
      <trkpt lat="44.93169" lon="4.88416">
        <ele>121.74</ele>
        <time>2013-09-27T06:32:36Z</time>
      </trkpt>
      <trkpt lat="44.93177" lon="4.88392">
        <ele>122.22</ele>
        <time>2013-09-27T06:32:39Z</time>
      </trkpt>
      <trkpt lat="44.93186" lon="4.88361">
        <ele>122.22</ele>
        <time>2013-09-27T06:32:43Z</time>
      </trkpt>
      <trkpt lat="44.93194" lon="4.88338">
        <ele>122.22</ele>
        <time>2013-09-27T06:32:46Z</time>
      </trkpt>
      <trkpt lat="44.93202" lon="4.88314">
        <ele>122.22</ele>
        <time>2013-09-27T06:32:49Z</time>
      </trkpt>
      <trkpt lat="44.9321" lon="4.88291">
        <ele>121.74</ele>
        <time>2013-09-27T06:32:52Z</time>
      </trkpt>
      <trkpt lat="44.93217" lon="4.88267">
        <ele>121.74</ele>
        <time>2013-09-27T06:32:55Z</time>
      </trkpt>
      <trkpt lat="44.93226" lon="4.8824">
        <ele>120.78</ele>
        <time>2013-09-27T06:32:58Z</time>
      </trkpt>
      <trkpt lat="44.93236" lon="4.88207">
        <ele>119.82</ele>
        <time>2013-09-27T06:33:01Z</time>
      </trkpt>
      <trkpt lat="44.93247" lon="4.88172">
        <ele>118.86</ele>
        <time>2013-09-27T06:33:04Z</time>
      </trkpt>
      <trkpt lat="44.93255" lon="4.88148">
        <ele>117.9</ele>
        <time>2013-09-27T06:33:06Z</time>
      </trkpt>
      <trkpt lat="44.93262" lon="4.88124">
        <ele>117.42</ele>
        <time>2013-09-27T06:33:08Z</time>
      </trkpt>
      <trkpt lat="44.9327" lon="4.881">
        <ele>116.46</ele>
        <time>2013-09-27T06:33:10Z</time>
      </trkpt>
      <trkpt lat="44.93277" lon="4.88076">
        <ele>115.5</ele>
        <time>2013-09-27T06:33:12Z</time>
      </trkpt>
      <trkpt lat="44.93284" lon="4.88052">
        <ele>115.5</ele>
        <time>2013-09-27T06:33:14Z</time>
      </trkpt>
      <trkpt lat="44.93294" lon="4.88023">
        <ele>114.05</ele>
        <time>2013-09-27T06:33:17Z</time>
      </trkpt>
      <trkpt lat="44.93308" lon="4.88007">
        <ele>113.09</ele>
        <time>2013-09-27T06:33:20Z</time>
      </trkpt>
      <trkpt lat="44.93312" lon="4.8804">
        <ele>113.09</ele>
        <time>2013-09-27T06:33:26Z</time>
      </trkpt>
      <trkpt lat="44.93307" lon="4.88077">
        <ele>113.57</ele>
        <time>2013-09-27T06:33:34Z</time>
      </trkpt>
      <trkpt lat="44.93299" lon="4.88105">
        <ele>113.09</ele>
        <time>2013-09-27T06:33:39Z</time>
      </trkpt>
      <trkpt lat="44.93291" lon="4.88134">
        <ele>113.57</ele>
        <time>2013-09-27T06:33:43Z</time>
      </trkpt>
      <trkpt lat="44.93283" lon="4.88163">
        <ele>115.01</ele>
        <time>2013-09-27T06:33:47Z</time>
      </trkpt>
      <trkpt lat="44.93279" lon="4.8819">
        <ele>115.5</ele>
        <time>2013-09-27T06:33:53Z</time>
      </trkpt>
      <trkpt lat="44.93283" lon="4.88218">
        <ele>111.17</ele>
        <time>2013-09-27T06:34:03Z</time>
      </trkpt>
      <trkpt lat="44.93296" lon="4.88239">
        <ele>111.17</ele>
        <time>2013-09-27T06:34:39Z</time>
      </trkpt>
      <trkpt lat="44.93314" lon="4.88257">
        <ele>110.69</ele>
        <time>2013-09-27T06:34:45Z</time>
      </trkpt>
      <trkpt lat="44.93331" lon="4.88273">
        <ele>111.17</ele>
        <time>2013-09-27T06:34:49Z</time>
      </trkpt>
      <trkpt lat="44.93352" lon="4.88291">
        <ele>110.69</ele>
        <time>2013-09-27T06:34:53Z</time>
      </trkpt>
      <trkpt lat="44.93365" lon="4.88308">
        <ele>111.17</ele>
        <time>2013-09-27T06:35:01Z</time>
      </trkpt>
      <trkpt lat="44.93385" lon="4.88316">
        <ele>111.17</ele>
        <time>2013-09-27T06:35:11Z</time>
      </trkpt>
      <trkpt lat="44.93401" lon="4.8833">
        <ele>111.65</ele>
        <time>2013-09-27T06:35:21Z</time>
      </trkpt>
      <trkpt lat="44.93418" lon="4.88343">
        <ele>111.17</ele>
        <time>2013-09-27T06:35:25Z</time>
      </trkpt>
      <trkpt lat="44.93434" lon="4.88356">
        <ele>111.17</ele>
        <time>2013-09-27T06:35:28Z</time>
      </trkpt>
      <trkpt lat="44.93451" lon="4.88369">
        <ele>111.17</ele>
        <time>2013-09-27T06:35:31Z</time>
      </trkpt>
      <trkpt lat="44.93467" lon="4.88382">
        <ele>111.17</ele>
        <time>2013-09-27T06:35:34Z</time>
      </trkpt>
      <trkpt lat="44.93485" lon="4.88392">
        <ele>111.17</ele>
        <time>2013-09-27T06:35:37Z</time>
      </trkpt>
      <trkpt lat="44.93504" lon="4.88399">
        <ele>111.17</ele>
        <time>2013-09-27T06:35:40Z</time>
      </trkpt>
      <trkpt lat="44.93525" lon="4.88407">
        <ele>110.69</ele>
        <time>2013-09-27T06:35:43Z</time>
      </trkpt>
      <trkpt lat="44.93544" lon="4.88414">
        <ele>110.69</ele>
        <time>2013-09-27T06:35:46Z</time>
      </trkpt>
      <trkpt lat="44.93564" lon="4.88422">
        <ele>111.17</ele>
        <time>2013-09-27T06:35:49Z</time>
      </trkpt>
      <trkpt lat="44.93583" lon="4.88429">
        <ele>111.17</ele>
        <time>2013-09-27T06:35:52Z</time>
      </trkpt>
      <trkpt lat="44.93602" lon="4.88437">
        <ele>110.69</ele>
        <time>2013-09-27T06:35:55Z</time>
      </trkpt>
      <trkpt lat="44.93622" lon="4.88442">
        <ele>110.69</ele>
        <time>2013-09-27T06:35:58Z</time>
      </trkpt>
      <trkpt lat="44.93642" lon="4.88446">
        <ele>111.17</ele>
        <time>2013-09-27T06:36:01Z</time>
      </trkpt>
      <trkpt lat="44.93662" lon="4.88449">
        <ele>110.69</ele>
        <time>2013-09-27T06:36:04Z</time>
      </trkpt>
      <trkpt lat="44.93682" lon="4.88451">
        <ele>110.69</ele>
        <time>2013-09-27T06:36:07Z</time>
      </trkpt>
      <trkpt lat="44.93702" lon="4.88451">
        <ele>110.69</ele>
        <time>2013-09-27T06:36:10Z</time>
      </trkpt>
      <trkpt lat="44.93723" lon="4.8845">
        <ele>110.69</ele>
        <time>2013-09-27T06:36:13Z</time>
      </trkpt>
      <trkpt lat="44.93743" lon="4.88449">
        <ele>111.17</ele>
        <time>2013-09-27T06:36:16Z</time>
      </trkpt>
      <trkpt lat="44.93762" lon="4.88448">
        <ele>111.17</ele>
        <time>2013-09-27T06:36:19Z</time>
      </trkpt>
      <trkpt lat="44.93781" lon="4.88451">
        <ele>111.17</ele>
        <time>2013-09-27T06:36:22Z</time>
      </trkpt>
      <trkpt lat="44.93805" lon="4.88452">
        <ele>111.17</ele>
        <time>2013-09-27T06:36:26Z</time>
      </trkpt>
      <trkpt lat="44.93825" lon="4.88452">
        <ele>111.17</ele>
        <time>2013-09-27T06:36:29Z</time>
      </trkpt>
      <trkpt lat="44.93846" lon="4.88452">
        <ele>111.17</ele>
        <time>2013-09-27T06:36:32Z</time>
      </trkpt>
      <trkpt lat="44.93867" lon="4.8845">
        <ele>111.17</ele>
        <time>2013-09-27T06:36:35Z</time>
      </trkpt>
      <trkpt lat="44.93887" lon="4.88445">
        <ele>110.69</ele>
        <time>2013-09-27T06:36:38Z</time>
      </trkpt>
      <trkpt lat="44.93908" lon="4.8844">
        <ele>110.69</ele>
        <time>2013-09-27T06:36:41Z</time>
      </trkpt>
      <trkpt lat="44.93929" lon="4.88434">
        <ele>111.17</ele>
        <time>2013-09-27T06:36:44Z</time>
      </trkpt>
      <trkpt lat="44.9395" lon="4.88429">
        <ele>111.17</ele>
        <time>2013-09-27T06:36:47Z</time>
      </trkpt>
      <trkpt lat="44.93969" lon="4.88424">
        <ele>111.17</ele>
        <time>2013-09-27T06:36:50Z</time>
      </trkpt>
      <trkpt lat="44.93989" lon="4.8842">
        <ele>110.69</ele>
        <time>2013-09-27T06:36:53Z</time>
      </trkpt>
      <trkpt lat="44.94008" lon="4.88415">
        <ele>111.17</ele>
        <time>2013-09-27T06:36:56Z</time>
      </trkpt>
      <trkpt lat="44.94027" lon="4.88409">
        <ele>111.17</ele>
        <time>2013-09-27T06:36:59Z</time>
      </trkpt>
      <trkpt lat="44.94045" lon="4.884">
        <ele>111.17</ele>
        <time>2013-09-27T06:37:02Z</time>
      </trkpt>
      <trkpt lat="44.94067" lon="4.88382">
        <ele>111.17</ele>
        <time>2013-09-27T06:37:06Z</time>
      </trkpt>
      <trkpt lat="44.94084" lon="4.88359">
        <ele>111.17</ele>
        <time>2013-09-27T06:37:10Z</time>
      </trkpt>
      <trkpt lat="44.94108" lon="4.88344">
        <ele>111.17</ele>
        <time>2013-09-27T06:37:14Z</time>
      </trkpt>
      <trkpt lat="44.94125" lon="4.88326">
        <ele>111.17</ele>
        <time>2013-09-27T06:37:17Z</time>
      </trkpt>
      <trkpt lat="44.94137" lon="4.88303">
        <ele>111.17</ele>
        <time>2013-09-27T06:37:20Z</time>
      </trkpt>
      <trkpt lat="44.94146" lon="4.8828">
        <ele>111.17</ele>
        <time>2013-09-27T06:37:23Z</time>
      </trkpt>
      <trkpt lat="44.94152" lon="4.88252">
        <ele>113.09</ele>
        <time>2013-09-27T06:37:27Z</time>
      </trkpt>
      <trkpt lat="44.94165" lon="4.88233">
        <ele>113.09</ele>
        <time>2013-09-27T06:37:31Z</time>
      </trkpt>
      <trkpt lat="44.94183" lon="4.88211">
        <ele>112.61</ele>
        <time>2013-09-27T06:37:35Z</time>
      </trkpt>
      <trkpt lat="44.94198" lon="4.88193">
        <ele>112.61</ele>
        <time>2013-09-27T06:37:39Z</time>
      </trkpt>
      <trkpt lat="44.94215" lon="4.88175">
        <ele>113.09</ele>
        <time>2013-09-27T06:37:42Z</time>
      </trkpt>
      <trkpt lat="44.94235" lon="4.88156">
        <ele>113.09</ele>
        <time>2013-09-27T06:37:46Z</time>
      </trkpt>
      <trkpt lat="44.94255" lon="4.88136">
        <ele>113.09</ele>
        <time>2013-09-27T06:37:50Z</time>
      </trkpt>
      <trkpt lat="44.94276" lon="4.88117">
        <ele>113.09</ele>
        <time>2013-09-27T06:37:54Z</time>
      </trkpt>
      <trkpt lat="44.94295" lon="4.88095">
        <ele>113.09</ele>
        <time>2013-09-27T06:37:58Z</time>
      </trkpt>
      <trkpt lat="44.94309" lon="4.88071">
        <ele>113.09</ele>
        <time>2013-09-27T06:38:02Z</time>
      </trkpt>
      <trkpt lat="44.94325" lon="4.88048">
        <ele>112.61</ele>
        <time>2013-09-27T06:38:06Z</time>
      </trkpt>
      <trkpt lat="44.94341" lon="4.88028">
        <ele>112.13</ele>
        <time>2013-09-27T06:38:10Z</time>
      </trkpt>
      <trkpt lat="44.94356" lon="4.88007">
        <ele>112.61</ele>
        <time>2013-09-27T06:38:14Z</time>
      </trkpt>
      <trkpt lat="44.94373" lon="4.87986">
        <ele>112.61</ele>
        <time>2013-09-27T06:38:18Z</time>
      </trkpt>
      <trkpt lat="44.94391" lon="4.87965">
        <ele>112.61</ele>
        <time>2013-09-27T06:38:22Z</time>
      </trkpt>
      <trkpt lat="44.94406" lon="4.87942">
        <ele>112.61</ele>
        <time>2013-09-27T06:38:26Z</time>
      </trkpt>
      <trkpt lat="44.94413" lon="4.87912">
        <ele>112.61</ele>
        <time>2013-09-27T06:38:30Z</time>
      </trkpt>
      <trkpt lat="44.94423" lon="4.87878">
        <ele>112.61</ele>
        <time>2013-09-27T06:38:34Z</time>
      </trkpt>
      <trkpt lat="44.94432" lon="4.8785">
        <ele>112.13</ele>
        <time>2013-09-27T06:38:38Z</time>
      </trkpt>
      <trkpt lat="44.94435" lon="4.8782">
        <ele>112.13</ele>
        <time>2013-09-27T06:38:43Z</time>
      </trkpt>
      <trkpt lat="44.94435" lon="4.87798">
        <ele>116.46</ele>
        <time>2013-09-27T06:39:09Z</time>
      </trkpt>
      <trkpt lat="44.94455" lon="4.87786">
        <ele>116.94</ele>
        <time>2013-09-27T06:39:20Z</time>
      </trkpt>
      <trkpt lat="44.94475" lon="4.87776">
        <ele>116.46</ele>
        <time>2013-09-27T06:39:28Z</time>
      </trkpt>
      <trkpt lat="44.94493" lon="4.87766">
        <ele>115.98</ele>
        <time>2013-09-27T06:39:35Z</time>
      </trkpt>
      <trkpt lat="44.94504" lon="4.8779">
        <ele>112.61</ele>
        <time>2013-09-27T06:39:42Z</time>
      </trkpt>
      <trkpt lat="44.94514" lon="4.87813">
        <ele>112.61</ele>
        <time>2013-09-27T06:39:46Z</time>
      </trkpt>
      <trkpt lat="44.94532" lon="4.87827">
        <ele>112.61</ele>
        <time>2013-09-27T06:39:50Z</time>
      </trkpt>
      <trkpt lat="44.94554" lon="4.8782">
        <ele>112.61</ele>
        <time>2013-09-27T06:39:55Z</time>
      </trkpt>
      <trkpt lat="44.94574" lon="4.87806">
        <ele>112.61</ele>
        <time>2013-09-27T06:39:59Z</time>
      </trkpt>
      <trkpt lat="44.94596" lon="4.87792">
        <ele>112.61</ele>
        <time>2013-09-27T06:40:03Z</time>
      </trkpt>
      <trkpt lat="44.94614" lon="4.87777">
        <ele>113.09</ele>
        <time>2013-09-27T06:40:07Z</time>
      </trkpt>
      <trkpt lat="44.94632" lon="4.87761">
        <ele>112.61</ele>
        <time>2013-09-27T06:40:11Z</time>
      </trkpt>
      <trkpt lat="44.94657" lon="4.87748">
        <ele>113.09</ele>
        <time>2013-09-27T06:40:15Z</time>
      </trkpt>
      <trkpt lat="44.94675" lon="4.8774">
        <ele>112.61</ele>
        <time>2013-09-27T06:40:18Z</time>
      </trkpt>
      <trkpt lat="44.94698" lon="4.87727">
        <ele>112.61</ele>
        <time>2013-09-27T06:40:22Z</time>
      </trkpt>
      <trkpt lat="44.94719" lon="4.87711">
        <ele>112.61</ele>
        <time>2013-09-27T06:40:26Z</time>
      </trkpt>
      <trkpt lat="44.94737" lon="4.87698">
        <ele>113.09</ele>
        <time>2013-09-27T06:40:29Z</time>
      </trkpt>
      <trkpt lat="44.94756" lon="4.87685">
        <ele>113.09</ele>
        <time>2013-09-27T06:40:32Z</time>
      </trkpt>
      <trkpt lat="44.94774" lon="4.87673">
        <ele>113.09</ele>
        <time>2013-09-27T06:40:35Z</time>
      </trkpt>
      <trkpt lat="44.94791" lon="4.87658">
        <ele>113.09</ele>
        <time>2013-09-27T06:40:38Z</time>
      </trkpt>
      <trkpt lat="44.94807" lon="4.87644">
        <ele>112.61</ele>
        <time>2013-09-27T06:40:41Z</time>
      </trkpt>
      <trkpt lat="44.94827" lon="4.87626">
        <ele>112.61</ele>
        <time>2013-09-27T06:40:45Z</time>
      </trkpt>
      <trkpt lat="44.94844" lon="4.87611">
        <ele>112.13</ele>
        <time>2013-09-27T06:40:48Z</time>
      </trkpt>
      <trkpt lat="44.9486" lon="4.87596">
        <ele>112.61</ele>
        <time>2013-09-27T06:40:51Z</time>
      </trkpt>
      <trkpt lat="44.94875" lon="4.87581">
        <ele>112.13</ele>
        <time>2013-09-27T06:40:54Z</time>
      </trkpt>
      <trkpt lat="44.94892" lon="4.87568">
        <ele>112.61</ele>
        <time>2013-09-27T06:40:57Z</time>
      </trkpt>
      <trkpt lat="44.94912" lon="4.87552">
        <ele>112.61</ele>
        <time>2013-09-27T06:41:01Z</time>
      </trkpt>
      <trkpt lat="44.94931" lon="4.87536">
        <ele>112.13</ele>
        <time>2013-09-27T06:41:05Z</time>
      </trkpt>
      <trkpt lat="44.94952" lon="4.8752">
        <ele>112.13</ele>
        <time>2013-09-27T06:41:09Z</time>
      </trkpt>
      <trkpt lat="44.94973" lon="4.87504">
        <ele>112.61</ele>
        <time>2013-09-27T06:41:13Z</time>
      </trkpt>
      <trkpt lat="44.94994" lon="4.87486">
        <ele>112.13</ele>
        <time>2013-09-27T06:41:17Z</time>
      </trkpt>
      <trkpt lat="44.95015" lon="4.87466">
        <ele>112.61</ele>
        <time>2013-09-27T06:41:21Z</time>
      </trkpt>
      <trkpt lat="44.95031" lon="4.8745">
        <ele>112.13</ele>
        <time>2013-09-27T06:41:24Z</time>
      </trkpt>
      <trkpt lat="44.95047" lon="4.87435">
        <ele>112.13</ele>
        <time>2013-09-27T06:41:27Z</time>
      </trkpt>
      <trkpt lat="44.95063" lon="4.87422">
        <ele>112.13</ele>
        <time>2013-09-27T06:41:30Z</time>
      </trkpt>
      <trkpt lat="44.9508" lon="4.87411">
        <ele>112.13</ele>
        <time>2013-09-27T06:41:33Z</time>
      </trkpt>
      <trkpt lat="44.95096" lon="4.87398">
        <ele>112.13</ele>
        <time>2013-09-27T06:41:36Z</time>
      </trkpt>
      <trkpt lat="44.95112" lon="4.87382">
        <ele>112.13</ele>
        <time>2013-09-27T06:41:39Z</time>
      </trkpt>
      <trkpt lat="44.9513" lon="4.87359">
        <ele>112.13</ele>
        <time>2013-09-27T06:41:43Z</time>
      </trkpt>
      <trkpt lat="44.95148" lon="4.87337">
        <ele>112.61</ele>
        <time>2013-09-27T06:41:47Z</time>
      </trkpt>
      <trkpt lat="44.95164" lon="4.87318">
        <ele>112.13</ele>
        <time>2013-09-27T06:41:51Z</time>
      </trkpt>
      <trkpt lat="44.95182" lon="4.87298">
        <ele>112.13</ele>
        <time>2013-09-27T06:41:55Z</time>
      </trkpt>
      <trkpt lat="44.95199" lon="4.87279">
        <ele>112.13</ele>
        <time>2013-09-27T06:41:59Z</time>
      </trkpt>
      <trkpt lat="44.95216" lon="4.8726">
        <ele>112.13</ele>
        <time>2013-09-27T06:42:03Z</time>
      </trkpt>
      <trkpt lat="44.95233" lon="4.8724">
        <ele>112.61</ele>
        <time>2013-09-27T06:42:07Z</time>
      </trkpt>
      <trkpt lat="44.95248" lon="4.87223">
        <ele>112.13</ele>
        <time>2013-09-27T06:42:10Z</time>
      </trkpt>
      <trkpt lat="44.95264" lon="4.87205">
        <ele>112.61</ele>
        <time>2013-09-27T06:42:14Z</time>
      </trkpt>
      <trkpt lat="44.95281" lon="4.87185">
        <ele>112.61</ele>
        <time>2013-09-27T06:42:18Z</time>
      </trkpt>
      <trkpt lat="44.95296" lon="4.87169">
        <ele>112.61</ele>
        <time>2013-09-27T06:42:22Z</time>
      </trkpt>
      <trkpt lat="44.95314" lon="4.87147">
        <ele>113.09</ele>
        <time>2013-09-27T06:42:27Z</time>
      </trkpt>
      <trkpt lat="44.95332" lon="4.87126">
        <ele>113.57</ele>
        <time>2013-09-27T06:42:31Z</time>
      </trkpt>
      <trkpt lat="44.95347" lon="4.87109">
        <ele>113.09</ele>
        <time>2013-09-27T06:42:34Z</time>
      </trkpt>
      <trkpt lat="44.95363" lon="4.87089">
        <ele>112.61</ele>
        <time>2013-09-27T06:42:38Z</time>
      </trkpt>
      <trkpt lat="44.95381" lon="4.87068">
        <ele>113.09</ele>
        <time>2013-09-27T06:42:42Z</time>
      </trkpt>
      <trkpt lat="44.95398" lon="4.87051">
        <ele>113.09</ele>
        <time>2013-09-27T06:42:46Z</time>
      </trkpt>
      <trkpt lat="44.9541" lon="4.8703">
        <ele>113.57</ele>
        <time>2013-09-27T06:42:49Z</time>
      </trkpt>
      <trkpt lat="44.95425" lon="4.87005">
        <ele>113.57</ele>
        <time>2013-09-27T06:42:53Z</time>
      </trkpt>
      <trkpt lat="44.95438" lon="4.8698">
        <ele>114.53</ele>
        <time>2013-09-27T06:42:58Z</time>
      </trkpt>
      <trkpt lat="44.95451" lon="4.8696">
        <ele>113.57</ele>
        <time>2013-09-27T06:43:03Z</time>
      </trkpt>
      <trkpt lat="44.95464" lon="4.86939">
        <ele>112.61</ele>
        <time>2013-09-27T06:43:08Z</time>
      </trkpt>
      <trkpt lat="44.95485" lon="4.86919">
        <ele>111.65</ele>
        <time>2013-09-27T06:43:13Z</time>
      </trkpt>
      <trkpt lat="44.95505" lon="4.86934">
        <ele>110.21</ele>
        <time>2013-09-27T06:43:17Z</time>
      </trkpt>
      <trkpt lat="44.95515" lon="4.86956">
        <ele>109.25</ele>
        <time>2013-09-27T06:43:20Z</time>
      </trkpt>
      <trkpt lat="44.95528" lon="4.86984">
        <ele>110.69</ele>
        <time>2013-09-27T06:43:24Z</time>
      </trkpt>
      <trkpt lat="44.95539" lon="4.87008">
        <ele>111.65</ele>
        <time>2013-09-27T06:43:28Z</time>
      </trkpt>
      <trkpt lat="44.95542" lon="4.87037">
        <ele>111.65</ele>
        <time>2013-09-27T06:43:32Z</time>
      </trkpt>
      <trkpt lat="44.95542" lon="4.87068">
        <ele>111.65</ele>
        <time>2013-09-27T06:43:36Z</time>
      </trkpt>
      <trkpt lat="44.95546" lon="4.871">
        <ele>111.65</ele>
        <time>2013-09-27T06:43:40Z</time>
      </trkpt>
      <trkpt lat="44.95552" lon="4.87131">
        <ele>112.13</ele>
        <time>2013-09-27T06:43:44Z</time>
      </trkpt>
      <trkpt lat="44.95559" lon="4.87161">
        <ele>112.13</ele>
        <time>2013-09-27T06:43:48Z</time>
      </trkpt>
      <trkpt lat="44.95566" lon="4.87192">
        <ele>111.65</ele>
        <time>2013-09-27T06:43:52Z</time>
      </trkpt>
      <trkpt lat="44.95572" lon="4.87224">
        <ele>111.65</ele>
        <time>2013-09-27T06:43:56Z</time>
      </trkpt>
      <trkpt lat="44.95578" lon="4.87256">
        <ele>112.13</ele>
        <time>2013-09-27T06:44:00Z</time>
      </trkpt>
      <trkpt lat="44.9558" lon="4.87289">
        <ele>111.17</ele>
        <time>2013-09-27T06:44:04Z</time>
      </trkpt>
      <trkpt lat="44.95583" lon="4.87317">
        <ele>111.65</ele>
        <time>2013-09-27T06:44:08Z</time>
      </trkpt>
      <trkpt lat="44.95602" lon="4.87318">
        <ele>111.65</ele>
        <time>2013-09-27T06:44:13Z</time>
      </trkpt>
      <trkpt lat="44.95615" lon="4.87295">
        <ele>111.65</ele>
        <time>2013-09-27T06:44:17Z</time>
      </trkpt>
      <trkpt lat="44.95629" lon="4.87271">
        <ele>111.65</ele>
        <time>2013-09-27T06:44:21Z</time>
      </trkpt>
      <trkpt lat="44.95643" lon="4.87246">
        <ele>111.65</ele>
        <time>2013-09-27T06:44:25Z</time>
      </trkpt>
      <trkpt lat="44.95657" lon="4.87223">
        <ele>112.13</ele>
        <time>2013-09-27T06:44:29Z</time>
      </trkpt>
      <trkpt lat="44.95674" lon="4.87201">
        <ele>110.69</ele>
        <time>2013-09-27T06:44:33Z</time>
      </trkpt>
      <trkpt lat="44.95687" lon="4.87183">
        <ele>110.69</ele>
        <time>2013-09-27T06:44:36Z</time>
      </trkpt>
      <trkpt lat="44.95702" lon="4.87159">
        <ele>110.69</ele>
        <time>2013-09-27T06:44:40Z</time>
      </trkpt>
      <trkpt lat="44.95717" lon="4.87134">
        <ele>110.69</ele>
        <time>2013-09-27T06:44:44Z</time>
      </trkpt>
      <trkpt lat="44.95732" lon="4.87106">
        <ele>111.17</ele>
        <time>2013-09-27T06:44:48Z</time>
      </trkpt>
      <trkpt lat="44.95745" lon="4.87076">
        <ele>111.17</ele>
        <time>2013-09-27T06:44:52Z</time>
      </trkpt>
      <trkpt lat="44.95757" lon="4.87046">
        <ele>111.17</ele>
        <time>2013-09-27T06:44:56Z</time>
      </trkpt>
      <trkpt lat="44.95769" lon="4.87017">
        <ele>111.17</ele>
        <time>2013-09-27T06:45:00Z</time>
      </trkpt>
      <trkpt lat="44.95783" lon="4.86989">
        <ele>111.65</ele>
        <time>2013-09-27T06:45:04Z</time>
      </trkpt>
      <trkpt lat="44.95796" lon="4.86961">
        <ele>110.69</ele>
        <time>2013-09-27T06:45:08Z</time>
      </trkpt>
      <trkpt lat="44.95808" lon="4.86934">
        <ele>111.17</ele>
        <time>2013-09-27T06:45:12Z</time>
      </trkpt>
      <trkpt lat="44.9582" lon="4.86908">
        <ele>110.21</ele>
        <time>2013-09-27T06:45:16Z</time>
      </trkpt>
      <trkpt lat="44.95832" lon="4.86879">
        <ele>110.21</ele>
        <time>2013-09-27T06:45:20Z</time>
      </trkpt>
      <trkpt lat="44.95842" lon="4.86848">
        <ele>110.21</ele>
        <time>2013-09-27T06:45:24Z</time>
      </trkpt>
      <trkpt lat="44.9585" lon="4.8682">
        <ele>110.69</ele>
        <time>2013-09-27T06:45:28Z</time>
      </trkpt>
      <trkpt lat="44.9586" lon="4.86791">
        <ele>110.69</ele>
        <time>2013-09-27T06:45:32Z</time>
      </trkpt>
      <trkpt lat="44.95872" lon="4.86767">
        <ele>111.17</ele>
        <time>2013-09-27T06:45:36Z</time>
      </trkpt>
      <trkpt lat="44.95891" lon="4.86748">
        <ele>110.21</ele>
        <time>2013-09-27T06:45:40Z</time>
      </trkpt>
      <trkpt lat="44.95903" lon="4.86724">
        <ele>110.69</ele>
        <time>2013-09-27T06:45:44Z</time>
      </trkpt>
      <trkpt lat="44.95911" lon="4.86697">
        <ele>110.21</ele>
        <time>2013-09-27T06:45:48Z</time>
      </trkpt>
      <trkpt lat="44.95922" lon="4.86672">
        <ele>110.69</ele>
        <time>2013-09-27T06:45:52Z</time>
      </trkpt>
      <trkpt lat="44.95932" lon="4.86647">
        <ele>111.17</ele>
        <time>2013-09-27T06:45:56Z</time>
      </trkpt>
      <trkpt lat="44.95944" lon="4.86621">
        <ele>110.69</ele>
        <time>2013-09-27T06:46:00Z</time>
      </trkpt>
      <trkpt lat="44.95954" lon="4.86588">
        <ele>109.25</ele>
        <time>2013-09-27T06:46:04Z</time>
      </trkpt>
      <trkpt lat="44.95962" lon="4.8656">
        <ele>110.21</ele>
        <time>2013-09-27T06:46:07Z</time>
      </trkpt>
      <trkpt lat="44.95972" lon="4.8653">
        <ele>110.69</ele>
        <time>2013-09-27T06:46:11Z</time>
      </trkpt>
      <trkpt lat="44.95983" lon="4.86507">
        <ele>110.69</ele>
        <time>2013-09-27T06:46:15Z</time>
      </trkpt>
      <trkpt lat="44.95995" lon="4.86479">
        <ele>111.65</ele>
        <time>2013-09-27T06:46:20Z</time>
      </trkpt>
      <trkpt lat="44.96006" lon="4.86453">
        <ele>111.65</ele>
        <time>2013-09-27T06:46:24Z</time>
      </trkpt>
      <trkpt lat="44.96019" lon="4.86426">
        <ele>112.13</ele>
        <time>2013-09-27T06:46:28Z</time>
      </trkpt>
      <trkpt lat="44.96033" lon="4.864">
        <ele>111.65</ele>
        <time>2013-09-27T06:46:32Z</time>
      </trkpt>
      <trkpt lat="44.96054" lon="4.86384">
        <ele>111.65</ele>
        <time>2013-09-27T06:46:36Z</time>
      </trkpt>
      <trkpt lat="44.96076" lon="4.86375">
        <ele>111.65</ele>
        <time>2013-09-27T06:46:40Z</time>
      </trkpt>
      <trkpt lat="44.96096" lon="4.86358">
        <ele>111.65</ele>
        <time>2013-09-27T06:46:44Z</time>
      </trkpt>
      <trkpt lat="44.96114" lon="4.86339">
        <ele>111.65</ele>
        <time>2013-09-27T06:46:48Z</time>
      </trkpt>
      <trkpt lat="44.96132" lon="4.86319">
        <ele>111.65</ele>
        <time>2013-09-27T06:46:52Z</time>
      </trkpt>
      <trkpt lat="44.96147" lon="4.86293">
        <ele>111.65</ele>
        <time>2013-09-27T06:46:56Z</time>
      </trkpt>
      <trkpt lat="44.96162" lon="4.86274">
        <ele>111.65</ele>
        <time>2013-09-27T06:47:00Z</time>
      </trkpt>
      <trkpt lat="44.96178" lon="4.86255">
        <ele>111.65</ele>
        <time>2013-09-27T06:47:04Z</time>
      </trkpt>
      <trkpt lat="44.96193" lon="4.86235">
        <ele>111.17</ele>
        <time>2013-09-27T06:47:08Z</time>
      </trkpt>
      <trkpt lat="44.9621" lon="4.86215">
        <ele>111.65</ele>
        <time>2013-09-27T06:47:12Z</time>
      </trkpt>
      <trkpt lat="44.96227" lon="4.86198">
        <ele>112.13</ele>
        <time>2013-09-27T06:47:16Z</time>
      </trkpt>
      <trkpt lat="44.96244" lon="4.86178">
        <ele>112.13</ele>
        <time>2013-09-27T06:47:20Z</time>
      </trkpt>
      <trkpt lat="44.96262" lon="4.86157">
        <ele>112.13</ele>
        <time>2013-09-27T06:47:24Z</time>
      </trkpt>
      <trkpt lat="44.9628" lon="4.86134">
        <ele>111.65</ele>
        <time>2013-09-27T06:47:28Z</time>
      </trkpt>
      <trkpt lat="44.96298" lon="4.86113">
        <ele>111.65</ele>
        <time>2013-09-27T06:47:32Z</time>
      </trkpt>
      <trkpt lat="44.96318" lon="4.86093">
        <ele>111.65</ele>
        <time>2013-09-27T06:47:36Z</time>
      </trkpt>
      <trkpt lat="44.96336" lon="4.86073">
        <ele>111.17</ele>
        <time>2013-09-27T06:47:40Z</time>
      </trkpt>
      <trkpt lat="44.96355" lon="4.86058">
        <ele>110.69</ele>
        <time>2013-09-27T06:47:44Z</time>
      </trkpt>
      <trkpt lat="44.96371" lon="4.86041">
        <ele>110.21</ele>
        <time>2013-09-27T06:47:47Z</time>
      </trkpt>
      <trkpt lat="44.9639" lon="4.86018">
        <ele>110.69</ele>
        <time>2013-09-27T06:47:51Z</time>
      </trkpt>
      <trkpt lat="44.96408" lon="4.85997">
        <ele>110.69</ele>
        <time>2013-09-27T06:47:55Z</time>
      </trkpt>
      <trkpt lat="44.96427" lon="4.85978">
        <ele>110.69</ele>
        <time>2013-09-27T06:47:59Z</time>
      </trkpt>
      <trkpt lat="44.96446" lon="4.85961">
        <ele>110.69</ele>
        <time>2013-09-27T06:48:03Z</time>
      </trkpt>
      <trkpt lat="44.96464" lon="4.85937">
        <ele>110.69</ele>
        <time>2013-09-27T06:48:07Z</time>
      </trkpt>
      <trkpt lat="44.96481" lon="4.85912">
        <ele>110.21</ele>
        <time>2013-09-27T06:48:11Z</time>
      </trkpt>
      <trkpt lat="44.96498" lon="4.85888">
        <ele>110.69</ele>
        <time>2013-09-27T06:48:15Z</time>
      </trkpt>
      <trkpt lat="44.96513" lon="4.85865">
        <ele>111.17</ele>
        <time>2013-09-27T06:48:19Z</time>
      </trkpt>
      <trkpt lat="44.96529" lon="4.85844">
        <ele>110.69</ele>
        <time>2013-09-27T06:48:23Z</time>
      </trkpt>
      <trkpt lat="44.96548" lon="4.85822">
        <ele>111.17</ele>
        <time>2013-09-27T06:48:27Z</time>
      </trkpt>
      <trkpt lat="44.96565" lon="4.85803">
        <ele>110.69</ele>
        <time>2013-09-27T06:48:31Z</time>
      </trkpt>
      <trkpt lat="44.96583" lon="4.85784">
        <ele>110.69</ele>
        <time>2013-09-27T06:48:35Z</time>
      </trkpt>
      <trkpt lat="44.966" lon="4.85762">
        <ele>111.17</ele>
        <time>2013-09-27T06:48:39Z</time>
      </trkpt>
      <trkpt lat="44.96617" lon="4.85739">
        <ele>111.65</ele>
        <time>2013-09-27T06:48:43Z</time>
      </trkpt>
      <trkpt lat="44.96635" lon="4.8572">
        <ele>111.65</ele>
        <time>2013-09-27T06:48:47Z</time>
      </trkpt>
      <trkpt lat="44.96653" lon="4.85706">
        <ele>111.65</ele>
        <time>2013-09-27T06:48:52Z</time>
      </trkpt>
      <trkpt lat="44.96674" lon="4.85696">
        <ele>110.69</ele>
        <time>2013-09-27T06:48:56Z</time>
      </trkpt>
      <trkpt lat="44.96694" lon="4.85684">
        <ele>112.13</ele>
        <time>2013-09-27T06:49:00Z</time>
      </trkpt>
      <trkpt lat="44.96713" lon="4.85667">
        <ele>111.65</ele>
        <time>2013-09-27T06:49:05Z</time>
      </trkpt>
      <trkpt lat="44.96733" lon="4.85654">
        <ele>110.69</ele>
        <time>2013-09-27T06:49:09Z</time>
      </trkpt>
      <trkpt lat="44.96755" lon="4.85642">
        <ele>110.69</ele>
        <time>2013-09-27T06:49:13Z</time>
      </trkpt>
      <trkpt lat="44.96771" lon="4.8563">
        <ele>110.69</ele>
        <time>2013-09-27T06:49:16Z</time>
      </trkpt>
      <trkpt lat="44.9679" lon="4.85613">
        <ele>111.17</ele>
        <time>2013-09-27T06:49:20Z</time>
      </trkpt>
      <trkpt lat="44.96808" lon="4.85598">
        <ele>110.69</ele>
        <time>2013-09-27T06:49:24Z</time>
      </trkpt>
      <trkpt lat="44.96827" lon="4.85583">
        <ele>110.69</ele>
        <time>2013-09-27T06:49:28Z</time>
      </trkpt>
      <trkpt lat="44.96847" lon="4.85567">
        <ele>110.69</ele>
        <time>2013-09-27T06:49:32Z</time>
      </trkpt>
      <trkpt lat="44.96867" lon="4.85552">
        <ele>110.69</ele>
        <time>2013-09-27T06:49:36Z</time>
      </trkpt>
      <trkpt lat="44.96887" lon="4.85537">
        <ele>110.69</ele>
        <time>2013-09-27T06:49:40Z</time>
      </trkpt>
      <trkpt lat="44.96904" lon="4.85523">
        <ele>111.17</ele>
        <time>2013-09-27T06:49:44Z</time>
      </trkpt>
      <trkpt lat="44.96926" lon="4.8551">
        <ele>111.17</ele>
        <time>2013-09-27T06:49:48Z</time>
      </trkpt>
      <trkpt lat="44.96948" lon="4.85497">
        <ele>110.69</ele>
        <time>2013-09-27T06:49:52Z</time>
      </trkpt>
      <trkpt lat="44.9697" lon="4.85488">
        <ele>110.69</ele>
        <time>2013-09-27T06:49:56Z</time>
      </trkpt>
      <trkpt lat="44.96992" lon="4.85477">
        <ele>111.65</ele>
        <time>2013-09-27T06:50:00Z</time>
      </trkpt>
      <trkpt lat="44.97013" lon="4.85464">
        <ele>111.17</ele>
        <time>2013-09-27T06:50:04Z</time>
      </trkpt>
      <trkpt lat="44.97035" lon="4.85451">
        <ele>111.17</ele>
        <time>2013-09-27T06:50:08Z</time>
      </trkpt>
      <trkpt lat="44.97053" lon="4.85443">
        <ele>111.17</ele>
        <time>2013-09-27T06:50:11Z</time>
      </trkpt>
      <trkpt lat="44.97071" lon="4.85436">
        <ele>110.69</ele>
        <time>2013-09-27T06:50:14Z</time>
      </trkpt>
      <trkpt lat="44.9709" lon="4.85428">
        <ele>110.69</ele>
        <time>2013-09-27T06:50:17Z</time>
      </trkpt>
      <trkpt lat="44.97109" lon="4.8542">
        <ele>110.69</ele>
        <time>2013-09-27T06:50:20Z</time>
      </trkpt>
      <trkpt lat="44.97127" lon="4.85413">
        <ele>110.69</ele>
        <time>2013-09-27T06:50:23Z</time>
      </trkpt>
      <trkpt lat="44.97146" lon="4.85406">
        <ele>111.17</ele>
        <time>2013-09-27T06:50:26Z</time>
      </trkpt>
      <trkpt lat="44.97163" lon="4.854">
        <ele>110.69</ele>
        <time>2013-09-27T06:50:29Z</time>
      </trkpt>
      <trkpt lat="44.9718" lon="4.85392">
        <ele>111.17</ele>
        <time>2013-09-27T06:50:32Z</time>
      </trkpt>
      <trkpt lat="44.97197" lon="4.85382">
        <ele>111.17</ele>
        <time>2013-09-27T06:50:35Z</time>
      </trkpt>
      <trkpt lat="44.97214" lon="4.85372">
        <ele>110.69</ele>
        <time>2013-09-27T06:50:38Z</time>
      </trkpt>
      <trkpt lat="44.97232" lon="4.85363">
        <ele>111.17</ele>
        <time>2013-09-27T06:50:41Z</time>
      </trkpt>
      <trkpt lat="44.97248" lon="4.85353">
        <ele>111.17</ele>
        <time>2013-09-27T06:50:44Z</time>
      </trkpt>
      <trkpt lat="44.97271" lon="4.85343">
        <ele>111.65</ele>
        <time>2013-09-27T06:50:48Z</time>
      </trkpt>
      <trkpt lat="44.97292" lon="4.85334">
        <ele>112.13</ele>
        <time>2013-09-27T06:50:52Z</time>
      </trkpt>
      <trkpt lat="44.97313" lon="4.85327">
        <ele>113.57</ele>
        <time>2013-09-27T06:50:56Z</time>
      </trkpt>
      <trkpt lat="44.97332" lon="4.85322">
        <ele>114.05</ele>
        <time>2013-09-27T06:51:00Z</time>
      </trkpt>
      <trkpt lat="44.97352" lon="4.85315">
        <ele>114.05</ele>
        <time>2013-09-27T06:51:05Z</time>
      </trkpt>
      <trkpt lat="44.97365" lon="4.85336">
        <ele>113.09</ele>
        <time>2013-09-27T06:51:10Z</time>
      </trkpt>
      <trkpt lat="44.97382" lon="4.85318">
        <ele>113.09</ele>
        <time>2013-09-27T06:51:15Z</time>
      </trkpt>
      <trkpt lat="44.97399" lon="4.85302">
        <ele>112.13</ele>
        <time>2013-09-27T06:51:19Z</time>
      </trkpt>
      <trkpt lat="44.97421" lon="4.85286">
        <ele>111.65</ele>
        <time>2013-09-27T06:51:23Z</time>
      </trkpt>
      <trkpt lat="44.97442" lon="4.8528">
        <ele>111.17</ele>
        <time>2013-09-27T06:51:27Z</time>
      </trkpt>
      <trkpt lat="44.97464" lon="4.85284">
        <ele>109.73</ele>
        <time>2013-09-27T06:51:31Z</time>
      </trkpt>
      <trkpt lat="44.97488" lon="4.8529">
        <ele>109.25</ele>
        <time>2013-09-27T06:51:35Z</time>
      </trkpt>
      <trkpt lat="44.97512" lon="4.85299">
        <ele>107.81</ele>
        <time>2013-09-27T06:51:39Z</time>
      </trkpt>
      <trkpt lat="44.97536" lon="4.85302">
        <ele>107.32</ele>
        <time>2013-09-27T06:51:43Z</time>
      </trkpt>
      <trkpt lat="44.97552" lon="4.85284">
        <ele>108.77</ele>
        <time>2013-09-27T06:51:52Z</time>
      </trkpt>
      <trkpt lat="44.97574" lon="4.85273">
        <ele>108.77</ele>
        <time>2013-09-27T06:52:03Z</time>
      </trkpt>
      <trkpt lat="44.97595" lon="4.85271">
        <ele>108.77</ele>
        <time>2013-09-27T06:52:09Z</time>
      </trkpt>
      <trkpt lat="44.97615" lon="4.85266">
        <ele>109.25</ele>
        <time>2013-09-27T06:52:14Z</time>
      </trkpt>
      <trkpt lat="44.97636" lon="4.85261">
        <ele>110.69</ele>
        <time>2013-09-27T06:52:19Z</time>
      </trkpt>
      <trkpt lat="44.97662" lon="4.85252">
        <ele>110.69</ele>
        <time>2013-09-27T06:52:26Z</time>
      </trkpt>
      <trkpt lat="44.97689" lon="4.85255">
        <ele>110.21</ele>
        <time>2013-09-27T06:52:32Z</time>
      </trkpt>
      <trkpt lat="44.97717" lon="4.85247">
        <ele>110.69</ele>
        <time>2013-09-27T06:52:37Z</time>
      </trkpt>
      <trkpt lat="44.97744" lon="4.85245">
        <ele>110.69</ele>
        <time>2013-09-27T06:52:42Z</time>
      </trkpt>
      <trkpt lat="44.97768" lon="4.8524">
        <ele>109.73</ele>
        <time>2013-09-27T06:52:46Z</time>
      </trkpt>
      <trkpt lat="44.97799" lon="4.85236">
        <ele>109.25</ele>
        <time>2013-09-27T06:52:50Z</time>
      </trkpt>
      <trkpt lat="44.97821" lon="4.85231">
        <ele>109.25</ele>
        <time>2013-09-27T06:52:54Z</time>
      </trkpt>
      <trkpt lat="44.97843" lon="4.85223">
        <ele>109.25</ele>
        <time>2013-09-27T06:52:59Z</time>
      </trkpt>
      <trkpt lat="44.97866" lon="4.85215">
        <ele>109.25</ele>
        <time>2013-09-27T06:53:04Z</time>
      </trkpt>
      <trkpt lat="44.97887" lon="4.85203">
        <ele>110.21</ele>
        <time>2013-09-27T06:53:09Z</time>
      </trkpt>
      <trkpt lat="44.97911" lon="4.85194">
        <ele>110.21</ele>
        <time>2013-09-27T06:53:14Z</time>
      </trkpt>
      <trkpt lat="44.97933" lon="4.85196">
        <ele>109.25</ele>
        <time>2013-09-27T06:53:20Z</time>
      </trkpt>
      <trkpt lat="44.97958" lon="4.85187">
        <ele>111.65</ele>
        <time>2013-09-27T06:53:27Z</time>
      </trkpt>
      <trkpt lat="44.97981" lon="4.8518">
        <ele>111.65</ele>
        <time>2013-09-27T06:53:32Z</time>
      </trkpt>
      <trkpt lat="44.98007" lon="4.8517">
        <ele>111.65</ele>
        <time>2013-09-27T06:53:41Z</time>
      </trkpt>
      <trkpt lat="44.98032" lon="4.8517">
        <ele>111.65</ele>
        <time>2013-09-27T06:53:48Z</time>
      </trkpt>
      <trkpt lat="44.98055" lon="4.85162">
        <ele>111.65</ele>
        <time>2013-09-27T06:53:55Z</time>
      </trkpt>
      <trkpt lat="44.98079" lon="4.8515">
        <ele>111.65</ele>
        <time>2013-09-27T06:54:05Z</time>
      </trkpt>
      <trkpt lat="44.98114" lon="4.85155">
        <ele>111.17</ele>
        <time>2013-09-27T06:54:17Z</time>
      </trkpt>
      <trkpt lat="44.98152" lon="4.85153">
        <ele>111.65</ele>
        <time>2013-09-27T06:54:27Z</time>
      </trkpt>
      <trkpt lat="44.98205" lon="4.85153">
        <ele>111.65</ele>
        <time>2013-09-27T06:54:36Z</time>
      </trkpt>
      <trkpt lat="44.98237" lon="4.85154">
        <ele>112.13</ele>
        <time>2013-09-27T06:54:42Z</time>
      </trkpt>
      <trkpt lat="44.98257" lon="4.8515">
        <ele>112.61</ele>
        <time>2013-09-27T06:55:18Z</time>
      </trkpt>
      <trkpt lat="44.98285" lon="4.85145">
        <ele>112.13</ele>
        <time>2013-09-27T06:55:28Z</time>
      </trkpt>
      <trkpt lat="44.98311" lon="4.85147">
        <ele>111.65</ele>
        <time>2013-09-27T06:55:35Z</time>
      </trkpt>
      <trkpt lat="44.98336" lon="4.85143">
        <ele>111.65</ele>
        <time>2013-09-27T06:55:42Z</time>
      </trkpt>
      <trkpt lat="44.98376" lon="4.85144">
        <ele>112.61</ele>
        <time>2013-09-27T06:55:50Z</time>
      </trkpt>
      <trkpt lat="44.984" lon="4.85141">
        <ele>113.09</ele>
        <time>2013-09-27T06:55:58Z</time>
      </trkpt>
      <trkpt lat="44.98426" lon="4.85152">
        <ele>111.65</ele>
        <time>2013-09-27T06:56:05Z</time>
      </trkpt>
      <trkpt lat="44.98448" lon="4.85152">
        <ele>111.65</ele>
        <time>2013-09-27T06:56:11Z</time>
      </trkpt>
      <trkpt lat="44.98476" lon="4.85147">
        <ele>112.61</ele>
        <time>2013-09-27T06:56:18Z</time>
      </trkpt>
      <trkpt lat="44.98495" lon="4.85128">
        <ele>111.17</ele>
        <time>2013-09-27T06:56:26Z</time>
      </trkpt>
      <trkpt lat="44.98495" lon="4.85104">
        <ele>112.61</ele>
        <time>2013-09-27T06:56:50Z</time>
      </trkpt>
      <trkpt lat="44.98516" lon="4.85103">
        <ele>112.61</ele>
        <time>2013-09-27T06:57:01Z</time>
      </trkpt>
      <trkpt lat="44.98539" lon="4.85102">
        <ele>112.61</ele>
        <time>2013-09-27T06:57:07Z</time>
      </trkpt>
      <trkpt lat="44.98561" lon="4.85099">
        <ele>112.13</ele>
        <time>2013-09-27T06:57:13Z</time>
      </trkpt>
      <trkpt lat="44.98582" lon="4.85099">
        <ele>112.13</ele>
        <time>2013-09-27T06:57:18Z</time>
      </trkpt>
      <trkpt lat="44.98602" lon="4.85098">
        <ele>112.13</ele>
        <time>2013-09-27T06:57:23Z</time>
      </trkpt>
      <trkpt lat="44.98621" lon="4.85098">
        <ele>112.61</ele>
        <time>2013-09-27T06:57:28Z</time>
      </trkpt>
      <trkpt lat="44.98634" lon="4.8508">
        <ele>113.09</ele>
        <time>2013-09-27T06:57:35Z</time>
      </trkpt>
      <trkpt lat="44.98652" lon="4.8507">
        <ele>113.57</ele>
        <time>2013-09-27T06:57:42Z</time>
      </trkpt>
      <trkpt lat="44.98671" lon="4.85064">
        <ele>114.05</ele>
        <time>2013-09-27T06:57:48Z</time>
      </trkpt>
      <trkpt lat="44.98694" lon="4.85061">
        <ele>113.57</ele>
        <time>2013-09-27T06:57:53Z</time>
      </trkpt>
      <trkpt lat="44.98714" lon="4.85058">
        <ele>113.09</ele>
        <time>2013-09-27T06:57:57Z</time>
      </trkpt>
      <trkpt lat="44.98734" lon="4.85048">
        <ele>113.57</ele>
        <time>2013-09-27T06:58:01Z</time>
      </trkpt>
      <trkpt lat="44.98753" lon="4.85032">
        <ele>113.57</ele>
        <time>2013-09-27T06:58:05Z</time>
      </trkpt>
      <trkpt lat="44.98772" lon="4.85019">
        <ele>114.05</ele>
        <time>2013-09-27T06:58:09Z</time>
      </trkpt>
      <trkpt lat="44.98793" lon="4.85017">
        <ele>114.05</ele>
        <time>2013-09-27T06:58:13Z</time>
      </trkpt>
      <trkpt lat="44.98816" lon="4.85017">
        <ele>114.05</ele>
        <time>2013-09-27T06:58:17Z</time>
      </trkpt>
      <trkpt lat="44.98838" lon="4.85014">
        <ele>114.53</ele>
        <time>2013-09-27T06:58:21Z</time>
      </trkpt>
      <trkpt lat="44.98861" lon="4.85008">
        <ele>114.05</ele>
        <time>2013-09-27T06:58:25Z</time>
      </trkpt>
      <trkpt lat="44.98884" lon="4.84998">
        <ele>114.05</ele>
        <time>2013-09-27T06:58:29Z</time>
      </trkpt>
      <trkpt lat="44.98901" lon="4.8499">
        <ele>113.57</ele>
        <time>2013-09-27T06:58:32Z</time>
      </trkpt>
      <trkpt lat="44.98919" lon="4.84984">
        <ele>113.57</ele>
        <time>2013-09-27T06:58:35Z</time>
      </trkpt>
      <trkpt lat="44.98938" lon="4.84979">
        <ele>114.05</ele>
        <time>2013-09-27T06:58:38Z</time>
      </trkpt>
      <trkpt lat="44.98956" lon="4.84976">
        <ele>114.53</ele>
        <time>2013-09-27T06:58:41Z</time>
      </trkpt>
      <trkpt lat="44.98975" lon="4.84974">
        <ele>114.05</ele>
        <time>2013-09-27T06:58:44Z</time>
      </trkpt>
      <trkpt lat="44.98999" lon="4.8497">
        <ele>114.53</ele>
        <time>2013-09-27T06:58:48Z</time>
      </trkpt>
      <trkpt lat="44.99022" lon="4.84967">
        <ele>114.53</ele>
        <time>2013-09-27T06:58:52Z</time>
      </trkpt>
      <trkpt lat="44.99046" lon="4.84963">
        <ele>114.05</ele>
        <time>2013-09-27T06:58:56Z</time>
      </trkpt>
      <trkpt lat="44.99069" lon="4.84959">
        <ele>114.53</ele>
        <time>2013-09-27T06:59:00Z</time>
      </trkpt>
      <trkpt lat="44.99087" lon="4.84956">
        <ele>114.53</ele>
        <time>2013-09-27T06:59:03Z</time>
      </trkpt>
      <trkpt lat="44.99106" lon="4.84951">
        <ele>114.53</ele>
        <time>2013-09-27T06:59:06Z</time>
      </trkpt>
      <trkpt lat="44.99123" lon="4.84945">
        <ele>114.53</ele>
        <time>2013-09-27T06:59:09Z</time>
      </trkpt>
      <trkpt lat="44.99141" lon="4.84938">
        <ele>114.53</ele>
        <time>2013-09-27T06:59:12Z</time>
      </trkpt>
      <trkpt lat="44.9916" lon="4.84931">
        <ele>114.53</ele>
        <time>2013-09-27T06:59:15Z</time>
      </trkpt>
      <trkpt lat="44.99178" lon="4.84922">
        <ele>114.53</ele>
        <time>2013-09-27T06:59:18Z</time>
      </trkpt>
      <trkpt lat="44.99196" lon="4.84912">
        <ele>114.53</ele>
        <time>2013-09-27T06:59:21Z</time>
      </trkpt>
      <trkpt lat="44.99213" lon="4.84902">
        <ele>115.01</ele>
        <time>2013-09-27T06:59:24Z</time>
      </trkpt>
      <trkpt lat="44.99231" lon="4.84892">
        <ele>114.53</ele>
        <time>2013-09-27T06:59:27Z</time>
      </trkpt>
      <trkpt lat="44.99247" lon="4.84881">
        <ele>114.53</ele>
        <time>2013-09-27T06:59:30Z</time>
      </trkpt>
      <trkpt lat="44.99266" lon="4.84866">
        <ele>115.5</ele>
        <time>2013-09-27T06:59:34Z</time>
      </trkpt>
      <trkpt lat="44.99287" lon="4.84873">
        <ele>114.53</ele>
        <time>2013-09-27T06:59:38Z</time>
      </trkpt>
      <trkpt lat="44.99309" lon="4.84873">
        <ele>114.05</ele>
        <time>2013-09-27T06:59:42Z</time>
      </trkpt>
      <trkpt lat="44.99327" lon="4.84863">
        <ele>113.57</ele>
        <time>2013-09-27T06:59:45Z</time>
      </trkpt>
      <trkpt lat="44.99347" lon="4.84862">
        <ele>111.65</ele>
        <time>2013-09-27T06:59:48Z</time>
      </trkpt>
      <trkpt lat="44.99367" lon="4.84862">
        <ele>111.65</ele>
        <time>2013-09-27T06:59:51Z</time>
      </trkpt>
      <trkpt lat="44.99387" lon="4.84846">
        <ele>111.17</ele>
        <time>2013-09-27T06:59:55Z</time>
      </trkpt>
      <trkpt lat="44.99406" lon="4.84828">
        <ele>111.65</ele>
        <time>2013-09-27T06:59:59Z</time>
      </trkpt>
      <trkpt lat="44.99425" lon="4.84812">
        <ele>111.65</ele>
        <time>2013-09-27T07:00:03Z</time>
      </trkpt>
      <trkpt lat="44.99443" lon="4.84797">
        <ele>111.17</ele>
        <time>2013-09-27T07:00:07Z</time>
      </trkpt>
      <trkpt lat="44.99462" lon="4.84781">
        <ele>111.65</ele>
        <time>2013-09-27T07:00:11Z</time>
      </trkpt>
      <trkpt lat="44.99482" lon="4.84766">
        <ele>111.65</ele>
        <time>2013-09-27T07:00:15Z</time>
      </trkpt>
      <trkpt lat="44.99502" lon="4.84751">
        <ele>111.65</ele>
        <time>2013-09-27T07:00:19Z</time>
      </trkpt>
      <trkpt lat="44.99522" lon="4.84736">
        <ele>111.65</ele>
        <time>2013-09-27T07:00:23Z</time>
      </trkpt>
      <trkpt lat="44.99543" lon="4.84723">
        <ele>111.65</ele>
        <time>2013-09-27T07:00:27Z</time>
      </trkpt>
      <trkpt lat="44.99564" lon="4.84712">
        <ele>111.65</ele>
        <time>2013-09-27T07:00:31Z</time>
      </trkpt>
      <trkpt lat="44.99587" lon="4.84703">
        <ele>112.13</ele>
        <time>2013-09-27T07:00:35Z</time>
      </trkpt>
      <trkpt lat="44.99609" lon="4.84694">
        <ele>112.13</ele>
        <time>2013-09-27T07:00:39Z</time>
      </trkpt>
      <trkpt lat="44.9963" lon="4.84683">
        <ele>112.13</ele>
        <time>2013-09-27T07:00:43Z</time>
      </trkpt>
      <trkpt lat="44.99649" lon="4.84672">
        <ele>112.61</ele>
        <time>2013-09-27T07:00:47Z</time>
      </trkpt>
      <trkpt lat="44.99667" lon="4.84667">
        <ele>113.09</ele>
        <time>2013-09-27T07:00:52Z</time>
      </trkpt>
      <trkpt lat="44.9967" lon="4.84663">
        <ele>113.57</ele>
        <time>2013-09-27T07:02:53Z</time>
      </trkpt>
      <trkpt lat="44.99684" lon="4.84648">
        <ele>113.57</ele>
        <time>2013-09-27T07:03:38Z</time>
      </trkpt>
      <trkpt lat="44.99698" lon="4.84632">
        <ele>113.57</ele>
        <time>2013-09-27T07:03:50Z</time>
      </trkpt>
      <trkpt lat="44.9971" lon="4.84606">
        <ele>113.09</ele>
        <time>2013-09-27T07:03:59Z</time>
      </trkpt>
      <trkpt lat="44.99717" lon="4.84578">
        <ele>113.57</ele>
        <time>2013-09-27T07:04:05Z</time>
      </trkpt>
      <trkpt lat="44.99728" lon="4.84553">
        <ele>114.53</ele>
        <time>2013-09-27T07:04:11Z</time>
      </trkpt>
      <trkpt lat="44.99742" lon="4.84536">
        <ele>116.46</ele>
        <time>2013-09-27T07:04:17Z</time>
      </trkpt>
      <trkpt lat="44.99755" lon="4.84517">
        <ele>115.98</ele>
        <time>2013-09-27T07:04:23Z</time>
      </trkpt>
      <trkpt lat="44.99775" lon="4.84498">
        <ele>115.98</ele>
        <time>2013-09-27T07:04:29Z</time>
      </trkpt>
      <trkpt lat="44.99794" lon="4.84477">
        <ele>115.98</ele>
        <time>2013-09-27T07:04:34Z</time>
      </trkpt>
      <trkpt lat="44.99812" lon="4.84459">
        <ele>116.46</ele>
        <time>2013-09-27T07:04:39Z</time>
      </trkpt>
      <trkpt lat="44.99829" lon="4.84441">
        <ele>115.5</ele>
        <time>2013-09-27T07:04:44Z</time>
      </trkpt>
      <trkpt lat="44.99844" lon="4.84426">
        <ele>115.98</ele>
        <time>2013-09-27T07:04:48Z</time>
      </trkpt>
      <trkpt lat="44.9986" lon="4.8441">
        <ele>115.98</ele>
        <time>2013-09-27T07:04:52Z</time>
      </trkpt>
      <trkpt lat="44.99877" lon="4.84395">
        <ele>115.98</ele>
        <time>2013-09-27T07:04:56Z</time>
      </trkpt>
      <trkpt lat="44.99894" lon="4.84382">
        <ele>116.46</ele>
        <time>2013-09-27T07:05:00Z</time>
      </trkpt>
      <trkpt lat="44.9991" lon="4.8437">
        <ele>116.46</ele>
        <time>2013-09-27T07:05:04Z</time>
      </trkpt>
      <trkpt lat="44.99929" lon="4.84358">
        <ele>116.46</ele>
        <time>2013-09-27T07:05:08Z</time>
      </trkpt>
      <trkpt lat="44.99948" lon="4.84346">
        <ele>115.5</ele>
        <time>2013-09-27T07:05:12Z</time>
      </trkpt>
      <trkpt lat="44.99966" lon="4.84333">
        <ele>115.5</ele>
        <time>2013-09-27T07:05:16Z</time>
      </trkpt>
      <trkpt lat="44.99983" lon="4.84318">
        <ele>115.98</ele>
        <time>2013-09-27T07:05:20Z</time>
      </trkpt>
      <trkpt lat="45" lon="4.843">
        <ele>115.98</ele>
        <time>2013-09-27T07:05:24Z</time>
      </trkpt>
      <trkpt lat="45.00016" lon="4.84283">
        <ele>115.98</ele>
        <time>2013-09-27T07:05:28Z</time>
      </trkpt>
      <trkpt lat="45.00032" lon="4.84266">
        <ele>115.98</ele>
        <time>2013-09-27T07:05:32Z</time>
      </trkpt>
      <trkpt lat="45.00049" lon="4.84249">
        <ele>116.46</ele>
        <time>2013-09-27T07:05:36Z</time>
      </trkpt>
      <trkpt lat="45.00064" lon="4.8423">
        <ele>115.98</ele>
        <time>2013-09-27T07:05:41Z</time>
      </trkpt>
      <trkpt lat="45.00078" lon="4.84206">
        <ele>115.5</ele>
        <time>2013-09-27T07:05:46Z</time>
      </trkpt>
      <trkpt lat="45.0009" lon="4.84182">
        <ele>115.5</ele>
        <time>2013-09-27T07:05:51Z</time>
      </trkpt>
      <trkpt lat="45.00104" lon="4.84165">
        <ele>113.57</ele>
        <time>2013-09-27T07:05:59Z</time>
      </trkpt>
      <trkpt lat="45.00118" lon="4.84182">
        <ele>111.65</ele>
        <time>2013-09-27T07:06:05Z</time>
      </trkpt>
      <trkpt lat="45.00137" lon="4.84174">
        <ele>111.17</ele>
        <time>2013-09-27T07:06:10Z</time>
      </trkpt>
      <trkpt lat="45.00153" lon="4.84152">
        <ele>111.65</ele>
        <time>2013-09-27T07:06:16Z</time>
      </trkpt>
      <trkpt lat="45.00167" lon="4.84132">
        <ele>111.65</ele>
        <time>2013-09-27T07:06:21Z</time>
      </trkpt>
      <trkpt lat="45.00185" lon="4.84113">
        <ele>111.65</ele>
        <time>2013-09-27T07:06:26Z</time>
      </trkpt>
      <trkpt lat="45.00204" lon="4.84097">
        <ele>110.69</ele>
        <time>2013-09-27T07:06:31Z</time>
      </trkpt>
      <trkpt lat="45.00218" lon="4.84077">
        <ele>110.69</ele>
        <time>2013-09-27T07:06:35Z</time>
      </trkpt>
      <trkpt lat="45.00224" lon="4.8405">
        <ele>114.05</ele>
        <time>2013-09-27T07:06:41Z</time>
      </trkpt>
      <trkpt lat="45.00239" lon="4.84031">
        <ele>114.05</ele>
        <time>2013-09-27T07:06:47Z</time>
      </trkpt>
      <trkpt lat="45.00257" lon="4.84015">
        <ele>114.05</ele>
        <time>2013-09-27T07:06:53Z</time>
      </trkpt>
      <trkpt lat="45.00274" lon="4.83996">
        <ele>113.57</ele>
        <time>2013-09-27T07:06:58Z</time>
      </trkpt>
      <trkpt lat="45.0029" lon="4.8398">
        <ele>114.05</ele>
        <time>2013-09-27T07:07:02Z</time>
      </trkpt>
      <trkpt lat="45.00307" lon="4.83961">
        <ele>113.57</ele>
        <time>2013-09-27T07:07:06Z</time>
      </trkpt>
      <trkpt lat="45.00322" lon="4.83939">
        <ele>113.57</ele>
        <time>2013-09-27T07:07:10Z</time>
      </trkpt>
      <trkpt lat="45.00336" lon="4.83917">
        <ele>113.57</ele>
        <time>2013-09-27T07:07:14Z</time>
      </trkpt>
      <trkpt lat="45.00351" lon="4.83896">
        <ele>113.09</ele>
        <time>2013-09-27T07:07:18Z</time>
      </trkpt>
      <trkpt lat="45.00363" lon="4.83873">
        <ele>113.57</ele>
        <time>2013-09-27T07:07:22Z</time>
      </trkpt>
      <trkpt lat="45.00375" lon="4.83852">
        <ele>113.57</ele>
        <time>2013-09-27T07:07:26Z</time>
      </trkpt>
      <trkpt lat="45.00389" lon="4.83833">
        <ele>113.09</ele>
        <time>2013-09-27T07:07:30Z</time>
      </trkpt>
      <trkpt lat="45.00401" lon="4.83813">
        <ele>113.09</ele>
        <time>2013-09-27T07:07:34Z</time>
      </trkpt>
      <trkpt lat="45.00414" lon="4.83791">
        <ele>113.09</ele>
        <time>2013-09-27T07:07:38Z</time>
      </trkpt>
      <trkpt lat="45.00427" lon="4.83771">
        <ele>113.57</ele>
        <time>2013-09-27T07:07:42Z</time>
      </trkpt>
      <trkpt lat="45.00441" lon="4.83751">
        <ele>113.57</ele>
        <time>2013-09-27T07:07:46Z</time>
      </trkpt>
      <trkpt lat="45.00455" lon="4.83731">
        <ele>113.09</ele>
        <time>2013-09-27T07:07:50Z</time>
      </trkpt>
      <trkpt lat="45.00469" lon="4.83708">
        <ele>114.05</ele>
        <time>2013-09-27T07:07:54Z</time>
      </trkpt>
      <trkpt lat="45.00484" lon="4.83688">
        <ele>114.05</ele>
        <time>2013-09-27T07:07:58Z</time>
      </trkpt>
      <trkpt lat="45.005" lon="4.83671">
        <ele>113.09</ele>
        <time>2013-09-27T07:08:02Z</time>
      </trkpt>
      <trkpt lat="45.00521" lon="4.83672">
        <ele>110.69</ele>
        <time>2013-09-27T07:08:07Z</time>
      </trkpt>
      <trkpt lat="45.00541" lon="4.83666">
        <ele>110.69</ele>
        <time>2013-09-27T07:08:11Z</time>
      </trkpt>
      <trkpt lat="45.00562" lon="4.83654">
        <ele>111.17</ele>
        <time>2013-09-27T07:08:15Z</time>
      </trkpt>
      <trkpt lat="45.00585" lon="4.83656">
        <ele>110.69</ele>
        <time>2013-09-27T07:08:20Z</time>
      </trkpt>
      <trkpt lat="45.006" lon="4.83638">
        <ele>111.17</ele>
        <time>2013-09-27T07:08:25Z</time>
      </trkpt>
      <trkpt lat="45.00613" lon="4.83617">
        <ele>111.17</ele>
        <time>2013-09-27T07:08:34Z</time>
      </trkpt>
      <trkpt lat="45.00632" lon="4.83595">
        <ele>110.69</ele>
        <time>2013-09-27T07:08:42Z</time>
      </trkpt>
      <trkpt lat="45.00649" lon="4.83575">
        <ele>110.69</ele>
        <time>2013-09-27T07:08:47Z</time>
      </trkpt>
      <trkpt lat="45.00659" lon="4.83548">
        <ele>113.09</ele>
        <time>2013-09-27T07:08:52Z</time>
      </trkpt>
      <trkpt lat="45.0067" lon="4.83519">
        <ele>115.01</ele>
        <time>2013-09-27T07:09:00Z</time>
      </trkpt>
      <trkpt lat="45.00689" lon="4.83506">
        <ele>114.53</ele>
        <time>2013-09-27T07:09:06Z</time>
      </trkpt>
      <trkpt lat="45.00708" lon="4.83492">
        <ele>114.53</ele>
        <time>2013-09-27T07:09:11Z</time>
      </trkpt>
      <trkpt lat="45.00727" lon="4.8348">
        <ele>115.01</ele>
        <time>2013-09-27T07:09:16Z</time>
      </trkpt>
      <trkpt lat="45.0075" lon="4.83472">
        <ele>114.53</ele>
        <time>2013-09-27T07:09:21Z</time>
      </trkpt>
      <trkpt lat="45.00768" lon="4.83465">
        <ele>114.53</ele>
        <time>2013-09-27T07:09:25Z</time>
      </trkpt>
      <trkpt lat="45.00791" lon="4.83458">
        <ele>115.01</ele>
        <time>2013-09-27T07:09:30Z</time>
      </trkpt>
      <trkpt lat="45.00813" lon="4.83455">
        <ele>115.01</ele>
        <time>2013-09-27T07:09:35Z</time>
      </trkpt>
      <trkpt lat="45.00836" lon="4.83456">
        <ele>115.01</ele>
        <time>2013-09-27T07:09:40Z</time>
      </trkpt>
      <trkpt lat="45.00856" lon="4.83458">
        <ele>115.5</ele>
        <time>2013-09-27T07:09:44Z</time>
      </trkpt>
      <trkpt lat="45.00875" lon="4.83461">
        <ele>115.01</ele>
        <time>2013-09-27T07:09:48Z</time>
      </trkpt>
      <trkpt lat="45.00894" lon="4.83463">
        <ele>115.01</ele>
        <time>2013-09-27T07:09:52Z</time>
      </trkpt>
      <trkpt lat="45.00914" lon="4.83467">
        <ele>115.01</ele>
        <time>2013-09-27T07:09:56Z</time>
      </trkpt>
      <trkpt lat="45.00935" lon="4.83473">
        <ele>115.01</ele>
        <time>2013-09-27T07:10:00Z</time>
      </trkpt>
      <trkpt lat="45.00957" lon="4.83474">
        <ele>115.01</ele>
        <time>2013-09-27T07:10:04Z</time>
      </trkpt>
      <trkpt lat="45.00979" lon="4.83473">
        <ele>115.5</ele>
        <time>2013-09-27T07:10:08Z</time>
      </trkpt>
      <trkpt lat="45.01" lon="4.83475">
        <ele>115.01</ele>
        <time>2013-09-27T07:10:12Z</time>
      </trkpt>
      <trkpt lat="45.0102" lon="4.83471">
        <ele>115.5</ele>
        <time>2013-09-27T07:10:16Z</time>
      </trkpt>
      <trkpt lat="45.01037" lon="4.8346">
        <ele>115.98</ele>
        <time>2013-09-27T07:10:20Z</time>
      </trkpt>
      <trkpt lat="45.01056" lon="4.83446">
        <ele>116.94</ele>
        <time>2013-09-27T07:10:25Z</time>
      </trkpt>
      <trkpt lat="45.01075" lon="4.83434">
        <ele>117.9</ele>
        <time>2013-09-27T07:10:30Z</time>
      </trkpt>
      <trkpt lat="45.01092" lon="4.83424">
        <ele>118.38</ele>
        <time>2013-09-27T07:10:34Z</time>
      </trkpt>
      <trkpt lat="45.01112" lon="4.83413">
        <ele>119.82</ele>
        <time>2013-09-27T07:10:39Z</time>
      </trkpt>
      <trkpt lat="45.01131" lon="4.83404">
        <ele>119.34</ele>
        <time>2013-09-27T07:10:44Z</time>
      </trkpt>
      <trkpt lat="45.01149" lon="4.83398">
        <ele>118.86</ele>
        <time>2013-09-27T07:10:48Z</time>
      </trkpt>
      <trkpt lat="45.01169" lon="4.83391">
        <ele>118.38</ele>
        <time>2013-09-27T07:10:52Z</time>
      </trkpt>
      <trkpt lat="45.01189" lon="4.83385">
        <ele>117.9</ele>
        <time>2013-09-27T07:10:56Z</time>
      </trkpt>
      <trkpt lat="45.01209" lon="4.8338">
        <ele>118.86</ele>
        <time>2013-09-27T07:11:00Z</time>
      </trkpt>
      <trkpt lat="45.01231" lon="4.83377">
        <ele>121.26</ele>
        <time>2013-09-27T07:11:05Z</time>
      </trkpt>
      <trkpt lat="45.01255" lon="4.83373">
        <ele>121.26</ele>
        <time>2013-09-27T07:11:11Z</time>
      </trkpt>
      <trkpt lat="45.01281" lon="4.83372">
        <ele>120.78</ele>
        <time>2013-09-27T07:11:16Z</time>
      </trkpt>
      <trkpt lat="45.01302" lon="4.83373">
        <ele>120.3</ele>
        <time>2013-09-27T07:11:20Z</time>
      </trkpt>
      <trkpt lat="45.01325" lon="4.83375">
        <ele>119.82</ele>
        <time>2013-09-27T07:11:24Z</time>
      </trkpt>
      <trkpt lat="45.01347" lon="4.83388">
        <ele>118.86</ele>
        <time>2013-09-27T07:11:28Z</time>
      </trkpt>
      <trkpt lat="45.01358" lon="4.83403">
        <ele>119.34</ele>
        <time>2013-09-27T07:11:35Z</time>
      </trkpt>
      <trkpt lat="45.0137" lon="4.83426">
        <ele>118.38</ele>
        <time>2013-09-27T07:11:40Z</time>
      </trkpt>
      <trkpt lat="45.01379" lon="4.83452">
        <ele>118.38</ele>
        <time>2013-09-27T07:11:44Z</time>
      </trkpt>
      <trkpt lat="45.01388" lon="4.83482">
        <ele>117.42</ele>
        <time>2013-09-27T07:11:48Z</time>
      </trkpt>
      <trkpt lat="45.01395" lon="4.83508">
        <ele>117.9</ele>
        <time>2013-09-27T07:11:52Z</time>
      </trkpt>
      <trkpt lat="45.01394" lon="4.83535">
        <ele>117.9</ele>
        <time>2013-09-27T07:11:58Z</time>
      </trkpt>
      <trkpt lat="45.01402" lon="4.8356">
        <ele>118.38</ele>
        <time>2013-09-27T07:12:04Z</time>
      </trkpt>
      <trkpt lat="45.0141" lon="4.83589">
        <ele>117.9</ele>
        <time>2013-09-27T07:12:09Z</time>
      </trkpt>
      <trkpt lat="45.01414" lon="4.83616">
        <ele>116.94</ele>
        <time>2013-09-27T07:12:13Z</time>
      </trkpt>
      <trkpt lat="45.01417" lon="4.83643">
        <ele>115.01</ele>
        <time>2013-09-27T07:12:18Z</time>
      </trkpt>
      <trkpt lat="45.01399" lon="4.83653">
        <ele>115.98</ele>
        <time>2013-09-27T07:12:25Z</time>
      </trkpt>
      <trkpt lat="45.01392" lon="4.83683">
        <ele>117.42</ele>
        <time>2013-09-27T07:12:31Z</time>
      </trkpt>
      <trkpt lat="45.01392" lon="4.83712">
        <ele>117.42</ele>
        <time>2013-09-27T07:12:36Z</time>
      </trkpt>
      <trkpt lat="45.01397" lon="4.83738">
        <ele>116.94</ele>
        <time>2013-09-27T07:12:40Z</time>
      </trkpt>
      <trkpt lat="45.01406" lon="4.83765">
        <ele>117.42</ele>
        <time>2013-09-27T07:12:44Z</time>
      </trkpt>
      <trkpt lat="45.01418" lon="4.83791">
        <ele>116.94</ele>
        <time>2013-09-27T07:12:48Z</time>
      </trkpt>
      <trkpt lat="45.0143" lon="4.83818">
        <ele>116.94</ele>
        <time>2013-09-27T07:12:52Z</time>
      </trkpt>
      <trkpt lat="45.01443" lon="4.83843">
        <ele>116.94</ele>
        <time>2013-09-27T07:12:56Z</time>
      </trkpt>
      <trkpt lat="45.01456" lon="4.83866">
        <ele>117.42</ele>
        <time>2013-09-27T07:13:00Z</time>
      </trkpt>
      <trkpt lat="45.01468" lon="4.83888">
        <ele>117.42</ele>
        <time>2013-09-27T07:13:04Z</time>
      </trkpt>
      <trkpt lat="45.01485" lon="4.83906">
        <ele>117.42</ele>
        <time>2013-09-27T07:13:09Z</time>
      </trkpt>
      <trkpt lat="45.01494" lon="4.83932">
        <ele>117.42</ele>
        <time>2013-09-27T07:13:14Z</time>
      </trkpt>
      <trkpt lat="45.01497" lon="4.8396">
        <ele>117.9</ele>
        <time>2013-09-27T07:13:19Z</time>
      </trkpt>
      <trkpt lat="45.01506" lon="4.83988">
        <ele>116.94</ele>
        <time>2013-09-27T07:13:24Z</time>
      </trkpt>
      <trkpt lat="45.01519" lon="4.8401">
        <ele>117.42</ele>
        <time>2013-09-27T07:13:28Z</time>
      </trkpt>
      <trkpt lat="45.01533" lon="4.84034">
        <ele>117.42</ele>
        <time>2013-09-27T07:13:33Z</time>
      </trkpt>
      <trkpt lat="45.0155" lon="4.84051">
        <ele>117.42</ele>
        <time>2013-09-27T07:13:37Z</time>
      </trkpt>
      <trkpt lat="45.01567" lon="4.84069">
        <ele>117.42</ele>
        <time>2013-09-27T07:13:41Z</time>
      </trkpt>
      <trkpt lat="45.01584" lon="4.84083">
        <ele>117.9</ele>
        <time>2013-09-27T07:13:47Z</time>
      </trkpt>
      <trkpt lat="45.01573" lon="4.84068">
        <ele>117.42</ele>
        <time>2013-09-27T07:13:54Z</time>
      </trkpt>
      <trkpt lat="45.01565" lon="4.84085">
        <ele>119.82</ele>
        <time>2013-09-27T07:14:01Z</time>
      </trkpt>
      <trkpt lat="45.01574" lon="4.84111">
        <ele>121.74</ele>
        <time>2013-09-27T07:14:08Z</time>
      </trkpt>
      <trkpt lat="45.01583" lon="4.84137">
        <ele>122.22</ele>
        <time>2013-09-27T07:14:15Z</time>
      </trkpt>
      <trkpt lat="45.01603" lon="4.84154">
        <ele>121.74</ele>
        <time>2013-09-27T07:14:20Z</time>
      </trkpt>
      <trkpt lat="45.01619" lon="4.84174">
        <ele>121.74</ele>
        <time>2013-09-27T07:14:24Z</time>
      </trkpt>
      <trkpt lat="45.01636" lon="4.84193">
        <ele>121.74</ele>
        <time>2013-09-27T07:14:28Z</time>
      </trkpt>
      <trkpt lat="45.01655" lon="4.84212">
        <ele>121.74</ele>
        <time>2013-09-27T07:14:32Z</time>
      </trkpt>
      <trkpt lat="45.0167" lon="4.84227">
        <ele>121.26</ele>
        <time>2013-09-27T07:14:35Z</time>
      </trkpt>
      <trkpt lat="45.01686" lon="4.84241">
        <ele>121.26</ele>
        <time>2013-09-27T07:14:38Z</time>
      </trkpt>
      <trkpt lat="45.01706" lon="4.84258">
        <ele>121.74</ele>
        <time>2013-09-27T07:14:42Z</time>
      </trkpt>
      <trkpt lat="45.01725" lon="4.84274">
        <ele>121.74</ele>
        <time>2013-09-27T07:14:46Z</time>
      </trkpt>
      <trkpt lat="45.01746" lon="4.84288">
        <ele>121.26</ele>
        <time>2013-09-27T07:14:50Z</time>
      </trkpt>
      <trkpt lat="45.01768" lon="4.84302">
        <ele>121.26</ele>
        <time>2013-09-27T07:14:54Z</time>
      </trkpt>
      <trkpt lat="45.01789" lon="4.84315">
        <ele>121.26</ele>
        <time>2013-09-27T07:14:58Z</time>
      </trkpt>
      <trkpt lat="45.01811" lon="4.84325">
        <ele>121.74</ele>
        <time>2013-09-27T07:15:02Z</time>
      </trkpt>
      <trkpt lat="45.01834" lon="4.84336">
        <ele>121.26</ele>
        <time>2013-09-27T07:15:06Z</time>
      </trkpt>
      <trkpt lat="45.01857" lon="4.84344">
        <ele>121.74</ele>
        <time>2013-09-27T07:15:10Z</time>
      </trkpt>
      <trkpt lat="45.01879" lon="4.8435">
        <ele>121.26</ele>
        <time>2013-09-27T07:15:14Z</time>
      </trkpt>
      <trkpt lat="45.01901" lon="4.84357">
        <ele>121.26</ele>
        <time>2013-09-27T07:15:18Z</time>
      </trkpt>
      <trkpt lat="45.01924" lon="4.8436">
        <ele>121.74</ele>
        <time>2013-09-27T07:15:22Z</time>
      </trkpt>
      <trkpt lat="45.01947" lon="4.84364">
        <ele>121.74</ele>
        <time>2013-09-27T07:15:26Z</time>
      </trkpt>
      <trkpt lat="45.01969" lon="4.84367">
        <ele>121.74</ele>
        <time>2013-09-27T07:15:30Z</time>
      </trkpt>
      <trkpt lat="45.01992" lon="4.84367">
        <ele>122.22</ele>
        <time>2013-09-27T07:15:34Z</time>
      </trkpt>
      <trkpt lat="45.02016" lon="4.84367">
        <ele>122.22</ele>
        <time>2013-09-27T07:15:38Z</time>
      </trkpt>
      <trkpt lat="45.02034" lon="4.84366">
        <ele>121.74</ele>
        <time>2013-09-27T07:15:41Z</time>
      </trkpt>
      <trkpt lat="45.02057" lon="4.84362">
        <ele>122.22</ele>
        <time>2013-09-27T07:15:45Z</time>
      </trkpt>
      <trkpt lat="45.0208" lon="4.84358">
        <ele>122.22</ele>
        <time>2013-09-27T07:15:49Z</time>
      </trkpt>
      <trkpt lat="45.02103" lon="4.84352">
        <ele>121.74</ele>
        <time>2013-09-27T07:15:53Z</time>
      </trkpt>
      <trkpt lat="45.02125" lon="4.84346">
        <ele>121.74</ele>
        <time>2013-09-27T07:15:57Z</time>
      </trkpt>
      <trkpt lat="45.02148" lon="4.84338">
        <ele>121.74</ele>
        <time>2013-09-27T07:16:01Z</time>
      </trkpt>
      <trkpt lat="45.02169" lon="4.84329">
        <ele>121.74</ele>
        <time>2013-09-27T07:16:05Z</time>
      </trkpt>
      <trkpt lat="45.02192" lon="4.84318">
        <ele>121.74</ele>
        <time>2013-09-27T07:16:09Z</time>
      </trkpt>
      <trkpt lat="45.02209" lon="4.8431">
        <ele>122.22</ele>
        <time>2013-09-27T07:16:12Z</time>
      </trkpt>
      <trkpt lat="45.02225" lon="4.84301">
        <ele>122.22</ele>
        <time>2013-09-27T07:16:15Z</time>
      </trkpt>
      <trkpt lat="45.02242" lon="4.8429">
        <ele>121.74</ele>
        <time>2013-09-27T07:16:18Z</time>
      </trkpt>
      <trkpt lat="45.02263" lon="4.84274">
        <ele>122.22</ele>
        <time>2013-09-27T07:16:22Z</time>
      </trkpt>
      <trkpt lat="45.02283" lon="4.8426">
        <ele>122.71</ele>
        <time>2013-09-27T07:16:26Z</time>
      </trkpt>
      <trkpt lat="45.02299" lon="4.84246">
        <ele>122.22</ele>
        <time>2013-09-27T07:16:29Z</time>
      </trkpt>
      <trkpt lat="45.02314" lon="4.84233">
        <ele>122.22</ele>
        <time>2013-09-27T07:16:32Z</time>
      </trkpt>
      <trkpt lat="45.02333" lon="4.84214">
        <ele>121.74</ele>
        <time>2013-09-27T07:16:36Z</time>
      </trkpt>
      <trkpt lat="45.02352" lon="4.84194">
        <ele>122.22</ele>
        <time>2013-09-27T07:16:40Z</time>
      </trkpt>
      <trkpt lat="45.02371" lon="4.84172">
        <ele>121.74</ele>
        <time>2013-09-27T07:16:44Z</time>
      </trkpt>
      <trkpt lat="45.02384" lon="4.84156">
        <ele>121.74</ele>
        <time>2013-09-27T07:16:47Z</time>
      </trkpt>
      <trkpt lat="45.02402" lon="4.84133">
        <ele>121.74</ele>
        <time>2013-09-27T07:16:51Z</time>
      </trkpt>
      <trkpt lat="45.02416" lon="4.84116">
        <ele>122.22</ele>
        <time>2013-09-27T07:16:54Z</time>
      </trkpt>
      <trkpt lat="45.0243" lon="4.84098">
        <ele>122.22</ele>
        <time>2013-09-27T07:16:57Z</time>
      </trkpt>
      <trkpt lat="45.02443" lon="4.8408">
        <ele>122.22</ele>
        <time>2013-09-27T07:17:00Z</time>
      </trkpt>
      <trkpt lat="45.02456" lon="4.84062">
        <ele>122.22</ele>
        <time>2013-09-27T07:17:03Z</time>
      </trkpt>
      <trkpt lat="45.02471" lon="4.84045">
        <ele>122.22</ele>
        <time>2013-09-27T07:17:06Z</time>
      </trkpt>
      <trkpt lat="45.02485" lon="4.84027">
        <ele>122.22</ele>
        <time>2013-09-27T07:17:09Z</time>
      </trkpt>
      <trkpt lat="45.02499" lon="4.84009">
        <ele>121.74</ele>
        <time>2013-09-27T07:17:12Z</time>
      </trkpt>
      <trkpt lat="45.02513" lon="4.8399">
        <ele>122.22</ele>
        <time>2013-09-27T07:17:15Z</time>
      </trkpt>
      <trkpt lat="45.02529" lon="4.83971">
        <ele>121.74</ele>
        <time>2013-09-27T07:17:18Z</time>
      </trkpt>
      <trkpt lat="45.02544" lon="4.83951">
        <ele>122.22</ele>
        <time>2013-09-27T07:17:21Z</time>
      </trkpt>
      <trkpt lat="45.0256" lon="4.83932">
        <ele>122.22</ele>
        <time>2013-09-27T07:17:24Z</time>
      </trkpt>
      <trkpt lat="45.02577" lon="4.83913">
        <ele>121.74</ele>
        <time>2013-09-27T07:17:27Z</time>
      </trkpt>
      <trkpt lat="45.02594" lon="4.83896">
        <ele>121.74</ele>
        <time>2013-09-27T07:17:30Z</time>
      </trkpt>
      <trkpt lat="45.0261" lon="4.83879">
        <ele>121.74</ele>
        <time>2013-09-27T07:17:33Z</time>
      </trkpt>
      <trkpt lat="45.02626" lon="4.83863">
        <ele>122.22</ele>
        <time>2013-09-27T07:17:36Z</time>
      </trkpt>
      <trkpt lat="45.02643" lon="4.83848">
        <ele>121.74</ele>
        <time>2013-09-27T07:17:39Z</time>
      </trkpt>
      <trkpt lat="45.0266" lon="4.83833">
        <ele>122.22</ele>
        <time>2013-09-27T07:17:42Z</time>
      </trkpt>
      <trkpt lat="45.02677" lon="4.83818">
        <ele>121.74</ele>
        <time>2013-09-27T07:17:45Z</time>
      </trkpt>
      <trkpt lat="45.02694" lon="4.83804">
        <ele>122.22</ele>
        <time>2013-09-27T07:17:48Z</time>
      </trkpt>
      <trkpt lat="45.02711" lon="4.83791">
        <ele>122.22</ele>
        <time>2013-09-27T07:17:51Z</time>
      </trkpt>
      <trkpt lat="45.02728" lon="4.83779">
        <ele>122.22</ele>
        <time>2013-09-27T07:17:54Z</time>
      </trkpt>
      <trkpt lat="45.02746" lon="4.83766">
        <ele>122.71</ele>
        <time>2013-09-27T07:17:57Z</time>
      </trkpt>
      <trkpt lat="45.02764" lon="4.83757">
        <ele>122.71</ele>
        <time>2013-09-27T07:18:00Z</time>
      </trkpt>
      <trkpt lat="45.02782" lon="4.83746">
        <ele>122.22</ele>
        <time>2013-09-27T07:18:03Z</time>
      </trkpt>
      <trkpt lat="45.02801" lon="4.83736">
        <ele>122.22</ele>
        <time>2013-09-27T07:18:06Z</time>
      </trkpt>
      <trkpt lat="45.02818" lon="4.83727">
        <ele>123.19</ele>
        <time>2013-09-27T07:18:09Z</time>
      </trkpt>
      <trkpt lat="45.02836" lon="4.83718">
        <ele>122.71</ele>
        <time>2013-09-27T07:18:12Z</time>
      </trkpt>
      <trkpt lat="45.02854" lon="4.83708">
        <ele>122.22</ele>
        <time>2013-09-27T07:18:15Z</time>
      </trkpt>
      <trkpt lat="45.02874" lon="4.83699">
        <ele>122.22</ele>
        <time>2013-09-27T07:18:18Z</time>
      </trkpt>
      <trkpt lat="45.02893" lon="4.83691">
        <ele>122.22</ele>
        <time>2013-09-27T07:18:21Z</time>
      </trkpt>
      <trkpt lat="45.02912" lon="4.83684">
        <ele>122.71</ele>
        <time>2013-09-27T07:18:24Z</time>
      </trkpt>
      <trkpt lat="45.02931" lon="4.83679">
        <ele>121.74</ele>
        <time>2013-09-27T07:18:27Z</time>
      </trkpt>
      <trkpt lat="45.0295" lon="4.83673">
        <ele>122.71</ele>
        <time>2013-09-27T07:18:30Z</time>
      </trkpt>
      <trkpt lat="45.02969" lon="4.83668">
        <ele>122.22</ele>
        <time>2013-09-27T07:18:33Z</time>
      </trkpt>
      <trkpt lat="45.02988" lon="4.83663">
        <ele>122.71</ele>
        <time>2013-09-27T07:18:36Z</time>
      </trkpt>
      <trkpt lat="45.03007" lon="4.83659">
        <ele>122.71</ele>
        <time>2013-09-27T07:18:39Z</time>
      </trkpt>
      <trkpt lat="45.03025" lon="4.83656">
        <ele>122.71</ele>
        <time>2013-09-27T07:18:42Z</time>
      </trkpt>
      <trkpt lat="45.03045" lon="4.83653">
        <ele>122.71</ele>
        <time>2013-09-27T07:18:45Z</time>
      </trkpt>
      <trkpt lat="45.03065" lon="4.83651">
        <ele>122.71</ele>
        <time>2013-09-27T07:18:48Z</time>
      </trkpt>
      <trkpt lat="45.03084" lon="4.83649">
        <ele>122.71</ele>
        <time>2013-09-27T07:18:51Z</time>
      </trkpt>
      <trkpt lat="45.03104" lon="4.83648">
        <ele>122.22</ele>
        <time>2013-09-27T07:18:54Z</time>
      </trkpt>
      <trkpt lat="45.03124" lon="4.83647">
        <ele>122.71</ele>
        <time>2013-09-27T07:18:57Z</time>
      </trkpt>
      <trkpt lat="45.03144" lon="4.83647">
        <ele>122.71</ele>
        <time>2013-09-27T07:19:00Z</time>
      </trkpt>
      <trkpt lat="45.03164" lon="4.83649">
        <ele>122.71</ele>
        <time>2013-09-27T07:19:03Z</time>
      </trkpt>
      <trkpt lat="45.03184" lon="4.8365">
        <ele>122.22</ele>
        <time>2013-09-27T07:19:06Z</time>
      </trkpt>
      <trkpt lat="45.03203" lon="4.83652">
        <ele>122.71</ele>
        <time>2013-09-27T07:19:09Z</time>
      </trkpt>
      <trkpt lat="45.03222" lon="4.83655">
        <ele>123.19</ele>
        <time>2013-09-27T07:19:12Z</time>
      </trkpt>
      <trkpt lat="45.03241" lon="4.83658">
        <ele>122.71</ele>
        <time>2013-09-27T07:19:15Z</time>
      </trkpt>
      <trkpt lat="45.03261" lon="4.83663">
        <ele>122.71</ele>
        <time>2013-09-27T07:19:18Z</time>
      </trkpt>
      <trkpt lat="45.03281" lon="4.83666">
        <ele>122.71</ele>
        <time>2013-09-27T07:19:21Z</time>
      </trkpt>
      <trkpt lat="45.03302" lon="4.83671">
        <ele>123.19</ele>
        <time>2013-09-27T07:19:24Z</time>
      </trkpt>
      <trkpt lat="45.03322" lon="4.83676">
        <ele>123.19</ele>
        <time>2013-09-27T07:19:27Z</time>
      </trkpt>
      <trkpt lat="45.03343" lon="4.83682">
        <ele>122.71</ele>
        <time>2013-09-27T07:19:30Z</time>
      </trkpt>
      <trkpt lat="45.03363" lon="4.83688">
        <ele>123.19</ele>
        <time>2013-09-27T07:19:33Z</time>
      </trkpt>
      <trkpt lat="45.03383" lon="4.83695">
        <ele>123.19</ele>
        <time>2013-09-27T07:19:36Z</time>
      </trkpt>
      <trkpt lat="45.03403" lon="4.83702">
        <ele>123.19</ele>
        <time>2013-09-27T07:19:39Z</time>
      </trkpt>
      <trkpt lat="45.03422" lon="4.8371">
        <ele>122.71</ele>
        <time>2013-09-27T07:19:42Z</time>
      </trkpt>
      <trkpt lat="45.03442" lon="4.83718">
        <ele>123.19</ele>
        <time>2013-09-27T07:19:45Z</time>
      </trkpt>
      <trkpt lat="45.03461" lon="4.83726">
        <ele>123.19</ele>
        <time>2013-09-27T07:19:48Z</time>
      </trkpt>
      <trkpt lat="45.0348" lon="4.83735">
        <ele>123.19</ele>
        <time>2013-09-27T07:19:51Z</time>
      </trkpt>
      <trkpt lat="45.03499" lon="4.83744">
        <ele>123.19</ele>
        <time>2013-09-27T07:19:54Z</time>
      </trkpt>
      <trkpt lat="45.03518" lon="4.83754">
        <ele>122.71</ele>
        <time>2013-09-27T07:19:57Z</time>
      </trkpt>
      <trkpt lat="45.03536" lon="4.83765">
        <ele>122.71</ele>
        <time>2013-09-27T07:20:00Z</time>
      </trkpt>
      <trkpt lat="45.03555" lon="4.83776">
        <ele>122.71</ele>
        <time>2013-09-27T07:20:03Z</time>
      </trkpt>
      <trkpt lat="45.03573" lon="4.83787">
        <ele>122.71</ele>
        <time>2013-09-27T07:20:06Z</time>
      </trkpt>
      <trkpt lat="45.03591" lon="4.83797">
        <ele>122.71</ele>
        <time>2013-09-27T07:20:09Z</time>
      </trkpt>
      <trkpt lat="45.03609" lon="4.83808">
        <ele>122.71</ele>
        <time>2013-09-27T07:20:12Z</time>
      </trkpt>
      <trkpt lat="45.03627" lon="4.8382">
        <ele>123.19</ele>
        <time>2013-09-27T07:20:15Z</time>
      </trkpt>
      <trkpt lat="45.03646" lon="4.83833">
        <ele>122.71</ele>
        <time>2013-09-27T07:20:18Z</time>
      </trkpt>
      <trkpt lat="45.03663" lon="4.83845">
        <ele>123.19</ele>
        <time>2013-09-27T07:20:21Z</time>
      </trkpt>
      <trkpt lat="45.03681" lon="4.83859">
        <ele>122.71</ele>
        <time>2013-09-27T07:20:24Z</time>
      </trkpt>
      <trkpt lat="45.03699" lon="4.83872">
        <ele>122.71</ele>
        <time>2013-09-27T07:20:27Z</time>
      </trkpt>
      <trkpt lat="45.03717" lon="4.83886">
        <ele>122.71</ele>
        <time>2013-09-27T07:20:30Z</time>
      </trkpt>
      <trkpt lat="45.03734" lon="4.83901">
        <ele>123.19</ele>
        <time>2013-09-27T07:20:33Z</time>
      </trkpt>
      <trkpt lat="45.03751" lon="4.83917">
        <ele>123.19</ele>
        <time>2013-09-27T07:20:36Z</time>
      </trkpt>
      <trkpt lat="45.03768" lon="4.83932">
        <ele>122.71</ele>
        <time>2013-09-27T07:20:39Z</time>
      </trkpt>
      <trkpt lat="45.03785" lon="4.83948">
        <ele>122.71</ele>
        <time>2013-09-27T07:20:42Z</time>
      </trkpt>
      <trkpt lat="45.03802" lon="4.83964">
        <ele>122.71</ele>
        <time>2013-09-27T07:20:45Z</time>
      </trkpt>
      <trkpt lat="45.03819" lon="4.8398">
        <ele>122.71</ele>
        <time>2013-09-27T07:20:48Z</time>
      </trkpt>
      <trkpt lat="45.03836" lon="4.83997">
        <ele>122.71</ele>
        <time>2013-09-27T07:20:51Z</time>
      </trkpt>
      <trkpt lat="45.03853" lon="4.84014">
        <ele>122.71</ele>
        <time>2013-09-27T07:20:54Z</time>
      </trkpt>
      <trkpt lat="45.0387" lon="4.84031">
        <ele>122.71</ele>
        <time>2013-09-27T07:20:57Z</time>
      </trkpt>
      <trkpt lat="45.03886" lon="4.84048">
        <ele>123.19</ele>
        <time>2013-09-27T07:21:00Z</time>
      </trkpt>
      <trkpt lat="45.03903" lon="4.84064">
        <ele>122.71</ele>
        <time>2013-09-27T07:21:03Z</time>
      </trkpt>
      <trkpt lat="45.0392" lon="4.84081">
        <ele>123.19</ele>
        <time>2013-09-27T07:21:06Z</time>
      </trkpt>
      <trkpt lat="45.03936" lon="4.84098">
        <ele>123.19</ele>
        <time>2013-09-27T07:21:09Z</time>
      </trkpt>
      <trkpt lat="45.03953" lon="4.84114">
        <ele>123.19</ele>
        <time>2013-09-27T07:21:12Z</time>
      </trkpt>
      <trkpt lat="45.0397" lon="4.8413">
        <ele>123.19</ele>
        <time>2013-09-27T07:21:15Z</time>
      </trkpt>
      <trkpt lat="45.03986" lon="4.84146">
        <ele>123.67</ele>
        <time>2013-09-27T07:21:18Z</time>
      </trkpt>
      <trkpt lat="45.04002" lon="4.84163">
        <ele>123.19</ele>
        <time>2013-09-27T07:21:21Z</time>
      </trkpt>
      <trkpt lat="45.04018" lon="4.84179">
        <ele>123.67</ele>
        <time>2013-09-27T07:21:24Z</time>
      </trkpt>
      <trkpt lat="45.04034" lon="4.84196">
        <ele>123.19</ele>
        <time>2013-09-27T07:21:27Z</time>
      </trkpt>
      <trkpt lat="45.04051" lon="4.84212">
        <ele>123.19</ele>
        <time>2013-09-27T07:21:30Z</time>
      </trkpt>
      <trkpt lat="45.04066" lon="4.84228">
        <ele>123.19</ele>
        <time>2013-09-27T07:21:33Z</time>
      </trkpt>
      <trkpt lat="45.04082" lon="4.84243">
        <ele>123.19</ele>
        <time>2013-09-27T07:21:36Z</time>
      </trkpt>
      <trkpt lat="45.04098" lon="4.84259">
        <ele>123.19</ele>
        <time>2013-09-27T07:21:39Z</time>
      </trkpt>
      <trkpt lat="45.04114" lon="4.84275">
        <ele>123.19</ele>
        <time>2013-09-27T07:21:42Z</time>
      </trkpt>
      <trkpt lat="45.04129" lon="4.8429">
        <ele>123.19</ele>
        <time>2013-09-27T07:21:45Z</time>
      </trkpt>
      <trkpt lat="45.04145" lon="4.84306">
        <ele>128.47</ele>
        <time>2013-09-27T07:21:48Z</time>
      </trkpt>
      <trkpt lat="45.04161" lon="4.84321">
        <ele>123.19</ele>
        <time>2013-09-27T07:21:51Z</time>
      </trkpt>
      <trkpt lat="45.04177" lon="4.84338">
        <ele>123.19</ele>
        <time>2013-09-27T07:21:54Z</time>
      </trkpt>
      <trkpt lat="45.04193" lon="4.84354">
        <ele>123.19</ele>
        <time>2013-09-27T07:21:57Z</time>
      </trkpt>
      <trkpt lat="45.0421" lon="4.8437">
        <ele>123.19</ele>
        <time>2013-09-27T07:22:00Z</time>
      </trkpt>
      <trkpt lat="45.04226" lon="4.84385">
        <ele>123.67</ele>
        <time>2013-09-27T07:22:03Z</time>
      </trkpt>
      <trkpt lat="45.04241" lon="4.844">
        <ele>123.19</ele>
        <time>2013-09-27T07:22:06Z</time>
      </trkpt>
      <trkpt lat="45.04257" lon="4.84415">
        <ele>123.67</ele>
        <time>2013-09-27T07:22:09Z</time>
      </trkpt>
      <trkpt lat="45.04273" lon="4.84431">
        <ele>123.19</ele>
        <time>2013-09-27T07:22:12Z</time>
      </trkpt>
      <trkpt lat="45.04288" lon="4.84447">
        <ele>123.19</ele>
        <time>2013-09-27T07:22:15Z</time>
      </trkpt>
      <trkpt lat="45.04303" lon="4.84464">
        <ele>123.19</ele>
        <time>2013-09-27T07:22:18Z</time>
      </trkpt>
      <trkpt lat="45.04318" lon="4.8448">
        <ele>123.19</ele>
        <time>2013-09-27T07:22:21Z</time>
      </trkpt>
      <trkpt lat="45.04334" lon="4.84496">
        <ele>123.67</ele>
        <time>2013-09-27T07:22:24Z</time>
      </trkpt>
      <trkpt lat="45.04348" lon="4.84512">
        <ele>123.19</ele>
        <time>2013-09-27T07:22:27Z</time>
      </trkpt>
      <trkpt lat="45.04363" lon="4.84529">
        <ele>123.19</ele>
        <time>2013-09-27T07:22:30Z</time>
      </trkpt>
      <trkpt lat="45.04377" lon="4.84547">
        <ele>123.19</ele>
        <time>2013-09-27T07:22:33Z</time>
      </trkpt>
      <trkpt lat="45.04392" lon="4.84566">
        <ele>123.19</ele>
        <time>2013-09-27T07:22:36Z</time>
      </trkpt>
      <trkpt lat="45.04406" lon="4.84585">
        <ele>121.26</ele>
        <time>2013-09-27T07:22:39Z</time>
      </trkpt>
      <trkpt lat="45.0442" lon="4.84604">
        <ele>123.67</ele>
        <time>2013-09-27T07:22:42Z</time>
      </trkpt>
      <trkpt lat="45.04434" lon="4.84624">
        <ele>123.67</ele>
        <time>2013-09-27T07:22:45Z</time>
      </trkpt>
      <trkpt lat="45.04448" lon="4.84644">
        <ele>123.67</ele>
        <time>2013-09-27T07:22:48Z</time>
      </trkpt>
      <trkpt lat="45.0446" lon="4.84663">
        <ele>123.67</ele>
        <time>2013-09-27T07:22:51Z</time>
      </trkpt>
      <trkpt lat="45.04473" lon="4.84682">
        <ele>123.67</ele>
        <time>2013-09-27T07:22:54Z</time>
      </trkpt>
      <trkpt lat="45.04486" lon="4.84701">
        <ele>123.67</ele>
        <time>2013-09-27T07:22:57Z</time>
      </trkpt>
      <trkpt lat="45.04499" lon="4.8472">
        <ele>123.67</ele>
        <time>2013-09-27T07:23:00Z</time>
      </trkpt>
      <trkpt lat="45.04512" lon="4.84739">
        <ele>123.67</ele>
        <time>2013-09-27T07:23:03Z</time>
      </trkpt>
      <trkpt lat="45.04526" lon="4.84758">
        <ele>123.67</ele>
        <time>2013-09-27T07:23:06Z</time>
      </trkpt>
      <trkpt lat="45.04539" lon="4.84776">
        <ele>123.67</ele>
        <time>2013-09-27T07:23:09Z</time>
      </trkpt>
      <trkpt lat="45.04552" lon="4.84794">
        <ele>123.67</ele>
        <time>2013-09-27T07:23:12Z</time>
      </trkpt>
      <trkpt lat="45.04565" lon="4.84811">
        <ele>123.67</ele>
        <time>2013-09-27T07:23:15Z</time>
      </trkpt>
      <trkpt lat="45.04582" lon="4.84834">
        <ele>123.67</ele>
        <time>2013-09-27T07:23:19Z</time>
      </trkpt>
      <trkpt lat="45.046" lon="4.84857">
        <ele>123.67</ele>
        <time>2013-09-27T07:23:23Z</time>
      </trkpt>
      <trkpt lat="45.04614" lon="4.84873">
        <ele>123.67</ele>
        <time>2013-09-27T07:23:26Z</time>
      </trkpt>
      <trkpt lat="45.04628" lon="4.8489">
        <ele>123.67</ele>
        <time>2013-09-27T07:23:29Z</time>
      </trkpt>
      <trkpt lat="45.04642" lon="4.84907">
        <ele>123.67</ele>
        <time>2013-09-27T07:23:32Z</time>
      </trkpt>
      <trkpt lat="45.04656" lon="4.84924">
        <ele>124.15</ele>
        <time>2013-09-27T07:23:35Z</time>
      </trkpt>
      <trkpt lat="45.0467" lon="4.84942">
        <ele>124.15</ele>
        <time>2013-09-27T07:23:38Z</time>
      </trkpt>
      <trkpt lat="45.04686" lon="4.84959">
        <ele>123.67</ele>
        <time>2013-09-27T07:23:41Z</time>
      </trkpt>
      <trkpt lat="45.04702" lon="4.84976">
        <ele>124.15</ele>
        <time>2013-09-27T07:23:44Z</time>
      </trkpt>
      <trkpt lat="45.04718" lon="4.84993">
        <ele>123.67</ele>
        <time>2013-09-27T07:23:47Z</time>
      </trkpt>
      <trkpt lat="45.04733" lon="4.85011">
        <ele>124.15</ele>
        <time>2013-09-27T07:23:50Z</time>
      </trkpt>
      <trkpt lat="45.04749" lon="4.85028">
        <ele>123.67</ele>
        <time>2013-09-27T07:23:53Z</time>
      </trkpt>
      <trkpt lat="45.04764" lon="4.85044">
        <ele>124.15</ele>
        <time>2013-09-27T07:23:56Z</time>
      </trkpt>
      <trkpt lat="45.04779" lon="4.85061">
        <ele>124.15</ele>
        <time>2013-09-27T07:23:59Z</time>
      </trkpt>
      <trkpt lat="45.04795" lon="4.85078">
        <ele>123.67</ele>
        <time>2013-09-27T07:24:02Z</time>
      </trkpt>
      <trkpt lat="45.0481" lon="4.85094">
        <ele>123.67</ele>
        <time>2013-09-27T07:24:05Z</time>
      </trkpt>
      <trkpt lat="45.04825" lon="4.85111">
        <ele>123.67</ele>
        <time>2013-09-27T07:24:08Z</time>
      </trkpt>
      <trkpt lat="45.04841" lon="4.85127">
        <ele>123.67</ele>
        <time>2013-09-27T07:24:11Z</time>
      </trkpt>
      <trkpt lat="45.04858" lon="4.85144">
        <ele>124.15</ele>
        <time>2013-09-27T07:24:14Z</time>
      </trkpt>
      <trkpt lat="45.04874" lon="4.85162">
        <ele>123.67</ele>
        <time>2013-09-27T07:24:17Z</time>
      </trkpt>
      <trkpt lat="45.04891" lon="4.85179">
        <ele>123.67</ele>
        <time>2013-09-27T07:24:20Z</time>
      </trkpt>
      <trkpt lat="45.04907" lon="4.85197">
        <ele>124.15</ele>
        <time>2013-09-27T07:24:23Z</time>
      </trkpt>
      <trkpt lat="45.04923" lon="4.85214">
        <ele>124.15</ele>
        <time>2013-09-27T07:24:26Z</time>
      </trkpt>
      <trkpt lat="45.04939" lon="4.85232">
        <ele>124.15</ele>
        <time>2013-09-27T07:24:29Z</time>
      </trkpt>
      <trkpt lat="45.04955" lon="4.8525">
        <ele>123.67</ele>
        <time>2013-09-27T07:24:32Z</time>
      </trkpt>
      <trkpt lat="45.0497" lon="4.85267">
        <ele>124.15</ele>
        <time>2013-09-27T07:24:35Z</time>
      </trkpt>
      <trkpt lat="45.04986" lon="4.85284">
        <ele>124.15</ele>
        <time>2013-09-27T07:24:38Z</time>
      </trkpt>
      <trkpt lat="45.05002" lon="4.85301">
        <ele>124.15</ele>
        <time>2013-09-27T07:24:41Z</time>
      </trkpt>
      <trkpt lat="45.05017" lon="4.85319">
        <ele>124.15</ele>
        <time>2013-09-27T07:24:44Z</time>
      </trkpt>
      <trkpt lat="45.05033" lon="4.85336">
        <ele>123.67</ele>
        <time>2013-09-27T07:24:47Z</time>
      </trkpt>
      <trkpt lat="45.05048" lon="4.85353">
        <ele>124.15</ele>
        <time>2013-09-27T07:24:50Z</time>
      </trkpt>
      <trkpt lat="45.05064" lon="4.8537">
        <ele>124.15</ele>
        <time>2013-09-27T07:24:53Z</time>
      </trkpt>
      <trkpt lat="45.0508" lon="4.85387">
        <ele>123.67</ele>
        <time>2013-09-27T07:24:56Z</time>
      </trkpt>
      <trkpt lat="45.05095" lon="4.85403">
        <ele>124.15</ele>
        <time>2013-09-27T07:24:59Z</time>
      </trkpt>
      <trkpt lat="45.05111" lon="4.85419">
        <ele>124.15</ele>
        <time>2013-09-27T07:25:02Z</time>
      </trkpt>
      <trkpt lat="45.05127" lon="4.85436">
        <ele>124.15</ele>
        <time>2013-09-27T07:25:05Z</time>
      </trkpt>
      <trkpt lat="45.05144" lon="4.85452">
        <ele>124.15</ele>
        <time>2013-09-27T07:25:08Z</time>
      </trkpt>
      <trkpt lat="45.0516" lon="4.85467">
        <ele>124.15</ele>
        <time>2013-09-27T07:25:11Z</time>
      </trkpt>
      <trkpt lat="45.05176" lon="4.85482">
        <ele>124.15</ele>
        <time>2013-09-27T07:25:14Z</time>
      </trkpt>
      <trkpt lat="45.05193" lon="4.85497">
        <ele>124.15</ele>
        <time>2013-09-27T07:25:17Z</time>
      </trkpt>
      <trkpt lat="45.05211" lon="4.85512">
        <ele>124.15</ele>
        <time>2013-09-27T07:25:20Z</time>
      </trkpt>
      <trkpt lat="45.05228" lon="4.85526">
        <ele>124.15</ele>
        <time>2013-09-27T07:25:23Z</time>
      </trkpt>
      <trkpt lat="45.05246" lon="4.8554">
        <ele>124.15</ele>
        <time>2013-09-27T07:25:26Z</time>
      </trkpt>
      <trkpt lat="45.05263" lon="4.85553">
        <ele>124.15</ele>
        <time>2013-09-27T07:25:29Z</time>
      </trkpt>
      <trkpt lat="45.05281" lon="4.85565">
        <ele>124.15</ele>
        <time>2013-09-27T07:25:32Z</time>
      </trkpt>
      <trkpt lat="45.05299" lon="4.85578">
        <ele>124.15</ele>
        <time>2013-09-27T07:25:35Z</time>
      </trkpt>
      <trkpt lat="45.05316" lon="4.85589">
        <ele>124.15</ele>
        <time>2013-09-27T07:25:38Z</time>
      </trkpt>
      <trkpt lat="45.05334" lon="4.856">
        <ele>124.15</ele>
        <time>2013-09-27T07:25:41Z</time>
      </trkpt>
      <trkpt lat="45.05352" lon="4.85611">
        <ele>124.63</ele>
        <time>2013-09-27T07:25:44Z</time>
      </trkpt>
      <trkpt lat="45.05372" lon="4.85622">
        <ele>124.15</ele>
        <time>2013-09-27T07:25:47Z</time>
      </trkpt>
      <trkpt lat="45.05391" lon="4.85633">
        <ele>124.63</ele>
        <time>2013-09-27T07:25:50Z</time>
      </trkpt>
      <trkpt lat="45.0541" lon="4.85643">
        <ele>125.11</ele>
        <time>2013-09-27T07:25:53Z</time>
      </trkpt>
      <trkpt lat="45.05428" lon="4.85652">
        <ele>125.11</ele>
        <time>2013-09-27T07:25:56Z</time>
      </trkpt>
      <trkpt lat="45.05447" lon="4.8566">
        <ele>124.63</ele>
        <time>2013-09-27T07:25:59Z</time>
      </trkpt>
      <trkpt lat="45.05466" lon="4.85668">
        <ele>124.63</ele>
        <time>2013-09-27T07:26:02Z</time>
      </trkpt>
      <trkpt lat="45.05484" lon="4.85676">
        <ele>125.11</ele>
        <time>2013-09-27T07:26:05Z</time>
      </trkpt>
      <trkpt lat="45.05503" lon="4.85684">
        <ele>124.63</ele>
        <time>2013-09-27T07:26:08Z</time>
      </trkpt>
      <trkpt lat="45.05522" lon="4.85691">
        <ele>125.11</ele>
        <time>2013-09-27T07:26:11Z</time>
      </trkpt>
      <trkpt lat="45.05542" lon="4.85697">
        <ele>124.63</ele>
        <time>2013-09-27T07:26:14Z</time>
      </trkpt>
      <trkpt lat="45.05562" lon="4.85704">
        <ele>124.63</ele>
        <time>2013-09-27T07:26:17Z</time>
      </trkpt>
      <trkpt lat="45.05581" lon="4.8571">
        <ele>124.63</ele>
        <time>2013-09-27T07:26:20Z</time>
      </trkpt>
      <trkpt lat="45.056" lon="4.85715">
        <ele>124.63</ele>
        <time>2013-09-27T07:26:23Z</time>
      </trkpt>
      <trkpt lat="45.0562" lon="4.8572">
        <ele>124.63</ele>
        <time>2013-09-27T07:26:26Z</time>
      </trkpt>
      <trkpt lat="45.0564" lon="4.85724">
        <ele>125.11</ele>
        <time>2013-09-27T07:26:29Z</time>
      </trkpt>
      <trkpt lat="45.0566" lon="4.85728">
        <ele>125.59</ele>
        <time>2013-09-27T07:26:32Z</time>
      </trkpt>
      <trkpt lat="45.05679" lon="4.85731">
        <ele>125.11</ele>
        <time>2013-09-27T07:26:35Z</time>
      </trkpt>
      <trkpt lat="45.057" lon="4.85734">
        <ele>124.63</ele>
        <time>2013-09-27T07:26:38Z</time>
      </trkpt>
      <trkpt lat="45.05719" lon="4.85737">
        <ele>124.63</ele>
        <time>2013-09-27T07:26:41Z</time>
      </trkpt>
      <trkpt lat="45.05739" lon="4.85738">
        <ele>124.63</ele>
        <time>2013-09-27T07:26:44Z</time>
      </trkpt>
      <trkpt lat="45.0576" lon="4.85739">
        <ele>124.63</ele>
        <time>2013-09-27T07:26:47Z</time>
      </trkpt>
      <trkpt lat="45.0578" lon="4.85737">
        <ele>125.11</ele>
        <time>2013-09-27T07:26:50Z</time>
      </trkpt>
      <trkpt lat="45.05799" lon="4.85735">
        <ele>124.63</ele>
        <time>2013-09-27T07:26:53Z</time>
      </trkpt>
      <trkpt lat="45.05819" lon="4.85731">
        <ele>125.11</ele>
        <time>2013-09-27T07:26:56Z</time>
      </trkpt>
      <trkpt lat="45.05839" lon="4.85726">
        <ele>125.11</ele>
        <time>2013-09-27T07:26:59Z</time>
      </trkpt>
      <trkpt lat="45.05858" lon="4.85721">
        <ele>125.59</ele>
        <time>2013-09-27T07:27:02Z</time>
      </trkpt>
      <trkpt lat="45.05877" lon="4.85713">
        <ele>125.11</ele>
        <time>2013-09-27T07:27:05Z</time>
      </trkpt>
      <trkpt lat="45.05896" lon="4.85704">
        <ele>125.11</ele>
        <time>2013-09-27T07:27:08Z</time>
      </trkpt>
      <trkpt lat="45.05916" lon="4.85695">
        <ele>125.11</ele>
        <time>2013-09-27T07:27:11Z</time>
      </trkpt>
      <trkpt lat="45.05934" lon="4.85684">
        <ele>125.59</ele>
        <time>2013-09-27T07:27:14Z</time>
      </trkpt>
      <trkpt lat="45.05953" lon="4.85672">
        <ele>124.63</ele>
        <time>2013-09-27T07:27:17Z</time>
      </trkpt>
      <trkpt lat="45.0597" lon="4.85659">
        <ele>125.11</ele>
        <time>2013-09-27T07:27:20Z</time>
      </trkpt>
      <trkpt lat="45.05988" lon="4.85645">
        <ele>125.11</ele>
        <time>2013-09-27T07:27:23Z</time>
      </trkpt>
      <trkpt lat="45.06005" lon="4.85628">
        <ele>125.11</ele>
        <time>2013-09-27T07:27:26Z</time>
      </trkpt>
      <trkpt lat="45.06022" lon="4.85611">
        <ele>125.59</ele>
        <time>2013-09-27T07:27:29Z</time>
      </trkpt>
      <trkpt lat="45.06039" lon="4.85592">
        <ele>125.11</ele>
        <time>2013-09-27T07:27:32Z</time>
      </trkpt>
      <trkpt lat="45.06054" lon="4.85572">
        <ele>125.11</ele>
        <time>2013-09-27T07:27:35Z</time>
      </trkpt>
      <trkpt lat="45.06069" lon="4.85553">
        <ele>125.11</ele>
        <time>2013-09-27T07:27:38Z</time>
      </trkpt>
      <trkpt lat="45.06083" lon="4.85534">
        <ele>125.59</ele>
        <time>2013-09-27T07:27:41Z</time>
      </trkpt>
      <trkpt lat="45.06096" lon="4.85514">
        <ele>125.11</ele>
        <time>2013-09-27T07:27:44Z</time>
      </trkpt>
      <trkpt lat="45.06108" lon="4.85494">
        <ele>125.59</ele>
        <time>2013-09-27T07:27:47Z</time>
      </trkpt>
      <trkpt lat="45.06121" lon="4.85474">
        <ele>125.59</ele>
        <time>2013-09-27T07:27:50Z</time>
      </trkpt>
      <trkpt lat="45.06133" lon="4.85454">
        <ele>125.59</ele>
        <time>2013-09-27T07:27:53Z</time>
      </trkpt>
      <trkpt lat="45.06148" lon="4.85428">
        <ele>126.07</ele>
        <time>2013-09-27T07:27:57Z</time>
      </trkpt>
      <trkpt lat="45.06162" lon="4.85404">
        <ele>125.59</ele>
        <time>2013-09-27T07:28:01Z</time>
      </trkpt>
      <trkpt lat="45.06176" lon="4.85377">
        <ele>126.07</ele>
        <time>2013-09-27T07:28:05Z</time>
      </trkpt>
      <trkpt lat="45.0619" lon="4.85351">
        <ele>126.07</ele>
        <time>2013-09-27T07:28:09Z</time>
      </trkpt>
      <trkpt lat="45.06204" lon="4.85324">
        <ele>126.07</ele>
        <time>2013-09-27T07:28:13Z</time>
      </trkpt>
      <trkpt lat="45.06218" lon="4.85297">
        <ele>126.07</ele>
        <time>2013-09-27T07:28:17Z</time>
      </trkpt>
      <trkpt lat="45.06231" lon="4.85269">
        <ele>126.07</ele>
        <time>2013-09-27T07:28:21Z</time>
      </trkpt>
      <trkpt lat="45.06244" lon="4.8524">
        <ele>125.59</ele>
        <time>2013-09-27T07:28:25Z</time>
      </trkpt>
      <trkpt lat="45.06257" lon="4.85212">
        <ele>126.07</ele>
        <time>2013-09-27T07:28:29Z</time>
      </trkpt>
      <trkpt lat="45.06268" lon="4.85182">
        <ele>126.07</ele>
        <time>2013-09-27T07:28:33Z</time>
      </trkpt>
      <trkpt lat="45.06281" lon="4.85154">
        <ele>125.59</ele>
        <time>2013-09-27T07:28:37Z</time>
      </trkpt>
      <trkpt lat="45.06292" lon="4.85125">
        <ele>125.59</ele>
        <time>2013-09-27T07:28:41Z</time>
      </trkpt>
      <trkpt lat="45.06304" lon="4.85099">
        <ele>126.07</ele>
        <time>2013-09-27T07:28:45Z</time>
      </trkpt>
      <trkpt lat="45.06312" lon="4.85077">
        <ele>126.07</ele>
        <time>2013-09-27T07:28:49Z</time>
      </trkpt>
      <trkpt lat="45.06321" lon="4.8505">
        <ele>125.59</ele>
        <time>2013-09-27T07:28:53Z</time>
      </trkpt>
      <trkpt lat="45.0633" lon="4.85022">
        <ele>126.07</ele>
        <time>2013-09-27T07:28:57Z</time>
      </trkpt>
      <trkpt lat="45.06339" lon="4.84995">
        <ele>126.07</ele>
        <time>2013-09-27T07:29:01Z</time>
      </trkpt>
      <trkpt lat="45.06346" lon="4.84963">
        <ele>126.07</ele>
        <time>2013-09-27T07:29:05Z</time>
      </trkpt>
      <trkpt lat="45.06354" lon="4.8493">
        <ele>126.07</ele>
        <time>2013-09-27T07:29:09Z</time>
      </trkpt>
      <trkpt lat="45.06361" lon="4.84906">
        <ele>126.07</ele>
        <time>2013-09-27T07:29:12Z</time>
      </trkpt>
      <trkpt lat="45.06367" lon="4.84881">
        <ele>126.07</ele>
        <time>2013-09-27T07:29:15Z</time>
      </trkpt>
      <trkpt lat="45.06373" lon="4.84856">
        <ele>126.07</ele>
        <time>2013-09-27T07:29:18Z</time>
      </trkpt>
      <trkpt lat="45.0638" lon="4.84832">
        <ele>126.07</ele>
        <time>2013-09-27T07:29:21Z</time>
      </trkpt>
      <trkpt lat="45.06386" lon="4.84808">
        <ele>126.07</ele>
        <time>2013-09-27T07:29:24Z</time>
      </trkpt>
      <trkpt lat="45.06392" lon="4.84783">
        <ele>126.07</ele>
        <time>2013-09-27T07:29:27Z</time>
      </trkpt>
      <trkpt lat="45.06399" lon="4.84758">
        <ele>126.07</ele>
        <time>2013-09-27T07:29:30Z</time>
      </trkpt>
      <trkpt lat="45.06406" lon="4.84733">
        <ele>126.07</ele>
        <time>2013-09-27T07:29:33Z</time>
      </trkpt>
      <trkpt lat="45.06412" lon="4.84708">
        <ele>126.07</ele>
        <time>2013-09-27T07:29:36Z</time>
      </trkpt>
      <trkpt lat="45.0642" lon="4.84675">
        <ele>126.07</ele>
        <time>2013-09-27T07:29:40Z</time>
      </trkpt>
      <trkpt lat="45.06426" lon="4.8465">
        <ele>126.07</ele>
        <time>2013-09-27T07:29:43Z</time>
      </trkpt>
      <trkpt lat="45.06432" lon="4.84623">
        <ele>126.07</ele>
        <time>2013-09-27T07:29:46Z</time>
      </trkpt>
      <trkpt lat="45.06436" lon="4.84597">
        <ele>126.07</ele>
        <time>2013-09-27T07:29:49Z</time>
      </trkpt>
      <trkpt lat="45.06441" lon="4.84571">
        <ele>126.07</ele>
        <time>2013-09-27T07:29:52Z</time>
      </trkpt>
      <trkpt lat="45.06445" lon="4.84546">
        <ele>126.55</ele>
        <time>2013-09-27T07:29:55Z</time>
      </trkpt>
      <trkpt lat="45.06449" lon="4.84521">
        <ele>127.03</ele>
        <time>2013-09-27T07:29:58Z</time>
      </trkpt>
      <trkpt lat="45.06452" lon="4.84494">
        <ele>126.07</ele>
        <time>2013-09-27T07:30:01Z</time>
      </trkpt>
      <trkpt lat="45.06456" lon="4.84468">
        <ele>126.55</ele>
        <time>2013-09-27T07:30:04Z</time>
      </trkpt>
      <trkpt lat="45.06459" lon="4.84441">
        <ele>126.55</ele>
        <time>2013-09-27T07:30:07Z</time>
      </trkpt>
      <trkpt lat="45.06462" lon="4.84414">
        <ele>126.55</ele>
        <time>2013-09-27T07:30:10Z</time>
      </trkpt>
      <trkpt lat="45.06465" lon="4.84387">
        <ele>126.55</ele>
        <time>2013-09-27T07:30:13Z</time>
      </trkpt>
      <trkpt lat="45.06471" lon="4.8436">
        <ele>126.55</ele>
        <time>2013-09-27T07:30:16Z</time>
      </trkpt>
      <trkpt lat="45.06477" lon="4.84333">
        <ele>126.55</ele>
        <time>2013-09-27T07:30:19Z</time>
      </trkpt>
      <trkpt lat="45.06483" lon="4.84306">
        <ele>126.55</ele>
        <time>2013-09-27T07:30:22Z</time>
      </trkpt>
      <trkpt lat="45.06489" lon="4.8428">
        <ele>126.07</ele>
        <time>2013-09-27T07:30:25Z</time>
      </trkpt>
      <trkpt lat="45.06496" lon="4.84254">
        <ele>126.55</ele>
        <time>2013-09-27T07:30:28Z</time>
      </trkpt>
      <trkpt lat="45.06503" lon="4.84227">
        <ele>126.55</ele>
        <time>2013-09-27T07:30:31Z</time>
      </trkpt>
      <trkpt lat="45.0651" lon="4.842">
        <ele>126.55</ele>
        <time>2013-09-27T07:30:34Z</time>
      </trkpt>
      <trkpt lat="45.06515" lon="4.84173">
        <ele>126.55</ele>
        <time>2013-09-27T07:30:37Z</time>
      </trkpt>
      <trkpt lat="45.06522" lon="4.84147">
        <ele>126.55</ele>
        <time>2013-09-27T07:30:40Z</time>
      </trkpt>
      <trkpt lat="45.0653" lon="4.8412">
        <ele>126.55</ele>
        <time>2013-09-27T07:30:43Z</time>
      </trkpt>
      <trkpt lat="45.06536" lon="4.84095">
        <ele>126.55</ele>
        <time>2013-09-27T07:30:46Z</time>
      </trkpt>
      <trkpt lat="45.06543" lon="4.84064">
        <ele>127.03</ele>
        <time>2013-09-27T07:30:50Z</time>
      </trkpt>
      <trkpt lat="45.06547" lon="4.84036">
        <ele>127.99</ele>
        <time>2013-09-27T07:30:54Z</time>
      </trkpt>
      <trkpt lat="45.06546" lon="4.84015">
        <ele>128.47</ele>
        <time>2013-09-27T07:31:00Z</time>
      </trkpt>
      <trkpt lat="45.06559" lon="4.83998">
        <ele>129.43</ele>
        <time>2013-09-27T07:31:07Z</time>
      </trkpt>
      <trkpt lat="45.06567" lon="4.83972">
        <ele>128.47</ele>
        <time>2013-09-27T07:31:13Z</time>
      </trkpt>
      <trkpt lat="45.06575" lon="4.83945">
        <ele>127.99</ele>
        <time>2013-09-27T07:31:17Z</time>
      </trkpt>
      <trkpt lat="45.06585" lon="4.83919">
        <ele>127.99</ele>
        <time>2013-09-27T07:31:21Z</time>
      </trkpt>
      <trkpt lat="45.06596" lon="4.8389">
        <ele>127.99</ele>
        <time>2013-09-27T07:31:25Z</time>
      </trkpt>
      <trkpt lat="45.06606" lon="4.83868">
        <ele>127.51</ele>
        <time>2013-09-27T07:31:28Z</time>
      </trkpt>
      <trkpt lat="45.06615" lon="4.83843">
        <ele>127.51</ele>
        <time>2013-09-27T07:31:31Z</time>
      </trkpt>
      <trkpt lat="45.06625" lon="4.83818">
        <ele>127.51</ele>
        <time>2013-09-27T07:31:34Z</time>
      </trkpt>
      <trkpt lat="45.06635" lon="4.83794">
        <ele>127.03</ele>
        <time>2013-09-27T07:31:37Z</time>
      </trkpt>
      <trkpt lat="45.06644" lon="4.8377">
        <ele>127.51</ele>
        <time>2013-09-27T07:31:40Z</time>
      </trkpt>
      <trkpt lat="45.06655" lon="4.83744">
        <ele>127.51</ele>
        <time>2013-09-27T07:31:43Z</time>
      </trkpt>
      <trkpt lat="45.06666" lon="4.83719">
        <ele>127.51</ele>
        <time>2013-09-27T07:31:46Z</time>
      </trkpt>
      <trkpt lat="45.06676" lon="4.83695">
        <ele>127.99</ele>
        <time>2013-09-27T07:31:49Z</time>
      </trkpt>
      <trkpt lat="45.06686" lon="4.83673">
        <ele>127.99</ele>
        <time>2013-09-27T07:31:52Z</time>
      </trkpt>
      <trkpt lat="45.06698" lon="4.83645">
        <ele>127.99</ele>
        <time>2013-09-27T07:31:56Z</time>
      </trkpt>
      <trkpt lat="45.06708" lon="4.83623">
        <ele>127.99</ele>
        <time>2013-09-27T07:31:59Z</time>
      </trkpt>
      <trkpt lat="45.06718" lon="4.83601">
        <ele>127.99</ele>
        <time>2013-09-27T07:32:02Z</time>
      </trkpt>
      <trkpt lat="45.06731" lon="4.83572">
        <ele>127.99</ele>
        <time>2013-09-27T07:32:06Z</time>
      </trkpt>
      <trkpt lat="45.06741" lon="4.8355">
        <ele>127.99</ele>
        <time>2013-09-27T07:32:09Z</time>
      </trkpt>
      <trkpt lat="45.0675" lon="4.83528">
        <ele>127.99</ele>
        <time>2013-09-27T07:32:12Z</time>
      </trkpt>
      <trkpt lat="45.06763" lon="4.83501">
        <ele>127.99</ele>
        <time>2013-09-27T07:32:16Z</time>
      </trkpt>
      <trkpt lat="45.06774" lon="4.83477">
        <ele>128.47</ele>
        <time>2013-09-27T07:32:20Z</time>
      </trkpt>
      <trkpt lat="45.06783" lon="4.83455">
        <ele>128.47</ele>
        <time>2013-09-27T07:32:24Z</time>
      </trkpt>
      <trkpt lat="45.06795" lon="4.83432">
        <ele>127.51</ele>
        <time>2013-09-27T07:32:28Z</time>
      </trkpt>
      <trkpt lat="45.06809" lon="4.83405">
        <ele>127.03</ele>
        <time>2013-09-27T07:32:32Z</time>
      </trkpt>
      <trkpt lat="45.06821" lon="4.83382">
        <ele>126.55</ele>
        <time>2013-09-27T07:32:35Z</time>
      </trkpt>
      <trkpt lat="45.06833" lon="4.8336">
        <ele>126.07</ele>
        <time>2013-09-27T07:32:38Z</time>
      </trkpt>
      <trkpt lat="45.06845" lon="4.83337">
        <ele>125.11</ele>
        <time>2013-09-27T07:32:41Z</time>
      </trkpt>
      <trkpt lat="45.06856" lon="4.83313">
        <ele>126.07</ele>
        <time>2013-09-27T07:32:44Z</time>
      </trkpt>
      <trkpt lat="45.06866" lon="4.83288">
        <ele>126.55</ele>
        <time>2013-09-27T07:32:47Z</time>
      </trkpt>
      <trkpt lat="45.06878" lon="4.83268">
        <ele>126.55</ele>
        <time>2013-09-27T07:32:50Z</time>
      </trkpt>
      <trkpt lat="45.06886" lon="4.83235">
        <ele>127.03</ele>
        <time>2013-09-27T07:32:54Z</time>
      </trkpt>
      <trkpt lat="45.06899" lon="4.83207">
        <ele>125.59</ele>
        <time>2013-09-27T07:32:58Z</time>
      </trkpt>
      <trkpt lat="45.06911" lon="4.83184">
        <ele>124.63</ele>
        <time>2013-09-27T07:33:01Z</time>
      </trkpt>
      <trkpt lat="45.06922" lon="4.83159">
        <ele>123.67</ele>
        <time>2013-09-27T07:33:04Z</time>
      </trkpt>
      <trkpt lat="45.06933" lon="4.83137">
        <ele>123.67</ele>
        <time>2013-09-27T07:33:07Z</time>
      </trkpt>
      <trkpt lat="45.06948" lon="4.8311">
        <ele>123.67</ele>
        <time>2013-09-27T07:33:11Z</time>
      </trkpt>
      <trkpt lat="45.0696" lon="4.8309">
        <ele>123.67</ele>
        <time>2013-09-27T07:33:14Z</time>
      </trkpt>
      <trkpt lat="45.06971" lon="4.8307">
        <ele>123.67</ele>
        <time>2013-09-27T07:33:17Z</time>
      </trkpt>
      <trkpt lat="45.06982" lon="4.8305">
        <ele>123.67</ele>
        <time>2013-09-27T07:33:20Z</time>
      </trkpt>
      <trkpt lat="45.06995" lon="4.83032">
        <ele>124.15</ele>
        <time>2013-09-27T07:33:23Z</time>
      </trkpt>
      <trkpt lat="45.0701" lon="4.83014">
        <ele>123.19</ele>
        <time>2013-09-27T07:33:26Z</time>
      </trkpt>
      <trkpt lat="45.07023" lon="4.82996">
        <ele>123.67</ele>
        <time>2013-09-27T07:33:29Z</time>
      </trkpt>
      <trkpt lat="45.07037" lon="4.82978">
        <ele>123.67</ele>
        <time>2013-09-27T07:33:32Z</time>
      </trkpt>
      <trkpt lat="45.07054" lon="4.82955">
        <ele>123.67</ele>
        <time>2013-09-27T07:33:36Z</time>
      </trkpt>
      <trkpt lat="45.07061" lon="4.82929">
        <ele>124.15</ele>
        <time>2013-09-27T07:33:40Z</time>
      </trkpt>
      <trkpt lat="45.07059" lon="4.82898">
        <ele>124.15</ele>
        <time>2013-09-27T07:33:45Z</time>
      </trkpt>
      <trkpt lat="45.07062" lon="4.82871">
        <ele>125.59</ele>
        <time>2013-09-27T07:33:49Z</time>
      </trkpt>
      <trkpt lat="45.07078" lon="4.82853">
        <ele>126.55</ele>
        <time>2013-09-27T07:33:54Z</time>
      </trkpt>
      <trkpt lat="45.07092" lon="4.82838">
        <ele>127.03</ele>
        <time>2013-09-27T07:33:58Z</time>
      </trkpt>
      <trkpt lat="45.07108" lon="4.82823">
        <ele>127.99</ele>
        <time>2013-09-27T07:34:02Z</time>
      </trkpt>
      <trkpt lat="45.07124" lon="4.82806">
        <ele>127.51</ele>
        <time>2013-09-27T07:34:06Z</time>
      </trkpt>
      <trkpt lat="45.07141" lon="4.82787">
        <ele>127.99</ele>
        <time>2013-09-27T07:34:10Z</time>
      </trkpt>
      <trkpt lat="45.07156" lon="4.82765">
        <ele>127.99</ele>
        <time>2013-09-27T07:34:14Z</time>
      </trkpt>
      <trkpt lat="45.07172" lon="4.82744">
        <ele>127.99</ele>
        <time>2013-09-27T07:34:18Z</time>
      </trkpt>
      <trkpt lat="45.07187" lon="4.82722">
        <ele>128.47</ele>
        <time>2013-09-27T07:34:22Z</time>
      </trkpt>
      <trkpt lat="45.07198" lon="4.82701">
        <ele>128.47</ele>
        <time>2013-09-27T07:34:26Z</time>
      </trkpt>
      <trkpt lat="45.07208" lon="4.82677">
        <ele>128.47</ele>
        <time>2013-09-27T07:34:33Z</time>
      </trkpt>
      <trkpt lat="45.07219" lon="4.82654">
        <ele>128.47</ele>
        <time>2013-09-27T07:34:38Z</time>
      </trkpt>
      <trkpt lat="45.0723" lon="4.8263">
        <ele>127.99</ele>
        <time>2013-09-27T07:34:42Z</time>
      </trkpt>
      <trkpt lat="45.0724" lon="4.82604">
        <ele>128.47</ele>
        <time>2013-09-27T07:34:46Z</time>
      </trkpt>
      <trkpt lat="45.07249" lon="4.82575">
        <ele>128.47</ele>
        <time>2013-09-27T07:34:50Z</time>
      </trkpt>
      <trkpt lat="45.07259" lon="4.82546">
        <ele>128.47</ele>
        <time>2013-09-27T07:34:54Z</time>
      </trkpt>
      <trkpt lat="45.07269" lon="4.82514">
        <ele>128.47</ele>
        <time>2013-09-27T07:34:58Z</time>
      </trkpt>
      <trkpt lat="45.07276" lon="4.82481">
        <ele>128.95</ele>
        <time>2013-09-27T07:35:02Z</time>
      </trkpt>
      <trkpt lat="45.07281" lon="4.82455">
        <ele>128.47</ele>
        <time>2013-09-27T07:35:05Z</time>
      </trkpt>
      <trkpt lat="45.07285" lon="4.82429">
        <ele>128.95</ele>
        <time>2013-09-27T07:35:08Z</time>
      </trkpt>
      <trkpt lat="45.07288" lon="4.82403">
        <ele>128.95</ele>
        <time>2013-09-27T07:35:11Z</time>
      </trkpt>
      <trkpt lat="45.07289" lon="4.82377">
        <ele>128.95</ele>
        <time>2013-09-27T07:35:14Z</time>
      </trkpt>
      <trkpt lat="45.0729" lon="4.82351">
        <ele>128.47</ele>
        <time>2013-09-27T07:35:17Z</time>
      </trkpt>
      <trkpt lat="45.0729" lon="4.82325">
        <ele>129.43</ele>
        <time>2013-09-27T07:35:20Z</time>
      </trkpt>
      <trkpt lat="45.07288" lon="4.82298">
        <ele>128.95</ele>
        <time>2013-09-27T07:35:23Z</time>
      </trkpt>
      <trkpt lat="45.07283" lon="4.82266">
        <ele>128.47</ele>
        <time>2013-09-27T07:35:27Z</time>
      </trkpt>
      <trkpt lat="45.07275" lon="4.82239">
        <ele>129.43</ele>
        <time>2013-09-27T07:35:31Z</time>
      </trkpt>
      <trkpt lat="45.07267" lon="4.82216">
        <ele>129.43</ele>
        <time>2013-09-27T07:35:36Z</time>
      </trkpt>
      <trkpt lat="45.07261" lon="4.82193">
        <ele>129.43</ele>
        <time>2013-09-27T07:35:42Z</time>
      </trkpt>
      <trkpt lat="45.07258" lon="4.82165">
        <ele>128.95</ele>
        <time>2013-09-27T07:35:47Z</time>
      </trkpt>
      <trkpt lat="45.07264" lon="4.82139">
        <ele>129.92</ele>
        <time>2013-09-27T07:35:51Z</time>
      </trkpt>
      <trkpt lat="45.07274" lon="4.82111">
        <ele>129.43</ele>
        <time>2013-09-27T07:35:55Z</time>
      </trkpt>
      <trkpt lat="45.07284" lon="4.82084">
        <ele>129.43</ele>
        <time>2013-09-27T07:35:59Z</time>
      </trkpt>
      <trkpt lat="45.07293" lon="4.82055">
        <ele>128.95</ele>
        <time>2013-09-27T07:36:03Z</time>
      </trkpt>
      <trkpt lat="45.073" lon="4.8203">
        <ele>128.95</ele>
        <time>2013-09-27T07:36:06Z</time>
      </trkpt>
      <trkpt lat="45.07307" lon="4.82004">
        <ele>128.95</ele>
        <time>2013-09-27T07:36:09Z</time>
      </trkpt>
      <trkpt lat="45.07315" lon="4.8198">
        <ele>128.95</ele>
        <time>2013-09-27T07:36:12Z</time>
      </trkpt>
      <trkpt lat="45.07322" lon="4.81956">
        <ele>128.95</ele>
        <time>2013-09-27T07:36:15Z</time>
      </trkpt>
      <trkpt lat="45.07332" lon="4.81926">
        <ele>129.92</ele>
        <time>2013-09-27T07:36:19Z</time>
      </trkpt>
      <trkpt lat="45.07339" lon="4.81894">
        <ele>129.43</ele>
        <time>2013-09-27T07:36:23Z</time>
      </trkpt>
      <trkpt lat="45.07349" lon="4.81863">
        <ele>129.43</ele>
        <time>2013-09-27T07:36:27Z</time>
      </trkpt>
      <trkpt lat="45.07356" lon="4.81833">
        <ele>129.43</ele>
        <time>2013-09-27T07:36:31Z</time>
      </trkpt>
      <trkpt lat="45.07365" lon="4.81803">
        <ele>129.92</ele>
        <time>2013-09-27T07:36:35Z</time>
      </trkpt>
      <trkpt lat="45.07378" lon="4.81776">
        <ele>129.43</ele>
        <time>2013-09-27T07:36:39Z</time>
      </trkpt>
      <trkpt lat="45.07393" lon="4.81756">
        <ele>130.4</ele>
        <time>2013-09-27T07:36:43Z</time>
      </trkpt>
      <trkpt lat="45.0741" lon="4.81739">
        <ele>130.4</ele>
        <time>2013-09-27T07:36:47Z</time>
      </trkpt>
      <trkpt lat="45.07428" lon="4.81724">
        <ele>130.4</ele>
        <time>2013-09-27T07:36:51Z</time>
      </trkpt>
      <trkpt lat="45.07447" lon="4.8171">
        <ele>130.88</ele>
        <time>2013-09-27T07:36:55Z</time>
      </trkpt>
      <trkpt lat="45.07466" lon="4.81697">
        <ele>130.4</ele>
        <time>2013-09-27T07:36:59Z</time>
      </trkpt>
      <trkpt lat="45.07485" lon="4.81682">
        <ele>130.4</ele>
        <time>2013-09-27T07:37:03Z</time>
      </trkpt>
      <trkpt lat="45.07504" lon="4.81668">
        <ele>130.4</ele>
        <time>2013-09-27T07:37:07Z</time>
      </trkpt>
      <trkpt lat="45.07523" lon="4.81654">
        <ele>129.92</ele>
        <time>2013-09-27T07:37:11Z</time>
      </trkpt>
      <trkpt lat="45.07537" lon="4.81668">
        <ele>127.99</ele>
        <time>2013-09-27T07:37:17Z</time>
      </trkpt>
      <trkpt lat="45.07544" lon="4.81697">
        <ele>127.03</ele>
        <time>2013-09-27T07:37:21Z</time>
      </trkpt>
      <trkpt lat="45.0755" lon="4.81723">
        <ele>127.03</ele>
        <time>2013-09-27T07:37:25Z</time>
      </trkpt>
      <trkpt lat="45.07558" lon="4.81751">
        <ele>127.51</ele>
        <time>2013-09-27T07:37:30Z</time>
      </trkpt>
      <trkpt lat="45.07564" lon="4.81774">
        <ele>127.03</ele>
        <time>2013-09-27T07:37:35Z</time>
      </trkpt>
      <trkpt lat="45.07572" lon="4.81803">
        <ele>127.03</ele>
        <time>2013-09-27T07:37:41Z</time>
      </trkpt>
      <trkpt lat="45.07577" lon="4.81827">
        <ele>127.03</ele>
        <time>2013-09-27T07:37:48Z</time>
      </trkpt>
      <trkpt lat="45.07585" lon="4.81856">
        <ele>126.55</ele>
        <time>2013-09-27T07:37:54Z</time>
      </trkpt>
      <trkpt lat="45.07591" lon="4.81881">
        <ele>127.51</ele>
        <time>2013-09-27T07:37:58Z</time>
      </trkpt>
      <trkpt lat="45.07598" lon="4.8191">
        <ele>127.03</ele>
        <time>2013-09-27T07:38:02Z</time>
      </trkpt>
      <trkpt lat="45.07607" lon="4.81941">
        <ele>126.55</ele>
        <time>2013-09-27T07:38:06Z</time>
      </trkpt>
      <trkpt lat="45.07613" lon="4.81965">
        <ele>126.55</ele>
        <time>2013-09-27T07:38:09Z</time>
      </trkpt>
      <trkpt lat="45.07619" lon="4.81989">
        <ele>126.55</ele>
        <time>2013-09-27T07:38:12Z</time>
      </trkpt>
      <trkpt lat="45.07626" lon="4.82013">
        <ele>126.55</ele>
        <time>2013-09-27T07:38:15Z</time>
      </trkpt>
      <trkpt lat="45.07634" lon="4.82044">
        <ele>126.55</ele>
        <time>2013-09-27T07:38:19Z</time>
      </trkpt>
      <trkpt lat="45.07641" lon="4.82074">
        <ele>126.55</ele>
        <time>2013-09-27T07:38:23Z</time>
      </trkpt>
      <trkpt lat="45.0765" lon="4.82105">
        <ele>126.07</ele>
        <time>2013-09-27T07:38:27Z</time>
      </trkpt>
      <trkpt lat="45.07657" lon="4.82131">
        <ele>126.07</ele>
        <time>2013-09-27T07:38:31Z</time>
      </trkpt>
      <trkpt lat="45.07664" lon="4.82158">
        <ele>126.55</ele>
        <time>2013-09-27T07:38:37Z</time>
      </trkpt>
      <trkpt lat="45.07671" lon="4.82184">
        <ele>126.07</ele>
        <time>2013-09-27T07:38:49Z</time>
      </trkpt>
      <trkpt lat="45.07677" lon="4.82213">
        <ele>126.07</ele>
        <time>2013-09-27T07:38:57Z</time>
      </trkpt>
      <trkpt lat="45.0768" lon="4.82239">
        <ele>126.07</ele>
        <time>2013-09-27T07:39:03Z</time>
      </trkpt>
      <trkpt lat="45.0767" lon="4.82265">
        <ele>125.59</ele>
        <time>2013-09-27T07:39:10Z</time>
      </trkpt>
      <trkpt lat="45.07656" lon="4.82289">
        <ele>125.11</ele>
        <time>2013-09-27T07:39:15Z</time>
      </trkpt>
      <trkpt lat="45.07644" lon="4.82313">
        <ele>124.15</ele>
        <time>2013-09-27T07:39:20Z</time>
      </trkpt>
      <trkpt lat="45.07632" lon="4.82338">
        <ele>124.15</ele>
        <time>2013-09-27T07:39:25Z</time>
      </trkpt>
      <trkpt lat="45.0763" lon="4.82367">
        <ele>124.63</ele>
        <time>2013-09-27T07:39:31Z</time>
      </trkpt>
      <trkpt lat="45.07639" lon="4.82396">
        <ele>124.15</ele>
        <time>2013-09-27T07:39:38Z</time>
      </trkpt>
      <trkpt lat="45.07649" lon="4.82422">
        <ele>125.11</ele>
        <time>2013-09-27T07:39:45Z</time>
      </trkpt>
      <trkpt lat="45.07656" lon="4.82458">
        <ele>125.11</ele>
        <time>2013-09-27T07:39:51Z</time>
      </trkpt>
      <trkpt lat="45.07658" lon="4.82492">
        <ele>123.67</ele>
        <time>2013-09-27T07:39:57Z</time>
      </trkpt>
      <trkpt lat="45.07667" lon="4.82518">
        <ele>123.67</ele>
        <time>2013-09-27T07:40:02Z</time>
      </trkpt>
      <trkpt lat="45.07682" lon="4.82539">
        <ele>123.67</ele>
        <time>2013-09-27T07:40:06Z</time>
      </trkpt>
      <trkpt lat="45.07698" lon="4.82556">
        <ele>126.07</ele>
        <time>2013-09-27T07:40:10Z</time>
      </trkpt>
      <trkpt lat="45.07709" lon="4.82566">
        <ele>124.63</ele>
        <time>2013-09-27T07:40:15Z</time>
      </trkpt>
      <trkpt lat="45.07722" lon="4.82583">
        <ele>124.63</ele>
        <time>2013-09-27T07:40:21Z</time>
      </trkpt>
      <trkpt lat="45.07742" lon="4.82594">
        <ele>124.63</ele>
        <time>2013-09-27T07:40:27Z</time>
      </trkpt>
      <trkpt lat="45.07763" lon="4.82606">
        <ele>124.15</ele>
        <time>2013-09-27T07:40:32Z</time>
      </trkpt>
      <trkpt lat="45.07784" lon="4.82611">
        <ele>124.15</ele>
        <time>2013-09-27T07:40:36Z</time>
      </trkpt>
      <trkpt lat="45.07805" lon="4.82614">
        <ele>124.15</ele>
        <time>2013-09-27T07:40:40Z</time>
      </trkpt>
      <trkpt lat="45.07828" lon="4.82615">
        <ele>124.15</ele>
        <time>2013-09-27T07:40:44Z</time>
      </trkpt>
      <trkpt lat="45.07852" lon="4.82616">
        <ele>124.15</ele>
        <time>2013-09-27T07:40:48Z</time>
      </trkpt>
      <trkpt lat="45.07875" lon="4.82619">
        <ele>123.67</ele>
        <time>2013-09-27T07:40:52Z</time>
      </trkpt>
      <trkpt lat="45.07897" lon="4.82622">
        <ele>124.15</ele>
        <time>2013-09-27T07:40:56Z</time>
      </trkpt>
      <trkpt lat="45.07918" lon="4.82624">
        <ele>123.67</ele>
        <time>2013-09-27T07:41:00Z</time>
      </trkpt>
      <trkpt lat="45.07939" lon="4.82624">
        <ele>124.63</ele>
        <time>2013-09-27T07:41:04Z</time>
      </trkpt>
      <trkpt lat="45.07959" lon="4.82625">
        <ele>124.63</ele>
        <time>2013-09-27T07:41:08Z</time>
      </trkpt>
      <trkpt lat="45.07979" lon="4.82629">
        <ele>125.11</ele>
        <time>2013-09-27T07:41:12Z</time>
      </trkpt>
      <trkpt lat="45.08" lon="4.8263">
        <ele>124.15</ele>
        <time>2013-09-27T07:41:16Z</time>
      </trkpt>
      <trkpt lat="45.08018" lon="4.82624">
        <ele>125.11</ele>
        <time>2013-09-27T07:41:20Z</time>
      </trkpt>
      <trkpt lat="45.08038" lon="4.82629">
        <ele>124.63</ele>
        <time>2013-09-27T07:41:24Z</time>
      </trkpt>
      <trkpt lat="45.08054" lon="4.82642">
        <ele>124.63</ele>
        <time>2013-09-27T07:41:28Z</time>
      </trkpt>
      <trkpt lat="45.08069" lon="4.82662">
        <ele>124.63</ele>
        <time>2013-09-27T07:41:32Z</time>
      </trkpt>
      <trkpt lat="45.08087" lon="4.82674">
        <ele>124.15</ele>
        <time>2013-09-27T07:41:36Z</time>
      </trkpt>
      <trkpt lat="45.08106" lon="4.82682">
        <ele>124.15</ele>
        <time>2013-09-27T07:41:40Z</time>
      </trkpt>
      <trkpt lat="45.08123" lon="4.82689">
        <ele>124.15</ele>
        <time>2013-09-27T07:41:44Z</time>
      </trkpt>
      <trkpt lat="45.08142" lon="4.82695">
        <ele>124.63</ele>
        <time>2013-09-27T07:41:48Z</time>
      </trkpt>
      <trkpt lat="45.08162" lon="4.82704">
        <ele>124.15</ele>
        <time>2013-09-27T07:41:52Z</time>
      </trkpt>
      <trkpt lat="45.0818" lon="4.82716">
        <ele>124.63</ele>
        <time>2013-09-27T07:41:56Z</time>
      </trkpt>
      <trkpt lat="45.08198" lon="4.82729">
        <ele>124.15</ele>
        <time>2013-09-27T07:42:00Z</time>
      </trkpt>
      <trkpt lat="45.08217" lon="4.8274">
        <ele>124.15</ele>
        <time>2013-09-27T07:42:04Z</time>
      </trkpt>
      <trkpt lat="45.08235" lon="4.82752">
        <ele>124.15</ele>
        <time>2013-09-27T07:42:08Z</time>
      </trkpt>
      <trkpt lat="45.08255" lon="4.82763">
        <ele>124.15</ele>
        <time>2013-09-27T07:42:12Z</time>
      </trkpt>
      <trkpt lat="45.08276" lon="4.82774">
        <ele>124.63</ele>
        <time>2013-09-27T07:42:16Z</time>
      </trkpt>
      <trkpt lat="45.08295" lon="4.82786">
        <ele>124.63</ele>
        <time>2013-09-27T07:42:20Z</time>
      </trkpt>
      <trkpt lat="45.08313" lon="4.82798">
        <ele>124.63</ele>
        <time>2013-09-27T07:42:24Z</time>
      </trkpt>
      <trkpt lat="45.08332" lon="4.8281">
        <ele>125.11</ele>
        <time>2013-09-27T07:42:28Z</time>
      </trkpt>
      <trkpt lat="45.0835" lon="4.82822">
        <ele>124.63</ele>
        <time>2013-09-27T07:42:32Z</time>
      </trkpt>
      <trkpt lat="45.08369" lon="4.82834">
        <ele>125.11</ele>
        <time>2013-09-27T07:42:36Z</time>
      </trkpt>
      <trkpt lat="45.08388" lon="4.82845">
        <ele>124.63</ele>
        <time>2013-09-27T07:42:40Z</time>
      </trkpt>
      <trkpt lat="45.08407" lon="4.82854">
        <ele>124.15</ele>
        <time>2013-09-27T07:42:44Z</time>
      </trkpt>
      <trkpt lat="45.08425" lon="4.82867">
        <ele>124.15</ele>
        <time>2013-09-27T07:42:48Z</time>
      </trkpt>
      <trkpt lat="45.08442" lon="4.82881">
        <ele>124.15</ele>
        <time>2013-09-27T07:42:52Z</time>
      </trkpt>
      <trkpt lat="45.0846" lon="4.82896">
        <ele>124.15</ele>
        <time>2013-09-27T07:42:56Z</time>
      </trkpt>
      <trkpt lat="45.08478" lon="4.82911">
        <ele>124.15</ele>
        <time>2013-09-27T07:43:00Z</time>
      </trkpt>
      <trkpt lat="45.08495" lon="4.82928">
        <ele>124.63</ele>
        <time>2013-09-27T07:43:04Z</time>
      </trkpt>
      <trkpt lat="45.08513" lon="4.82943">
        <ele>124.15</ele>
        <time>2013-09-27T07:43:08Z</time>
      </trkpt>
      <trkpt lat="45.08532" lon="4.82956">
        <ele>123.67</ele>
        <time>2013-09-27T07:43:12Z</time>
      </trkpt>
      <trkpt lat="45.08553" lon="4.82968">
        <ele>124.15</ele>
        <time>2013-09-27T07:43:16Z</time>
      </trkpt>
      <trkpt lat="45.08573" lon="4.82979">
        <ele>124.63</ele>
        <time>2013-09-27T07:43:20Z</time>
      </trkpt>
      <trkpt lat="45.08594" lon="4.8299">
        <ele>125.11</ele>
        <time>2013-09-27T07:43:24Z</time>
      </trkpt>
      <trkpt lat="45.08614" lon="4.82998">
        <ele>124.63</ele>
        <time>2013-09-27T07:43:28Z</time>
      </trkpt>
      <trkpt lat="45.08634" lon="4.83007">
        <ele>125.11</ele>
        <time>2013-09-27T07:43:32Z</time>
      </trkpt>
      <trkpt lat="45.08654" lon="4.83016">
        <ele>124.63</ele>
        <time>2013-09-27T07:43:36Z</time>
      </trkpt>
      <trkpt lat="45.08677" lon="4.83024">
        <ele>124.63</ele>
        <time>2013-09-27T07:43:40Z</time>
      </trkpt>
      <trkpt lat="45.08699" lon="4.83033">
        <ele>124.63</ele>
        <time>2013-09-27T07:43:44Z</time>
      </trkpt>
      <trkpt lat="45.08722" lon="4.8304">
        <ele>124.63</ele>
        <time>2013-09-27T07:43:48Z</time>
      </trkpt>
      <trkpt lat="45.0874" lon="4.83044">
        <ele>124.15</ele>
        <time>2013-09-27T07:43:51Z</time>
      </trkpt>
      <trkpt lat="45.08762" lon="4.83048">
        <ele>124.63</ele>
        <time>2013-09-27T07:43:55Z</time>
      </trkpt>
      <trkpt lat="45.08786" lon="4.83051">
        <ele>124.15</ele>
        <time>2013-09-27T07:43:59Z</time>
      </trkpt>
      <trkpt lat="45.0881" lon="4.83052">
        <ele>124.63</ele>
        <time>2013-09-27T07:44:03Z</time>
      </trkpt>
      <trkpt lat="45.08833" lon="4.83053">
        <ele>124.63</ele>
        <time>2013-09-27T07:44:07Z</time>
      </trkpt>
      <trkpt lat="45.08852" lon="4.83051">
        <ele>124.15</ele>
        <time>2013-09-27T07:44:10Z</time>
      </trkpt>
      <trkpt lat="45.08875" lon="4.83048">
        <ele>124.63</ele>
        <time>2013-09-27T07:44:14Z</time>
      </trkpt>
      <trkpt lat="45.08898" lon="4.83043">
        <ele>124.63</ele>
        <time>2013-09-27T07:44:18Z</time>
      </trkpt>
      <trkpt lat="45.08917" lon="4.83039">
        <ele>124.63</ele>
        <time>2013-09-27T07:44:21Z</time>
      </trkpt>
      <trkpt lat="45.08935" lon="4.83036">
        <ele>124.63</ele>
        <time>2013-09-27T07:44:24Z</time>
      </trkpt>
      <trkpt lat="45.08958" lon="4.83036">
        <ele>125.11</ele>
        <time>2013-09-27T07:44:28Z</time>
      </trkpt>
      <trkpt lat="45.08981" lon="4.83031">
        <ele>125.11</ele>
        <time>2013-09-27T07:44:32Z</time>
      </trkpt>
      <trkpt lat="45.09005" lon="4.83022">
        <ele>124.15</ele>
        <time>2013-09-27T07:44:36Z</time>
      </trkpt>
      <trkpt lat="45.09022" lon="4.83014">
        <ele>124.15</ele>
        <time>2013-09-27T07:44:39Z</time>
      </trkpt>
      <trkpt lat="45.0904" lon="4.83007">
        <ele>124.63</ele>
        <time>2013-09-27T07:44:42Z</time>
      </trkpt>
      <trkpt lat="45.09063" lon="4.82999">
        <ele>124.15</ele>
        <time>2013-09-27T07:44:46Z</time>
      </trkpt>
      <trkpt lat="45.09087" lon="4.82992">
        <ele>124.15</ele>
        <time>2013-09-27T07:44:50Z</time>
      </trkpt>
      <trkpt lat="45.09105" lon="4.82987">
        <ele>124.15</ele>
        <time>2013-09-27T07:44:53Z</time>
      </trkpt>
      <trkpt lat="45.09123" lon="4.82982">
        <ele>124.63</ele>
        <time>2013-09-27T07:44:56Z</time>
      </trkpt>
      <trkpt lat="45.0914" lon="4.82976">
        <ele>124.63</ele>
        <time>2013-09-27T07:44:59Z</time>
      </trkpt>
      <trkpt lat="45.09163" lon="4.82967">
        <ele>124.63</ele>
        <time>2013-09-27T07:45:03Z</time>
      </trkpt>
      <trkpt lat="45.09186" lon="4.82956">
        <ele>124.15</ele>
        <time>2013-09-27T07:45:07Z</time>
      </trkpt>
      <trkpt lat="45.09208" lon="4.82941">
        <ele>125.59</ele>
        <time>2013-09-27T07:45:11Z</time>
      </trkpt>
      <trkpt lat="45.09224" lon="4.82929">
        <ele>125.11</ele>
        <time>2013-09-27T07:45:14Z</time>
      </trkpt>
      <trkpt lat="45.09242" lon="4.82921">
        <ele>125.59</ele>
        <time>2013-09-27T07:45:17Z</time>
      </trkpt>
      <trkpt lat="45.09259" lon="4.82913">
        <ele>125.11</ele>
        <time>2013-09-27T07:45:20Z</time>
      </trkpt>
      <trkpt lat="45.09278" lon="4.82906">
        <ele>126.07</ele>
        <time>2013-09-27T07:45:23Z</time>
      </trkpt>
      <trkpt lat="45.09295" lon="4.82898">
        <ele>125.59</ele>
        <time>2013-09-27T07:45:26Z</time>
      </trkpt>
      <trkpt lat="45.09314" lon="4.82891">
        <ele>125.59</ele>
        <time>2013-09-27T07:45:29Z</time>
      </trkpt>
      <trkpt lat="45.09337" lon="4.82884">
        <ele>125.59</ele>
        <time>2013-09-27T07:45:33Z</time>
      </trkpt>
      <trkpt lat="45.09354" lon="4.82877">
        <ele>125.11</ele>
        <time>2013-09-27T07:45:36Z</time>
      </trkpt>
      <trkpt lat="45.09372" lon="4.82872">
        <ele>125.11</ele>
        <time>2013-09-27T07:45:39Z</time>
      </trkpt>
      <trkpt lat="45.0939" lon="4.82866">
        <ele>125.11</ele>
        <time>2013-09-27T07:45:42Z</time>
      </trkpt>
      <trkpt lat="45.09413" lon="4.82861">
        <ele>126.07</ele>
        <time>2013-09-27T07:45:46Z</time>
      </trkpt>
      <trkpt lat="45.09436" lon="4.82857">
        <ele>125.59</ele>
        <time>2013-09-27T07:45:50Z</time>
      </trkpt>
      <trkpt lat="45.09455" lon="4.82851">
        <ele>125.59</ele>
        <time>2013-09-27T07:45:53Z</time>
      </trkpt>
      <trkpt lat="45.09472" lon="4.82843">
        <ele>125.11</ele>
        <time>2013-09-27T07:45:56Z</time>
      </trkpt>
      <trkpt lat="45.09489" lon="4.82832">
        <ele>125.11</ele>
        <time>2013-09-27T07:45:59Z</time>
      </trkpt>
      <trkpt lat="45.09509" lon="4.82813">
        <ele>126.07</ele>
        <time>2013-09-27T07:46:03Z</time>
      </trkpt>
      <trkpt lat="45.09527" lon="4.82793">
        <ele>125.59</ele>
        <time>2013-09-27T07:46:07Z</time>
      </trkpt>
      <trkpt lat="45.09546" lon="4.82774">
        <ele>126.07</ele>
        <time>2013-09-27T07:46:11Z</time>
      </trkpt>
      <trkpt lat="45.09565" lon="4.82757">
        <ele>126.55</ele>
        <time>2013-09-27T07:46:15Z</time>
      </trkpt>
      <trkpt lat="45.09584" lon="4.8274">
        <ele>126.07</ele>
        <time>2013-09-27T07:46:19Z</time>
      </trkpt>
      <trkpt lat="45.09601" lon="4.82715">
        <ele>126.55</ele>
        <time>2013-09-27T07:46:23Z</time>
      </trkpt>
      <trkpt lat="45.09615" lon="4.82687">
        <ele>127.03</ele>
        <time>2013-09-27T07:46:27Z</time>
      </trkpt>
      <trkpt lat="45.09627" lon="4.8266">
        <ele>127.03</ele>
        <time>2013-09-27T07:46:31Z</time>
      </trkpt>
      <trkpt lat="45.09636" lon="4.82636">
        <ele>126.55</ele>
        <time>2013-09-27T07:46:35Z</time>
      </trkpt>
      <trkpt lat="45.09644" lon="4.82605">
        <ele>125.59</ele>
        <time>2013-09-27T07:46:40Z</time>
      </trkpt>
      <trkpt lat="45.0966" lon="4.82585">
        <ele>124.15</ele>
        <time>2013-09-27T07:46:44Z</time>
      </trkpt>
      <trkpt lat="45.0968" lon="4.82575">
        <ele>125.11</ele>
        <time>2013-09-27T07:46:48Z</time>
      </trkpt>
      <trkpt lat="45.097" lon="4.82565">
        <ele>126.55</ele>
        <time>2013-09-27T07:46:53Z</time>
      </trkpt>
      <trkpt lat="45.09718" lon="4.82554">
        <ele>127.03</ele>
        <time>2013-09-27T07:46:57Z</time>
      </trkpt>
      <trkpt lat="45.09738" lon="4.82542">
        <ele>126.55</ele>
        <time>2013-09-27T07:47:01Z</time>
      </trkpt>
      <trkpt lat="45.09761" lon="4.82531">
        <ele>126.07</ele>
        <time>2013-09-27T07:47:05Z</time>
      </trkpt>
      <trkpt lat="45.09783" lon="4.8252">
        <ele>126.55</ele>
        <time>2013-09-27T07:47:09Z</time>
      </trkpt>
      <trkpt lat="45.09806" lon="4.8251">
        <ele>126.55</ele>
        <time>2013-09-27T07:47:13Z</time>
      </trkpt>
      <trkpt lat="45.09829" lon="4.825">
        <ele>127.03</ele>
        <time>2013-09-27T07:47:17Z</time>
      </trkpt>
      <trkpt lat="45.09852" lon="4.8249">
        <ele>127.03</ele>
        <time>2013-09-27T07:47:21Z</time>
      </trkpt>
      <trkpt lat="45.09874" lon="4.82479">
        <ele>127.03</ele>
        <time>2013-09-27T07:47:25Z</time>
      </trkpt>
      <trkpt lat="45.09897" lon="4.82469">
        <ele>126.55</ele>
        <time>2013-09-27T07:47:29Z</time>
      </trkpt>
      <trkpt lat="45.09921" lon="4.82461">
        <ele>126.55</ele>
        <time>2013-09-27T07:47:33Z</time>
      </trkpt>
      <trkpt lat="45.09944" lon="4.82452">
        <ele>127.03</ele>
        <time>2013-09-27T07:47:37Z</time>
      </trkpt>
      <trkpt lat="45.09968" lon="4.82444">
        <ele>126.55</ele>
        <time>2013-09-27T07:47:41Z</time>
      </trkpt>
      <trkpt lat="45.09991" lon="4.82433">
        <ele>127.03</ele>
        <time>2013-09-27T07:47:45Z</time>
      </trkpt>
      <trkpt lat="45.10013" lon="4.82422">
        <ele>126.55</ele>
        <time>2013-09-27T07:47:49Z</time>
      </trkpt>
      <trkpt lat="45.10036" lon="4.82415">
        <ele>127.51</ele>
        <time>2013-09-27T07:47:53Z</time>
      </trkpt>
      <trkpt lat="45.10054" lon="4.82406">
        <ele>127.03</ele>
        <time>2013-09-27T07:47:56Z</time>
      </trkpt>
      <trkpt lat="45.10072" lon="4.82397">
        <ele>126.55</ele>
        <time>2013-09-27T07:47:59Z</time>
      </trkpt>
      <trkpt lat="45.1009" lon="4.82386">
        <ele>126.07</ele>
        <time>2013-09-27T07:48:02Z</time>
      </trkpt>
      <trkpt lat="45.10107" lon="4.82375">
        <ele>126.55</ele>
        <time>2013-09-27T07:48:05Z</time>
      </trkpt>
      <trkpt lat="45.10123" lon="4.82361">
        <ele>126.07</ele>
        <time>2013-09-27T07:48:08Z</time>
      </trkpt>
      <trkpt lat="45.10139" lon="4.82348">
        <ele>126.55</ele>
        <time>2013-09-27T07:48:11Z</time>
      </trkpt>
      <trkpt lat="45.10155" lon="4.82337">
        <ele>126.07</ele>
        <time>2013-09-27T07:48:14Z</time>
      </trkpt>
      <trkpt lat="45.10173" lon="4.82329">
        <ele>126.55</ele>
        <time>2013-09-27T07:48:17Z</time>
      </trkpt>
      <trkpt lat="45.10192" lon="4.8232">
        <ele>126.55</ele>
        <time>2013-09-27T07:48:20Z</time>
      </trkpt>
      <trkpt lat="45.1021" lon="4.82313">
        <ele>126.07</ele>
        <time>2013-09-27T07:48:23Z</time>
      </trkpt>
      <trkpt lat="45.10232" lon="4.82305">
        <ele>126.55</ele>
        <time>2013-09-27T07:48:27Z</time>
      </trkpt>
      <trkpt lat="45.10249" lon="4.82293">
        <ele>126.55</ele>
        <time>2013-09-27T07:48:31Z</time>
      </trkpt>
      <trkpt lat="45.10258" lon="4.82266">
        <ele>126.55</ele>
        <time>2013-09-27T07:48:35Z</time>
      </trkpt>
      <trkpt lat="45.10269" lon="4.82239">
        <ele>126.07</ele>
        <time>2013-09-27T07:48:39Z</time>
      </trkpt>
      <trkpt lat="45.10286" lon="4.82215">
        <ele>126.07</ele>
        <time>2013-09-27T07:48:43Z</time>
      </trkpt>
      <trkpt lat="45.10305" lon="4.82193">
        <ele>125.59</ele>
        <time>2013-09-27T07:48:47Z</time>
      </trkpt>
      <trkpt lat="45.10323" lon="4.82174">
        <ele>126.07</ele>
        <time>2013-09-27T07:48:51Z</time>
      </trkpt>
      <trkpt lat="45.1034" lon="4.82153">
        <ele>125.59</ele>
        <time>2013-09-27T07:48:55Z</time>
      </trkpt>
      <trkpt lat="45.1035" lon="4.8213">
        <ele>126.07</ele>
        <time>2013-09-27T07:48:59Z</time>
      </trkpt>
      <trkpt lat="45.10359" lon="4.82105">
        <ele>127.03</ele>
        <time>2013-09-27T07:49:05Z</time>
      </trkpt>
      <trkpt lat="45.10375" lon="4.82084">
        <ele>126.55</ele>
        <time>2013-09-27T07:49:10Z</time>
      </trkpt>
      <trkpt lat="45.10394" lon="4.82064">
        <ele>126.55</ele>
        <time>2013-09-27T07:49:15Z</time>
      </trkpt>
      <trkpt lat="45.10409" lon="4.82046">
        <ele>126.55</ele>
        <time>2013-09-27T07:49:19Z</time>
      </trkpt>
      <trkpt lat="45.10427" lon="4.82027">
        <ele>127.03</ele>
        <time>2013-09-27T07:49:23Z</time>
      </trkpt>
      <trkpt lat="45.10446" lon="4.82009">
        <ele>126.07</ele>
        <time>2013-09-27T07:49:27Z</time>
      </trkpt>
      <trkpt lat="45.10466" lon="4.81994">
        <ele>126.55</ele>
        <time>2013-09-27T07:49:31Z</time>
      </trkpt>
      <trkpt lat="45.10485" lon="4.81977">
        <ele>126.55</ele>
        <time>2013-09-27T07:49:35Z</time>
      </trkpt>
      <trkpt lat="45.10504" lon="4.81959">
        <ele>127.03</ele>
        <time>2013-09-27T07:49:39Z</time>
      </trkpt>
      <trkpt lat="45.10523" lon="4.81941">
        <ele>126.55</ele>
        <time>2013-09-27T07:49:43Z</time>
      </trkpt>
      <trkpt lat="45.10542" lon="4.81921">
        <ele>126.55</ele>
        <time>2013-09-27T07:49:47Z</time>
      </trkpt>
      <trkpt lat="45.10561" lon="4.819">
        <ele>126.07</ele>
        <time>2013-09-27T07:49:51Z</time>
      </trkpt>
      <trkpt lat="45.10579" lon="4.81877">
        <ele>126.55</ele>
        <time>2013-09-27T07:49:55Z</time>
      </trkpt>
      <trkpt lat="45.10597" lon="4.81855">
        <ele>126.07</ele>
        <time>2013-09-27T07:49:59Z</time>
      </trkpt>
      <trkpt lat="45.10615" lon="4.81835">
        <ele>126.55</ele>
        <time>2013-09-27T07:50:03Z</time>
      </trkpt>
      <trkpt lat="45.10635" lon="4.81814">
        <ele>126.55</ele>
        <time>2013-09-27T07:50:07Z</time>
      </trkpt>
      <trkpt lat="45.10654" lon="4.81795">
        <ele>126.55</ele>
        <time>2013-09-27T07:50:11Z</time>
      </trkpt>
      <trkpt lat="45.10674" lon="4.81777">
        <ele>126.55</ele>
        <time>2013-09-27T07:50:15Z</time>
      </trkpt>
      <trkpt lat="45.10694" lon="4.81759">
        <ele>126.55</ele>
        <time>2013-09-27T07:50:19Z</time>
      </trkpt>
      <trkpt lat="45.10709" lon="4.81744">
        <ele>126.55</ele>
        <time>2013-09-27T07:50:22Z</time>
      </trkpt>
      <trkpt lat="45.10723" lon="4.81728">
        <ele>126.55</ele>
        <time>2013-09-27T07:50:25Z</time>
      </trkpt>
      <trkpt lat="45.10738" lon="4.81712">
        <ele>127.03</ele>
        <time>2013-09-27T07:50:28Z</time>
      </trkpt>
      <trkpt lat="45.10753" lon="4.81695">
        <ele>127.03</ele>
        <time>2013-09-27T07:50:31Z</time>
      </trkpt>
      <trkpt lat="45.10768" lon="4.81678">
        <ele>126.55</ele>
        <time>2013-09-27T07:50:34Z</time>
      </trkpt>
      <trkpt lat="45.10782" lon="4.81658">
        <ele>126.55</ele>
        <time>2013-09-27T07:50:37Z</time>
      </trkpt>
      <trkpt lat="45.10794" lon="4.81637">
        <ele>126.55</ele>
        <time>2013-09-27T07:50:40Z</time>
      </trkpt>
      <trkpt lat="45.10805" lon="4.81615">
        <ele>127.03</ele>
        <time>2013-09-27T07:50:43Z</time>
      </trkpt>
      <trkpt lat="45.10815" lon="4.81593">
        <ele>126.55</ele>
        <time>2013-09-27T07:50:46Z</time>
      </trkpt>
      <trkpt lat="45.10826" lon="4.8157">
        <ele>126.55</ele>
        <time>2013-09-27T07:50:49Z</time>
      </trkpt>
      <trkpt lat="45.10838" lon="4.81548">
        <ele>126.55</ele>
        <time>2013-09-27T07:50:52Z</time>
      </trkpt>
      <trkpt lat="45.10849" lon="4.81526">
        <ele>126.55</ele>
        <time>2013-09-27T07:50:55Z</time>
      </trkpt>
      <trkpt lat="45.10861" lon="4.81504">
        <ele>126.55</ele>
        <time>2013-09-27T07:50:58Z</time>
      </trkpt>
      <trkpt lat="45.10873" lon="4.81482">
        <ele>127.03</ele>
        <time>2013-09-27T07:51:01Z</time>
      </trkpt>
      <trkpt lat="45.10885" lon="4.8146">
        <ele>126.55</ele>
        <time>2013-09-27T07:51:04Z</time>
      </trkpt>
      <trkpt lat="45.10896" lon="4.81438">
        <ele>127.03</ele>
        <time>2013-09-27T07:51:07Z</time>
      </trkpt>
      <trkpt lat="45.10907" lon="4.81416">
        <ele>126.55</ele>
        <time>2013-09-27T07:51:10Z</time>
      </trkpt>
      <trkpt lat="45.10917" lon="4.81394">
        <ele>126.55</ele>
        <time>2013-09-27T07:51:13Z</time>
      </trkpt>
      <trkpt lat="45.10927" lon="4.81371">
        <ele>126.55</ele>
        <time>2013-09-27T07:51:16Z</time>
      </trkpt>
      <trkpt lat="45.10938" lon="4.81348">
        <ele>127.03</ele>
        <time>2013-09-27T07:51:19Z</time>
      </trkpt>
      <trkpt lat="45.10949" lon="4.81328">
        <ele>127.03</ele>
        <time>2013-09-27T07:51:22Z</time>
      </trkpt>
      <trkpt lat="45.10962" lon="4.8131">
        <ele>126.55</ele>
        <time>2013-09-27T07:51:25Z</time>
      </trkpt>
      <trkpt lat="45.10977" lon="4.81295">
        <ele>127.03</ele>
        <time>2013-09-27T07:51:28Z</time>
      </trkpt>
      <trkpt lat="45.10992" lon="4.8128">
        <ele>127.03</ele>
        <time>2013-09-27T07:51:31Z</time>
      </trkpt>
      <trkpt lat="45.11008" lon="4.81267">
        <ele>127.03</ele>
        <time>2013-09-27T07:51:34Z</time>
      </trkpt>
      <trkpt lat="45.11025" lon="4.81256">
        <ele>127.03</ele>
        <time>2013-09-27T07:51:37Z</time>
      </trkpt>
      <trkpt lat="45.11043" lon="4.81248">
        <ele>126.55</ele>
        <time>2013-09-27T07:51:40Z</time>
      </trkpt>
      <trkpt lat="45.11061" lon="4.81243">
        <ele>126.55</ele>
        <time>2013-09-27T07:51:43Z</time>
      </trkpt>
      <trkpt lat="45.1108" lon="4.8124">
        <ele>127.03</ele>
        <time>2013-09-27T07:51:46Z</time>
      </trkpt>
      <trkpt lat="45.11099" lon="4.81237">
        <ele>127.03</ele>
        <time>2013-09-27T07:51:49Z</time>
      </trkpt>
      <trkpt lat="45.11117" lon="4.81233">
        <ele>127.03</ele>
        <time>2013-09-27T07:51:52Z</time>
      </trkpt>
      <trkpt lat="45.11135" lon="4.8123">
        <ele>127.03</ele>
        <time>2013-09-27T07:51:55Z</time>
      </trkpt>
      <trkpt lat="45.11153" lon="4.81225">
        <ele>126.55</ele>
        <time>2013-09-27T07:51:58Z</time>
      </trkpt>
      <trkpt lat="45.11168" lon="4.81212">
        <ele>126.55</ele>
        <time>2013-09-27T07:52:01Z</time>
      </trkpt>
      <trkpt lat="45.11181" lon="4.81185">
        <ele>127.03</ele>
        <time>2013-09-27T07:52:05Z</time>
      </trkpt>
      <trkpt lat="45.11194" lon="4.81157">
        <ele>127.51</ele>
        <time>2013-09-27T07:52:09Z</time>
      </trkpt>
      <trkpt lat="45.11209" lon="4.81132">
        <ele>127.51</ele>
        <time>2013-09-27T07:52:13Z</time>
      </trkpt>
      <trkpt lat="45.11223" lon="4.81114">
        <ele>127.03</ele>
        <time>2013-09-27T07:52:16Z</time>
      </trkpt>
      <trkpt lat="45.11238" lon="4.81098">
        <ele>127.03</ele>
        <time>2013-09-27T07:52:19Z</time>
      </trkpt>
      <trkpt lat="45.11255" lon="4.81085">
        <ele>126.55</ele>
        <time>2013-09-27T07:52:22Z</time>
      </trkpt>
      <trkpt lat="45.11273" lon="4.81074">
        <ele>126.55</ele>
        <time>2013-09-27T07:52:25Z</time>
      </trkpt>
      <trkpt lat="45.11291" lon="4.81064">
        <ele>126.55</ele>
        <time>2013-09-27T07:52:28Z</time>
      </trkpt>
      <trkpt lat="45.11309" lon="4.81055">
        <ele>126.55</ele>
        <time>2013-09-27T07:52:31Z</time>
      </trkpt>
      <trkpt lat="45.11327" lon="4.81047">
        <ele>126.55</ele>
        <time>2013-09-27T07:52:34Z</time>
      </trkpt>
      <trkpt lat="45.11344" lon="4.81038">
        <ele>126.07</ele>
        <time>2013-09-27T07:52:37Z</time>
      </trkpt>
      <trkpt lat="45.11357" lon="4.81021">
        <ele>126.55</ele>
        <time>2013-09-27T07:52:40Z</time>
      </trkpt>
      <trkpt lat="45.11374" lon="4.80997">
        <ele>126.55</ele>
        <time>2013-09-27T07:52:44Z</time>
      </trkpt>
      <trkpt lat="45.11393" lon="4.80977">
        <ele>126.55</ele>
        <time>2013-09-27T07:52:48Z</time>
      </trkpt>
      <trkpt lat="45.11409" lon="4.80964">
        <ele>126.55</ele>
        <time>2013-09-27T07:52:51Z</time>
      </trkpt>
      <trkpt lat="45.11425" lon="4.80949">
        <ele>126.07</ele>
        <time>2013-09-27T07:52:54Z</time>
      </trkpt>
      <trkpt lat="45.11441" lon="4.80936">
        <ele>126.55</ele>
        <time>2013-09-27T07:52:57Z</time>
      </trkpt>
      <trkpt lat="45.11457" lon="4.80923">
        <ele>126.55</ele>
        <time>2013-09-27T07:53:00Z</time>
      </trkpt>
      <trkpt lat="45.11473" lon="4.80909">
        <ele>126.55</ele>
        <time>2013-09-27T07:53:03Z</time>
      </trkpt>
      <trkpt lat="45.11489" lon="4.80894">
        <ele>126.07</ele>
        <time>2013-09-27T07:53:06Z</time>
      </trkpt>
      <trkpt lat="45.11505" lon="4.80881">
        <ele>126.55</ele>
        <time>2013-09-27T07:53:09Z</time>
      </trkpt>
      <trkpt lat="45.11521" lon="4.80869">
        <ele>126.55</ele>
        <time>2013-09-27T07:53:12Z</time>
      </trkpt>
      <trkpt lat="45.11537" lon="4.80856">
        <ele>127.03</ele>
        <time>2013-09-27T07:53:15Z</time>
      </trkpt>
      <trkpt lat="45.11553" lon="4.80842">
        <ele>126.55</ele>
        <time>2013-09-27T07:53:18Z</time>
      </trkpt>
      <trkpt lat="45.11569" lon="4.80826">
        <ele>126.55</ele>
        <time>2013-09-27T07:53:21Z</time>
      </trkpt>
      <trkpt lat="45.11584" lon="4.80809">
        <ele>126.55</ele>
        <time>2013-09-27T07:53:24Z</time>
      </trkpt>
      <trkpt lat="45.11599" lon="4.80793">
        <ele>127.03</ele>
        <time>2013-09-27T07:53:27Z</time>
      </trkpt>
      <trkpt lat="45.11615" lon="4.8078">
        <ele>126.55</ele>
        <time>2013-09-27T07:53:30Z</time>
      </trkpt>
      <trkpt lat="45.11636" lon="4.80764">
        <ele>126.55</ele>
        <time>2013-09-27T07:53:34Z</time>
      </trkpt>
      <trkpt lat="45.11652" lon="4.80752">
        <ele>126.07</ele>
        <time>2013-09-27T07:53:37Z</time>
      </trkpt>
      <trkpt lat="45.11669" lon="4.80739">
        <ele>126.55</ele>
        <time>2013-09-27T07:53:40Z</time>
      </trkpt>
      <trkpt lat="45.11685" lon="4.80726">
        <ele>126.55</ele>
        <time>2013-09-27T07:53:43Z</time>
      </trkpt>
      <trkpt lat="45.117" lon="4.80714">
        <ele>126.55</ele>
        <time>2013-09-27T07:53:46Z</time>
      </trkpt>
      <trkpt lat="45.11722" lon="4.80699">
        <ele>126.07</ele>
        <time>2013-09-27T07:53:50Z</time>
      </trkpt>
      <trkpt lat="45.11743" lon="4.80683">
        <ele>126.07</ele>
        <time>2013-09-27T07:53:54Z</time>
      </trkpt>
      <trkpt lat="45.1176" lon="4.80673">
        <ele>126.55</ele>
        <time>2013-09-27T07:53:57Z</time>
      </trkpt>
      <trkpt lat="45.11781" lon="4.8066">
        <ele>126.55</ele>
        <time>2013-09-27T07:54:01Z</time>
      </trkpt>
      <trkpt lat="45.11803" lon="4.80645">
        <ele>126.55</ele>
        <time>2013-09-27T07:54:05Z</time>
      </trkpt>
      <trkpt lat="45.1182" lon="4.80632">
        <ele>126.55</ele>
        <time>2013-09-27T07:54:08Z</time>
      </trkpt>
      <trkpt lat="45.11836" lon="4.80617">
        <ele>125.59</ele>
        <time>2013-09-27T07:54:11Z</time>
      </trkpt>
      <trkpt lat="45.11851" lon="4.80602">
        <ele>126.07</ele>
        <time>2013-09-27T07:54:14Z</time>
      </trkpt>
      <trkpt lat="45.11867" lon="4.80588">
        <ele>126.07</ele>
        <time>2013-09-27T07:54:17Z</time>
      </trkpt>
      <trkpt lat="45.11883" lon="4.80574">
        <ele>126.07</ele>
        <time>2013-09-27T07:54:20Z</time>
      </trkpt>
      <trkpt lat="45.11898" lon="4.80559">
        <ele>125.59</ele>
        <time>2013-09-27T07:54:23Z</time>
      </trkpt>
      <trkpt lat="45.11914" lon="4.80544">
        <ele>125.59</ele>
        <time>2013-09-27T07:54:26Z</time>
      </trkpt>
      <trkpt lat="45.11928" lon="4.80528">
        <ele>125.59</ele>
        <time>2013-09-27T07:54:29Z</time>
      </trkpt>
      <trkpt lat="45.11946" lon="4.80506">
        <ele>125.59</ele>
        <time>2013-09-27T07:54:33Z</time>
      </trkpt>
      <trkpt lat="45.11963" lon="4.80486">
        <ele>126.07</ele>
        <time>2013-09-27T07:54:37Z</time>
      </trkpt>
      <trkpt lat="45.1198" lon="4.80466">
        <ele>126.07</ele>
        <time>2013-09-27T07:54:41Z</time>
      </trkpt>
      <trkpt lat="45.11995" lon="4.80444">
        <ele>126.55</ele>
        <time>2013-09-27T07:54:45Z</time>
      </trkpt>
      <trkpt lat="45.12009" lon="4.80419">
        <ele>126.07</ele>
        <time>2013-09-27T07:54:49Z</time>
      </trkpt>
      <trkpt lat="45.12026" lon="4.80396">
        <ele>125.59</ele>
        <time>2013-09-27T07:54:53Z</time>
      </trkpt>
      <trkpt lat="45.12042" lon="4.80371">
        <ele>126.07</ele>
        <time>2013-09-27T07:54:57Z</time>
      </trkpt>
      <trkpt lat="45.1205" lon="4.8034">
        <ele>126.07</ele>
        <time>2013-09-27T07:55:01Z</time>
      </trkpt>
      <trkpt lat="45.12054" lon="4.80306">
        <ele>126.55</ele>
        <time>2013-09-27T07:55:05Z</time>
      </trkpt>
      <trkpt lat="45.12059" lon="4.80275">
        <ele>127.03</ele>
        <time>2013-09-27T07:55:09Z</time>
      </trkpt>
      <trkpt lat="45.12065" lon="4.80246">
        <ele>127.51</ele>
        <time>2013-09-27T07:55:13Z</time>
      </trkpt>
      <trkpt lat="45.12072" lon="4.80218">
        <ele>127.99</ele>
        <time>2013-09-27T07:55:17Z</time>
      </trkpt>
      <trkpt lat="45.12077" lon="4.80192">
        <ele>128.95</ele>
        <time>2013-09-27T07:55:21Z</time>
      </trkpt>
      <trkpt lat="45.12085" lon="4.80163">
        <ele>130.4</ele>
        <time>2013-09-27T07:55:26Z</time>
      </trkpt>
      <trkpt lat="45.1209" lon="4.80135">
        <ele>130.88</ele>
        <time>2013-09-27T07:55:32Z</time>
      </trkpt>
      <trkpt lat="45.12094" lon="4.80118">
        <ele>131.36</ele>
        <time>2013-09-27T07:56:42Z</time>
      </trkpt>
      <trkpt lat="45.12093" lon="4.80119">
        <ele>132.32</ele>
        <time>2013-09-27T08:02:05Z</time>
      </trkpt>
      <trkpt lat="45.12104" lon="4.80102">
        <ele>132.8</ele>
        <time>2013-09-27T08:03:28Z</time>
      </trkpt>
      <trkpt lat="45.12125" lon="4.80096">
        <ele>132.8</ele>
        <time>2013-09-27T08:03:34Z</time>
      </trkpt>
      <trkpt lat="45.12145" lon="4.80091">
        <ele>133.76</ele>
        <time>2013-09-27T08:03:39Z</time>
      </trkpt>
      <trkpt lat="45.12163" lon="4.80087">
        <ele>133.28</ele>
        <time>2013-09-27T08:03:43Z</time>
      </trkpt>
      <trkpt lat="45.12184" lon="4.80083">
        <ele>133.28</ele>
        <time>2013-09-27T08:03:47Z</time>
      </trkpt>
      <trkpt lat="45.12208" lon="4.8008">
        <ele>133.28</ele>
        <time>2013-09-27T08:03:51Z</time>
      </trkpt>
      <trkpt lat="45.12227" lon="4.80076">
        <ele>133.76</ele>
        <time>2013-09-27T08:03:54Z</time>
      </trkpt>
      <trkpt lat="45.12251" lon="4.80072">
        <ele>133.76</ele>
        <time>2013-09-27T08:03:58Z</time>
      </trkpt>
      <trkpt lat="45.12273" lon="4.80069">
        <ele>133.28</ele>
        <time>2013-09-27T08:04:02Z</time>
      </trkpt>
      <trkpt lat="45.12292" lon="4.80067">
        <ele>133.28</ele>
        <time>2013-09-27T08:04:17Z</time>
      </trkpt>
      <trkpt lat="45.12314" lon="4.80063">
        <ele>133.28</ele>
        <time>2013-09-27T08:04:22Z</time>
      </trkpt>
      <trkpt lat="45.12336" lon="4.8006">
        <ele>133.76</ele>
        <time>2013-09-27T08:04:26Z</time>
      </trkpt>
      <trkpt lat="45.12355" lon="4.8006">
        <ele>133.76</ele>
        <time>2013-09-27T08:04:29Z</time>
      </trkpt>
      <trkpt lat="45.12374" lon="4.80061">
        <ele>133.28</ele>
        <time>2013-09-27T08:04:32Z</time>
      </trkpt>
      <trkpt lat="45.12394" lon="4.80065">
        <ele>133.28</ele>
        <time>2013-09-27T08:04:35Z</time>
      </trkpt>
      <trkpt lat="45.12414" lon="4.80069">
        <ele>133.28</ele>
        <time>2013-09-27T08:04:38Z</time>
      </trkpt>
      <trkpt lat="45.12434" lon="4.80074">
        <ele>133.76</ele>
        <time>2013-09-27T08:04:41Z</time>
      </trkpt>
      <trkpt lat="45.12453" lon="4.8008">
        <ele>133.28</ele>
        <time>2013-09-27T08:04:44Z</time>
      </trkpt>
      <trkpt lat="45.12473" lon="4.80085">
        <ele>133.28</ele>
        <time>2013-09-27T08:04:47Z</time>
      </trkpt>
      <trkpt lat="45.12492" lon="4.8009">
        <ele>133.28</ele>
        <time>2013-09-27T08:04:50Z</time>
      </trkpt>
      <trkpt lat="45.12512" lon="4.80094">
        <ele>132.8</ele>
        <time>2013-09-27T08:04:53Z</time>
      </trkpt>
      <trkpt lat="45.12533" lon="4.80097">
        <ele>133.28</ele>
        <time>2013-09-27T08:04:56Z</time>
      </trkpt>
      <trkpt lat="45.12553" lon="4.80101">
        <ele>133.76</ele>
        <time>2013-09-27T08:04:59Z</time>
      </trkpt>
      <trkpt lat="45.12573" lon="4.80104">
        <ele>134.72</ele>
        <time>2013-09-27T08:05:02Z</time>
      </trkpt>
      <trkpt lat="45.12593" lon="4.80107">
        <ele>135.68</ele>
        <time>2013-09-27T08:05:05Z</time>
      </trkpt>
      <trkpt lat="45.12613" lon="4.80111">
        <ele>136.16</ele>
        <time>2013-09-27T08:05:08Z</time>
      </trkpt>
      <trkpt lat="45.12633" lon="4.80115">
        <ele>136.64</ele>
        <time>2013-09-27T08:05:11Z</time>
      </trkpt>
      <trkpt lat="45.12652" lon="4.80118">
        <ele>137.13</ele>
        <time>2013-09-27T08:05:14Z</time>
      </trkpt>
      <trkpt lat="45.12671" lon="4.80121">
        <ele>137.13</ele>
        <time>2013-09-27T08:05:17Z</time>
      </trkpt>
      <trkpt lat="45.12692" lon="4.80125">
        <ele>137.61</ele>
        <time>2013-09-27T08:05:20Z</time>
      </trkpt>
      <trkpt lat="45.12714" lon="4.8013">
        <ele>137.13</ele>
        <time>2013-09-27T08:05:23Z</time>
      </trkpt>
      <trkpt lat="45.12737" lon="4.80135">
        <ele>136.16</ele>
        <time>2013-09-27T08:05:26Z</time>
      </trkpt>
      <trkpt lat="45.12759" lon="4.80138">
        <ele>135.68</ele>
        <time>2013-09-27T08:05:29Z</time>
      </trkpt>
      <trkpt lat="45.12781" lon="4.80138">
        <ele>136.16</ele>
        <time>2013-09-27T08:05:32Z</time>
      </trkpt>
      <trkpt lat="45.12804" lon="4.80137">
        <ele>135.68</ele>
        <time>2013-09-27T08:05:35Z</time>
      </trkpt>
      <trkpt lat="45.12825" lon="4.80136">
        <ele>136.16</ele>
        <time>2013-09-27T08:05:38Z</time>
      </trkpt>
      <trkpt lat="45.12846" lon="4.80136">
        <ele>136.64</ele>
        <time>2013-09-27T08:05:41Z</time>
      </trkpt>
      <trkpt lat="45.12867" lon="4.8014">
        <ele>136.64</ele>
        <time>2013-09-27T08:05:44Z</time>
      </trkpt>
      <trkpt lat="45.12887" lon="4.80145">
        <ele>137.13</ele>
        <time>2013-09-27T08:05:47Z</time>
      </trkpt>
      <trkpt lat="45.12907" lon="4.80151">
        <ele>137.13</ele>
        <time>2013-09-27T08:05:50Z</time>
      </trkpt>
      <trkpt lat="45.12929" lon="4.80158">
        <ele>137.61</ele>
        <time>2013-09-27T08:05:53Z</time>
      </trkpt>
      <trkpt lat="45.1295" lon="4.80164">
        <ele>137.13</ele>
        <time>2013-09-27T08:05:56Z</time>
      </trkpt>
      <trkpt lat="45.12972" lon="4.80171">
        <ele>136.64</ele>
        <time>2013-09-27T08:05:59Z</time>
      </trkpt>
      <trkpt lat="45.12994" lon="4.80177">
        <ele>137.13</ele>
        <time>2013-09-27T08:06:02Z</time>
      </trkpt>
      <trkpt lat="45.13017" lon="4.80184">
        <ele>136.64</ele>
        <time>2013-09-27T08:06:05Z</time>
      </trkpt>
      <trkpt lat="45.13038" lon="4.8019">
        <ele>136.16</ele>
        <time>2013-09-27T08:06:08Z</time>
      </trkpt>
      <trkpt lat="45.1306" lon="4.80197">
        <ele>136.16</ele>
        <time>2013-09-27T08:06:11Z</time>
      </trkpt>
      <trkpt lat="45.13082" lon="4.80203">
        <ele>135.68</ele>
        <time>2013-09-27T08:06:14Z</time>
      </trkpt>
      <trkpt lat="45.13104" lon="4.80208">
        <ele>135.68</ele>
        <time>2013-09-27T08:06:17Z</time>
      </trkpt>
      <trkpt lat="45.13126" lon="4.80213">
        <ele>135.2</ele>
        <time>2013-09-27T08:06:20Z</time>
      </trkpt>
      <trkpt lat="45.13147" lon="4.80219">
        <ele>134.72</ele>
        <time>2013-09-27T08:06:23Z</time>
      </trkpt>
      <trkpt lat="45.13168" lon="4.80223">
        <ele>134.72</ele>
        <time>2013-09-27T08:06:26Z</time>
      </trkpt>
      <trkpt lat="45.13189" lon="4.80224">
        <ele>134.24</ele>
        <time>2013-09-27T08:06:29Z</time>
      </trkpt>
      <trkpt lat="45.1321" lon="4.80225">
        <ele>134.72</ele>
        <time>2013-09-27T08:06:32Z</time>
      </trkpt>
      <trkpt lat="45.13231" lon="4.80226">
        <ele>134.72</ele>
        <time>2013-09-27T08:06:35Z</time>
      </trkpt>
      <trkpt lat="45.13251" lon="4.80227">
        <ele>134.72</ele>
        <time>2013-09-27T08:06:38Z</time>
      </trkpt>
      <trkpt lat="45.13271" lon="4.80228">
        <ele>134.72</ele>
        <time>2013-09-27T08:06:41Z</time>
      </trkpt>
      <trkpt lat="45.13291" lon="4.80229">
        <ele>135.2</ele>
        <time>2013-09-27T08:06:44Z</time>
      </trkpt>
      <trkpt lat="45.13311" lon="4.80229">
        <ele>135.2</ele>
        <time>2013-09-27T08:06:47Z</time>
      </trkpt>
      <trkpt lat="45.13332" lon="4.8023">
        <ele>135.2</ele>
        <time>2013-09-27T08:06:50Z</time>
      </trkpt>
      <trkpt lat="45.13353" lon="4.8023">
        <ele>135.68</ele>
        <time>2013-09-27T08:06:53Z</time>
      </trkpt>
      <trkpt lat="45.13375" lon="4.80233">
        <ele>135.68</ele>
        <time>2013-09-27T08:06:56Z</time>
      </trkpt>
      <trkpt lat="45.13397" lon="4.80235">
        <ele>134.72</ele>
        <time>2013-09-27T08:06:59Z</time>
      </trkpt>
      <trkpt lat="45.13419" lon="4.80239">
        <ele>135.2</ele>
        <time>2013-09-27T08:07:02Z</time>
      </trkpt>
      <trkpt lat="45.13441" lon="4.80244">
        <ele>134.72</ele>
        <time>2013-09-27T08:07:05Z</time>
      </trkpt>
      <trkpt lat="45.13463" lon="4.80254">
        <ele>134.72</ele>
        <time>2013-09-27T08:07:08Z</time>
      </trkpt>
      <trkpt lat="45.13485" lon="4.80266">
        <ele>134.24</ele>
        <time>2013-09-27T08:07:11Z</time>
      </trkpt>
      <trkpt lat="45.13506" lon="4.80279">
        <ele>134.24</ele>
        <time>2013-09-27T08:07:14Z</time>
      </trkpt>
      <trkpt lat="45.13528" lon="4.80292">
        <ele>134.72</ele>
        <time>2013-09-27T08:07:17Z</time>
      </trkpt>
      <trkpt lat="45.13548" lon="4.80304">
        <ele>136.16</ele>
        <time>2013-09-27T08:07:20Z</time>
      </trkpt>
      <trkpt lat="45.13567" lon="4.80318">
        <ele>136.16</ele>
        <time>2013-09-27T08:07:23Z</time>
      </trkpt>
      <trkpt lat="45.13585" lon="4.80332">
        <ele>136.16</ele>
        <time>2013-09-27T08:07:26Z</time>
      </trkpt>
      <trkpt lat="45.13603" lon="4.8035">
        <ele>135.2</ele>
        <time>2013-09-27T08:07:29Z</time>
      </trkpt>
      <trkpt lat="45.13622" lon="4.80369">
        <ele>134.72</ele>
        <time>2013-09-27T08:07:32Z</time>
      </trkpt>
      <trkpt lat="45.1364" lon="4.8039">
        <ele>133.76</ele>
        <time>2013-09-27T08:07:35Z</time>
      </trkpt>
      <trkpt lat="45.13658" lon="4.80414">
        <ele>133.28</ele>
        <time>2013-09-27T08:07:38Z</time>
      </trkpt>
      <trkpt lat="45.13674" lon="4.80437">
        <ele>132.8</ele>
        <time>2013-09-27T08:07:41Z</time>
      </trkpt>
      <trkpt lat="45.13688" lon="4.80462">
        <ele>132.32</ele>
        <time>2013-09-27T08:07:44Z</time>
      </trkpt>
      <trkpt lat="45.13702" lon="4.80486">
        <ele>132.32</ele>
        <time>2013-09-27T08:07:47Z</time>
      </trkpt>
      <trkpt lat="45.13717" lon="4.80511">
        <ele>131.84</ele>
        <time>2013-09-27T08:07:50Z</time>
      </trkpt>
      <trkpt lat="45.13731" lon="4.80535">
        <ele>131.36</ele>
        <time>2013-09-27T08:07:53Z</time>
      </trkpt>
      <trkpt lat="45.13745" lon="4.80558">
        <ele>130.88</ele>
        <time>2013-09-27T08:07:56Z</time>
      </trkpt>
      <trkpt lat="45.13759" lon="4.80582">
        <ele>131.84</ele>
        <time>2013-09-27T08:07:59Z</time>
      </trkpt>
      <trkpt lat="45.13772" lon="4.80605">
        <ele>131.36</ele>
        <time>2013-09-27T08:08:02Z</time>
      </trkpt>
      <trkpt lat="45.13788" lon="4.80623">
        <ele>131.84</ele>
        <time>2013-09-27T08:08:05Z</time>
      </trkpt>
      <trkpt lat="45.13806" lon="4.80634">
        <ele>131.84</ele>
        <time>2013-09-27T08:08:08Z</time>
      </trkpt>
      <trkpt lat="45.13825" lon="4.80643">
        <ele>132.32</ele>
        <time>2013-09-27T08:08:11Z</time>
      </trkpt>
      <trkpt lat="45.13842" lon="4.80652">
        <ele>132.8</ele>
        <time>2013-09-27T08:08:14Z</time>
      </trkpt>
      <trkpt lat="45.1386" lon="4.8066">
        <ele>133.28</ele>
        <time>2013-09-27T08:08:17Z</time>
      </trkpt>
      <trkpt lat="45.13877" lon="4.80669">
        <ele>133.76</ele>
        <time>2013-09-27T08:08:20Z</time>
      </trkpt>
      <trkpt lat="45.13899" lon="4.8068">
        <ele>134.24</ele>
        <time>2013-09-27T08:08:24Z</time>
      </trkpt>
      <trkpt lat="45.13916" lon="4.80689">
        <ele>134.24</ele>
        <time>2013-09-27T08:08:27Z</time>
      </trkpt>
      <trkpt lat="45.13933" lon="4.807">
        <ele>134.72</ele>
        <time>2013-09-27T08:08:30Z</time>
      </trkpt>
      <trkpt lat="45.13952" lon="4.80719">
        <ele>135.68</ele>
        <time>2013-09-27T08:08:34Z</time>
      </trkpt>
      <trkpt lat="45.13973" lon="4.80722">
        <ele>134.72</ele>
        <time>2013-09-27T08:08:38Z</time>
      </trkpt>
      <trkpt lat="45.13993" lon="4.80728">
        <ele>135.2</ele>
        <time>2013-09-27T08:08:42Z</time>
      </trkpt>
      <trkpt lat="45.14013" lon="4.80738">
        <ele>135.2</ele>
        <time>2013-09-27T08:08:46Z</time>
      </trkpt>
      <trkpt lat="45.14035" lon="4.80749">
        <ele>135.2</ele>
        <time>2013-09-27T08:08:50Z</time>
      </trkpt>
      <trkpt lat="45.14056" lon="4.8076">
        <ele>135.68</ele>
        <time>2013-09-27T08:08:54Z</time>
      </trkpt>
      <trkpt lat="45.14077" lon="4.80771">
        <ele>135.68</ele>
        <time>2013-09-27T08:08:58Z</time>
      </trkpt>
      <trkpt lat="45.141" lon="4.80782">
        <ele>136.16</ele>
        <time>2013-09-27T08:09:02Z</time>
      </trkpt>
      <trkpt lat="45.14119" lon="4.80789">
        <ele>136.64</ele>
        <time>2013-09-27T08:09:05Z</time>
      </trkpt>
      <trkpt lat="45.1414" lon="4.80795">
        <ele>136.64</ele>
        <time>2013-09-27T08:09:08Z</time>
      </trkpt>
      <trkpt lat="45.14161" lon="4.80798">
        <ele>136.64</ele>
        <time>2013-09-27T08:09:11Z</time>
      </trkpt>
      <trkpt lat="45.14183" lon="4.80801">
        <ele>137.13</ele>
        <time>2013-09-27T08:09:14Z</time>
      </trkpt>
      <trkpt lat="45.14205" lon="4.80805">
        <ele>136.64</ele>
        <time>2013-09-27T08:09:17Z</time>
      </trkpt>
      <trkpt lat="45.14227" lon="4.80808">
        <ele>137.13</ele>
        <time>2013-09-27T08:09:20Z</time>
      </trkpt>
      <trkpt lat="45.14248" lon="4.80811">
        <ele>136.64</ele>
        <time>2013-09-27T08:09:23Z</time>
      </trkpt>
      <trkpt lat="45.1427" lon="4.80814">
        <ele>136.64</ele>
        <time>2013-09-27T08:09:26Z</time>
      </trkpt>
      <trkpt lat="45.1429" lon="4.80819">
        <ele>137.13</ele>
        <time>2013-09-27T08:09:29Z</time>
      </trkpt>
      <trkpt lat="45.1431" lon="4.80829">
        <ele>137.61</ele>
        <time>2013-09-27T08:09:32Z</time>
      </trkpt>
      <trkpt lat="45.14329" lon="4.80844">
        <ele>137.61</ele>
        <time>2013-09-27T08:09:35Z</time>
      </trkpt>
      <trkpt lat="45.14346" lon="4.80863">
        <ele>137.61</ele>
        <time>2013-09-27T08:09:38Z</time>
      </trkpt>
      <trkpt lat="45.14362" lon="4.80882">
        <ele>137.61</ele>
        <time>2013-09-27T08:09:41Z</time>
      </trkpt>
      <trkpt lat="45.14378" lon="4.80901">
        <ele>138.09</ele>
        <time>2013-09-27T08:09:44Z</time>
      </trkpt>
      <trkpt lat="45.14397" lon="4.80913">
        <ele>137.61</ele>
        <time>2013-09-27T08:09:47Z</time>
      </trkpt>
      <trkpt lat="45.14416" lon="4.8093">
        <ele>138.09</ele>
        <time>2013-09-27T08:09:50Z</time>
      </trkpt>
      <trkpt lat="45.14433" lon="4.80947">
        <ele>138.09</ele>
        <time>2013-09-27T08:09:53Z</time>
      </trkpt>
      <trkpt lat="45.14451" lon="4.80964">
        <ele>139.05</ele>
        <time>2013-09-27T08:09:56Z</time>
      </trkpt>
      <trkpt lat="45.1447" lon="4.80982">
        <ele>139.05</ele>
        <time>2013-09-27T08:09:59Z</time>
      </trkpt>
      <trkpt lat="45.14486" lon="4.81">
        <ele>139.53</ele>
        <time>2013-09-27T08:10:02Z</time>
      </trkpt>
      <trkpt lat="45.14504" lon="4.81017">
        <ele>139.53</ele>
        <time>2013-09-27T08:10:05Z</time>
      </trkpt>
      <trkpt lat="45.14522" lon="4.81035">
        <ele>140.01</ele>
        <time>2013-09-27T08:10:08Z</time>
      </trkpt>
      <trkpt lat="45.1454" lon="4.81053">
        <ele>140.01</ele>
        <time>2013-09-27T08:10:11Z</time>
      </trkpt>
      <trkpt lat="45.14558" lon="4.81071">
        <ele>140.01</ele>
        <time>2013-09-27T08:10:14Z</time>
      </trkpt>
      <trkpt lat="45.14576" lon="4.81089">
        <ele>139.53</ele>
        <time>2013-09-27T08:10:17Z</time>
      </trkpt>
      <trkpt lat="45.14594" lon="4.81106">
        <ele>139.05</ele>
        <time>2013-09-27T08:10:20Z</time>
      </trkpt>
      <trkpt lat="45.14599" lon="4.81132">
        <ele>136.64</ele>
        <time>2013-09-27T08:10:23Z</time>
      </trkpt>
      <trkpt lat="45.14597" lon="4.81166">
        <ele>135.68</ele>
        <time>2013-09-27T08:10:26Z</time>
      </trkpt>
      <trkpt lat="45.14594" lon="4.81199">
        <ele>133.76</ele>
        <time>2013-09-27T08:10:29Z</time>
      </trkpt>
      <trkpt lat="45.14586" lon="4.81228">
        <ele>133.76</ele>
        <time>2013-09-27T08:10:32Z</time>
      </trkpt>
      <trkpt lat="45.14577" lon="4.81259">
        <ele>133.76</ele>
        <time>2013-09-27T08:10:35Z</time>
      </trkpt>
      <trkpt lat="45.14567" lon="4.81289">
        <ele>133.28</ele>
        <time>2013-09-27T08:10:38Z</time>
      </trkpt>
      <trkpt lat="45.14558" lon="4.8132">
        <ele>132.8</ele>
        <time>2013-09-27T08:10:41Z</time>
      </trkpt>
      <trkpt lat="45.14549" lon="4.81352">
        <ele>132.32</ele>
        <time>2013-09-27T08:10:44Z</time>
      </trkpt>
      <trkpt lat="45.14541" lon="4.81384">
        <ele>131.84</ele>
        <time>2013-09-27T08:10:47Z</time>
      </trkpt>
      <trkpt lat="45.14533" lon="4.81416">
        <ele>131.36</ele>
        <time>2013-09-27T08:10:50Z</time>
      </trkpt>
      <trkpt lat="45.14524" lon="4.81448">
        <ele>130.4</ele>
        <time>2013-09-27T08:10:53Z</time>
      </trkpt>
      <trkpt lat="45.14514" lon="4.81478">
        <ele>130.4</ele>
        <time>2013-09-27T08:10:56Z</time>
      </trkpt>
      <trkpt lat="45.14506" lon="4.81507">
        <ele>130.4</ele>
        <time>2013-09-27T08:10:59Z</time>
      </trkpt>
      <trkpt lat="45.14501" lon="4.81536">
        <ele>129.92</ele>
        <time>2013-09-27T08:11:02Z</time>
      </trkpt>
      <trkpt lat="45.14511" lon="4.81558">
        <ele>129.92</ele>
        <time>2013-09-27T08:11:05Z</time>
      </trkpt>
      <trkpt lat="45.14528" lon="4.81573">
        <ele>129.92</ele>
        <time>2013-09-27T08:11:08Z</time>
      </trkpt>
      <trkpt lat="45.14543" lon="4.81589">
        <ele>129.92</ele>
        <time>2013-09-27T08:11:11Z</time>
      </trkpt>
      <trkpt lat="45.14563" lon="4.81609">
        <ele>129.92</ele>
        <time>2013-09-27T08:11:15Z</time>
      </trkpt>
      <trkpt lat="45.14579" lon="4.81626">
        <ele>129.92</ele>
        <time>2013-09-27T08:11:18Z</time>
      </trkpt>
      <trkpt lat="45.14595" lon="4.81644">
        <ele>129.43</ele>
        <time>2013-09-27T08:11:21Z</time>
      </trkpt>
      <trkpt lat="45.14612" lon="4.81661">
        <ele>129.92</ele>
        <time>2013-09-27T08:11:24Z</time>
      </trkpt>
      <trkpt lat="45.14629" lon="4.8168">
        <ele>129.43</ele>
        <time>2013-09-27T08:11:27Z</time>
      </trkpt>
      <trkpt lat="45.14647" lon="4.81698">
        <ele>129.92</ele>
        <time>2013-09-27T08:11:30Z</time>
      </trkpt>
      <trkpt lat="45.14664" lon="4.81716">
        <ele>129.92</ele>
        <time>2013-09-27T08:11:33Z</time>
      </trkpt>
      <trkpt lat="45.14681" lon="4.81735">
        <ele>129.92</ele>
        <time>2013-09-27T08:11:36Z</time>
      </trkpt>
      <trkpt lat="45.14699" lon="4.81754">
        <ele>129.92</ele>
        <time>2013-09-27T08:11:39Z</time>
      </trkpt>
      <trkpt lat="45.14717" lon="4.81773">
        <ele>129.92</ele>
        <time>2013-09-27T08:11:42Z</time>
      </trkpt>
      <trkpt lat="45.14733" lon="4.81793">
        <ele>129.92</ele>
        <time>2013-09-27T08:11:45Z</time>
      </trkpt>
      <trkpt lat="45.1475" lon="4.81813">
        <ele>129.92</ele>
        <time>2013-09-27T08:11:48Z</time>
      </trkpt>
      <trkpt lat="45.14766" lon="4.81834">
        <ele>130.4</ele>
        <time>2013-09-27T08:11:51Z</time>
      </trkpt>
      <trkpt lat="45.14781" lon="4.81856">
        <ele>130.4</ele>
        <time>2013-09-27T08:11:54Z</time>
      </trkpt>
      <trkpt lat="45.14795" lon="4.81879">
        <ele>130.4</ele>
        <time>2013-09-27T08:11:57Z</time>
      </trkpt>
      <trkpt lat="45.14809" lon="4.81903">
        <ele>130.88</ele>
        <time>2013-09-27T08:12:00Z</time>
      </trkpt>
      <trkpt lat="45.14824" lon="4.81926">
        <ele>130.88</ele>
        <time>2013-09-27T08:12:03Z</time>
      </trkpt>
      <trkpt lat="45.14839" lon="4.81948">
        <ele>130.4</ele>
        <time>2013-09-27T08:12:06Z</time>
      </trkpt>
      <trkpt lat="45.14854" lon="4.8197">
        <ele>130.4</ele>
        <time>2013-09-27T08:12:09Z</time>
      </trkpt>
      <trkpt lat="45.1487" lon="4.81992">
        <ele>130.4</ele>
        <time>2013-09-27T08:12:12Z</time>
      </trkpt>
      <trkpt lat="45.14885" lon="4.82014">
        <ele>130.4</ele>
        <time>2013-09-27T08:12:15Z</time>
      </trkpt>
      <trkpt lat="45.149" lon="4.82037">
        <ele>130.4</ele>
        <time>2013-09-27T08:12:18Z</time>
      </trkpt>
      <trkpt lat="45.14915" lon="4.82058">
        <ele>130.88</ele>
        <time>2013-09-27T08:12:21Z</time>
      </trkpt>
      <trkpt lat="45.14931" lon="4.82078">
        <ele>130.88</ele>
        <time>2013-09-27T08:12:24Z</time>
      </trkpt>
      <trkpt lat="45.14948" lon="4.82098">
        <ele>130.4</ele>
        <time>2013-09-27T08:12:27Z</time>
      </trkpt>
      <trkpt lat="45.14964" lon="4.82118">
        <ele>130.4</ele>
        <time>2013-09-27T08:12:30Z</time>
      </trkpt>
      <trkpt lat="45.14978" lon="4.82141">
        <ele>130.4</ele>
        <time>2013-09-27T08:12:33Z</time>
      </trkpt>
      <trkpt lat="45.14994" lon="4.8216">
        <ele>129.92</ele>
        <time>2013-09-27T08:12:36Z</time>
      </trkpt>
      <trkpt lat="45.15012" lon="4.82177">
        <ele>130.4</ele>
        <time>2013-09-27T08:12:39Z</time>
      </trkpt>
      <trkpt lat="45.1503" lon="4.82192">
        <ele>130.4</ele>
        <time>2013-09-27T08:12:42Z</time>
      </trkpt>
      <trkpt lat="45.15048" lon="4.82208">
        <ele>130.4</ele>
        <time>2013-09-27T08:12:45Z</time>
      </trkpt>
      <trkpt lat="45.15066" lon="4.82222">
        <ele>129.92</ele>
        <time>2013-09-27T08:12:48Z</time>
      </trkpt>
      <trkpt lat="45.15084" lon="4.82237">
        <ele>129.92</ele>
        <time>2013-09-27T08:12:51Z</time>
      </trkpt>
      <trkpt lat="45.15102" lon="4.82252">
        <ele>129.43</ele>
        <time>2013-09-27T08:12:54Z</time>
      </trkpt>
      <trkpt lat="45.15118" lon="4.82266">
        <ele>129.92</ele>
        <time>2013-09-27T08:12:57Z</time>
      </trkpt>
      <trkpt lat="45.15135" lon="4.82279">
        <ele>129.43</ele>
        <time>2013-09-27T08:13:00Z</time>
      </trkpt>
      <trkpt lat="45.15151" lon="4.82292">
        <ele>129.92</ele>
        <time>2013-09-27T08:13:03Z</time>
      </trkpt>
      <trkpt lat="45.15167" lon="4.82306">
        <ele>129.92</ele>
        <time>2013-09-27T08:13:06Z</time>
      </trkpt>
      <trkpt lat="45.15187" lon="4.82323">
        <ele>128.95</ele>
        <time>2013-09-27T08:13:10Z</time>
      </trkpt>
      <trkpt lat="45.15203" lon="4.82337">
        <ele>129.43</ele>
        <time>2013-09-27T08:13:31Z</time>
      </trkpt>
      <trkpt lat="45.15222" lon="4.82352">
        <ele>129.43</ele>
        <time>2013-09-27T08:13:35Z</time>
      </trkpt>
      <trkpt lat="45.15239" lon="4.82366">
        <ele>129.92</ele>
        <time>2013-09-27T08:13:38Z</time>
      </trkpt>
      <trkpt lat="45.15257" lon="4.8238">
        <ele>129.92</ele>
        <time>2013-09-27T08:13:41Z</time>
      </trkpt>
      <trkpt lat="45.15275" lon="4.82396">
        <ele>130.4</ele>
        <time>2013-09-27T08:13:44Z</time>
      </trkpt>
      <trkpt lat="45.15294" lon="4.82411">
        <ele>129.92</ele>
        <time>2013-09-27T08:13:47Z</time>
      </trkpt>
      <trkpt lat="45.15311" lon="4.82425">
        <ele>129.92</ele>
        <time>2013-09-27T08:13:50Z</time>
      </trkpt>
      <trkpt lat="45.15328" lon="4.8244">
        <ele>129.92</ele>
        <time>2013-09-27T08:13:53Z</time>
      </trkpt>
      <trkpt lat="45.15346" lon="4.82453">
        <ele>130.4</ele>
        <time>2013-09-27T08:13:56Z</time>
      </trkpt>
      <trkpt lat="45.15366" lon="4.82466">
        <ele>130.4</ele>
        <time>2013-09-27T08:13:59Z</time>
      </trkpt>
      <trkpt lat="45.15386" lon="4.82477">
        <ele>129.92</ele>
        <time>2013-09-27T08:14:02Z</time>
      </trkpt>
      <trkpt lat="45.15407" lon="4.82485">
        <ele>125.59</ele>
        <time>2013-09-27T08:14:05Z</time>
      </trkpt>
      <trkpt lat="45.15427" lon="4.82493">
        <ele>130.88</ele>
        <time>2013-09-27T08:14:08Z</time>
      </trkpt>
      <trkpt lat="45.15447" lon="4.82501">
        <ele>130.88</ele>
        <time>2013-09-27T08:14:11Z</time>
      </trkpt>
      <trkpt lat="45.15468" lon="4.82505">
        <ele>130.4</ele>
        <time>2013-09-27T08:14:14Z</time>
      </trkpt>
      <trkpt lat="45.1549" lon="4.82509">
        <ele>130.4</ele>
        <time>2013-09-27T08:14:17Z</time>
      </trkpt>
      <trkpt lat="45.15511" lon="4.8251">
        <ele>130.4</ele>
        <time>2013-09-27T08:14:20Z</time>
      </trkpt>
      <trkpt lat="45.15531" lon="4.82512">
        <ele>130.4</ele>
        <time>2013-09-27T08:14:23Z</time>
      </trkpt>
      <trkpt lat="45.1555" lon="4.82512">
        <ele>129.92</ele>
        <time>2013-09-27T08:14:26Z</time>
      </trkpt>
      <trkpt lat="45.15574" lon="4.82512">
        <ele>130.4</ele>
        <time>2013-09-27T08:14:30Z</time>
      </trkpt>
      <trkpt lat="45.15593" lon="4.8251">
        <ele>130.4</ele>
        <time>2013-09-27T08:14:33Z</time>
      </trkpt>
      <trkpt lat="45.15611" lon="4.82507">
        <ele>130.4</ele>
        <time>2013-09-27T08:14:36Z</time>
      </trkpt>
      <trkpt lat="45.15633" lon="4.82502">
        <ele>130.4</ele>
        <time>2013-09-27T08:14:40Z</time>
      </trkpt>
      <trkpt lat="45.15655" lon="4.82493">
        <ele>130.88</ele>
        <time>2013-09-27T08:14:44Z</time>
      </trkpt>
      <trkpt lat="45.15678" lon="4.82483">
        <ele>130.4</ele>
        <time>2013-09-27T08:14:48Z</time>
      </trkpt>
      <trkpt lat="45.15696" lon="4.82472">
        <ele>130.4</ele>
        <time>2013-09-27T08:14:51Z</time>
      </trkpt>
      <trkpt lat="45.15714" lon="4.82459">
        <ele>130.4</ele>
        <time>2013-09-27T08:14:54Z</time>
      </trkpt>
      <trkpt lat="45.15732" lon="4.82444">
        <ele>130.4</ele>
        <time>2013-09-27T08:14:57Z</time>
      </trkpt>
      <trkpt lat="45.15748" lon="4.82429">
        <ele>130.4</ele>
        <time>2013-09-27T08:15:00Z</time>
      </trkpt>
      <trkpt lat="45.15764" lon="4.82412">
        <ele>130.4</ele>
        <time>2013-09-27T08:15:03Z</time>
      </trkpt>
      <trkpt lat="45.15778" lon="4.82394">
        <ele>130.4</ele>
        <time>2013-09-27T08:15:06Z</time>
      </trkpt>
      <trkpt lat="45.15793" lon="4.82375">
        <ele>129.92</ele>
        <time>2013-09-27T08:15:09Z</time>
      </trkpt>
      <trkpt lat="45.15804" lon="4.82354">
        <ele>130.4</ele>
        <time>2013-09-27T08:15:12Z</time>
      </trkpt>
      <trkpt lat="45.15817" lon="4.82326">
        <ele>130.4</ele>
        <time>2013-09-27T08:15:16Z</time>
      </trkpt>
      <trkpt lat="45.15827" lon="4.82303">
        <ele>130.4</ele>
        <time>2013-09-27T08:15:19Z</time>
      </trkpt>
      <trkpt lat="45.15836" lon="4.82281">
        <ele>129.92</ele>
        <time>2013-09-27T08:15:22Z</time>
      </trkpt>
      <trkpt lat="45.15848" lon="4.8225">
        <ele>130.4</ele>
        <time>2013-09-27T08:15:26Z</time>
      </trkpt>
      <trkpt lat="45.15857" lon="4.82219">
        <ele>130.88</ele>
        <time>2013-09-27T08:15:30Z</time>
      </trkpt>
      <trkpt lat="45.15864" lon="4.82193">
        <ele>130.4</ele>
        <time>2013-09-27T08:15:33Z</time>
      </trkpt>
      <trkpt lat="45.15871" lon="4.82168">
        <ele>130.88</ele>
        <time>2013-09-27T08:15:36Z</time>
      </trkpt>
      <trkpt lat="45.15877" lon="4.82142">
        <ele>130.88</ele>
        <time>2013-09-27T08:15:39Z</time>
      </trkpt>
      <trkpt lat="45.15882" lon="4.82116">
        <ele>130.4</ele>
        <time>2013-09-27T08:15:42Z</time>
      </trkpt>
      <trkpt lat="45.15889" lon="4.82089">
        <ele>130.88</ele>
        <time>2013-09-27T08:15:45Z</time>
      </trkpt>
      <trkpt lat="45.15894" lon="4.82062">
        <ele>130.88</ele>
        <time>2013-09-27T08:15:48Z</time>
      </trkpt>
      <trkpt lat="45.15899" lon="4.82035">
        <ele>130.88</ele>
        <time>2013-09-27T08:15:51Z</time>
      </trkpt>
      <trkpt lat="45.15904" lon="4.82008">
        <ele>131.36</ele>
        <time>2013-09-27T08:15:54Z</time>
      </trkpt>
      <trkpt lat="45.15908" lon="4.8198">
        <ele>131.36</ele>
        <time>2013-09-27T08:15:57Z</time>
      </trkpt>
      <trkpt lat="45.15911" lon="4.81952">
        <ele>131.36</ele>
        <time>2013-09-27T08:16:00Z</time>
      </trkpt>
      <trkpt lat="45.15914" lon="4.81925">
        <ele>131.36</ele>
        <time>2013-09-27T08:16:03Z</time>
      </trkpt>
      <trkpt lat="45.15917" lon="4.81897">
        <ele>131.36</ele>
        <time>2013-09-27T08:16:06Z</time>
      </trkpt>
      <trkpt lat="45.15921" lon="4.81868">
        <ele>131.36</ele>
        <time>2013-09-27T08:16:09Z</time>
      </trkpt>
      <trkpt lat="45.15925" lon="4.8184">
        <ele>131.84</ele>
        <time>2013-09-27T08:16:12Z</time>
      </trkpt>
      <trkpt lat="45.15929" lon="4.81812">
        <ele>131.84</ele>
        <time>2013-09-27T08:16:15Z</time>
      </trkpt>
      <trkpt lat="45.15932" lon="4.81784">
        <ele>132.32</ele>
        <time>2013-09-27T08:16:18Z</time>
      </trkpt>
      <trkpt lat="45.15932" lon="4.81756">
        <ele>131.84</ele>
        <time>2013-09-27T08:16:21Z</time>
      </trkpt>
      <trkpt lat="45.15928" lon="4.8173">
        <ele>132.32</ele>
        <time>2013-09-27T08:16:24Z</time>
      </trkpt>
      <trkpt lat="45.15922" lon="4.81697">
        <ele>132.8</ele>
        <time>2013-09-27T08:16:28Z</time>
      </trkpt>
      <trkpt lat="45.15929" lon="4.81666">
        <ele>133.28</ele>
        <time>2013-09-27T08:16:32Z</time>
      </trkpt>
      <trkpt lat="45.15941" lon="4.81639">
        <ele>133.28</ele>
        <time>2013-09-27T08:16:36Z</time>
      </trkpt>
      <trkpt lat="45.15952" lon="4.81609">
        <ele>133.28</ele>
        <time>2013-09-27T08:16:40Z</time>
      </trkpt>
      <trkpt lat="45.15961" lon="4.81587">
        <ele>133.76</ele>
        <time>2013-09-27T08:16:43Z</time>
      </trkpt>
      <trkpt lat="45.1597" lon="4.81564">
        <ele>133.76</ele>
        <time>2013-09-27T08:16:46Z</time>
      </trkpt>
      <trkpt lat="45.15978" lon="4.81542">
        <ele>133.76</ele>
        <time>2013-09-27T08:16:49Z</time>
      </trkpt>
      <trkpt lat="45.15989" lon="4.81513">
        <ele>135.68</ele>
        <time>2013-09-27T08:16:53Z</time>
      </trkpt>
      <trkpt lat="45.16" lon="4.81485">
        <ele>137.13</ele>
        <time>2013-09-27T08:16:57Z</time>
      </trkpt>
      <trkpt lat="45.1601" lon="4.81458">
        <ele>138.57</ele>
        <time>2013-09-27T08:17:01Z</time>
      </trkpt>
      <trkpt lat="45.16021" lon="4.81433">
        <ele>139.53</ele>
        <time>2013-09-27T08:17:05Z</time>
      </trkpt>
      <trkpt lat="45.16032" lon="4.81408">
        <ele>139.53</ele>
        <time>2013-09-27T08:17:09Z</time>
      </trkpt>
      <trkpt lat="45.16042" lon="4.81382">
        <ele>140.01</ele>
        <time>2013-09-27T08:17:13Z</time>
      </trkpt>
      <trkpt lat="45.16054" lon="4.8136">
        <ele>139.53</ele>
        <time>2013-09-27T08:17:17Z</time>
      </trkpt>
      <trkpt lat="45.16068" lon="4.81339">
        <ele>139.05</ele>
        <time>2013-09-27T08:17:20Z</time>
      </trkpt>
      <trkpt lat="45.16083" lon="4.81315">
        <ele>137.13</ele>
        <time>2013-09-27T08:17:23Z</time>
      </trkpt>
      <trkpt lat="45.16098" lon="4.81289">
        <ele>136.16</ele>
        <time>2013-09-27T08:17:26Z</time>
      </trkpt>
      <trkpt lat="45.16117" lon="4.81271">
        <ele>134.24</ele>
        <time>2013-09-27T08:17:30Z</time>
      </trkpt>
      <trkpt lat="45.1612" lon="4.81253">
        <ele>134.24</ele>
        <time>2013-09-27T08:17:37Z</time>
      </trkpt>
      <trkpt lat="45.16107" lon="4.8128">
        <ele>135.2</ele>
        <time>2013-09-27T08:17:42Z</time>
      </trkpt>
      <trkpt lat="45.16092" lon="4.81304">
        <ele>136.64</ele>
        <time>2013-09-27T08:17:46Z</time>
      </trkpt>
      <trkpt lat="45.16077" lon="4.81326">
        <ele>137.61</ele>
        <time>2013-09-27T08:17:50Z</time>
      </trkpt>
      <trkpt lat="45.16063" lon="4.81352">
        <ele>139.05</ele>
        <time>2013-09-27T08:17:55Z</time>
      </trkpt>
      <trkpt lat="45.16045" lon="4.81368">
        <ele>140.49</ele>
        <time>2013-09-27T08:18:00Z</time>
      </trkpt>
      <trkpt lat="45.1604" lon="4.81348">
        <ele>140.97</ele>
        <time>2013-09-27T08:18:05Z</time>
      </trkpt>
      <trkpt lat="45.16047" lon="4.81321">
        <ele>141.45</ele>
        <time>2013-09-27T08:18:10Z</time>
      </trkpt>
      <trkpt lat="45.16059" lon="4.81299">
        <ele>141.45</ele>
        <time>2013-09-27T08:18:14Z</time>
      </trkpt>
      <trkpt lat="45.16072" lon="4.81276">
        <ele>141.93</ele>
        <time>2013-09-27T08:18:18Z</time>
      </trkpt>
      <trkpt lat="45.16086" lon="4.81249">
        <ele>141.45</ele>
        <time>2013-09-27T08:18:22Z</time>
      </trkpt>
      <trkpt lat="45.16097" lon="4.81228">
        <ele>141.45</ele>
        <time>2013-09-27T08:18:25Z</time>
      </trkpt>
      <trkpt lat="45.16109" lon="4.81208">
        <ele>140.97</ele>
        <time>2013-09-27T08:18:28Z</time>
      </trkpt>
      <trkpt lat="45.16122" lon="4.81188">
        <ele>141.93</ele>
        <time>2013-09-27T08:18:31Z</time>
      </trkpt>
      <trkpt lat="45.16135" lon="4.81168">
        <ele>140.97</ele>
        <time>2013-09-27T08:18:34Z</time>
      </trkpt>
      <trkpt lat="45.16153" lon="4.81144">
        <ele>141.45</ele>
        <time>2013-09-27T08:18:38Z</time>
      </trkpt>
      <trkpt lat="45.16167" lon="4.81128">
        <ele>140.97</ele>
        <time>2013-09-27T08:18:41Z</time>
      </trkpt>
      <trkpt lat="45.16188" lon="4.81113">
        <ele>141.45</ele>
        <time>2013-09-27T08:18:45Z</time>
      </trkpt>
      <trkpt lat="45.16208" lon="4.81094">
        <ele>141.45</ele>
        <time>2013-09-27T08:18:49Z</time>
      </trkpt>
      <trkpt lat="45.16226" lon="4.81071">
        <ele>141.45</ele>
        <time>2013-09-27T08:18:53Z</time>
      </trkpt>
      <trkpt lat="45.16237" lon="4.81051">
        <ele>141.45</ele>
        <time>2013-09-27T08:18:56Z</time>
      </trkpt>
      <trkpt lat="45.1625" lon="4.81032">
        <ele>141.93</ele>
        <time>2013-09-27T08:18:59Z</time>
      </trkpt>
      <trkpt lat="45.16266" lon="4.81016">
        <ele>141.93</ele>
        <time>2013-09-27T08:19:02Z</time>
      </trkpt>
      <trkpt lat="45.16283" lon="4.81003">
        <ele>142.41</ele>
        <time>2013-09-27T08:19:05Z</time>
      </trkpt>
      <trkpt lat="45.163" lon="4.80992">
        <ele>142.89</ele>
        <time>2013-09-27T08:19:08Z</time>
      </trkpt>
      <trkpt lat="45.16318" lon="4.80984">
        <ele>142.89</ele>
        <time>2013-09-27T08:19:11Z</time>
      </trkpt>
      <trkpt lat="45.16341" lon="4.80972">
        <ele>143.37</ele>
        <time>2013-09-27T08:19:15Z</time>
      </trkpt>
      <trkpt lat="45.16363" lon="4.8096">
        <ele>144.34</ele>
        <time>2013-09-27T08:19:19Z</time>
      </trkpt>
      <trkpt lat="45.16383" lon="4.80949">
        <ele>143.85</ele>
        <time>2013-09-27T08:19:23Z</time>
      </trkpt>
      <trkpt lat="45.16403" lon="4.80937">
        <ele>144.82</ele>
        <time>2013-09-27T08:19:27Z</time>
      </trkpt>
      <trkpt lat="45.16421" lon="4.80925">
        <ele>144.82</ele>
        <time>2013-09-27T08:19:31Z</time>
      </trkpt>
      <trkpt lat="45.16441" lon="4.80911">
        <ele>145.3</ele>
        <time>2013-09-27T08:19:35Z</time>
      </trkpt>
      <trkpt lat="45.1646" lon="4.80896">
        <ele>145.3</ele>
        <time>2013-09-27T08:19:39Z</time>
      </trkpt>
      <trkpt lat="45.16481" lon="4.80883">
        <ele>145.78</ele>
        <time>2013-09-27T08:19:43Z</time>
      </trkpt>
      <trkpt lat="45.165" lon="4.80869">
        <ele>145.78</ele>
        <time>2013-09-27T08:19:47Z</time>
      </trkpt>
      <trkpt lat="45.16519" lon="4.80856">
        <ele>146.74</ele>
        <time>2013-09-27T08:19:51Z</time>
      </trkpt>
      <trkpt lat="45.16538" lon="4.80843">
        <ele>146.74</ele>
        <time>2013-09-27T08:19:55Z</time>
      </trkpt>
      <trkpt lat="45.16555" lon="4.8083">
        <ele>146.26</ele>
        <time>2013-09-27T08:19:59Z</time>
      </trkpt>
      <trkpt lat="45.16575" lon="4.80815">
        <ele>146.74</ele>
        <time>2013-09-27T08:20:04Z</time>
      </trkpt>
      <trkpt lat="45.16594" lon="4.80801">
        <ele>147.22</ele>
        <time>2013-09-27T08:20:09Z</time>
      </trkpt>
      <trkpt lat="45.16614" lon="4.80787">
        <ele>147.7</ele>
        <time>2013-09-27T08:20:14Z</time>
      </trkpt>
      <trkpt lat="45.16631" lon="4.80775">
        <ele>147.22</ele>
        <time>2013-09-27T08:20:18Z</time>
      </trkpt>
      <trkpt lat="45.16649" lon="4.80761">
        <ele>147.7</ele>
        <time>2013-09-27T08:20:22Z</time>
      </trkpt>
      <trkpt lat="45.1667" lon="4.80748">
        <ele>147.7</ele>
        <time>2013-09-27T08:20:26Z</time>
      </trkpt>
      <trkpt lat="45.16689" lon="4.80733">
        <ele>147.7</ele>
        <time>2013-09-27T08:20:30Z</time>
      </trkpt>
      <trkpt lat="45.16708" lon="4.80719">
        <ele>148.18</ele>
        <time>2013-09-27T08:20:34Z</time>
      </trkpt>
      <trkpt lat="45.16727" lon="4.80705">
        <ele>148.18</ele>
        <time>2013-09-27T08:20:38Z</time>
      </trkpt>
      <trkpt lat="45.16748" lon="4.80692">
        <ele>149.14</ele>
        <time>2013-09-27T08:20:42Z</time>
      </trkpt>
      <trkpt lat="45.1677" lon="4.80682">
        <ele>149.14</ele>
        <time>2013-09-27T08:20:46Z</time>
      </trkpt>
      <trkpt lat="45.16793" lon="4.80668">
        <ele>148.66</ele>
        <time>2013-09-27T08:20:50Z</time>
      </trkpt>
      <trkpt lat="45.16814" lon="4.80655">
        <ele>149.14</ele>
        <time>2013-09-27T08:20:54Z</time>
      </trkpt>
      <trkpt lat="45.16835" lon="4.8064">
        <ele>148.66</ele>
        <time>2013-09-27T08:20:58Z</time>
      </trkpt>
      <trkpt lat="45.16856" lon="4.80624">
        <ele>149.62</ele>
        <time>2013-09-27T08:21:02Z</time>
      </trkpt>
      <trkpt lat="45.16875" lon="4.80606">
        <ele>149.14</ele>
        <time>2013-09-27T08:21:07Z</time>
      </trkpt>
      <trkpt lat="45.16891" lon="4.80589">
        <ele>149.62</ele>
        <time>2013-09-27T08:21:11Z</time>
      </trkpt>
      <trkpt lat="45.16911" lon="4.80573">
        <ele>149.62</ele>
        <time>2013-09-27T08:21:15Z</time>
      </trkpt>
      <trkpt lat="45.16933" lon="4.8056">
        <ele>149.14</ele>
        <time>2013-09-27T08:21:19Z</time>
      </trkpt>
      <trkpt lat="45.16956" lon="4.80548">
        <ele>148.66</ele>
        <time>2013-09-27T08:21:23Z</time>
      </trkpt>
      <trkpt lat="45.16973" lon="4.80541">
        <ele>148.18</ele>
        <time>2013-09-27T08:21:26Z</time>
      </trkpt>
      <trkpt lat="45.16993" lon="4.80536">
        <ele>148.18</ele>
        <time>2013-09-27T08:21:29Z</time>
      </trkpt>
      <trkpt lat="45.17012" lon="4.80531">
        <ele>147.7</ele>
        <time>2013-09-27T08:21:32Z</time>
      </trkpt>
      <trkpt lat="45.17032" lon="4.80526">
        <ele>147.22</ele>
        <time>2013-09-27T08:21:35Z</time>
      </trkpt>
      <trkpt lat="45.17053" lon="4.8052">
        <ele>146.74</ele>
        <time>2013-09-27T08:21:38Z</time>
      </trkpt>
      <trkpt lat="45.17073" lon="4.80515">
        <ele>146.26</ele>
        <time>2013-09-27T08:21:41Z</time>
      </trkpt>
      <trkpt lat="45.17093" lon="4.8051">
        <ele>146.26</ele>
        <time>2013-09-27T08:21:44Z</time>
      </trkpt>
      <trkpt lat="45.17113" lon="4.80517">
        <ele>146.26</ele>
        <time>2013-09-27T08:21:47Z</time>
      </trkpt>
      <trkpt lat="45.1713" lon="4.80526">
        <ele>145.78</ele>
        <time>2013-09-27T08:21:50Z</time>
      </trkpt>
      <trkpt lat="45.17153" lon="4.8053">
        <ele>145.78</ele>
        <time>2013-09-27T08:21:54Z</time>
      </trkpt>
      <trkpt lat="45.17172" lon="4.80533">
        <ele>144.82</ele>
        <time>2013-09-27T08:21:57Z</time>
      </trkpt>
      <trkpt lat="45.17193" lon="4.80536">
        <ele>144.82</ele>
        <time>2013-09-27T08:22:00Z</time>
      </trkpt>
      <trkpt lat="45.17215" lon="4.80538">
        <ele>143.37</ele>
        <time>2013-09-27T08:22:03Z</time>
      </trkpt>
      <trkpt lat="45.17238" lon="4.80541">
        <ele>142.89</ele>
        <time>2013-09-27T08:22:06Z</time>
      </trkpt>
      <trkpt lat="45.17263" lon="4.80543">
        <ele>142.41</ele>
        <time>2013-09-27T08:22:09Z</time>
      </trkpt>
      <trkpt lat="45.17289" lon="4.80546">
        <ele>140.97</ele>
        <time>2013-09-27T08:22:12Z</time>
      </trkpt>
      <trkpt lat="45.17314" lon="4.80549">
        <ele>140.97</ele>
        <time>2013-09-27T08:22:15Z</time>
      </trkpt>
      <trkpt lat="45.17339" lon="4.80556">
        <ele>139.53</ele>
        <time>2013-09-27T08:22:18Z</time>
      </trkpt>
      <trkpt lat="45.17354" lon="4.80575">
        <ele>138.57</ele>
        <time>2013-09-27T08:22:20Z</time>
      </trkpt>
      <trkpt lat="45.17362" lon="4.80605">
        <ele>137.61</ele>
        <time>2013-09-27T08:22:23Z</time>
      </trkpt>
      <trkpt lat="45.1737" lon="4.8064">
        <ele>137.13</ele>
        <time>2013-09-27T08:22:26Z</time>
      </trkpt>
      <trkpt lat="45.17378" lon="4.80675">
        <ele>136.64</ele>
        <time>2013-09-27T08:22:29Z</time>
      </trkpt>
      <trkpt lat="45.17381" lon="4.8071">
        <ele>136.64</ele>
        <time>2013-09-27T08:22:32Z</time>
      </trkpt>
      <trkpt lat="45.17392" lon="4.80736">
        <ele>136.64</ele>
        <time>2013-09-27T08:22:35Z</time>
      </trkpt>
      <trkpt lat="45.17413" lon="4.80746">
        <ele>136.64</ele>
        <time>2013-09-27T08:22:39Z</time>
      </trkpt>
      <trkpt lat="45.17429" lon="4.80734">
        <ele>136.16</ele>
        <time>2013-09-27T08:22:42Z</time>
      </trkpt>
      <trkpt lat="45.17443" lon="4.80714">
        <ele>135.68</ele>
        <time>2013-09-27T08:22:45Z</time>
      </trkpt>
      <trkpt lat="45.17443" lon="4.80705">
        <ele>136.16</ele>
        <time>2013-09-27T08:22:51Z</time>
      </trkpt>
      <trkpt lat="45.1743" lon="4.8073">
        <ele>136.64</ele>
        <time>2013-09-27T08:22:56Z</time>
      </trkpt>
      <trkpt lat="45.17424" lon="4.80757">
        <ele>135.68</ele>
        <time>2013-09-27T08:23:00Z</time>
      </trkpt>
      <trkpt lat="45.17439" lon="4.80774">
        <ele>136.16</ele>
        <time>2013-09-27T08:23:06Z</time>
      </trkpt>
      <trkpt lat="45.17459" lon="4.80786">
        <ele>135.68</ele>
        <time>2013-09-27T08:23:10Z</time>
      </trkpt>
      <trkpt lat="45.17482" lon="4.80799">
        <ele>136.16</ele>
        <time>2013-09-27T08:23:14Z</time>
      </trkpt>
      <trkpt lat="45.175" lon="4.80808">
        <ele>135.68</ele>
        <time>2013-09-27T08:23:17Z</time>
      </trkpt>
      <trkpt lat="45.17517" lon="4.80817">
        <ele>135.68</ele>
        <time>2013-09-27T08:23:20Z</time>
      </trkpt>
      <trkpt lat="45.1754" lon="4.80829">
        <ele>135.68</ele>
        <time>2013-09-27T08:23:24Z</time>
      </trkpt>
      <trkpt lat="45.17563" lon="4.8084">
        <ele>136.16</ele>
        <time>2013-09-27T08:23:28Z</time>
      </trkpt>
      <trkpt lat="45.17583" lon="4.80852">
        <ele>136.16</ele>
        <time>2013-09-27T08:23:32Z</time>
      </trkpt>
      <trkpt lat="45.17603" lon="4.80861">
        <ele>135.68</ele>
        <time>2013-09-27T08:23:36Z</time>
      </trkpt>
      <trkpt lat="45.17621" lon="4.80872">
        <ele>135.68</ele>
        <time>2013-09-27T08:23:40Z</time>
      </trkpt>
      <trkpt lat="45.17638" lon="4.80882">
        <ele>136.16</ele>
        <time>2013-09-27T08:23:44Z</time>
      </trkpt>
      <trkpt lat="45.17657" lon="4.80892">
        <ele>136.16</ele>
        <time>2013-09-27T08:23:48Z</time>
      </trkpt>
      <trkpt lat="45.17676" lon="4.80902">
        <ele>136.16</ele>
        <time>2013-09-27T08:23:52Z</time>
      </trkpt>
      <trkpt lat="45.17695" lon="4.80913">
        <ele>136.16</ele>
        <time>2013-09-27T08:23:56Z</time>
      </trkpt>
      <trkpt lat="45.17714" lon="4.80924">
        <ele>136.64</ele>
        <time>2013-09-27T08:24:00Z</time>
      </trkpt>
      <trkpt lat="45.17733" lon="4.80935">
        <ele>136.16</ele>
        <time>2013-09-27T08:24:04Z</time>
      </trkpt>
      <trkpt lat="45.17755" lon="4.80947">
        <ele>136.64</ele>
        <time>2013-09-27T08:24:08Z</time>
      </trkpt>
      <trkpt lat="45.17773" lon="4.80957">
        <ele>136.64</ele>
        <time>2013-09-27T08:24:11Z</time>
      </trkpt>
      <trkpt lat="45.17791" lon="4.80967">
        <ele>136.16</ele>
        <time>2013-09-27T08:24:14Z</time>
      </trkpt>
      <trkpt lat="45.1781" lon="4.80977">
        <ele>136.64</ele>
        <time>2013-09-27T08:24:17Z</time>
      </trkpt>
      <trkpt lat="45.17829" lon="4.80988">
        <ele>136.64</ele>
        <time>2013-09-27T08:24:20Z</time>
      </trkpt>
      <trkpt lat="45.17848" lon="4.80998">
        <ele>136.64</ele>
        <time>2013-09-27T08:24:23Z</time>
      </trkpt>
      <trkpt lat="45.17867" lon="4.81009">
        <ele>136.64</ele>
        <time>2013-09-27T08:24:26Z</time>
      </trkpt>
      <trkpt lat="45.17887" lon="4.8102">
        <ele>136.16</ele>
        <time>2013-09-27T08:24:29Z</time>
      </trkpt>
      <trkpt lat="45.17906" lon="4.8103">
        <ele>136.16</ele>
        <time>2013-09-27T08:24:32Z</time>
      </trkpt>
      <trkpt lat="45.17926" lon="4.8104">
        <ele>136.16</ele>
        <time>2013-09-27T08:24:35Z</time>
      </trkpt>
      <trkpt lat="45.17947" lon="4.81051">
        <ele>136.64</ele>
        <time>2013-09-27T08:24:38Z</time>
      </trkpt>
      <trkpt lat="45.17967" lon="4.81061">
        <ele>136.64</ele>
        <time>2013-09-27T08:24:41Z</time>
      </trkpt>
      <trkpt lat="45.17987" lon="4.81069">
        <ele>136.64</ele>
        <time>2013-09-27T08:24:44Z</time>
      </trkpt>
      <trkpt lat="45.18008" lon="4.81078">
        <ele>136.16</ele>
        <time>2013-09-27T08:24:47Z</time>
      </trkpt>
      <trkpt lat="45.18029" lon="4.81084">
        <ele>136.16</ele>
        <time>2013-09-27T08:24:50Z</time>
      </trkpt>
      <trkpt lat="45.1805" lon="4.81091">
        <ele>136.64</ele>
        <time>2013-09-27T08:24:53Z</time>
      </trkpt>
      <trkpt lat="45.18071" lon="4.81098">
        <ele>136.64</ele>
        <time>2013-09-27T08:24:56Z</time>
      </trkpt>
      <trkpt lat="45.18092" lon="4.81103">
        <ele>136.16</ele>
        <time>2013-09-27T08:24:59Z</time>
      </trkpt>
      <trkpt lat="45.18114" lon="4.81108">
        <ele>136.64</ele>
        <time>2013-09-27T08:25:02Z</time>
      </trkpt>
      <trkpt lat="45.18135" lon="4.81113">
        <ele>136.64</ele>
        <time>2013-09-27T08:25:05Z</time>
      </trkpt>
      <trkpt lat="45.18156" lon="4.81117">
        <ele>136.64</ele>
        <time>2013-09-27T08:25:08Z</time>
      </trkpt>
      <trkpt lat="45.18178" lon="4.8112">
        <ele>137.13</ele>
        <time>2013-09-27T08:25:11Z</time>
      </trkpt>
      <trkpt lat="45.18199" lon="4.81122">
        <ele>136.64</ele>
        <time>2013-09-27T08:25:14Z</time>
      </trkpt>
      <trkpt lat="45.1822" lon="4.81122">
        <ele>136.64</ele>
        <time>2013-09-27T08:25:17Z</time>
      </trkpt>
      <trkpt lat="45.18243" lon="4.81123">
        <ele>137.13</ele>
        <time>2013-09-27T08:25:20Z</time>
      </trkpt>
      <trkpt lat="45.18264" lon="4.81123">
        <ele>136.16</ele>
        <time>2013-09-27T08:25:23Z</time>
      </trkpt>
      <trkpt lat="45.18286" lon="4.81122">
        <ele>136.64</ele>
        <time>2013-09-27T08:25:26Z</time>
      </trkpt>
      <trkpt lat="45.18307" lon="4.81119">
        <ele>137.13</ele>
        <time>2013-09-27T08:25:29Z</time>
      </trkpt>
      <trkpt lat="45.18327" lon="4.81111">
        <ele>137.61</ele>
        <time>2013-09-27T08:25:32Z</time>
      </trkpt>
      <trkpt lat="45.18347" lon="4.81099">
        <ele>137.13</ele>
        <time>2013-09-27T08:25:35Z</time>
      </trkpt>
      <trkpt lat="45.18367" lon="4.81085">
        <ele>136.64</ele>
        <time>2013-09-27T08:25:38Z</time>
      </trkpt>
      <trkpt lat="45.18386" lon="4.81071">
        <ele>136.16</ele>
        <time>2013-09-27T08:25:41Z</time>
      </trkpt>
      <trkpt lat="45.18397" lon="4.81054">
        <ele>136.64</ele>
        <time>2013-09-27T08:25:48Z</time>
      </trkpt>
      <trkpt lat="45.18378" lon="4.81073">
        <ele>136.16</ele>
        <time>2013-09-27T08:25:54Z</time>
      </trkpt>
      <trkpt lat="45.18356" lon="4.81089">
        <ele>137.13</ele>
        <time>2013-09-27T08:25:59Z</time>
      </trkpt>
      <trkpt lat="45.18338" lon="4.81101">
        <ele>137.13</ele>
        <time>2013-09-27T08:26:03Z</time>
      </trkpt>
      <trkpt lat="45.18319" lon="4.81111">
        <ele>137.13</ele>
        <time>2013-09-27T08:26:07Z</time>
      </trkpt>
      <trkpt lat="45.18302" lon="4.81112">
        <ele>137.13</ele>
        <time>2013-09-27T08:26:18Z</time>
      </trkpt>
      <trkpt lat="45.18302" lon="4.81085">
        <ele>137.13</ele>
        <time>2013-09-27T08:26:25Z</time>
      </trkpt>
      <trkpt lat="45.1832" lon="4.8108">
        <ele>136.16</ele>
        <time>2013-09-27T08:26:30Z</time>
      </trkpt>
      <trkpt lat="45.18343" lon="4.81077">
        <ele>135.2</ele>
        <time>2013-09-27T08:26:34Z</time>
      </trkpt>
      <trkpt lat="45.18362" lon="4.81073">
        <ele>136.64</ele>
        <time>2013-09-27T08:26:38Z</time>
      </trkpt>
      <trkpt lat="45.18373" lon="4.81054">
        <ele>138.57</ele>
        <time>2013-09-27T08:26:49Z</time>
      </trkpt>
      <trkpt lat="45.18378" lon="4.81055">
        <ele>141.93</ele>
        <time>2013-09-27T08:27:07Z</time>
      </trkpt>
      <trkpt lat="45.18382" lon="4.81084">
        <ele>143.37</ele>
        <time>2013-09-27T08:27:15Z</time>
      </trkpt>
      <trkpt lat="45.18387" lon="4.81111">
        <ele>143.85</ele>
        <time>2013-09-27T08:27:21Z</time>
      </trkpt>
      <trkpt lat="45.18392" lon="4.81138">
        <ele>144.34</ele>
        <time>2013-09-27T08:27:26Z</time>
      </trkpt>
      <trkpt lat="45.18397" lon="4.81162">
        <ele>144.82</ele>
        <time>2013-09-27T08:27:30Z</time>
      </trkpt>
      <trkpt lat="45.18402" lon="4.81189">
        <ele>145.3</ele>
        <time>2013-09-27T08:27:34Z</time>
      </trkpt>
      <trkpt lat="45.18407" lon="4.81217">
        <ele>145.3</ele>
        <time>2013-09-27T08:27:38Z</time>
      </trkpt>
      <trkpt lat="45.18413" lon="4.81248">
        <ele>145.3</ele>
        <time>2013-09-27T08:27:42Z</time>
      </trkpt>
      <trkpt lat="45.18418" lon="4.81273">
        <ele>144.34</ele>
        <time>2013-09-27T08:27:45Z</time>
      </trkpt>
      <trkpt lat="45.18423" lon="4.813">
        <ele>143.37</ele>
        <time>2013-09-27T08:27:48Z</time>
      </trkpt>
      <trkpt lat="45.18428" lon="4.81328">
        <ele>142.41</ele>
        <time>2013-09-27T08:27:51Z</time>
      </trkpt>
      <trkpt lat="45.18431" lon="4.81356">
        <ele>142.41</ele>
        <time>2013-09-27T08:27:55Z</time>
      </trkpt>
      <trkpt lat="45.18423" lon="4.81381">
        <ele>141.93</ele>
        <time>2013-09-27T08:28:03Z</time>
      </trkpt>
      <trkpt lat="45.18432" lon="4.81406">
        <ele>141.93</ele>
        <time>2013-09-27T08:28:08Z</time>
      </trkpt>
      <trkpt lat="45.18452" lon="4.81417">
        <ele>141.45</ele>
        <time>2013-09-27T08:28:14Z</time>
      </trkpt>
      <trkpt lat="45.18481" lon="4.81408">
        <ele>141.45</ele>
        <time>2013-09-27T08:28:19Z</time>
      </trkpt>
      <trkpt lat="45.18504" lon="4.81408">
        <ele>141.45</ele>
        <time>2013-09-27T08:28:23Z</time>
      </trkpt>
      <trkpt lat="45.18528" lon="4.81407">
        <ele>141.93</ele>
        <time>2013-09-27T08:28:27Z</time>
      </trkpt>
      <trkpt lat="45.18553" lon="4.81408">
        <ele>141.93</ele>
        <time>2013-09-27T08:28:31Z</time>
      </trkpt>
      <trkpt lat="45.18573" lon="4.81406">
        <ele>141.45</ele>
        <time>2013-09-27T08:28:34Z</time>
      </trkpt>
      <trkpt lat="45.18594" lon="4.81407">
        <ele>141.45</ele>
        <time>2013-09-27T08:28:37Z</time>
      </trkpt>
      <trkpt lat="45.18616" lon="4.81409">
        <ele>141.45</ele>
        <time>2013-09-27T08:28:40Z</time>
      </trkpt>
      <trkpt lat="45.18637" lon="4.8141">
        <ele>140.97</ele>
        <time>2013-09-27T08:28:43Z</time>
      </trkpt>
      <trkpt lat="45.18659" lon="4.8141">
        <ele>140.49</ele>
        <time>2013-09-27T08:28:46Z</time>
      </trkpt>
      <trkpt lat="45.18678" lon="4.8141">
        <ele>140.97</ele>
        <time>2013-09-27T08:28:49Z</time>
      </trkpt>
      <trkpt lat="45.18697" lon="4.81411">
        <ele>140.97</ele>
        <time>2013-09-27T08:28:52Z</time>
      </trkpt>
      <trkpt lat="45.18717" lon="4.81411">
        <ele>140.49</ele>
        <time>2013-09-27T08:28:55Z</time>
      </trkpt>
      <trkpt lat="45.18736" lon="4.81412">
        <ele>140.49</ele>
        <time>2013-09-27T08:28:58Z</time>
      </trkpt>
      <trkpt lat="45.18756" lon="4.81412">
        <ele>141.45</ele>
        <time>2013-09-27T08:29:02Z</time>
      </trkpt>
      <trkpt lat="45.18776" lon="4.81406">
        <ele>141.45</ele>
        <time>2013-09-27T08:29:07Z</time>
      </trkpt>
      <trkpt lat="45.18789" lon="4.81389">
        <ele>141.93</ele>
        <time>2013-09-27T08:29:11Z</time>
      </trkpt>
      <trkpt lat="45.18791" lon="4.81353">
        <ele>140.49</ele>
        <time>2013-09-27T08:29:15Z</time>
      </trkpt>
      <trkpt lat="45.18792" lon="4.81322">
        <ele>139.53</ele>
        <time>2013-09-27T08:29:18Z</time>
      </trkpt>
      <trkpt lat="45.18783" lon="4.81292">
        <ele>138.09</ele>
        <time>2013-09-27T08:29:21Z</time>
      </trkpt>
      <trkpt lat="45.18771" lon="4.81268">
        <ele>137.13</ele>
        <time>2013-09-27T08:29:24Z</time>
      </trkpt>
      <trkpt lat="45.18756" lon="4.81249">
        <ele>136.64</ele>
        <time>2013-09-27T08:29:27Z</time>
      </trkpt>
      <trkpt lat="45.18732" lon="4.81247">
        <ele>137.13</ele>
        <time>2013-09-27T08:29:30Z</time>
      </trkpt>
      <trkpt lat="45.18711" lon="4.8124">
        <ele>137.13</ele>
        <time>2013-09-27T08:29:33Z</time>
      </trkpt>
      <trkpt lat="45.18691" lon="4.81235">
        <ele>137.13</ele>
        <time>2013-09-27T08:29:36Z</time>
      </trkpt>
      <trkpt lat="45.18677" lon="4.81229">
        <ele>136.64</ele>
        <time>2013-09-27T08:29:40Z</time>
      </trkpt>
      <trkpt lat="45.18699" lon="4.81217">
        <ele>136.64</ele>
        <time>2013-09-27T08:29:45Z</time>
      </trkpt>
      <trkpt lat="45.18721" lon="4.81204">
        <ele>136.64</ele>
        <time>2013-09-27T08:29:49Z</time>
      </trkpt>
      <trkpt lat="45.18737" lon="4.81196">
        <ele>137.13</ele>
        <time>2013-09-27T08:29:52Z</time>
      </trkpt>
      <trkpt lat="45.18755" lon="4.81187">
        <ele>137.13</ele>
        <time>2013-09-27T08:29:55Z</time>
      </trkpt>
      <trkpt lat="45.18772" lon="4.81177">
        <ele>136.64</ele>
        <time>2013-09-27T08:29:58Z</time>
      </trkpt>
      <trkpt lat="45.1879" lon="4.81167">
        <ele>137.13</ele>
        <time>2013-09-27T08:30:01Z</time>
      </trkpt>
      <trkpt lat="45.18808" lon="4.81158">
        <ele>137.13</ele>
        <time>2013-09-27T08:30:04Z</time>
      </trkpt>
      <trkpt lat="45.18826" lon="4.81147">
        <ele>136.64</ele>
        <time>2013-09-27T08:30:07Z</time>
      </trkpt>
      <trkpt lat="45.18848" lon="4.81133">
        <ele>137.13</ele>
        <time>2013-09-27T08:30:11Z</time>
      </trkpt>
      <trkpt lat="45.1887" lon="4.8112">
        <ele>137.13</ele>
        <time>2013-09-27T08:30:15Z</time>
      </trkpt>
      <trkpt lat="45.18887" lon="4.81109">
        <ele>137.13</ele>
        <time>2013-09-27T08:30:18Z</time>
      </trkpt>
      <trkpt lat="45.18903" lon="4.81097">
        <ele>137.13</ele>
        <time>2013-09-27T08:30:21Z</time>
      </trkpt>
      <trkpt lat="45.1892" lon="4.81087">
        <ele>137.13</ele>
        <time>2013-09-27T08:30:24Z</time>
      </trkpt>
      <trkpt lat="45.18941" lon="4.81072">
        <ele>137.13</ele>
        <time>2013-09-27T08:30:28Z</time>
      </trkpt>
      <trkpt lat="45.18962" lon="4.81057">
        <ele>137.13</ele>
        <time>2013-09-27T08:30:32Z</time>
      </trkpt>
      <trkpt lat="45.18984" lon="4.81043">
        <ele>137.13</ele>
        <time>2013-09-27T08:30:36Z</time>
      </trkpt>
      <trkpt lat="45.19005" lon="4.81029">
        <ele>137.13</ele>
        <time>2013-09-27T08:30:40Z</time>
      </trkpt>
      <trkpt lat="45.19027" lon="4.81013">
        <ele>137.61</ele>
        <time>2013-09-27T08:30:44Z</time>
      </trkpt>
      <trkpt lat="45.19043" lon="4.81001">
        <ele>137.13</ele>
        <time>2013-09-27T08:30:47Z</time>
      </trkpt>
      <trkpt lat="45.1906" lon="4.80991">
        <ele>137.13</ele>
        <time>2013-09-27T08:30:50Z</time>
      </trkpt>
      <trkpt lat="45.19077" lon="4.80979">
        <ele>137.61</ele>
        <time>2013-09-27T08:30:53Z</time>
      </trkpt>
      <trkpt lat="45.19095" lon="4.80967">
        <ele>137.61</ele>
        <time>2013-09-27T08:30:56Z</time>
      </trkpt>
      <trkpt lat="45.19113" lon="4.80954">
        <ele>137.61</ele>
        <time>2013-09-27T08:30:59Z</time>
      </trkpt>
      <trkpt lat="45.19132" lon="4.80941">
        <ele>137.61</ele>
        <time>2013-09-27T08:31:02Z</time>
      </trkpt>
      <trkpt lat="45.1915" lon="4.80928">
        <ele>137.61</ele>
        <time>2013-09-27T08:31:05Z</time>
      </trkpt>
      <trkpt lat="45.19169" lon="4.80914">
        <ele>138.09</ele>
        <time>2013-09-27T08:31:08Z</time>
      </trkpt>
      <trkpt lat="45.19188" lon="4.80902">
        <ele>137.61</ele>
        <time>2013-09-27T08:31:11Z</time>
      </trkpt>
      <trkpt lat="45.19206" lon="4.80889">
        <ele>138.09</ele>
        <time>2013-09-27T08:31:14Z</time>
      </trkpt>
      <trkpt lat="45.19226" lon="4.80876">
        <ele>137.61</ele>
        <time>2013-09-27T08:31:17Z</time>
      </trkpt>
      <trkpt lat="45.19246" lon="4.80863">
        <ele>137.61</ele>
        <time>2013-09-27T08:31:20Z</time>
      </trkpt>
      <trkpt lat="45.19265" lon="4.8085">
        <ele>137.13</ele>
        <time>2013-09-27T08:31:23Z</time>
      </trkpt>
      <trkpt lat="45.19285" lon="4.80836">
        <ele>138.09</ele>
        <time>2013-09-27T08:31:26Z</time>
      </trkpt>
      <trkpt lat="45.19305" lon="4.80822">
        <ele>138.09</ele>
        <time>2013-09-27T08:31:29Z</time>
      </trkpt>
      <trkpt lat="45.19325" lon="4.80809">
        <ele>137.61</ele>
        <time>2013-09-27T08:31:32Z</time>
      </trkpt>
      <trkpt lat="45.19345" lon="4.80798">
        <ele>137.61</ele>
        <time>2013-09-27T08:31:35Z</time>
      </trkpt>
      <trkpt lat="45.19366" lon="4.80788">
        <ele>138.09</ele>
        <time>2013-09-27T08:31:38Z</time>
      </trkpt>
      <trkpt lat="45.19387" lon="4.80779">
        <ele>137.61</ele>
        <time>2013-09-27T08:31:41Z</time>
      </trkpt>
      <trkpt lat="45.19407" lon="4.80771">
        <ele>137.61</ele>
        <time>2013-09-27T08:31:44Z</time>
      </trkpt>
      <trkpt lat="45.19429" lon="4.80764">
        <ele>138.09</ele>
        <time>2013-09-27T08:31:47Z</time>
      </trkpt>
      <trkpt lat="45.1945" lon="4.80759">
        <ele>137.61</ele>
        <time>2013-09-27T08:31:50Z</time>
      </trkpt>
      <trkpt lat="45.19471" lon="4.80755">
        <ele>137.61</ele>
        <time>2013-09-27T08:31:53Z</time>
      </trkpt>
      <trkpt lat="45.19492" lon="4.8076">
        <ele>137.61</ele>
        <time>2013-09-27T08:31:56Z</time>
      </trkpt>
      <trkpt lat="45.19513" lon="4.80768">
        <ele>137.61</ele>
        <time>2013-09-27T08:31:59Z</time>
      </trkpt>
      <trkpt lat="45.19535" lon="4.80765">
        <ele>137.13</ele>
        <time>2013-09-27T08:32:02Z</time>
      </trkpt>
      <trkpt lat="45.19557" lon="4.80764">
        <ele>136.64</ele>
        <time>2013-09-27T08:32:05Z</time>
      </trkpt>
      <trkpt lat="45.1958" lon="4.80763">
        <ele>137.13</ele>
        <time>2013-09-27T08:32:08Z</time>
      </trkpt>
      <trkpt lat="45.19605" lon="4.80763">
        <ele>137.61</ele>
        <time>2013-09-27T08:32:11Z</time>
      </trkpt>
      <trkpt lat="45.1963" lon="4.80764">
        <ele>137.13</ele>
        <time>2013-09-27T08:32:14Z</time>
      </trkpt>
      <trkpt lat="45.19655" lon="4.80766">
        <ele>137.61</ele>
        <time>2013-09-27T08:32:17Z</time>
      </trkpt>
      <trkpt lat="45.1968" lon="4.80768">
        <ele>137.61</ele>
        <time>2013-09-27T08:32:20Z</time>
      </trkpt>
      <trkpt lat="45.19705" lon="4.8077">
        <ele>137.61</ele>
        <time>2013-09-27T08:32:23Z</time>
      </trkpt>
      <trkpt lat="45.1973" lon="4.80774">
        <ele>137.61</ele>
        <time>2013-09-27T08:32:26Z</time>
      </trkpt>
      <trkpt lat="45.19753" lon="4.80781">
        <ele>138.09</ele>
        <time>2013-09-27T08:32:29Z</time>
      </trkpt>
      <trkpt lat="45.19775" lon="4.80784">
        <ele>138.09</ele>
        <time>2013-09-27T08:32:32Z</time>
      </trkpt>
      <trkpt lat="45.19794" lon="4.80784">
        <ele>137.61</ele>
        <time>2013-09-27T08:32:35Z</time>
      </trkpt>
      <trkpt lat="45.19813" lon="4.80786">
        <ele>137.13</ele>
        <time>2013-09-27T08:32:38Z</time>
      </trkpt>
      <trkpt lat="45.19834" lon="4.80792">
        <ele>136.16</ele>
        <time>2013-09-27T08:32:41Z</time>
      </trkpt>
      <trkpt lat="45.19854" lon="4.80801">
        <ele>136.16</ele>
        <time>2013-09-27T08:32:44Z</time>
      </trkpt>
      <trkpt lat="45.19873" lon="4.80818">
        <ele>135.68</ele>
        <time>2013-09-27T08:32:47Z</time>
      </trkpt>
      <trkpt lat="45.1989" lon="4.80839">
        <ele>135.68</ele>
        <time>2013-09-27T08:32:50Z</time>
      </trkpt>
      <trkpt lat="45.19906" lon="4.80859">
        <ele>135.2</ele>
        <time>2013-09-27T08:32:53Z</time>
      </trkpt>
      <trkpt lat="45.19923" lon="4.80876">
        <ele>135.68</ele>
        <time>2013-09-27T08:32:56Z</time>
      </trkpt>
      <trkpt lat="45.19938" lon="4.80895">
        <ele>135.2</ele>
        <time>2013-09-27T08:32:59Z</time>
      </trkpt>
      <trkpt lat="45.19954" lon="4.80914">
        <ele>135.68</ele>
        <time>2013-09-27T08:33:02Z</time>
      </trkpt>
      <trkpt lat="45.19968" lon="4.80934">
        <ele>135.68</ele>
        <time>2013-09-27T08:33:05Z</time>
      </trkpt>
      <trkpt lat="45.19981" lon="4.80954">
        <ele>135.68</ele>
        <time>2013-09-27T08:33:08Z</time>
      </trkpt>
      <trkpt lat="45.19994" lon="4.80974">
        <ele>135.68</ele>
        <time>2013-09-27T08:33:11Z</time>
      </trkpt>
      <trkpt lat="45.20006" lon="4.80994">
        <ele>136.16</ele>
        <time>2013-09-27T08:33:14Z</time>
      </trkpt>
      <trkpt lat="45.20016" lon="4.81016">
        <ele>136.64</ele>
        <time>2013-09-27T08:33:17Z</time>
      </trkpt>
      <trkpt lat="45.20027" lon="4.81038">
        <ele>137.13</ele>
        <time>2013-09-27T08:33:20Z</time>
      </trkpt>
      <trkpt lat="45.20036" lon="4.81063">
        <ele>136.64</ele>
        <time>2013-09-27T08:33:23Z</time>
      </trkpt>
      <trkpt lat="45.20047" lon="4.81087">
        <ele>136.64</ele>
        <time>2013-09-27T08:33:26Z</time>
      </trkpt>
      <trkpt lat="45.2006" lon="4.81111">
        <ele>137.13</ele>
        <time>2013-09-27T08:33:29Z</time>
      </trkpt>
      <trkpt lat="45.20073" lon="4.81135">
        <ele>136.64</ele>
        <time>2013-09-27T08:33:32Z</time>
      </trkpt>
      <trkpt lat="45.20085" lon="4.81158">
        <ele>136.64</ele>
        <time>2013-09-27T08:33:35Z</time>
      </trkpt>
      <trkpt lat="45.20099" lon="4.81182">
        <ele>137.13</ele>
        <time>2013-09-27T08:33:38Z</time>
      </trkpt>
      <trkpt lat="45.20114" lon="4.81205">
        <ele>137.13</ele>
        <time>2013-09-27T08:33:41Z</time>
      </trkpt>
      <trkpt lat="45.2013" lon="4.81226">
        <ele>136.64</ele>
        <time>2013-09-27T08:33:44Z</time>
      </trkpt>
      <trkpt lat="45.20146" lon="4.81247">
        <ele>137.13</ele>
        <time>2013-09-27T08:33:47Z</time>
      </trkpt>
      <trkpt lat="45.20162" lon="4.8127">
        <ele>137.13</ele>
        <time>2013-09-27T08:33:50Z</time>
      </trkpt>
      <trkpt lat="45.20178" lon="4.81292">
        <ele>136.16</ele>
        <time>2013-09-27T08:33:53Z</time>
      </trkpt>
      <trkpt lat="45.20196" lon="4.81311">
        <ele>136.16</ele>
        <time>2013-09-27T08:33:56Z</time>
      </trkpt>
      <trkpt lat="45.20215" lon="4.81327">
        <ele>136.16</ele>
        <time>2013-09-27T08:33:59Z</time>
      </trkpt>
      <trkpt lat="45.20234" lon="4.81341">
        <ele>136.16</ele>
        <time>2013-09-27T08:34:02Z</time>
      </trkpt>
      <trkpt lat="45.20255" lon="4.8135">
        <ele>136.64</ele>
        <time>2013-09-27T08:34:05Z</time>
      </trkpt>
      <trkpt lat="45.20273" lon="4.81363">
        <ele>136.16</ele>
        <time>2013-09-27T08:34:08Z</time>
      </trkpt>
      <trkpt lat="45.20292" lon="4.81376">
        <ele>135.68</ele>
        <time>2013-09-27T08:34:11Z</time>
      </trkpt>
      <trkpt lat="45.20313" lon="4.81387">
        <ele>135.68</ele>
        <time>2013-09-27T08:34:14Z</time>
      </trkpt>
      <trkpt lat="45.20334" lon="4.81392">
        <ele>135.2</ele>
        <time>2013-09-27T08:34:17Z</time>
      </trkpt>
      <trkpt lat="45.20356" lon="4.81393">
        <ele>135.68</ele>
        <time>2013-09-27T08:34:20Z</time>
      </trkpt>
      <trkpt lat="45.20377" lon="4.81393">
        <ele>135.68</ele>
        <time>2013-09-27T08:34:23Z</time>
      </trkpt>
      <trkpt lat="45.20398" lon="4.81391">
        <ele>135.68</ele>
        <time>2013-09-27T08:34:26Z</time>
      </trkpt>
      <trkpt lat="45.20419" lon="4.81391">
        <ele>135.2</ele>
        <time>2013-09-27T08:34:29Z</time>
      </trkpt>
      <trkpt lat="45.20439" lon="4.81392">
        <ele>135.68</ele>
        <time>2013-09-27T08:34:32Z</time>
      </trkpt>
      <trkpt lat="45.20458" lon="4.81393">
        <ele>135.68</ele>
        <time>2013-09-27T08:34:35Z</time>
      </trkpt>
      <trkpt lat="45.20476" lon="4.81394">
        <ele>135.68</ele>
        <time>2013-09-27T08:34:38Z</time>
      </trkpt>
      <trkpt lat="45.20501" lon="4.81393">
        <ele>135.2</ele>
        <time>2013-09-27T08:34:42Z</time>
      </trkpt>
      <trkpt lat="45.2052" lon="4.81392">
        <ele>135.2</ele>
        <time>2013-09-27T08:34:45Z</time>
      </trkpt>
      <trkpt lat="45.20539" lon="4.81391">
        <ele>135.68</ele>
        <time>2013-09-27T08:34:48Z</time>
      </trkpt>
      <trkpt lat="45.20558" lon="4.81385">
        <ele>135.68</ele>
        <time>2013-09-27T08:34:51Z</time>
      </trkpt>
      <trkpt lat="45.20573" lon="4.81365">
        <ele>135.2</ele>
        <time>2013-09-27T08:34:54Z</time>
      </trkpt>
      <trkpt lat="45.20593" lon="4.81356">
        <ele>134.72</ele>
        <time>2013-09-27T08:34:57Z</time>
      </trkpt>
      <trkpt lat="45.20613" lon="4.81351">
        <ele>135.2</ele>
        <time>2013-09-27T08:35:00Z</time>
      </trkpt>
      <trkpt lat="45.2063" lon="4.81334">
        <ele>136.16</ele>
        <time>2013-09-27T08:35:03Z</time>
      </trkpt>
      <trkpt lat="45.20648" lon="4.8132">
        <ele>135.68</ele>
        <time>2013-09-27T08:35:06Z</time>
      </trkpt>
      <trkpt lat="45.20666" lon="4.81311">
        <ele>136.16</ele>
        <time>2013-09-27T08:35:09Z</time>
      </trkpt>
      <trkpt lat="45.20684" lon="4.81301">
        <ele>136.64</ele>
        <time>2013-09-27T08:35:12Z</time>
      </trkpt>
      <trkpt lat="45.20702" lon="4.81292">
        <ele>136.16</ele>
        <time>2013-09-27T08:35:15Z</time>
      </trkpt>
      <trkpt lat="45.2072" lon="4.81284">
        <ele>135.68</ele>
        <time>2013-09-27T08:35:18Z</time>
      </trkpt>
      <trkpt lat="45.20737" lon="4.81275">
        <ele>136.16</ele>
        <time>2013-09-27T08:35:21Z</time>
      </trkpt>
      <trkpt lat="45.20755" lon="4.81268">
        <ele>135.68</ele>
        <time>2013-09-27T08:35:24Z</time>
      </trkpt>
      <trkpt lat="45.20773" lon="4.81262">
        <ele>135.2</ele>
        <time>2013-09-27T08:35:27Z</time>
      </trkpt>
      <trkpt lat="45.20793" lon="4.81252">
        <ele>135.2</ele>
        <time>2013-09-27T08:35:30Z</time>
      </trkpt>
      <trkpt lat="45.20812" lon="4.8124">
        <ele>134.24</ele>
        <time>2013-09-27T08:35:33Z</time>
      </trkpt>
      <trkpt lat="45.20834" lon="4.81229">
        <ele>134.72</ele>
        <time>2013-09-27T08:35:36Z</time>
      </trkpt>
      <trkpt lat="45.20854" lon="4.81213">
        <ele>135.2</ele>
        <time>2013-09-27T08:35:39Z</time>
      </trkpt>
      <trkpt lat="45.2087" lon="4.81195">
        <ele>135.68</ele>
        <time>2013-09-27T08:35:42Z</time>
      </trkpt>
      <trkpt lat="45.20887" lon="4.81176">
        <ele>135.68</ele>
        <time>2013-09-27T08:35:45Z</time>
      </trkpt>
      <trkpt lat="45.20904" lon="4.8116">
        <ele>136.16</ele>
        <time>2013-09-27T08:35:48Z</time>
      </trkpt>
      <trkpt lat="45.20924" lon="4.8115">
        <ele>136.16</ele>
        <time>2013-09-27T08:35:51Z</time>
      </trkpt>
      <trkpt lat="45.20945" lon="4.8114">
        <ele>136.16</ele>
        <time>2013-09-27T08:35:54Z</time>
      </trkpt>
      <trkpt lat="45.20965" lon="4.81128">
        <ele>136.64</ele>
        <time>2013-09-27T08:35:57Z</time>
      </trkpt>
      <trkpt lat="45.20985" lon="4.81115">
        <ele>135.2</ele>
        <time>2013-09-27T08:36:00Z</time>
      </trkpt>
      <trkpt lat="45.21006" lon="4.81102">
        <ele>136.16</ele>
        <time>2013-09-27T08:36:03Z</time>
      </trkpt>
      <trkpt lat="45.21027" lon="4.8109">
        <ele>136.16</ele>
        <time>2013-09-27T08:36:06Z</time>
      </trkpt>
      <trkpt lat="45.21048" lon="4.8108">
        <ele>136.64</ele>
        <time>2013-09-27T08:36:09Z</time>
      </trkpt>
      <trkpt lat="45.2107" lon="4.81069">
        <ele>136.16</ele>
        <time>2013-09-27T08:36:12Z</time>
      </trkpt>
      <trkpt lat="45.21092" lon="4.81059">
        <ele>136.64</ele>
        <time>2013-09-27T08:36:15Z</time>
      </trkpt>
      <trkpt lat="45.21112" lon="4.81048">
        <ele>136.64</ele>
        <time>2013-09-27T08:36:18Z</time>
      </trkpt>
      <trkpt lat="45.21133" lon="4.81037">
        <ele>136.64</ele>
        <time>2013-09-27T08:36:21Z</time>
      </trkpt>
      <trkpt lat="45.21154" lon="4.81028">
        <ele>136.64</ele>
        <time>2013-09-27T08:36:24Z</time>
      </trkpt>
      <trkpt lat="45.21175" lon="4.81021">
        <ele>136.64</ele>
        <time>2013-09-27T08:36:27Z</time>
      </trkpt>
      <trkpt lat="45.21195" lon="4.81014">
        <ele>136.64</ele>
        <time>2013-09-27T08:36:30Z</time>
      </trkpt>
      <trkpt lat="45.21214" lon="4.81006">
        <ele>136.64</ele>
        <time>2013-09-27T08:36:33Z</time>
      </trkpt>
      <trkpt lat="45.21233" lon="4.81">
        <ele>136.64</ele>
        <time>2013-09-27T08:36:36Z</time>
      </trkpt>
      <trkpt lat="45.21252" lon="4.80994">
        <ele>137.13</ele>
        <time>2013-09-27T08:36:39Z</time>
      </trkpt>
      <trkpt lat="45.2127" lon="4.80988">
        <ele>137.13</ele>
        <time>2013-09-27T08:36:42Z</time>
      </trkpt>
      <trkpt lat="45.21292" lon="4.80984">
        <ele>136.64</ele>
        <time>2013-09-27T08:36:46Z</time>
      </trkpt>
      <trkpt lat="45.21315" lon="4.80981">
        <ele>136.64</ele>
        <time>2013-09-27T08:36:50Z</time>
      </trkpt>
      <trkpt lat="45.21337" lon="4.80975">
        <ele>136.64</ele>
        <time>2013-09-27T08:36:54Z</time>
      </trkpt>
      <trkpt lat="45.21358" lon="4.80969">
        <ele>137.13</ele>
        <time>2013-09-27T08:36:58Z</time>
      </trkpt>
      <trkpt lat="45.2138" lon="4.80962">
        <ele>136.16</ele>
        <time>2013-09-27T08:37:02Z</time>
      </trkpt>
      <trkpt lat="45.21398" lon="4.80957">
        <ele>135.68</ele>
        <time>2013-09-27T08:37:05Z</time>
      </trkpt>
      <trkpt lat="45.21418" lon="4.80951">
        <ele>135.68</ele>
        <time>2013-09-27T08:37:08Z</time>
      </trkpt>
      <trkpt lat="45.21438" lon="4.80945">
        <ele>135.68</ele>
        <time>2013-09-27T08:37:11Z</time>
      </trkpt>
      <trkpt lat="45.21458" lon="4.80939">
        <ele>136.16</ele>
        <time>2013-09-27T08:37:14Z</time>
      </trkpt>
      <trkpt lat="45.21478" lon="4.80934">
        <ele>135.68</ele>
        <time>2013-09-27T08:37:17Z</time>
      </trkpt>
      <trkpt lat="45.21498" lon="4.80927">
        <ele>136.64</ele>
        <time>2013-09-27T08:37:20Z</time>
      </trkpt>
      <trkpt lat="45.21518" lon="4.80923">
        <ele>136.64</ele>
        <time>2013-09-27T08:37:23Z</time>
      </trkpt>
      <trkpt lat="45.21538" lon="4.8092">
        <ele>137.13</ele>
        <time>2013-09-27T08:37:26Z</time>
      </trkpt>
      <trkpt lat="45.21559" lon="4.80917">
        <ele>136.64</ele>
        <time>2013-09-27T08:37:29Z</time>
      </trkpt>
      <trkpt lat="45.21581" lon="4.80913">
        <ele>136.64</ele>
        <time>2013-09-27T08:37:32Z</time>
      </trkpt>
      <trkpt lat="45.21603" lon="4.80908">
        <ele>136.16</ele>
        <time>2013-09-27T08:37:35Z</time>
      </trkpt>
      <trkpt lat="45.21626" lon="4.80903">
        <ele>136.16</ele>
        <time>2013-09-27T08:37:38Z</time>
      </trkpt>
      <trkpt lat="45.21648" lon="4.80898">
        <ele>136.16</ele>
        <time>2013-09-27T08:37:41Z</time>
      </trkpt>
      <trkpt lat="45.21668" lon="4.80892">
        <ele>136.64</ele>
        <time>2013-09-27T08:37:44Z</time>
      </trkpt>
      <trkpt lat="45.21686" lon="4.80886">
        <ele>136.16</ele>
        <time>2013-09-27T08:37:47Z</time>
      </trkpt>
      <trkpt lat="45.2171" lon="4.80881">
        <ele>136.64</ele>
        <time>2013-09-27T08:37:51Z</time>
      </trkpt>
      <trkpt lat="45.21732" lon="4.80876">
        <ele>136.64</ele>
        <time>2013-09-27T08:37:55Z</time>
      </trkpt>
      <trkpt lat="45.21753" lon="4.8087">
        <ele>136.64</ele>
        <time>2013-09-27T08:37:59Z</time>
      </trkpt>
      <trkpt lat="45.21776" lon="4.80865">
        <ele>136.64</ele>
        <time>2013-09-27T08:38:03Z</time>
      </trkpt>
      <trkpt lat="45.21799" lon="4.80861">
        <ele>137.13</ele>
        <time>2013-09-27T08:38:07Z</time>
      </trkpt>
      <trkpt lat="45.2182" lon="4.80857">
        <ele>137.13</ele>
        <time>2013-09-27T08:38:11Z</time>
      </trkpt>
      <trkpt lat="45.21841" lon="4.8085">
        <ele>136.64</ele>
        <time>2013-09-27T08:38:15Z</time>
      </trkpt>
      <trkpt lat="45.21865" lon="4.80846">
        <ele>135.2</ele>
        <time>2013-09-27T08:38:19Z</time>
      </trkpt>
      <trkpt lat="45.21886" lon="4.80846">
        <ele>134.72</ele>
        <time>2013-09-27T08:38:22Z</time>
      </trkpt>
      <trkpt lat="45.21904" lon="4.80835">
        <ele>135.2</ele>
        <time>2013-09-27T08:38:25Z</time>
      </trkpt>
      <trkpt lat="45.21928" lon="4.80819">
        <ele>135.2</ele>
        <time>2013-09-27T08:38:29Z</time>
      </trkpt>
      <trkpt lat="45.21952" lon="4.80812">
        <ele>135.2</ele>
        <time>2013-09-27T08:38:33Z</time>
      </trkpt>
      <trkpt lat="45.2197" lon="4.80805">
        <ele>134.72</ele>
        <time>2013-09-27T08:38:36Z</time>
      </trkpt>
      <trkpt lat="45.21989" lon="4.80798">
        <ele>134.72</ele>
        <time>2013-09-27T08:38:39Z</time>
      </trkpt>
      <trkpt lat="45.22007" lon="4.80792">
        <ele>134.72</ele>
        <time>2013-09-27T08:38:42Z</time>
      </trkpt>
      <trkpt lat="45.22024" lon="4.80788">
        <ele>134.72</ele>
        <time>2013-09-27T08:38:45Z</time>
      </trkpt>
      <trkpt lat="45.22046" lon="4.80784">
        <ele>135.2</ele>
        <time>2013-09-27T08:38:49Z</time>
      </trkpt>
      <trkpt lat="45.22066" lon="4.80771">
        <ele>134.72</ele>
        <time>2013-09-27T08:38:53Z</time>
      </trkpt>
      <trkpt lat="45.22089" lon="4.80761">
        <ele>134.72</ele>
        <time>2013-09-27T08:38:57Z</time>
      </trkpt>
      <trkpt lat="45.2211" lon="4.8075">
        <ele>135.2</ele>
        <time>2013-09-27T08:39:01Z</time>
      </trkpt>
      <trkpt lat="45.22133" lon="4.80739">
        <ele>134.72</ele>
        <time>2013-09-27T08:39:05Z</time>
      </trkpt>
      <trkpt lat="45.22155" lon="4.80731">
        <ele>135.68</ele>
        <time>2013-09-27T08:39:09Z</time>
      </trkpt>
      <trkpt lat="45.22178" lon="4.80721">
        <ele>135.2</ele>
        <time>2013-09-27T08:39:13Z</time>
      </trkpt>
      <trkpt lat="45.22196" lon="4.80714">
        <ele>135.68</ele>
        <time>2013-09-27T08:39:16Z</time>
      </trkpt>
      <trkpt lat="45.22214" lon="4.80707">
        <ele>135.68</ele>
        <time>2013-09-27T08:39:19Z</time>
      </trkpt>
      <trkpt lat="45.22235" lon="4.80695">
        <ele>135.68</ele>
        <time>2013-09-27T08:39:23Z</time>
      </trkpt>
      <trkpt lat="45.22258" lon="4.80684">
        <ele>137.13</ele>
        <time>2013-09-27T08:39:27Z</time>
      </trkpt>
      <trkpt lat="45.22276" lon="4.80675">
        <ele>136.16</ele>
        <time>2013-09-27T08:39:30Z</time>
      </trkpt>
      <trkpt lat="45.22294" lon="4.80666">
        <ele>136.16</ele>
        <time>2013-09-27T08:39:33Z</time>
      </trkpt>
      <trkpt lat="45.22312" lon="4.80657">
        <ele>136.16</ele>
        <time>2013-09-27T08:39:36Z</time>
      </trkpt>
      <trkpt lat="45.22335" lon="4.80645">
        <ele>136.16</ele>
        <time>2013-09-27T08:39:40Z</time>
      </trkpt>
      <trkpt lat="45.22352" lon="4.80636">
        <ele>136.16</ele>
        <time>2013-09-27T08:39:43Z</time>
      </trkpt>
      <trkpt lat="45.22374" lon="4.80625">
        <ele>137.61</ele>
        <time>2013-09-27T08:39:47Z</time>
      </trkpt>
      <trkpt lat="45.22395" lon="4.80614">
        <ele>137.13</ele>
        <time>2013-09-27T08:39:51Z</time>
      </trkpt>
      <trkpt lat="45.22416" lon="4.80602">
        <ele>136.64</ele>
        <time>2013-09-27T08:39:55Z</time>
      </trkpt>
      <trkpt lat="45.22436" lon="4.80591">
        <ele>135.68</ele>
        <time>2013-09-27T08:39:59Z</time>
      </trkpt>
      <trkpt lat="45.22455" lon="4.8058">
        <ele>137.13</ele>
        <time>2013-09-27T08:40:03Z</time>
      </trkpt>
      <trkpt lat="45.22476" lon="4.80569">
        <ele>137.13</ele>
        <time>2013-09-27T08:40:07Z</time>
      </trkpt>
      <trkpt lat="45.22496" lon="4.80558">
        <ele>137.13</ele>
        <time>2013-09-27T08:40:11Z</time>
      </trkpt>
      <trkpt lat="45.22516" lon="4.80546">
        <ele>137.13</ele>
        <time>2013-09-27T08:40:15Z</time>
      </trkpt>
      <trkpt lat="45.22538" lon="4.80535">
        <ele>137.61</ele>
        <time>2013-09-27T08:40:19Z</time>
      </trkpt>
      <trkpt lat="45.2256" lon="4.80525">
        <ele>137.61</ele>
        <time>2013-09-27T08:40:23Z</time>
      </trkpt>
      <trkpt lat="45.22582" lon="4.80512">
        <ele>137.61</ele>
        <time>2013-09-27T08:40:27Z</time>
      </trkpt>
      <trkpt lat="45.22599" lon="4.80501">
        <ele>137.13</ele>
        <time>2013-09-27T08:40:30Z</time>
      </trkpt>
      <trkpt lat="45.22621" lon="4.8049">
        <ele>137.61</ele>
        <time>2013-09-27T08:40:34Z</time>
      </trkpt>
      <trkpt lat="45.22644" lon="4.8048">
        <ele>137.61</ele>
        <time>2013-09-27T08:40:38Z</time>
      </trkpt>
      <trkpt lat="45.22667" lon="4.80471">
        <ele>137.61</ele>
        <time>2013-09-27T08:40:42Z</time>
      </trkpt>
      <trkpt lat="45.22684" lon="4.80465">
        <ele>138.57</ele>
        <time>2013-09-27T08:40:45Z</time>
      </trkpt>
      <trkpt lat="45.22703" lon="4.80458">
        <ele>138.09</ele>
        <time>2013-09-27T08:40:48Z</time>
      </trkpt>
      <trkpt lat="45.2272" lon="4.80452">
        <ele>138.57</ele>
        <time>2013-09-27T08:40:51Z</time>
      </trkpt>
      <trkpt lat="45.22738" lon="4.80445">
        <ele>138.09</ele>
        <time>2013-09-27T08:40:54Z</time>
      </trkpt>
      <trkpt lat="45.22756" lon="4.80439">
        <ele>138.09</ele>
        <time>2013-09-27T08:40:57Z</time>
      </trkpt>
      <trkpt lat="45.22775" lon="4.80433">
        <ele>138.09</ele>
        <time>2013-09-27T08:41:00Z</time>
      </trkpt>
      <trkpt lat="45.22793" lon="4.80427">
        <ele>138.09</ele>
        <time>2013-09-27T08:41:03Z</time>
      </trkpt>
      <trkpt lat="45.22812" lon="4.80421">
        <ele>138.09</ele>
        <time>2013-09-27T08:41:06Z</time>
      </trkpt>
      <trkpt lat="45.22829" lon="4.80417">
        <ele>137.61</ele>
        <time>2013-09-27T08:41:09Z</time>
      </trkpt>
      <trkpt lat="45.22853" lon="4.80411">
        <ele>138.09</ele>
        <time>2013-09-27T08:41:13Z</time>
      </trkpt>
      <trkpt lat="45.22873" lon="4.80409">
        <ele>137.13</ele>
        <time>2013-09-27T08:41:17Z</time>
      </trkpt>
      <trkpt lat="45.22857" lon="4.8041">
        <ele>138.09</ele>
        <time>2013-09-27T08:41:33Z</time>
      </trkpt>
      <trkpt lat="45.22836" lon="4.80415">
        <ele>137.61</ele>
        <time>2013-09-27T08:41:38Z</time>
      </trkpt>
      <trkpt lat="45.22827" lon="4.80417">
        <ele>137.61</ele>
        <time>2013-09-27T08:42:24Z</time>
      </trkpt>
      <trkpt lat="45.22846" lon="4.80412">
        <ele>137.61</ele>
        <time>2013-09-27T08:42:43Z</time>
      </trkpt>
      <trkpt lat="45.22869" lon="4.8041">
        <ele>137.61</ele>
        <time>2013-09-27T08:42:49Z</time>
      </trkpt>
      <trkpt lat="45.22887" lon="4.80409">
        <ele>137.61</ele>
        <time>2013-09-27T08:42:53Z</time>
      </trkpt>
      <trkpt lat="45.2291" lon="4.80407">
        <ele>137.61</ele>
        <time>2013-09-27T08:42:57Z</time>
      </trkpt>
      <trkpt lat="45.22932" lon="4.80406">
        <ele>137.13</ele>
        <time>2013-09-27T08:43:01Z</time>
      </trkpt>
      <trkpt lat="45.22951" lon="4.80406">
        <ele>138.09</ele>
        <time>2013-09-27T08:43:04Z</time>
      </trkpt>
      <trkpt lat="45.2297" lon="4.80407">
        <ele>137.61</ele>
        <time>2013-09-27T08:43:07Z</time>
      </trkpt>
      <trkpt lat="45.2299" lon="4.80408">
        <ele>137.61</ele>
        <time>2013-09-27T08:43:10Z</time>
      </trkpt>
      <trkpt lat="45.23009" lon="4.8041">
        <ele>137.61</ele>
        <time>2013-09-27T08:43:13Z</time>
      </trkpt>
      <trkpt lat="45.23029" lon="4.80415">
        <ele>137.61</ele>
        <time>2013-09-27T08:43:16Z</time>
      </trkpt>
      <trkpt lat="45.23048" lon="4.80422">
        <ele>137.61</ele>
        <time>2013-09-27T08:43:19Z</time>
      </trkpt>
      <trkpt lat="45.23069" lon="4.80425">
        <ele>136.64</ele>
        <time>2013-09-27T08:43:22Z</time>
      </trkpt>
      <trkpt lat="45.23094" lon="4.80425">
        <ele>135.2</ele>
        <time>2013-09-27T08:43:25Z</time>
      </trkpt>
      <trkpt lat="45.23118" lon="4.80431">
        <ele>135.68</ele>
        <time>2013-09-27T08:43:28Z</time>
      </trkpt>
      <trkpt lat="45.23142" lon="4.80433">
        <ele>135.68</ele>
        <time>2013-09-27T08:43:31Z</time>
      </trkpt>
      <trkpt lat="45.23166" lon="4.80434">
        <ele>135.2</ele>
        <time>2013-09-27T08:43:34Z</time>
      </trkpt>
      <trkpt lat="45.23186" lon="4.80436">
        <ele>136.16</ele>
        <time>2013-09-27T08:43:37Z</time>
      </trkpt>
      <trkpt lat="45.23207" lon="4.8044">
        <ele>135.68</ele>
        <time>2013-09-27T08:43:40Z</time>
      </trkpt>
      <trkpt lat="45.23226" lon="4.80443">
        <ele>136.16</ele>
        <time>2013-09-27T08:43:43Z</time>
      </trkpt>
      <trkpt lat="45.23246" lon="4.80443">
        <ele>136.16</ele>
        <time>2013-09-27T08:43:46Z</time>
      </trkpt>
      <trkpt lat="45.23266" lon="4.80441">
        <ele>136.16</ele>
        <time>2013-09-27T08:43:49Z</time>
      </trkpt>
      <trkpt lat="45.23285" lon="4.80432">
        <ele>135.68</ele>
        <time>2013-09-27T08:43:52Z</time>
      </trkpt>
      <trkpt lat="45.23304" lon="4.80427">
        <ele>135.68</ele>
        <time>2013-09-27T08:43:55Z</time>
      </trkpt>
      <trkpt lat="45.23324" lon="4.80426">
        <ele>135.68</ele>
        <time>2013-09-27T08:43:58Z</time>
      </trkpt>
      <trkpt lat="45.23342" lon="4.80427">
        <ele>136.16</ele>
        <time>2013-09-27T08:44:01Z</time>
      </trkpt>
      <trkpt lat="45.23361" lon="4.80429">
        <ele>135.68</ele>
        <time>2013-09-27T08:44:04Z</time>
      </trkpt>
      <trkpt lat="45.23385" lon="4.80435">
        <ele>135.68</ele>
        <time>2013-09-27T08:44:08Z</time>
      </trkpt>
      <trkpt lat="45.23407" lon="4.80442">
        <ele>136.16</ele>
        <time>2013-09-27T08:44:12Z</time>
      </trkpt>
      <trkpt lat="45.23426" lon="4.80448">
        <ele>136.16</ele>
        <time>2013-09-27T08:44:15Z</time>
      </trkpt>
      <trkpt lat="45.23444" lon="4.80452">
        <ele>136.16</ele>
        <time>2013-09-27T08:44:18Z</time>
      </trkpt>
      <trkpt lat="45.23463" lon="4.80456">
        <ele>136.16</ele>
        <time>2013-09-27T08:44:21Z</time>
      </trkpt>
      <trkpt lat="45.23481" lon="4.80459">
        <ele>136.16</ele>
        <time>2013-09-27T08:44:24Z</time>
      </trkpt>
      <trkpt lat="45.235" lon="4.80465">
        <ele>136.64</ele>
        <time>2013-09-27T08:44:27Z</time>
      </trkpt>
      <trkpt lat="45.23519" lon="4.8047">
        <ele>136.64</ele>
        <time>2013-09-27T08:44:30Z</time>
      </trkpt>
      <trkpt lat="45.23537" lon="4.80477">
        <ele>136.64</ele>
        <time>2013-09-27T08:44:33Z</time>
      </trkpt>
      <trkpt lat="45.23555" lon="4.80481">
        <ele>136.64</ele>
        <time>2013-09-27T08:44:36Z</time>
      </trkpt>
      <trkpt lat="45.23575" lon="4.80484">
        <ele>136.64</ele>
        <time>2013-09-27T08:44:39Z</time>
      </trkpt>
      <trkpt lat="45.23594" lon="4.80489">
        <ele>136.16</ele>
        <time>2013-09-27T08:44:42Z</time>
      </trkpt>
      <trkpt lat="45.23612" lon="4.80496">
        <ele>136.16</ele>
        <time>2013-09-27T08:44:45Z</time>
      </trkpt>
      <trkpt lat="45.23632" lon="4.80502">
        <ele>136.16</ele>
        <time>2013-09-27T08:44:48Z</time>
      </trkpt>
      <trkpt lat="45.23652" lon="4.80504">
        <ele>136.16</ele>
        <time>2013-09-27T08:44:51Z</time>
      </trkpt>
      <trkpt lat="45.2367" lon="4.80508">
        <ele>135.68</ele>
        <time>2013-09-27T08:44:54Z</time>
      </trkpt>
      <trkpt lat="45.23688" lon="4.80515">
        <ele>135.68</ele>
        <time>2013-09-27T08:44:57Z</time>
      </trkpt>
      <trkpt lat="45.23707" lon="4.80525">
        <ele>135.68</ele>
        <time>2013-09-27T08:45:00Z</time>
      </trkpt>
      <trkpt lat="45.23724" lon="4.80538">
        <ele>136.16</ele>
        <time>2013-09-27T08:45:03Z</time>
      </trkpt>
      <trkpt lat="45.23745" lon="4.80556">
        <ele>135.68</ele>
        <time>2013-09-27T08:45:07Z</time>
      </trkpt>
      <trkpt lat="45.23763" lon="4.80571">
        <ele>136.16</ele>
        <time>2013-09-27T08:45:10Z</time>
      </trkpt>
      <trkpt lat="45.23781" lon="4.80585">
        <ele>136.16</ele>
        <time>2013-09-27T08:45:13Z</time>
      </trkpt>
      <trkpt lat="45.238" lon="4.80601">
        <ele>136.16</ele>
        <time>2013-09-27T08:45:16Z</time>
      </trkpt>
      <trkpt lat="45.23817" lon="4.80617">
        <ele>136.16</ele>
        <time>2013-09-27T08:45:19Z</time>
      </trkpt>
      <trkpt lat="45.23833" lon="4.80632">
        <ele>136.16</ele>
        <time>2013-09-27T08:45:22Z</time>
      </trkpt>
      <trkpt lat="45.23849" lon="4.80652">
        <ele>135.68</ele>
        <time>2013-09-27T08:45:26Z</time>
      </trkpt>
      <trkpt lat="45.23871" lon="4.80652">
        <ele>135.68</ele>
        <time>2013-09-27T08:45:32Z</time>
      </trkpt>
      <trkpt lat="45.23889" lon="4.80646">
        <ele>135.2</ele>
        <time>2013-09-27T08:45:36Z</time>
      </trkpt>
      <trkpt lat="45.23908" lon="4.80633">
        <ele>135.2</ele>
        <time>2013-09-27T08:45:40Z</time>
      </trkpt>
      <trkpt lat="45.23902" lon="4.80608">
        <ele>136.16</ele>
        <time>2013-09-27T08:45:45Z</time>
      </trkpt>
      <trkpt lat="45.23885" lon="4.80587">
        <ele>137.13</ele>
        <time>2013-09-27T08:45:49Z</time>
      </trkpt>
      <trkpt lat="45.23867" lon="4.80566">
        <ele>137.13</ele>
        <time>2013-09-27T08:45:53Z</time>
      </trkpt>
      <trkpt lat="45.23847" lon="4.80545">
        <ele>136.64</ele>
        <time>2013-09-27T08:45:57Z</time>
      </trkpt>
      <trkpt lat="45.23832" lon="4.8053">
        <ele>137.13</ele>
        <time>2013-09-27T08:46:00Z</time>
      </trkpt>
      <trkpt lat="45.23817" lon="4.80514">
        <ele>136.64</ele>
        <time>2013-09-27T08:46:03Z</time>
      </trkpt>
      <trkpt lat="45.23802" lon="4.80498">
        <ele>136.64</ele>
        <time>2013-09-27T08:46:06Z</time>
      </trkpt>
      <trkpt lat="45.23785" lon="4.8048">
        <ele>136.64</ele>
        <time>2013-09-27T08:46:09Z</time>
      </trkpt>
      <trkpt lat="45.23769" lon="4.80462">
        <ele>137.13</ele>
        <time>2013-09-27T08:46:12Z</time>
      </trkpt>
      <trkpt lat="45.23753" lon="4.80446">
        <ele>136.64</ele>
        <time>2013-09-27T08:46:15Z</time>
      </trkpt>
      <trkpt lat="45.23736" lon="4.80432">
        <ele>136.64</ele>
        <time>2013-09-27T08:46:18Z</time>
      </trkpt>
      <trkpt lat="45.23721" lon="4.80417">
        <ele>136.16</ele>
        <time>2013-09-27T08:46:21Z</time>
      </trkpt>
      <trkpt lat="45.23701" lon="4.80397">
        <ele>136.64</ele>
        <time>2013-09-27T08:46:25Z</time>
      </trkpt>
      <trkpt lat="45.237" lon="4.80369">
        <ele>135.68</ele>
        <time>2013-09-27T08:46:29Z</time>
      </trkpt>
      <trkpt lat="45.23719" lon="4.80359">
        <ele>136.16</ele>
        <time>2013-09-27T08:46:34Z</time>
      </trkpt>
      <trkpt lat="45.23741" lon="4.80355">
        <ele>136.16</ele>
        <time>2013-09-27T08:46:37Z</time>
      </trkpt>
      <trkpt lat="45.23766" lon="4.80353">
        <ele>136.64</ele>
        <time>2013-09-27T08:46:40Z</time>
      </trkpt>
      <trkpt lat="45.23789" lon="4.80349">
        <ele>136.64</ele>
        <time>2013-09-27T08:46:43Z</time>
      </trkpt>
      <trkpt lat="45.2381" lon="4.80345">
        <ele>136.16</ele>
        <time>2013-09-27T08:46:46Z</time>
      </trkpt>
      <trkpt lat="45.23831" lon="4.80342">
        <ele>136.16</ele>
        <time>2013-09-27T08:46:49Z</time>
      </trkpt>
      <trkpt lat="45.23852" lon="4.80337">
        <ele>136.16</ele>
        <time>2013-09-27T08:46:52Z</time>
      </trkpt>
      <trkpt lat="45.23873" lon="4.80332">
        <ele>136.64</ele>
        <time>2013-09-27T08:46:55Z</time>
      </trkpt>
      <trkpt lat="45.23894" lon="4.80327">
        <ele>136.64</ele>
        <time>2013-09-27T08:46:58Z</time>
      </trkpt>
      <trkpt lat="45.23915" lon="4.80322">
        <ele>136.16</ele>
        <time>2013-09-27T08:47:01Z</time>
      </trkpt>
      <trkpt lat="45.23936" lon="4.80315">
        <ele>136.16</ele>
        <time>2013-09-27T08:47:04Z</time>
      </trkpt>
      <trkpt lat="45.23956" lon="4.80309">
        <ele>136.16</ele>
        <time>2013-09-27T08:47:07Z</time>
      </trkpt>
      <trkpt lat="45.23975" lon="4.80306">
        <ele>136.16</ele>
        <time>2013-09-27T08:47:10Z</time>
      </trkpt>
      <trkpt lat="45.23995" lon="4.80305">
        <ele>135.68</ele>
        <time>2013-09-27T08:47:13Z</time>
      </trkpt>
      <trkpt lat="45.24015" lon="4.80303">
        <ele>135.2</ele>
        <time>2013-09-27T08:47:16Z</time>
      </trkpt>
      <trkpt lat="45.24033" lon="4.80301">
        <ele>135.2</ele>
        <time>2013-09-27T08:47:19Z</time>
      </trkpt>
      <trkpt lat="45.24054" lon="4.803">
        <ele>134.72</ele>
        <time>2013-09-27T08:47:23Z</time>
      </trkpt>
      <trkpt lat="45.24062" lon="4.803">
        <ele>134.72</ele>
        <time>2013-09-27T08:49:14Z</time>
      </trkpt>
      <trkpt lat="45.24083" lon="4.803">
        <ele>135.68</ele>
        <time>2013-09-27T08:49:33Z</time>
      </trkpt>
      <trkpt lat="45.24105" lon="4.80295">
        <ele>135.68</ele>
        <time>2013-09-27T08:49:38Z</time>
      </trkpt>
      <trkpt lat="45.24124" lon="4.80288">
        <ele>135.68</ele>
        <time>2013-09-27T08:49:41Z</time>
      </trkpt>
      <trkpt lat="45.24143" lon="4.80282">
        <ele>135.2</ele>
        <time>2013-09-27T08:49:44Z</time>
      </trkpt>
      <trkpt lat="45.24161" lon="4.80275">
        <ele>135.2</ele>
        <time>2013-09-27T08:49:47Z</time>
      </trkpt>
      <trkpt lat="45.24182" lon="4.80269">
        <ele>135.68</ele>
        <time>2013-09-27T08:49:50Z</time>
      </trkpt>
      <trkpt lat="45.24202" lon="4.80263">
        <ele>135.68</ele>
        <time>2013-09-27T08:49:53Z</time>
      </trkpt>
      <trkpt lat="45.24224" lon="4.8026">
        <ele>135.68</ele>
        <time>2013-09-27T08:49:56Z</time>
      </trkpt>
      <trkpt lat="45.24243" lon="4.80267">
        <ele>135.68</ele>
        <time>2013-09-27T08:49:59Z</time>
      </trkpt>
      <trkpt lat="45.24262" lon="4.80275">
        <ele>135.68</ele>
        <time>2013-09-27T08:50:02Z</time>
      </trkpt>
      <trkpt lat="45.24281" lon="4.80283">
        <ele>135.2</ele>
        <time>2013-09-27T08:50:05Z</time>
      </trkpt>
      <trkpt lat="45.24298" lon="4.80295">
        <ele>135.68</ele>
        <time>2013-09-27T08:50:08Z</time>
      </trkpt>
      <trkpt lat="45.24318" lon="4.80308">
        <ele>136.16</ele>
        <time>2013-09-27T08:50:12Z</time>
      </trkpt>
      <trkpt lat="45.24341" lon="4.80313">
        <ele>136.16</ele>
        <time>2013-09-27T08:50:16Z</time>
      </trkpt>
      <trkpt lat="45.24365" lon="4.80313">
        <ele>136.64</ele>
        <time>2013-09-27T08:50:20Z</time>
      </trkpt>
      <trkpt lat="45.24383" lon="4.80313">
        <ele>137.13</ele>
        <time>2013-09-27T08:50:23Z</time>
      </trkpt>
      <trkpt lat="45.24407" lon="4.80314">
        <ele>136.64</ele>
        <time>2013-09-27T08:50:27Z</time>
      </trkpt>
      <trkpt lat="45.24426" lon="4.80314">
        <ele>137.13</ele>
        <time>2013-09-27T08:50:30Z</time>
      </trkpt>
      <trkpt lat="45.2445" lon="4.80315">
        <ele>137.13</ele>
        <time>2013-09-27T08:50:34Z</time>
      </trkpt>
      <trkpt lat="45.24471" lon="4.80317">
        <ele>137.13</ele>
        <time>2013-09-27T08:50:38Z</time>
      </trkpt>
      <trkpt lat="45.24474" lon="4.80345">
        <ele>137.61</ele>
        <time>2013-09-27T08:50:43Z</time>
      </trkpt>
      <trkpt lat="45.24471" lon="4.80376">
        <ele>138.57</ele>
        <time>2013-09-27T08:50:47Z</time>
      </trkpt>
      <trkpt lat="45.24469" lon="4.80402">
        <ele>139.05</ele>
        <time>2013-09-27T08:50:50Z</time>
      </trkpt>
      <trkpt lat="45.24467" lon="4.8043">
        <ele>139.53</ele>
        <time>2013-09-27T08:50:53Z</time>
      </trkpt>
      <trkpt lat="45.24465" lon="4.80458">
        <ele>140.97</ele>
        <time>2013-09-27T08:50:56Z</time>
      </trkpt>
      <trkpt lat="45.24464" lon="4.80485">
        <ele>141.45</ele>
        <time>2013-09-27T08:50:59Z</time>
      </trkpt>
      <trkpt lat="45.2446" lon="4.80517">
        <ele>142.41</ele>
        <time>2013-09-27T08:51:03Z</time>
      </trkpt>
      <trkpt lat="45.24458" lon="4.80548">
        <ele>143.37</ele>
        <time>2013-09-27T08:51:07Z</time>
      </trkpt>
      <trkpt lat="45.24455" lon="4.80579">
        <ele>143.85</ele>
        <time>2013-09-27T08:51:11Z</time>
      </trkpt>
      <trkpt lat="45.24454" lon="4.80609">
        <ele>143.85</ele>
        <time>2013-09-27T08:51:15Z</time>
      </trkpt>
      <trkpt lat="45.24454" lon="4.80635">
        <ele>143.85</ele>
        <time>2013-09-27T08:51:21Z</time>
      </trkpt>
      <trkpt lat="45.24473" lon="4.80642">
        <ele>144.34</ele>
        <time>2013-09-27T08:51:29Z</time>
      </trkpt>
      <trkpt lat="45.24494" lon="4.80646">
        <ele>144.34</ele>
        <time>2013-09-27T08:51:33Z</time>
      </trkpt>
      <trkpt lat="45.24517" lon="4.80653">
        <ele>144.34</ele>
        <time>2013-09-27T08:51:37Z</time>
      </trkpt>
      <trkpt lat="45.24538" lon="4.8066">
        <ele>144.34</ele>
        <time>2013-09-27T08:51:41Z</time>
      </trkpt>
      <trkpt lat="45.2456" lon="4.80668">
        <ele>143.85</ele>
        <time>2013-09-27T08:51:45Z</time>
      </trkpt>
      <trkpt lat="45.24581" lon="4.8068">
        <ele>143.37</ele>
        <time>2013-09-27T08:51:49Z</time>
      </trkpt>
      <trkpt lat="45.24601" lon="4.80696">
        <ele>143.37</ele>
        <time>2013-09-27T08:51:53Z</time>
      </trkpt>
      <trkpt lat="45.24621" lon="4.80712">
        <ele>142.89</ele>
        <time>2013-09-27T08:51:57Z</time>
      </trkpt>
      <trkpt lat="45.24642" lon="4.80727">
        <ele>142.89</ele>
        <time>2013-09-27T08:52:01Z</time>
      </trkpt>
      <trkpt lat="45.24662" lon="4.80741">
        <ele>142.41</ele>
        <time>2013-09-27T08:52:05Z</time>
      </trkpt>
      <trkpt lat="45.24681" lon="4.80754">
        <ele>142.41</ele>
        <time>2013-09-27T08:52:09Z</time>
      </trkpt>
      <trkpt lat="45.24701" lon="4.80769">
        <ele>142.41</ele>
        <time>2013-09-27T08:52:13Z</time>
      </trkpt>
      <trkpt lat="45.24718" lon="4.80781">
        <ele>142.41</ele>
        <time>2013-09-27T08:52:16Z</time>
      </trkpt>
      <trkpt lat="45.24735" lon="4.80794">
        <ele>141.93</ele>
        <time>2013-09-27T08:52:19Z</time>
      </trkpt>
      <trkpt lat="45.24754" lon="4.80807">
        <ele>141.93</ele>
        <time>2013-09-27T08:52:22Z</time>
      </trkpt>
      <trkpt lat="45.24772" lon="4.80821">
        <ele>141.45</ele>
        <time>2013-09-27T08:52:25Z</time>
      </trkpt>
      <trkpt lat="45.2479" lon="4.80836">
        <ele>141.45</ele>
        <time>2013-09-27T08:52:28Z</time>
      </trkpt>
      <trkpt lat="45.24809" lon="4.8085">
        <ele>141.93</ele>
        <time>2013-09-27T08:52:31Z</time>
      </trkpt>
      <trkpt lat="45.24828" lon="4.80864">
        <ele>141.45</ele>
        <time>2013-09-27T08:52:34Z</time>
      </trkpt>
      <trkpt lat="45.24847" lon="4.80878">
        <ele>141.45</ele>
        <time>2013-09-27T08:52:37Z</time>
      </trkpt>
      <trkpt lat="45.24866" lon="4.80891">
        <ele>141.45</ele>
        <time>2013-09-27T08:52:40Z</time>
      </trkpt>
      <trkpt lat="45.24884" lon="4.80904">
        <ele>141.45</ele>
        <time>2013-09-27T08:52:43Z</time>
      </trkpt>
      <trkpt lat="45.24903" lon="4.80916">
        <ele>141.93</ele>
        <time>2013-09-27T08:52:46Z</time>
      </trkpt>
      <trkpt lat="45.24923" lon="4.80928">
        <ele>141.45</ele>
        <time>2013-09-27T08:52:49Z</time>
      </trkpt>
      <trkpt lat="45.24942" lon="4.8094">
        <ele>141.45</ele>
        <time>2013-09-27T08:52:52Z</time>
      </trkpt>
      <trkpt lat="45.2496" lon="4.80954">
        <ele>141.93</ele>
        <time>2013-09-27T08:52:55Z</time>
      </trkpt>
      <trkpt lat="45.24976" lon="4.8097">
        <ele>142.41</ele>
        <time>2013-09-27T08:52:58Z</time>
      </trkpt>
      <trkpt lat="45.24992" lon="4.80986">
        <ele>141.93</ele>
        <time>2013-09-27T08:53:01Z</time>
      </trkpt>
      <trkpt lat="45.2501" lon="4.81001">
        <ele>141.45</ele>
        <time>2013-09-27T08:53:04Z</time>
      </trkpt>
      <trkpt lat="45.25029" lon="4.81015">
        <ele>140.49</ele>
        <time>2013-09-27T08:53:07Z</time>
      </trkpt>
      <trkpt lat="45.25048" lon="4.81027">
        <ele>140.97</ele>
        <time>2013-09-27T08:53:10Z</time>
      </trkpt>
      <trkpt lat="45.25066" lon="4.8104">
        <ele>140.97</ele>
        <time>2013-09-27T08:53:13Z</time>
      </trkpt>
      <trkpt lat="45.25083" lon="4.81052">
        <ele>140.49</ele>
        <time>2013-09-27T08:53:16Z</time>
      </trkpt>
      <trkpt lat="45.25101" lon="4.81066">
        <ele>140.49</ele>
        <time>2013-09-27T08:53:19Z</time>
      </trkpt>
      <trkpt lat="45.25116" lon="4.81079">
        <ele>140.01</ele>
        <time>2013-09-27T08:53:22Z</time>
      </trkpt>
      <trkpt lat="45.25136" lon="4.81096">
        <ele>140.49</ele>
        <time>2013-09-27T08:53:26Z</time>
      </trkpt>
      <trkpt lat="45.25157" lon="4.81103">
        <ele>140.97</ele>
        <time>2013-09-27T08:53:30Z</time>
      </trkpt>
      <trkpt lat="45.25175" lon="4.81084">
        <ele>141.93</ele>
        <time>2013-09-27T08:53:34Z</time>
      </trkpt>
      <trkpt lat="45.25192" lon="4.81071">
        <ele>141.93</ele>
        <time>2013-09-27T08:53:37Z</time>
      </trkpt>
      <trkpt lat="45.25209" lon="4.81052">
        <ele>141.93</ele>
        <time>2013-09-27T08:53:40Z</time>
      </trkpt>
      <trkpt lat="45.25215" lon="4.81023">
        <ele>141.93</ele>
        <time>2013-09-27T08:53:43Z</time>
      </trkpt>
      <trkpt lat="45.25215" lon="4.80991">
        <ele>141.93</ele>
        <time>2013-09-27T08:53:46Z</time>
      </trkpt>
      <trkpt lat="45.25222" lon="4.80968">
        <ele>140.97</ele>
        <time>2013-09-27T08:53:49Z</time>
      </trkpt>
      <trkpt lat="45.25241" lon="4.80967">
        <ele>140.49</ele>
        <time>2013-09-27T08:53:52Z</time>
      </trkpt>
      <trkpt lat="45.25264" lon="4.80965">
        <ele>140.01</ele>
        <time>2013-09-27T08:53:55Z</time>
      </trkpt>
      <trkpt lat="45.25288" lon="4.80959">
        <ele>138.09</ele>
        <time>2013-09-27T08:53:58Z</time>
      </trkpt>
      <trkpt lat="45.25315" lon="4.8095">
        <ele>137.13</ele>
        <time>2013-09-27T08:54:01Z</time>
      </trkpt>
      <trkpt lat="45.25341" lon="4.80936">
        <ele>136.64</ele>
        <time>2013-09-27T08:54:04Z</time>
      </trkpt>
      <trkpt lat="45.25356" lon="4.8092">
        <ele>136.64</ele>
        <time>2013-09-27T08:54:06Z</time>
      </trkpt>
      <trkpt lat="45.2537" lon="4.80902">
        <ele>136.16</ele>
        <time>2013-09-27T08:54:08Z</time>
      </trkpt>
      <trkpt lat="45.25391" lon="4.80889">
        <ele>136.16</ele>
        <time>2013-09-27T08:54:11Z</time>
      </trkpt>
      <trkpt lat="45.25414" lon="4.80894">
        <ele>136.16</ele>
        <time>2013-09-27T08:54:14Z</time>
      </trkpt>
      <trkpt lat="45.25436" lon="4.80897">
        <ele>136.64</ele>
        <time>2013-09-27T08:54:17Z</time>
      </trkpt>
      <trkpt lat="45.25455" lon="4.809">
        <ele>137.13</ele>
        <time>2013-09-27T08:54:20Z</time>
      </trkpt>
      <trkpt lat="45.25474" lon="4.809">
        <ele>136.64</ele>
        <time>2013-09-27T08:54:23Z</time>
      </trkpt>
      <trkpt lat="45.25492" lon="4.80902">
        <ele>136.16</ele>
        <time>2013-09-27T08:54:26Z</time>
      </trkpt>
      <trkpt lat="45.25515" lon="4.80911">
        <ele>136.16</ele>
        <time>2013-09-27T08:54:30Z</time>
      </trkpt>
      <trkpt lat="45.25537" lon="4.80924">
        <ele>135.68</ele>
        <time>2013-09-27T08:54:34Z</time>
      </trkpt>
      <trkpt lat="45.25556" lon="4.8093">
        <ele>136.16</ele>
        <time>2013-09-27T08:54:37Z</time>
      </trkpt>
      <trkpt lat="45.25575" lon="4.80938">
        <ele>135.68</ele>
        <time>2013-09-27T08:54:40Z</time>
      </trkpt>
      <trkpt lat="45.25594" lon="4.80946">
        <ele>135.68</ele>
        <time>2013-09-27T08:54:43Z</time>
      </trkpt>
      <trkpt lat="45.25614" lon="4.80955">
        <ele>135.68</ele>
        <time>2013-09-27T08:54:46Z</time>
      </trkpt>
      <trkpt lat="45.25634" lon="4.80962">
        <ele>136.16</ele>
        <time>2013-09-27T08:54:49Z</time>
      </trkpt>
      <trkpt lat="45.25654" lon="4.80969">
        <ele>135.68</ele>
        <time>2013-09-27T08:54:52Z</time>
      </trkpt>
      <trkpt lat="45.25674" lon="4.80977">
        <ele>135.68</ele>
        <time>2013-09-27T08:54:55Z</time>
      </trkpt>
      <trkpt lat="45.25693" lon="4.80986">
        <ele>135.68</ele>
        <time>2013-09-27T08:54:58Z</time>
      </trkpt>
      <trkpt lat="45.25713" lon="4.80997">
        <ele>135.68</ele>
        <time>2013-09-27T08:55:01Z</time>
      </trkpt>
      <trkpt lat="45.25732" lon="4.81011">
        <ele>135.68</ele>
        <time>2013-09-27T08:55:04Z</time>
      </trkpt>
      <trkpt lat="45.25751" lon="4.81022">
        <ele>135.68</ele>
        <time>2013-09-27T08:55:07Z</time>
      </trkpt>
      <trkpt lat="45.25771" lon="4.81031">
        <ele>136.16</ele>
        <time>2013-09-27T08:55:10Z</time>
      </trkpt>
      <trkpt lat="45.2579" lon="4.81035">
        <ele>135.2</ele>
        <time>2013-09-27T08:55:13Z</time>
      </trkpt>
      <trkpt lat="45.25809" lon="4.81041">
        <ele>135.68</ele>
        <time>2013-09-27T08:55:16Z</time>
      </trkpt>
      <trkpt lat="45.25829" lon="4.81052">
        <ele>135.68</ele>
        <time>2013-09-27T08:55:19Z</time>
      </trkpt>
      <trkpt lat="45.25847" lon="4.8106">
        <ele>135.2</ele>
        <time>2013-09-27T08:55:22Z</time>
      </trkpt>
      <trkpt lat="45.25865" lon="4.81067">
        <ele>134.72</ele>
        <time>2013-09-27T08:55:25Z</time>
      </trkpt>
      <trkpt lat="45.25888" lon="4.81074">
        <ele>135.68</ele>
        <time>2013-09-27T08:55:29Z</time>
      </trkpt>
      <trkpt lat="45.25906" lon="4.81083">
        <ele>135.68</ele>
        <time>2013-09-27T08:55:32Z</time>
      </trkpt>
      <trkpt lat="45.25925" lon="4.81093">
        <ele>135.68</ele>
        <time>2013-09-27T08:55:35Z</time>
      </trkpt>
      <trkpt lat="45.25944" lon="4.81103">
        <ele>135.68</ele>
        <time>2013-09-27T08:55:38Z</time>
      </trkpt>
      <trkpt lat="45.25964" lon="4.81112">
        <ele>135.2</ele>
        <time>2013-09-27T08:55:41Z</time>
      </trkpt>
      <trkpt lat="45.25985" lon="4.81123">
        <ele>135.2</ele>
        <time>2013-09-27T08:55:44Z</time>
      </trkpt>
      <trkpt lat="45.26004" lon="4.81136">
        <ele>135.68</ele>
        <time>2013-09-27T08:55:47Z</time>
      </trkpt>
      <trkpt lat="45.2602" lon="4.81149">
        <ele>135.68</ele>
        <time>2013-09-27T08:55:50Z</time>
      </trkpt>
      <trkpt lat="45.26046" lon="4.81158">
        <ele>134.72</ele>
        <time>2013-09-27T08:55:54Z</time>
      </trkpt>
      <trkpt lat="45.26067" lon="4.81165">
        <ele>135.2</ele>
        <time>2013-09-27T08:55:57Z</time>
      </trkpt>
      <trkpt lat="45.2609" lon="4.81171">
        <ele>134.72</ele>
        <time>2013-09-27T08:56:00Z</time>
      </trkpt>
      <trkpt lat="45.26113" lon="4.81177">
        <ele>135.2</ele>
        <time>2013-09-27T08:56:03Z</time>
      </trkpt>
      <trkpt lat="45.26138" lon="4.81184">
        <ele>135.2</ele>
        <time>2013-09-27T08:56:06Z</time>
      </trkpt>
      <trkpt lat="45.2616" lon="4.81192">
        <ele>135.68</ele>
        <time>2013-09-27T08:56:09Z</time>
      </trkpt>
      <trkpt lat="45.26182" lon="4.81197">
        <ele>135.2</ele>
        <time>2013-09-27T08:56:12Z</time>
      </trkpt>
      <trkpt lat="45.26204" lon="4.81204">
        <ele>135.2</ele>
        <time>2013-09-27T08:56:15Z</time>
      </trkpt>
      <trkpt lat="45.26225" lon="4.81213">
        <ele>135.68</ele>
        <time>2013-09-27T08:56:18Z</time>
      </trkpt>
      <trkpt lat="45.26247" lon="4.81215">
        <ele>135.68</ele>
        <time>2013-09-27T08:56:21Z</time>
      </trkpt>
      <trkpt lat="45.26268" lon="4.81217">
        <ele>135.2</ele>
        <time>2013-09-27T08:56:24Z</time>
      </trkpt>
      <trkpt lat="45.2629" lon="4.81221">
        <ele>135.68</ele>
        <time>2013-09-27T08:56:27Z</time>
      </trkpt>
      <trkpt lat="45.2631" lon="4.81225">
        <ele>135.68</ele>
        <time>2013-09-27T08:56:30Z</time>
      </trkpt>
      <trkpt lat="45.26331" lon="4.81227">
        <ele>135.68</ele>
        <time>2013-09-27T08:56:33Z</time>
      </trkpt>
      <trkpt lat="45.26352" lon="4.81227">
        <ele>135.68</ele>
        <time>2013-09-27T08:56:36Z</time>
      </trkpt>
      <trkpt lat="45.26373" lon="4.81224">
        <ele>135.68</ele>
        <time>2013-09-27T08:56:39Z</time>
      </trkpt>
      <trkpt lat="45.26394" lon="4.81222">
        <ele>135.68</ele>
        <time>2013-09-27T08:56:42Z</time>
      </trkpt>
      <trkpt lat="45.26415" lon="4.81222">
        <ele>135.2</ele>
        <time>2013-09-27T08:56:45Z</time>
      </trkpt>
      <trkpt lat="45.26437" lon="4.81224">
        <ele>136.16</ele>
        <time>2013-09-27T08:56:48Z</time>
      </trkpt>
      <trkpt lat="45.26458" lon="4.81228">
        <ele>135.2</ele>
        <time>2013-09-27T08:56:51Z</time>
      </trkpt>
      <trkpt lat="45.26477" lon="4.81232">
        <ele>136.16</ele>
        <time>2013-09-27T08:56:54Z</time>
      </trkpt>
      <trkpt lat="45.26498" lon="4.81234">
        <ele>135.68</ele>
        <time>2013-09-27T08:56:57Z</time>
      </trkpt>
      <trkpt lat="45.26518" lon="4.81237">
        <ele>136.16</ele>
        <time>2013-09-27T08:57:00Z</time>
      </trkpt>
      <trkpt lat="45.26538" lon="4.81242">
        <ele>135.68</ele>
        <time>2013-09-27T08:57:03Z</time>
      </trkpt>
      <trkpt lat="45.26559" lon="4.8125">
        <ele>136.16</ele>
        <time>2013-09-27T08:57:06Z</time>
      </trkpt>
      <trkpt lat="45.26579" lon="4.81262">
        <ele>136.64</ele>
        <time>2013-09-27T08:57:09Z</time>
      </trkpt>
      <trkpt lat="45.26599" lon="4.8127">
        <ele>136.16</ele>
        <time>2013-09-27T08:57:12Z</time>
      </trkpt>
      <trkpt lat="45.2662" lon="4.81274">
        <ele>135.68</ele>
        <time>2013-09-27T08:57:15Z</time>
      </trkpt>
      <trkpt lat="45.26642" lon="4.81273">
        <ele>135.68</ele>
        <time>2013-09-27T08:57:18Z</time>
      </trkpt>
      <trkpt lat="45.26661" lon="4.81264">
        <ele>135.68</ele>
        <time>2013-09-27T08:57:21Z</time>
      </trkpt>
      <trkpt lat="45.26679" lon="4.81254">
        <ele>136.16</ele>
        <time>2013-09-27T08:57:24Z</time>
      </trkpt>
      <trkpt lat="45.26697" lon="4.81245">
        <ele>136.64</ele>
        <time>2013-09-27T08:57:27Z</time>
      </trkpt>
      <trkpt lat="45.26714" lon="4.81236">
        <ele>136.16</ele>
        <time>2013-09-27T08:57:30Z</time>
      </trkpt>
      <trkpt lat="45.26732" lon="4.81228">
        <ele>136.16</ele>
        <time>2013-09-27T08:57:33Z</time>
      </trkpt>
      <trkpt lat="45.26752" lon="4.81224">
        <ele>136.16</ele>
        <time>2013-09-27T08:57:36Z</time>
      </trkpt>
      <trkpt lat="45.26773" lon="4.8122">
        <ele>136.64</ele>
        <time>2013-09-27T08:57:39Z</time>
      </trkpt>
      <trkpt lat="45.26793" lon="4.81217">
        <ele>136.16</ele>
        <time>2013-09-27T08:57:42Z</time>
      </trkpt>
      <trkpt lat="45.26812" lon="4.81214">
        <ele>136.64</ele>
        <time>2013-09-27T08:57:45Z</time>
      </trkpt>
      <trkpt lat="45.26831" lon="4.81211">
        <ele>137.13</ele>
        <time>2013-09-27T08:57:48Z</time>
      </trkpt>
      <trkpt lat="45.2685" lon="4.81207">
        <ele>136.64</ele>
        <time>2013-09-27T08:57:51Z</time>
      </trkpt>
      <trkpt lat="45.26869" lon="4.81204">
        <ele>136.64</ele>
        <time>2013-09-27T08:57:54Z</time>
      </trkpt>
      <trkpt lat="45.26888" lon="4.81201">
        <ele>137.13</ele>
        <time>2013-09-27T08:57:57Z</time>
      </trkpt>
      <trkpt lat="45.26908" lon="4.81197">
        <ele>137.13</ele>
        <time>2013-09-27T08:58:00Z</time>
      </trkpt>
      <trkpt lat="45.26927" lon="4.81197">
        <ele>137.61</ele>
        <time>2013-09-27T08:58:03Z</time>
      </trkpt>
      <trkpt lat="45.26945" lon="4.81198">
        <ele>137.13</ele>
        <time>2013-09-27T08:58:06Z</time>
      </trkpt>
      <trkpt lat="45.26968" lon="4.81201">
        <ele>137.13</ele>
        <time>2013-09-27T08:58:10Z</time>
      </trkpt>
      <trkpt lat="45.26989" lon="4.81198">
        <ele>137.13</ele>
        <time>2013-09-27T08:58:14Z</time>
      </trkpt>
      <trkpt lat="45.27013" lon="4.81202">
        <ele>137.13</ele>
        <time>2013-09-27T08:58:18Z</time>
      </trkpt>
      <trkpt lat="45.27033" lon="4.81202">
        <ele>137.13</ele>
        <time>2013-09-27T08:58:21Z</time>
      </trkpt>
      <trkpt lat="45.27053" lon="4.81201">
        <ele>137.13</ele>
        <time>2013-09-27T08:58:24Z</time>
      </trkpt>
      <trkpt lat="45.27072" lon="4.81199">
        <ele>137.61</ele>
        <time>2013-09-27T08:58:27Z</time>
      </trkpt>
      <trkpt lat="45.27091" lon="4.81196">
        <ele>138.09</ele>
        <time>2013-09-27T08:58:30Z</time>
      </trkpt>
      <trkpt lat="45.27114" lon="4.81193">
        <ele>139.05</ele>
        <time>2013-09-27T08:58:34Z</time>
      </trkpt>
      <trkpt lat="45.27133" lon="4.8119">
        <ele>140.01</ele>
        <time>2013-09-27T08:58:37Z</time>
      </trkpt>
      <trkpt lat="45.27155" lon="4.8119">
        <ele>140.49</ele>
        <time>2013-09-27T08:58:41Z</time>
      </trkpt>
      <trkpt lat="45.27177" lon="4.81188">
        <ele>141.45</ele>
        <time>2013-09-27T08:58:45Z</time>
      </trkpt>
      <trkpt lat="45.27196" lon="4.81187">
        <ele>142.41</ele>
        <time>2013-09-27T08:58:49Z</time>
      </trkpt>
      <trkpt lat="45.27219" lon="4.81187">
        <ele>141.93</ele>
        <time>2013-09-27T08:58:53Z</time>
      </trkpt>
      <trkpt lat="45.27239" lon="4.81185">
        <ele>141.45</ele>
        <time>2013-09-27T08:58:56Z</time>
      </trkpt>
      <trkpt lat="45.27259" lon="4.81183">
        <ele>140.49</ele>
        <time>2013-09-27T08:58:59Z</time>
      </trkpt>
      <trkpt lat="45.2728" lon="4.81181">
        <ele>140.01</ele>
        <time>2013-09-27T08:59:02Z</time>
      </trkpt>
      <trkpt lat="45.27301" lon="4.81179">
        <ele>139.05</ele>
        <time>2013-09-27T08:59:05Z</time>
      </trkpt>
      <trkpt lat="45.27324" lon="4.81176">
        <ele>138.09</ele>
        <time>2013-09-27T08:59:08Z</time>
      </trkpt>
      <trkpt lat="45.27346" lon="4.81174">
        <ele>137.61</ele>
        <time>2013-09-27T08:59:11Z</time>
      </trkpt>
      <trkpt lat="45.2737" lon="4.81173">
        <ele>137.13</ele>
        <time>2013-09-27T08:59:14Z</time>
      </trkpt>
      <trkpt lat="45.27393" lon="4.81171">
        <ele>136.16</ele>
        <time>2013-09-27T08:59:17Z</time>
      </trkpt>
      <trkpt lat="45.27415" lon="4.81171">
        <ele>135.68</ele>
        <time>2013-09-27T08:59:20Z</time>
      </trkpt>
      <trkpt lat="45.27435" lon="4.81172">
        <ele>135.68</ele>
        <time>2013-09-27T08:59:23Z</time>
      </trkpt>
      <trkpt lat="45.27454" lon="4.81172">
        <ele>136.16</ele>
        <time>2013-09-27T08:59:26Z</time>
      </trkpt>
      <trkpt lat="45.27472" lon="4.81171">
        <ele>136.16</ele>
        <time>2013-09-27T08:59:29Z</time>
      </trkpt>
      <trkpt lat="45.2749" lon="4.8117">
        <ele>135.68</ele>
        <time>2013-09-27T08:59:32Z</time>
      </trkpt>
      <trkpt lat="45.27509" lon="4.81171">
        <ele>135.68</ele>
        <time>2013-09-27T08:59:35Z</time>
      </trkpt>
      <trkpt lat="45.27532" lon="4.81174">
        <ele>135.68</ele>
        <time>2013-09-27T08:59:39Z</time>
      </trkpt>
      <trkpt lat="45.27554" lon="4.81175">
        <ele>136.16</ele>
        <time>2013-09-27T08:59:43Z</time>
      </trkpt>
      <trkpt lat="45.27573" lon="4.81176">
        <ele>136.16</ele>
        <time>2013-09-27T08:59:46Z</time>
      </trkpt>
      <trkpt lat="45.27591" lon="4.81175">
        <ele>136.16</ele>
        <time>2013-09-27T08:59:49Z</time>
      </trkpt>
      <trkpt lat="45.27617" lon="4.81176">
        <ele>136.64</ele>
        <time>2013-09-27T08:59:53Z</time>
      </trkpt>
      <trkpt lat="45.27636" lon="4.81176">
        <ele>136.16</ele>
        <time>2013-09-27T08:59:56Z</time>
      </trkpt>
      <trkpt lat="45.27655" lon="4.81176">
        <ele>136.16</ele>
        <time>2013-09-27T08:59:59Z</time>
      </trkpt>
      <trkpt lat="45.27674" lon="4.81177">
        <ele>136.16</ele>
        <time>2013-09-27T09:00:02Z</time>
      </trkpt>
      <trkpt lat="45.27692" lon="4.81179">
        <ele>136.16</ele>
        <time>2013-09-27T09:00:05Z</time>
      </trkpt>
      <trkpt lat="45.27711" lon="4.81181">
        <ele>135.68</ele>
        <time>2013-09-27T09:00:08Z</time>
      </trkpt>
      <trkpt lat="45.27731" lon="4.81179">
        <ele>136.16</ele>
        <time>2013-09-27T09:00:11Z</time>
      </trkpt>
      <trkpt lat="45.2775" lon="4.81176">
        <ele>136.16</ele>
        <time>2013-09-27T09:00:14Z</time>
      </trkpt>
      <trkpt lat="45.27768" lon="4.81177">
        <ele>136.16</ele>
        <time>2013-09-27T09:00:17Z</time>
      </trkpt>
      <trkpt lat="45.27786" lon="4.81179">
        <ele>136.64</ele>
        <time>2013-09-27T09:00:20Z</time>
      </trkpt>
      <trkpt lat="45.27809" lon="4.8118">
        <ele>136.64</ele>
        <time>2013-09-27T09:00:24Z</time>
      </trkpt>
      <trkpt lat="45.27833" lon="4.81178">
        <ele>136.64</ele>
        <time>2013-09-27T09:00:28Z</time>
      </trkpt>
      <trkpt lat="45.27852" lon="4.81179">
        <ele>136.64</ele>
        <time>2013-09-27T09:00:31Z</time>
      </trkpt>
      <trkpt lat="45.27876" lon="4.8118">
        <ele>136.64</ele>
        <time>2013-09-27T09:00:35Z</time>
      </trkpt>
      <trkpt lat="45.27897" lon="4.81183">
        <ele>136.64</ele>
        <time>2013-09-27T09:00:39Z</time>
      </trkpt>
      <trkpt lat="45.27919" lon="4.81185">
        <ele>137.13</ele>
        <time>2013-09-27T09:00:43Z</time>
      </trkpt>
      <trkpt lat="45.27943" lon="4.81182">
        <ele>137.13</ele>
        <time>2013-09-27T09:00:47Z</time>
      </trkpt>
      <trkpt lat="45.27967" lon="4.81174">
        <ele>136.64</ele>
        <time>2013-09-27T09:00:51Z</time>
      </trkpt>
      <trkpt lat="45.27991" lon="4.81169">
        <ele>136.64</ele>
        <time>2013-09-27T09:00:55Z</time>
      </trkpt>
      <trkpt lat="45.28009" lon="4.81164">
        <ele>135.68</ele>
        <time>2013-09-27T09:00:58Z</time>
      </trkpt>
      <trkpt lat="45.2803" lon="4.81162">
        <ele>136.16</ele>
        <time>2013-09-27T09:01:01Z</time>
      </trkpt>
      <trkpt lat="45.28049" lon="4.81159">
        <ele>136.16</ele>
        <time>2013-09-27T09:01:04Z</time>
      </trkpt>
      <trkpt lat="45.28067" lon="4.81155">
        <ele>136.16</ele>
        <time>2013-09-27T09:01:07Z</time>
      </trkpt>
      <trkpt lat="45.28087" lon="4.81152">
        <ele>136.16</ele>
        <time>2013-09-27T09:01:10Z</time>
      </trkpt>
      <trkpt lat="45.28106" lon="4.81149">
        <ele>136.64</ele>
        <time>2013-09-27T09:01:13Z</time>
      </trkpt>
      <trkpt lat="45.28129" lon="4.81147">
        <ele>137.13</ele>
        <time>2013-09-27T09:01:17Z</time>
      </trkpt>
      <trkpt lat="45.28152" lon="4.81141">
        <ele>136.16</ele>
        <time>2013-09-27T09:01:21Z</time>
      </trkpt>
      <trkpt lat="45.28176" lon="4.81136">
        <ele>136.16</ele>
        <time>2013-09-27T09:01:25Z</time>
      </trkpt>
      <trkpt lat="45.28199" lon="4.81134">
        <ele>136.16</ele>
        <time>2013-09-27T09:01:29Z</time>
      </trkpt>
      <trkpt lat="45.28222" lon="4.81131">
        <ele>136.16</ele>
        <time>2013-09-27T09:01:33Z</time>
      </trkpt>
      <trkpt lat="45.28244" lon="4.81127">
        <ele>136.16</ele>
        <time>2013-09-27T09:01:37Z</time>
      </trkpt>
      <trkpt lat="45.28267" lon="4.81124">
        <ele>135.68</ele>
        <time>2013-09-27T09:01:41Z</time>
      </trkpt>
      <trkpt lat="45.2829" lon="4.81121">
        <ele>136.16</ele>
        <time>2013-09-27T09:01:45Z</time>
      </trkpt>
      <trkpt lat="45.28312" lon="4.81119">
        <ele>136.16</ele>
        <time>2013-09-27T09:01:49Z</time>
      </trkpt>
      <trkpt lat="45.28334" lon="4.81116">
        <ele>136.64</ele>
        <time>2013-09-27T09:01:53Z</time>
      </trkpt>
      <trkpt lat="45.28357" lon="4.81113">
        <ele>136.16</ele>
        <time>2013-09-27T09:01:57Z</time>
      </trkpt>
      <trkpt lat="45.2838" lon="4.81112">
        <ele>136.64</ele>
        <time>2013-09-27T09:02:01Z</time>
      </trkpt>
      <trkpt lat="45.28404" lon="4.81109">
        <ele>136.64</ele>
        <time>2013-09-27T09:02:05Z</time>
      </trkpt>
      <trkpt lat="45.28422" lon="4.81104">
        <ele>136.64</ele>
        <time>2013-09-27T09:02:08Z</time>
      </trkpt>
      <trkpt lat="45.28446" lon="4.81106">
        <ele>137.13</ele>
        <time>2013-09-27T09:02:12Z</time>
      </trkpt>
      <trkpt lat="45.28468" lon="4.81106">
        <ele>137.61</ele>
        <time>2013-09-27T09:02:16Z</time>
      </trkpt>
      <trkpt lat="45.28489" lon="4.81108">
        <ele>138.09</ele>
        <time>2013-09-27T09:02:20Z</time>
      </trkpt>
      <trkpt lat="45.28511" lon="4.81112">
        <ele>139.05</ele>
        <time>2013-09-27T09:02:24Z</time>
      </trkpt>
      <trkpt lat="45.28532" lon="4.81111">
        <ele>139.53</ele>
        <time>2013-09-27T09:02:28Z</time>
      </trkpt>
      <trkpt lat="45.28553" lon="4.81111">
        <ele>139.53</ele>
        <time>2013-09-27T09:02:32Z</time>
      </trkpt>
      <trkpt lat="45.28574" lon="4.81113">
        <ele>140.01</ele>
        <time>2013-09-27T09:02:36Z</time>
      </trkpt>
      <trkpt lat="45.28595" lon="4.81117">
        <ele>139.53</ele>
        <time>2013-09-27T09:02:40Z</time>
      </trkpt>
      <trkpt lat="45.28616" lon="4.81125">
        <ele>139.53</ele>
        <time>2013-09-27T09:02:44Z</time>
      </trkpt>
      <trkpt lat="45.28638" lon="4.81124">
        <ele>140.01</ele>
        <time>2013-09-27T09:02:48Z</time>
      </trkpt>
      <trkpt lat="45.28662" lon="4.81122">
        <ele>139.53</ele>
        <time>2013-09-27T09:02:52Z</time>
      </trkpt>
      <trkpt lat="45.2868" lon="4.81121">
        <ele>139.53</ele>
        <time>2013-09-27T09:02:55Z</time>
      </trkpt>
      <trkpt lat="45.28698" lon="4.8112">
        <ele>139.05</ele>
        <time>2013-09-27T09:02:58Z</time>
      </trkpt>
      <trkpt lat="45.28716" lon="4.81118">
        <ele>139.53</ele>
        <time>2013-09-27T09:03:01Z</time>
      </trkpt>
      <trkpt lat="45.28735" lon="4.81117">
        <ele>139.53</ele>
        <time>2013-09-27T09:03:04Z</time>
      </trkpt>
      <trkpt lat="45.28757" lon="4.81117">
        <ele>140.01</ele>
        <time>2013-09-27T09:03:08Z</time>
      </trkpt>
      <trkpt lat="45.2878" lon="4.81117">
        <ele>140.49</ele>
        <time>2013-09-27T09:03:12Z</time>
      </trkpt>
      <trkpt lat="45.28802" lon="4.8112">
        <ele>140.49</ele>
        <time>2013-09-27T09:03:16Z</time>
      </trkpt>
      <trkpt lat="45.28826" lon="4.81121">
        <ele>140.49</ele>
        <time>2013-09-27T09:03:20Z</time>
      </trkpt>
      <trkpt lat="45.28849" lon="4.8112">
        <ele>140.49</ele>
        <time>2013-09-27T09:03:24Z</time>
      </trkpt>
      <trkpt lat="45.28872" lon="4.8112">
        <ele>140.49</ele>
        <time>2013-09-27T09:03:28Z</time>
      </trkpt>
      <trkpt lat="45.28895" lon="4.81118">
        <ele>140.01</ele>
        <time>2013-09-27T09:03:32Z</time>
      </trkpt>
      <trkpt lat="45.28918" lon="4.81117">
        <ele>140.49</ele>
        <time>2013-09-27T09:03:36Z</time>
      </trkpt>
      <trkpt lat="45.28936" lon="4.81116">
        <ele>140.01</ele>
        <time>2013-09-27T09:03:39Z</time>
      </trkpt>
      <trkpt lat="45.28954" lon="4.81115">
        <ele>136.64</ele>
        <time>2013-09-27T09:03:42Z</time>
      </trkpt>
      <trkpt lat="45.28972" lon="4.81113">
        <ele>140.01</ele>
        <time>2013-09-27T09:03:45Z</time>
      </trkpt>
      <trkpt lat="45.28996" lon="4.81113">
        <ele>140.97</ele>
        <time>2013-09-27T09:03:49Z</time>
      </trkpt>
      <trkpt lat="45.2902" lon="4.81112">
        <ele>140.49</ele>
        <time>2013-09-27T09:03:53Z</time>
      </trkpt>
      <trkpt lat="45.29039" lon="4.81109">
        <ele>140.49</ele>
        <time>2013-09-27T09:03:56Z</time>
      </trkpt>
      <trkpt lat="45.29058" lon="4.81106">
        <ele>140.49</ele>
        <time>2013-09-27T09:03:59Z</time>
      </trkpt>
      <trkpt lat="45.29076" lon="4.81103">
        <ele>140.01</ele>
        <time>2013-09-27T09:04:02Z</time>
      </trkpt>
      <trkpt lat="45.29094" lon="4.81101">
        <ele>140.01</ele>
        <time>2013-09-27T09:04:05Z</time>
      </trkpt>
      <trkpt lat="45.29112" lon="4.81099">
        <ele>140.49</ele>
        <time>2013-09-27T09:04:08Z</time>
      </trkpt>
      <trkpt lat="45.29131" lon="4.81096">
        <ele>140.49</ele>
        <time>2013-09-27T09:04:11Z</time>
      </trkpt>
      <trkpt lat="45.2915" lon="4.81094">
        <ele>140.49</ele>
        <time>2013-09-27T09:04:14Z</time>
      </trkpt>
      <trkpt lat="45.29169" lon="4.81091">
        <ele>140.97</ele>
        <time>2013-09-27T09:04:17Z</time>
      </trkpt>
      <trkpt lat="45.29187" lon="4.81088">
        <ele>140.97</ele>
        <time>2013-09-27T09:04:20Z</time>
      </trkpt>
      <trkpt lat="45.29206" lon="4.81084">
        <ele>140.97</ele>
        <time>2013-09-27T09:04:23Z</time>
      </trkpt>
      <trkpt lat="45.29224" lon="4.81077">
        <ele>140.49</ele>
        <time>2013-09-27T09:04:26Z</time>
      </trkpt>
      <trkpt lat="45.29241" lon="4.81069">
        <ele>140.01</ele>
        <time>2013-09-27T09:04:29Z</time>
      </trkpt>
      <trkpt lat="45.29265" lon="4.81061">
        <ele>140.49</ele>
        <time>2013-09-27T09:04:33Z</time>
      </trkpt>
      <trkpt lat="45.29282" lon="4.81055">
        <ele>140.97</ele>
        <time>2013-09-27T09:04:36Z</time>
      </trkpt>
      <trkpt lat="45.293" lon="4.81048">
        <ele>140.49</ele>
        <time>2013-09-27T09:04:39Z</time>
      </trkpt>
      <trkpt lat="45.29318" lon="4.8104">
        <ele>140.49</ele>
        <time>2013-09-27T09:04:42Z</time>
      </trkpt>
      <trkpt lat="45.29336" lon="4.81028">
        <ele>140.01</ele>
        <time>2013-09-27T09:04:45Z</time>
      </trkpt>
      <trkpt lat="45.29356" lon="4.81017">
        <ele>138.57</ele>
        <time>2013-09-27T09:04:48Z</time>
      </trkpt>
      <trkpt lat="45.29378" lon="4.81007">
        <ele>138.09</ele>
        <time>2013-09-27T09:04:51Z</time>
      </trkpt>
      <trkpt lat="45.29399" lon="4.80998">
        <ele>138.09</ele>
        <time>2013-09-27T09:04:54Z</time>
      </trkpt>
      <trkpt lat="45.29419" lon="4.80989">
        <ele>138.09</ele>
        <time>2013-09-27T09:04:57Z</time>
      </trkpt>
      <trkpt lat="45.29438" lon="4.8098">
        <ele>137.61</ele>
        <time>2013-09-27T09:05:00Z</time>
      </trkpt>
      <trkpt lat="45.29461" lon="4.80969">
        <ele>138.09</ele>
        <time>2013-09-27T09:05:04Z</time>
      </trkpt>
      <trkpt lat="45.29481" lon="4.80957">
        <ele>137.61</ele>
        <time>2013-09-27T09:05:08Z</time>
      </trkpt>
      <trkpt lat="45.29501" lon="4.80946">
        <ele>138.57</ele>
        <time>2013-09-27T09:05:12Z</time>
      </trkpt>
      <trkpt lat="45.29518" lon="4.80935">
        <ele>138.09</ele>
        <time>2013-09-27T09:05:16Z</time>
      </trkpt>
      <trkpt lat="45.29536" lon="4.80923">
        <ele>138.09</ele>
        <time>2013-09-27T09:05:20Z</time>
      </trkpt>
      <trkpt lat="45.29555" lon="4.80911">
        <ele>138.09</ele>
        <time>2013-09-27T09:05:25Z</time>
      </trkpt>
      <trkpt lat="45.29574" lon="4.80896">
        <ele>138.09</ele>
        <time>2013-09-27T09:05:30Z</time>
      </trkpt>
      <trkpt lat="45.29596" lon="4.80885">
        <ele>138.09</ele>
        <time>2013-09-27T09:05:35Z</time>
      </trkpt>
      <trkpt lat="45.29616" lon="4.80868">
        <ele>137.61</ele>
        <time>2013-09-27T09:05:40Z</time>
      </trkpt>
      <trkpt lat="45.29636" lon="4.80855">
        <ele>137.61</ele>
        <time>2013-09-27T09:05:45Z</time>
      </trkpt>
      <trkpt lat="45.29651" lon="4.8084">
        <ele>138.09</ele>
        <time>2013-09-27T09:05:50Z</time>
      </trkpt>
      <trkpt lat="45.29673" lon="4.80824">
        <ele>137.61</ele>
        <time>2013-09-27T09:05:56Z</time>
      </trkpt>
      <trkpt lat="45.29692" lon="4.80807">
        <ele>138.09</ele>
        <time>2013-09-27T09:06:01Z</time>
      </trkpt>
      <trkpt lat="45.29708" lon="4.80793">
        <ele>138.09</ele>
        <time>2013-09-27T09:06:05Z</time>
      </trkpt>
      <trkpt lat="45.29724" lon="4.80778">
        <ele>138.09</ele>
        <time>2013-09-27T09:06:09Z</time>
      </trkpt>
      <trkpt lat="45.29741" lon="4.80761">
        <ele>138.09</ele>
        <time>2013-09-27T09:06:13Z</time>
      </trkpt>
      <trkpt lat="45.29757" lon="4.80744">
        <ele>138.09</ele>
        <time>2013-09-27T09:06:17Z</time>
      </trkpt>
      <trkpt lat="45.29775" lon="4.80726">
        <ele>138.09</ele>
        <time>2013-09-27T09:06:21Z</time>
      </trkpt>
      <trkpt lat="45.29792" lon="4.80708">
        <ele>138.57</ele>
        <time>2013-09-27T09:06:25Z</time>
      </trkpt>
      <trkpt lat="45.29811" lon="4.80689">
        <ele>138.57</ele>
        <time>2013-09-27T09:06:29Z</time>
      </trkpt>
      <trkpt lat="45.29829" lon="4.80669">
        <ele>138.09</ele>
        <time>2013-09-27T09:06:33Z</time>
      </trkpt>
      <trkpt lat="45.29847" lon="4.80648">
        <ele>137.61</ele>
        <time>2013-09-27T09:06:37Z</time>
      </trkpt>
      <trkpt lat="45.29863" lon="4.80632">
        <ele>138.09</ele>
        <time>2013-09-27T09:06:40Z</time>
      </trkpt>
      <trkpt lat="45.29882" lon="4.80613">
        <ele>138.09</ele>
        <time>2013-09-27T09:06:44Z</time>
      </trkpt>
      <trkpt lat="45.29902" lon="4.80594">
        <ele>138.09</ele>
        <time>2013-09-27T09:06:48Z</time>
      </trkpt>
      <trkpt lat="45.29921" lon="4.80575">
        <ele>138.57</ele>
        <time>2013-09-27T09:06:52Z</time>
      </trkpt>
      <trkpt lat="45.2994" lon="4.80554">
        <ele>138.09</ele>
        <time>2013-09-27T09:06:56Z</time>
      </trkpt>
      <trkpt lat="45.29961" lon="4.80535">
        <ele>138.57</ele>
        <time>2013-09-27T09:07:00Z</time>
      </trkpt>
      <trkpt lat="45.2998" lon="4.80514">
        <ele>138.57</ele>
        <time>2013-09-27T09:07:04Z</time>
      </trkpt>
      <trkpt lat="45.29998" lon="4.80494">
        <ele>138.57</ele>
        <time>2013-09-27T09:07:08Z</time>
      </trkpt>
      <trkpt lat="45.30016" lon="4.80473">
        <ele>138.57</ele>
        <time>2013-09-27T09:07:12Z</time>
      </trkpt>
      <trkpt lat="45.30034" lon="4.80453">
        <ele>138.57</ele>
        <time>2013-09-27T09:07:16Z</time>
      </trkpt>
      <trkpt lat="45.30052" lon="4.80433">
        <ele>138.57</ele>
        <time>2013-09-27T09:07:20Z</time>
      </trkpt>
      <trkpt lat="45.3007" lon="4.80412">
        <ele>138.57</ele>
        <time>2013-09-27T09:07:24Z</time>
      </trkpt>
      <trkpt lat="45.30086" lon="4.80397">
        <ele>138.57</ele>
        <time>2013-09-27T09:07:27Z</time>
      </trkpt>
      <trkpt lat="45.30102" lon="4.80383">
        <ele>139.05</ele>
        <time>2013-09-27T09:07:30Z</time>
      </trkpt>
      <trkpt lat="45.30122" lon="4.80367">
        <ele>139.53</ele>
        <time>2013-09-27T09:07:34Z</time>
      </trkpt>
      <trkpt lat="45.30141" lon="4.8035">
        <ele>140.49</ele>
        <time>2013-09-27T09:07:38Z</time>
      </trkpt>
      <trkpt lat="45.30155" lon="4.80331">
        <ele>140.97</ele>
        <time>2013-09-27T09:07:42Z</time>
      </trkpt>
      <trkpt lat="45.30172" lon="4.80313">
        <ele>141.45</ele>
        <time>2013-09-27T09:07:47Z</time>
      </trkpt>
      <trkpt lat="45.30191" lon="4.80304">
        <ele>140.97</ele>
        <time>2013-09-27T09:07:51Z</time>
      </trkpt>
      <trkpt lat="45.3021" lon="4.80301">
        <ele>142.41</ele>
        <time>2013-09-27T09:07:55Z</time>
      </trkpt>
      <trkpt lat="45.3023" lon="4.80304">
        <ele>141.93</ele>
        <time>2013-09-27T09:07:59Z</time>
      </trkpt>
      <trkpt lat="45.30252" lon="4.80308">
        <ele>141.45</ele>
        <time>2013-09-27T09:08:03Z</time>
      </trkpt>
      <trkpt lat="45.30274" lon="4.80318">
        <ele>141.45</ele>
        <time>2013-09-27T09:08:07Z</time>
      </trkpt>
      <trkpt lat="45.30296" lon="4.80331">
        <ele>141.45</ele>
        <time>2013-09-27T09:08:11Z</time>
      </trkpt>
      <trkpt lat="45.30316" lon="4.80347">
        <ele>141.45</ele>
        <time>2013-09-27T09:08:15Z</time>
      </trkpt>
      <trkpt lat="45.30331" lon="4.80362">
        <ele>140.97</ele>
        <time>2013-09-27T09:08:18Z</time>
      </trkpt>
      <trkpt lat="45.30347" lon="4.80377">
        <ele>140.97</ele>
        <time>2013-09-27T09:08:21Z</time>
      </trkpt>
      <trkpt lat="45.30364" lon="4.8039">
        <ele>140.97</ele>
        <time>2013-09-27T09:08:24Z</time>
      </trkpt>
      <trkpt lat="45.30383" lon="4.80397">
        <ele>140.97</ele>
        <time>2013-09-27T09:08:27Z</time>
      </trkpt>
      <trkpt lat="45.30403" lon="4.80397">
        <ele>140.97</ele>
        <time>2013-09-27T09:08:30Z</time>
      </trkpt>
      <trkpt lat="45.30421" lon="4.80391">
        <ele>141.45</ele>
        <time>2013-09-27T09:08:33Z</time>
      </trkpt>
      <trkpt lat="45.30439" lon="4.80381">
        <ele>141.45</ele>
        <time>2013-09-27T09:08:36Z</time>
      </trkpt>
      <trkpt lat="45.30457" lon="4.8037">
        <ele>141.45</ele>
        <time>2013-09-27T09:08:39Z</time>
      </trkpt>
      <trkpt lat="45.30474" lon="4.80357">
        <ele>140.97</ele>
        <time>2013-09-27T09:08:42Z</time>
      </trkpt>
      <trkpt lat="45.3049" lon="4.80345">
        <ele>141.45</ele>
        <time>2013-09-27T09:08:45Z</time>
      </trkpt>
      <trkpt lat="45.30506" lon="4.80332">
        <ele>140.97</ele>
        <time>2013-09-27T09:08:48Z</time>
      </trkpt>
      <trkpt lat="45.30523" lon="4.80321">
        <ele>141.45</ele>
        <time>2013-09-27T09:08:51Z</time>
      </trkpt>
      <trkpt lat="45.30544" lon="4.80306">
        <ele>141.45</ele>
        <time>2013-09-27T09:08:55Z</time>
      </trkpt>
      <trkpt lat="45.30564" lon="4.80288">
        <ele>140.97</ele>
        <time>2013-09-27T09:08:59Z</time>
      </trkpt>
      <trkpt lat="45.30585" lon="4.80273">
        <ele>141.93</ele>
        <time>2013-09-27T09:09:03Z</time>
      </trkpt>
      <trkpt lat="45.30601" lon="4.8026">
        <ele>141.45</ele>
        <time>2013-09-27T09:09:06Z</time>
      </trkpt>
      <trkpt lat="45.30623" lon="4.80244">
        <ele>141.93</ele>
        <time>2013-09-27T09:09:10Z</time>
      </trkpt>
      <trkpt lat="45.30645" lon="4.80227">
        <ele>141.93</ele>
        <time>2013-09-27T09:09:14Z</time>
      </trkpt>
      <trkpt lat="45.30662" lon="4.80215">
        <ele>141.93</ele>
        <time>2013-09-27T09:09:17Z</time>
      </trkpt>
      <trkpt lat="45.30678" lon="4.80203">
        <ele>141.45</ele>
        <time>2013-09-27T09:09:20Z</time>
      </trkpt>
      <trkpt lat="45.30699" lon="4.80186">
        <ele>141.93</ele>
        <time>2013-09-27T09:09:24Z</time>
      </trkpt>
      <trkpt lat="45.3072" lon="4.80172">
        <ele>141.93</ele>
        <time>2013-09-27T09:09:28Z</time>
      </trkpt>
      <trkpt lat="45.30742" lon="4.80158">
        <ele>141.93</ele>
        <time>2013-09-27T09:09:32Z</time>
      </trkpt>
      <trkpt lat="45.30762" lon="4.80147">
        <ele>141.93</ele>
        <time>2013-09-27T09:09:36Z</time>
      </trkpt>
      <trkpt lat="45.3077" lon="4.80174">
        <ele>141.93</ele>
        <time>2013-09-27T09:09:41Z</time>
      </trkpt>
      <trkpt lat="45.30787" lon="4.80175">
        <ele>142.41</ele>
        <time>2013-09-27T09:09:47Z</time>
      </trkpt>
      <trkpt lat="45.30796" lon="4.80151">
        <ele>142.41</ele>
        <time>2013-09-27T09:09:52Z</time>
      </trkpt>
      <trkpt lat="45.30793" lon="4.80121">
        <ele>143.37</ele>
        <time>2013-09-27T09:09:58Z</time>
      </trkpt>
      <trkpt lat="45.3079" lon="4.80092">
        <ele>142.89</ele>
        <time>2013-09-27T09:10:04Z</time>
      </trkpt>
      <trkpt lat="45.30785" lon="4.80064">
        <ele>145.78</ele>
        <time>2013-09-27T09:10:10Z</time>
      </trkpt>
      <trkpt lat="45.3078" lon="4.80037">
        <ele>145.78</ele>
        <time>2013-09-27T09:10:17Z</time>
      </trkpt>
      <trkpt lat="45.30773" lon="4.8001">
        <ele>146.26</ele>
        <time>2013-09-27T09:10:22Z</time>
      </trkpt>
      <trkpt lat="45.30763" lon="4.7998">
        <ele>146.74</ele>
        <time>2013-09-27T09:10:27Z</time>
      </trkpt>
      <trkpt lat="45.30752" lon="4.79952">
        <ele>147.7</ele>
        <time>2013-09-27T09:10:32Z</time>
      </trkpt>
      <trkpt lat="45.30742" lon="4.79924">
        <ele>148.66</ele>
        <time>2013-09-27T09:10:37Z</time>
      </trkpt>
      <trkpt lat="45.30733" lon="4.79901">
        <ele>149.14</ele>
        <time>2013-09-27T09:10:41Z</time>
      </trkpt>
      <trkpt lat="45.30724" lon="4.79876">
        <ele>149.62</ele>
        <time>2013-09-27T09:10:45Z</time>
      </trkpt>
      <trkpt lat="45.30715" lon="4.7985">
        <ele>149.62</ele>
        <time>2013-09-27T09:10:49Z</time>
      </trkpt>
      <trkpt lat="45.30705" lon="4.79825">
        <ele>149.62</ele>
        <time>2013-09-27T09:10:53Z</time>
      </trkpt>
      <trkpt lat="45.30695" lon="4.798">
        <ele>150.1</ele>
        <time>2013-09-27T09:10:57Z</time>
      </trkpt>
      <trkpt lat="45.30686" lon="4.79775">
        <ele>149.14</ele>
        <time>2013-09-27T09:11:01Z</time>
      </trkpt>
      <trkpt lat="45.30677" lon="4.7975">
        <ele>149.62</ele>
        <time>2013-09-27T09:11:05Z</time>
      </trkpt>
      <trkpt lat="45.30669" lon="4.79724">
        <ele>149.14</ele>
        <time>2013-09-27T09:11:10Z</time>
      </trkpt>
      <trkpt lat="45.3066" lon="4.79701">
        <ele>149.62</ele>
        <time>2013-09-27T09:12:04Z</time>
      </trkpt>
      <trkpt lat="45.30652" lon="4.79676">
        <ele>149.62</ele>
        <time>2013-09-27T09:12:17Z</time>
      </trkpt>
      <trkpt lat="45.30642" lon="4.7965">
        <ele>150.1</ele>
        <time>2013-09-27T09:12:23Z</time>
      </trkpt>
      <trkpt lat="45.30632" lon="4.79626">
        <ele>149.62</ele>
        <time>2013-09-27T09:12:27Z</time>
      </trkpt>
      <trkpt lat="45.30637" lon="4.79601">
        <ele>149.62</ele>
        <time>2013-09-27T09:12:33Z</time>
      </trkpt>
      <trkpt lat="45.30651" lon="4.79579">
        <ele>149.62</ele>
        <time>2013-09-27T09:12:40Z</time>
      </trkpt>
      <trkpt lat="45.30667" lon="4.79561">
        <ele>149.14</ele>
        <time>2013-09-27T09:12:45Z</time>
      </trkpt>
      <trkpt lat="45.30685" lon="4.79539">
        <ele>149.14</ele>
        <time>2013-09-27T09:12:50Z</time>
      </trkpt>
      <trkpt lat="45.30709" lon="4.79534">
        <ele>149.14</ele>
        <time>2013-09-27T09:12:55Z</time>
      </trkpt>
      <trkpt lat="45.30736" lon="4.79537">
        <ele>149.14</ele>
        <time>2013-09-27T09:13:00Z</time>
      </trkpt>
      <trkpt lat="45.30755" lon="4.79525">
        <ele>148.66</ele>
        <time>2013-09-27T09:13:04Z</time>
      </trkpt>
      <trkpt lat="45.30775" lon="4.7951">
        <ele>149.14</ele>
        <time>2013-09-27T09:13:08Z</time>
      </trkpt>
      <trkpt lat="45.30795" lon="4.79495">
        <ele>149.14</ele>
        <time>2013-09-27T09:13:12Z</time>
      </trkpt>
      <trkpt lat="45.30815" lon="4.79479">
        <ele>149.14</ele>
        <time>2013-09-27T09:13:16Z</time>
      </trkpt>
      <trkpt lat="45.30835" lon="4.79464">
        <ele>148.66</ele>
        <time>2013-09-27T09:13:20Z</time>
      </trkpt>
      <trkpt lat="45.30855" lon="4.7945">
        <ele>149.14</ele>
        <time>2013-09-27T09:13:24Z</time>
      </trkpt>
      <trkpt lat="45.30874" lon="4.79435">
        <ele>148.66</ele>
        <time>2013-09-27T09:13:28Z</time>
      </trkpt>
      <trkpt lat="45.30892" lon="4.79421">
        <ele>149.14</ele>
        <time>2013-09-27T09:13:32Z</time>
      </trkpt>
      <trkpt lat="45.3091" lon="4.79409">
        <ele>149.14</ele>
        <time>2013-09-27T09:13:36Z</time>
      </trkpt>
      <trkpt lat="45.30927" lon="4.79396">
        <ele>148.66</ele>
        <time>2013-09-27T09:13:40Z</time>
      </trkpt>
      <trkpt lat="45.30944" lon="4.79383">
        <ele>148.66</ele>
        <time>2013-09-27T09:13:44Z</time>
      </trkpt>
      <trkpt lat="45.30962" lon="4.7937">
        <ele>149.14</ele>
        <time>2013-09-27T09:13:48Z</time>
      </trkpt>
      <trkpt lat="45.30979" lon="4.79357">
        <ele>149.14</ele>
        <time>2013-09-27T09:13:52Z</time>
      </trkpt>
      <trkpt lat="45.30998" lon="4.79343">
        <ele>149.14</ele>
        <time>2013-09-27T09:13:56Z</time>
      </trkpt>
      <trkpt lat="45.31017" lon="4.7933">
        <ele>149.14</ele>
        <time>2013-09-27T09:14:00Z</time>
      </trkpt>
      <trkpt lat="45.31036" lon="4.79316">
        <ele>149.14</ele>
        <time>2013-09-27T09:14:04Z</time>
      </trkpt>
      <trkpt lat="45.31055" lon="4.79302">
        <ele>149.14</ele>
        <time>2013-09-27T09:14:08Z</time>
      </trkpt>
      <trkpt lat="45.31075" lon="4.79289">
        <ele>149.14</ele>
        <time>2013-09-27T09:14:12Z</time>
      </trkpt>
      <trkpt lat="45.31095" lon="4.79276">
        <ele>148.66</ele>
        <time>2013-09-27T09:14:16Z</time>
      </trkpt>
      <trkpt lat="45.31113" lon="4.79261">
        <ele>149.14</ele>
        <time>2013-09-27T09:14:20Z</time>
      </trkpt>
      <trkpt lat="45.3113" lon="4.79251">
        <ele>149.14</ele>
        <time>2013-09-27T09:14:24Z</time>
      </trkpt>
      <trkpt lat="45.31149" lon="4.79241">
        <ele>149.14</ele>
        <time>2013-09-27T09:14:29Z</time>
      </trkpt>
      <trkpt lat="45.31165" lon="4.7923">
        <ele>149.14</ele>
        <time>2013-09-27T09:14:35Z</time>
      </trkpt>
      <trkpt lat="45.31175" lon="4.7922">
        <ele>149.62</ele>
        <time>2013-09-27T09:16:34Z</time>
      </trkpt>
      <trkpt lat="45.31191" lon="4.79211">
        <ele>150.1</ele>
        <time>2013-09-27T09:20:19Z</time>
      </trkpt>
      <trkpt lat="45.31209" lon="4.792">
        <ele>150.1</ele>
        <time>2013-09-27T09:20:27Z</time>
      </trkpt>
      <trkpt lat="45.31227" lon="4.79188">
        <ele>149.62</ele>
        <time>2013-09-27T09:20:32Z</time>
      </trkpt>
      <trkpt lat="45.31248" lon="4.79175">
        <ele>150.1</ele>
        <time>2013-09-27T09:20:37Z</time>
      </trkpt>
      <trkpt lat="45.31266" lon="4.79165">
        <ele>149.62</ele>
        <time>2013-09-27T09:20:41Z</time>
      </trkpt>
      <trkpt lat="45.31283" lon="4.79154">
        <ele>150.1</ele>
        <time>2013-09-27T09:20:45Z</time>
      </trkpt>
      <trkpt lat="45.313" lon="4.79144">
        <ele>149.62</ele>
        <time>2013-09-27T09:20:49Z</time>
      </trkpt>
      <trkpt lat="45.31318" lon="4.79134">
        <ele>150.1</ele>
        <time>2013-09-27T09:20:53Z</time>
      </trkpt>
      <trkpt lat="45.31335" lon="4.79123">
        <ele>149.62</ele>
        <time>2013-09-27T09:20:57Z</time>
      </trkpt>
      <trkpt lat="45.31352" lon="4.79113">
        <ele>150.1</ele>
        <time>2013-09-27T09:21:01Z</time>
      </trkpt>
      <trkpt lat="45.31368" lon="4.79103">
        <ele>150.1</ele>
        <time>2013-09-27T09:21:05Z</time>
      </trkpt>
      <trkpt lat="45.31386" lon="4.79093">
        <ele>149.62</ele>
        <time>2013-09-27T09:21:09Z</time>
      </trkpt>
      <trkpt lat="45.31404" lon="4.79083">
        <ele>149.62</ele>
        <time>2013-09-27T09:21:13Z</time>
      </trkpt>
      <trkpt lat="45.31422" lon="4.79072">
        <ele>149.62</ele>
        <time>2013-09-27T09:21:17Z</time>
      </trkpt>
      <trkpt lat="45.3144" lon="4.79061">
        <ele>150.1</ele>
        <time>2013-09-27T09:21:21Z</time>
      </trkpt>
      <trkpt lat="45.31459" lon="4.79051">
        <ele>150.1</ele>
        <time>2013-09-27T09:21:25Z</time>
      </trkpt>
      <trkpt lat="45.31477" lon="4.79039">
        <ele>150.1</ele>
        <time>2013-09-27T09:21:29Z</time>
      </trkpt>
      <trkpt lat="45.31495" lon="4.79027">
        <ele>149.62</ele>
        <time>2013-09-27T09:21:33Z</time>
      </trkpt>
      <trkpt lat="45.31514" lon="4.79016">
        <ele>149.62</ele>
        <time>2013-09-27T09:21:37Z</time>
      </trkpt>
      <trkpt lat="45.31532" lon="4.79005">
        <ele>149.62</ele>
        <time>2013-09-27T09:21:41Z</time>
      </trkpt>
      <trkpt lat="45.31552" lon="4.78994">
        <ele>149.14</ele>
        <time>2013-09-27T09:21:45Z</time>
      </trkpt>
      <trkpt lat="45.31572" lon="4.78981">
        <ele>149.62</ele>
        <time>2013-09-27T09:21:49Z</time>
      </trkpt>
      <trkpt lat="45.31588" lon="4.7897">
        <ele>150.1</ele>
        <time>2013-09-27T09:21:53Z</time>
      </trkpt>
      <trkpt lat="45.31608" lon="4.78959">
        <ele>149.62</ele>
        <time>2013-09-27T09:21:58Z</time>
      </trkpt>
      <trkpt lat="45.31627" lon="4.78949">
        <ele>149.62</ele>
        <time>2013-09-27T09:22:03Z</time>
      </trkpt>
      <trkpt lat="45.31646" lon="4.78938">
        <ele>149.62</ele>
        <time>2013-09-27T09:22:08Z</time>
      </trkpt>
      <trkpt lat="45.31667" lon="4.78926">
        <ele>149.62</ele>
        <time>2013-09-27T09:22:13Z</time>
      </trkpt>
      <trkpt lat="45.31684" lon="4.78917">
        <ele>149.14</ele>
        <time>2013-09-27T09:22:17Z</time>
      </trkpt>
      <trkpt lat="45.31687" lon="4.78915">
        <ele>150.1</ele>
        <time>2013-09-27T09:31:20Z</time>
      </trkpt>
      <trkpt lat="45.31705" lon="4.78905">
        <ele>149.62</ele>
        <time>2013-09-27T09:32:16Z</time>
      </trkpt>
      <trkpt lat="45.31723" lon="4.78897">
        <ele>149.62</ele>
        <time>2013-09-27T09:32:35Z</time>
      </trkpt>
      <trkpt lat="45.31743" lon="4.78887">
        <ele>149.62</ele>
        <time>2013-09-27T09:32:41Z</time>
      </trkpt>
      <trkpt lat="45.31762" lon="4.78878">
        <ele>149.62</ele>
        <time>2013-09-27T09:32:46Z</time>
      </trkpt>
      <trkpt lat="45.31783" lon="4.7887">
        <ele>149.62</ele>
        <time>2013-09-27T09:32:51Z</time>
      </trkpt>
      <trkpt lat="45.31803" lon="4.78861">
        <ele>149.62</ele>
        <time>2013-09-27T09:32:56Z</time>
      </trkpt>
      <trkpt lat="45.31823" lon="4.78855">
        <ele>149.62</ele>
        <time>2013-09-27T09:33:00Z</time>
      </trkpt>
      <trkpt lat="45.31842" lon="4.78847">
        <ele>149.62</ele>
        <time>2013-09-27T09:33:04Z</time>
      </trkpt>
      <trkpt lat="45.31861" lon="4.78839">
        <ele>149.62</ele>
        <time>2013-09-27T09:33:08Z</time>
      </trkpt>
      <trkpt lat="45.31882" lon="4.78832">
        <ele>149.62</ele>
        <time>2013-09-27T09:33:12Z</time>
      </trkpt>
      <trkpt lat="45.31903" lon="4.78825">
        <ele>150.1</ele>
        <time>2013-09-27T09:33:16Z</time>
      </trkpt>
      <trkpt lat="45.31924" lon="4.78818">
        <ele>149.62</ele>
        <time>2013-09-27T09:33:20Z</time>
      </trkpt>
      <trkpt lat="45.31947" lon="4.7881">
        <ele>149.62</ele>
        <time>2013-09-27T09:33:24Z</time>
      </trkpt>
      <trkpt lat="45.31968" lon="4.78803">
        <ele>150.1</ele>
        <time>2013-09-27T09:33:28Z</time>
      </trkpt>
      <trkpt lat="45.3199" lon="4.78797">
        <ele>150.58</ele>
        <time>2013-09-27T09:33:32Z</time>
      </trkpt>
      <trkpt lat="45.32011" lon="4.78792">
        <ele>149.62</ele>
        <time>2013-09-27T09:33:36Z</time>
      </trkpt>
      <trkpt lat="45.32032" lon="4.78787">
        <ele>149.62</ele>
        <time>2013-09-27T09:33:40Z</time>
      </trkpt>
      <trkpt lat="45.32053" lon="4.78783">
        <ele>150.1</ele>
        <time>2013-09-27T09:33:44Z</time>
      </trkpt>
      <trkpt lat="45.32074" lon="4.78779">
        <ele>149.62</ele>
        <time>2013-09-27T09:33:48Z</time>
      </trkpt>
      <trkpt lat="45.32096" lon="4.78774">
        <ele>150.1</ele>
        <time>2013-09-27T09:33:52Z</time>
      </trkpt>
      <trkpt lat="45.32118" lon="4.78771">
        <ele>150.1</ele>
        <time>2013-09-27T09:33:56Z</time>
      </trkpt>
      <trkpt lat="45.32139" lon="4.78767">
        <ele>150.1</ele>
        <time>2013-09-27T09:34:00Z</time>
      </trkpt>
      <trkpt lat="45.32161" lon="4.78763">
        <ele>150.58</ele>
        <time>2013-09-27T09:34:04Z</time>
      </trkpt>
      <trkpt lat="45.32183" lon="4.7876">
        <ele>150.1</ele>
        <time>2013-09-27T09:34:08Z</time>
      </trkpt>
      <trkpt lat="45.32205" lon="4.78756">
        <ele>150.1</ele>
        <time>2013-09-27T09:34:12Z</time>
      </trkpt>
      <trkpt lat="45.32227" lon="4.78752">
        <ele>150.1</ele>
        <time>2013-09-27T09:34:16Z</time>
      </trkpt>
      <trkpt lat="45.3225" lon="4.78749">
        <ele>149.62</ele>
        <time>2013-09-27T09:34:20Z</time>
      </trkpt>
      <trkpt lat="45.32271" lon="4.78745">
        <ele>150.1</ele>
        <time>2013-09-27T09:34:24Z</time>
      </trkpt>
      <trkpt lat="45.32293" lon="4.7874">
        <ele>150.1</ele>
        <time>2013-09-27T09:34:28Z</time>
      </trkpt>
      <trkpt lat="45.32314" lon="4.78734">
        <ele>150.1</ele>
        <time>2013-09-27T09:34:32Z</time>
      </trkpt>
      <trkpt lat="45.32338" lon="4.7873">
        <ele>149.62</ele>
        <time>2013-09-27T09:34:36Z</time>
      </trkpt>
      <trkpt lat="45.32362" lon="4.78726">
        <ele>150.1</ele>
        <time>2013-09-27T09:34:40Z</time>
      </trkpt>
      <trkpt lat="45.32384" lon="4.78722">
        <ele>150.58</ele>
        <time>2013-09-27T09:34:44Z</time>
      </trkpt>
      <trkpt lat="45.32406" lon="4.7872">
        <ele>150.1</ele>
        <time>2013-09-27T09:34:48Z</time>
      </trkpt>
      <trkpt lat="45.32427" lon="4.78717">
        <ele>150.1</ele>
        <time>2013-09-27T09:34:52Z</time>
      </trkpt>
      <trkpt lat="45.32448" lon="4.78713">
        <ele>150.1</ele>
        <time>2013-09-27T09:34:56Z</time>
      </trkpt>
      <trkpt lat="45.32469" lon="4.7871">
        <ele>150.58</ele>
        <time>2013-09-27T09:35:00Z</time>
      </trkpt>
      <trkpt lat="45.32491" lon="4.78706">
        <ele>150.58</ele>
        <time>2013-09-27T09:35:04Z</time>
      </trkpt>
      <trkpt lat="45.32512" lon="4.78701">
        <ele>150.1</ele>
        <time>2013-09-27T09:35:08Z</time>
      </trkpt>
      <trkpt lat="45.32534" lon="4.78698">
        <ele>150.58</ele>
        <time>2013-09-27T09:35:12Z</time>
      </trkpt>
      <trkpt lat="45.32555" lon="4.78695">
        <ele>150.1</ele>
        <time>2013-09-27T09:35:16Z</time>
      </trkpt>
      <trkpt lat="45.32577" lon="4.7869">
        <ele>150.1</ele>
        <time>2013-09-27T09:35:20Z</time>
      </trkpt>
      <trkpt lat="45.32599" lon="4.78685">
        <ele>150.1</ele>
        <time>2013-09-27T09:35:24Z</time>
      </trkpt>
      <trkpt lat="45.32621" lon="4.7868">
        <ele>150.58</ele>
        <time>2013-09-27T09:35:28Z</time>
      </trkpt>
      <trkpt lat="45.32643" lon="4.78676">
        <ele>150.58</ele>
        <time>2013-09-27T09:35:32Z</time>
      </trkpt>
      <trkpt lat="45.32664" lon="4.78672">
        <ele>149.62</ele>
        <time>2013-09-27T09:35:36Z</time>
      </trkpt>
      <trkpt lat="45.32685" lon="4.7867">
        <ele>150.1</ele>
        <time>2013-09-27T09:35:40Z</time>
      </trkpt>
      <trkpt lat="45.32708" lon="4.78666">
        <ele>150.58</ele>
        <time>2013-09-27T09:35:44Z</time>
      </trkpt>
      <trkpt lat="45.3273" lon="4.78661">
        <ele>150.58</ele>
        <time>2013-09-27T09:35:48Z</time>
      </trkpt>
      <trkpt lat="45.32752" lon="4.78658">
        <ele>150.1</ele>
        <time>2013-09-27T09:35:52Z</time>
      </trkpt>
      <trkpt lat="45.32775" lon="4.78654">
        <ele>150.58</ele>
        <time>2013-09-27T09:35:56Z</time>
      </trkpt>
      <trkpt lat="45.32797" lon="4.7865">
        <ele>150.1</ele>
        <time>2013-09-27T09:36:00Z</time>
      </trkpt>
      <trkpt lat="45.3282" lon="4.78646">
        <ele>150.1</ele>
        <time>2013-09-27T09:36:04Z</time>
      </trkpt>
      <trkpt lat="45.32842" lon="4.78643">
        <ele>150.1</ele>
        <time>2013-09-27T09:36:08Z</time>
      </trkpt>
      <trkpt lat="45.32864" lon="4.78639">
        <ele>150.1</ele>
        <time>2013-09-27T09:36:12Z</time>
      </trkpt>
      <trkpt lat="45.32887" lon="4.78636">
        <ele>149.62</ele>
        <time>2013-09-27T09:36:16Z</time>
      </trkpt>
      <trkpt lat="45.32909" lon="4.78633">
        <ele>150.1</ele>
        <time>2013-09-27T09:36:20Z</time>
      </trkpt>
      <trkpt lat="45.32931" lon="4.78629">
        <ele>150.1</ele>
        <time>2013-09-27T09:36:24Z</time>
      </trkpt>
      <trkpt lat="45.32953" lon="4.78626">
        <ele>150.1</ele>
        <time>2013-09-27T09:36:28Z</time>
      </trkpt>
      <trkpt lat="45.32975" lon="4.78623">
        <ele>150.1</ele>
        <time>2013-09-27T09:36:32Z</time>
      </trkpt>
      <trkpt lat="45.32996" lon="4.78619">
        <ele>150.1</ele>
        <time>2013-09-27T09:36:36Z</time>
      </trkpt>
      <trkpt lat="45.33017" lon="4.78615">
        <ele>150.1</ele>
        <time>2013-09-27T09:36:40Z</time>
      </trkpt>
      <trkpt lat="45.33039" lon="4.78612">
        <ele>150.58</ele>
        <time>2013-09-27T09:36:44Z</time>
      </trkpt>
      <trkpt lat="45.33061" lon="4.78609">
        <ele>150.1</ele>
        <time>2013-09-27T09:36:48Z</time>
      </trkpt>
      <trkpt lat="45.33082" lon="4.78606">
        <ele>150.1</ele>
        <time>2013-09-27T09:36:52Z</time>
      </trkpt>
      <trkpt lat="45.33104" lon="4.78602">
        <ele>150.58</ele>
        <time>2013-09-27T09:36:56Z</time>
      </trkpt>
      <trkpt lat="45.33126" lon="4.78598">
        <ele>150.1</ele>
        <time>2013-09-27T09:37:00Z</time>
      </trkpt>
      <trkpt lat="45.33148" lon="4.78594">
        <ele>150.1</ele>
        <time>2013-09-27T09:37:04Z</time>
      </trkpt>
      <trkpt lat="45.33169" lon="4.7859">
        <ele>150.58</ele>
        <time>2013-09-27T09:37:08Z</time>
      </trkpt>
      <trkpt lat="45.33191" lon="4.78587">
        <ele>150.1</ele>
        <time>2013-09-27T09:37:12Z</time>
      </trkpt>
      <trkpt lat="45.33212" lon="4.78583">
        <ele>150.1</ele>
        <time>2013-09-27T09:37:16Z</time>
      </trkpt>
      <trkpt lat="45.33234" lon="4.78579">
        <ele>150.1</ele>
        <time>2013-09-27T09:37:20Z</time>
      </trkpt>
      <trkpt lat="45.33255" lon="4.78575">
        <ele>150.58</ele>
        <time>2013-09-27T09:37:24Z</time>
      </trkpt>
      <trkpt lat="45.33276" lon="4.78571">
        <ele>150.1</ele>
        <time>2013-09-27T09:37:28Z</time>
      </trkpt>
      <trkpt lat="45.33297" lon="4.78569">
        <ele>150.1</ele>
        <time>2013-09-27T09:37:32Z</time>
      </trkpt>
      <trkpt lat="45.33318" lon="4.78565">
        <ele>149.62</ele>
        <time>2013-09-27T09:37:36Z</time>
      </trkpt>
      <trkpt lat="45.3334" lon="4.78562">
        <ele>150.1</ele>
        <time>2013-09-27T09:37:40Z</time>
      </trkpt>
      <trkpt lat="45.33362" lon="4.78558">
        <ele>150.1</ele>
        <time>2013-09-27T09:37:44Z</time>
      </trkpt>
      <trkpt lat="45.33384" lon="4.78554">
        <ele>150.1</ele>
        <time>2013-09-27T09:37:48Z</time>
      </trkpt>
      <trkpt lat="45.33407" lon="4.78551">
        <ele>149.62</ele>
        <time>2013-09-27T09:37:52Z</time>
      </trkpt>
      <trkpt lat="45.33429" lon="4.78547">
        <ele>150.1</ele>
        <time>2013-09-27T09:37:56Z</time>
      </trkpt>
      <trkpt lat="45.3345" lon="4.78543">
        <ele>150.1</ele>
        <time>2013-09-27T09:38:00Z</time>
      </trkpt>
      <trkpt lat="45.33472" lon="4.7854">
        <ele>149.62</ele>
        <time>2013-09-27T09:38:04Z</time>
      </trkpt>
      <trkpt lat="45.33494" lon="4.78537">
        <ele>150.1</ele>
        <time>2013-09-27T09:38:08Z</time>
      </trkpt>
      <trkpt lat="45.33516" lon="4.78532">
        <ele>150.58</ele>
        <time>2013-09-27T09:38:12Z</time>
      </trkpt>
      <trkpt lat="45.33538" lon="4.78529">
        <ele>150.1</ele>
        <time>2013-09-27T09:38:16Z</time>
      </trkpt>
      <trkpt lat="45.33559" lon="4.78525">
        <ele>150.1</ele>
        <time>2013-09-27T09:38:20Z</time>
      </trkpt>
      <trkpt lat="45.33581" lon="4.78521">
        <ele>149.62</ele>
        <time>2013-09-27T09:38:24Z</time>
      </trkpt>
      <trkpt lat="45.33604" lon="4.78518">
        <ele>149.62</ele>
        <time>2013-09-27T09:38:28Z</time>
      </trkpt>
      <trkpt lat="45.33626" lon="4.78514">
        <ele>150.1</ele>
        <time>2013-09-27T09:38:32Z</time>
      </trkpt>
      <trkpt lat="45.33648" lon="4.7851">
        <ele>150.1</ele>
        <time>2013-09-27T09:38:36Z</time>
      </trkpt>
      <trkpt lat="45.3367" lon="4.78506">
        <ele>150.1</ele>
        <time>2013-09-27T09:38:40Z</time>
      </trkpt>
      <trkpt lat="45.33693" lon="4.78502">
        <ele>149.62</ele>
        <time>2013-09-27T09:38:44Z</time>
      </trkpt>
      <trkpt lat="45.33713" lon="4.78499">
        <ele>150.1</ele>
        <time>2013-09-27T09:38:48Z</time>
      </trkpt>
      <trkpt lat="45.33735" lon="4.78496">
        <ele>150.1</ele>
        <time>2013-09-27T09:38:52Z</time>
      </trkpt>
      <trkpt lat="45.33757" lon="4.78491">
        <ele>150.1</ele>
        <time>2013-09-27T09:38:56Z</time>
      </trkpt>
      <trkpt lat="45.33779" lon="4.78488">
        <ele>150.1</ele>
        <time>2013-09-27T09:39:00Z</time>
      </trkpt>
      <trkpt lat="45.33802" lon="4.78484">
        <ele>150.58</ele>
        <time>2013-09-27T09:39:04Z</time>
      </trkpt>
      <trkpt lat="45.33825" lon="4.7848">
        <ele>150.58</ele>
        <time>2013-09-27T09:39:08Z</time>
      </trkpt>
      <trkpt lat="45.33849" lon="4.78476">
        <ele>150.1</ele>
        <time>2013-09-27T09:39:12Z</time>
      </trkpt>
      <trkpt lat="45.33872" lon="4.78472">
        <ele>150.1</ele>
        <time>2013-09-27T09:39:16Z</time>
      </trkpt>
      <trkpt lat="45.33895" lon="4.78468">
        <ele>150.1</ele>
        <time>2013-09-27T09:39:20Z</time>
      </trkpt>
      <trkpt lat="45.33917" lon="4.78464">
        <ele>150.1</ele>
        <time>2013-09-27T09:39:24Z</time>
      </trkpt>
      <trkpt lat="45.33939" lon="4.7846">
        <ele>150.1</ele>
        <time>2013-09-27T09:39:28Z</time>
      </trkpt>
      <trkpt lat="45.33961" lon="4.78457">
        <ele>149.62</ele>
        <time>2013-09-27T09:39:32Z</time>
      </trkpt>
      <trkpt lat="45.33982" lon="4.78453">
        <ele>150.1</ele>
        <time>2013-09-27T09:39:36Z</time>
      </trkpt>
      <trkpt lat="45.34005" lon="4.78448">
        <ele>150.1</ele>
        <time>2013-09-27T09:39:40Z</time>
      </trkpt>
      <trkpt lat="45.34027" lon="4.78447">
        <ele>151.06</ele>
        <time>2013-09-27T09:39:44Z</time>
      </trkpt>
      <trkpt lat="45.3405" lon="4.78443">
        <ele>150.58</ele>
        <time>2013-09-27T09:39:48Z</time>
      </trkpt>
      <trkpt lat="45.34073" lon="4.78439">
        <ele>150.58</ele>
        <time>2013-09-27T09:39:52Z</time>
      </trkpt>
      <trkpt lat="45.34095" lon="4.78436">
        <ele>150.1</ele>
        <time>2013-09-27T09:39:56Z</time>
      </trkpt>
      <trkpt lat="45.34117" lon="4.78432">
        <ele>149.62</ele>
        <time>2013-09-27T09:40:00Z</time>
      </trkpt>
      <trkpt lat="45.3414" lon="4.78428">
        <ele>150.1</ele>
        <time>2013-09-27T09:40:04Z</time>
      </trkpt>
      <trkpt lat="45.34162" lon="4.78425">
        <ele>149.62</ele>
        <time>2013-09-27T09:40:08Z</time>
      </trkpt>
      <trkpt lat="45.34185" lon="4.78421">
        <ele>150.1</ele>
        <time>2013-09-27T09:40:12Z</time>
      </trkpt>
      <trkpt lat="45.34206" lon="4.78418">
        <ele>150.58</ele>
        <time>2013-09-27T09:40:16Z</time>
      </trkpt>
      <trkpt lat="45.34226" lon="4.78414">
        <ele>150.1</ele>
        <time>2013-09-27T09:40:20Z</time>
      </trkpt>
      <trkpt lat="45.34246" lon="4.78412">
        <ele>150.1</ele>
        <time>2013-09-27T09:40:24Z</time>
      </trkpt>
      <trkpt lat="45.34265" lon="4.78408">
        <ele>150.1</ele>
        <time>2013-09-27T09:40:28Z</time>
      </trkpt>
      <trkpt lat="45.34285" lon="4.78406">
        <ele>150.58</ele>
        <time>2013-09-27T09:40:32Z</time>
      </trkpt>
      <trkpt lat="45.34304" lon="4.78403">
        <ele>150.58</ele>
        <time>2013-09-27T09:40:36Z</time>
      </trkpt>
      <trkpt lat="45.34325" lon="4.78399">
        <ele>150.1</ele>
        <time>2013-09-27T09:40:40Z</time>
      </trkpt>
      <trkpt lat="45.34345" lon="4.78395">
        <ele>150.1</ele>
        <time>2013-09-27T09:40:44Z</time>
      </trkpt>
      <trkpt lat="45.34365" lon="4.78391">
        <ele>150.1</ele>
        <time>2013-09-27T09:40:48Z</time>
      </trkpt>
      <trkpt lat="45.34385" lon="4.78387">
        <ele>150.1</ele>
        <time>2013-09-27T09:40:52Z</time>
      </trkpt>
      <trkpt lat="45.34404" lon="4.78384">
        <ele>149.62</ele>
        <time>2013-09-27T09:40:56Z</time>
      </trkpt>
      <trkpt lat="45.34423" lon="4.78381">
        <ele>150.1</ele>
        <time>2013-09-27T09:41:00Z</time>
      </trkpt>
      <trkpt lat="45.34442" lon="4.78379">
        <ele>150.1</ele>
        <time>2013-09-27T09:41:04Z</time>
      </trkpt>
      <trkpt lat="45.3446" lon="4.78377">
        <ele>150.1</ele>
        <time>2013-09-27T09:41:08Z</time>
      </trkpt>
      <trkpt lat="45.34478" lon="4.78373">
        <ele>149.62</ele>
        <time>2013-09-27T09:41:41Z</time>
      </trkpt>
      <trkpt lat="45.34501" lon="4.78368">
        <ele>150.1</ele>
        <time>2013-09-27T09:41:46Z</time>
      </trkpt>
      <trkpt lat="45.34522" lon="4.78365">
        <ele>150.1</ele>
        <time>2013-09-27T09:41:50Z</time>
      </trkpt>
      <trkpt lat="45.34545" lon="4.78362">
        <ele>150.58</ele>
        <time>2013-09-27T09:41:54Z</time>
      </trkpt>
      <trkpt lat="45.34565" lon="4.78359">
        <ele>150.1</ele>
        <time>2013-09-27T09:41:57Z</time>
      </trkpt>
      <trkpt lat="45.34584" lon="4.78356">
        <ele>150.1</ele>
        <time>2013-09-27T09:42:00Z</time>
      </trkpt>
      <trkpt lat="45.34603" lon="4.78353">
        <ele>150.1</ele>
        <time>2013-09-27T09:42:03Z</time>
      </trkpt>
      <trkpt lat="45.34623" lon="4.78349">
        <ele>150.1</ele>
        <time>2013-09-27T09:42:06Z</time>
      </trkpt>
      <trkpt lat="45.34642" lon="4.78346">
        <ele>150.58</ele>
        <time>2013-09-27T09:42:09Z</time>
      </trkpt>
      <trkpt lat="45.34661" lon="4.78343">
        <ele>150.58</ele>
        <time>2013-09-27T09:42:12Z</time>
      </trkpt>
      <trkpt lat="45.34679" lon="4.7834">
        <ele>150.58</ele>
        <time>2013-09-27T09:42:15Z</time>
      </trkpt>
      <trkpt lat="45.34702" lon="4.78336">
        <ele>150.1</ele>
        <time>2013-09-27T09:42:19Z</time>
      </trkpt>
      <trkpt lat="45.34726" lon="4.78332">
        <ele>150.1</ele>
        <time>2013-09-27T09:42:23Z</time>
      </trkpt>
      <trkpt lat="45.3475" lon="4.78329">
        <ele>150.58</ele>
        <time>2013-09-27T09:42:27Z</time>
      </trkpt>
      <trkpt lat="45.34773" lon="4.78325">
        <ele>150.1</ele>
        <time>2013-09-27T09:42:31Z</time>
      </trkpt>
      <trkpt lat="45.34794" lon="4.78322">
        <ele>150.58</ele>
        <time>2013-09-27T09:42:35Z</time>
      </trkpt>
      <trkpt lat="45.34816" lon="4.78318">
        <ele>150.1</ele>
        <time>2013-09-27T09:42:39Z</time>
      </trkpt>
      <trkpt lat="45.34837" lon="4.78316">
        <ele>150.1</ele>
        <time>2013-09-27T09:42:43Z</time>
      </trkpt>
      <trkpt lat="45.34861" lon="4.78313">
        <ele>150.1</ele>
        <time>2013-09-27T09:42:47Z</time>
      </trkpt>
      <trkpt lat="45.34879" lon="4.78311">
        <ele>150.58</ele>
        <time>2013-09-27T09:42:50Z</time>
      </trkpt>
      <trkpt lat="45.34898" lon="4.78309">
        <ele>150.58</ele>
        <time>2013-09-27T09:42:53Z</time>
      </trkpt>
      <trkpt lat="45.34921" lon="4.78307">
        <ele>150.1</ele>
        <time>2013-09-27T09:42:57Z</time>
      </trkpt>
      <trkpt lat="45.34944" lon="4.78305">
        <ele>150.58</ele>
        <time>2013-09-27T09:43:01Z</time>
      </trkpt>
      <trkpt lat="45.34967" lon="4.78303">
        <ele>150.1</ele>
        <time>2013-09-27T09:43:05Z</time>
      </trkpt>
      <trkpt lat="45.34989" lon="4.78301">
        <ele>150.58</ele>
        <time>2013-09-27T09:43:09Z</time>
      </trkpt>
      <trkpt lat="45.3501" lon="4.78299">
        <ele>150.1</ele>
        <time>2013-09-27T09:43:13Z</time>
      </trkpt>
      <trkpt lat="45.35031" lon="4.78296">
        <ele>150.58</ele>
        <time>2013-09-27T09:43:17Z</time>
      </trkpt>
      <trkpt lat="45.35052" lon="4.78293">
        <ele>150.58</ele>
        <time>2013-09-27T09:43:21Z</time>
      </trkpt>
      <trkpt lat="45.35074" lon="4.78289">
        <ele>150.58</ele>
        <time>2013-09-27T09:43:25Z</time>
      </trkpt>
      <trkpt lat="45.35096" lon="4.78286">
        <ele>150.1</ele>
        <time>2013-09-27T09:43:29Z</time>
      </trkpt>
      <trkpt lat="45.35116" lon="4.78283">
        <ele>150.58</ele>
        <time>2013-09-27T09:43:33Z</time>
      </trkpt>
      <trkpt lat="45.35135" lon="4.7828">
        <ele>150.58</ele>
        <time>2013-09-27T09:43:37Z</time>
      </trkpt>
      <trkpt lat="45.35156" lon="4.78277">
        <ele>150.58</ele>
        <time>2013-09-27T09:43:41Z</time>
      </trkpt>
      <trkpt lat="45.35177" lon="4.78273">
        <ele>150.1</ele>
        <time>2013-09-27T09:43:45Z</time>
      </trkpt>
      <trkpt lat="45.35198" lon="4.7827">
        <ele>150.1</ele>
        <time>2013-09-27T09:43:49Z</time>
      </trkpt>
      <trkpt lat="45.35219" lon="4.78265">
        <ele>150.1</ele>
        <time>2013-09-27T09:43:53Z</time>
      </trkpt>
      <trkpt lat="45.35238" lon="4.78261">
        <ele>150.58</ele>
        <time>2013-09-27T09:43:57Z</time>
      </trkpt>
      <trkpt lat="45.35257" lon="4.78257">
        <ele>150.58</ele>
        <time>2013-09-27T09:44:01Z</time>
      </trkpt>
      <trkpt lat="45.35276" lon="4.78252">
        <ele>150.58</ele>
        <time>2013-09-27T09:44:05Z</time>
      </trkpt>
      <trkpt lat="45.35295" lon="4.78246">
        <ele>150.58</ele>
        <time>2013-09-27T09:44:09Z</time>
      </trkpt>
      <trkpt lat="45.35316" lon="4.7824">
        <ele>150.58</ele>
        <time>2013-09-27T09:44:13Z</time>
      </trkpt>
      <trkpt lat="45.35336" lon="4.78233">
        <ele>150.58</ele>
        <time>2013-09-27T09:44:17Z</time>
      </trkpt>
      <trkpt lat="45.35357" lon="4.78226">
        <ele>150.58</ele>
        <time>2013-09-27T09:44:21Z</time>
      </trkpt>
      <trkpt lat="45.35378" lon="4.78218">
        <ele>151.06</ele>
        <time>2013-09-27T09:44:25Z</time>
      </trkpt>
      <trkpt lat="45.35399" lon="4.78209">
        <ele>151.06</ele>
        <time>2013-09-27T09:44:29Z</time>
      </trkpt>
      <trkpt lat="45.3542" lon="4.78201">
        <ele>150.58</ele>
        <time>2013-09-27T09:44:33Z</time>
      </trkpt>
      <trkpt lat="45.35439" lon="4.78191">
        <ele>151.06</ele>
        <time>2013-09-27T09:44:37Z</time>
      </trkpt>
      <trkpt lat="45.3546" lon="4.7818">
        <ele>150.58</ele>
        <time>2013-09-27T09:44:41Z</time>
      </trkpt>
      <trkpt lat="45.35481" lon="4.7817">
        <ele>151.06</ele>
        <time>2013-09-27T09:44:45Z</time>
      </trkpt>
      <trkpt lat="45.35502" lon="4.78159">
        <ele>150.58</ele>
        <time>2013-09-27T09:44:49Z</time>
      </trkpt>
      <trkpt lat="45.35522" lon="4.78147">
        <ele>150.58</ele>
        <time>2013-09-27T09:44:53Z</time>
      </trkpt>
      <trkpt lat="45.35541" lon="4.78136">
        <ele>150.1</ele>
        <time>2013-09-27T09:44:57Z</time>
      </trkpt>
      <trkpt lat="45.35559" lon="4.78126">
        <ele>150.58</ele>
        <time>2013-09-27T09:45:01Z</time>
      </trkpt>
      <trkpt lat="45.35577" lon="4.78114">
        <ele>150.58</ele>
        <time>2013-09-27T09:45:05Z</time>
      </trkpt>
      <trkpt lat="45.35595" lon="4.78103">
        <ele>150.58</ele>
        <time>2013-09-27T09:45:09Z</time>
      </trkpt>
      <trkpt lat="45.35613" lon="4.78091">
        <ele>150.58</ele>
        <time>2013-09-27T09:45:13Z</time>
      </trkpt>
      <trkpt lat="45.35631" lon="4.78079">
        <ele>150.58</ele>
        <time>2013-09-27T09:45:17Z</time>
      </trkpt>
      <trkpt lat="45.35648" lon="4.78066">
        <ele>151.06</ele>
        <time>2013-09-27T09:45:21Z</time>
      </trkpt>
      <trkpt lat="45.35666" lon="4.78052">
        <ele>150.58</ele>
        <time>2013-09-27T09:45:25Z</time>
      </trkpt>
      <trkpt lat="45.35683" lon="4.78039">
        <ele>151.06</ele>
        <time>2013-09-27T09:45:29Z</time>
      </trkpt>
      <trkpt lat="45.357" lon="4.78025">
        <ele>150.58</ele>
        <time>2013-09-27T09:45:33Z</time>
      </trkpt>
      <trkpt lat="45.35717" lon="4.7801">
        <ele>151.06</ele>
        <time>2013-09-27T09:45:37Z</time>
      </trkpt>
      <trkpt lat="45.35735" lon="4.77993">
        <ele>151.06</ele>
        <time>2013-09-27T09:45:41Z</time>
      </trkpt>
      <trkpt lat="45.35752" lon="4.77977">
        <ele>151.06</ele>
        <time>2013-09-27T09:45:45Z</time>
      </trkpt>
      <trkpt lat="45.3577" lon="4.7796">
        <ele>151.06</ele>
        <time>2013-09-27T09:45:49Z</time>
      </trkpt>
      <trkpt lat="45.35788" lon="4.77944">
        <ele>151.06</ele>
        <time>2013-09-27T09:45:53Z</time>
      </trkpt>
      <trkpt lat="45.35806" lon="4.77927">
        <ele>151.06</ele>
        <time>2013-09-27T09:45:57Z</time>
      </trkpt>
      <trkpt lat="45.35826" lon="4.77909">
        <ele>151.06</ele>
        <time>2013-09-27T09:46:01Z</time>
      </trkpt>
      <trkpt lat="45.35844" lon="4.77893">
        <ele>151.06</ele>
        <time>2013-09-27T09:46:05Z</time>
      </trkpt>
      <trkpt lat="45.35862" lon="4.77876">
        <ele>151.06</ele>
        <time>2013-09-27T09:46:09Z</time>
      </trkpt>
      <trkpt lat="45.35879" lon="4.77859">
        <ele>151.06</ele>
        <time>2013-09-27T09:46:13Z</time>
      </trkpt>
      <trkpt lat="45.35897" lon="4.77843">
        <ele>151.06</ele>
        <time>2013-09-27T09:46:17Z</time>
      </trkpt>
      <trkpt lat="45.35914" lon="4.77827">
        <ele>151.06</ele>
        <time>2013-09-27T09:46:21Z</time>
      </trkpt>
      <trkpt lat="45.35932" lon="4.77811">
        <ele>150.58</ele>
        <time>2013-09-27T09:46:25Z</time>
      </trkpt>
      <trkpt lat="45.3595" lon="4.77794">
        <ele>151.54</ele>
        <time>2013-09-27T09:46:29Z</time>
      </trkpt>
      <trkpt lat="45.35967" lon="4.77777">
        <ele>151.54</ele>
        <time>2013-09-27T09:46:33Z</time>
      </trkpt>
      <trkpt lat="45.35986" lon="4.77761">
        <ele>151.06</ele>
        <time>2013-09-27T09:46:37Z</time>
      </trkpt>
      <trkpt lat="45.36002" lon="4.77745">
        <ele>151.06</ele>
        <time>2013-09-27T09:46:41Z</time>
      </trkpt>
      <trkpt lat="45.36018" lon="4.77731">
        <ele>151.06</ele>
        <time>2013-09-27T09:46:45Z</time>
      </trkpt>
      <trkpt lat="45.36034" lon="4.77716">
        <ele>150.58</ele>
        <time>2013-09-27T09:46:49Z</time>
      </trkpt>
      <trkpt lat="45.36052" lon="4.777">
        <ele>151.06</ele>
        <time>2013-09-27T09:46:53Z</time>
      </trkpt>
      <trkpt lat="45.3607" lon="4.77684">
        <ele>151.06</ele>
        <time>2013-09-27T09:46:57Z</time>
      </trkpt>
      <trkpt lat="45.36087" lon="4.77667">
        <ele>151.06</ele>
        <time>2013-09-27T09:47:01Z</time>
      </trkpt>
      <trkpt lat="45.36105" lon="4.77651">
        <ele>151.06</ele>
        <time>2013-09-27T09:47:05Z</time>
      </trkpt>
      <trkpt lat="45.36123" lon="4.77634">
        <ele>151.06</ele>
        <time>2013-09-27T09:47:09Z</time>
      </trkpt>
      <trkpt lat="45.36141" lon="4.77617">
        <ele>151.54</ele>
        <time>2013-09-27T09:47:13Z</time>
      </trkpt>
      <trkpt lat="45.36158" lon="4.77601">
        <ele>151.06</ele>
        <time>2013-09-27T09:47:17Z</time>
      </trkpt>
      <trkpt lat="45.36175" lon="4.77586">
        <ele>151.06</ele>
        <time>2013-09-27T09:47:21Z</time>
      </trkpt>
      <trkpt lat="45.36191" lon="4.7757">
        <ele>151.06</ele>
        <time>2013-09-27T09:47:25Z</time>
      </trkpt>
      <trkpt lat="45.36206" lon="4.77556">
        <ele>151.06</ele>
        <time>2013-09-27T09:47:29Z</time>
      </trkpt>
      <trkpt lat="45.36223" lon="4.7754">
        <ele>151.06</ele>
        <time>2013-09-27T09:47:33Z</time>
      </trkpt>
      <trkpt lat="45.3624" lon="4.77525">
        <ele>151.06</ele>
        <time>2013-09-27T09:47:37Z</time>
      </trkpt>
      <trkpt lat="45.36257" lon="4.77508">
        <ele>151.06</ele>
        <time>2013-09-27T09:47:41Z</time>
      </trkpt>
      <trkpt lat="45.36274" lon="4.77493">
        <ele>150.58</ele>
        <time>2013-09-27T09:47:45Z</time>
      </trkpt>
      <trkpt lat="45.36292" lon="4.77477">
        <ele>151.06</ele>
        <time>2013-09-27T09:47:49Z</time>
      </trkpt>
      <trkpt lat="45.36309" lon="4.77461">
        <ele>151.06</ele>
        <time>2013-09-27T09:47:53Z</time>
      </trkpt>
      <trkpt lat="45.36327" lon="4.77444">
        <ele>151.06</ele>
        <time>2013-09-27T09:47:57Z</time>
      </trkpt>
      <trkpt lat="45.36345" lon="4.77427">
        <ele>151.06</ele>
        <time>2013-09-27T09:48:01Z</time>
      </trkpt>
      <trkpt lat="45.36365" lon="4.77408">
        <ele>151.54</ele>
        <time>2013-09-27T09:48:05Z</time>
      </trkpt>
      <trkpt lat="45.36384" lon="4.77391">
        <ele>151.06</ele>
        <time>2013-09-27T09:48:09Z</time>
      </trkpt>
      <trkpt lat="45.36402" lon="4.77374">
        <ele>151.06</ele>
        <time>2013-09-27T09:48:13Z</time>
      </trkpt>
      <trkpt lat="45.36418" lon="4.77357">
        <ele>151.06</ele>
        <time>2013-09-27T09:48:17Z</time>
      </trkpt>
      <trkpt lat="45.36434" lon="4.77342">
        <ele>151.06</ele>
        <time>2013-09-27T09:48:21Z</time>
      </trkpt>
      <trkpt lat="45.36453" lon="4.77324">
        <ele>151.06</ele>
        <time>2013-09-27T09:48:26Z</time>
      </trkpt>
      <trkpt lat="45.3647" lon="4.77311">
        <ele>151.06</ele>
        <time>2013-09-27T09:48:30Z</time>
      </trkpt>
      <trkpt lat="45.36488" lon="4.77295">
        <ele>151.54</ele>
        <time>2013-09-27T09:48:34Z</time>
      </trkpt>
      <trkpt lat="45.36504" lon="4.77278">
        <ele>151.54</ele>
        <time>2013-09-27T09:48:38Z</time>
      </trkpt>
      <trkpt lat="45.36521" lon="4.77263">
        <ele>151.54</ele>
        <time>2013-09-27T09:48:42Z</time>
      </trkpt>
      <trkpt lat="45.36538" lon="4.77248">
        <ele>151.54</ele>
        <time>2013-09-27T09:48:46Z</time>
      </trkpt>
      <trkpt lat="45.36554" lon="4.77233">
        <ele>151.06</ele>
        <time>2013-09-27T09:48:50Z</time>
      </trkpt>
      <trkpt lat="45.3657" lon="4.77219">
        <ele>151.54</ele>
        <time>2013-09-27T09:48:54Z</time>
      </trkpt>
      <trkpt lat="45.36586" lon="4.77203">
        <ele>151.06</ele>
        <time>2013-09-27T09:48:58Z</time>
      </trkpt>
      <trkpt lat="45.36603" lon="4.77187">
        <ele>151.54</ele>
        <time>2013-09-27T09:49:02Z</time>
      </trkpt>
      <trkpt lat="45.36621" lon="4.7717">
        <ele>151.54</ele>
        <time>2013-09-27T09:49:06Z</time>
      </trkpt>
      <trkpt lat="45.3664" lon="4.77152">
        <ele>152.03</ele>
        <time>2013-09-27T09:49:10Z</time>
      </trkpt>
      <trkpt lat="45.36658" lon="4.77135">
        <ele>151.54</ele>
        <time>2013-09-27T09:49:14Z</time>
      </trkpt>
      <trkpt lat="45.36676" lon="4.77119">
        <ele>151.06</ele>
        <time>2013-09-27T09:49:18Z</time>
      </trkpt>
      <trkpt lat="45.36693" lon="4.77103">
        <ele>151.54</ele>
        <time>2013-09-27T09:49:22Z</time>
      </trkpt>
      <trkpt lat="45.3671" lon="4.77087">
        <ele>151.54</ele>
        <time>2013-09-27T09:49:26Z</time>
      </trkpt>
      <trkpt lat="45.36727" lon="4.77072">
        <ele>151.06</ele>
        <time>2013-09-27T09:49:30Z</time>
      </trkpt>
      <trkpt lat="45.36743" lon="4.77056">
        <ele>151.54</ele>
        <time>2013-09-27T09:49:34Z</time>
      </trkpt>
      <trkpt lat="45.3676" lon="4.7704">
        <ele>151.54</ele>
        <time>2013-09-27T09:49:38Z</time>
      </trkpt>
      <trkpt lat="45.36776" lon="4.77026">
        <ele>151.54</ele>
        <time>2013-09-27T09:49:42Z</time>
      </trkpt>
      <trkpt lat="45.36792" lon="4.77011">
        <ele>151.54</ele>
        <time>2013-09-27T09:49:46Z</time>
      </trkpt>
      <trkpt lat="45.36809" lon="4.76995">
        <ele>151.54</ele>
        <time>2013-09-27T09:49:50Z</time>
      </trkpt>
      <trkpt lat="45.36826" lon="4.76979">
        <ele>151.54</ele>
        <time>2013-09-27T09:49:54Z</time>
      </trkpt>
      <trkpt lat="45.36843" lon="4.76963">
        <ele>151.54</ele>
        <time>2013-09-27T09:49:58Z</time>
      </trkpt>
      <trkpt lat="45.3686" lon="4.76947">
        <ele>151.54</ele>
        <time>2013-09-27T09:50:02Z</time>
      </trkpt>
      <trkpt lat="45.36877" lon="4.76932">
        <ele>151.54</ele>
        <time>2013-09-27T09:50:06Z</time>
      </trkpt>
      <trkpt lat="45.36894" lon="4.76916">
        <ele>151.54</ele>
        <time>2013-09-27T09:50:10Z</time>
      </trkpt>
      <trkpt lat="45.3691" lon="4.76901">
        <ele>151.06</ele>
        <time>2013-09-27T09:50:14Z</time>
      </trkpt>
      <trkpt lat="45.36924" lon="4.76887">
        <ele>151.06</ele>
        <time>2013-09-27T09:50:18Z</time>
      </trkpt>
      <trkpt lat="45.3694" lon="4.76873">
        <ele>151.54</ele>
        <time>2013-09-27T09:50:22Z</time>
      </trkpt>
      <trkpt lat="45.36958" lon="4.76855">
        <ele>151.54</ele>
        <time>2013-09-27T09:50:27Z</time>
      </trkpt>
      <trkpt lat="45.36974" lon="4.76841">
        <ele>151.54</ele>
        <time>2013-09-27T09:50:31Z</time>
      </trkpt>
      <trkpt lat="45.3699" lon="4.76826">
        <ele>151.54</ele>
        <time>2013-09-27T09:50:35Z</time>
      </trkpt>
      <trkpt lat="45.37007" lon="4.7681">
        <ele>151.54</ele>
        <time>2013-09-27T09:50:39Z</time>
      </trkpt>
      <trkpt lat="45.37024" lon="4.76794">
        <ele>151.54</ele>
        <time>2013-09-27T09:50:43Z</time>
      </trkpt>
      <trkpt lat="45.37043" lon="4.76776">
        <ele>151.54</ele>
        <time>2013-09-27T09:50:47Z</time>
      </trkpt>
      <trkpt lat="45.37059" lon="4.76761">
        <ele>151.54</ele>
        <time>2013-09-27T09:50:50Z</time>
      </trkpt>
      <trkpt lat="45.37076" lon="4.76746">
        <ele>151.54</ele>
        <time>2013-09-27T09:50:53Z</time>
      </trkpt>
      <trkpt lat="45.37093" lon="4.7673">
        <ele>151.54</ele>
        <time>2013-09-27T09:50:56Z</time>
      </trkpt>
      <trkpt lat="45.37111" lon="4.76714">
        <ele>152.03</ele>
        <time>2013-09-27T09:50:59Z</time>
      </trkpt>
      <trkpt lat="45.37129" lon="4.76697">
        <ele>151.54</ele>
        <time>2013-09-27T09:51:02Z</time>
      </trkpt>
      <trkpt lat="45.37148" lon="4.7668">
        <ele>151.54</ele>
        <time>2013-09-27T09:51:06Z</time>
      </trkpt>
      <trkpt lat="45.37165" lon="4.76663">
        <ele>151.54</ele>
        <time>2013-09-27T09:51:10Z</time>
      </trkpt>
      <trkpt lat="45.37182" lon="4.76647">
        <ele>151.54</ele>
        <time>2013-09-27T09:51:14Z</time>
      </trkpt>
      <trkpt lat="45.37198" lon="4.76633">
        <ele>151.06</ele>
        <time>2013-09-27T09:51:18Z</time>
      </trkpt>
      <trkpt lat="45.37214" lon="4.76619">
        <ele>151.54</ele>
        <time>2013-09-27T09:51:22Z</time>
      </trkpt>
      <trkpt lat="45.37232" lon="4.76604">
        <ele>151.06</ele>
        <time>2013-09-27T09:51:26Z</time>
      </trkpt>
      <trkpt lat="45.37249" lon="4.76589">
        <ele>151.54</ele>
        <time>2013-09-27T09:51:30Z</time>
      </trkpt>
      <trkpt lat="45.37265" lon="4.76574">
        <ele>151.54</ele>
        <time>2013-09-27T09:51:34Z</time>
      </trkpt>
      <trkpt lat="45.37283" lon="4.76559">
        <ele>151.54</ele>
        <time>2013-09-27T09:51:38Z</time>
      </trkpt>
      <trkpt lat="45.37299" lon="4.76545">
        <ele>151.54</ele>
        <time>2013-09-27T09:51:42Z</time>
      </trkpt>
      <trkpt lat="45.37316" lon="4.76532">
        <ele>151.54</ele>
        <time>2013-09-27T09:51:46Z</time>
      </trkpt>
      <trkpt lat="45.37333" lon="4.76517">
        <ele>151.54</ele>
        <time>2013-09-27T09:51:50Z</time>
      </trkpt>
      <trkpt lat="45.3735" lon="4.76503">
        <ele>151.06</ele>
        <time>2013-09-27T09:51:54Z</time>
      </trkpt>
      <trkpt lat="45.37368" lon="4.7649">
        <ele>151.54</ele>
        <time>2013-09-27T09:51:58Z</time>
      </trkpt>
      <trkpt lat="45.37387" lon="4.76475">
        <ele>151.54</ele>
        <time>2013-09-27T09:52:02Z</time>
      </trkpt>
      <trkpt lat="45.37406" lon="4.7646">
        <ele>151.54</ele>
        <time>2013-09-27T09:52:06Z</time>
      </trkpt>
      <trkpt lat="45.37426" lon="4.76445">
        <ele>151.06</ele>
        <time>2013-09-27T09:52:10Z</time>
      </trkpt>
      <trkpt lat="45.37445" lon="4.76429">
        <ele>151.54</ele>
        <time>2013-09-27T09:52:14Z</time>
      </trkpt>
      <trkpt lat="45.37465" lon="4.76416">
        <ele>152.03</ele>
        <time>2013-09-27T09:52:18Z</time>
      </trkpt>
      <trkpt lat="45.37483" lon="4.76403">
        <ele>151.54</ele>
        <time>2013-09-27T09:52:22Z</time>
      </trkpt>
      <trkpt lat="45.37502" lon="4.76389">
        <ele>151.54</ele>
        <time>2013-09-27T09:52:26Z</time>
      </trkpt>
      <trkpt lat="45.37521" lon="4.76375">
        <ele>151.54</ele>
        <time>2013-09-27T09:52:30Z</time>
      </trkpt>
      <trkpt lat="45.3754" lon="4.76362">
        <ele>151.54</ele>
        <time>2013-09-27T09:52:34Z</time>
      </trkpt>
      <trkpt lat="45.37559" lon="4.76349">
        <ele>151.54</ele>
        <time>2013-09-27T09:52:38Z</time>
      </trkpt>
      <trkpt lat="45.37579" lon="4.76335">
        <ele>152.03</ele>
        <time>2013-09-27T09:52:42Z</time>
      </trkpt>
      <trkpt lat="45.37599" lon="4.76321">
        <ele>151.54</ele>
        <time>2013-09-27T09:52:46Z</time>
      </trkpt>
      <trkpt lat="45.37619" lon="4.76308">
        <ele>152.03</ele>
        <time>2013-09-27T09:52:50Z</time>
      </trkpt>
      <trkpt lat="45.37639" lon="4.76295">
        <ele>152.03</ele>
        <time>2013-09-27T09:52:54Z</time>
      </trkpt>
      <trkpt lat="45.3766" lon="4.76281">
        <ele>151.54</ele>
        <time>2013-09-27T09:52:58Z</time>
      </trkpt>
      <trkpt lat="45.3768" lon="4.76269">
        <ele>151.54</ele>
        <time>2013-09-27T09:53:02Z</time>
      </trkpt>
      <trkpt lat="45.37701" lon="4.76256">
        <ele>151.54</ele>
        <time>2013-09-27T09:53:06Z</time>
      </trkpt>
      <trkpt lat="45.37721" lon="4.76244">
        <ele>151.54</ele>
        <time>2013-09-27T09:53:10Z</time>
      </trkpt>
      <trkpt lat="45.3774" lon="4.76232">
        <ele>151.54</ele>
        <time>2013-09-27T09:53:14Z</time>
      </trkpt>
      <trkpt lat="45.37759" lon="4.76221">
        <ele>151.54</ele>
        <time>2013-09-27T09:53:18Z</time>
      </trkpt>
      <trkpt lat="45.3778" lon="4.76209">
        <ele>152.03</ele>
        <time>2013-09-27T09:53:22Z</time>
      </trkpt>
      <trkpt lat="45.37801" lon="4.76197">
        <ele>152.03</ele>
        <time>2013-09-27T09:53:26Z</time>
      </trkpt>
      <trkpt lat="45.37822" lon="4.76184">
        <ele>151.54</ele>
        <time>2013-09-27T09:53:30Z</time>
      </trkpt>
      <trkpt lat="45.37843" lon="4.76172">
        <ele>152.03</ele>
        <time>2013-09-27T09:53:34Z</time>
      </trkpt>
      <trkpt lat="45.37864" lon="4.7616">
        <ele>152.03</ele>
        <time>2013-09-27T09:53:38Z</time>
      </trkpt>
      <trkpt lat="45.37886" lon="4.76146">
        <ele>151.54</ele>
        <time>2013-09-27T09:53:42Z</time>
      </trkpt>
      <trkpt lat="45.37906" lon="4.76133">
        <ele>151.54</ele>
        <time>2013-09-27T09:53:46Z</time>
      </trkpt>
      <trkpt lat="45.37925" lon="4.7612">
        <ele>151.54</ele>
        <time>2013-09-27T09:53:50Z</time>
      </trkpt>
      <trkpt lat="45.37943" lon="4.76107">
        <ele>151.54</ele>
        <time>2013-09-27T09:53:54Z</time>
      </trkpt>
      <trkpt lat="45.37961" lon="4.76094">
        <ele>151.54</ele>
        <time>2013-09-27T09:53:58Z</time>
      </trkpt>
      <trkpt lat="45.3798" lon="4.76081">
        <ele>151.06</ele>
        <time>2013-09-27T09:54:02Z</time>
      </trkpt>
      <trkpt lat="45.37994" lon="4.76064">
        <ele>151.54</ele>
        <time>2013-09-27T09:54:06Z</time>
      </trkpt>
      <trkpt lat="45.38005" lon="4.76042">
        <ele>151.54</ele>
        <time>2013-09-27T09:54:10Z</time>
      </trkpt>
      <trkpt lat="45.38003" lon="4.76017">
        <ele>152.03</ele>
        <time>2013-09-27T09:54:20Z</time>
      </trkpt>
      <trkpt lat="45.38011" lon="4.75996">
        <ele>152.51</ele>
        <time>2013-09-27T09:54:26Z</time>
      </trkpt>
      <trkpt lat="45.38025" lon="4.75975">
        <ele>153.47</ele>
        <time>2013-09-27T09:54:32Z</time>
      </trkpt>
      <trkpt lat="45.38036" lon="4.75951">
        <ele>154.43</ele>
        <time>2013-09-27T09:54:39Z</time>
      </trkpt>
      <trkpt lat="45.38039" lon="4.75923">
        <ele>155.87</ele>
        <time>2013-09-27T09:54:46Z</time>
      </trkpt>
      <trkpt lat="45.3804" lon="4.75896">
        <ele>156.35</ele>
        <time>2013-09-27T09:54:53Z</time>
      </trkpt>
      <trkpt lat="45.38046" lon="4.75868">
        <ele>156.35</ele>
        <time>2013-09-27T09:54:58Z</time>
      </trkpt>
      <trkpt lat="45.38052" lon="4.75837">
        <ele>156.35</ele>
        <time>2013-09-27T09:55:03Z</time>
      </trkpt>
      <trkpt lat="45.38057" lon="4.75809">
        <ele>156.35</ele>
        <time>2013-09-27T09:55:07Z</time>
      </trkpt>
      <trkpt lat="45.38062" lon="4.75782">
        <ele>156.83</ele>
        <time>2013-09-27T09:55:11Z</time>
      </trkpt>
      <trkpt lat="45.38067" lon="4.75755">
        <ele>156.35</ele>
        <time>2013-09-27T09:55:15Z</time>
      </trkpt>
      <trkpt lat="45.38072" lon="4.75727">
        <ele>156.83</ele>
        <time>2013-09-27T09:55:19Z</time>
      </trkpt>
      <trkpt lat="45.38077" lon="4.75699">
        <ele>156.83</ele>
        <time>2013-09-27T09:55:23Z</time>
      </trkpt>
      <trkpt lat="45.38082" lon="4.75674">
        <ele>156.83</ele>
        <time>2013-09-27T09:55:27Z</time>
      </trkpt>
      <trkpt lat="45.38088" lon="4.75651">
        <ele>156.35</ele>
        <time>2013-09-27T09:55:51Z</time>
      </trkpt>
      <trkpt lat="45.38096" lon="4.75624">
        <ele>155.87</ele>
        <time>2013-09-27T09:56:10Z</time>
      </trkpt>
      <trkpt lat="45.38105" lon="4.75595">
        <ele>154.91</ele>
        <time>2013-09-27T09:56:15Z</time>
      </trkpt>
      <trkpt lat="45.38121" lon="4.75583">
        <ele>152.51</ele>
        <time>2013-09-27T09:56:23Z</time>
      </trkpt>
      <trkpt lat="45.38129" lon="4.75561">
        <ele>152.51</ele>
        <time>2013-09-27T09:56:27Z</time>
      </trkpt>
      <trkpt lat="45.38137" lon="4.75529">
        <ele>152.51</ele>
        <time>2013-09-27T09:56:32Z</time>
      </trkpt>
      <trkpt lat="45.38154" lon="4.75507">
        <ele>152.03</ele>
        <time>2013-09-27T09:56:36Z</time>
      </trkpt>
      <trkpt lat="45.3817" lon="4.75494">
        <ele>152.03</ele>
        <time>2013-09-27T09:56:39Z</time>
      </trkpt>
      <trkpt lat="45.38187" lon="4.75481">
        <ele>152.03</ele>
        <time>2013-09-27T09:56:42Z</time>
      </trkpt>
      <trkpt lat="45.38204" lon="4.75467">
        <ele>152.03</ele>
        <time>2013-09-27T09:56:45Z</time>
      </trkpt>
      <trkpt lat="45.38221" lon="4.75454">
        <ele>152.03</ele>
        <time>2013-09-27T09:56:48Z</time>
      </trkpt>
      <trkpt lat="45.38237" lon="4.75442">
        <ele>152.51</ele>
        <time>2013-09-27T09:56:51Z</time>
      </trkpt>
      <trkpt lat="45.38258" lon="4.75425">
        <ele>152.03</ele>
        <time>2013-09-27T09:56:55Z</time>
      </trkpt>
      <trkpt lat="45.38279" lon="4.75417">
        <ele>151.54</ele>
        <time>2013-09-27T09:56:59Z</time>
      </trkpt>
      <trkpt lat="45.38299" lon="4.75421">
        <ele>151.54</ele>
        <time>2013-09-27T09:57:04Z</time>
      </trkpt>
      <trkpt lat="45.38319" lon="4.75433">
        <ele>151.54</ele>
        <time>2013-09-27T09:57:09Z</time>
      </trkpt>
      <trkpt lat="45.38336" lon="4.75447">
        <ele>152.03</ele>
        <time>2013-09-27T09:57:14Z</time>
      </trkpt>
      <trkpt lat="45.38321" lon="4.75437">
        <ele>152.51</ele>
        <time>2013-09-27T09:58:54Z</time>
      </trkpt>
      <trkpt lat="45.38304" lon="4.75425">
        <ele>152.03</ele>
        <time>2013-09-27T09:59:10Z</time>
      </trkpt>
      <trkpt lat="45.38286" lon="4.75419">
        <ele>152.51</ele>
        <time>2013-09-27T09:59:18Z</time>
      </trkpt>
      <trkpt lat="45.38266" lon="4.75422">
        <ele>152.51</ele>
        <time>2013-09-27T09:59:24Z</time>
      </trkpt>
      <trkpt lat="45.38248" lon="4.75433">
        <ele>152.99</ele>
        <time>2013-09-27T09:59:30Z</time>
      </trkpt>
      <trkpt lat="45.38233" lon="4.75446">
        <ele>152.99</ele>
        <time>2013-09-27T09:59:48Z</time>
      </trkpt>
      <trkpt lat="45.38217" lon="4.75459">
        <ele>152.99</ele>
        <time>2013-09-27T09:59:55Z</time>
      </trkpt>
      <trkpt lat="45.382" lon="4.75473">
        <ele>152.99</ele>
        <time>2013-09-27T10:00:00Z</time>
      </trkpt>
      <trkpt lat="45.38184" lon="4.75486">
        <ele>152.51</ele>
        <time>2013-09-27T10:00:05Z</time>
      </trkpt>
      <trkpt lat="45.38166" lon="4.755">
        <ele>152.51</ele>
        <time>2013-09-27T10:00:10Z</time>
      </trkpt>
      <trkpt lat="45.38148" lon="4.75514">
        <ele>152.99</ele>
        <time>2013-09-27T10:00:15Z</time>
      </trkpt>
      <trkpt lat="45.38135" lon="4.75532">
        <ele>153.47</ele>
        <time>2013-09-27T10:00:20Z</time>
      </trkpt>
      <trkpt lat="45.38124" lon="4.75556">
        <ele>153.47</ele>
        <time>2013-09-27T10:00:27Z</time>
      </trkpt>
      <trkpt lat="45.38116" lon="4.75559">
        <ele>153.47</ele>
        <time>2013-09-27T10:06:36Z</time>
      </trkpt>
      <trkpt lat="45.38125" lon="4.7561">
        <ele>155.39</ele>
        <time>2013-09-27T10:24:43Z</time>
      </trkpt>
      <trkpt lat="45.38129" lon="4.75606">
        <ele>149.62</ele>
        <time>2013-09-27T10:28:44Z</time>
      </trkpt>
      <trkpt lat="45.38124" lon="4.75575">
        <ele>149.62</ele>
        <time>2013-09-27T10:28:51Z</time>
      </trkpt>
      <trkpt lat="45.38121" lon="4.75547">
        <ele>150.1</ele>
        <time>2013-09-27T10:28:56Z</time>
      </trkpt>
      <trkpt lat="45.38128" lon="4.7553">
        <ele>150.1</ele>
        <time>2013-09-27T10:29:03Z</time>
      </trkpt>
      <trkpt lat="45.38142" lon="4.75506">
        <ele>149.62</ele>
        <time>2013-09-27T10:29:08Z</time>
      </trkpt>
      <trkpt lat="45.38164" lon="4.75481">
        <ele>149.62</ele>
        <time>2013-09-27T10:29:13Z</time>
      </trkpt>
      <trkpt lat="45.38195" lon="4.75467">
        <ele>149.62</ele>
        <time>2013-09-27T10:29:17Z</time>
      </trkpt>
      <trkpt lat="45.38219" lon="4.75453">
        <ele>150.1</ele>
        <time>2013-09-27T10:29:21Z</time>
      </trkpt>
      <trkpt lat="45.38236" lon="4.7544">
        <ele>150.58</ele>
        <time>2013-09-27T10:29:24Z</time>
      </trkpt>
      <trkpt lat="45.38253" lon="4.75427">
        <ele>150.1</ele>
        <time>2013-09-27T10:29:27Z</time>
      </trkpt>
      <trkpt lat="45.38271" lon="4.75419">
        <ele>149.62</ele>
        <time>2013-09-27T10:29:30Z</time>
      </trkpt>
      <trkpt lat="45.3829" lon="4.75421">
        <ele>149.62</ele>
        <time>2013-09-27T10:29:33Z</time>
      </trkpt>
      <trkpt lat="45.38308" lon="4.7543">
        <ele>149.62</ele>
        <time>2013-09-27T10:29:36Z</time>
      </trkpt>
      <trkpt lat="45.38325" lon="4.75441">
        <ele>149.62</ele>
        <time>2013-09-27T10:29:39Z</time>
      </trkpt>
      <trkpt lat="45.38347" lon="4.75458">
        <ele>149.62</ele>
        <time>2013-09-27T10:29:43Z</time>
      </trkpt>
      <trkpt lat="45.38368" lon="4.75473">
        <ele>149.62</ele>
        <time>2013-09-27T10:29:47Z</time>
      </trkpt>
      <trkpt lat="45.3839" lon="4.75487">
        <ele>149.14</ele>
        <time>2013-09-27T10:29:51Z</time>
      </trkpt>
      <trkpt lat="45.38411" lon="4.75502">
        <ele>150.1</ele>
        <time>2013-09-27T10:29:55Z</time>
      </trkpt>
      <trkpt lat="45.38432" lon="4.75516">
        <ele>149.62</ele>
        <time>2013-09-27T10:29:59Z</time>
      </trkpt>
      <trkpt lat="45.38452" lon="4.7553">
        <ele>149.14</ele>
        <time>2013-09-27T10:30:03Z</time>
      </trkpt>
      <trkpt lat="45.38473" lon="4.75543">
        <ele>150.1</ele>
        <time>2013-09-27T10:30:07Z</time>
      </trkpt>
      <trkpt lat="45.38495" lon="4.75554">
        <ele>149.14</ele>
        <time>2013-09-27T10:30:11Z</time>
      </trkpt>
      <trkpt lat="45.38517" lon="4.75565">
        <ele>149.62</ele>
        <time>2013-09-27T10:30:15Z</time>
      </trkpt>
      <trkpt lat="45.38539" lon="4.75574">
        <ele>149.62</ele>
        <time>2013-09-27T10:30:19Z</time>
      </trkpt>
      <trkpt lat="45.38562" lon="4.75581">
        <ele>149.62</ele>
        <time>2013-09-27T10:30:23Z</time>
      </trkpt>
      <trkpt lat="45.38584" lon="4.75587">
        <ele>149.62</ele>
        <time>2013-09-27T10:30:27Z</time>
      </trkpt>
      <trkpt lat="45.38607" lon="4.75592">
        <ele>149.62</ele>
        <time>2013-09-27T10:30:31Z</time>
      </trkpt>
      <trkpt lat="45.3863" lon="4.75596">
        <ele>149.62</ele>
        <time>2013-09-27T10:30:35Z</time>
      </trkpt>
      <trkpt lat="45.38653" lon="4.75599">
        <ele>149.62</ele>
        <time>2013-09-27T10:30:39Z</time>
      </trkpt>
      <trkpt lat="45.38678" lon="4.75601">
        <ele>149.62</ele>
        <time>2013-09-27T10:30:43Z</time>
      </trkpt>
      <trkpt lat="45.38696" lon="4.756">
        <ele>150.1</ele>
        <time>2013-09-27T10:30:46Z</time>
      </trkpt>
      <trkpt lat="45.38714" lon="4.75598">
        <ele>149.62</ele>
        <time>2013-09-27T10:30:49Z</time>
      </trkpt>
      <trkpt lat="45.38732" lon="4.75594">
        <ele>149.14</ele>
        <time>2013-09-27T10:30:52Z</time>
      </trkpt>
      <trkpt lat="45.38751" lon="4.75591">
        <ele>149.62</ele>
        <time>2013-09-27T10:30:55Z</time>
      </trkpt>
      <trkpt lat="45.3877" lon="4.75587">
        <ele>149.62</ele>
        <time>2013-09-27T10:30:58Z</time>
      </trkpt>
      <trkpt lat="45.3879" lon="4.75584">
        <ele>149.62</ele>
        <time>2013-09-27T10:31:01Z</time>
      </trkpt>
      <trkpt lat="45.38809" lon="4.7558">
        <ele>149.62</ele>
        <time>2013-09-27T10:31:04Z</time>
      </trkpt>
      <trkpt lat="45.38828" lon="4.75576">
        <ele>149.14</ele>
        <time>2013-09-27T10:31:07Z</time>
      </trkpt>
      <trkpt lat="45.38848" lon="4.75571">
        <ele>149.62</ele>
        <time>2013-09-27T10:31:10Z</time>
      </trkpt>
      <trkpt lat="45.38868" lon="4.75566">
        <ele>149.62</ele>
        <time>2013-09-27T10:31:13Z</time>
      </trkpt>
      <trkpt lat="45.38887" lon="4.75561">
        <ele>149.14</ele>
        <time>2013-09-27T10:31:16Z</time>
      </trkpt>
      <trkpt lat="45.38907" lon="4.75556">
        <ele>149.14</ele>
        <time>2013-09-27T10:31:19Z</time>
      </trkpt>
      <trkpt lat="45.38928" lon="4.7555">
        <ele>149.14</ele>
        <time>2013-09-27T10:31:22Z</time>
      </trkpt>
      <trkpt lat="45.38947" lon="4.75547">
        <ele>149.14</ele>
        <time>2013-09-27T10:31:25Z</time>
      </trkpt>
      <trkpt lat="45.38968" lon="4.75548">
        <ele>150.1</ele>
        <time>2013-09-27T10:31:28Z</time>
      </trkpt>
      <trkpt lat="45.38987" lon="4.7555">
        <ele>150.1</ele>
        <time>2013-09-27T10:31:31Z</time>
      </trkpt>
      <trkpt lat="45.39008" lon="4.75548">
        <ele>150.1</ele>
        <time>2013-09-27T10:31:34Z</time>
      </trkpt>
      <trkpt lat="45.39026" lon="4.75539">
        <ele>149.62</ele>
        <time>2013-09-27T10:31:37Z</time>
      </trkpt>
      <trkpt lat="45.39044" lon="4.75523">
        <ele>150.1</ele>
        <time>2013-09-27T10:31:40Z</time>
      </trkpt>
      <trkpt lat="45.39062" lon="4.75509">
        <ele>149.62</ele>
        <time>2013-09-27T10:31:43Z</time>
      </trkpt>
      <trkpt lat="45.39082" lon="4.755">
        <ele>149.62</ele>
        <time>2013-09-27T10:31:46Z</time>
      </trkpt>
      <trkpt lat="45.39101" lon="4.75492">
        <ele>150.1</ele>
        <time>2013-09-27T10:31:49Z</time>
      </trkpt>
      <trkpt lat="45.39121" lon="4.75485">
        <ele>150.1</ele>
        <time>2013-09-27T10:31:52Z</time>
      </trkpt>
      <trkpt lat="45.39141" lon="4.75478">
        <ele>149.14</ele>
        <time>2013-09-27T10:31:55Z</time>
      </trkpt>
      <trkpt lat="45.39161" lon="4.75474">
        <ele>149.62</ele>
        <time>2013-09-27T10:31:58Z</time>
      </trkpt>
      <trkpt lat="45.39182" lon="4.75473">
        <ele>149.62</ele>
        <time>2013-09-27T10:32:01Z</time>
      </trkpt>
      <trkpt lat="45.39204" lon="4.75471">
        <ele>150.1</ele>
        <time>2013-09-27T10:32:04Z</time>
      </trkpt>
      <trkpt lat="45.39225" lon="4.75469">
        <ele>150.1</ele>
        <time>2013-09-27T10:32:07Z</time>
      </trkpt>
      <trkpt lat="45.39246" lon="4.75467">
        <ele>150.1</ele>
        <time>2013-09-27T10:32:10Z</time>
      </trkpt>
      <trkpt lat="45.39269" lon="4.7546">
        <ele>149.62</ele>
        <time>2013-09-27T10:32:13Z</time>
      </trkpt>
      <trkpt lat="45.39291" lon="4.7545">
        <ele>150.1</ele>
        <time>2013-09-27T10:32:16Z</time>
      </trkpt>
      <trkpt lat="45.39311" lon="4.75439">
        <ele>149.62</ele>
        <time>2013-09-27T10:32:19Z</time>
      </trkpt>
      <trkpt lat="45.39332" lon="4.75428">
        <ele>150.1</ele>
        <time>2013-09-27T10:32:22Z</time>
      </trkpt>
      <trkpt lat="45.39353" lon="4.75419">
        <ele>149.62</ele>
        <time>2013-09-27T10:32:25Z</time>
      </trkpt>
      <trkpt lat="45.39373" lon="4.75409">
        <ele>149.62</ele>
        <time>2013-09-27T10:32:28Z</time>
      </trkpt>
      <trkpt lat="45.39393" lon="4.75399">
        <ele>149.62</ele>
        <time>2013-09-27T10:32:31Z</time>
      </trkpt>
      <trkpt lat="45.39413" lon="4.75389">
        <ele>150.1</ele>
        <time>2013-09-27T10:32:34Z</time>
      </trkpt>
      <trkpt lat="45.39432" lon="4.75379">
        <ele>149.62</ele>
        <time>2013-09-27T10:32:37Z</time>
      </trkpt>
      <trkpt lat="45.39452" lon="4.75368">
        <ele>150.1</ele>
        <time>2013-09-27T10:32:40Z</time>
      </trkpt>
      <trkpt lat="45.39473" lon="4.75358">
        <ele>149.62</ele>
        <time>2013-09-27T10:32:43Z</time>
      </trkpt>
      <trkpt lat="45.39493" lon="4.75347">
        <ele>149.62</ele>
        <time>2013-09-27T10:32:46Z</time>
      </trkpt>
      <trkpt lat="45.39513" lon="4.75336">
        <ele>149.62</ele>
        <time>2013-09-27T10:32:49Z</time>
      </trkpt>
      <trkpt lat="45.39533" lon="4.75325">
        <ele>149.62</ele>
        <time>2013-09-27T10:32:52Z</time>
      </trkpt>
      <trkpt lat="45.39553" lon="4.75314">
        <ele>149.62</ele>
        <time>2013-09-27T10:32:55Z</time>
      </trkpt>
      <trkpt lat="45.39572" lon="4.75303">
        <ele>150.1</ele>
        <time>2013-09-27T10:32:58Z</time>
      </trkpt>
      <trkpt lat="45.39592" lon="4.75291">
        <ele>150.1</ele>
        <time>2013-09-27T10:33:01Z</time>
      </trkpt>
      <trkpt lat="45.39611" lon="4.75279">
        <ele>149.62</ele>
        <time>2013-09-27T10:33:04Z</time>
      </trkpt>
      <trkpt lat="45.39631" lon="4.75267">
        <ele>149.62</ele>
        <time>2013-09-27T10:33:07Z</time>
      </trkpt>
      <trkpt lat="45.39649" lon="4.75255">
        <ele>150.1</ele>
        <time>2013-09-27T10:33:10Z</time>
      </trkpt>
      <trkpt lat="45.39669" lon="4.75243">
        <ele>150.1</ele>
        <time>2013-09-27T10:33:13Z</time>
      </trkpt>
      <trkpt lat="45.39688" lon="4.7523">
        <ele>149.62</ele>
        <time>2013-09-27T10:33:16Z</time>
      </trkpt>
      <trkpt lat="45.39707" lon="4.75217">
        <ele>149.62</ele>
        <time>2013-09-27T10:33:19Z</time>
      </trkpt>
      <trkpt lat="45.39726" lon="4.75205">
        <ele>149.62</ele>
        <time>2013-09-27T10:33:22Z</time>
      </trkpt>
      <trkpt lat="45.39744" lon="4.75191">
        <ele>149.62</ele>
        <time>2013-09-27T10:33:25Z</time>
      </trkpt>
      <trkpt lat="45.39763" lon="4.75178">
        <ele>149.62</ele>
        <time>2013-09-27T10:33:28Z</time>
      </trkpt>
      <trkpt lat="45.39782" lon="4.75163">
        <ele>150.1</ele>
        <time>2013-09-27T10:33:31Z</time>
      </trkpt>
      <trkpt lat="45.398" lon="4.75148">
        <ele>150.1</ele>
        <time>2013-09-27T10:33:34Z</time>
      </trkpt>
      <trkpt lat="45.39818" lon="4.75132">
        <ele>149.62</ele>
        <time>2013-09-27T10:33:37Z</time>
      </trkpt>
      <trkpt lat="45.39835" lon="4.75116">
        <ele>149.62</ele>
        <time>2013-09-27T10:33:40Z</time>
      </trkpt>
      <trkpt lat="45.39852" lon="4.75099">
        <ele>150.1</ele>
        <time>2013-09-27T10:33:43Z</time>
      </trkpt>
      <trkpt lat="45.39869" lon="4.75083">
        <ele>149.62</ele>
        <time>2013-09-27T10:33:46Z</time>
      </trkpt>
      <trkpt lat="45.39885" lon="4.75067">
        <ele>150.1</ele>
        <time>2013-09-27T10:33:49Z</time>
      </trkpt>
      <trkpt lat="45.39903" lon="4.75051">
        <ele>150.1</ele>
        <time>2013-09-27T10:33:52Z</time>
      </trkpt>
      <trkpt lat="45.3992" lon="4.75034">
        <ele>150.58</ele>
        <time>2013-09-27T10:33:55Z</time>
      </trkpt>
      <trkpt lat="45.39938" lon="4.75017">
        <ele>150.1</ele>
        <time>2013-09-27T10:33:58Z</time>
      </trkpt>
      <trkpt lat="45.39956" lon="4.75001">
        <ele>150.1</ele>
        <time>2013-09-27T10:34:01Z</time>
      </trkpt>
      <trkpt lat="45.39973" lon="4.74984">
        <ele>150.1</ele>
        <time>2013-09-27T10:34:04Z</time>
      </trkpt>
      <trkpt lat="45.39991" lon="4.74967">
        <ele>150.1</ele>
        <time>2013-09-27T10:34:07Z</time>
      </trkpt>
      <trkpt lat="45.40008" lon="4.74949">
        <ele>149.62</ele>
        <time>2013-09-27T10:34:10Z</time>
      </trkpt>
      <trkpt lat="45.40026" lon="4.74932">
        <ele>149.62</ele>
        <time>2013-09-27T10:34:13Z</time>
      </trkpt>
      <trkpt lat="45.40044" lon="4.74915">
        <ele>150.1</ele>
        <time>2013-09-27T10:34:16Z</time>
      </trkpt>
      <trkpt lat="45.40061" lon="4.74898">
        <ele>150.1</ele>
        <time>2013-09-27T10:34:19Z</time>
      </trkpt>
      <trkpt lat="45.40079" lon="4.74881">
        <ele>150.1</ele>
        <time>2013-09-27T10:34:22Z</time>
      </trkpt>
      <trkpt lat="45.40095" lon="4.74864">
        <ele>149.62</ele>
        <time>2013-09-27T10:34:25Z</time>
      </trkpt>
      <trkpt lat="45.40113" lon="4.74846">
        <ele>150.1</ele>
        <time>2013-09-27T10:34:28Z</time>
      </trkpt>
      <trkpt lat="45.40131" lon="4.7483">
        <ele>150.1</ele>
        <time>2013-09-27T10:34:31Z</time>
      </trkpt>
      <trkpt lat="45.40148" lon="4.74813">
        <ele>150.1</ele>
        <time>2013-09-27T10:34:34Z</time>
      </trkpt>
      <trkpt lat="45.40165" lon="4.74795">
        <ele>150.1</ele>
        <time>2013-09-27T10:34:37Z</time>
      </trkpt>
      <trkpt lat="45.40183" lon="4.74778">
        <ele>150.1</ele>
        <time>2013-09-27T10:34:40Z</time>
      </trkpt>
      <trkpt lat="45.40201" lon="4.74761">
        <ele>150.1</ele>
        <time>2013-09-27T10:34:43Z</time>
      </trkpt>
      <trkpt lat="45.40219" lon="4.74744">
        <ele>150.1</ele>
        <time>2013-09-27T10:34:46Z</time>
      </trkpt>
      <trkpt lat="45.40237" lon="4.74726">
        <ele>149.62</ele>
        <time>2013-09-27T10:34:49Z</time>
      </trkpt>
      <trkpt lat="45.40255" lon="4.74709">
        <ele>150.1</ele>
        <time>2013-09-27T10:34:52Z</time>
      </trkpt>
      <trkpt lat="45.40273" lon="4.74691">
        <ele>149.62</ele>
        <time>2013-09-27T10:34:55Z</time>
      </trkpt>
      <trkpt lat="45.40292" lon="4.74674">
        <ele>149.62</ele>
        <time>2013-09-27T10:34:58Z</time>
      </trkpt>
      <trkpt lat="45.4031" lon="4.74656">
        <ele>149.62</ele>
        <time>2013-09-27T10:35:01Z</time>
      </trkpt>
      <trkpt lat="45.40328" lon="4.74637">
        <ele>149.62</ele>
        <time>2013-09-27T10:35:04Z</time>
      </trkpt>
      <trkpt lat="45.40347" lon="4.74619">
        <ele>150.1</ele>
        <time>2013-09-27T10:35:07Z</time>
      </trkpt>
      <trkpt lat="45.40366" lon="4.74601">
        <ele>150.1</ele>
        <time>2013-09-27T10:35:10Z</time>
      </trkpt>
      <trkpt lat="45.40385" lon="4.74583">
        <ele>150.1</ele>
        <time>2013-09-27T10:35:13Z</time>
      </trkpt>
      <trkpt lat="45.40403" lon="4.74564">
        <ele>150.1</ele>
        <time>2013-09-27T10:35:16Z</time>
      </trkpt>
      <trkpt lat="45.40422" lon="4.74546">
        <ele>150.1</ele>
        <time>2013-09-27T10:35:19Z</time>
      </trkpt>
      <trkpt lat="45.40442" lon="4.74528">
        <ele>150.58</ele>
        <time>2013-09-27T10:35:22Z</time>
      </trkpt>
      <trkpt lat="45.4046" lon="4.74509">
        <ele>150.1</ele>
        <time>2013-09-27T10:35:25Z</time>
      </trkpt>
      <trkpt lat="45.40479" lon="4.74492">
        <ele>150.1</ele>
        <time>2013-09-27T10:35:28Z</time>
      </trkpt>
      <trkpt lat="45.40498" lon="4.74474">
        <ele>150.1</ele>
        <time>2013-09-27T10:35:31Z</time>
      </trkpt>
      <trkpt lat="45.40518" lon="4.74457">
        <ele>150.1</ele>
        <time>2013-09-27T10:35:34Z</time>
      </trkpt>
      <trkpt lat="45.40538" lon="4.7444">
        <ele>150.1</ele>
        <time>2013-09-27T10:35:37Z</time>
      </trkpt>
      <trkpt lat="45.40557" lon="4.74423">
        <ele>150.1</ele>
        <time>2013-09-27T10:35:40Z</time>
      </trkpt>
      <trkpt lat="45.40578" lon="4.74406">
        <ele>149.62</ele>
        <time>2013-09-27T10:35:43Z</time>
      </trkpt>
      <trkpt lat="45.40598" lon="4.74389">
        <ele>149.62</ele>
        <time>2013-09-27T10:35:46Z</time>
      </trkpt>
      <trkpt lat="45.40619" lon="4.74371">
        <ele>150.1</ele>
        <time>2013-09-27T10:35:49Z</time>
      </trkpt>
      <trkpt lat="45.40639" lon="4.74354">
        <ele>150.1</ele>
        <time>2013-09-27T10:35:52Z</time>
      </trkpt>
      <trkpt lat="45.40659" lon="4.74338">
        <ele>150.1</ele>
        <time>2013-09-27T10:35:55Z</time>
      </trkpt>
      <trkpt lat="45.4068" lon="4.74322">
        <ele>150.1</ele>
        <time>2013-09-27T10:35:58Z</time>
      </trkpt>
      <trkpt lat="45.407" lon="4.74306">
        <ele>150.1</ele>
        <time>2013-09-27T10:36:01Z</time>
      </trkpt>
      <trkpt lat="45.4072" lon="4.74291">
        <ele>150.1</ele>
        <time>2013-09-27T10:36:04Z</time>
      </trkpt>
      <trkpt lat="45.4074" lon="4.74275">
        <ele>150.1</ele>
        <time>2013-09-27T10:36:07Z</time>
      </trkpt>
      <trkpt lat="45.4076" lon="4.74261">
        <ele>150.1</ele>
        <time>2013-09-27T10:36:10Z</time>
      </trkpt>
      <trkpt lat="45.4078" lon="4.74247">
        <ele>150.58</ele>
        <time>2013-09-27T10:36:13Z</time>
      </trkpt>
      <trkpt lat="45.408" lon="4.74233">
        <ele>150.1</ele>
        <time>2013-09-27T10:36:16Z</time>
      </trkpt>
      <trkpt lat="45.40819" lon="4.7422">
        <ele>150.1</ele>
        <time>2013-09-27T10:36:19Z</time>
      </trkpt>
      <trkpt lat="45.4084" lon="4.74207">
        <ele>150.58</ele>
        <time>2013-09-27T10:36:22Z</time>
      </trkpt>
      <trkpt lat="45.4086" lon="4.74194">
        <ele>150.1</ele>
        <time>2013-09-27T10:36:25Z</time>
      </trkpt>
      <trkpt lat="45.4088" lon="4.74182">
        <ele>150.58</ele>
        <time>2013-09-27T10:36:28Z</time>
      </trkpt>
      <trkpt lat="45.40901" lon="4.74169">
        <ele>150.1</ele>
        <time>2013-09-27T10:36:31Z</time>
      </trkpt>
      <trkpt lat="45.40922" lon="4.74158">
        <ele>149.62</ele>
        <time>2013-09-27T10:36:34Z</time>
      </trkpt>
      <trkpt lat="45.40942" lon="4.74146">
        <ele>150.58</ele>
        <time>2013-09-27T10:36:37Z</time>
      </trkpt>
      <trkpt lat="45.40962" lon="4.74135">
        <ele>150.1</ele>
        <time>2013-09-27T10:36:40Z</time>
      </trkpt>
      <trkpt lat="45.40983" lon="4.74124">
        <ele>150.58</ele>
        <time>2013-09-27T10:36:43Z</time>
      </trkpt>
      <trkpt lat="45.41004" lon="4.74114">
        <ele>150.1</ele>
        <time>2013-09-27T10:36:46Z</time>
      </trkpt>
      <trkpt lat="45.41025" lon="4.74106">
        <ele>150.58</ele>
        <time>2013-09-27T10:36:49Z</time>
      </trkpt>
      <trkpt lat="45.41046" lon="4.74099">
        <ele>150.1</ele>
        <time>2013-09-27T10:36:52Z</time>
      </trkpt>
      <trkpt lat="45.41067" lon="4.74092">
        <ele>150.58</ele>
        <time>2013-09-27T10:36:55Z</time>
      </trkpt>
      <trkpt lat="45.41089" lon="4.74087">
        <ele>150.1</ele>
        <time>2013-09-27T10:36:58Z</time>
      </trkpt>
      <trkpt lat="45.4111" lon="4.74081">
        <ele>150.1</ele>
        <time>2013-09-27T10:37:01Z</time>
      </trkpt>
      <trkpt lat="45.41131" lon="4.74077">
        <ele>150.58</ele>
        <time>2013-09-27T10:37:04Z</time>
      </trkpt>
      <trkpt lat="45.41152" lon="4.74073">
        <ele>150.58</ele>
        <time>2013-09-27T10:37:07Z</time>
      </trkpt>
      <trkpt lat="45.41173" lon="4.74069">
        <ele>150.58</ele>
        <time>2013-09-27T10:37:10Z</time>
      </trkpt>
      <trkpt lat="45.41194" lon="4.74067">
        <ele>150.58</ele>
        <time>2013-09-27T10:37:13Z</time>
      </trkpt>
      <trkpt lat="45.41214" lon="4.74063">
        <ele>150.58</ele>
        <time>2013-09-27T10:37:16Z</time>
      </trkpt>
      <trkpt lat="45.41233" lon="4.7406">
        <ele>150.58</ele>
        <time>2013-09-27T10:37:19Z</time>
      </trkpt>
      <trkpt lat="45.41254" lon="4.74057">
        <ele>150.58</ele>
        <time>2013-09-27T10:37:22Z</time>
      </trkpt>
      <trkpt lat="45.41275" lon="4.74054">
        <ele>151.06</ele>
        <time>2013-09-27T10:37:25Z</time>
      </trkpt>
      <trkpt lat="45.41296" lon="4.74049">
        <ele>150.58</ele>
        <time>2013-09-27T10:37:28Z</time>
      </trkpt>
      <trkpt lat="45.41317" lon="4.74045">
        <ele>150.58</ele>
        <time>2013-09-27T10:37:31Z</time>
      </trkpt>
      <trkpt lat="45.41338" lon="4.74041">
        <ele>150.1</ele>
        <time>2013-09-27T10:37:34Z</time>
      </trkpt>
      <trkpt lat="45.4136" lon="4.74038">
        <ele>150.1</ele>
        <time>2013-09-27T10:37:37Z</time>
      </trkpt>
      <trkpt lat="45.41381" lon="4.74034">
        <ele>150.58</ele>
        <time>2013-09-27T10:37:40Z</time>
      </trkpt>
      <trkpt lat="45.41399" lon="4.74026">
        <ele>149.62</ele>
        <time>2013-09-27T10:37:43Z</time>
      </trkpt>
      <trkpt lat="45.41412" lon="4.74007">
        <ele>149.62</ele>
        <time>2013-09-27T10:37:46Z</time>
      </trkpt>
      <trkpt lat="45.4142" lon="4.7398">
        <ele>150.1</ele>
        <time>2013-09-27T10:37:49Z</time>
      </trkpt>
      <trkpt lat="45.41423" lon="4.73952">
        <ele>150.58</ele>
        <time>2013-09-27T10:37:52Z</time>
      </trkpt>
      <trkpt lat="45.41425" lon="4.73924">
        <ele>151.06</ele>
        <time>2013-09-27T10:37:55Z</time>
      </trkpt>
      <trkpt lat="45.41425" lon="4.73896">
        <ele>150.58</ele>
        <time>2013-09-27T10:37:58Z</time>
      </trkpt>
      <trkpt lat="45.41423" lon="4.7387">
        <ele>151.06</ele>
        <time>2013-09-27T10:38:01Z</time>
      </trkpt>
      <trkpt lat="45.41419" lon="4.73844">
        <ele>151.06</ele>
        <time>2013-09-27T10:38:04Z</time>
      </trkpt>
      <trkpt lat="45.41415" lon="4.73819">
        <ele>151.06</ele>
        <time>2013-09-27T10:38:07Z</time>
      </trkpt>
      <trkpt lat="45.41408" lon="4.73785">
        <ele>150.58</ele>
        <time>2013-09-27T10:38:11Z</time>
      </trkpt>
      <trkpt lat="45.41403" lon="4.73756">
        <ele>151.06</ele>
        <time>2013-09-27T10:38:15Z</time>
      </trkpt>
      <trkpt lat="45.41421" lon="4.73747">
        <ele>151.06</ele>
        <time>2013-09-27T10:38:20Z</time>
      </trkpt>
      <trkpt lat="45.41437" lon="4.73759">
        <ele>150.58</ele>
        <time>2013-09-27T10:38:24Z</time>
      </trkpt>
      <trkpt lat="45.41445" lon="4.7379">
        <ele>151.06</ele>
        <time>2013-09-27T10:38:28Z</time>
      </trkpt>
      <trkpt lat="45.41452" lon="4.73816">
        <ele>151.06</ele>
        <time>2013-09-27T10:38:31Z</time>
      </trkpt>
      <trkpt lat="45.41458" lon="4.73843">
        <ele>151.06</ele>
        <time>2013-09-27T10:38:34Z</time>
      </trkpt>
      <trkpt lat="45.41465" lon="4.73869">
        <ele>150.58</ele>
        <time>2013-09-27T10:38:37Z</time>
      </trkpt>
      <trkpt lat="45.41469" lon="4.73897">
        <ele>150.1</ele>
        <time>2013-09-27T10:38:40Z</time>
      </trkpt>
      <trkpt lat="45.41472" lon="4.73923">
        <ele>147.22</ele>
        <time>2013-09-27T10:38:43Z</time>
      </trkpt>
      <trkpt lat="45.41474" lon="4.73956">
        <ele>150.58</ele>
        <time>2013-09-27T10:38:47Z</time>
      </trkpt>
      <trkpt lat="45.41475" lon="4.7399">
        <ele>150.1</ele>
        <time>2013-09-27T10:38:51Z</time>
      </trkpt>
      <trkpt lat="45.41488" lon="4.74014">
        <ele>150.1</ele>
        <time>2013-09-27T10:38:55Z</time>
      </trkpt>
      <trkpt lat="45.41511" lon="4.74017">
        <ele>150.1</ele>
        <time>2013-09-27T10:38:59Z</time>
      </trkpt>
      <trkpt lat="45.41535" lon="4.74014">
        <ele>148.18</ele>
        <time>2013-09-27T10:39:03Z</time>
      </trkpt>
      <trkpt lat="45.41559" lon="4.74013">
        <ele>150.1</ele>
        <time>2013-09-27T10:39:07Z</time>
      </trkpt>
      <trkpt lat="45.41584" lon="4.74012">
        <ele>150.1</ele>
        <time>2013-09-27T10:39:11Z</time>
      </trkpt>
      <trkpt lat="45.41603" lon="4.74011">
        <ele>150.1</ele>
        <time>2013-09-27T10:39:14Z</time>
      </trkpt>
      <trkpt lat="45.41622" lon="4.74009">
        <ele>150.58</ele>
        <time>2013-09-27T10:39:17Z</time>
      </trkpt>
      <trkpt lat="45.41642" lon="4.74013">
        <ele>150.58</ele>
        <time>2013-09-27T10:39:20Z</time>
      </trkpt>
      <trkpt lat="45.41661" lon="4.74015">
        <ele>150.58</ele>
        <time>2013-09-27T10:39:23Z</time>
      </trkpt>
      <trkpt lat="45.4168" lon="4.74017">
        <ele>149.62</ele>
        <time>2013-09-27T10:39:26Z</time>
      </trkpt>
      <trkpt lat="45.41699" lon="4.74019">
        <ele>150.58</ele>
        <time>2013-09-27T10:39:29Z</time>
      </trkpt>
      <trkpt lat="45.41718" lon="4.74021">
        <ele>150.58</ele>
        <time>2013-09-27T10:39:32Z</time>
      </trkpt>
      <trkpt lat="45.41737" lon="4.74024">
        <ele>151.06</ele>
        <time>2013-09-27T10:39:35Z</time>
      </trkpt>
      <trkpt lat="45.41756" lon="4.74027">
        <ele>150.1</ele>
        <time>2013-09-27T10:39:38Z</time>
      </trkpt>
      <trkpt lat="45.41775" lon="4.7403">
        <ele>150.58</ele>
        <time>2013-09-27T10:39:41Z</time>
      </trkpt>
      <trkpt lat="45.41795" lon="4.74034">
        <ele>150.58</ele>
        <time>2013-09-27T10:39:44Z</time>
      </trkpt>
      <trkpt lat="45.41815" lon="4.74039">
        <ele>150.58</ele>
        <time>2013-09-27T10:39:47Z</time>
      </trkpt>
      <trkpt lat="45.41835" lon="4.74044">
        <ele>150.1</ele>
        <time>2013-09-27T10:39:50Z</time>
      </trkpt>
      <trkpt lat="45.41855" lon="4.74049">
        <ele>150.58</ele>
        <time>2013-09-27T10:39:53Z</time>
      </trkpt>
      <trkpt lat="45.41876" lon="4.74054">
        <ele>150.1</ele>
        <time>2013-09-27T10:39:56Z</time>
      </trkpt>
      <trkpt lat="45.41895" lon="4.74061">
        <ele>150.1</ele>
        <time>2013-09-27T10:39:59Z</time>
      </trkpt>
      <trkpt lat="45.41915" lon="4.74068">
        <ele>150.1</ele>
        <time>2013-09-27T10:40:02Z</time>
      </trkpt>
      <trkpt lat="45.41935" lon="4.74075">
        <ele>150.58</ele>
        <time>2013-09-27T10:40:05Z</time>
      </trkpt>
      <trkpt lat="45.41955" lon="4.74083">
        <ele>150.1</ele>
        <time>2013-09-27T10:40:08Z</time>
      </trkpt>
      <trkpt lat="45.41974" lon="4.74091">
        <ele>150.58</ele>
        <time>2013-09-27T10:40:11Z</time>
      </trkpt>
      <trkpt lat="45.41994" lon="4.74099">
        <ele>150.58</ele>
        <time>2013-09-27T10:40:14Z</time>
      </trkpt>
      <trkpt lat="45.42014" lon="4.74108">
        <ele>149.62</ele>
        <time>2013-09-27T10:40:17Z</time>
      </trkpt>
      <trkpt lat="45.42034" lon="4.74117">
        <ele>150.58</ele>
        <time>2013-09-27T10:40:20Z</time>
      </trkpt>
      <trkpt lat="45.42053" lon="4.74127">
        <ele>150.58</ele>
        <time>2013-09-27T10:40:23Z</time>
      </trkpt>
      <trkpt lat="45.42073" lon="4.74137">
        <ele>150.1</ele>
        <time>2013-09-27T10:40:26Z</time>
      </trkpt>
      <trkpt lat="45.42092" lon="4.74149">
        <ele>150.58</ele>
        <time>2013-09-27T10:40:29Z</time>
      </trkpt>
      <trkpt lat="45.42111" lon="4.7416">
        <ele>150.58</ele>
        <time>2013-09-27T10:40:32Z</time>
      </trkpt>
      <trkpt lat="45.4213" lon="4.74172">
        <ele>150.1</ele>
        <time>2013-09-27T10:40:35Z</time>
      </trkpt>
      <trkpt lat="45.42149" lon="4.74185">
        <ele>150.58</ele>
        <time>2013-09-27T10:40:38Z</time>
      </trkpt>
      <trkpt lat="45.42168" lon="4.74198">
        <ele>150.58</ele>
        <time>2013-09-27T10:40:41Z</time>
      </trkpt>
      <trkpt lat="45.42186" lon="4.74212">
        <ele>150.58</ele>
        <time>2013-09-27T10:40:44Z</time>
      </trkpt>
      <trkpt lat="45.42204" lon="4.74227">
        <ele>150.58</ele>
        <time>2013-09-27T10:40:47Z</time>
      </trkpt>
      <trkpt lat="45.42223" lon="4.74243">
        <ele>150.58</ele>
        <time>2013-09-27T10:40:50Z</time>
      </trkpt>
      <trkpt lat="45.4224" lon="4.7426">
        <ele>150.1</ele>
        <time>2013-09-27T10:40:53Z</time>
      </trkpt>
      <trkpt lat="45.42257" lon="4.74277">
        <ele>150.58</ele>
        <time>2013-09-27T10:40:56Z</time>
      </trkpt>
      <trkpt lat="45.42274" lon="4.74295">
        <ele>150.1</ele>
        <time>2013-09-27T10:40:59Z</time>
      </trkpt>
      <trkpt lat="45.4229" lon="4.74314">
        <ele>150.58</ele>
        <time>2013-09-27T10:41:02Z</time>
      </trkpt>
      <trkpt lat="45.42306" lon="4.74333">
        <ele>150.1</ele>
        <time>2013-09-27T10:41:05Z</time>
      </trkpt>
      <trkpt lat="45.42322" lon="4.74352">
        <ele>150.1</ele>
        <time>2013-09-27T10:41:08Z</time>
      </trkpt>
      <trkpt lat="45.42337" lon="4.74372">
        <ele>150.58</ele>
        <time>2013-09-27T10:41:11Z</time>
      </trkpt>
      <trkpt lat="45.42353" lon="4.74392">
        <ele>151.06</ele>
        <time>2013-09-27T10:41:14Z</time>
      </trkpt>
      <trkpt lat="45.42369" lon="4.74411">
        <ele>150.58</ele>
        <time>2013-09-27T10:41:17Z</time>
      </trkpt>
      <trkpt lat="45.42386" lon="4.74432">
        <ele>151.06</ele>
        <time>2013-09-27T10:41:20Z</time>
      </trkpt>
      <trkpt lat="45.42403" lon="4.74452">
        <ele>150.58</ele>
        <time>2013-09-27T10:41:23Z</time>
      </trkpt>
      <trkpt lat="45.42419" lon="4.74471">
        <ele>150.58</ele>
        <time>2013-09-27T10:41:26Z</time>
      </trkpt>
      <trkpt lat="45.42435" lon="4.7449">
        <ele>150.58</ele>
        <time>2013-09-27T10:41:29Z</time>
      </trkpt>
      <trkpt lat="45.42451" lon="4.7451">
        <ele>150.58</ele>
        <time>2013-09-27T10:41:32Z</time>
      </trkpt>
      <trkpt lat="45.42467" lon="4.7453">
        <ele>150.58</ele>
        <time>2013-09-27T10:41:35Z</time>
      </trkpt>
      <trkpt lat="45.42484" lon="4.74549">
        <ele>150.58</ele>
        <time>2013-09-27T10:41:38Z</time>
      </trkpt>
      <trkpt lat="45.425" lon="4.74569">
        <ele>150.58</ele>
        <time>2013-09-27T10:41:41Z</time>
      </trkpt>
      <trkpt lat="45.42516" lon="4.74589">
        <ele>150.58</ele>
        <time>2013-09-27T10:41:44Z</time>
      </trkpt>
      <trkpt lat="45.42532" lon="4.74609">
        <ele>150.58</ele>
        <time>2013-09-27T10:41:47Z</time>
      </trkpt>
      <trkpt lat="45.42549" lon="4.74628">
        <ele>150.58</ele>
        <time>2013-09-27T10:41:50Z</time>
      </trkpt>
      <trkpt lat="45.42565" lon="4.74647">
        <ele>150.58</ele>
        <time>2013-09-27T10:41:53Z</time>
      </trkpt>
      <trkpt lat="45.42581" lon="4.74667">
        <ele>150.58</ele>
        <time>2013-09-27T10:41:56Z</time>
      </trkpt>
      <trkpt lat="45.42598" lon="4.74687">
        <ele>150.58</ele>
        <time>2013-09-27T10:41:59Z</time>
      </trkpt>
      <trkpt lat="45.42614" lon="4.74707">
        <ele>150.58</ele>
        <time>2013-09-27T10:42:02Z</time>
      </trkpt>
      <trkpt lat="45.4263" lon="4.74727">
        <ele>150.58</ele>
        <time>2013-09-27T10:42:05Z</time>
      </trkpt>
      <trkpt lat="45.42646" lon="4.74746">
        <ele>150.58</ele>
        <time>2013-09-27T10:42:08Z</time>
      </trkpt>
      <trkpt lat="45.42662" lon="4.74766">
        <ele>151.06</ele>
        <time>2013-09-27T10:42:11Z</time>
      </trkpt>
      <trkpt lat="45.42678" lon="4.74786">
        <ele>150.58</ele>
        <time>2013-09-27T10:42:14Z</time>
      </trkpt>
      <trkpt lat="45.42695" lon="4.74806">
        <ele>150.58</ele>
        <time>2013-09-27T10:42:17Z</time>
      </trkpt>
      <trkpt lat="45.42711" lon="4.74825">
        <ele>150.58</ele>
        <time>2013-09-27T10:42:20Z</time>
      </trkpt>
      <trkpt lat="45.42727" lon="4.74845">
        <ele>150.58</ele>
        <time>2013-09-27T10:42:23Z</time>
      </trkpt>
      <trkpt lat="45.42744" lon="4.74865">
        <ele>150.58</ele>
        <time>2013-09-27T10:42:26Z</time>
      </trkpt>
      <trkpt lat="45.4276" lon="4.74884">
        <ele>150.58</ele>
        <time>2013-09-27T10:42:29Z</time>
      </trkpt>
      <trkpt lat="45.42776" lon="4.74904">
        <ele>150.58</ele>
        <time>2013-09-27T10:42:32Z</time>
      </trkpt>
      <trkpt lat="45.42792" lon="4.74924">
        <ele>150.58</ele>
        <time>2013-09-27T10:42:35Z</time>
      </trkpt>
      <trkpt lat="45.42809" lon="4.74944">
        <ele>150.58</ele>
        <time>2013-09-27T10:42:38Z</time>
      </trkpt>
      <trkpt lat="45.42825" lon="4.74963">
        <ele>150.58</ele>
        <time>2013-09-27T10:42:41Z</time>
      </trkpt>
      <trkpt lat="45.42842" lon="4.74984">
        <ele>150.58</ele>
        <time>2013-09-27T10:42:44Z</time>
      </trkpt>
      <trkpt lat="45.42858" lon="4.75004">
        <ele>150.58</ele>
        <time>2013-09-27T10:42:47Z</time>
      </trkpt>
      <trkpt lat="45.42874" lon="4.75023">
        <ele>150.58</ele>
        <time>2013-09-27T10:42:50Z</time>
      </trkpt>
      <trkpt lat="45.4289" lon="4.75043">
        <ele>150.58</ele>
        <time>2013-09-27T10:42:53Z</time>
      </trkpt>
      <trkpt lat="45.42906" lon="4.75063">
        <ele>150.58</ele>
        <time>2013-09-27T10:42:56Z</time>
      </trkpt>
      <trkpt lat="45.42922" lon="4.75083">
        <ele>150.58</ele>
        <time>2013-09-27T10:42:59Z</time>
      </trkpt>
      <trkpt lat="45.42938" lon="4.75103">
        <ele>151.06</ele>
        <time>2013-09-27T10:43:02Z</time>
      </trkpt>
      <trkpt lat="45.42952" lon="4.75123">
        <ele>151.06</ele>
        <time>2013-09-27T10:43:05Z</time>
      </trkpt>
      <trkpt lat="45.42967" lon="4.75143">
        <ele>150.58</ele>
        <time>2013-09-27T10:43:08Z</time>
      </trkpt>
      <trkpt lat="45.42982" lon="4.75164">
        <ele>150.58</ele>
        <time>2013-09-27T10:43:11Z</time>
      </trkpt>
      <trkpt lat="45.42996" lon="4.75185">
        <ele>150.58</ele>
        <time>2013-09-27T10:43:14Z</time>
      </trkpt>
      <trkpt lat="45.4301" lon="4.75206">
        <ele>150.58</ele>
        <time>2013-09-27T10:43:17Z</time>
      </trkpt>
      <trkpt lat="45.43024" lon="4.75228">
        <ele>151.06</ele>
        <time>2013-09-27T10:43:20Z</time>
      </trkpt>
      <trkpt lat="45.43038" lon="4.7525">
        <ele>151.06</ele>
        <time>2013-09-27T10:43:23Z</time>
      </trkpt>
      <trkpt lat="45.43052" lon="4.75273">
        <ele>151.06</ele>
        <time>2013-09-27T10:43:26Z</time>
      </trkpt>
      <trkpt lat="45.43066" lon="4.75296">
        <ele>151.06</ele>
        <time>2013-09-27T10:43:29Z</time>
      </trkpt>
      <trkpt lat="45.43079" lon="4.75319">
        <ele>151.06</ele>
        <time>2013-09-27T10:43:32Z</time>
      </trkpt>
      <trkpt lat="45.43092" lon="4.75342">
        <ele>150.58</ele>
        <time>2013-09-27T10:43:35Z</time>
      </trkpt>
      <trkpt lat="45.43104" lon="4.75366">
        <ele>151.06</ele>
        <time>2013-09-27T10:43:38Z</time>
      </trkpt>
      <trkpt lat="45.43116" lon="4.75389">
        <ele>151.06</ele>
        <time>2013-09-27T10:43:41Z</time>
      </trkpt>
      <trkpt lat="45.43129" lon="4.75412">
        <ele>150.58</ele>
        <time>2013-09-27T10:43:44Z</time>
      </trkpt>
      <trkpt lat="45.43142" lon="4.75434">
        <ele>151.06</ele>
        <time>2013-09-27T10:43:47Z</time>
      </trkpt>
      <trkpt lat="45.43154" lon="4.75457">
        <ele>150.58</ele>
        <time>2013-09-27T10:43:50Z</time>
      </trkpt>
      <trkpt lat="45.43161" lon="4.75482">
        <ele>150.58</ele>
        <time>2013-09-27T10:43:53Z</time>
      </trkpt>
      <trkpt lat="45.43172" lon="4.75505">
        <ele>151.06</ele>
        <time>2013-09-27T10:43:56Z</time>
      </trkpt>
      <trkpt lat="45.43183" lon="4.75527">
        <ele>151.06</ele>
        <time>2013-09-27T10:43:59Z</time>
      </trkpt>
      <trkpt lat="45.43196" lon="4.75548">
        <ele>151.06</ele>
        <time>2013-09-27T10:44:02Z</time>
      </trkpt>
      <trkpt lat="45.43209" lon="4.75568">
        <ele>150.58</ele>
        <time>2013-09-27T10:44:05Z</time>
      </trkpt>
      <trkpt lat="45.43224" lon="4.75588">
        <ele>150.58</ele>
        <time>2013-09-27T10:44:08Z</time>
      </trkpt>
      <trkpt lat="45.43239" lon="4.75607">
        <ele>150.58</ele>
        <time>2013-09-27T10:44:11Z</time>
      </trkpt>
      <trkpt lat="45.43255" lon="4.75625">
        <ele>151.06</ele>
        <time>2013-09-27T10:44:14Z</time>
      </trkpt>
      <trkpt lat="45.43271" lon="4.75643">
        <ele>150.58</ele>
        <time>2013-09-27T10:44:17Z</time>
      </trkpt>
      <trkpt lat="45.43288" lon="4.7566">
        <ele>151.06</ele>
        <time>2013-09-27T10:44:20Z</time>
      </trkpt>
      <trkpt lat="45.43305" lon="4.75675">
        <ele>150.58</ele>
        <time>2013-09-27T10:44:23Z</time>
      </trkpt>
      <trkpt lat="45.43323" lon="4.75688">
        <ele>151.06</ele>
        <time>2013-09-27T10:44:26Z</time>
      </trkpt>
      <trkpt lat="45.4334" lon="4.757">
        <ele>150.58</ele>
        <time>2013-09-27T10:44:29Z</time>
      </trkpt>
      <trkpt lat="45.43358" lon="4.75711">
        <ele>151.06</ele>
        <time>2013-09-27T10:44:32Z</time>
      </trkpt>
      <trkpt lat="45.43376" lon="4.75722">
        <ele>150.58</ele>
        <time>2013-09-27T10:44:35Z</time>
      </trkpt>
      <trkpt lat="45.43393" lon="4.75731">
        <ele>150.58</ele>
        <time>2013-09-27T10:44:38Z</time>
      </trkpt>
      <trkpt lat="45.4341" lon="4.75738">
        <ele>150.58</ele>
        <time>2013-09-27T10:44:41Z</time>
      </trkpt>
      <trkpt lat="45.43429" lon="4.75745">
        <ele>151.06</ele>
        <time>2013-09-27T10:44:44Z</time>
      </trkpt>
      <trkpt lat="45.43448" lon="4.7575">
        <ele>151.06</ele>
        <time>2013-09-27T10:44:47Z</time>
      </trkpt>
      <trkpt lat="45.43467" lon="4.75755">
        <ele>150.58</ele>
        <time>2013-09-27T10:44:50Z</time>
      </trkpt>
      <trkpt lat="45.43486" lon="4.75758">
        <ele>151.06</ele>
        <time>2013-09-27T10:44:53Z</time>
      </trkpt>
      <trkpt lat="45.43505" lon="4.75761">
        <ele>150.58</ele>
        <time>2013-09-27T10:44:56Z</time>
      </trkpt>
      <trkpt lat="45.43524" lon="4.75763">
        <ele>151.06</ele>
        <time>2013-09-27T10:44:59Z</time>
      </trkpt>
      <trkpt lat="45.43543" lon="4.75765">
        <ele>151.06</ele>
        <time>2013-09-27T10:45:02Z</time>
      </trkpt>
      <trkpt lat="45.43563" lon="4.75766">
        <ele>150.58</ele>
        <time>2013-09-27T10:45:05Z</time>
      </trkpt>
      <trkpt lat="45.43583" lon="4.75767">
        <ele>151.06</ele>
        <time>2013-09-27T10:45:08Z</time>
      </trkpt>
      <trkpt lat="45.43602" lon="4.75768">
        <ele>151.06</ele>
        <time>2013-09-27T10:45:11Z</time>
      </trkpt>
      <trkpt lat="45.43621" lon="4.75769">
        <ele>150.58</ele>
        <time>2013-09-27T10:45:14Z</time>
      </trkpt>
      <trkpt lat="45.43641" lon="4.75769">
        <ele>151.06</ele>
        <time>2013-09-27T10:45:17Z</time>
      </trkpt>
      <trkpt lat="45.43661" lon="4.75769">
        <ele>151.06</ele>
        <time>2013-09-27T10:45:20Z</time>
      </trkpt>
      <trkpt lat="45.43681" lon="4.75768">
        <ele>151.06</ele>
        <time>2013-09-27T10:45:23Z</time>
      </trkpt>
      <trkpt lat="45.437" lon="4.75767">
        <ele>150.58</ele>
        <time>2013-09-27T10:45:26Z</time>
      </trkpt>
      <trkpt lat="45.4372" lon="4.75765">
        <ele>151.06</ele>
        <time>2013-09-27T10:45:29Z</time>
      </trkpt>
      <trkpt lat="45.4374" lon="4.75763">
        <ele>150.58</ele>
        <time>2013-09-27T10:45:32Z</time>
      </trkpt>
      <trkpt lat="45.4376" lon="4.75761">
        <ele>150.58</ele>
        <time>2013-09-27T10:45:35Z</time>
      </trkpt>
      <trkpt lat="45.4378" lon="4.75758">
        <ele>151.06</ele>
        <time>2013-09-27T10:45:38Z</time>
      </trkpt>
      <trkpt lat="45.43801" lon="4.75755">
        <ele>151.06</ele>
        <time>2013-09-27T10:45:41Z</time>
      </trkpt>
      <trkpt lat="45.43821" lon="4.75751">
        <ele>150.58</ele>
        <time>2013-09-27T10:45:44Z</time>
      </trkpt>
      <trkpt lat="45.43841" lon="4.75747">
        <ele>150.58</ele>
        <time>2013-09-27T10:45:47Z</time>
      </trkpt>
      <trkpt lat="45.4386" lon="4.75743">
        <ele>151.06</ele>
        <time>2013-09-27T10:45:50Z</time>
      </trkpt>
      <trkpt lat="45.4388" lon="4.75739">
        <ele>151.06</ele>
        <time>2013-09-27T10:45:53Z</time>
      </trkpt>
      <trkpt lat="45.43899" lon="4.75733">
        <ele>151.06</ele>
        <time>2013-09-27T10:45:56Z</time>
      </trkpt>
      <trkpt lat="45.43918" lon="4.75728">
        <ele>151.06</ele>
        <time>2013-09-27T10:45:59Z</time>
      </trkpt>
      <trkpt lat="45.43937" lon="4.75721">
        <ele>151.06</ele>
        <time>2013-09-27T10:46:02Z</time>
      </trkpt>
      <trkpt lat="45.43956" lon="4.75716">
        <ele>151.06</ele>
        <time>2013-09-27T10:46:05Z</time>
      </trkpt>
      <trkpt lat="45.43976" lon="4.75709">
        <ele>151.06</ele>
        <time>2013-09-27T10:46:08Z</time>
      </trkpt>
      <trkpt lat="45.43995" lon="4.75702">
        <ele>151.06</ele>
        <time>2013-09-27T10:46:11Z</time>
      </trkpt>
      <trkpt lat="45.44014" lon="4.75694">
        <ele>151.06</ele>
        <time>2013-09-27T10:46:14Z</time>
      </trkpt>
      <trkpt lat="45.44033" lon="4.75686">
        <ele>151.06</ele>
        <time>2013-09-27T10:46:17Z</time>
      </trkpt>
      <trkpt lat="45.44052" lon="4.75679">
        <ele>152.03</ele>
        <time>2013-09-27T10:46:20Z</time>
      </trkpt>
      <trkpt lat="45.44072" lon="4.75671">
        <ele>151.06</ele>
        <time>2013-09-27T10:46:23Z</time>
      </trkpt>
      <trkpt lat="45.44091" lon="4.75662">
        <ele>151.06</ele>
        <time>2013-09-27T10:46:26Z</time>
      </trkpt>
      <trkpt lat="45.44111" lon="4.75654">
        <ele>151.06</ele>
        <time>2013-09-27T10:46:29Z</time>
      </trkpt>
      <trkpt lat="45.4413" lon="4.75646">
        <ele>151.06</ele>
        <time>2013-09-27T10:46:32Z</time>
      </trkpt>
      <trkpt lat="45.44149" lon="4.75638">
        <ele>151.54</ele>
        <time>2013-09-27T10:46:35Z</time>
      </trkpt>
      <trkpt lat="45.44169" lon="4.75629">
        <ele>151.54</ele>
        <time>2013-09-27T10:46:38Z</time>
      </trkpt>
      <trkpt lat="45.44188" lon="4.7562">
        <ele>151.06</ele>
        <time>2013-09-27T10:46:41Z</time>
      </trkpt>
      <trkpt lat="45.44207" lon="4.75612">
        <ele>151.06</ele>
        <time>2013-09-27T10:46:44Z</time>
      </trkpt>
      <trkpt lat="45.44227" lon="4.75604">
        <ele>151.06</ele>
        <time>2013-09-27T10:46:47Z</time>
      </trkpt>
      <trkpt lat="45.44247" lon="4.75595">
        <ele>151.06</ele>
        <time>2013-09-27T10:46:50Z</time>
      </trkpt>
      <trkpt lat="45.44268" lon="4.75587">
        <ele>151.06</ele>
        <time>2013-09-27T10:46:53Z</time>
      </trkpt>
      <trkpt lat="45.44287" lon="4.75579">
        <ele>151.06</ele>
        <time>2013-09-27T10:46:56Z</time>
      </trkpt>
      <trkpt lat="45.44307" lon="4.75571">
        <ele>150.58</ele>
        <time>2013-09-27T10:46:59Z</time>
      </trkpt>
      <trkpt lat="45.44328" lon="4.75563">
        <ele>151.06</ele>
        <time>2013-09-27T10:47:02Z</time>
      </trkpt>
      <trkpt lat="45.44347" lon="4.75555">
        <ele>151.54</ele>
        <time>2013-09-27T10:47:05Z</time>
      </trkpt>
      <trkpt lat="45.44368" lon="4.75547">
        <ele>151.54</ele>
        <time>2013-09-27T10:47:08Z</time>
      </trkpt>
      <trkpt lat="45.44387" lon="4.75538">
        <ele>151.54</ele>
        <time>2013-09-27T10:47:11Z</time>
      </trkpt>
      <trkpt lat="45.44407" lon="4.7553">
        <ele>151.54</ele>
        <time>2013-09-27T10:47:14Z</time>
      </trkpt>
      <trkpt lat="45.44427" lon="4.75521">
        <ele>151.54</ele>
        <time>2013-09-27T10:47:17Z</time>
      </trkpt>
      <trkpt lat="45.44446" lon="4.75513">
        <ele>151.06</ele>
        <time>2013-09-27T10:47:20Z</time>
      </trkpt>
      <trkpt lat="45.44465" lon="4.75505">
        <ele>151.06</ele>
        <time>2013-09-27T10:47:23Z</time>
      </trkpt>
      <trkpt lat="45.44485" lon="4.75497">
        <ele>151.06</ele>
        <time>2013-09-27T10:47:26Z</time>
      </trkpt>
      <trkpt lat="45.44504" lon="4.75489">
        <ele>151.54</ele>
        <time>2013-09-27T10:47:29Z</time>
      </trkpt>
      <trkpt lat="45.44524" lon="4.75481">
        <ele>151.54</ele>
        <time>2013-09-27T10:47:32Z</time>
      </trkpt>
      <trkpt lat="45.44544" lon="4.75473">
        <ele>151.06</ele>
        <time>2013-09-27T10:47:35Z</time>
      </trkpt>
      <trkpt lat="45.44564" lon="4.75464">
        <ele>151.54</ele>
        <time>2013-09-27T10:47:38Z</time>
      </trkpt>
      <trkpt lat="45.44584" lon="4.75455">
        <ele>151.54</ele>
        <time>2013-09-27T10:47:41Z</time>
      </trkpt>
      <trkpt lat="45.44604" lon="4.75446">
        <ele>151.06</ele>
        <time>2013-09-27T10:47:44Z</time>
      </trkpt>
      <trkpt lat="45.44625" lon="4.75438">
        <ele>151.06</ele>
        <time>2013-09-27T10:47:47Z</time>
      </trkpt>
      <trkpt lat="45.44645" lon="4.7543">
        <ele>152.03</ele>
        <time>2013-09-27T10:47:50Z</time>
      </trkpt>
      <trkpt lat="45.44666" lon="4.75421">
        <ele>151.54</ele>
        <time>2013-09-27T10:47:53Z</time>
      </trkpt>
      <trkpt lat="45.44687" lon="4.75413">
        <ele>151.54</ele>
        <time>2013-09-27T10:47:56Z</time>
      </trkpt>
      <trkpt lat="45.44709" lon="4.75405">
        <ele>151.54</ele>
        <time>2013-09-27T10:47:59Z</time>
      </trkpt>
      <trkpt lat="45.44731" lon="4.75398">
        <ele>152.03</ele>
        <time>2013-09-27T10:48:02Z</time>
      </trkpt>
      <trkpt lat="45.44753" lon="4.75391">
        <ele>151.54</ele>
        <time>2013-09-27T10:48:05Z</time>
      </trkpt>
      <trkpt lat="45.44775" lon="4.75385">
        <ele>151.54</ele>
        <time>2013-09-27T10:48:08Z</time>
      </trkpt>
      <trkpt lat="45.44796" lon="4.75381">
        <ele>151.54</ele>
        <time>2013-09-27T10:48:11Z</time>
      </trkpt>
      <trkpt lat="45.44816" lon="4.75377">
        <ele>151.54</ele>
        <time>2013-09-27T10:48:14Z</time>
      </trkpt>
      <trkpt lat="45.44837" lon="4.75374">
        <ele>151.54</ele>
        <time>2013-09-27T10:48:17Z</time>
      </trkpt>
      <trkpt lat="45.44859" lon="4.75373">
        <ele>151.54</ele>
        <time>2013-09-27T10:48:20Z</time>
      </trkpt>
      <trkpt lat="45.4488" lon="4.75371">
        <ele>151.54</ele>
        <time>2013-09-27T10:48:23Z</time>
      </trkpt>
      <trkpt lat="45.449" lon="4.75371">
        <ele>151.54</ele>
        <time>2013-09-27T10:48:26Z</time>
      </trkpt>
      <trkpt lat="45.4492" lon="4.75372">
        <ele>151.54</ele>
        <time>2013-09-27T10:48:29Z</time>
      </trkpt>
      <trkpt lat="45.44941" lon="4.75373">
        <ele>151.54</ele>
        <time>2013-09-27T10:48:32Z</time>
      </trkpt>
      <trkpt lat="45.44962" lon="4.75374">
        <ele>151.54</ele>
        <time>2013-09-27T10:48:35Z</time>
      </trkpt>
      <trkpt lat="45.44982" lon="4.75375">
        <ele>151.06</ele>
        <time>2013-09-27T10:48:38Z</time>
      </trkpt>
      <trkpt lat="45.45004" lon="4.75377">
        <ele>151.54</ele>
        <time>2013-09-27T10:48:41Z</time>
      </trkpt>
      <trkpt lat="45.45026" lon="4.7538">
        <ele>151.54</ele>
        <time>2013-09-27T10:48:44Z</time>
      </trkpt>
      <trkpt lat="45.45047" lon="4.75381">
        <ele>152.03</ele>
        <time>2013-09-27T10:48:47Z</time>
      </trkpt>
      <trkpt lat="45.45069" lon="4.75385">
        <ele>151.54</ele>
        <time>2013-09-27T10:48:50Z</time>
      </trkpt>
      <trkpt lat="45.4509" lon="4.75387">
        <ele>151.06</ele>
        <time>2013-09-27T10:48:53Z</time>
      </trkpt>
      <trkpt lat="45.45111" lon="4.7539">
        <ele>152.03</ele>
        <time>2013-09-27T10:48:56Z</time>
      </trkpt>
      <trkpt lat="45.45133" lon="4.75392">
        <ele>151.54</ele>
        <time>2013-09-27T10:48:59Z</time>
      </trkpt>
      <trkpt lat="45.45155" lon="4.75394">
        <ele>151.06</ele>
        <time>2013-09-27T10:49:02Z</time>
      </trkpt>
      <trkpt lat="45.45177" lon="4.75396">
        <ele>151.06</ele>
        <time>2013-09-27T10:49:05Z</time>
      </trkpt>
      <trkpt lat="45.452" lon="4.75399">
        <ele>151.06</ele>
        <time>2013-09-27T10:49:08Z</time>
      </trkpt>
      <trkpt lat="45.45223" lon="4.754">
        <ele>151.06</ele>
        <time>2013-09-27T10:49:11Z</time>
      </trkpt>
      <trkpt lat="45.45246" lon="4.75402">
        <ele>151.54</ele>
        <time>2013-09-27T10:49:14Z</time>
      </trkpt>
      <trkpt lat="45.4527" lon="4.75404">
        <ele>150.58</ele>
        <time>2013-09-27T10:49:17Z</time>
      </trkpt>
      <trkpt lat="45.45293" lon="4.75405">
        <ele>150.58</ele>
        <time>2013-09-27T10:49:20Z</time>
      </trkpt>
      <trkpt lat="45.45316" lon="4.75409">
        <ele>150.58</ele>
        <time>2013-09-27T10:49:23Z</time>
      </trkpt>
      <trkpt lat="45.45338" lon="4.75412">
        <ele>150.58</ele>
        <time>2013-09-27T10:49:26Z</time>
      </trkpt>
      <trkpt lat="45.45359" lon="4.75412">
        <ele>150.58</ele>
        <time>2013-09-27T10:49:29Z</time>
      </trkpt>
      <trkpt lat="45.45377" lon="4.75414">
        <ele>151.06</ele>
        <time>2013-09-27T10:49:32Z</time>
      </trkpt>
      <trkpt lat="45.45398" lon="4.75416">
        <ele>151.06</ele>
        <time>2013-09-27T10:49:36Z</time>
      </trkpt>
      <trkpt lat="45.45422" lon="4.75418">
        <ele>150.58</ele>
        <time>2013-09-27T10:49:40Z</time>
      </trkpt>
      <trkpt lat="45.45442" lon="4.75421">
        <ele>150.58</ele>
        <time>2013-09-27T10:49:43Z</time>
      </trkpt>
      <trkpt lat="45.45464" lon="4.75426">
        <ele>150.58</ele>
        <time>2013-09-27T10:49:46Z</time>
      </trkpt>
      <trkpt lat="45.45487" lon="4.75431">
        <ele>150.1</ele>
        <time>2013-09-27T10:49:49Z</time>
      </trkpt>
      <trkpt lat="45.45508" lon="4.75441">
        <ele>149.62</ele>
        <time>2013-09-27T10:49:52Z</time>
      </trkpt>
      <trkpt lat="45.45528" lon="4.75455">
        <ele>149.62</ele>
        <time>2013-09-27T10:49:55Z</time>
      </trkpt>
      <trkpt lat="45.45546" lon="4.7547">
        <ele>149.62</ele>
        <time>2013-09-27T10:49:58Z</time>
      </trkpt>
      <trkpt lat="45.45562" lon="4.75489">
        <ele>149.14</ele>
        <time>2013-09-27T10:50:01Z</time>
      </trkpt>
      <trkpt lat="45.45577" lon="4.75507">
        <ele>149.14</ele>
        <time>2013-09-27T10:50:04Z</time>
      </trkpt>
      <trkpt lat="45.45591" lon="4.75528">
        <ele>150.1</ele>
        <time>2013-09-27T10:50:07Z</time>
      </trkpt>
      <trkpt lat="45.45602" lon="4.75553">
        <ele>149.62</ele>
        <time>2013-09-27T10:50:10Z</time>
      </trkpt>
      <trkpt lat="45.45612" lon="4.75578">
        <ele>149.62</ele>
        <time>2013-09-27T10:50:13Z</time>
      </trkpt>
      <trkpt lat="45.45621" lon="4.75603">
        <ele>149.62</ele>
        <time>2013-09-27T10:50:16Z</time>
      </trkpt>
      <trkpt lat="45.45629" lon="4.75627">
        <ele>149.62</ele>
        <time>2013-09-27T10:50:19Z</time>
      </trkpt>
      <trkpt lat="45.45639" lon="4.7565">
        <ele>149.14</ele>
        <time>2013-09-27T10:50:22Z</time>
      </trkpt>
      <trkpt lat="45.45648" lon="4.75673">
        <ele>149.62</ele>
        <time>2013-09-27T10:50:25Z</time>
      </trkpt>
      <trkpt lat="45.45657" lon="4.75695">
        <ele>148.18</ele>
        <time>2013-09-27T10:50:29Z</time>
      </trkpt>
      <trkpt lat="45.4566" lon="4.75707">
        <ele>148.18</ele>
        <time>2013-09-27T10:52:42Z</time>
      </trkpt>
      <trkpt lat="45.45662" lon="4.75711">
        <ele>148.66</ele>
        <time>2013-09-27T10:53:11Z</time>
      </trkpt>
      <trkpt lat="45.45671" lon="4.75738">
        <ele>148.66</ele>
        <time>2013-09-27T10:53:17Z</time>
      </trkpt>
      <trkpt lat="45.45681" lon="4.75766">
        <ele>148.66</ele>
        <time>2013-09-27T10:53:22Z</time>
      </trkpt>
      <trkpt lat="45.45687" lon="4.75798">
        <ele>149.14</ele>
        <time>2013-09-27T10:53:27Z</time>
      </trkpt>
      <trkpt lat="45.45691" lon="4.75823">
        <ele>148.66</ele>
        <time>2013-09-27T10:53:31Z</time>
      </trkpt>
      <trkpt lat="45.45694" lon="4.75848">
        <ele>149.14</ele>
        <time>2013-09-27T10:53:35Z</time>
      </trkpt>
      <trkpt lat="45.45699" lon="4.75877">
        <ele>149.62</ele>
        <time>2013-09-27T10:53:39Z</time>
      </trkpt>
      <trkpt lat="45.45705" lon="4.75906">
        <ele>149.14</ele>
        <time>2013-09-27T10:53:43Z</time>
      </trkpt>
      <trkpt lat="45.45712" lon="4.75936">
        <ele>149.62</ele>
        <time>2013-09-27T10:53:47Z</time>
      </trkpt>
      <trkpt lat="45.4573" lon="4.75947">
        <ele>150.1</ele>
        <time>2013-09-27T10:53:52Z</time>
      </trkpt>
      <trkpt lat="45.45744" lon="4.7597">
        <ele>149.14</ele>
        <time>2013-09-27T10:53:57Z</time>
      </trkpt>
      <trkpt lat="45.45761" lon="4.7599">
        <ele>150.1</ele>
        <time>2013-09-27T10:54:02Z</time>
      </trkpt>
      <trkpt lat="45.45779" lon="4.75999">
        <ele>150.58</ele>
        <time>2013-09-27T10:54:07Z</time>
      </trkpt>
      <trkpt lat="45.458" lon="4.75996">
        <ele>150.58</ele>
        <time>2013-09-27T10:54:11Z</time>
      </trkpt>
      <trkpt lat="45.4582" lon="4.75989">
        <ele>151.54</ele>
        <time>2013-09-27T10:54:15Z</time>
      </trkpt>
      <trkpt lat="45.45838" lon="4.76007">
        <ele>151.54</ele>
        <time>2013-09-27T10:54:20Z</time>
      </trkpt>
      <trkpt lat="45.45848" lon="4.76031">
        <ele>151.54</ele>
        <time>2013-09-27T10:54:24Z</time>
      </trkpt>
      <trkpt lat="45.4586" lon="4.76056">
        <ele>151.54</ele>
        <time>2013-09-27T10:54:28Z</time>
      </trkpt>
      <trkpt lat="45.45871" lon="4.76081">
        <ele>151.54</ele>
        <time>2013-09-27T10:54:32Z</time>
      </trkpt>
      <trkpt lat="45.45866" lon="4.7611">
        <ele>151.06</ele>
        <time>2013-09-27T10:54:36Z</time>
      </trkpt>
      <trkpt lat="45.45849" lon="4.76134">
        <ele>150.58</ele>
        <time>2013-09-27T10:54:40Z</time>
      </trkpt>
      <trkpt lat="45.45831" lon="4.76157">
        <ele>150.58</ele>
        <time>2013-09-27T10:54:44Z</time>
      </trkpt>
      <trkpt lat="45.45819" lon="4.76182">
        <ele>150.1</ele>
        <time>2013-09-27T10:54:48Z</time>
      </trkpt>
      <trkpt lat="45.45819" lon="4.76211">
        <ele>150.1</ele>
        <time>2013-09-27T10:54:52Z</time>
      </trkpt>
      <trkpt lat="45.45821" lon="4.76242">
        <ele>150.58</ele>
        <time>2013-09-27T10:54:56Z</time>
      </trkpt>
      <trkpt lat="45.45821" lon="4.7627">
        <ele>150.1</ele>
        <time>2013-09-27T10:55:00Z</time>
      </trkpt>
      <trkpt lat="45.45822" lon="4.76298">
        <ele>150.1</ele>
        <time>2013-09-27T10:55:04Z</time>
      </trkpt>
      <trkpt lat="45.45823" lon="4.76327">
        <ele>150.58</ele>
        <time>2013-09-27T10:55:08Z</time>
      </trkpt>
      <trkpt lat="45.45824" lon="4.76358">
        <ele>150.58</ele>
        <time>2013-09-27T10:55:12Z</time>
      </trkpt>
      <trkpt lat="45.45825" lon="4.76388">
        <ele>150.58</ele>
        <time>2013-09-27T10:55:16Z</time>
      </trkpt>
      <trkpt lat="45.45821" lon="4.76415">
        <ele>150.1</ele>
        <time>2013-09-27T10:55:21Z</time>
      </trkpt>
      <trkpt lat="45.45823" lon="4.76444">
        <ele>150.1</ele>
        <time>2013-09-27T10:55:25Z</time>
      </trkpt>
      <trkpt lat="45.45826" lon="4.76477">
        <ele>150.1</ele>
        <time>2013-09-27T10:55:29Z</time>
      </trkpt>
      <trkpt lat="45.45828" lon="4.76511">
        <ele>150.1</ele>
        <time>2013-09-27T10:55:33Z</time>
      </trkpt>
      <trkpt lat="45.45827" lon="4.76538">
        <ele>150.1</ele>
        <time>2013-09-27T10:55:36Z</time>
      </trkpt>
      <trkpt lat="45.45822" lon="4.76565">
        <ele>150.1</ele>
        <time>2013-09-27T10:55:39Z</time>
      </trkpt>
      <trkpt lat="45.45818" lon="4.76591">
        <ele>150.1</ele>
        <time>2013-09-27T10:55:42Z</time>
      </trkpt>
      <trkpt lat="45.45813" lon="4.76616">
        <ele>150.1</ele>
        <time>2013-09-27T10:55:45Z</time>
      </trkpt>
      <trkpt lat="45.45807" lon="4.76649">
        <ele>150.58</ele>
        <time>2013-09-27T10:55:49Z</time>
      </trkpt>
      <trkpt lat="45.45803" lon="4.76675">
        <ele>150.58</ele>
        <time>2013-09-27T10:55:52Z</time>
      </trkpt>
      <trkpt lat="45.45798" lon="4.76703">
        <ele>151.06</ele>
        <time>2013-09-27T10:55:55Z</time>
      </trkpt>
      <trkpt lat="45.45793" lon="4.76731">
        <ele>150.58</ele>
        <time>2013-09-27T10:55:58Z</time>
      </trkpt>
      <trkpt lat="45.45789" lon="4.7676">
        <ele>150.58</ele>
        <time>2013-09-27T10:56:01Z</time>
      </trkpt>
      <trkpt lat="45.45784" lon="4.76788">
        <ele>150.58</ele>
        <time>2013-09-27T10:56:04Z</time>
      </trkpt>
      <trkpt lat="45.4578" lon="4.76816">
        <ele>150.58</ele>
        <time>2013-09-27T10:56:07Z</time>
      </trkpt>
      <trkpt lat="45.45782" lon="4.76842">
        <ele>150.58</ele>
        <time>2013-09-27T10:56:10Z</time>
      </trkpt>
      <trkpt lat="45.45787" lon="4.76866">
        <ele>150.58</ele>
        <time>2013-09-27T10:56:13Z</time>
      </trkpt>
      <trkpt lat="45.45787" lon="4.76899">
        <ele>151.06</ele>
        <time>2013-09-27T10:56:17Z</time>
      </trkpt>
      <trkpt lat="45.45788" lon="4.76932">
        <ele>150.58</ele>
        <time>2013-09-27T10:56:21Z</time>
      </trkpt>
      <trkpt lat="45.45789" lon="4.76957">
        <ele>151.06</ele>
        <time>2013-09-27T10:56:27Z</time>
      </trkpt>
      <trkpt lat="45.45785" lon="4.76983">
        <ele>150.58</ele>
        <time>2013-09-27T10:56:32Z</time>
      </trkpt>
      <trkpt lat="45.45784" lon="4.77013">
        <ele>151.06</ele>
        <time>2013-09-27T10:56:36Z</time>
      </trkpt>
      <trkpt lat="45.45781" lon="4.77046">
        <ele>151.06</ele>
        <time>2013-09-27T10:56:40Z</time>
      </trkpt>
      <trkpt lat="45.4578" lon="4.77079">
        <ele>151.54</ele>
        <time>2013-09-27T10:56:44Z</time>
      </trkpt>
      <trkpt lat="45.45791" lon="4.77105">
        <ele>151.54</ele>
        <time>2013-09-27T10:56:48Z</time>
      </trkpt>
      <trkpt lat="45.45805" lon="4.7713">
        <ele>152.03</ele>
        <time>2013-09-27T10:56:52Z</time>
      </trkpt>
      <trkpt lat="45.458" lon="4.77157">
        <ele>152.03</ele>
        <time>2013-09-27T10:56:56Z</time>
      </trkpt>
      <trkpt lat="45.45816" lon="4.77173">
        <ele>152.03</ele>
        <time>2013-09-27T10:57:00Z</time>
      </trkpt>
      <trkpt lat="45.45837" lon="4.77186">
        <ele>152.03</ele>
        <time>2013-09-27T10:57:04Z</time>
      </trkpt>
      <trkpt lat="45.45855" lon="4.77195">
        <ele>151.06</ele>
        <time>2013-09-27T10:57:08Z</time>
      </trkpt>
      <trkpt lat="45.45872" lon="4.77208">
        <ele>151.54</ele>
        <time>2013-09-27T10:57:14Z</time>
      </trkpt>
      <trkpt lat="45.45885" lon="4.77213">
        <ele>151.54</ele>
        <time>2013-09-27T10:57:35Z</time>
      </trkpt>
      <trkpt lat="45.45866" lon="4.77204">
        <ele>152.03</ele>
        <time>2013-09-27T10:57:42Z</time>
      </trkpt>
      <trkpt lat="45.45849" lon="4.77197">
        <ele>151.54</ele>
        <time>2013-09-27T10:57:49Z</time>
      </trkpt>
      <trkpt lat="45.45869" lon="4.77208">
        <ele>152.03</ele>
        <time>2013-09-27T10:57:57Z</time>
      </trkpt>
      <trkpt lat="45.45888" lon="4.7722">
        <ele>151.54</ele>
        <time>2013-09-27T10:58:02Z</time>
      </trkpt>
      <trkpt lat="45.45906" lon="4.77238">
        <ele>151.54</ele>
        <time>2013-09-27T10:58:07Z</time>
      </trkpt>
      <trkpt lat="45.45919" lon="4.77265">
        <ele>151.54</ele>
        <time>2013-09-27T10:58:12Z</time>
      </trkpt>
      <trkpt lat="45.45927" lon="4.77293">
        <ele>152.03</ele>
        <time>2013-09-27T10:58:16Z</time>
      </trkpt>
      <trkpt lat="45.45932" lon="4.77323">
        <ele>152.03</ele>
        <time>2013-09-27T10:58:20Z</time>
      </trkpt>
      <trkpt lat="45.45939" lon="4.77352">
        <ele>152.03</ele>
        <time>2013-09-27T10:58:24Z</time>
      </trkpt>
      <trkpt lat="45.45949" lon="4.77381">
        <ele>151.54</ele>
        <time>2013-09-27T10:58:28Z</time>
      </trkpt>
      <trkpt lat="45.45961" lon="4.7741">
        <ele>151.54</ele>
        <time>2013-09-27T10:58:32Z</time>
      </trkpt>
      <trkpt lat="45.45974" lon="4.77438">
        <ele>152.03</ele>
        <time>2013-09-27T10:58:36Z</time>
      </trkpt>
      <trkpt lat="45.45985" lon="4.77468">
        <ele>152.03</ele>
        <time>2013-09-27T10:58:40Z</time>
      </trkpt>
      <trkpt lat="45.4599" lon="4.77493">
        <ele>152.51</ele>
        <time>2013-09-27T10:58:43Z</time>
      </trkpt>
      <trkpt lat="45.45997" lon="4.77524">
        <ele>152.51</ele>
        <time>2013-09-27T10:58:47Z</time>
      </trkpt>
      <trkpt lat="45.46003" lon="4.77555">
        <ele>152.51</ele>
        <time>2013-09-27T10:58:51Z</time>
      </trkpt>
      <trkpt lat="45.46008" lon="4.77587">
        <ele>152.51</ele>
        <time>2013-09-27T10:58:55Z</time>
      </trkpt>
      <trkpt lat="45.4601" lon="4.77619">
        <ele>152.51</ele>
        <time>2013-09-27T10:58:59Z</time>
      </trkpt>
      <trkpt lat="45.46014" lon="4.7765">
        <ele>152.99</ele>
        <time>2013-09-27T10:59:03Z</time>
      </trkpt>
      <trkpt lat="45.4602" lon="4.77675">
        <ele>152.51</ele>
        <time>2013-09-27T10:59:07Z</time>
      </trkpt>
      <trkpt lat="45.46034" lon="4.77698">
        <ele>152.03</ele>
        <time>2013-09-27T10:59:12Z</time>
      </trkpt>
      <trkpt lat="45.46053" lon="4.77713">
        <ele>152.03</ele>
        <time>2013-09-27T10:59:17Z</time>
      </trkpt>
      <trkpt lat="45.46067" lon="4.77699">
        <ele>152.03</ele>
        <time>2013-09-27T10:59:22Z</time>
      </trkpt>
      <trkpt lat="45.46082" lon="4.77697">
        <ele>152.03</ele>
        <time>2013-09-27T10:59:35Z</time>
      </trkpt>
      <trkpt lat="45.46103" lon="4.77708">
        <ele>152.51</ele>
        <time>2013-09-27T10:59:41Z</time>
      </trkpt>
      <trkpt lat="45.46121" lon="4.77722">
        <ele>152.51</ele>
        <time>2013-09-27T10:59:45Z</time>
      </trkpt>
      <trkpt lat="45.46141" lon="4.77739">
        <ele>152.51</ele>
        <time>2013-09-27T10:59:49Z</time>
      </trkpt>
      <trkpt lat="45.46156" lon="4.77753">
        <ele>152.99</ele>
        <time>2013-09-27T10:59:52Z</time>
      </trkpt>
      <trkpt lat="45.46172" lon="4.77768">
        <ele>152.51</ele>
        <time>2013-09-27T10:59:55Z</time>
      </trkpt>
      <trkpt lat="45.46187" lon="4.77783">
        <ele>152.51</ele>
        <time>2013-09-27T10:59:58Z</time>
      </trkpt>
      <trkpt lat="45.46203" lon="4.77799">
        <ele>152.99</ele>
        <time>2013-09-27T11:00:01Z</time>
      </trkpt>
      <trkpt lat="45.46218" lon="4.77816">
        <ele>152.99</ele>
        <time>2013-09-27T11:00:04Z</time>
      </trkpt>
      <trkpt lat="45.46234" lon="4.77832">
        <ele>152.99</ele>
        <time>2013-09-27T11:00:07Z</time>
      </trkpt>
      <trkpt lat="45.46249" lon="4.77847">
        <ele>153.47</ele>
        <time>2013-09-27T11:00:10Z</time>
      </trkpt>
      <trkpt lat="45.46268" lon="4.77866">
        <ele>153.47</ele>
        <time>2013-09-27T11:00:14Z</time>
      </trkpt>
      <trkpt lat="45.46287" lon="4.77879">
        <ele>152.99</ele>
        <time>2013-09-27T11:00:18Z</time>
      </trkpt>
      <trkpt lat="45.46305" lon="4.77888">
        <ele>153.47</ele>
        <time>2013-09-27T11:00:22Z</time>
      </trkpt>
      <trkpt lat="45.46324" lon="4.77898">
        <ele>152.99</ele>
        <time>2013-09-27T11:00:26Z</time>
      </trkpt>
      <trkpt lat="45.46344" lon="4.77909">
        <ele>152.99</ele>
        <time>2013-09-27T11:00:30Z</time>
      </trkpt>
      <trkpt lat="45.46363" lon="4.7792">
        <ele>152.99</ele>
        <time>2013-09-27T11:00:34Z</time>
      </trkpt>
      <trkpt lat="45.46382" lon="4.77932">
        <ele>153.47</ele>
        <time>2013-09-27T11:00:38Z</time>
      </trkpt>
      <trkpt lat="45.46397" lon="4.77944">
        <ele>153.47</ele>
        <time>2013-09-27T11:00:42Z</time>
      </trkpt>
      <trkpt lat="45.46419" lon="4.77944">
        <ele>152.99</ele>
        <time>2013-09-27T11:00:47Z</time>
      </trkpt>
      <trkpt lat="45.46442" lon="4.77938">
        <ele>152.99</ele>
        <time>2013-09-27T11:00:52Z</time>
      </trkpt>
      <trkpt lat="45.46463" lon="4.77944">
        <ele>153.47</ele>
        <time>2013-09-27T11:00:56Z</time>
      </trkpt>
      <trkpt lat="45.46483" lon="4.7794">
        <ele>153.47</ele>
        <time>2013-09-27T11:01:00Z</time>
      </trkpt>
      <trkpt lat="45.46494" lon="4.77916">
        <ele>153.47</ele>
        <time>2013-09-27T11:01:04Z</time>
      </trkpt>
      <trkpt lat="45.46495" lon="4.77887">
        <ele>153.47</ele>
        <time>2013-09-27T11:01:08Z</time>
      </trkpt>
      <trkpt lat="45.46502" lon="4.7786">
        <ele>153.47</ele>
        <time>2013-09-27T11:01:12Z</time>
      </trkpt>
      <trkpt lat="45.46516" lon="4.77839">
        <ele>153.47</ele>
        <time>2013-09-27T11:01:16Z</time>
      </trkpt>
      <trkpt lat="45.4653" lon="4.77817">
        <ele>152.99</ele>
        <time>2013-09-27T11:01:20Z</time>
      </trkpt>
      <trkpt lat="45.46545" lon="4.77793">
        <ele>152.51</ele>
        <time>2013-09-27T11:01:24Z</time>
      </trkpt>
      <trkpt lat="45.46561" lon="4.77768">
        <ele>152.51</ele>
        <time>2013-09-27T11:01:28Z</time>
      </trkpt>
      <trkpt lat="45.46577" lon="4.77744">
        <ele>152.99</ele>
        <time>2013-09-27T11:01:32Z</time>
      </trkpt>
      <trkpt lat="45.46593" lon="4.77722">
        <ele>152.51</ele>
        <time>2013-09-27T11:01:36Z</time>
      </trkpt>
      <trkpt lat="45.46611" lon="4.77725">
        <ele>152.51</ele>
        <time>2013-09-27T11:01:40Z</time>
      </trkpt>
      <trkpt lat="45.46627" lon="4.77745">
        <ele>152.51</ele>
        <time>2013-09-27T11:01:44Z</time>
      </trkpt>
      <trkpt lat="45.46645" lon="4.77767">
        <ele>152.99</ele>
        <time>2013-09-27T11:01:48Z</time>
      </trkpt>
      <trkpt lat="45.46661" lon="4.7779">
        <ele>152.51</ele>
        <time>2013-09-27T11:01:52Z</time>
      </trkpt>
      <trkpt lat="45.46673" lon="4.7781">
        <ele>152.51</ele>
        <time>2013-09-27T11:01:55Z</time>
      </trkpt>
      <trkpt lat="45.46685" lon="4.7783">
        <ele>151.54</ele>
        <time>2013-09-27T11:01:58Z</time>
      </trkpt>
      <trkpt lat="45.46698" lon="4.77849">
        <ele>152.51</ele>
        <time>2013-09-27T11:02:01Z</time>
      </trkpt>
      <trkpt lat="45.46712" lon="4.77866">
        <ele>152.51</ele>
        <time>2013-09-27T11:02:04Z</time>
      </trkpt>
      <trkpt lat="45.46728" lon="4.77881">
        <ele>152.99</ele>
        <time>2013-09-27T11:02:07Z</time>
      </trkpt>
      <trkpt lat="45.46746" lon="4.77894">
        <ele>152.99</ele>
        <time>2013-09-27T11:02:11Z</time>
      </trkpt>
      <trkpt lat="45.46765" lon="4.77897">
        <ele>153.47</ele>
        <time>2013-09-27T11:02:16Z</time>
      </trkpt>
      <trkpt lat="45.46785" lon="4.77893">
        <ele>153.47</ele>
        <time>2013-09-27T11:02:20Z</time>
      </trkpt>
      <trkpt lat="45.46806" lon="4.7789">
        <ele>153.47</ele>
        <time>2013-09-27T11:02:24Z</time>
      </trkpt>
      <trkpt lat="45.46827" lon="4.77886">
        <ele>152.99</ele>
        <time>2013-09-27T11:02:28Z</time>
      </trkpt>
      <trkpt lat="45.4685" lon="4.77882">
        <ele>153.47</ele>
        <time>2013-09-27T11:02:32Z</time>
      </trkpt>
      <trkpt lat="45.46873" lon="4.77878">
        <ele>152.99</ele>
        <time>2013-09-27T11:02:36Z</time>
      </trkpt>
      <trkpt lat="45.46895" lon="4.77874">
        <ele>152.99</ele>
        <time>2013-09-27T11:02:40Z</time>
      </trkpt>
      <trkpt lat="45.46916" lon="4.7787">
        <ele>152.99</ele>
        <time>2013-09-27T11:02:44Z</time>
      </trkpt>
      <trkpt lat="45.46938" lon="4.77867">
        <ele>152.99</ele>
        <time>2013-09-27T11:02:48Z</time>
      </trkpt>
      <trkpt lat="45.46957" lon="4.77865">
        <ele>152.99</ele>
        <time>2013-09-27T11:02:51Z</time>
      </trkpt>
      <trkpt lat="45.46976" lon="4.77859">
        <ele>153.47</ele>
        <time>2013-09-27T11:02:54Z</time>
      </trkpt>
      <trkpt lat="45.46994" lon="4.77837">
        <ele>153.95</ele>
        <time>2013-09-27T11:02:58Z</time>
      </trkpt>
      <trkpt lat="45.4701" lon="4.77813">
        <ele>153.95</ele>
        <time>2013-09-27T11:03:02Z</time>
      </trkpt>
      <trkpt lat="45.47028" lon="4.77792">
        <ele>154.91</ele>
        <time>2013-09-27T11:03:06Z</time>
      </trkpt>
      <trkpt lat="45.47047" lon="4.77771">
        <ele>154.91</ele>
        <time>2013-09-27T11:03:10Z</time>
      </trkpt>
      <trkpt lat="45.47065" lon="4.77751">
        <ele>154.43</ele>
        <time>2013-09-27T11:03:14Z</time>
      </trkpt>
      <trkpt lat="45.47084" lon="4.77751">
        <ele>154.91</ele>
        <time>2013-09-27T11:03:19Z</time>
      </trkpt>
      <trkpt lat="45.47094" lon="4.77774">
        <ele>154.91</ele>
        <time>2013-09-27T11:03:38Z</time>
      </trkpt>
      <trkpt lat="45.4711" lon="4.77764">
        <ele>154.91</ele>
        <time>2013-09-27T11:03:46Z</time>
      </trkpt>
      <trkpt lat="45.47128" lon="4.77754">
        <ele>155.87</ele>
        <time>2013-09-27T11:03:53Z</time>
      </trkpt>
      <trkpt lat="45.47147" lon="4.77759">
        <ele>155.87</ele>
        <time>2013-09-27T11:03:59Z</time>
      </trkpt>
      <trkpt lat="45.47165" lon="4.77771">
        <ele>155.87</ele>
        <time>2013-09-27T11:04:03Z</time>
      </trkpt>
      <trkpt lat="45.47183" lon="4.7778">
        <ele>155.87</ele>
        <time>2013-09-27T11:04:08Z</time>
      </trkpt>
      <trkpt lat="45.47201" lon="4.77794">
        <ele>155.39</ele>
        <time>2013-09-27T11:04:14Z</time>
      </trkpt>
      <trkpt lat="45.47219" lon="4.77807">
        <ele>154.43</ele>
        <time>2013-09-27T11:04:18Z</time>
      </trkpt>
      <trkpt lat="45.47237" lon="4.77822">
        <ele>153.47</ele>
        <time>2013-09-27T11:04:22Z</time>
      </trkpt>
      <trkpt lat="45.47255" lon="4.77834">
        <ele>152.03</ele>
        <time>2013-09-27T11:04:26Z</time>
      </trkpt>
      <trkpt lat="45.47275" lon="4.77848">
        <ele>152.99</ele>
        <time>2013-09-27T11:04:33Z</time>
      </trkpt>
      <trkpt lat="45.47295" lon="4.77862">
        <ele>152.99</ele>
        <time>2013-09-27T11:04:38Z</time>
      </trkpt>
      <trkpt lat="45.47316" lon="4.77873">
        <ele>153.47</ele>
        <time>2013-09-27T11:04:43Z</time>
      </trkpt>
      <trkpt lat="45.47338" lon="4.77883">
        <ele>153.47</ele>
        <time>2013-09-27T11:04:48Z</time>
      </trkpt>
      <trkpt lat="45.47358" lon="4.77893">
        <ele>153.47</ele>
        <time>2013-09-27T11:04:54Z</time>
      </trkpt>
      <trkpt lat="45.47377" lon="4.77904">
        <ele>153.47</ele>
        <time>2013-09-27T11:04:59Z</time>
      </trkpt>
      <trkpt lat="45.47398" lon="4.77916">
        <ele>153.95</ele>
        <time>2013-09-27T11:05:03Z</time>
      </trkpt>
      <trkpt lat="45.47418" lon="4.77923">
        <ele>153.47</ele>
        <time>2013-09-27T11:05:07Z</time>
      </trkpt>
      <trkpt lat="45.47438" lon="4.77933">
        <ele>152.99</ele>
        <time>2013-09-27T11:05:13Z</time>
      </trkpt>
      <trkpt lat="45.47459" lon="4.7795">
        <ele>152.99</ele>
        <time>2013-09-27T11:05:21Z</time>
      </trkpt>
      <trkpt lat="45.47483" lon="4.77967">
        <ele>152.99</ele>
        <time>2013-09-27T11:05:26Z</time>
      </trkpt>
      <trkpt lat="45.47506" lon="4.7798">
        <ele>153.47</ele>
        <time>2013-09-27T11:05:30Z</time>
      </trkpt>
      <trkpt lat="45.47527" lon="4.78001">
        <ele>152.99</ele>
        <time>2013-09-27T11:05:34Z</time>
      </trkpt>
      <trkpt lat="45.47549" lon="4.78014">
        <ele>151.06</ele>
        <time>2013-09-27T11:05:40Z</time>
      </trkpt>
      <trkpt lat="45.4757" lon="4.78025">
        <ele>153.47</ele>
        <time>2013-09-27T11:05:53Z</time>
      </trkpt>
      <trkpt lat="45.47587" lon="4.7804">
        <ele>152.99</ele>
        <time>2013-09-27T11:05:57Z</time>
      </trkpt>
      <trkpt lat="45.47611" lon="4.78058">
        <ele>152.51</ele>
        <time>2013-09-27T11:06:01Z</time>
      </trkpt>
      <trkpt lat="45.47628" lon="4.78072">
        <ele>153.47</ele>
        <time>2013-09-27T11:06:04Z</time>
      </trkpt>
      <trkpt lat="45.47645" lon="4.78086">
        <ele>153.47</ele>
        <time>2013-09-27T11:06:07Z</time>
      </trkpt>
      <trkpt lat="45.4766" lon="4.78103">
        <ele>153.47</ele>
        <time>2013-09-27T11:06:10Z</time>
      </trkpt>
      <trkpt lat="45.47668" lon="4.78128">
        <ele>153.47</ele>
        <time>2013-09-27T11:06:13Z</time>
      </trkpt>
      <trkpt lat="45.47669" lon="4.78162">
        <ele>153.47</ele>
        <time>2013-09-27T11:06:17Z</time>
      </trkpt>
      <trkpt lat="45.47677" lon="4.78188">
        <ele>153.47</ele>
        <time>2013-09-27T11:06:21Z</time>
      </trkpt>
      <trkpt lat="45.477" lon="4.78194">
        <ele>153.95</ele>
        <time>2013-09-27T11:06:25Z</time>
      </trkpt>
      <trkpt lat="45.47718" lon="4.78197">
        <ele>153.95</ele>
        <time>2013-09-27T11:06:28Z</time>
      </trkpt>
      <trkpt lat="45.47736" lon="4.78202">
        <ele>154.43</ele>
        <time>2013-09-27T11:06:31Z</time>
      </trkpt>
      <trkpt lat="45.47753" lon="4.78211">
        <ele>154.43</ele>
        <time>2013-09-27T11:06:34Z</time>
      </trkpt>
      <trkpt lat="45.47771" lon="4.78219">
        <ele>154.43</ele>
        <time>2013-09-27T11:06:37Z</time>
      </trkpt>
      <trkpt lat="45.4779" lon="4.78226">
        <ele>154.43</ele>
        <time>2013-09-27T11:06:40Z</time>
      </trkpt>
      <trkpt lat="45.47809" lon="4.78231">
        <ele>153.95</ele>
        <time>2013-09-27T11:06:43Z</time>
      </trkpt>
      <trkpt lat="45.47833" lon="4.78233">
        <ele>153.95</ele>
        <time>2013-09-27T11:06:47Z</time>
      </trkpt>
      <trkpt lat="45.47852" lon="4.78242">
        <ele>154.91</ele>
        <time>2013-09-27T11:06:51Z</time>
      </trkpt>
      <trkpt lat="45.47869" lon="4.78261">
        <ele>153.95</ele>
        <time>2013-09-27T11:06:54Z</time>
      </trkpt>
      <trkpt lat="45.47886" lon="4.78277">
        <ele>153.95</ele>
        <time>2013-09-27T11:06:57Z</time>
      </trkpt>
      <trkpt lat="45.47904" lon="4.78286">
        <ele>153.95</ele>
        <time>2013-09-27T11:07:00Z</time>
      </trkpt>
      <trkpt lat="45.47923" lon="4.78297">
        <ele>153.47</ele>
        <time>2013-09-27T11:07:03Z</time>
      </trkpt>
      <trkpt lat="45.47939" lon="4.78322">
        <ele>153.95</ele>
        <time>2013-09-27T11:07:07Z</time>
      </trkpt>
      <trkpt lat="45.4795" lon="4.78344">
        <ele>154.91</ele>
        <time>2013-09-27T11:07:11Z</time>
      </trkpt>
      <trkpt lat="45.47956" lon="4.78371">
        <ele>154.91</ele>
        <time>2013-09-27T11:07:15Z</time>
      </trkpt>
      <trkpt lat="45.47952" lon="4.78398">
        <ele>155.87</ele>
        <time>2013-09-27T11:07:31Z</time>
      </trkpt>
      <trkpt lat="45.47939" lon="4.7842">
        <ele>154.91</ele>
        <time>2013-09-27T11:07:40Z</time>
      </trkpt>
      <trkpt lat="45.47955" lon="4.78443">
        <ele>154.43</ele>
        <time>2013-09-27T11:08:11Z</time>
      </trkpt>
      <trkpt lat="45.4797" lon="4.78462">
        <ele>154.91</ele>
        <time>2013-09-27T11:08:27Z</time>
      </trkpt>
      <trkpt lat="45.47987" lon="4.78483">
        <ele>154.91</ele>
        <time>2013-09-27T11:09:11Z</time>
      </trkpt>
      <trkpt lat="45.48" lon="4.78503">
        <ele>154.91</ele>
        <time>2013-09-27T11:09:17Z</time>
      </trkpt>
      <trkpt lat="45.48014" lon="4.78523">
        <ele>154.91</ele>
        <time>2013-09-27T11:09:22Z</time>
      </trkpt>
      <trkpt lat="45.48028" lon="4.78545">
        <ele>154.91</ele>
        <time>2013-09-27T11:09:27Z</time>
      </trkpt>
      <trkpt lat="45.48042" lon="4.78564">
        <ele>155.39</ele>
        <time>2013-09-27T11:09:31Z</time>
      </trkpt>
      <trkpt lat="45.48052" lon="4.78591">
        <ele>155.39</ele>
        <time>2013-09-27T11:09:35Z</time>
      </trkpt>
      <trkpt lat="45.48061" lon="4.78621">
        <ele>155.39</ele>
        <time>2013-09-27T11:09:39Z</time>
      </trkpt>
      <trkpt lat="45.48069" lon="4.78652">
        <ele>155.39</ele>
        <time>2013-09-27T11:09:43Z</time>
      </trkpt>
      <trkpt lat="45.48074" lon="4.78677">
        <ele>155.87</ele>
        <time>2013-09-27T11:09:46Z</time>
      </trkpt>
      <trkpt lat="45.48077" lon="4.78703">
        <ele>155.39</ele>
        <time>2013-09-27T11:09:49Z</time>
      </trkpt>
      <trkpt lat="45.48077" lon="4.7873">
        <ele>155.87</ele>
        <time>2013-09-27T11:09:52Z</time>
      </trkpt>
      <trkpt lat="45.48074" lon="4.78757">
        <ele>155.87</ele>
        <time>2013-09-27T11:09:55Z</time>
      </trkpt>
      <trkpt lat="45.48067" lon="4.78784">
        <ele>155.87</ele>
        <time>2013-09-27T11:09:58Z</time>
      </trkpt>
      <trkpt lat="45.4806" lon="4.7881">
        <ele>155.39</ele>
        <time>2013-09-27T11:10:01Z</time>
      </trkpt>
      <trkpt lat="45.48065" lon="4.78835">
        <ele>154.91</ele>
        <time>2013-09-27T11:10:05Z</time>
      </trkpt>
      <trkpt lat="45.48089" lon="4.78842">
        <ele>154.91</ele>
        <time>2013-09-27T11:10:09Z</time>
      </trkpt>
      <trkpt lat="45.48107" lon="4.78848">
        <ele>155.39</ele>
        <time>2013-09-27T11:10:12Z</time>
      </trkpt>
      <trkpt lat="45.48127" lon="4.78852">
        <ele>155.87</ele>
        <time>2013-09-27T11:10:15Z</time>
      </trkpt>
      <trkpt lat="45.48147" lon="4.78856">
        <ele>155.87</ele>
        <time>2013-09-27T11:10:18Z</time>
      </trkpt>
      <trkpt lat="45.48167" lon="4.78858">
        <ele>155.39</ele>
        <time>2013-09-27T11:10:21Z</time>
      </trkpt>
      <trkpt lat="45.48187" lon="4.7886">
        <ele>155.87</ele>
        <time>2013-09-27T11:10:24Z</time>
      </trkpt>
      <trkpt lat="45.48207" lon="4.78862">
        <ele>156.83</ele>
        <time>2013-09-27T11:10:27Z</time>
      </trkpt>
      <trkpt lat="45.48228" lon="4.78863">
        <ele>158.27</ele>
        <time>2013-09-27T11:10:31Z</time>
      </trkpt>
      <trkpt lat="45.48251" lon="4.78867">
        <ele>159.72</ele>
        <time>2013-09-27T11:10:36Z</time>
      </trkpt>
      <trkpt lat="45.4827" lon="4.78871">
        <ele>159.72</ele>
        <time>2013-09-27T11:10:40Z</time>
      </trkpt>
      <trkpt lat="45.48283" lon="4.78889">
        <ele>159.72</ele>
        <time>2013-09-27T11:10:44Z</time>
      </trkpt>
      <trkpt lat="45.48292" lon="4.7892">
        <ele>159.72</ele>
        <time>2013-09-27T11:10:48Z</time>
      </trkpt>
      <trkpt lat="45.48298" lon="4.78945">
        <ele>160.2</ele>
        <time>2013-09-27T11:10:51Z</time>
      </trkpt>
      <trkpt lat="45.48301" lon="4.78972">
        <ele>159.72</ele>
        <time>2013-09-27T11:10:54Z</time>
      </trkpt>
      <trkpt lat="45.48303" lon="4.79">
        <ele>160.2</ele>
        <time>2013-09-27T11:10:57Z</time>
      </trkpt>
      <trkpt lat="45.48305" lon="4.79029">
        <ele>159.72</ele>
        <time>2013-09-27T11:11:00Z</time>
      </trkpt>
      <trkpt lat="45.48309" lon="4.79058">
        <ele>159.24</ele>
        <time>2013-09-27T11:11:03Z</time>
      </trkpt>
      <trkpt lat="45.48312" lon="4.79088">
        <ele>159.72</ele>
        <time>2013-09-27T11:11:06Z</time>
      </trkpt>
      <trkpt lat="45.48316" lon="4.79118">
        <ele>159.72</ele>
        <time>2013-09-27T11:11:09Z</time>
      </trkpt>
      <trkpt lat="45.4832" lon="4.79149">
        <ele>159.24</ele>
        <time>2013-09-27T11:11:12Z</time>
      </trkpt>
      <trkpt lat="45.48323" lon="4.79179">
        <ele>159.72</ele>
        <time>2013-09-27T11:11:15Z</time>
      </trkpt>
      <trkpt lat="45.48326" lon="4.79209">
        <ele>160.2</ele>
        <time>2013-09-27T11:11:18Z</time>
      </trkpt>
      <trkpt lat="45.48329" lon="4.79237">
        <ele>159.72</ele>
        <time>2013-09-27T11:11:21Z</time>
      </trkpt>
      <trkpt lat="45.48334" lon="4.79264">
        <ele>160.2</ele>
        <time>2013-09-27T11:11:24Z</time>
      </trkpt>
      <trkpt lat="45.4834" lon="4.79293">
        <ele>159.72</ele>
        <time>2013-09-27T11:11:27Z</time>
      </trkpt>
      <trkpt lat="45.48346" lon="4.79323">
        <ele>159.24</ele>
        <time>2013-09-27T11:11:30Z</time>
      </trkpt>
      <trkpt lat="45.48351" lon="4.79353">
        <ele>158.75</ele>
        <time>2013-09-27T11:11:33Z</time>
      </trkpt>
      <trkpt lat="45.48359" lon="4.79382">
        <ele>158.75</ele>
        <time>2013-09-27T11:11:36Z</time>
      </trkpt>
      <trkpt lat="45.48365" lon="4.79412">
        <ele>158.27</ele>
        <time>2013-09-27T11:11:39Z</time>
      </trkpt>
      <trkpt lat="45.48372" lon="4.79439">
        <ele>158.75</ele>
        <time>2013-09-27T11:11:42Z</time>
      </trkpt>
      <trkpt lat="45.48378" lon="4.79468">
        <ele>158.75</ele>
        <time>2013-09-27T11:11:45Z</time>
      </trkpt>
      <trkpt lat="45.48379" lon="4.79498">
        <ele>158.27</ele>
        <time>2013-09-27T11:11:48Z</time>
      </trkpt>
      <trkpt lat="45.48372" lon="4.79527">
        <ele>157.79</ele>
        <time>2013-09-27T11:11:51Z</time>
      </trkpt>
      <trkpt lat="45.48364" lon="4.79556">
        <ele>157.79</ele>
        <time>2013-09-27T11:11:54Z</time>
      </trkpt>
      <trkpt lat="45.48356" lon="4.79585">
        <ele>157.31</ele>
        <time>2013-09-27T11:11:57Z</time>
      </trkpt>
      <trkpt lat="45.4835" lon="4.79614">
        <ele>157.31</ele>
        <time>2013-09-27T11:12:00Z</time>
      </trkpt>
      <trkpt lat="45.48346" lon="4.79643">
        <ele>157.31</ele>
        <time>2013-09-27T11:12:03Z</time>
      </trkpt>
      <trkpt lat="45.48342" lon="4.79674">
        <ele>157.31</ele>
        <time>2013-09-27T11:12:06Z</time>
      </trkpt>
      <trkpt lat="45.48339" lon="4.79704">
        <ele>156.83</ele>
        <time>2013-09-27T11:12:09Z</time>
      </trkpt>
      <trkpt lat="45.48336" lon="4.79733">
        <ele>156.83</ele>
        <time>2013-09-27T11:12:12Z</time>
      </trkpt>
      <trkpt lat="45.48333" lon="4.79763">
        <ele>156.35</ele>
        <time>2013-09-27T11:12:15Z</time>
      </trkpt>
      <trkpt lat="45.4833" lon="4.7979">
        <ele>156.83</ele>
        <time>2013-09-27T11:12:18Z</time>
      </trkpt>
      <trkpt lat="45.48327" lon="4.79823">
        <ele>156.35</ele>
        <time>2013-09-27T11:12:22Z</time>
      </trkpt>
      <trkpt lat="45.48327" lon="4.79854">
        <ele>156.35</ele>
        <time>2013-09-27T11:12:26Z</time>
      </trkpt>
      <trkpt lat="45.48337" lon="4.79881">
        <ele>156.35</ele>
        <time>2013-09-27T11:12:30Z</time>
      </trkpt>
      <trkpt lat="45.48349" lon="4.79905">
        <ele>155.87</ele>
        <time>2013-09-27T11:12:35Z</time>
      </trkpt>
      <trkpt lat="45.48362" lon="4.79928">
        <ele>156.35</ele>
        <time>2013-09-27T11:12:41Z</time>
      </trkpt>
      <trkpt lat="45.48372" lon="4.79939">
        <ele>156.83</ele>
        <time>2013-09-27T11:13:57Z</time>
      </trkpt>
      <trkpt lat="45.48383" lon="4.79961">
        <ele>156.35</ele>
        <time>2013-09-27T11:14:07Z</time>
      </trkpt>
      <trkpt lat="45.48394" lon="4.79984">
        <ele>155.87</ele>
        <time>2013-09-27T11:14:16Z</time>
      </trkpt>
      <trkpt lat="45.48405" lon="4.80005">
        <ele>155.87</ele>
        <time>2013-09-27T11:14:22Z</time>
      </trkpt>
      <trkpt lat="45.48416" lon="4.80027">
        <ele>156.35</ele>
        <time>2013-09-27T11:14:27Z</time>
      </trkpt>
      <trkpt lat="45.48428" lon="4.80052">
        <ele>156.35</ele>
        <time>2013-09-27T11:14:32Z</time>
      </trkpt>
      <trkpt lat="45.48438" lon="4.80075">
        <ele>156.35</ele>
        <time>2013-09-27T11:14:37Z</time>
      </trkpt>
      <trkpt lat="45.48447" lon="4.80097">
        <ele>155.87</ele>
        <time>2013-09-27T11:14:43Z</time>
      </trkpt>
      <trkpt lat="45.48455" lon="4.8012">
        <ele>155.87</ele>
        <time>2013-09-27T11:14:56Z</time>
      </trkpt>
      <trkpt lat="45.48464" lon="4.80143">
        <ele>155.87</ele>
        <time>2013-09-27T11:15:05Z</time>
      </trkpt>
      <trkpt lat="45.48472" lon="4.8017">
        <ele>155.87</ele>
        <time>2013-09-27T11:15:11Z</time>
      </trkpt>
      <trkpt lat="45.48481" lon="4.802">
        <ele>155.87</ele>
        <time>2013-09-27T11:15:16Z</time>
      </trkpt>
      <trkpt lat="45.48487" lon="4.80224">
        <ele>155.39</ele>
        <time>2013-09-27T11:15:20Z</time>
      </trkpt>
      <trkpt lat="45.48496" lon="4.80249">
        <ele>155.87</ele>
        <time>2013-09-27T11:15:24Z</time>
      </trkpt>
      <trkpt lat="45.48502" lon="4.80275">
        <ele>156.35</ele>
        <time>2013-09-27T11:15:28Z</time>
      </trkpt>
      <trkpt lat="45.4851" lon="4.803">
        <ele>156.35</ele>
        <time>2013-09-27T11:15:32Z</time>
      </trkpt>
      <trkpt lat="45.48519" lon="4.80327">
        <ele>155.87</ele>
        <time>2013-09-27T11:15:36Z</time>
      </trkpt>
      <trkpt lat="45.48528" lon="4.80354">
        <ele>155.39</ele>
        <time>2013-09-27T11:15:40Z</time>
      </trkpt>
      <trkpt lat="45.48539" lon="4.80381">
        <ele>155.87</ele>
        <time>2013-09-27T11:15:44Z</time>
      </trkpt>
      <trkpt lat="45.4855" lon="4.80411">
        <ele>155.87</ele>
        <time>2013-09-27T11:15:48Z</time>
      </trkpt>
      <trkpt lat="45.48559" lon="4.80434">
        <ele>155.39</ele>
        <time>2013-09-27T11:15:51Z</time>
      </trkpt>
      <trkpt lat="45.48568" lon="4.80456">
        <ele>155.87</ele>
        <time>2013-09-27T11:15:54Z</time>
      </trkpt>
      <trkpt lat="45.4858" lon="4.80485">
        <ele>155.87</ele>
        <time>2013-09-27T11:15:58Z</time>
      </trkpt>
      <trkpt lat="45.48592" lon="4.80514">
        <ele>155.87</ele>
        <time>2013-09-27T11:16:02Z</time>
      </trkpt>
      <trkpt lat="45.486" lon="4.80537">
        <ele>155.39</ele>
        <time>2013-09-27T11:16:05Z</time>
      </trkpt>
      <trkpt lat="45.48608" lon="4.80561">
        <ele>155.87</ele>
        <time>2013-09-27T11:16:08Z</time>
      </trkpt>
      <trkpt lat="45.48616" lon="4.80584">
        <ele>156.83</ele>
        <time>2013-09-27T11:16:11Z</time>
      </trkpt>
      <trkpt lat="45.48625" lon="4.80614">
        <ele>156.35</ele>
        <time>2013-09-27T11:16:15Z</time>
      </trkpt>
      <trkpt lat="45.48634" lon="4.80645">
        <ele>156.35</ele>
        <time>2013-09-27T11:16:19Z</time>
      </trkpt>
      <trkpt lat="45.48642" lon="4.80677">
        <ele>156.83</ele>
        <time>2013-09-27T11:16:23Z</time>
      </trkpt>
      <trkpt lat="45.48648" lon="4.80709">
        <ele>157.31</ele>
        <time>2013-09-27T11:16:27Z</time>
      </trkpt>
      <trkpt lat="45.48654" lon="4.80741">
        <ele>156.83</ele>
        <time>2013-09-27T11:16:31Z</time>
      </trkpt>
      <trkpt lat="45.48657" lon="4.80771">
        <ele>157.31</ele>
        <time>2013-09-27T11:16:35Z</time>
      </trkpt>
      <trkpt lat="45.48654" lon="4.808">
        <ele>157.31</ele>
        <time>2013-09-27T11:16:39Z</time>
      </trkpt>
      <trkpt lat="45.4865" lon="4.80831">
        <ele>156.83</ele>
        <time>2013-09-27T11:16:44Z</time>
      </trkpt>
      <trkpt lat="45.48647" lon="4.8086">
        <ele>157.31</ele>
        <time>2013-09-27T11:16:48Z</time>
      </trkpt>
      <trkpt lat="45.48644" lon="4.80891">
        <ele>157.31</ele>
        <time>2013-09-27T11:16:52Z</time>
      </trkpt>
      <trkpt lat="45.48641" lon="4.80924">
        <ele>157.79</ele>
        <time>2013-09-27T11:16:56Z</time>
      </trkpt>
      <trkpt lat="45.48639" lon="4.80952">
        <ele>158.27</ele>
        <time>2013-09-27T11:17:00Z</time>
      </trkpt>
      <trkpt lat="45.48642" lon="4.80981">
        <ele>157.31</ele>
        <time>2013-09-27T11:17:04Z</time>
      </trkpt>
      <trkpt lat="45.48644" lon="4.81014">
        <ele>157.31</ele>
        <time>2013-09-27T11:17:08Z</time>
      </trkpt>
      <trkpt lat="45.48645" lon="4.81047">
        <ele>156.35</ele>
        <time>2013-09-27T11:17:12Z</time>
      </trkpt>
      <trkpt lat="45.48652" lon="4.81072">
        <ele>157.31</ele>
        <time>2013-09-27T11:17:16Z</time>
      </trkpt>
      <trkpt lat="45.48662" lon="4.81097">
        <ele>157.31</ele>
        <time>2013-09-27T11:17:20Z</time>
      </trkpt>
      <trkpt lat="45.48674" lon="4.81124">
        <ele>157.31</ele>
        <time>2013-09-27T11:17:24Z</time>
      </trkpt>
      <trkpt lat="45.48685" lon="4.81148">
        <ele>157.31</ele>
        <time>2013-09-27T11:17:28Z</time>
      </trkpt>
      <trkpt lat="45.48677" lon="4.81174">
        <ele>157.31</ele>
        <time>2013-09-27T11:17:33Z</time>
      </trkpt>
      <trkpt lat="45.48657" lon="4.81189">
        <ele>157.31</ele>
        <time>2013-09-27T11:17:36Z</time>
      </trkpt>
      <trkpt lat="45.48637" lon="4.81204">
        <ele>156.35</ele>
        <time>2013-09-27T11:17:39Z</time>
      </trkpt>
      <trkpt lat="45.4862" lon="4.81219">
        <ele>156.35</ele>
        <time>2013-09-27T11:17:42Z</time>
      </trkpt>
      <trkpt lat="45.48599" lon="4.81237">
        <ele>156.83</ele>
        <time>2013-09-27T11:17:46Z</time>
      </trkpt>
      <trkpt lat="45.48591" lon="4.81257">
        <ele>157.31</ele>
        <time>2013-09-27T11:17:54Z</time>
      </trkpt>
      <trkpt lat="45.4859" lon="4.81251">
        <ele>156.83</ele>
        <time>2013-09-27T11:20:07Z</time>
      </trkpt>
      <trkpt lat="45.48599" lon="4.81275">
        <ele>156.83</ele>
        <time>2013-09-27T11:20:23Z</time>
      </trkpt>
      <trkpt lat="45.48612" lon="4.81297">
        <ele>157.31</ele>
        <time>2013-09-27T11:20:34Z</time>
      </trkpt>
      <trkpt lat="45.48622" lon="4.81318">
        <ele>156.83</ele>
        <time>2013-09-27T11:21:10Z</time>
      </trkpt>
      <trkpt lat="45.48634" lon="4.81343">
        <ele>157.31</ele>
        <time>2013-09-27T11:21:16Z</time>
      </trkpt>
      <trkpt lat="45.48646" lon="4.8137">
        <ele>156.83</ele>
        <time>2013-09-27T11:21:21Z</time>
      </trkpt>
      <trkpt lat="45.48657" lon="4.81394">
        <ele>157.31</ele>
        <time>2013-09-27T11:21:25Z</time>
      </trkpt>
      <trkpt lat="45.4867" lon="4.81421">
        <ele>157.31</ele>
        <time>2013-09-27T11:21:29Z</time>
      </trkpt>
      <trkpt lat="45.48685" lon="4.81449">
        <ele>156.83</ele>
        <time>2013-09-27T11:21:33Z</time>
      </trkpt>
      <trkpt lat="45.48698" lon="4.81471">
        <ele>156.83</ele>
        <time>2013-09-27T11:21:36Z</time>
      </trkpt>
      <trkpt lat="45.48713" lon="4.81489">
        <ele>157.31</ele>
        <time>2013-09-27T11:21:39Z</time>
      </trkpt>
      <trkpt lat="45.4873" lon="4.81502">
        <ele>156.83</ele>
        <time>2013-09-27T11:21:42Z</time>
      </trkpt>
      <trkpt lat="45.48748" lon="4.81511">
        <ele>156.83</ele>
        <time>2013-09-27T11:21:45Z</time>
      </trkpt>
      <trkpt lat="45.48766" lon="4.81521">
        <ele>157.31</ele>
        <time>2013-09-27T11:21:48Z</time>
      </trkpt>
      <trkpt lat="45.48783" lon="4.81534">
        <ele>157.79</ele>
        <time>2013-09-27T11:21:51Z</time>
      </trkpt>
      <trkpt lat="45.488" lon="4.81549">
        <ele>157.79</ele>
        <time>2013-09-27T11:21:54Z</time>
      </trkpt>
      <trkpt lat="45.48817" lon="4.81565">
        <ele>157.79</ele>
        <time>2013-09-27T11:21:57Z</time>
      </trkpt>
      <trkpt lat="45.48833" lon="4.81581">
        <ele>157.31</ele>
        <time>2013-09-27T11:22:00Z</time>
      </trkpt>
      <trkpt lat="45.48849" lon="4.81596">
        <ele>157.79</ele>
        <time>2013-09-27T11:22:03Z</time>
      </trkpt>
      <trkpt lat="45.48865" lon="4.81611">
        <ele>157.79</ele>
        <time>2013-09-27T11:22:06Z</time>
      </trkpt>
      <trkpt lat="45.48882" lon="4.81627">
        <ele>158.27</ele>
        <time>2013-09-27T11:22:09Z</time>
      </trkpt>
      <trkpt lat="45.489" lon="4.81644">
        <ele>158.75</ele>
        <time>2013-09-27T11:22:12Z</time>
      </trkpt>
      <trkpt lat="45.48918" lon="4.81661">
        <ele>158.27</ele>
        <time>2013-09-27T11:22:15Z</time>
      </trkpt>
      <trkpt lat="45.48934" lon="4.81677">
        <ele>158.27</ele>
        <time>2013-09-27T11:22:18Z</time>
      </trkpt>
      <trkpt lat="45.48949" lon="4.81693">
        <ele>158.27</ele>
        <time>2013-09-27T11:22:21Z</time>
      </trkpt>
      <trkpt lat="45.48966" lon="4.81708">
        <ele>158.27</ele>
        <time>2013-09-27T11:22:24Z</time>
      </trkpt>
      <trkpt lat="45.48982" lon="4.81724">
        <ele>158.27</ele>
        <time>2013-09-27T11:22:27Z</time>
      </trkpt>
      <trkpt lat="45.48999" lon="4.81739">
        <ele>158.27</ele>
        <time>2013-09-27T11:22:30Z</time>
      </trkpt>
      <trkpt lat="45.49018" lon="4.81753">
        <ele>156.83</ele>
        <time>2013-09-27T11:22:33Z</time>
      </trkpt>
      <trkpt lat="45.49037" lon="4.81768">
        <ele>156.83</ele>
        <time>2013-09-27T11:22:36Z</time>
      </trkpt>
      <trkpt lat="45.49056" lon="4.81785">
        <ele>157.31</ele>
        <time>2013-09-27T11:22:39Z</time>
      </trkpt>
      <trkpt lat="45.49077" lon="4.818">
        <ele>157.31</ele>
        <time>2013-09-27T11:22:42Z</time>
      </trkpt>
      <trkpt lat="45.49096" lon="4.81814">
        <ele>156.83</ele>
        <time>2013-09-27T11:22:45Z</time>
      </trkpt>
      <trkpt lat="45.49118" lon="4.81826">
        <ele>157.31</ele>
        <time>2013-09-27T11:22:48Z</time>
      </trkpt>
      <trkpt lat="45.4914" lon="4.81836">
        <ele>157.31</ele>
        <time>2013-09-27T11:22:51Z</time>
      </trkpt>
      <trkpt lat="45.49161" lon="4.81847">
        <ele>157.79</ele>
        <time>2013-09-27T11:22:54Z</time>
      </trkpt>
      <trkpt lat="45.49182" lon="4.8186">
        <ele>157.31</ele>
        <time>2013-09-27T11:22:57Z</time>
      </trkpt>
      <trkpt lat="45.49203" lon="4.81878">
        <ele>157.31</ele>
        <time>2013-09-27T11:23:00Z</time>
      </trkpt>
      <trkpt lat="45.49222" lon="4.81896">
        <ele>156.83</ele>
        <time>2013-09-27T11:23:03Z</time>
      </trkpt>
      <trkpt lat="45.49241" lon="4.81914">
        <ele>156.83</ele>
        <time>2013-09-27T11:23:06Z</time>
      </trkpt>
      <trkpt lat="45.4926" lon="4.81931">
        <ele>156.83</ele>
        <time>2013-09-27T11:23:09Z</time>
      </trkpt>
      <trkpt lat="45.49279" lon="4.81949">
        <ele>156.35</ele>
        <time>2013-09-27T11:23:12Z</time>
      </trkpt>
      <trkpt lat="45.49294" lon="4.81972">
        <ele>156.35</ele>
        <time>2013-09-27T11:23:15Z</time>
      </trkpt>
      <trkpt lat="45.49305" lon="4.81999">
        <ele>156.83</ele>
        <time>2013-09-27T11:23:18Z</time>
      </trkpt>
      <trkpt lat="45.49322" lon="4.82012">
        <ele>156.35</ele>
        <time>2013-09-27T11:23:21Z</time>
      </trkpt>
      <trkpt lat="45.49339" lon="4.82028">
        <ele>156.35</ele>
        <time>2013-09-27T11:23:24Z</time>
      </trkpt>
      <trkpt lat="45.49356" lon="4.82044">
        <ele>156.83</ele>
        <time>2013-09-27T11:23:27Z</time>
      </trkpt>
      <trkpt lat="45.49372" lon="4.82061">
        <ele>156.35</ele>
        <time>2013-09-27T11:23:30Z</time>
      </trkpt>
      <trkpt lat="45.4939" lon="4.82078">
        <ele>156.83</ele>
        <time>2013-09-27T11:23:33Z</time>
      </trkpt>
      <trkpt lat="45.49408" lon="4.82094">
        <ele>156.35</ele>
        <time>2013-09-27T11:23:36Z</time>
      </trkpt>
      <trkpt lat="45.49423" lon="4.8211">
        <ele>157.31</ele>
        <time>2013-09-27T11:23:39Z</time>
      </trkpt>
      <trkpt lat="45.49442" lon="4.82128">
        <ele>157.31</ele>
        <time>2013-09-27T11:23:43Z</time>
      </trkpt>
      <trkpt lat="45.49459" lon="4.82139">
        <ele>157.79</ele>
        <time>2013-09-27T11:23:46Z</time>
      </trkpt>
      <trkpt lat="45.49478" lon="4.82147">
        <ele>157.79</ele>
        <time>2013-09-27T11:23:49Z</time>
      </trkpt>
      <trkpt lat="45.49497" lon="4.82155">
        <ele>158.27</ele>
        <time>2013-09-27T11:23:52Z</time>
      </trkpt>
      <trkpt lat="45.49516" lon="4.82166">
        <ele>157.79</ele>
        <time>2013-09-27T11:23:55Z</time>
      </trkpt>
      <trkpt lat="45.49535" lon="4.82179">
        <ele>157.31</ele>
        <time>2013-09-27T11:23:58Z</time>
      </trkpt>
      <trkpt lat="45.49554" lon="4.82192">
        <ele>157.79</ele>
        <time>2013-09-27T11:24:01Z</time>
      </trkpt>
      <trkpt lat="45.49571" lon="4.82207">
        <ele>157.79</ele>
        <time>2013-09-27T11:24:04Z</time>
      </trkpt>
      <trkpt lat="45.49587" lon="4.82223">
        <ele>158.27</ele>
        <time>2013-09-27T11:24:07Z</time>
      </trkpt>
      <trkpt lat="45.49603" lon="4.82238">
        <ele>157.79</ele>
        <time>2013-09-27T11:24:10Z</time>
      </trkpt>
      <trkpt lat="45.4962" lon="4.82244">
        <ele>157.79</ele>
        <time>2013-09-27T11:24:14Z</time>
      </trkpt>
      <trkpt lat="45.49637" lon="4.82253">
        <ele>158.27</ele>
        <time>2013-09-27T11:24:19Z</time>
      </trkpt>
      <trkpt lat="45.49652" lon="4.82275">
        <ele>158.27</ele>
        <time>2013-09-27T11:24:23Z</time>
      </trkpt>
      <trkpt lat="45.49669" lon="4.82299">
        <ele>159.24</ele>
        <time>2013-09-27T11:24:27Z</time>
      </trkpt>
      <trkpt lat="45.49682" lon="4.8232">
        <ele>160.2</ele>
        <time>2013-09-27T11:24:30Z</time>
      </trkpt>
      <trkpt lat="45.49694" lon="4.8234">
        <ele>160.68</ele>
        <time>2013-09-27T11:24:33Z</time>
      </trkpt>
      <trkpt lat="45.49705" lon="4.82361">
        <ele>160.68</ele>
        <time>2013-09-27T11:24:36Z</time>
      </trkpt>
      <trkpt lat="45.49715" lon="4.82383">
        <ele>160.68</ele>
        <time>2013-09-27T11:24:39Z</time>
      </trkpt>
      <trkpt lat="45.49727" lon="4.82405">
        <ele>160.2</ele>
        <time>2013-09-27T11:24:42Z</time>
      </trkpt>
      <trkpt lat="45.49739" lon="4.82429">
        <ele>160.2</ele>
        <time>2013-09-27T11:24:45Z</time>
      </trkpt>
      <trkpt lat="45.49752" lon="4.82452">
        <ele>159.72</ele>
        <time>2013-09-27T11:24:48Z</time>
      </trkpt>
      <trkpt lat="45.49765" lon="4.82475">
        <ele>160.68</ele>
        <time>2013-09-27T11:24:51Z</time>
      </trkpt>
      <trkpt lat="45.49777" lon="4.82497">
        <ele>159.24</ele>
        <time>2013-09-27T11:24:55Z</time>
      </trkpt>
      <trkpt lat="45.49778" lon="4.82488">
        <ele>159.72</ele>
        <time>2013-09-27T11:25:02Z</time>
      </trkpt>
      <trkpt lat="45.49757" lon="4.82476">
        <ele>159.72</ele>
        <time>2013-09-27T11:25:07Z</time>
      </trkpt>
      <trkpt lat="45.4974" lon="4.82495">
        <ele>159.72</ele>
        <time>2013-09-27T11:25:11Z</time>
      </trkpt>
      <trkpt lat="45.49722" lon="4.82517">
        <ele>159.24</ele>
        <time>2013-09-27T11:25:15Z</time>
      </trkpt>
      <trkpt lat="45.49703" lon="4.82538">
        <ele>159.72</ele>
        <time>2013-09-27T11:25:19Z</time>
      </trkpt>
      <trkpt lat="45.49688" lon="4.82554">
        <ele>159.24</ele>
        <time>2013-09-27T11:25:22Z</time>
      </trkpt>
      <trkpt lat="45.49671" lon="4.82574">
        <ele>159.24</ele>
        <time>2013-09-27T11:25:26Z</time>
      </trkpt>
      <trkpt lat="45.49669" lon="4.82603">
        <ele>158.75</ele>
        <time>2013-09-27T11:25:31Z</time>
      </trkpt>
      <trkpt lat="45.49682" lon="4.82629">
        <ele>157.79</ele>
        <time>2013-09-27T11:25:35Z</time>
      </trkpt>
      <trkpt lat="45.49695" lon="4.8265">
        <ele>158.27</ele>
        <time>2013-09-27T11:25:38Z</time>
      </trkpt>
      <trkpt lat="45.49707" lon="4.82671">
        <ele>157.79</ele>
        <time>2013-09-27T11:25:41Z</time>
      </trkpt>
      <trkpt lat="45.49724" lon="4.82697">
        <ele>157.31</ele>
        <time>2013-09-27T11:25:45Z</time>
      </trkpt>
      <trkpt lat="45.49739" lon="4.82722">
        <ele>158.27</ele>
        <time>2013-09-27T11:25:49Z</time>
      </trkpt>
      <trkpt lat="45.49755" lon="4.82748">
        <ele>158.27</ele>
        <time>2013-09-27T11:25:53Z</time>
      </trkpt>
      <trkpt lat="45.49771" lon="4.82774">
        <ele>158.27</ele>
        <time>2013-09-27T11:25:57Z</time>
      </trkpt>
      <trkpt lat="45.49784" lon="4.82794">
        <ele>158.75</ele>
        <time>2013-09-27T11:26:00Z</time>
      </trkpt>
      <trkpt lat="45.498" lon="4.8282">
        <ele>158.27</ele>
        <time>2013-09-27T11:26:04Z</time>
      </trkpt>
      <trkpt lat="45.49812" lon="4.8284">
        <ele>158.27</ele>
        <time>2013-09-27T11:26:07Z</time>
      </trkpt>
      <trkpt lat="45.49824" lon="4.82861">
        <ele>158.27</ele>
        <time>2013-09-27T11:26:10Z</time>
      </trkpt>
      <trkpt lat="45.49837" lon="4.82882">
        <ele>158.27</ele>
        <time>2013-09-27T11:26:13Z</time>
      </trkpt>
      <trkpt lat="45.4985" lon="4.82903">
        <ele>157.79</ele>
        <time>2013-09-27T11:26:16Z</time>
      </trkpt>
      <trkpt lat="45.49864" lon="4.82924">
        <ele>157.79</ele>
        <time>2013-09-27T11:26:19Z</time>
      </trkpt>
      <trkpt lat="45.49878" lon="4.82946">
        <ele>157.79</ele>
        <time>2013-09-27T11:26:22Z</time>
      </trkpt>
      <trkpt lat="45.49892" lon="4.8297">
        <ele>158.27</ele>
        <time>2013-09-27T11:26:25Z</time>
      </trkpt>
      <trkpt lat="45.49907" lon="4.82995">
        <ele>158.75</ele>
        <time>2013-09-27T11:26:28Z</time>
      </trkpt>
      <trkpt lat="45.49923" lon="4.83021">
        <ele>158.27</ele>
        <time>2013-09-27T11:26:31Z</time>
      </trkpt>
      <trkpt lat="45.49937" lon="4.83046">
        <ele>157.79</ele>
        <time>2013-09-27T11:26:34Z</time>
      </trkpt>
      <trkpt lat="45.49952" lon="4.83072">
        <ele>157.31</ele>
        <time>2013-09-27T11:26:37Z</time>
      </trkpt>
      <trkpt lat="45.49966" lon="4.83101">
        <ele>157.31</ele>
        <time>2013-09-27T11:26:40Z</time>
      </trkpt>
      <trkpt lat="45.49979" lon="4.83129">
        <ele>156.83</ele>
        <time>2013-09-27T11:26:43Z</time>
      </trkpt>
      <trkpt lat="45.49991" lon="4.83157">
        <ele>156.83</ele>
        <time>2013-09-27T11:26:46Z</time>
      </trkpt>
      <trkpt lat="45.50002" lon="4.83186">
        <ele>157.31</ele>
        <time>2013-09-27T11:26:49Z</time>
      </trkpt>
      <trkpt lat="45.50013" lon="4.83214">
        <ele>153.47</ele>
        <time>2013-09-27T11:26:52Z</time>
      </trkpt>
      <trkpt lat="45.50023" lon="4.83243">
        <ele>157.31</ele>
        <time>2013-09-27T11:26:55Z</time>
      </trkpt>
      <trkpt lat="45.50031" lon="4.83271">
        <ele>157.79</ele>
        <time>2013-09-27T11:26:58Z</time>
      </trkpt>
      <trkpt lat="45.50039" lon="4.83301">
        <ele>157.79</ele>
        <time>2013-09-27T11:27:01Z</time>
      </trkpt>
      <trkpt lat="45.50046" lon="4.83331">
        <ele>157.31</ele>
        <time>2013-09-27T11:27:04Z</time>
      </trkpt>
      <trkpt lat="45.50055" lon="4.83362">
        <ele>157.31</ele>
        <time>2013-09-27T11:27:07Z</time>
      </trkpt>
      <trkpt lat="45.50064" lon="4.83393">
        <ele>157.31</ele>
        <time>2013-09-27T11:27:10Z</time>
      </trkpt>
      <trkpt lat="45.50072" lon="4.83423">
        <ele>157.79</ele>
        <time>2013-09-27T11:27:13Z</time>
      </trkpt>
      <trkpt lat="45.50079" lon="4.83455">
        <ele>158.27</ele>
        <time>2013-09-27T11:27:16Z</time>
      </trkpt>
      <trkpt lat="45.50087" lon="4.83488">
        <ele>157.79</ele>
        <time>2013-09-27T11:27:19Z</time>
      </trkpt>
      <trkpt lat="45.50094" lon="4.8352">
        <ele>158.27</ele>
        <time>2013-09-27T11:27:22Z</time>
      </trkpt>
      <trkpt lat="45.50102" lon="4.83551">
        <ele>157.79</ele>
        <time>2013-09-27T11:27:25Z</time>
      </trkpt>
      <trkpt lat="45.5011" lon="4.83582">
        <ele>158.27</ele>
        <time>2013-09-27T11:27:28Z</time>
      </trkpt>
      <trkpt lat="45.50118" lon="4.83612">
        <ele>158.27</ele>
        <time>2013-09-27T11:27:31Z</time>
      </trkpt>
      <trkpt lat="45.50125" lon="4.83643">
        <ele>158.27</ele>
        <time>2013-09-27T11:27:34Z</time>
      </trkpt>
      <trkpt lat="45.50134" lon="4.83675">
        <ele>158.27</ele>
        <time>2013-09-27T11:27:37Z</time>
      </trkpt>
      <trkpt lat="45.50143" lon="4.83706">
        <ele>158.27</ele>
        <time>2013-09-27T11:27:40Z</time>
      </trkpt>
      <trkpt lat="45.50151" lon="4.83735">
        <ele>158.75</ele>
        <time>2013-09-27T11:27:43Z</time>
      </trkpt>
      <trkpt lat="45.50161" lon="4.83763">
        <ele>158.75</ele>
        <time>2013-09-27T11:27:46Z</time>
      </trkpt>
      <trkpt lat="45.50172" lon="4.83787">
        <ele>159.24</ele>
        <time>2013-09-27T11:27:49Z</time>
      </trkpt>
      <trkpt lat="45.50182" lon="4.83809">
        <ele>159.24</ele>
        <time>2013-09-27T11:27:52Z</time>
      </trkpt>
      <trkpt lat="45.50186" lon="4.8384">
        <ele>159.72</ele>
        <time>2013-09-27T11:27:56Z</time>
      </trkpt>
      <trkpt lat="45.50176" lon="4.83866">
        <ele>159.72</ele>
        <time>2013-09-27T11:28:00Z</time>
      </trkpt>
      <trkpt lat="45.50158" lon="4.83866">
        <ele>160.2</ele>
        <time>2013-09-27T11:28:08Z</time>
      </trkpt>
      <trkpt lat="45.50153" lon="4.83894">
        <ele>160.68</ele>
        <time>2013-09-27T11:28:13Z</time>
      </trkpt>
      <trkpt lat="45.50163" lon="4.83919">
        <ele>161.16</ele>
        <time>2013-09-27T11:28:17Z</time>
      </trkpt>
      <trkpt lat="45.50175" lon="4.83943">
        <ele>160.68</ele>
        <time>2013-09-27T11:28:21Z</time>
      </trkpt>
      <trkpt lat="45.50188" lon="4.83968">
        <ele>161.16</ele>
        <time>2013-09-27T11:28:25Z</time>
      </trkpt>
      <trkpt lat="45.50203" lon="4.83996">
        <ele>160.68</ele>
        <time>2013-09-27T11:28:29Z</time>
      </trkpt>
      <trkpt lat="45.50216" lon="4.84017">
        <ele>161.64</ele>
        <time>2013-09-27T11:28:32Z</time>
      </trkpt>
      <trkpt lat="45.50229" lon="4.84038">
        <ele>161.16</ele>
        <time>2013-09-27T11:28:35Z</time>
      </trkpt>
      <trkpt lat="45.50242" lon="4.8406">
        <ele>161.16</ele>
        <time>2013-09-27T11:28:38Z</time>
      </trkpt>
      <trkpt lat="45.50256" lon="4.8408">
        <ele>160.68</ele>
        <time>2013-09-27T11:28:41Z</time>
      </trkpt>
      <trkpt lat="45.50272" lon="4.84099">
        <ele>160.68</ele>
        <time>2013-09-27T11:28:44Z</time>
      </trkpt>
      <trkpt lat="45.50288" lon="4.8412">
        <ele>161.64</ele>
        <time>2013-09-27T11:28:47Z</time>
      </trkpt>
      <trkpt lat="45.50306" lon="4.84141">
        <ele>161.64</ele>
        <time>2013-09-27T11:28:50Z</time>
      </trkpt>
      <trkpt lat="45.50326" lon="4.84165">
        <ele>161.16</ele>
        <time>2013-09-27T11:28:53Z</time>
      </trkpt>
      <trkpt lat="45.50346" lon="4.84189">
        <ele>161.16</ele>
        <time>2013-09-27T11:28:56Z</time>
      </trkpt>
      <trkpt lat="45.50368" lon="4.84212">
        <ele>160.68</ele>
        <time>2013-09-27T11:28:59Z</time>
      </trkpt>
      <trkpt lat="45.50382" lon="4.84229">
        <ele>161.16</ele>
        <time>2013-09-27T11:29:01Z</time>
      </trkpt>
      <trkpt lat="45.50397" lon="4.84246">
        <ele>161.16</ele>
        <time>2013-09-27T11:29:03Z</time>
      </trkpt>
      <trkpt lat="45.50412" lon="4.84263">
        <ele>161.64</ele>
        <time>2013-09-27T11:29:05Z</time>
      </trkpt>
      <trkpt lat="45.50427" lon="4.84281">
        <ele>161.16</ele>
        <time>2013-09-27T11:29:07Z</time>
      </trkpt>
      <trkpt lat="45.50442" lon="4.84299">
        <ele>161.16</ele>
        <time>2013-09-27T11:29:09Z</time>
      </trkpt>
      <trkpt lat="45.50458" lon="4.84317">
        <ele>161.16</ele>
        <time>2013-09-27T11:29:11Z</time>
      </trkpt>
      <trkpt lat="45.50474" lon="4.84336">
        <ele>161.16</ele>
        <time>2013-09-27T11:29:13Z</time>
      </trkpt>
      <trkpt lat="45.5049" lon="4.84355">
        <ele>161.16</ele>
        <time>2013-09-27T11:29:15Z</time>
      </trkpt>
      <trkpt lat="45.50506" lon="4.84375">
        <ele>161.64</ele>
        <time>2013-09-27T11:29:17Z</time>
      </trkpt>
      <trkpt lat="45.50522" lon="4.84396">
        <ele>160.68</ele>
        <time>2013-09-27T11:29:19Z</time>
      </trkpt>
      <trkpt lat="45.50539" lon="4.84418">
        <ele>161.16</ele>
        <time>2013-09-27T11:29:21Z</time>
      </trkpt>
      <trkpt lat="45.50556" lon="4.8444">
        <ele>161.64</ele>
        <time>2013-09-27T11:29:23Z</time>
      </trkpt>
      <trkpt lat="45.50573" lon="4.84462">
        <ele>162.12</ele>
        <time>2013-09-27T11:29:25Z</time>
      </trkpt>
      <trkpt lat="45.50591" lon="4.84486">
        <ele>161.64</ele>
        <time>2013-09-27T11:29:27Z</time>
      </trkpt>
      <trkpt lat="45.50608" lon="4.84509">
        <ele>162.12</ele>
        <time>2013-09-27T11:29:29Z</time>
      </trkpt>
      <trkpt lat="45.50625" lon="4.84532">
        <ele>162.6</ele>
        <time>2013-09-27T11:29:31Z</time>
      </trkpt>
      <trkpt lat="45.50641" lon="4.84555">
        <ele>162.12</ele>
        <time>2013-09-27T11:29:33Z</time>
      </trkpt>
      <trkpt lat="45.50658" lon="4.84576">
        <ele>162.12</ele>
        <time>2013-09-27T11:29:35Z</time>
      </trkpt>
      <trkpt lat="45.50672" lon="4.84597">
        <ele>161.64</ele>
        <time>2013-09-27T11:29:37Z</time>
      </trkpt>
      <trkpt lat="45.50686" lon="4.84618">
        <ele>161.64</ele>
        <time>2013-09-27T11:29:39Z</time>
      </trkpt>
      <trkpt lat="45.507" lon="4.84637">
        <ele>161.64</ele>
        <time>2013-09-27T11:29:41Z</time>
      </trkpt>
      <trkpt lat="45.50714" lon="4.84655">
        <ele>161.16</ele>
        <time>2013-09-27T11:29:43Z</time>
      </trkpt>
      <trkpt lat="45.50734" lon="4.84681">
        <ele>161.16</ele>
        <time>2013-09-27T11:29:46Z</time>
      </trkpt>
      <trkpt lat="45.50747" lon="4.847">
        <ele>161.16</ele>
        <time>2013-09-27T11:29:48Z</time>
      </trkpt>
      <trkpt lat="45.5076" lon="4.84718">
        <ele>161.64</ele>
        <time>2013-09-27T11:29:50Z</time>
      </trkpt>
      <trkpt lat="45.50774" lon="4.84736">
        <ele>162.12</ele>
        <time>2013-09-27T11:29:52Z</time>
      </trkpt>
      <trkpt lat="45.50787" lon="4.84755">
        <ele>162.12</ele>
        <time>2013-09-27T11:29:54Z</time>
      </trkpt>
      <trkpt lat="45.508" lon="4.84773">
        <ele>161.16</ele>
        <time>2013-09-27T11:29:56Z</time>
      </trkpt>
      <trkpt lat="45.50819" lon="4.84799">
        <ele>162.12</ele>
        <time>2013-09-27T11:29:59Z</time>
      </trkpt>
      <trkpt lat="45.50838" lon="4.84826">
        <ele>161.16</ele>
        <time>2013-09-27T11:30:02Z</time>
      </trkpt>
      <trkpt lat="45.50857" lon="4.84852">
        <ele>161.16</ele>
        <time>2013-09-27T11:30:05Z</time>
      </trkpt>
      <trkpt lat="45.50876" lon="4.84877">
        <ele>161.16</ele>
        <time>2013-09-27T11:30:08Z</time>
      </trkpt>
      <trkpt lat="45.50894" lon="4.84904">
        <ele>161.64</ele>
        <time>2013-09-27T11:30:11Z</time>
      </trkpt>
      <trkpt lat="45.50914" lon="4.84929">
        <ele>162.12</ele>
        <time>2013-09-27T11:30:14Z</time>
      </trkpt>
      <trkpt lat="45.50933" lon="4.84954">
        <ele>161.16</ele>
        <time>2013-09-27T11:30:17Z</time>
      </trkpt>
      <trkpt lat="45.50952" lon="4.84979">
        <ele>161.16</ele>
        <time>2013-09-27T11:30:20Z</time>
      </trkpt>
      <trkpt lat="45.50972" lon="4.85004">
        <ele>161.64</ele>
        <time>2013-09-27T11:30:23Z</time>
      </trkpt>
      <trkpt lat="45.50991" lon="4.8503">
        <ele>161.16</ele>
        <time>2013-09-27T11:30:26Z</time>
      </trkpt>
      <trkpt lat="45.51011" lon="4.85056">
        <ele>161.16</ele>
        <time>2013-09-27T11:30:29Z</time>
      </trkpt>
      <trkpt lat="45.51025" lon="4.85074">
        <ele>161.16</ele>
        <time>2013-09-27T11:30:31Z</time>
      </trkpt>
      <trkpt lat="45.51038" lon="4.85091">
        <ele>161.16</ele>
        <time>2013-09-27T11:30:33Z</time>
      </trkpt>
      <trkpt lat="45.51052" lon="4.85109">
        <ele>160.68</ele>
        <time>2013-09-27T11:30:35Z</time>
      </trkpt>
      <trkpt lat="45.51065" lon="4.85127">
        <ele>160.68</ele>
        <time>2013-09-27T11:30:37Z</time>
      </trkpt>
      <trkpt lat="45.51078" lon="4.85145">
        <ele>160.68</ele>
        <time>2013-09-27T11:30:39Z</time>
      </trkpt>
      <trkpt lat="45.51097" lon="4.8517">
        <ele>161.64</ele>
        <time>2013-09-27T11:30:42Z</time>
      </trkpt>
      <trkpt lat="45.51117" lon="4.85195">
        <ele>160.2</ele>
        <time>2013-09-27T11:30:45Z</time>
      </trkpt>
      <trkpt lat="45.51136" lon="4.8522">
        <ele>161.16</ele>
        <time>2013-09-27T11:30:48Z</time>
      </trkpt>
      <trkpt lat="45.51155" lon="4.85243">
        <ele>160.68</ele>
        <time>2013-09-27T11:30:51Z</time>
      </trkpt>
      <trkpt lat="45.51173" lon="4.85266">
        <ele>160.2</ele>
        <time>2013-09-27T11:30:54Z</time>
      </trkpt>
      <trkpt lat="45.51191" lon="4.85289">
        <ele>160.2</ele>
        <time>2013-09-27T11:30:57Z</time>
      </trkpt>
      <trkpt lat="45.51207" lon="4.85309">
        <ele>160.68</ele>
        <time>2013-09-27T11:31:00Z</time>
      </trkpt>
      <trkpt lat="45.51224" lon="4.85327">
        <ele>160.2</ele>
        <time>2013-09-27T11:31:04Z</time>
      </trkpt>
      <trkpt lat="45.51237" lon="4.85345">
        <ele>160.2</ele>
        <time>2013-09-27T11:31:09Z</time>
      </trkpt>
      <trkpt lat="45.51255" lon="4.85342">
        <ele>160.2</ele>
        <time>2013-09-27T11:31:16Z</time>
      </trkpt>
      <trkpt lat="45.5127" lon="4.85328">
        <ele>160.2</ele>
        <time>2013-09-27T11:31:24Z</time>
      </trkpt>
      <trkpt lat="45.51273" lon="4.85327">
        <ele>160.2</ele>
        <time>2013-09-27T11:31:37Z</time>
      </trkpt>
      <trkpt lat="45.51252" lon="4.85326">
        <ele>159.72</ele>
        <time>2013-09-27T11:32:29Z</time>
      </trkpt>
      <trkpt lat="45.51244" lon="4.85306">
        <ele>159.72</ele>
        <time>2013-09-27T11:32:44Z</time>
      </trkpt>
      <trkpt lat="45.51242" lon="4.85313">
        <ele>163.08</ele>
        <time>2013-09-27T11:47:02Z</time>
      </trkpt>
      <trkpt lat="45.51235" lon="4.8534">
        <ele>163.56</ele>
        <time>2013-09-27T11:47:13Z</time>
      </trkpt>
      <trkpt lat="45.51304" lon="4.85347">
        <ele>164.52</ele>
        <time>2013-09-27T11:47:26Z</time>
      </trkpt>
      <trkpt lat="45.51317" lon="4.85376">
        <ele>164.04</ele>
        <time>2013-09-27T11:47:29Z</time>
      </trkpt>
      <trkpt lat="45.51332" lon="4.85405">
        <ele>164.04</ele>
        <time>2013-09-27T11:47:32Z</time>
      </trkpt>
      <trkpt lat="45.51345" lon="4.85433">
        <ele>164.04</ele>
        <time>2013-09-27T11:47:35Z</time>
      </trkpt>
      <trkpt lat="45.51356" lon="4.85459">
        <ele>164.04</ele>
        <time>2013-09-27T11:47:38Z</time>
      </trkpt>
      <trkpt lat="45.51369" lon="4.85487">
        <ele>163.56</ele>
        <time>2013-09-27T11:47:41Z</time>
      </trkpt>
      <trkpt lat="45.51378" lon="4.85513">
        <ele>164.04</ele>
        <time>2013-09-27T11:47:44Z</time>
      </trkpt>
      <trkpt lat="45.51389" lon="4.85538">
        <ele>163.08</ele>
        <time>2013-09-27T11:47:47Z</time>
      </trkpt>
      <trkpt lat="45.514" lon="4.85563">
        <ele>163.08</ele>
        <time>2013-09-27T11:47:50Z</time>
      </trkpt>
      <trkpt lat="45.5141" lon="4.85587">
        <ele>163.56</ele>
        <time>2013-09-27T11:47:53Z</time>
      </trkpt>
      <trkpt lat="45.51422" lon="4.8561">
        <ele>162.6</ele>
        <time>2013-09-27T11:47:56Z</time>
      </trkpt>
      <trkpt lat="45.51434" lon="4.8563">
        <ele>162.6</ele>
        <time>2013-09-27T11:47:59Z</time>
      </trkpt>
      <trkpt lat="45.51447" lon="4.85649">
        <ele>162.6</ele>
        <time>2013-09-27T11:48:02Z</time>
      </trkpt>
      <trkpt lat="45.5146" lon="4.85667">
        <ele>163.08</ele>
        <time>2013-09-27T11:48:05Z</time>
      </trkpt>
      <trkpt lat="45.51474" lon="4.85685">
        <ele>162.6</ele>
        <time>2013-09-27T11:48:08Z</time>
      </trkpt>
      <trkpt lat="45.51487" lon="4.85703">
        <ele>163.08</ele>
        <time>2013-09-27T11:48:11Z</time>
      </trkpt>
      <trkpt lat="45.51502" lon="4.85721">
        <ele>162.6</ele>
        <time>2013-09-27T11:48:14Z</time>
      </trkpt>
      <trkpt lat="45.51517" lon="4.85739">
        <ele>163.08</ele>
        <time>2013-09-27T11:48:17Z</time>
      </trkpt>
      <trkpt lat="45.51531" lon="4.85757">
        <ele>163.08</ele>
        <time>2013-09-27T11:48:20Z</time>
      </trkpt>
      <trkpt lat="45.51546" lon="4.85775">
        <ele>162.6</ele>
        <time>2013-09-27T11:48:23Z</time>
      </trkpt>
      <trkpt lat="45.51561" lon="4.85794">
        <ele>163.56</ele>
        <time>2013-09-27T11:48:26Z</time>
      </trkpt>
      <trkpt lat="45.51576" lon="4.85813">
        <ele>163.56</ele>
        <time>2013-09-27T11:48:29Z</time>
      </trkpt>
      <trkpt lat="45.51593" lon="4.85835">
        <ele>163.08</ele>
        <time>2013-09-27T11:48:32Z</time>
      </trkpt>
      <trkpt lat="45.51612" lon="4.85859">
        <ele>163.08</ele>
        <time>2013-09-27T11:48:35Z</time>
      </trkpt>
      <trkpt lat="45.51631" lon="4.85882">
        <ele>163.08</ele>
        <time>2013-09-27T11:48:38Z</time>
      </trkpt>
      <trkpt lat="45.51651" lon="4.85906">
        <ele>162.6</ele>
        <time>2013-09-27T11:48:41Z</time>
      </trkpt>
      <trkpt lat="45.51669" lon="4.85931">
        <ele>163.08</ele>
        <time>2013-09-27T11:48:44Z</time>
      </trkpt>
      <trkpt lat="45.51688" lon="4.85956">
        <ele>163.08</ele>
        <time>2013-09-27T11:48:47Z</time>
      </trkpt>
      <trkpt lat="45.51708" lon="4.85981">
        <ele>163.56</ele>
        <time>2013-09-27T11:48:50Z</time>
      </trkpt>
      <trkpt lat="45.51729" lon="4.86006">
        <ele>163.08</ele>
        <time>2013-09-27T11:48:53Z</time>
      </trkpt>
      <trkpt lat="45.51748" lon="4.86031">
        <ele>163.08</ele>
        <time>2013-09-27T11:48:56Z</time>
      </trkpt>
      <trkpt lat="45.51768" lon="4.86056">
        <ele>163.08</ele>
        <time>2013-09-27T11:48:59Z</time>
      </trkpt>
      <trkpt lat="45.51782" lon="4.86072">
        <ele>162.6</ele>
        <time>2013-09-27T11:49:01Z</time>
      </trkpt>
      <trkpt lat="45.51797" lon="4.86088">
        <ele>162.6</ele>
        <time>2013-09-27T11:49:03Z</time>
      </trkpt>
      <trkpt lat="45.51811" lon="4.86103">
        <ele>163.08</ele>
        <time>2013-09-27T11:49:05Z</time>
      </trkpt>
      <trkpt lat="45.51826" lon="4.86118">
        <ele>163.08</ele>
        <time>2013-09-27T11:49:07Z</time>
      </trkpt>
      <trkpt lat="45.51841" lon="4.86134">
        <ele>162.6</ele>
        <time>2013-09-27T11:49:09Z</time>
      </trkpt>
      <trkpt lat="45.51856" lon="4.8615">
        <ele>162.12</ele>
        <time>2013-09-27T11:49:11Z</time>
      </trkpt>
      <trkpt lat="45.51878" lon="4.86172">
        <ele>162.6</ele>
        <time>2013-09-27T11:49:14Z</time>
      </trkpt>
      <trkpt lat="45.51899" lon="4.86195">
        <ele>162.6</ele>
        <time>2013-09-27T11:49:17Z</time>
      </trkpt>
      <trkpt lat="45.51921" lon="4.86218">
        <ele>162.6</ele>
        <time>2013-09-27T11:49:20Z</time>
      </trkpt>
      <trkpt lat="45.51936" lon="4.86233">
        <ele>162.6</ele>
        <time>2013-09-27T11:49:22Z</time>
      </trkpt>
      <trkpt lat="45.5195" lon="4.86249">
        <ele>162.6</ele>
        <time>2013-09-27T11:49:24Z</time>
      </trkpt>
      <trkpt lat="45.51965" lon="4.86264">
        <ele>162.6</ele>
        <time>2013-09-27T11:49:26Z</time>
      </trkpt>
      <trkpt lat="45.51979" lon="4.8628">
        <ele>163.08</ele>
        <time>2013-09-27T11:49:28Z</time>
      </trkpt>
      <trkpt lat="45.52001" lon="4.86303">
        <ele>163.56</ele>
        <time>2013-09-27T11:49:31Z</time>
      </trkpt>
      <trkpt lat="45.52016" lon="4.86319">
        <ele>163.56</ele>
        <time>2013-09-27T11:49:33Z</time>
      </trkpt>
      <trkpt lat="45.52037" lon="4.86343">
        <ele>163.56</ele>
        <time>2013-09-27T11:49:36Z</time>
      </trkpt>
      <trkpt lat="45.52057" lon="4.86367">
        <ele>163.08</ele>
        <time>2013-09-27T11:49:39Z</time>
      </trkpt>
      <trkpt lat="45.52078" lon="4.8639">
        <ele>163.56</ele>
        <time>2013-09-27T11:49:42Z</time>
      </trkpt>
      <trkpt lat="45.52098" lon="4.86415">
        <ele>163.56</ele>
        <time>2013-09-27T11:49:45Z</time>
      </trkpt>
      <trkpt lat="45.52119" lon="4.86439">
        <ele>163.56</ele>
        <time>2013-09-27T11:49:48Z</time>
      </trkpt>
      <trkpt lat="45.52135" lon="4.86456">
        <ele>163.56</ele>
        <time>2013-09-27T11:49:50Z</time>
      </trkpt>
      <trkpt lat="45.52151" lon="4.86474">
        <ele>163.56</ele>
        <time>2013-09-27T11:49:52Z</time>
      </trkpt>
      <trkpt lat="45.52167" lon="4.86492">
        <ele>163.08</ele>
        <time>2013-09-27T11:49:54Z</time>
      </trkpt>
      <trkpt lat="45.52182" lon="4.86509">
        <ele>163.08</ele>
        <time>2013-09-27T11:49:56Z</time>
      </trkpt>
      <trkpt lat="45.52197" lon="4.86527">
        <ele>163.08</ele>
        <time>2013-09-27T11:49:58Z</time>
      </trkpt>
      <trkpt lat="45.52212" lon="4.86544">
        <ele>163.08</ele>
        <time>2013-09-27T11:50:00Z</time>
      </trkpt>
      <trkpt lat="45.52227" lon="4.86561">
        <ele>163.08</ele>
        <time>2013-09-27T11:50:02Z</time>
      </trkpt>
      <trkpt lat="45.52241" lon="4.86578">
        <ele>163.56</ele>
        <time>2013-09-27T11:50:04Z</time>
      </trkpt>
      <trkpt lat="45.52255" lon="4.86594">
        <ele>163.08</ele>
        <time>2013-09-27T11:50:06Z</time>
      </trkpt>
      <trkpt lat="45.52269" lon="4.86611">
        <ele>163.56</ele>
        <time>2013-09-27T11:50:08Z</time>
      </trkpt>
      <trkpt lat="45.52288" lon="4.86637">
        <ele>163.56</ele>
        <time>2013-09-27T11:50:11Z</time>
      </trkpt>
      <trkpt lat="45.52306" lon="4.86665">
        <ele>162.6</ele>
        <time>2013-09-27T11:50:14Z</time>
      </trkpt>
      <trkpt lat="45.52324" lon="4.86692">
        <ele>163.08</ele>
        <time>2013-09-27T11:50:17Z</time>
      </trkpt>
      <trkpt lat="45.52337" lon="4.8671">
        <ele>163.56</ele>
        <time>2013-09-27T11:50:19Z</time>
      </trkpt>
      <trkpt lat="45.52356" lon="4.86735">
        <ele>163.08</ele>
        <time>2013-09-27T11:50:22Z</time>
      </trkpt>
      <trkpt lat="45.52375" lon="4.8676">
        <ele>163.56</ele>
        <time>2013-09-27T11:50:25Z</time>
      </trkpt>
      <trkpt lat="45.52395" lon="4.86785">
        <ele>163.08</ele>
        <time>2013-09-27T11:50:28Z</time>
      </trkpt>
      <trkpt lat="45.52415" lon="4.86808">
        <ele>163.08</ele>
        <time>2013-09-27T11:50:31Z</time>
      </trkpt>
      <trkpt lat="45.52436" lon="4.86826">
        <ele>163.08</ele>
        <time>2013-09-27T11:50:34Z</time>
      </trkpt>
      <trkpt lat="45.52454" lon="4.86835">
        <ele>163.08</ele>
        <time>2013-09-27T11:50:37Z</time>
      </trkpt>
      <trkpt lat="45.52474" lon="4.86839">
        <ele>162.6</ele>
        <time>2013-09-27T11:50:41Z</time>
      </trkpt>
      <trkpt lat="45.52459" lon="4.86848">
        <ele>162.6</ele>
        <time>2013-09-27T11:51:15Z</time>
      </trkpt>
      <trkpt lat="45.5248" lon="4.86858">
        <ele>162.6</ele>
        <time>2013-09-27T11:51:23Z</time>
      </trkpt>
      <trkpt lat="45.52499" lon="4.86871">
        <ele>162.6</ele>
        <time>2013-09-27T11:51:27Z</time>
      </trkpt>
      <trkpt lat="45.52521" lon="4.86889">
        <ele>162.6</ele>
        <time>2013-09-27T11:51:31Z</time>
      </trkpt>
      <trkpt lat="45.52539" lon="4.86903">
        <ele>162.6</ele>
        <time>2013-09-27T11:51:34Z</time>
      </trkpt>
      <trkpt lat="45.52558" lon="4.86916">
        <ele>163.56</ele>
        <time>2013-09-27T11:51:37Z</time>
      </trkpt>
      <trkpt lat="45.52578" lon="4.86929">
        <ele>163.56</ele>
        <time>2013-09-27T11:51:40Z</time>
      </trkpt>
      <trkpt lat="45.52597" lon="4.86945">
        <ele>163.56</ele>
        <time>2013-09-27T11:51:43Z</time>
      </trkpt>
      <trkpt lat="45.52617" lon="4.8696">
        <ele>163.08</ele>
        <time>2013-09-27T11:51:46Z</time>
      </trkpt>
      <trkpt lat="45.52635" lon="4.86974">
        <ele>162.6</ele>
        <time>2013-09-27T11:51:49Z</time>
      </trkpt>
      <trkpt lat="45.52651" lon="4.86989">
        <ele>163.56</ele>
        <time>2013-09-27T11:51:52Z</time>
      </trkpt>
      <trkpt lat="45.52668" lon="4.87001">
        <ele>163.56</ele>
        <time>2013-09-27T11:51:55Z</time>
      </trkpt>
      <trkpt lat="45.52684" lon="4.87012">
        <ele>163.08</ele>
        <time>2013-09-27T11:51:58Z</time>
      </trkpt>
      <trkpt lat="45.52701" lon="4.87024">
        <ele>163.08</ele>
        <time>2013-09-27T11:52:01Z</time>
      </trkpt>
      <trkpt lat="45.52723" lon="4.87037">
        <ele>163.08</ele>
        <time>2013-09-27T11:52:05Z</time>
      </trkpt>
      <trkpt lat="45.52744" lon="4.87051">
        <ele>163.08</ele>
        <time>2013-09-27T11:52:09Z</time>
      </trkpt>
      <trkpt lat="45.52765" lon="4.87064">
        <ele>163.56</ele>
        <time>2013-09-27T11:52:13Z</time>
      </trkpt>
      <trkpt lat="45.52785" lon="4.87077">
        <ele>163.08</ele>
        <time>2013-09-27T11:52:17Z</time>
      </trkpt>
      <trkpt lat="45.52802" lon="4.87086">
        <ele>163.08</ele>
        <time>2013-09-27T11:52:22Z</time>
      </trkpt>
      <trkpt lat="45.52819" lon="4.87098">
        <ele>162.6</ele>
        <time>2013-09-27T11:52:29Z</time>
      </trkpt>
      <trkpt lat="45.52837" lon="4.87111">
        <ele>162.12</ele>
        <time>2013-09-27T11:52:35Z</time>
      </trkpt>
      <trkpt lat="45.52854" lon="4.87121">
        <ele>162.6</ele>
        <time>2013-09-27T11:52:41Z</time>
      </trkpt>
      <trkpt lat="45.52872" lon="4.87131">
        <ele>163.08</ele>
        <time>2013-09-27T11:52:49Z</time>
      </trkpt>
      <trkpt lat="45.52892" lon="4.87139">
        <ele>162.6</ele>
        <time>2013-09-27T11:52:57Z</time>
      </trkpt>
      <trkpt lat="45.52912" lon="4.8714">
        <ele>162.6</ele>
        <time>2013-09-27T11:53:04Z</time>
      </trkpt>
      <trkpt lat="45.52929" lon="4.87141">
        <ele>163.08</ele>
        <time>2013-09-27T11:53:18Z</time>
      </trkpt>
      <trkpt lat="45.52949" lon="4.87147">
        <ele>163.08</ele>
        <time>2013-09-27T11:53:22Z</time>
      </trkpt>
      <trkpt lat="45.52968" lon="4.8715">
        <ele>163.08</ele>
        <time>2013-09-27T11:53:25Z</time>
      </trkpt>
      <trkpt lat="45.52991" lon="4.87154">
        <ele>163.56</ele>
        <time>2013-09-27T11:53:28Z</time>
      </trkpt>
      <trkpt lat="45.53014" lon="4.87161">
        <ele>164.04</ele>
        <time>2013-09-27T11:53:31Z</time>
      </trkpt>
      <trkpt lat="45.53037" lon="4.87167">
        <ele>163.08</ele>
        <time>2013-09-27T11:53:34Z</time>
      </trkpt>
      <trkpt lat="45.53062" lon="4.8717">
        <ele>163.08</ele>
        <time>2013-09-27T11:53:37Z</time>
      </trkpt>
      <trkpt lat="45.53085" lon="4.8717">
        <ele>163.08</ele>
        <time>2013-09-27T11:53:40Z</time>
      </trkpt>
      <trkpt lat="45.53106" lon="4.8717">
        <ele>163.08</ele>
        <time>2013-09-27T11:53:43Z</time>
      </trkpt>
      <trkpt lat="45.53128" lon="4.87164">
        <ele>163.08</ele>
        <time>2013-09-27T11:53:46Z</time>
      </trkpt>
      <trkpt lat="45.53149" lon="4.87153">
        <ele>163.08</ele>
        <time>2013-09-27T11:53:49Z</time>
      </trkpt>
      <trkpt lat="45.53167" lon="4.87141">
        <ele>163.08</ele>
        <time>2013-09-27T11:53:52Z</time>
      </trkpt>
      <trkpt lat="45.53186" lon="4.87126">
        <ele>163.08</ele>
        <time>2013-09-27T11:53:55Z</time>
      </trkpt>
      <trkpt lat="45.53203" lon="4.87111">
        <ele>163.56</ele>
        <time>2013-09-27T11:53:58Z</time>
      </trkpt>
      <trkpt lat="45.5322" lon="4.87096">
        <ele>163.08</ele>
        <time>2013-09-27T11:54:01Z</time>
      </trkpt>
      <trkpt lat="45.53236" lon="4.8708">
        <ele>163.56</ele>
        <time>2013-09-27T11:54:04Z</time>
      </trkpt>
      <trkpt lat="45.53254" lon="4.87065">
        <ele>163.08</ele>
        <time>2013-09-27T11:54:07Z</time>
      </trkpt>
      <trkpt lat="45.53272" lon="4.8705">
        <ele>163.08</ele>
        <time>2013-09-27T11:54:10Z</time>
      </trkpt>
      <trkpt lat="45.5329" lon="4.87037">
        <ele>163.08</ele>
        <time>2013-09-27T11:54:13Z</time>
      </trkpt>
      <trkpt lat="45.53308" lon="4.87023">
        <ele>163.56</ele>
        <time>2013-09-27T11:54:16Z</time>
      </trkpt>
      <trkpt lat="45.53324" lon="4.87006">
        <ele>163.56</ele>
        <time>2013-09-27T11:54:19Z</time>
      </trkpt>
      <trkpt lat="45.53339" lon="4.86987">
        <ele>164.04</ele>
        <time>2013-09-27T11:54:22Z</time>
      </trkpt>
      <trkpt lat="45.53355" lon="4.86968">
        <ele>163.56</ele>
        <time>2013-09-27T11:54:25Z</time>
      </trkpt>
      <trkpt lat="45.53369" lon="4.86949">
        <ele>164.04</ele>
        <time>2013-09-27T11:54:28Z</time>
      </trkpt>
      <trkpt lat="45.53383" lon="4.86929">
        <ele>164.04</ele>
        <time>2013-09-27T11:54:31Z</time>
      </trkpt>
      <trkpt lat="45.53398" lon="4.86908">
        <ele>164.04</ele>
        <time>2013-09-27T11:54:34Z</time>
      </trkpt>
      <trkpt lat="45.53414" lon="4.86886">
        <ele>164.52</ele>
        <time>2013-09-27T11:54:37Z</time>
      </trkpt>
      <trkpt lat="45.53429" lon="4.86865">
        <ele>164.04</ele>
        <time>2013-09-27T11:54:40Z</time>
      </trkpt>
      <trkpt lat="45.53444" lon="4.86843">
        <ele>164.52</ele>
        <time>2013-09-27T11:54:43Z</time>
      </trkpt>
      <trkpt lat="45.53459" lon="4.86822">
        <ele>164.04</ele>
        <time>2013-09-27T11:54:46Z</time>
      </trkpt>
      <trkpt lat="45.53474" lon="4.86801">
        <ele>164.04</ele>
        <time>2013-09-27T11:54:49Z</time>
      </trkpt>
      <trkpt lat="45.53488" lon="4.86778">
        <ele>164.52</ele>
        <time>2013-09-27T11:54:52Z</time>
      </trkpt>
      <trkpt lat="45.535" lon="4.86754">
        <ele>163.56</ele>
        <time>2013-09-27T11:54:55Z</time>
      </trkpt>
      <trkpt lat="45.53511" lon="4.86729">
        <ele>164.52</ele>
        <time>2013-09-27T11:54:58Z</time>
      </trkpt>
      <trkpt lat="45.53523" lon="4.86704">
        <ele>164.04</ele>
        <time>2013-09-27T11:55:01Z</time>
      </trkpt>
      <trkpt lat="45.53534" lon="4.8668">
        <ele>164.04</ele>
        <time>2013-09-27T11:55:04Z</time>
      </trkpt>
      <trkpt lat="45.53544" lon="4.86656">
        <ele>163.56</ele>
        <time>2013-09-27T11:55:07Z</time>
      </trkpt>
      <trkpt lat="45.53556" lon="4.86631">
        <ele>163.56</ele>
        <time>2013-09-27T11:55:10Z</time>
      </trkpt>
      <trkpt lat="45.53567" lon="4.86606">
        <ele>164.04</ele>
        <time>2013-09-27T11:55:13Z</time>
      </trkpt>
      <trkpt lat="45.53578" lon="4.8658">
        <ele>164.04</ele>
        <time>2013-09-27T11:55:16Z</time>
      </trkpt>
      <trkpt lat="45.5359" lon="4.86554">
        <ele>164.52</ele>
        <time>2013-09-27T11:55:19Z</time>
      </trkpt>
      <trkpt lat="45.53601" lon="4.86528">
        <ele>164.52</ele>
        <time>2013-09-27T11:55:22Z</time>
      </trkpt>
      <trkpt lat="45.53611" lon="4.86501">
        <ele>164.52</ele>
        <time>2013-09-27T11:55:25Z</time>
      </trkpt>
      <trkpt lat="45.53618" lon="4.86473">
        <ele>164.04</ele>
        <time>2013-09-27T11:55:28Z</time>
      </trkpt>
      <trkpt lat="45.53625" lon="4.86444">
        <ele>164.52</ele>
        <time>2013-09-27T11:55:31Z</time>
      </trkpt>
      <trkpt lat="45.53633" lon="4.86416">
        <ele>164.04</ele>
        <time>2013-09-27T11:55:34Z</time>
      </trkpt>
      <trkpt lat="45.53641" lon="4.86386">
        <ele>164.52</ele>
        <time>2013-09-27T11:55:37Z</time>
      </trkpt>
      <trkpt lat="45.5365" lon="4.86357">
        <ele>164.52</ele>
        <time>2013-09-27T11:55:40Z</time>
      </trkpt>
      <trkpt lat="45.53659" lon="4.8633">
        <ele>164.52</ele>
        <time>2013-09-27T11:55:43Z</time>
      </trkpt>
      <trkpt lat="45.5367" lon="4.86303">
        <ele>165</ele>
        <time>2013-09-27T11:55:46Z</time>
      </trkpt>
      <trkpt lat="45.5368" lon="4.86276">
        <ele>164.52</ele>
        <time>2013-09-27T11:55:49Z</time>
      </trkpt>
      <trkpt lat="45.53691" lon="4.86248">
        <ele>164.52</ele>
        <time>2013-09-27T11:55:52Z</time>
      </trkpt>
      <trkpt lat="45.53701" lon="4.86222">
        <ele>164.04</ele>
        <time>2013-09-27T11:55:55Z</time>
      </trkpt>
      <trkpt lat="45.53711" lon="4.86195">
        <ele>164.52</ele>
        <time>2013-09-27T11:55:58Z</time>
      </trkpt>
      <trkpt lat="45.53721" lon="4.86168">
        <ele>164.04</ele>
        <time>2013-09-27T11:56:01Z</time>
      </trkpt>
      <trkpt lat="45.53729" lon="4.86139">
        <ele>165</ele>
        <time>2013-09-27T11:56:04Z</time>
      </trkpt>
      <trkpt lat="45.53736" lon="4.8611">
        <ele>164.04</ele>
        <time>2013-09-27T11:56:07Z</time>
      </trkpt>
      <trkpt lat="45.53744" lon="4.86081">
        <ele>164.52</ele>
        <time>2013-09-27T11:56:10Z</time>
      </trkpt>
      <trkpt lat="45.53749" lon="4.86051">
        <ele>164.04</ele>
        <time>2013-09-27T11:56:13Z</time>
      </trkpt>
      <trkpt lat="45.53754" lon="4.86021">
        <ele>164.52</ele>
        <time>2013-09-27T11:56:16Z</time>
      </trkpt>
      <trkpt lat="45.53758" lon="4.8599">
        <ele>164.04</ele>
        <time>2013-09-27T11:56:19Z</time>
      </trkpt>
      <trkpt lat="45.53762" lon="4.8596">
        <ele>164.04</ele>
        <time>2013-09-27T11:56:22Z</time>
      </trkpt>
      <trkpt lat="45.53767" lon="4.85929">
        <ele>164.52</ele>
        <time>2013-09-27T11:56:25Z</time>
      </trkpt>
      <trkpt lat="45.53772" lon="4.85898">
        <ele>164.04</ele>
        <time>2013-09-27T11:56:28Z</time>
      </trkpt>
      <trkpt lat="45.53776" lon="4.85868">
        <ele>163.56</ele>
        <time>2013-09-27T11:56:31Z</time>
      </trkpt>
      <trkpt lat="45.5378" lon="4.85838">
        <ele>163.56</ele>
        <time>2013-09-27T11:56:34Z</time>
      </trkpt>
      <trkpt lat="45.53785" lon="4.85806">
        <ele>163.56</ele>
        <time>2013-09-27T11:56:37Z</time>
      </trkpt>
      <trkpt lat="45.53789" lon="4.85774">
        <ele>164.04</ele>
        <time>2013-09-27T11:56:40Z</time>
      </trkpt>
      <trkpt lat="45.53794" lon="4.85743">
        <ele>164.04</ele>
        <time>2013-09-27T11:56:43Z</time>
      </trkpt>
      <trkpt lat="45.53799" lon="4.85711">
        <ele>164.52</ele>
        <time>2013-09-27T11:56:46Z</time>
      </trkpt>
      <trkpt lat="45.53804" lon="4.85681">
        <ele>164.04</ele>
        <time>2013-09-27T11:56:49Z</time>
      </trkpt>
      <trkpt lat="45.53809" lon="4.85653">
        <ele>164.04</ele>
        <time>2013-09-27T11:56:52Z</time>
      </trkpt>
      <trkpt lat="45.53814" lon="4.85623">
        <ele>163.56</ele>
        <time>2013-09-27T11:56:55Z</time>
      </trkpt>
      <trkpt lat="45.53818" lon="4.85595">
        <ele>163.56</ele>
        <time>2013-09-27T11:56:58Z</time>
      </trkpt>
      <trkpt lat="45.53822" lon="4.85568">
        <ele>164.52</ele>
        <time>2013-09-27T11:57:01Z</time>
      </trkpt>
      <trkpt lat="45.53825" lon="4.85541">
        <ele>164.04</ele>
        <time>2013-09-27T11:57:04Z</time>
      </trkpt>
      <trkpt lat="45.53829" lon="4.85516">
        <ele>164.04</ele>
        <time>2013-09-27T11:57:07Z</time>
      </trkpt>
      <trkpt lat="45.53834" lon="4.85483">
        <ele>164.52</ele>
        <time>2013-09-27T11:57:11Z</time>
      </trkpt>
      <trkpt lat="45.53843" lon="4.85463">
        <ele>165</ele>
        <time>2013-09-27T11:57:16Z</time>
      </trkpt>
      <trkpt lat="45.53867" lon="4.8547">
        <ele>165</ele>
        <time>2013-09-27T11:57:21Z</time>
      </trkpt>
      <trkpt lat="45.53886" lon="4.85475">
        <ele>163.08</ele>
        <time>2013-09-27T11:57:25Z</time>
      </trkpt>
      <trkpt lat="45.53903" lon="4.85464">
        <ele>162.6</ele>
        <time>2013-09-27T11:57:28Z</time>
      </trkpt>
      <trkpt lat="45.53917" lon="4.85442">
        <ele>162.6</ele>
        <time>2013-09-27T11:57:32Z</time>
      </trkpt>
      <trkpt lat="45.53925" lon="4.85415">
        <ele>162.6</ele>
        <time>2013-09-27T11:57:35Z</time>
      </trkpt>
      <trkpt lat="45.53928" lon="4.85385">
        <ele>163.08</ele>
        <time>2013-09-27T11:57:39Z</time>
      </trkpt>
      <trkpt lat="45.53928" lon="4.85354">
        <ele>163.08</ele>
        <time>2013-09-27T11:57:43Z</time>
      </trkpt>
      <trkpt lat="45.53927" lon="4.85319">
        <ele>162.6</ele>
        <time>2013-09-27T11:57:47Z</time>
      </trkpt>
      <trkpt lat="45.53929" lon="4.85291">
        <ele>163.08</ele>
        <time>2013-09-27T11:57:50Z</time>
      </trkpt>
      <trkpt lat="45.53933" lon="4.85261">
        <ele>163.08</ele>
        <time>2013-09-27T11:57:53Z</time>
      </trkpt>
      <trkpt lat="45.53931" lon="4.85227">
        <ele>163.08</ele>
        <time>2013-09-27T11:57:56Z</time>
      </trkpt>
      <trkpt lat="45.53926" lon="4.852">
        <ele>163.56</ele>
        <time>2013-09-27T11:57:59Z</time>
      </trkpt>
      <trkpt lat="45.5392" lon="4.85173">
        <ele>163.56</ele>
        <time>2013-09-27T11:58:02Z</time>
      </trkpt>
      <trkpt lat="45.53918" lon="4.85144">
        <ele>163.56</ele>
        <time>2013-09-27T11:58:05Z</time>
      </trkpt>
      <trkpt lat="45.53917" lon="4.85115">
        <ele>163.08</ele>
        <time>2013-09-27T11:58:08Z</time>
      </trkpt>
      <trkpt lat="45.53915" lon="4.85085">
        <ele>163.08</ele>
        <time>2013-09-27T11:58:11Z</time>
      </trkpt>
      <trkpt lat="45.53913" lon="4.85056">
        <ele>163.08</ele>
        <time>2013-09-27T11:58:14Z</time>
      </trkpt>
      <trkpt lat="45.53916" lon="4.85029">
        <ele>163.56</ele>
        <time>2013-09-27T11:58:17Z</time>
      </trkpt>
      <trkpt lat="45.53925" lon="4.84998">
        <ele>163.56</ele>
        <time>2013-09-27T11:58:21Z</time>
      </trkpt>
      <trkpt lat="45.53934" lon="4.84968">
        <ele>163.56</ele>
        <time>2013-09-27T11:58:25Z</time>
      </trkpt>
      <trkpt lat="45.53932" lon="4.84939">
        <ele>164.04</ele>
        <time>2013-09-27T11:58:29Z</time>
      </trkpt>
      <trkpt lat="45.53917" lon="4.84918">
        <ele>163.56</ele>
        <time>2013-09-27T11:58:33Z</time>
      </trkpt>
      <trkpt lat="45.53908" lon="4.84892">
        <ele>163.56</ele>
        <time>2013-09-27T11:58:38Z</time>
      </trkpt>
      <trkpt lat="45.53921" lon="4.84868">
        <ele>163.56</ele>
        <time>2013-09-27T11:58:44Z</time>
      </trkpt>
      <trkpt lat="45.53943" lon="4.84848">
        <ele>163.56</ele>
        <time>2013-09-27T11:58:49Z</time>
      </trkpt>
      <trkpt lat="45.53957" lon="4.84827">
        <ele>164.04</ele>
        <time>2013-09-27T11:58:53Z</time>
      </trkpt>
      <trkpt lat="45.53973" lon="4.84804">
        <ele>164.04</ele>
        <time>2013-09-27T11:58:57Z</time>
      </trkpt>
      <trkpt lat="45.53989" lon="4.84781">
        <ele>164.04</ele>
        <time>2013-09-27T11:59:01Z</time>
      </trkpt>
      <trkpt lat="45.54006" lon="4.84756">
        <ele>164.04</ele>
        <time>2013-09-27T11:59:06Z</time>
      </trkpt>
      <trkpt lat="45.54014" lon="4.84726">
        <ele>164.52</ele>
        <time>2013-09-27T11:59:11Z</time>
      </trkpt>
      <trkpt lat="45.54021" lon="4.84699">
        <ele>165</ele>
        <time>2013-09-27T11:59:15Z</time>
      </trkpt>
      <trkpt lat="45.54027" lon="4.84667">
        <ele>164.04</ele>
        <time>2013-09-27T11:59:19Z</time>
      </trkpt>
      <trkpt lat="45.54032" lon="4.84632">
        <ele>165</ele>
        <time>2013-09-27T11:59:23Z</time>
      </trkpt>
      <trkpt lat="45.54035" lon="4.84606">
        <ele>164.04</ele>
        <time>2013-09-27T11:59:26Z</time>
      </trkpt>
      <trkpt lat="45.54039" lon="4.84579">
        <ele>163.56</ele>
        <time>2013-09-27T11:59:29Z</time>
      </trkpt>
      <trkpt lat="45.54044" lon="4.84552">
        <ele>164.04</ele>
        <time>2013-09-27T11:59:32Z</time>
      </trkpt>
      <trkpt lat="45.54047" lon="4.84525">
        <ele>164.04</ele>
        <time>2013-09-27T11:59:35Z</time>
      </trkpt>
      <trkpt lat="45.54051" lon="4.84498">
        <ele>164.04</ele>
        <time>2013-09-27T11:59:38Z</time>
      </trkpt>
      <trkpt lat="45.54055" lon="4.8447">
        <ele>164.04</ele>
        <time>2013-09-27T11:59:41Z</time>
      </trkpt>
      <trkpt lat="45.54058" lon="4.84442">
        <ele>163.56</ele>
        <time>2013-09-27T11:59:44Z</time>
      </trkpt>
      <trkpt lat="45.54063" lon="4.84414">
        <ele>163.56</ele>
        <time>2013-09-27T11:59:47Z</time>
      </trkpt>
      <trkpt lat="45.54067" lon="4.84385">
        <ele>163.56</ele>
        <time>2013-09-27T11:59:50Z</time>
      </trkpt>
      <trkpt lat="45.5407" lon="4.84357">
        <ele>163.56</ele>
        <time>2013-09-27T11:59:53Z</time>
      </trkpt>
      <trkpt lat="45.54074" lon="4.8433">
        <ele>163.56</ele>
        <time>2013-09-27T11:59:56Z</time>
      </trkpt>
      <trkpt lat="45.54079" lon="4.84304">
        <ele>164.04</ele>
        <time>2013-09-27T11:59:59Z</time>
      </trkpt>
      <trkpt lat="45.54083" lon="4.84277">
        <ele>163.56</ele>
        <time>2013-09-27T12:00:02Z</time>
      </trkpt>
      <trkpt lat="45.54087" lon="4.84248">
        <ele>163.08</ele>
        <time>2013-09-27T12:00:05Z</time>
      </trkpt>
      <trkpt lat="45.54092" lon="4.84219">
        <ele>163.56</ele>
        <time>2013-09-27T12:00:08Z</time>
      </trkpt>
      <trkpt lat="45.54098" lon="4.84191">
        <ele>163.08</ele>
        <time>2013-09-27T12:00:11Z</time>
      </trkpt>
      <trkpt lat="45.54105" lon="4.84162">
        <ele>163.56</ele>
        <time>2013-09-27T12:00:14Z</time>
      </trkpt>
      <trkpt lat="45.54112" lon="4.84133">
        <ele>163.56</ele>
        <time>2013-09-27T12:00:17Z</time>
      </trkpt>
      <trkpt lat="45.54119" lon="4.84105">
        <ele>163.56</ele>
        <time>2013-09-27T12:00:20Z</time>
      </trkpt>
      <trkpt lat="45.54126" lon="4.84076">
        <ele>164.04</ele>
        <time>2013-09-27T12:00:23Z</time>
      </trkpt>
      <trkpt lat="45.54133" lon="4.84049">
        <ele>163.08</ele>
        <time>2013-09-27T12:00:26Z</time>
      </trkpt>
      <trkpt lat="45.54139" lon="4.84021">
        <ele>164.04</ele>
        <time>2013-09-27T12:00:29Z</time>
      </trkpt>
      <trkpt lat="45.54146" lon="4.83993">
        <ele>164.52</ele>
        <time>2013-09-27T12:00:32Z</time>
      </trkpt>
      <trkpt lat="45.54153" lon="4.83965">
        <ele>165</ele>
        <time>2013-09-27T12:00:35Z</time>
      </trkpt>
      <trkpt lat="45.54161" lon="4.83936">
        <ele>164.04</ele>
        <time>2013-09-27T12:00:38Z</time>
      </trkpt>
      <trkpt lat="45.54169" lon="4.83907">
        <ele>164.04</ele>
        <time>2013-09-27T12:00:41Z</time>
      </trkpt>
      <trkpt lat="45.54178" lon="4.83877">
        <ele>164.04</ele>
        <time>2013-09-27T12:00:44Z</time>
      </trkpt>
      <trkpt lat="45.54187" lon="4.83849">
        <ele>163.56</ele>
        <time>2013-09-27T12:00:47Z</time>
      </trkpt>
      <trkpt lat="45.54195" lon="4.83818">
        <ele>163.56</ele>
        <time>2013-09-27T12:00:50Z</time>
      </trkpt>
      <trkpt lat="45.54205" lon="4.83787">
        <ele>164.52</ele>
        <time>2013-09-27T12:00:53Z</time>
      </trkpt>
      <trkpt lat="45.54216" lon="4.83757">
        <ele>164.52</ele>
        <time>2013-09-27T12:00:56Z</time>
      </trkpt>
      <trkpt lat="45.54227" lon="4.83726">
        <ele>164.52</ele>
        <time>2013-09-27T12:00:59Z</time>
      </trkpt>
      <trkpt lat="45.54237" lon="4.83696">
        <ele>164.52</ele>
        <time>2013-09-27T12:01:02Z</time>
      </trkpt>
      <trkpt lat="45.54248" lon="4.83666">
        <ele>163.56</ele>
        <time>2013-09-27T12:01:05Z</time>
      </trkpt>
      <trkpt lat="45.54259" lon="4.83636">
        <ele>164.04</ele>
        <time>2013-09-27T12:01:08Z</time>
      </trkpt>
      <trkpt lat="45.54271" lon="4.83607">
        <ele>164.04</ele>
        <time>2013-09-27T12:01:11Z</time>
      </trkpt>
      <trkpt lat="45.54282" lon="4.83577">
        <ele>164.04</ele>
        <time>2013-09-27T12:01:14Z</time>
      </trkpt>
      <trkpt lat="45.54295" lon="4.83548">
        <ele>163.56</ele>
        <time>2013-09-27T12:01:17Z</time>
      </trkpt>
      <trkpt lat="45.54307" lon="4.83519">
        <ele>164.04</ele>
        <time>2013-09-27T12:01:20Z</time>
      </trkpt>
      <trkpt lat="45.5432" lon="4.83491">
        <ele>164.04</ele>
        <time>2013-09-27T12:01:23Z</time>
      </trkpt>
      <trkpt lat="45.54333" lon="4.83462">
        <ele>164.04</ele>
        <time>2013-09-27T12:01:26Z</time>
      </trkpt>
      <trkpt lat="45.54346" lon="4.83434">
        <ele>164.52</ele>
        <time>2013-09-27T12:01:29Z</time>
      </trkpt>
      <trkpt lat="45.54359" lon="4.83407">
        <ele>164.52</ele>
        <time>2013-09-27T12:01:32Z</time>
      </trkpt>
      <trkpt lat="45.54372" lon="4.8338">
        <ele>164.52</ele>
        <time>2013-09-27T12:01:35Z</time>
      </trkpt>
      <trkpt lat="45.54385" lon="4.83355">
        <ele>164.52</ele>
        <time>2013-09-27T12:01:38Z</time>
      </trkpt>
      <trkpt lat="45.54399" lon="4.83329">
        <ele>164.52</ele>
        <time>2013-09-27T12:01:41Z</time>
      </trkpt>
      <trkpt lat="45.54414" lon="4.83305">
        <ele>164.52</ele>
        <time>2013-09-27T12:01:44Z</time>
      </trkpt>
      <trkpt lat="45.54429" lon="4.8328">
        <ele>164.52</ele>
        <time>2013-09-27T12:01:47Z</time>
      </trkpt>
      <trkpt lat="45.54444" lon="4.83255">
        <ele>164.04</ele>
        <time>2013-09-27T12:01:50Z</time>
      </trkpt>
      <trkpt lat="45.54459" lon="4.8323">
        <ele>164.52</ele>
        <time>2013-09-27T12:01:53Z</time>
      </trkpt>
      <trkpt lat="45.54475" lon="4.83207">
        <ele>164.04</ele>
        <time>2013-09-27T12:01:56Z</time>
      </trkpt>
      <trkpt lat="45.5449" lon="4.83183">
        <ele>164.04</ele>
        <time>2013-09-27T12:01:59Z</time>
      </trkpt>
      <trkpt lat="45.54506" lon="4.83161">
        <ele>164.04</ele>
        <time>2013-09-27T12:02:02Z</time>
      </trkpt>
      <trkpt lat="45.54522" lon="4.83143">
        <ele>164.04</ele>
        <time>2013-09-27T12:02:05Z</time>
      </trkpt>
      <trkpt lat="45.54535" lon="4.83126">
        <ele>164.52</ele>
        <time>2013-09-27T12:02:08Z</time>
      </trkpt>
      <trkpt lat="45.54548" lon="4.83106">
        <ele>165.48</ele>
        <time>2013-09-27T12:02:11Z</time>
      </trkpt>
      <trkpt lat="45.54561" lon="4.83082">
        <ele>165.48</ele>
        <time>2013-09-27T12:02:14Z</time>
      </trkpt>
      <trkpt lat="45.54574" lon="4.83057">
        <ele>165.96</ele>
        <time>2013-09-27T12:02:17Z</time>
      </trkpt>
      <trkpt lat="45.54589" lon="4.83033">
        <ele>165.96</ele>
        <time>2013-09-27T12:02:20Z</time>
      </trkpt>
      <trkpt lat="45.54605" lon="4.8301">
        <ele>165.48</ele>
        <time>2013-09-27T12:02:23Z</time>
      </trkpt>
      <trkpt lat="45.54622" lon="4.82987">
        <ele>165.48</ele>
        <time>2013-09-27T12:02:26Z</time>
      </trkpt>
      <trkpt lat="45.54639" lon="4.82963">
        <ele>165.48</ele>
        <time>2013-09-27T12:02:29Z</time>
      </trkpt>
      <trkpt lat="45.54655" lon="4.8294">
        <ele>165.96</ele>
        <time>2013-09-27T12:02:32Z</time>
      </trkpt>
      <trkpt lat="45.54671" lon="4.82915">
        <ele>165.96</ele>
        <time>2013-09-27T12:02:35Z</time>
      </trkpt>
      <trkpt lat="45.5468" lon="4.82884">
        <ele>165.48</ele>
        <time>2013-09-27T12:02:38Z</time>
      </trkpt>
      <trkpt lat="45.54683" lon="4.8285">
        <ele>165</ele>
        <time>2013-09-27T12:02:41Z</time>
      </trkpt>
      <trkpt lat="45.54684" lon="4.82817">
        <ele>166.93</ele>
        <time>2013-09-27T12:02:44Z</time>
      </trkpt>
      <trkpt lat="45.54687" lon="4.82784">
        <ele>167.89</ele>
        <time>2013-09-27T12:02:47Z</time>
      </trkpt>
      <trkpt lat="45.5469" lon="4.82751">
        <ele>166.93</ele>
        <time>2013-09-27T12:02:50Z</time>
      </trkpt>
      <trkpt lat="45.54695" lon="4.82721">
        <ele>167.89</ele>
        <time>2013-09-27T12:02:53Z</time>
      </trkpt>
      <trkpt lat="45.54702" lon="4.82695">
        <ele>167.41</ele>
        <time>2013-09-27T12:02:57Z</time>
      </trkpt>
      <trkpt lat="45.5471" lon="4.82688">
        <ele>166.93</ele>
        <time>2013-09-27T12:05:55Z</time>
      </trkpt>
      <trkpt lat="45.54716" lon="4.82677">
        <ele>166.93</ele>
        <time>2013-09-27T12:08:50Z</time>
      </trkpt>
      <trkpt lat="45.54733" lon="4.82658">
        <ele>166.93</ele>
        <time>2013-09-27T12:08:57Z</time>
      </trkpt>
      <trkpt lat="45.54751" lon="4.82642">
        <ele>166.93</ele>
        <time>2013-09-27T12:09:02Z</time>
      </trkpt>
      <trkpt lat="45.5477" lon="4.82626">
        <ele>167.41</ele>
        <time>2013-09-27T12:09:07Z</time>
      </trkpt>
      <trkpt lat="45.54789" lon="4.82609">
        <ele>166.93</ele>
        <time>2013-09-27T12:09:12Z</time>
      </trkpt>
      <trkpt lat="45.54808" lon="4.82592">
        <ele>166.93</ele>
        <time>2013-09-27T12:09:17Z</time>
      </trkpt>
      <trkpt lat="45.54825" lon="4.82578">
        <ele>166.93</ele>
        <time>2013-09-27T12:09:21Z</time>
      </trkpt>
      <trkpt lat="45.54842" lon="4.82562">
        <ele>166.45</ele>
        <time>2013-09-27T12:09:25Z</time>
      </trkpt>
      <trkpt lat="45.54861" lon="4.82545">
        <ele>167.41</ele>
        <time>2013-09-27T12:09:29Z</time>
      </trkpt>
      <trkpt lat="45.5488" lon="4.82529">
        <ele>167.41</ele>
        <time>2013-09-27T12:09:33Z</time>
      </trkpt>
      <trkpt lat="45.54898" lon="4.82513">
        <ele>166.45</ele>
        <time>2013-09-27T12:09:37Z</time>
      </trkpt>
      <trkpt lat="45.54916" lon="4.82497">
        <ele>166.45</ele>
        <time>2013-09-27T12:09:41Z</time>
      </trkpt>
      <trkpt lat="45.54935" lon="4.82481">
        <ele>166.45</ele>
        <time>2013-09-27T12:09:45Z</time>
      </trkpt>
      <trkpt lat="45.54953" lon="4.82465">
        <ele>167.41</ele>
        <time>2013-09-27T12:09:49Z</time>
      </trkpt>
      <trkpt lat="45.54971" lon="4.82449">
        <ele>166.45</ele>
        <time>2013-09-27T12:09:53Z</time>
      </trkpt>
      <trkpt lat="45.5499" lon="4.82433">
        <ele>166.93</ele>
        <time>2013-09-27T12:09:57Z</time>
      </trkpt>
      <trkpt lat="45.55009" lon="4.82416">
        <ele>166.45</ele>
        <time>2013-09-27T12:10:01Z</time>
      </trkpt>
      <trkpt lat="45.55029" lon="4.82398">
        <ele>165.96</ele>
        <time>2013-09-27T12:10:05Z</time>
      </trkpt>
      <trkpt lat="45.55047" lon="4.82378">
        <ele>166.45</ele>
        <time>2013-09-27T12:10:09Z</time>
      </trkpt>
      <trkpt lat="45.55065" lon="4.82359">
        <ele>166.45</ele>
        <time>2013-09-27T12:10:13Z</time>
      </trkpt>
      <trkpt lat="45.55083" lon="4.82337">
        <ele>166.45</ele>
        <time>2013-09-27T12:10:17Z</time>
      </trkpt>
      <trkpt lat="45.55098" lon="4.82315">
        <ele>166.45</ele>
        <time>2013-09-27T12:10:21Z</time>
      </trkpt>
      <trkpt lat="45.55113" lon="4.82291">
        <ele>165.96</ele>
        <time>2013-09-27T12:10:25Z</time>
      </trkpt>
      <trkpt lat="45.55126" lon="4.82272">
        <ele>166.45</ele>
        <time>2013-09-27T12:10:28Z</time>
      </trkpt>
      <trkpt lat="45.55138" lon="4.82252">
        <ele>166.45</ele>
        <time>2013-09-27T12:10:31Z</time>
      </trkpt>
      <trkpt lat="45.5515" lon="4.82231">
        <ele>166.45</ele>
        <time>2013-09-27T12:10:34Z</time>
      </trkpt>
      <trkpt lat="45.55161" lon="4.8221">
        <ele>166.45</ele>
        <time>2013-09-27T12:10:37Z</time>
      </trkpt>
      <trkpt lat="45.55175" lon="4.82182">
        <ele>166.45</ele>
        <time>2013-09-27T12:10:41Z</time>
      </trkpt>
      <trkpt lat="45.55186" lon="4.8216">
        <ele>166.45</ele>
        <time>2013-09-27T12:10:45Z</time>
      </trkpt>
      <trkpt lat="45.55193" lon="4.82134">
        <ele>166.45</ele>
        <time>2013-09-27T12:10:51Z</time>
      </trkpt>
      <trkpt lat="45.55204" lon="4.82109">
        <ele>166.45</ele>
        <time>2013-09-27T12:10:56Z</time>
      </trkpt>
      <trkpt lat="45.5522" lon="4.82089">
        <ele>166.93</ele>
        <time>2013-09-27T12:11:00Z</time>
      </trkpt>
      <trkpt lat="45.55238" lon="4.82068">
        <ele>166.45</ele>
        <time>2013-09-27T12:11:04Z</time>
      </trkpt>
      <trkpt lat="45.55254" lon="4.82053">
        <ele>166.45</ele>
        <time>2013-09-27T12:11:07Z</time>
      </trkpt>
      <trkpt lat="45.5527" lon="4.82037">
        <ele>166.45</ele>
        <time>2013-09-27T12:11:10Z</time>
      </trkpt>
      <trkpt lat="45.55285" lon="4.82022">
        <ele>165.96</ele>
        <time>2013-09-27T12:11:13Z</time>
      </trkpt>
      <trkpt lat="45.55305" lon="4.82002">
        <ele>166.45</ele>
        <time>2013-09-27T12:11:17Z</time>
      </trkpt>
      <trkpt lat="45.55323" lon="4.81982">
        <ele>166.45</ele>
        <time>2013-09-27T12:11:21Z</time>
      </trkpt>
      <trkpt lat="45.55341" lon="4.8196">
        <ele>166.45</ele>
        <time>2013-09-27T12:11:25Z</time>
      </trkpt>
      <trkpt lat="45.55355" lon="4.81935">
        <ele>166.45</ele>
        <time>2013-09-27T12:11:29Z</time>
      </trkpt>
      <trkpt lat="45.55368" lon="4.81915">
        <ele>166.45</ele>
        <time>2013-09-27T12:11:32Z</time>
      </trkpt>
      <trkpt lat="45.55384" lon="4.81887">
        <ele>165.96</ele>
        <time>2013-09-27T12:11:36Z</time>
      </trkpt>
      <trkpt lat="45.55399" lon="4.81859">
        <ele>165.96</ele>
        <time>2013-09-27T12:11:40Z</time>
      </trkpt>
      <trkpt lat="45.55413" lon="4.8183">
        <ele>165.96</ele>
        <time>2013-09-27T12:11:44Z</time>
      </trkpt>
      <trkpt lat="45.55424" lon="4.81807">
        <ele>165.96</ele>
        <time>2013-09-27T12:11:47Z</time>
      </trkpt>
      <trkpt lat="45.55436" lon="4.81784">
        <ele>166.45</ele>
        <time>2013-09-27T12:11:50Z</time>
      </trkpt>
      <trkpt lat="45.55449" lon="4.81762">
        <ele>165.96</ele>
        <time>2013-09-27T12:11:53Z</time>
      </trkpt>
      <trkpt lat="45.55463" lon="4.81735">
        <ele>166.45</ele>
        <time>2013-09-27T12:11:57Z</time>
      </trkpt>
      <trkpt lat="45.55478" lon="4.81712">
        <ele>165.96</ele>
        <time>2013-09-27T12:12:02Z</time>
      </trkpt>
      <trkpt lat="45.55491" lon="4.81693">
        <ele>165.96</ele>
        <time>2013-09-27T12:12:06Z</time>
      </trkpt>
      <trkpt lat="45.55507" lon="4.81671">
        <ele>165.96</ele>
        <time>2013-09-27T12:12:10Z</time>
      </trkpt>
      <trkpt lat="45.55524" lon="4.8165">
        <ele>165.96</ele>
        <time>2013-09-27T12:12:14Z</time>
      </trkpt>
      <trkpt lat="45.55542" lon="4.81629">
        <ele>165.96</ele>
        <time>2013-09-27T12:12:18Z</time>
      </trkpt>
      <trkpt lat="45.55561" lon="4.81609">
        <ele>165.96</ele>
        <time>2013-09-27T12:12:22Z</time>
      </trkpt>
      <trkpt lat="45.55581" lon="4.8159">
        <ele>166.45</ele>
        <time>2013-09-27T12:12:26Z</time>
      </trkpt>
      <trkpt lat="45.55597" lon="4.81577">
        <ele>165.96</ele>
        <time>2013-09-27T12:12:29Z</time>
      </trkpt>
      <trkpt lat="45.55614" lon="4.81565">
        <ele>165.96</ele>
        <time>2013-09-27T12:12:32Z</time>
      </trkpt>
      <trkpt lat="45.55632" lon="4.81552">
        <ele>165.96</ele>
        <time>2013-09-27T12:12:35Z</time>
      </trkpt>
      <trkpt lat="45.5565" lon="4.8154">
        <ele>166.45</ele>
        <time>2013-09-27T12:12:38Z</time>
      </trkpt>
      <trkpt lat="45.55667" lon="4.81528">
        <ele>165.96</ele>
        <time>2013-09-27T12:12:41Z</time>
      </trkpt>
      <trkpt lat="45.55685" lon="4.81514">
        <ele>165.96</ele>
        <time>2013-09-27T12:12:44Z</time>
      </trkpt>
      <trkpt lat="45.55703" lon="4.81501">
        <ele>165.96</ele>
        <time>2013-09-27T12:12:47Z</time>
      </trkpt>
      <trkpt lat="45.55721" lon="4.81489">
        <ele>165.96</ele>
        <time>2013-09-27T12:12:50Z</time>
      </trkpt>
      <trkpt lat="45.55739" lon="4.81477">
        <ele>165.48</ele>
        <time>2013-09-27T12:12:53Z</time>
      </trkpt>
      <trkpt lat="45.55757" lon="4.81464">
        <ele>165.96</ele>
        <time>2013-09-27T12:12:56Z</time>
      </trkpt>
      <trkpt lat="45.55775" lon="4.81453">
        <ele>165.48</ele>
        <time>2013-09-27T12:12:59Z</time>
      </trkpt>
      <trkpt lat="45.55792" lon="4.81441">
        <ele>165.48</ele>
        <time>2013-09-27T12:13:02Z</time>
      </trkpt>
      <trkpt lat="45.55814" lon="4.81427">
        <ele>165.48</ele>
        <time>2013-09-27T12:13:06Z</time>
      </trkpt>
      <trkpt lat="45.55831" lon="4.81415">
        <ele>165.96</ele>
        <time>2013-09-27T12:13:09Z</time>
      </trkpt>
      <trkpt lat="45.55853" lon="4.81404">
        <ele>165.48</ele>
        <time>2013-09-27T12:13:13Z</time>
      </trkpt>
      <trkpt lat="45.55875" lon="4.81391">
        <ele>165</ele>
        <time>2013-09-27T12:13:17Z</time>
      </trkpt>
      <trkpt lat="45.55892" lon="4.8138">
        <ele>165.96</ele>
        <time>2013-09-27T12:13:20Z</time>
      </trkpt>
      <trkpt lat="45.55909" lon="4.81368">
        <ele>165.48</ele>
        <time>2013-09-27T12:13:23Z</time>
      </trkpt>
      <trkpt lat="45.55926" lon="4.81356">
        <ele>165.48</ele>
        <time>2013-09-27T12:13:26Z</time>
      </trkpt>
      <trkpt lat="45.55948" lon="4.81341">
        <ele>165.48</ele>
        <time>2013-09-27T12:13:30Z</time>
      </trkpt>
      <trkpt lat="45.55969" lon="4.81327">
        <ele>165.48</ele>
        <time>2013-09-27T12:13:34Z</time>
      </trkpt>
      <trkpt lat="45.5599" lon="4.81313">
        <ele>165.48</ele>
        <time>2013-09-27T12:13:38Z</time>
      </trkpt>
      <trkpt lat="45.56011" lon="4.81299">
        <ele>165</ele>
        <time>2013-09-27T12:13:42Z</time>
      </trkpt>
      <trkpt lat="45.56031" lon="4.81285">
        <ele>165.48</ele>
        <time>2013-09-27T12:13:46Z</time>
      </trkpt>
      <trkpt lat="45.56052" lon="4.81271">
        <ele>165.48</ele>
        <time>2013-09-27T12:13:50Z</time>
      </trkpt>
      <trkpt lat="45.56073" lon="4.81257">
        <ele>165.48</ele>
        <time>2013-09-27T12:13:54Z</time>
      </trkpt>
      <trkpt lat="45.56095" lon="4.8124">
        <ele>165.48</ele>
        <time>2013-09-27T12:13:58Z</time>
      </trkpt>
      <trkpt lat="45.56116" lon="4.81223">
        <ele>165.48</ele>
        <time>2013-09-27T12:14:02Z</time>
      </trkpt>
      <trkpt lat="45.56134" lon="4.81207">
        <ele>165.48</ele>
        <time>2013-09-27T12:14:06Z</time>
      </trkpt>
      <trkpt lat="45.56141" lon="4.81181">
        <ele>166.45</ele>
        <time>2013-09-27T12:14:10Z</time>
      </trkpt>
      <trkpt lat="45.56134" lon="4.81152">
        <ele>165</ele>
        <time>2013-09-27T12:14:15Z</time>
      </trkpt>
      <trkpt lat="45.56125" lon="4.81121">
        <ele>164.52</ele>
        <time>2013-09-27T12:14:19Z</time>
      </trkpt>
      <trkpt lat="45.56119" lon="4.81093">
        <ele>165</ele>
        <time>2013-09-27T12:14:23Z</time>
      </trkpt>
      <trkpt lat="45.56109" lon="4.8107">
        <ele>164.04</ele>
        <time>2013-09-27T12:14:27Z</time>
      </trkpt>
      <trkpt lat="45.56105" lon="4.81042">
        <ele>163.56</ele>
        <time>2013-09-27T12:14:33Z</time>
      </trkpt>
      <trkpt lat="45.56106" lon="4.81016">
        <ele>164.04</ele>
        <time>2013-09-27T12:14:38Z</time>
      </trkpt>
      <trkpt lat="45.56109" lon="4.80984">
        <ele>164.04</ele>
        <time>2013-09-27T12:14:43Z</time>
      </trkpt>
      <trkpt lat="45.5611" lon="4.80954">
        <ele>164.52</ele>
        <time>2013-09-27T12:14:48Z</time>
      </trkpt>
      <trkpt lat="45.56098" lon="4.80932">
        <ele>164.52</ele>
        <time>2013-09-27T12:14:53Z</time>
      </trkpt>
      <trkpt lat="45.56085" lon="4.80911">
        <ele>165</ele>
        <time>2013-09-27T12:14:57Z</time>
      </trkpt>
      <trkpt lat="45.56078" lon="4.80901">
        <ele>165</ele>
        <time>2013-09-27T12:15:06Z</time>
      </trkpt>
      <trkpt lat="45.56093" lon="4.80925">
        <ele>164.04</ele>
        <time>2013-09-27T12:15:12Z</time>
      </trkpt>
      <trkpt lat="45.56104" lon="4.80945">
        <ele>164.04</ele>
        <time>2013-09-27T12:15:17Z</time>
      </trkpt>
      <trkpt lat="45.56113" lon="4.80961">
        <ele>164.04</ele>
        <time>2013-09-27T12:15:36Z</time>
      </trkpt>
      <trkpt lat="45.56108" lon="4.80989">
        <ele>163.56</ele>
        <time>2013-09-27T12:15:42Z</time>
      </trkpt>
      <trkpt lat="45.56104" lon="4.81021">
        <ele>163.08</ele>
        <time>2013-09-27T12:15:47Z</time>
      </trkpt>
      <trkpt lat="45.56103" lon="4.81048">
        <ele>163.08</ele>
        <time>2013-09-27T12:15:51Z</time>
      </trkpt>
      <trkpt lat="45.56109" lon="4.81068">
        <ele>163.08</ele>
        <time>2013-09-27T12:15:56Z</time>
      </trkpt>
      <trkpt lat="45.56148" lon="4.81053">
        <ele>162.6</ele>
        <time>2013-09-27T12:16:04Z</time>
      </trkpt>
      <trkpt lat="45.56182" lon="4.81036">
        <ele>163.08</ele>
        <time>2013-09-27T12:16:11Z</time>
      </trkpt>
      <trkpt lat="45.56157" lon="4.81058">
        <ele>162.6</ele>
        <time>2013-09-27T12:16:25Z</time>
      </trkpt>
      <trkpt lat="45.56142" lon="4.81098">
        <ele>163.08</ele>
        <time>2013-09-27T12:16:32Z</time>
      </trkpt>
      <trkpt lat="45.56155" lon="4.81143">
        <ele>163.56</ele>
        <time>2013-09-27T12:16:37Z</time>
      </trkpt>
      <trkpt lat="45.56176" lon="4.81164">
        <ele>162.6</ele>
        <time>2013-09-27T12:16:42Z</time>
      </trkpt>
      <trkpt lat="45.56198" lon="4.81169">
        <ele>163.56</ele>
        <time>2013-09-27T12:16:46Z</time>
      </trkpt>
      <trkpt lat="45.56221" lon="4.81176">
        <ele>165</ele>
        <time>2013-09-27T12:16:51Z</time>
      </trkpt>
      <trkpt lat="45.56221" lon="4.81192">
        <ele>165</ele>
        <time>2013-09-27T12:17:00Z</time>
      </trkpt>
      <trkpt lat="45.562" lon="4.81201">
        <ele>165</ele>
        <time>2013-09-27T12:17:07Z</time>
      </trkpt>
      <trkpt lat="45.56181" lon="4.81207">
        <ele>165</ele>
        <time>2013-09-27T12:17:14Z</time>
      </trkpt>
      <trkpt lat="45.56163" lon="4.81188">
        <ele>165</ele>
        <time>2013-09-27T12:17:50Z</time>
      </trkpt>
      <trkpt lat="45.5615" lon="4.81168">
        <ele>165.48</ele>
        <time>2013-09-27T12:17:55Z</time>
      </trkpt>
      <trkpt lat="45.56142" lon="4.81138">
        <ele>165.96</ele>
        <time>2013-09-27T12:18:00Z</time>
      </trkpt>
      <trkpt lat="45.56136" lon="4.8111">
        <ele>165.96</ele>
        <time>2013-09-27T12:18:04Z</time>
      </trkpt>
      <trkpt lat="45.5613" lon="4.81083">
        <ele>166.45</ele>
        <time>2013-09-27T12:18:08Z</time>
      </trkpt>
      <trkpt lat="45.56126" lon="4.81054">
        <ele>166.45</ele>
        <time>2013-09-27T12:18:12Z</time>
      </trkpt>
      <trkpt lat="45.56125" lon="4.81024">
        <ele>166.45</ele>
        <time>2013-09-27T12:18:16Z</time>
      </trkpt>
      <trkpt lat="45.56126" lon="4.80992">
        <ele>166.45</ele>
        <time>2013-09-27T12:18:20Z</time>
      </trkpt>
      <trkpt lat="45.5613" lon="4.80962">
        <ele>167.41</ele>
        <time>2013-09-27T12:18:24Z</time>
      </trkpt>
      <trkpt lat="45.56138" lon="4.80931">
        <ele>166.93</ele>
        <time>2013-09-27T12:18:28Z</time>
      </trkpt>
      <trkpt lat="45.56147" lon="4.80901">
        <ele>166.45</ele>
        <time>2013-09-27T12:18:32Z</time>
      </trkpt>
      <trkpt lat="45.5616" lon="4.80873">
        <ele>166.93</ele>
        <time>2013-09-27T12:18:36Z</time>
      </trkpt>
      <trkpt lat="45.56178" lon="4.80848">
        <ele>166.93</ele>
        <time>2013-09-27T12:18:40Z</time>
      </trkpt>
      <trkpt lat="45.56195" lon="4.80825">
        <ele>167.41</ele>
        <time>2013-09-27T12:18:44Z</time>
      </trkpt>
      <trkpt lat="45.56208" lon="4.80806">
        <ele>166.45</ele>
        <time>2013-09-27T12:18:47Z</time>
      </trkpt>
      <trkpt lat="45.56221" lon="4.80787">
        <ele>166.93</ele>
        <time>2013-09-27T12:18:50Z</time>
      </trkpt>
      <trkpt lat="45.56234" lon="4.80768">
        <ele>167.41</ele>
        <time>2013-09-27T12:18:53Z</time>
      </trkpt>
      <trkpt lat="45.56247" lon="4.80749">
        <ele>166.93</ele>
        <time>2013-09-27T12:18:56Z</time>
      </trkpt>
      <trkpt lat="45.56261" lon="4.80731">
        <ele>167.89</ele>
        <time>2013-09-27T12:18:59Z</time>
      </trkpt>
      <trkpt lat="45.56274" lon="4.80713">
        <ele>167.41</ele>
        <time>2013-09-27T12:19:02Z</time>
      </trkpt>
      <trkpt lat="45.56287" lon="4.80694">
        <ele>167.89</ele>
        <time>2013-09-27T12:19:05Z</time>
      </trkpt>
      <trkpt lat="45.563" lon="4.80675">
        <ele>167.89</ele>
        <time>2013-09-27T12:19:08Z</time>
      </trkpt>
      <trkpt lat="45.56313" lon="4.80657">
        <ele>167.89</ele>
        <time>2013-09-27T12:19:11Z</time>
      </trkpt>
      <trkpt lat="45.56326" lon="4.80639">
        <ele>167.89</ele>
        <time>2013-09-27T12:19:14Z</time>
      </trkpt>
      <trkpt lat="45.56339" lon="4.8062">
        <ele>168.37</ele>
        <time>2013-09-27T12:19:17Z</time>
      </trkpt>
      <trkpt lat="45.56353" lon="4.80601">
        <ele>168.37</ele>
        <time>2013-09-27T12:19:20Z</time>
      </trkpt>
      <trkpt lat="45.56367" lon="4.80581">
        <ele>168.37</ele>
        <time>2013-09-27T12:19:23Z</time>
      </trkpt>
      <trkpt lat="45.5638" lon="4.80561">
        <ele>168.37</ele>
        <time>2013-09-27T12:19:26Z</time>
      </trkpt>
      <trkpt lat="45.56394" lon="4.8054">
        <ele>168.37</ele>
        <time>2013-09-27T12:19:29Z</time>
      </trkpt>
      <trkpt lat="45.56408" lon="4.80521">
        <ele>168.37</ele>
        <time>2013-09-27T12:19:32Z</time>
      </trkpt>
      <trkpt lat="45.56421" lon="4.80501">
        <ele>168.37</ele>
        <time>2013-09-27T12:19:35Z</time>
      </trkpt>
      <trkpt lat="45.56435" lon="4.80481">
        <ele>168.37</ele>
        <time>2013-09-27T12:19:38Z</time>
      </trkpt>
      <trkpt lat="45.5645" lon="4.80461">
        <ele>168.37</ele>
        <time>2013-09-27T12:19:41Z</time>
      </trkpt>
      <trkpt lat="45.56464" lon="4.8044">
        <ele>168.37</ele>
        <time>2013-09-27T12:19:44Z</time>
      </trkpt>
      <trkpt lat="45.56478" lon="4.80419">
        <ele>168.85</ele>
        <time>2013-09-27T12:19:47Z</time>
      </trkpt>
      <trkpt lat="45.56492" lon="4.80398">
        <ele>168.85</ele>
        <time>2013-09-27T12:19:50Z</time>
      </trkpt>
      <trkpt lat="45.56506" lon="4.80378">
        <ele>168.85</ele>
        <time>2013-09-27T12:19:53Z</time>
      </trkpt>
      <trkpt lat="45.56521" lon="4.80357">
        <ele>168.85</ele>
        <time>2013-09-27T12:19:56Z</time>
      </trkpt>
      <trkpt lat="45.56536" lon="4.80337">
        <ele>168.85</ele>
        <time>2013-09-27T12:19:59Z</time>
      </trkpt>
      <trkpt lat="45.56552" lon="4.80316">
        <ele>168.85</ele>
        <time>2013-09-27T12:20:02Z</time>
      </trkpt>
      <trkpt lat="45.56567" lon="4.80295">
        <ele>169.33</ele>
        <time>2013-09-27T12:20:05Z</time>
      </trkpt>
      <trkpt lat="45.56581" lon="4.80274">
        <ele>169.33</ele>
        <time>2013-09-27T12:20:08Z</time>
      </trkpt>
      <trkpt lat="45.56596" lon="4.80253">
        <ele>169.33</ele>
        <time>2013-09-27T12:20:11Z</time>
      </trkpt>
      <trkpt lat="45.5661" lon="4.80233">
        <ele>169.33</ele>
        <time>2013-09-27T12:20:14Z</time>
      </trkpt>
      <trkpt lat="45.56625" lon="4.80212">
        <ele>169.33</ele>
        <time>2013-09-27T12:20:17Z</time>
      </trkpt>
      <trkpt lat="45.5664" lon="4.80191">
        <ele>169.81</ele>
        <time>2013-09-27T12:20:20Z</time>
      </trkpt>
      <trkpt lat="45.56655" lon="4.80171">
        <ele>169.81</ele>
        <time>2013-09-27T12:20:23Z</time>
      </trkpt>
      <trkpt lat="45.56671" lon="4.80151">
        <ele>169.33</ele>
        <time>2013-09-27T12:20:26Z</time>
      </trkpt>
      <trkpt lat="45.56686" lon="4.80131">
        <ele>169.81</ele>
        <time>2013-09-27T12:20:29Z</time>
      </trkpt>
      <trkpt lat="45.56702" lon="4.80111">
        <ele>169.81</ele>
        <time>2013-09-27T12:20:32Z</time>
      </trkpt>
      <trkpt lat="45.56718" lon="4.80092">
        <ele>169.81</ele>
        <time>2013-09-27T12:20:35Z</time>
      </trkpt>
      <trkpt lat="45.56733" lon="4.80073">
        <ele>169.81</ele>
        <time>2013-09-27T12:20:38Z</time>
      </trkpt>
      <trkpt lat="45.56748" lon="4.80055">
        <ele>169.81</ele>
        <time>2013-09-27T12:20:41Z</time>
      </trkpt>
      <trkpt lat="45.56763" lon="4.80037">
        <ele>169.81</ele>
        <time>2013-09-27T12:20:44Z</time>
      </trkpt>
      <trkpt lat="45.56778" lon="4.8002">
        <ele>169.81</ele>
        <time>2013-09-27T12:20:47Z</time>
      </trkpt>
      <trkpt lat="45.56792" lon="4.80003">
        <ele>170.29</ele>
        <time>2013-09-27T12:20:50Z</time>
      </trkpt>
      <trkpt lat="45.56807" lon="4.79984">
        <ele>169.81</ele>
        <time>2013-09-27T12:20:53Z</time>
      </trkpt>
      <trkpt lat="45.56823" lon="4.79966">
        <ele>169.81</ele>
        <time>2013-09-27T12:20:56Z</time>
      </trkpt>
      <trkpt lat="45.56838" lon="4.79947">
        <ele>169.81</ele>
        <time>2013-09-27T12:20:59Z</time>
      </trkpt>
      <trkpt lat="45.56854" lon="4.79928">
        <ele>169.81</ele>
        <time>2013-09-27T12:21:02Z</time>
      </trkpt>
      <trkpt lat="45.5687" lon="4.7991">
        <ele>170.29</ele>
        <time>2013-09-27T12:21:05Z</time>
      </trkpt>
      <trkpt lat="45.56887" lon="4.79895">
        <ele>170.29</ele>
        <time>2013-09-27T12:21:08Z</time>
      </trkpt>
      <trkpt lat="45.56905" lon="4.79881">
        <ele>171.25</ele>
        <time>2013-09-27T12:21:11Z</time>
      </trkpt>
      <trkpt lat="45.56921" lon="4.79866">
        <ele>170.77</ele>
        <time>2013-09-27T12:21:14Z</time>
      </trkpt>
      <trkpt lat="45.56937" lon="4.7985">
        <ele>171.73</ele>
        <time>2013-09-27T12:21:17Z</time>
      </trkpt>
      <trkpt lat="45.56952" lon="4.79833">
        <ele>171.25</ele>
        <time>2013-09-27T12:21:20Z</time>
      </trkpt>
      <trkpt lat="45.56966" lon="4.79813">
        <ele>171.73</ele>
        <time>2013-09-27T12:21:23Z</time>
      </trkpt>
      <trkpt lat="45.5698" lon="4.79793">
        <ele>171.25</ele>
        <time>2013-09-27T12:21:26Z</time>
      </trkpt>
      <trkpt lat="45.56995" lon="4.79773">
        <ele>171.73</ele>
        <time>2013-09-27T12:21:29Z</time>
      </trkpt>
      <trkpt lat="45.5701" lon="4.79753">
        <ele>171.73</ele>
        <time>2013-09-27T12:21:32Z</time>
      </trkpt>
      <trkpt lat="45.57024" lon="4.79732">
        <ele>171.73</ele>
        <time>2013-09-27T12:21:35Z</time>
      </trkpt>
      <trkpt lat="45.57039" lon="4.79711">
        <ele>171.73</ele>
        <time>2013-09-27T12:21:38Z</time>
      </trkpt>
      <trkpt lat="45.57054" lon="4.7969">
        <ele>171.25</ele>
        <time>2013-09-27T12:21:41Z</time>
      </trkpt>
      <trkpt lat="45.57069" lon="4.79669">
        <ele>170.77</ele>
        <time>2013-09-27T12:21:44Z</time>
      </trkpt>
      <trkpt lat="45.57084" lon="4.79648">
        <ele>170.29</ele>
        <time>2013-09-27T12:21:47Z</time>
      </trkpt>
      <trkpt lat="45.57099" lon="4.79629">
        <ele>170.29</ele>
        <time>2013-09-27T12:21:50Z</time>
      </trkpt>
      <trkpt lat="45.57117" lon="4.79617">
        <ele>169.81</ele>
        <time>2013-09-27T12:21:53Z</time>
      </trkpt>
      <trkpt lat="45.57133" lon="4.796">
        <ele>169.81</ele>
        <time>2013-09-27T12:21:56Z</time>
      </trkpt>
      <trkpt lat="45.57148" lon="4.79579">
        <ele>169.81</ele>
        <time>2013-09-27T12:21:59Z</time>
      </trkpt>
      <trkpt lat="45.57164" lon="4.79559">
        <ele>169.33</ele>
        <time>2013-09-27T12:22:02Z</time>
      </trkpt>
      <trkpt lat="45.57182" lon="4.79541">
        <ele>169.81</ele>
        <time>2013-09-27T12:22:05Z</time>
      </trkpt>
      <trkpt lat="45.57199" lon="4.79527">
        <ele>171.25</ele>
        <time>2013-09-27T12:22:08Z</time>
      </trkpt>
      <trkpt lat="45.57216" lon="4.79513">
        <ele>171.73</ele>
        <time>2013-09-27T12:22:11Z</time>
      </trkpt>
      <trkpt lat="45.57233" lon="4.795">
        <ele>172.21</ele>
        <time>2013-09-27T12:22:14Z</time>
      </trkpt>
      <trkpt lat="45.57251" lon="4.79479">
        <ele>172.21</ele>
        <time>2013-09-27T12:22:18Z</time>
      </trkpt>
      <trkpt lat="45.57259" lon="4.79451">
        <ele>173.17</ele>
        <time>2013-09-27T12:22:22Z</time>
      </trkpt>
      <trkpt lat="45.57258" lon="4.79424">
        <ele>173.17</ele>
        <time>2013-09-27T12:22:26Z</time>
      </trkpt>
      <trkpt lat="45.57263" lon="4.79398">
        <ele>172.21</ele>
        <time>2013-09-27T12:22:30Z</time>
      </trkpt>
      <trkpt lat="45.57276" lon="4.79375">
        <ele>171.73</ele>
        <time>2013-09-27T12:22:34Z</time>
      </trkpt>
      <trkpt lat="45.5729" lon="4.79357">
        <ele>171.25</ele>
        <time>2013-09-27T12:22:37Z</time>
      </trkpt>
      <trkpt lat="45.57307" lon="4.79336">
        <ele>170.29</ele>
        <time>2013-09-27T12:22:40Z</time>
      </trkpt>
      <trkpt lat="45.57324" lon="4.79314">
        <ele>170.29</ele>
        <time>2013-09-27T12:22:43Z</time>
      </trkpt>
      <trkpt lat="45.57342" lon="4.79294">
        <ele>169.33</ele>
        <time>2013-09-27T12:22:46Z</time>
      </trkpt>
      <trkpt lat="45.57359" lon="4.79274">
        <ele>169.33</ele>
        <time>2013-09-27T12:22:49Z</time>
      </trkpt>
      <trkpt lat="45.57376" lon="4.79253">
        <ele>168.85</ele>
        <time>2013-09-27T12:22:52Z</time>
      </trkpt>
      <trkpt lat="45.57393" lon="4.79233">
        <ele>169.33</ele>
        <time>2013-09-27T12:22:55Z</time>
      </trkpt>
      <trkpt lat="45.57411" lon="4.79212">
        <ele>168.85</ele>
        <time>2013-09-27T12:22:58Z</time>
      </trkpt>
      <trkpt lat="45.57429" lon="4.79191">
        <ele>168.37</ele>
        <time>2013-09-27T12:23:01Z</time>
      </trkpt>
      <trkpt lat="45.57446" lon="4.79169">
        <ele>167.89</ele>
        <time>2013-09-27T12:23:04Z</time>
      </trkpt>
      <trkpt lat="45.57463" lon="4.79148">
        <ele>167.89</ele>
        <time>2013-09-27T12:23:07Z</time>
      </trkpt>
      <trkpt lat="45.57478" lon="4.79128">
        <ele>167.89</ele>
        <time>2013-09-27T12:23:10Z</time>
      </trkpt>
      <trkpt lat="45.57494" lon="4.79109">
        <ele>167.41</ele>
        <time>2013-09-27T12:23:13Z</time>
      </trkpt>
      <trkpt lat="45.5751" lon="4.79094">
        <ele>166.93</ele>
        <time>2013-09-27T12:23:16Z</time>
      </trkpt>
      <trkpt lat="45.57524" lon="4.79078">
        <ele>166.93</ele>
        <time>2013-09-27T12:23:19Z</time>
      </trkpt>
      <trkpt lat="45.57539" lon="4.79061">
        <ele>166.93</ele>
        <time>2013-09-27T12:23:22Z</time>
      </trkpt>
      <trkpt lat="45.57555" lon="4.79041">
        <ele>166.45</ele>
        <time>2013-09-27T12:23:25Z</time>
      </trkpt>
      <trkpt lat="45.57571" lon="4.7902">
        <ele>166.45</ele>
        <time>2013-09-27T12:23:28Z</time>
      </trkpt>
      <trkpt lat="45.57586" lon="4.78996">
        <ele>166.45</ele>
        <time>2013-09-27T12:23:31Z</time>
      </trkpt>
      <trkpt lat="45.57604" lon="4.78973">
        <ele>166.45</ele>
        <time>2013-09-27T12:23:34Z</time>
      </trkpt>
      <trkpt lat="45.57622" lon="4.7895">
        <ele>166.93</ele>
        <time>2013-09-27T12:23:37Z</time>
      </trkpt>
      <trkpt lat="45.5764" lon="4.78927">
        <ele>165.48</ele>
        <time>2013-09-27T12:23:40Z</time>
      </trkpt>
      <trkpt lat="45.57658" lon="4.78901">
        <ele>165.96</ele>
        <time>2013-09-27T12:23:43Z</time>
      </trkpt>
      <trkpt lat="45.57676" lon="4.78875">
        <ele>166.45</ele>
        <time>2013-09-27T12:23:46Z</time>
      </trkpt>
      <trkpt lat="45.57692" lon="4.78851">
        <ele>165.96</ele>
        <time>2013-09-27T12:23:49Z</time>
      </trkpt>
      <trkpt lat="45.57706" lon="4.7883">
        <ele>166.45</ele>
        <time>2013-09-27T12:23:52Z</time>
      </trkpt>
      <trkpt lat="45.5772" lon="4.78808">
        <ele>166.45</ele>
        <time>2013-09-27T12:23:55Z</time>
      </trkpt>
      <trkpt lat="45.57735" lon="4.78788">
        <ele>166.45</ele>
        <time>2013-09-27T12:23:58Z</time>
      </trkpt>
      <trkpt lat="45.5775" lon="4.7877">
        <ele>166.93</ele>
        <time>2013-09-27T12:24:01Z</time>
      </trkpt>
      <trkpt lat="45.57762" lon="4.78747">
        <ele>166.93</ele>
        <time>2013-09-27T12:24:04Z</time>
      </trkpt>
      <trkpt lat="45.57775" lon="4.78722">
        <ele>166.93</ele>
        <time>2013-09-27T12:24:07Z</time>
      </trkpt>
      <trkpt lat="45.57787" lon="4.78695">
        <ele>166.93</ele>
        <time>2013-09-27T12:24:10Z</time>
      </trkpt>
      <trkpt lat="45.57799" lon="4.78668">
        <ele>167.41</ele>
        <time>2013-09-27T12:24:13Z</time>
      </trkpt>
      <trkpt lat="45.5781" lon="4.78641">
        <ele>166.93</ele>
        <time>2013-09-27T12:24:16Z</time>
      </trkpt>
      <trkpt lat="45.57819" lon="4.78612">
        <ele>167.89</ele>
        <time>2013-09-27T12:24:19Z</time>
      </trkpt>
      <trkpt lat="45.57829" lon="4.78583">
        <ele>167.41</ele>
        <time>2013-09-27T12:24:22Z</time>
      </trkpt>
      <trkpt lat="45.57838" lon="4.78553">
        <ele>166.93</ele>
        <time>2013-09-27T12:24:25Z</time>
      </trkpt>
      <trkpt lat="45.57846" lon="4.78522">
        <ele>167.41</ele>
        <time>2013-09-27T12:24:28Z</time>
      </trkpt>
      <trkpt lat="45.57856" lon="4.78491">
        <ele>166.93</ele>
        <time>2013-09-27T12:24:31Z</time>
      </trkpt>
      <trkpt lat="45.57864" lon="4.78459">
        <ele>166.93</ele>
        <time>2013-09-27T12:24:34Z</time>
      </trkpt>
      <trkpt lat="45.57873" lon="4.78428">
        <ele>166.93</ele>
        <time>2013-09-27T12:24:37Z</time>
      </trkpt>
      <trkpt lat="45.57883" lon="4.78398">
        <ele>167.41</ele>
        <time>2013-09-27T12:24:40Z</time>
      </trkpt>
      <trkpt lat="45.57894" lon="4.78366">
        <ele>166.93</ele>
        <time>2013-09-27T12:24:43Z</time>
      </trkpt>
      <trkpt lat="45.57904" lon="4.78335">
        <ele>166.45</ele>
        <time>2013-09-27T12:24:46Z</time>
      </trkpt>
      <trkpt lat="45.57914" lon="4.78306">
        <ele>166.45</ele>
        <time>2013-09-27T12:24:49Z</time>
      </trkpt>
      <trkpt lat="45.57923" lon="4.78277">
        <ele>166.93</ele>
        <time>2013-09-27T12:24:52Z</time>
      </trkpt>
      <trkpt lat="45.57933" lon="4.78247">
        <ele>166.45</ele>
        <time>2013-09-27T12:24:55Z</time>
      </trkpt>
      <trkpt lat="45.57943" lon="4.78219">
        <ele>166.93</ele>
        <time>2013-09-27T12:24:58Z</time>
      </trkpt>
      <trkpt lat="45.57952" lon="4.7819">
        <ele>166.45</ele>
        <time>2013-09-27T12:25:01Z</time>
      </trkpt>
      <trkpt lat="45.57961" lon="4.78161">
        <ele>166.93</ele>
        <time>2013-09-27T12:25:04Z</time>
      </trkpt>
      <trkpt lat="45.5797" lon="4.78133">
        <ele>166.93</ele>
        <time>2013-09-27T12:25:07Z</time>
      </trkpt>
      <trkpt lat="45.57979" lon="4.78105">
        <ele>166.45</ele>
        <time>2013-09-27T12:25:10Z</time>
      </trkpt>
      <trkpt lat="45.57989" lon="4.78076">
        <ele>166.45</ele>
        <time>2013-09-27T12:25:13Z</time>
      </trkpt>
      <trkpt lat="45.57999" lon="4.78048">
        <ele>166.93</ele>
        <time>2013-09-27T12:25:16Z</time>
      </trkpt>
      <trkpt lat="45.58007" lon="4.78022">
        <ele>167.41</ele>
        <time>2013-09-27T12:25:19Z</time>
      </trkpt>
      <trkpt lat="45.58016" lon="4.77996">
        <ele>167.41</ele>
        <time>2013-09-27T12:25:22Z</time>
      </trkpt>
      <trkpt lat="45.58026" lon="4.77972">
        <ele>167.89</ele>
        <time>2013-09-27T12:25:25Z</time>
      </trkpt>
      <trkpt lat="45.58037" lon="4.77949">
        <ele>165.96</ele>
        <time>2013-09-27T12:25:28Z</time>
      </trkpt>
      <trkpt lat="45.58049" lon="4.77929">
        <ele>167.89</ele>
        <time>2013-09-27T12:25:31Z</time>
      </trkpt>
      <trkpt lat="45.58064" lon="4.77906">
        <ele>168.37</ele>
        <time>2013-09-27T12:25:35Z</time>
      </trkpt>
      <trkpt lat="45.58077" lon="4.77888">
        <ele>169.33</ele>
        <time>2013-09-27T12:25:48Z</time>
      </trkpt>
      <trkpt lat="45.58092" lon="4.77902">
        <ele>169.33</ele>
        <time>2013-09-27T12:25:58Z</time>
      </trkpt>
      <trkpt lat="45.58107" lon="4.77923">
        <ele>170.29</ele>
        <time>2013-09-27T12:26:06Z</time>
      </trkpt>
      <trkpt lat="45.58122" lon="4.77944">
        <ele>170.29</ele>
        <time>2013-09-27T12:26:26Z</time>
      </trkpt>
      <trkpt lat="45.58137" lon="4.77966">
        <ele>170.77</ele>
        <time>2013-09-27T12:26:34Z</time>
      </trkpt>
      <trkpt lat="45.58151" lon="4.77985">
        <ele>171.25</ele>
        <time>2013-09-27T12:26:39Z</time>
      </trkpt>
      <trkpt lat="45.58167" lon="4.78007">
        <ele>171.25</ele>
        <time>2013-09-27T12:26:44Z</time>
      </trkpt>
      <trkpt lat="45.58181" lon="4.78028">
        <ele>170.77</ele>
        <time>2013-09-27T12:26:48Z</time>
      </trkpt>
      <trkpt lat="45.58197" lon="4.78051">
        <ele>169.81</ele>
        <time>2013-09-27T12:26:52Z</time>
      </trkpt>
      <trkpt lat="45.58214" lon="4.78074">
        <ele>169.33</ele>
        <time>2013-09-27T12:26:56Z</time>
      </trkpt>
      <trkpt lat="45.5823" lon="4.78097">
        <ele>168.85</ele>
        <time>2013-09-27T12:27:00Z</time>
      </trkpt>
      <trkpt lat="45.58247" lon="4.78122">
        <ele>167.89</ele>
        <time>2013-09-27T12:27:04Z</time>
      </trkpt>
      <trkpt lat="45.5826" lon="4.78139">
        <ele>167.41</ele>
        <time>2013-09-27T12:27:07Z</time>
      </trkpt>
      <trkpt lat="45.58276" lon="4.78162">
        <ele>167.41</ele>
        <time>2013-09-27T12:27:11Z</time>
      </trkpt>
      <trkpt lat="45.58289" lon="4.78182">
        <ele>166.93</ele>
        <time>2013-09-27T12:27:15Z</time>
      </trkpt>
      <trkpt lat="45.58302" lon="4.782">
        <ele>166.45</ele>
        <time>2013-09-27T12:27:19Z</time>
      </trkpt>
      <trkpt lat="45.5831" lon="4.78202">
        <ele>166.93</ele>
        <time>2013-09-27T12:27:26Z</time>
      </trkpt>
      <trkpt lat="45.58297" lon="4.7818">
        <ele>166.93</ele>
        <time>2013-09-27T12:27:33Z</time>
      </trkpt>
      <trkpt lat="45.58286" lon="4.78166">
        <ele>166.93</ele>
        <time>2013-09-27T12:27:52Z</time>
      </trkpt>
      <trkpt lat="45.58271" lon="4.78168">
        <ele>166.93</ele>
        <time>2013-09-27T12:28:05Z</time>
      </trkpt>
      <trkpt lat="45.58252" lon="4.78152">
        <ele>165</ele>
        <time>2013-09-27T12:28:11Z</time>
      </trkpt>
      <trkpt lat="45.58234" lon="4.7814">
        <ele>165</ele>
        <time>2013-09-27T12:28:16Z</time>
      </trkpt>
      <trkpt lat="45.58218" lon="4.78121">
        <ele>164.52</ele>
        <time>2013-09-27T12:28:22Z</time>
      </trkpt>
      <trkpt lat="45.58215" lon="4.7809">
        <ele>163.08</ele>
        <time>2013-09-27T12:28:28Z</time>
      </trkpt>
      <trkpt lat="45.58224" lon="4.78064">
        <ele>164.04</ele>
        <time>2013-09-27T12:28:34Z</time>
      </trkpt>
      <trkpt lat="45.58252" lon="4.78055">
        <ele>164.04</ele>
        <time>2013-09-27T12:28:39Z</time>
      </trkpt>
      <trkpt lat="45.58275" lon="4.7804">
        <ele>164.04</ele>
        <time>2013-09-27T12:28:44Z</time>
      </trkpt>
      <trkpt lat="45.58293" lon="4.78023">
        <ele>163.56</ele>
        <time>2013-09-27T12:28:49Z</time>
      </trkpt>
      <trkpt lat="45.58309" lon="4.78007">
        <ele>164.04</ele>
        <time>2013-09-27T12:28:53Z</time>
      </trkpt>
      <trkpt lat="45.58328" lon="4.7799">
        <ele>163.56</ele>
        <time>2013-09-27T12:28:57Z</time>
      </trkpt>
      <trkpt lat="45.58347" lon="4.77974">
        <ele>163.56</ele>
        <time>2013-09-27T12:29:01Z</time>
      </trkpt>
      <trkpt lat="45.58368" lon="4.77958">
        <ele>163.56</ele>
        <time>2013-09-27T12:29:05Z</time>
      </trkpt>
      <trkpt lat="45.58388" lon="4.77944">
        <ele>164.04</ele>
        <time>2013-09-27T12:29:09Z</time>
      </trkpt>
      <trkpt lat="45.58406" lon="4.77933">
        <ele>164.04</ele>
        <time>2013-09-27T12:29:12Z</time>
      </trkpt>
      <trkpt lat="45.58423" lon="4.77922">
        <ele>164.04</ele>
        <time>2013-09-27T12:29:15Z</time>
      </trkpt>
      <trkpt lat="45.58441" lon="4.77913">
        <ele>164.52</ele>
        <time>2013-09-27T12:29:18Z</time>
      </trkpt>
      <trkpt lat="45.58459" lon="4.77904">
        <ele>164.04</ele>
        <time>2013-09-27T12:29:21Z</time>
      </trkpt>
      <trkpt lat="45.58477" lon="4.77895">
        <ele>164.04</ele>
        <time>2013-09-27T12:29:24Z</time>
      </trkpt>
      <trkpt lat="45.58495" lon="4.77887">
        <ele>164.52</ele>
        <time>2013-09-27T12:29:27Z</time>
      </trkpt>
      <trkpt lat="45.58512" lon="4.7788">
        <ele>164.52</ele>
        <time>2013-09-27T12:29:30Z</time>
      </trkpt>
      <trkpt lat="45.58536" lon="4.77872">
        <ele>164.04</ele>
        <time>2013-09-27T12:29:34Z</time>
      </trkpt>
      <trkpt lat="45.58559" lon="4.77866">
        <ele>164.52</ele>
        <time>2013-09-27T12:29:38Z</time>
      </trkpt>
      <trkpt lat="45.58581" lon="4.77861">
        <ele>164.52</ele>
        <time>2013-09-27T12:29:42Z</time>
      </trkpt>
      <trkpt lat="45.58602" lon="4.77857">
        <ele>164.04</ele>
        <time>2013-09-27T12:29:46Z</time>
      </trkpt>
      <trkpt lat="45.58625" lon="4.77854">
        <ele>164.52</ele>
        <time>2013-09-27T12:29:50Z</time>
      </trkpt>
      <trkpt lat="45.58648" lon="4.77854">
        <ele>164.52</ele>
        <time>2013-09-27T12:29:54Z</time>
      </trkpt>
      <trkpt lat="45.58671" lon="4.77853">
        <ele>164.52</ele>
        <time>2013-09-27T12:29:58Z</time>
      </trkpt>
      <trkpt lat="45.58693" lon="4.77854">
        <ele>164.52</ele>
        <time>2013-09-27T12:30:02Z</time>
      </trkpt>
      <trkpt lat="45.58716" lon="4.77857">
        <ele>164.52</ele>
        <time>2013-09-27T12:30:06Z</time>
      </trkpt>
      <trkpt lat="45.58739" lon="4.77859">
        <ele>164.52</ele>
        <time>2013-09-27T12:30:10Z</time>
      </trkpt>
      <trkpt lat="45.58762" lon="4.77862">
        <ele>164.52</ele>
        <time>2013-09-27T12:30:14Z</time>
      </trkpt>
      <trkpt lat="45.58786" lon="4.77865">
        <ele>164.52</ele>
        <time>2013-09-27T12:30:18Z</time>
      </trkpt>
      <trkpt lat="45.58808" lon="4.77867">
        <ele>164.52</ele>
        <time>2013-09-27T12:30:22Z</time>
      </trkpt>
      <trkpt lat="45.58831" lon="4.7787">
        <ele>164.52</ele>
        <time>2013-09-27T12:30:26Z</time>
      </trkpt>
      <trkpt lat="45.58854" lon="4.77874">
        <ele>164.04</ele>
        <time>2013-09-27T12:30:30Z</time>
      </trkpt>
      <trkpt lat="45.58877" lon="4.77883">
        <ele>163.56</ele>
        <time>2013-09-27T12:30:34Z</time>
      </trkpt>
      <trkpt lat="45.58897" lon="4.77893">
        <ele>163.08</ele>
        <time>2013-09-27T12:30:37Z</time>
      </trkpt>
      <trkpt lat="45.58916" lon="4.77904">
        <ele>163.08</ele>
        <time>2013-09-27T12:30:40Z</time>
      </trkpt>
      <trkpt lat="45.58935" lon="4.77923">
        <ele>164.04</ele>
        <time>2013-09-27T12:30:44Z</time>
      </trkpt>
      <trkpt lat="45.5895" lon="4.77947">
        <ele>164.52</ele>
        <time>2013-09-27T12:30:48Z</time>
      </trkpt>
      <trkpt lat="45.58966" lon="4.77971">
        <ele>164.52</ele>
        <time>2013-09-27T12:30:52Z</time>
      </trkpt>
      <trkpt lat="45.58981" lon="4.77995">
        <ele>165</ele>
        <time>2013-09-27T12:30:56Z</time>
      </trkpt>
      <trkpt lat="45.58995" lon="4.78019">
        <ele>164.52</ele>
        <time>2013-09-27T12:31:00Z</time>
      </trkpt>
      <trkpt lat="45.59009" lon="4.78044">
        <ele>165</ele>
        <time>2013-09-27T12:31:04Z</time>
      </trkpt>
      <trkpt lat="45.59025" lon="4.78068">
        <ele>165</ele>
        <time>2013-09-27T12:31:08Z</time>
      </trkpt>
      <trkpt lat="45.5904" lon="4.78093">
        <ele>164.52</ele>
        <time>2013-09-27T12:31:12Z</time>
      </trkpt>
      <trkpt lat="45.59056" lon="4.78119">
        <ele>165</ele>
        <time>2013-09-27T12:31:16Z</time>
      </trkpt>
      <trkpt lat="45.59068" lon="4.78139">
        <ele>165</ele>
        <time>2013-09-27T12:31:19Z</time>
      </trkpt>
      <trkpt lat="45.59079" lon="4.78159">
        <ele>165</ele>
        <time>2013-09-27T12:31:22Z</time>
      </trkpt>
      <trkpt lat="45.59094" lon="4.78186">
        <ele>164.52</ele>
        <time>2013-09-27T12:31:26Z</time>
      </trkpt>
      <trkpt lat="45.59107" lon="4.78213">
        <ele>165</ele>
        <time>2013-09-27T12:31:30Z</time>
      </trkpt>
      <trkpt lat="45.59118" lon="4.78241">
        <ele>164.52</ele>
        <time>2013-09-27T12:31:34Z</time>
      </trkpt>
      <trkpt lat="45.59129" lon="4.78271">
        <ele>165.48</ele>
        <time>2013-09-27T12:31:38Z</time>
      </trkpt>
      <trkpt lat="45.59137" lon="4.78296">
        <ele>166.93</ele>
        <time>2013-09-27T12:31:43Z</time>
      </trkpt>
      <trkpt lat="45.59148" lon="4.78326">
        <ele>167.41</ele>
        <time>2013-09-27T12:31:48Z</time>
      </trkpt>
      <trkpt lat="45.59158" lon="4.78351">
        <ele>167.41</ele>
        <time>2013-09-27T12:31:52Z</time>
      </trkpt>
      <trkpt lat="45.59168" lon="4.78379">
        <ele>167.41</ele>
        <time>2013-09-27T12:31:56Z</time>
      </trkpt>
      <trkpt lat="45.59177" lon="4.78407">
        <ele>167.41</ele>
        <time>2013-09-27T12:32:00Z</time>
      </trkpt>
      <trkpt lat="45.59189" lon="4.78434">
        <ele>166.93</ele>
        <time>2013-09-27T12:32:04Z</time>
      </trkpt>
      <trkpt lat="45.59201" lon="4.78462">
        <ele>166.93</ele>
        <time>2013-09-27T12:32:08Z</time>
      </trkpt>
      <trkpt lat="45.59211" lon="4.7849">
        <ele>167.89</ele>
        <time>2013-09-27T12:32:12Z</time>
      </trkpt>
      <trkpt lat="45.59219" lon="4.78518">
        <ele>166.93</ele>
        <time>2013-09-27T12:32:16Z</time>
      </trkpt>
      <trkpt lat="45.59227" lon="4.78546">
        <ele>167.41</ele>
        <time>2013-09-27T12:32:20Z</time>
      </trkpt>
      <trkpt lat="45.5924" lon="4.78571">
        <ele>167.41</ele>
        <time>2013-09-27T12:32:24Z</time>
      </trkpt>
      <trkpt lat="45.59254" lon="4.78595">
        <ele>166.93</ele>
        <time>2013-09-27T12:32:28Z</time>
      </trkpt>
      <trkpt lat="45.59269" lon="4.78621">
        <ele>167.41</ele>
        <time>2013-09-27T12:32:32Z</time>
      </trkpt>
      <trkpt lat="45.59283" lon="4.78648">
        <ele>167.89</ele>
        <time>2013-09-27T12:32:36Z</time>
      </trkpt>
      <trkpt lat="45.59297" lon="4.78674">
        <ele>167.41</ele>
        <time>2013-09-27T12:32:40Z</time>
      </trkpt>
      <trkpt lat="45.5931" lon="4.787">
        <ele>167.41</ele>
        <time>2013-09-27T12:32:44Z</time>
      </trkpt>
      <trkpt lat="45.59323" lon="4.78726">
        <ele>167.41</ele>
        <time>2013-09-27T12:32:48Z</time>
      </trkpt>
      <trkpt lat="45.59336" lon="4.78752">
        <ele>167.41</ele>
        <time>2013-09-27T12:32:52Z</time>
      </trkpt>
      <trkpt lat="45.59348" lon="4.78778">
        <ele>167.89</ele>
        <time>2013-09-27T12:32:56Z</time>
      </trkpt>
      <trkpt lat="45.59362" lon="4.78803">
        <ele>167.41</ele>
        <time>2013-09-27T12:33:00Z</time>
      </trkpt>
      <trkpt lat="45.59375" lon="4.78828">
        <ele>167.41</ele>
        <time>2013-09-27T12:33:04Z</time>
      </trkpt>
      <trkpt lat="45.59388" lon="4.78854">
        <ele>167.41</ele>
        <time>2013-09-27T12:33:08Z</time>
      </trkpt>
      <trkpt lat="45.59401" lon="4.78878">
        <ele>166.93</ele>
        <time>2013-09-27T12:33:12Z</time>
      </trkpt>
      <trkpt lat="45.59417" lon="4.789">
        <ele>167.41</ele>
        <time>2013-09-27T12:33:16Z</time>
      </trkpt>
      <trkpt lat="45.59431" lon="4.78924">
        <ele>166.45</ele>
        <time>2013-09-27T12:33:20Z</time>
      </trkpt>
      <trkpt lat="45.59444" lon="4.78951">
        <ele>166.93</ele>
        <time>2013-09-27T12:33:24Z</time>
      </trkpt>
      <trkpt lat="45.59455" lon="4.78972">
        <ele>167.41</ele>
        <time>2013-09-27T12:33:27Z</time>
      </trkpt>
      <trkpt lat="45.59467" lon="4.78998">
        <ele>166.93</ele>
        <time>2013-09-27T12:33:31Z</time>
      </trkpt>
      <trkpt lat="45.59479" lon="4.79025">
        <ele>166.93</ele>
        <time>2013-09-27T12:33:35Z</time>
      </trkpt>
      <trkpt lat="45.5949" lon="4.79047">
        <ele>166.93</ele>
        <time>2013-09-27T12:33:39Z</time>
      </trkpt>
      <trkpt lat="45.59503" lon="4.79066">
        <ele>166.93</ele>
        <time>2013-09-27T12:33:45Z</time>
      </trkpt>
      <trkpt lat="45.59497" lon="4.79091">
        <ele>167.41</ele>
        <time>2013-09-27T12:33:55Z</time>
      </trkpt>
      <trkpt lat="45.59516" lon="4.79104">
        <ele>167.41</ele>
        <time>2013-09-27T12:34:00Z</time>
      </trkpt>
      <trkpt lat="45.59536" lon="4.79114">
        <ele>167.41</ele>
        <time>2013-09-27T12:34:04Z</time>
      </trkpt>
      <trkpt lat="45.59557" lon="4.79126">
        <ele>167.41</ele>
        <time>2013-09-27T12:34:08Z</time>
      </trkpt>
      <trkpt lat="45.59579" lon="4.79137">
        <ele>168.37</ele>
        <time>2013-09-27T12:34:12Z</time>
      </trkpt>
      <trkpt lat="45.596" lon="4.79151">
        <ele>168.37</ele>
        <time>2013-09-27T12:34:16Z</time>
      </trkpt>
      <trkpt lat="45.59618" lon="4.7916">
        <ele>168.37</ele>
        <time>2013-09-27T12:34:19Z</time>
      </trkpt>
      <trkpt lat="45.59636" lon="4.7917">
        <ele>168.85</ele>
        <time>2013-09-27T12:34:22Z</time>
      </trkpt>
      <trkpt lat="45.59654" lon="4.7918">
        <ele>168.85</ele>
        <time>2013-09-27T12:34:25Z</time>
      </trkpt>
      <trkpt lat="45.59673" lon="4.7919">
        <ele>168.37</ele>
        <time>2013-09-27T12:34:28Z</time>
      </trkpt>
      <trkpt lat="45.59692" lon="4.79202">
        <ele>168.85</ele>
        <time>2013-09-27T12:34:31Z</time>
      </trkpt>
      <trkpt lat="45.59711" lon="4.79214">
        <ele>168.85</ele>
        <time>2013-09-27T12:34:34Z</time>
      </trkpt>
      <trkpt lat="45.5973" lon="4.79226">
        <ele>168.85</ele>
        <time>2013-09-27T12:34:37Z</time>
      </trkpt>
      <trkpt lat="45.59749" lon="4.79239">
        <ele>169.33</ele>
        <time>2013-09-27T12:34:40Z</time>
      </trkpt>
      <trkpt lat="45.59767" lon="4.79252">
        <ele>169.33</ele>
        <time>2013-09-27T12:34:43Z</time>
      </trkpt>
      <trkpt lat="45.59785" lon="4.79266">
        <ele>169.81</ele>
        <time>2013-09-27T12:34:46Z</time>
      </trkpt>
      <trkpt lat="45.59803" lon="4.7928">
        <ele>169.33</ele>
        <time>2013-09-27T12:34:49Z</time>
      </trkpt>
      <trkpt lat="45.59821" lon="4.79295">
        <ele>169.81</ele>
        <time>2013-09-27T12:34:52Z</time>
      </trkpt>
      <trkpt lat="45.59839" lon="4.79311">
        <ele>169.33</ele>
        <time>2013-09-27T12:34:55Z</time>
      </trkpt>
      <trkpt lat="45.59856" lon="4.79329">
        <ele>169.81</ele>
        <time>2013-09-27T12:34:58Z</time>
      </trkpt>
      <trkpt lat="45.59872" lon="4.79347">
        <ele>169.81</ele>
        <time>2013-09-27T12:35:01Z</time>
      </trkpt>
      <trkpt lat="45.59888" lon="4.79366">
        <ele>170.29</ele>
        <time>2013-09-27T12:35:04Z</time>
      </trkpt>
      <trkpt lat="45.59903" lon="4.79387">
        <ele>170.29</ele>
        <time>2013-09-27T12:35:07Z</time>
      </trkpt>
      <trkpt lat="45.59916" lon="4.79408">
        <ele>170.77</ele>
        <time>2013-09-27T12:35:10Z</time>
      </trkpt>
      <trkpt lat="45.59928" lon="4.79429">
        <ele>170.77</ele>
        <time>2013-09-27T12:35:13Z</time>
      </trkpt>
      <trkpt lat="45.59942" lon="4.79455">
        <ele>170.77</ele>
        <time>2013-09-27T12:35:17Z</time>
      </trkpt>
      <trkpt lat="45.59955" lon="4.79484">
        <ele>171.25</ele>
        <time>2013-09-27T12:35:21Z</time>
      </trkpt>
      <trkpt lat="45.59967" lon="4.79511">
        <ele>171.73</ele>
        <time>2013-09-27T12:35:25Z</time>
      </trkpt>
      <trkpt lat="45.59982" lon="4.79536">
        <ele>171.73</ele>
        <time>2013-09-27T12:35:29Z</time>
      </trkpt>
      <trkpt lat="45.59999" lon="4.79561">
        <ele>171.73</ele>
        <time>2013-09-27T12:35:33Z</time>
      </trkpt>
      <trkpt lat="45.60013" lon="4.79579">
        <ele>171.73</ele>
        <time>2013-09-27T12:35:36Z</time>
      </trkpt>
      <trkpt lat="45.60028" lon="4.79595">
        <ele>172.21</ele>
        <time>2013-09-27T12:35:39Z</time>
      </trkpt>
      <trkpt lat="45.60042" lon="4.79612">
        <ele>172.21</ele>
        <time>2013-09-27T12:35:42Z</time>
      </trkpt>
      <trkpt lat="45.60057" lon="4.79628">
        <ele>172.69</ele>
        <time>2013-09-27T12:35:45Z</time>
      </trkpt>
      <trkpt lat="45.60075" lon="4.79645">
        <ele>173.17</ele>
        <time>2013-09-27T12:35:48Z</time>
      </trkpt>
      <trkpt lat="45.60092" lon="4.79662">
        <ele>173.17</ele>
        <time>2013-09-27T12:35:51Z</time>
      </trkpt>
      <trkpt lat="45.60109" lon="4.7968">
        <ele>173.66</ele>
        <time>2013-09-27T12:35:54Z</time>
      </trkpt>
      <trkpt lat="45.60125" lon="4.79696">
        <ele>173.66</ele>
        <time>2013-09-27T12:35:57Z</time>
      </trkpt>
      <trkpt lat="45.60143" lon="4.79711">
        <ele>174.62</ele>
        <time>2013-09-27T12:36:00Z</time>
      </trkpt>
      <trkpt lat="45.60161" lon="4.79724">
        <ele>174.62</ele>
        <time>2013-09-27T12:36:03Z</time>
      </trkpt>
      <trkpt lat="45.6018" lon="4.79737">
        <ele>175.1</ele>
        <time>2013-09-27T12:36:06Z</time>
      </trkpt>
      <trkpt lat="45.602" lon="4.79748">
        <ele>175.1</ele>
        <time>2013-09-27T12:36:09Z</time>
      </trkpt>
      <trkpt lat="45.6022" lon="4.7976">
        <ele>175.1</ele>
        <time>2013-09-27T12:36:12Z</time>
      </trkpt>
      <trkpt lat="45.6024" lon="4.7977">
        <ele>175.58</ele>
        <time>2013-09-27T12:36:15Z</time>
      </trkpt>
      <trkpt lat="45.60261" lon="4.7978">
        <ele>175.1</ele>
        <time>2013-09-27T12:36:18Z</time>
      </trkpt>
      <trkpt lat="45.60282" lon="4.79791">
        <ele>175.1</ele>
        <time>2013-09-27T12:36:21Z</time>
      </trkpt>
      <trkpt lat="45.60305" lon="4.79802">
        <ele>174.62</ele>
        <time>2013-09-27T12:36:24Z</time>
      </trkpt>
      <trkpt lat="45.60328" lon="4.79816">
        <ele>174.14</ele>
        <time>2013-09-27T12:36:27Z</time>
      </trkpt>
      <trkpt lat="45.60352" lon="4.7983">
        <ele>173.66</ele>
        <time>2013-09-27T12:36:30Z</time>
      </trkpt>
      <trkpt lat="45.60375" lon="4.79847">
        <ele>172.69</ele>
        <time>2013-09-27T12:36:33Z</time>
      </trkpt>
      <trkpt lat="45.60398" lon="4.79866">
        <ele>172.69</ele>
        <time>2013-09-27T12:36:36Z</time>
      </trkpt>
      <trkpt lat="45.6042" lon="4.79886">
        <ele>172.69</ele>
        <time>2013-09-27T12:36:39Z</time>
      </trkpt>
      <trkpt lat="45.60441" lon="4.79907">
        <ele>172.21</ele>
        <time>2013-09-27T12:36:42Z</time>
      </trkpt>
      <trkpt lat="45.60462" lon="4.7993">
        <ele>171.73</ele>
        <time>2013-09-27T12:36:45Z</time>
      </trkpt>
      <trkpt lat="45.60482" lon="4.79952">
        <ele>171.25</ele>
        <time>2013-09-27T12:36:48Z</time>
      </trkpt>
      <trkpt lat="45.60502" lon="4.79975">
        <ele>171.25</ele>
        <time>2013-09-27T12:36:51Z</time>
      </trkpt>
      <trkpt lat="45.60522" lon="4.79999">
        <ele>170.77</ele>
        <time>2013-09-27T12:36:54Z</time>
      </trkpt>
      <trkpt lat="45.60541" lon="4.80024">
        <ele>171.25</ele>
        <time>2013-09-27T12:36:57Z</time>
      </trkpt>
      <trkpt lat="45.6056" lon="4.80048">
        <ele>170.29</ele>
        <time>2013-09-27T12:37:00Z</time>
      </trkpt>
      <trkpt lat="45.60577" lon="4.80071">
        <ele>170.77</ele>
        <time>2013-09-27T12:37:03Z</time>
      </trkpt>
      <trkpt lat="45.60596" lon="4.80095">
        <ele>170.77</ele>
        <time>2013-09-27T12:37:06Z</time>
      </trkpt>
      <trkpt lat="45.60614" lon="4.80119">
        <ele>171.25</ele>
        <time>2013-09-27T12:37:09Z</time>
      </trkpt>
      <trkpt lat="45.60631" lon="4.80143">
        <ele>170.77</ele>
        <time>2013-09-27T12:37:12Z</time>
      </trkpt>
      <trkpt lat="45.60648" lon="4.80166">
        <ele>171.25</ele>
        <time>2013-09-27T12:37:15Z</time>
      </trkpt>
      <trkpt lat="45.60666" lon="4.8019">
        <ele>171.25</ele>
        <time>2013-09-27T12:37:18Z</time>
      </trkpt>
      <trkpt lat="45.60683" lon="4.80214">
        <ele>171.25</ele>
        <time>2013-09-27T12:37:21Z</time>
      </trkpt>
      <trkpt lat="45.60701" lon="4.80236">
        <ele>171.73</ele>
        <time>2013-09-27T12:37:24Z</time>
      </trkpt>
      <trkpt lat="45.60718" lon="4.80258">
        <ele>171.73</ele>
        <time>2013-09-27T12:37:27Z</time>
      </trkpt>
      <trkpt lat="45.60734" lon="4.80279">
        <ele>171.25</ele>
        <time>2013-09-27T12:37:30Z</time>
      </trkpt>
      <trkpt lat="45.60751" lon="4.80301">
        <ele>171.25</ele>
        <time>2013-09-27T12:37:33Z</time>
      </trkpt>
      <trkpt lat="45.60768" lon="4.80322">
        <ele>171.25</ele>
        <time>2013-09-27T12:37:36Z</time>
      </trkpt>
      <trkpt lat="45.60785" lon="4.80343">
        <ele>170.77</ele>
        <time>2013-09-27T12:37:39Z</time>
      </trkpt>
      <trkpt lat="45.60803" lon="4.80365">
        <ele>171.25</ele>
        <time>2013-09-27T12:37:42Z</time>
      </trkpt>
      <trkpt lat="45.60821" lon="4.80385">
        <ele>170.77</ele>
        <time>2013-09-27T12:37:45Z</time>
      </trkpt>
      <trkpt lat="45.60838" lon="4.80406">
        <ele>170.77</ele>
        <time>2013-09-27T12:37:48Z</time>
      </trkpt>
      <trkpt lat="45.60856" lon="4.80427">
        <ele>170.77</ele>
        <time>2013-09-27T12:37:51Z</time>
      </trkpt>
      <trkpt lat="45.60873" lon="4.80448">
        <ele>170.77</ele>
        <time>2013-09-27T12:37:54Z</time>
      </trkpt>
      <trkpt lat="45.60891" lon="4.80469">
        <ele>170.77</ele>
        <time>2013-09-27T12:37:57Z</time>
      </trkpt>
      <trkpt lat="45.60908" lon="4.80488">
        <ele>170.77</ele>
        <time>2013-09-27T12:38:00Z</time>
      </trkpt>
      <trkpt lat="45.60926" lon="4.80506">
        <ele>170.77</ele>
        <time>2013-09-27T12:38:03Z</time>
      </trkpt>
      <trkpt lat="45.60943" lon="4.80525">
        <ele>171.25</ele>
        <time>2013-09-27T12:38:06Z</time>
      </trkpt>
      <trkpt lat="45.6096" lon="4.80544">
        <ele>170.77</ele>
        <time>2013-09-27T12:38:09Z</time>
      </trkpt>
      <trkpt lat="45.60979" lon="4.80563">
        <ele>170.77</ele>
        <time>2013-09-27T12:38:12Z</time>
      </trkpt>
      <trkpt lat="45.60997" lon="4.80583">
        <ele>170.29</ele>
        <time>2013-09-27T12:38:15Z</time>
      </trkpt>
      <trkpt lat="45.61015" lon="4.80602">
        <ele>169.81</ele>
        <time>2013-09-27T12:38:18Z</time>
      </trkpt>
      <trkpt lat="45.61034" lon="4.80622">
        <ele>169.81</ele>
        <time>2013-09-27T12:38:21Z</time>
      </trkpt>
      <trkpt lat="45.61052" lon="4.80644">
        <ele>169.81</ele>
        <time>2013-09-27T12:38:24Z</time>
      </trkpt>
      <trkpt lat="45.61069" lon="4.80668">
        <ele>169.33</ele>
        <time>2013-09-27T12:38:27Z</time>
      </trkpt>
      <trkpt lat="45.61085" lon="4.8069">
        <ele>169.33</ele>
        <time>2013-09-27T12:38:30Z</time>
      </trkpt>
      <trkpt lat="45.61102" lon="4.80713">
        <ele>169.33</ele>
        <time>2013-09-27T12:38:33Z</time>
      </trkpt>
      <trkpt lat="45.61118" lon="4.80735">
        <ele>168.85</ele>
        <time>2013-09-27T12:38:36Z</time>
      </trkpt>
      <trkpt lat="45.61133" lon="4.80757">
        <ele>169.33</ele>
        <time>2013-09-27T12:38:39Z</time>
      </trkpt>
      <trkpt lat="45.61148" lon="4.80779">
        <ele>169.81</ele>
        <time>2013-09-27T12:38:42Z</time>
      </trkpt>
      <trkpt lat="45.61164" lon="4.80802">
        <ele>169.81</ele>
        <time>2013-09-27T12:38:45Z</time>
      </trkpt>
      <trkpt lat="45.61181" lon="4.80824">
        <ele>169.81</ele>
        <time>2013-09-27T12:38:48Z</time>
      </trkpt>
      <trkpt lat="45.61197" lon="4.80846">
        <ele>170.29</ele>
        <time>2013-09-27T12:38:51Z</time>
      </trkpt>
      <trkpt lat="45.61215" lon="4.80867">
        <ele>170.77</ele>
        <time>2013-09-27T12:38:54Z</time>
      </trkpt>
      <trkpt lat="45.61232" lon="4.80887">
        <ele>170.77</ele>
        <time>2013-09-27T12:38:57Z</time>
      </trkpt>
      <trkpt lat="45.61247" lon="4.80904">
        <ele>170.77</ele>
        <time>2013-09-27T12:39:00Z</time>
      </trkpt>
      <trkpt lat="45.61263" lon="4.80922">
        <ele>171.25</ele>
        <time>2013-09-27T12:39:07Z</time>
      </trkpt>
      <trkpt lat="45.6126" lon="4.80907">
        <ele>170.77</ele>
        <time>2013-09-27T12:39:29Z</time>
      </trkpt>
      <trkpt lat="45.61245" lon="4.80888">
        <ele>170.29</ele>
        <time>2013-09-27T12:39:34Z</time>
      </trkpt>
      <trkpt lat="45.6123" lon="4.80866">
        <ele>170.29</ele>
        <time>2013-09-27T12:39:39Z</time>
      </trkpt>
      <trkpt lat="45.61237" lon="4.80845">
        <ele>170.29</ele>
        <time>2013-09-27T12:39:44Z</time>
      </trkpt>
      <trkpt lat="45.61256" lon="4.80847">
        <ele>170.29</ele>
        <time>2013-09-27T12:39:50Z</time>
      </trkpt>
      <trkpt lat="45.61271" lon="4.80869">
        <ele>170.29</ele>
        <time>2013-09-27T12:39:56Z</time>
      </trkpt>
      <trkpt lat="45.61286" lon="4.80891">
        <ele>170.77</ele>
        <time>2013-09-27T12:40:01Z</time>
      </trkpt>
      <trkpt lat="45.61299" lon="4.8091">
        <ele>171.73</ele>
        <time>2013-09-27T12:40:05Z</time>
      </trkpt>
      <trkpt lat="45.61313" lon="4.80929">
        <ele>172.21</ele>
        <time>2013-09-27T12:40:09Z</time>
      </trkpt>
      <trkpt lat="45.61328" lon="4.80946">
        <ele>172.69</ele>
        <time>2013-09-27T12:40:13Z</time>
      </trkpt>
      <trkpt lat="45.61348" lon="4.8095">
        <ele>173.17</ele>
        <time>2013-09-27T12:40:17Z</time>
      </trkpt>
      <trkpt lat="45.61365" lon="4.80936">
        <ele>173.66</ele>
        <time>2013-09-27T12:40:22Z</time>
      </trkpt>
      <trkpt lat="45.61375" lon="4.80913">
        <ele>174.14</ele>
        <time>2013-09-27T12:40:28Z</time>
      </trkpt>
      <trkpt lat="45.61385" lon="4.80886">
        <ele>174.14</ele>
        <time>2013-09-27T12:40:34Z</time>
      </trkpt>
      <trkpt lat="45.61396" lon="4.80859">
        <ele>173.66</ele>
        <time>2013-09-27T12:40:39Z</time>
      </trkpt>
      <trkpt lat="45.61415" lon="4.80853">
        <ele>172.69</ele>
        <time>2013-09-27T12:40:43Z</time>
      </trkpt>
      <trkpt lat="45.61439" lon="4.80862">
        <ele>171.73</ele>
        <time>2013-09-27T12:40:47Z</time>
      </trkpt>
      <trkpt lat="45.61457" lon="4.80869">
        <ele>170.29</ele>
        <time>2013-09-27T12:40:50Z</time>
      </trkpt>
      <trkpt lat="45.61476" lon="4.80875">
        <ele>169.81</ele>
        <time>2013-09-27T12:40:53Z</time>
      </trkpt>
      <trkpt lat="45.61493" lon="4.80881">
        <ele>169.33</ele>
        <time>2013-09-27T12:40:56Z</time>
      </trkpt>
      <trkpt lat="45.6151" lon="4.80892">
        <ele>169.81</ele>
        <time>2013-09-27T12:40:59Z</time>
      </trkpt>
      <trkpt lat="45.61531" lon="4.80905">
        <ele>169.81</ele>
        <time>2013-09-27T12:41:03Z</time>
      </trkpt>
      <trkpt lat="45.61552" lon="4.80912">
        <ele>169.33</ele>
        <time>2013-09-27T12:41:07Z</time>
      </trkpt>
      <trkpt lat="45.61571" lon="4.80915">
        <ele>168.85</ele>
        <time>2013-09-27T12:41:11Z</time>
      </trkpt>
      <trkpt lat="45.61588" lon="4.80922">
        <ele>169.81</ele>
        <time>2013-09-27T12:41:15Z</time>
      </trkpt>
      <trkpt lat="45.61605" lon="4.8093">
        <ele>169.81</ele>
        <time>2013-09-27T12:41:20Z</time>
      </trkpt>
      <trkpt lat="45.61616" lon="4.80938">
        <ele>169.81</ele>
        <time>2013-09-27T12:41:46Z</time>
      </trkpt>
      <trkpt lat="45.616" lon="4.80926">
        <ele>169.33</ele>
        <time>2013-09-27T12:41:54Z</time>
      </trkpt>
      <trkpt lat="45.61581" lon="4.80917">
        <ele>169.81</ele>
        <time>2013-09-27T12:42:00Z</time>
      </trkpt>
      <trkpt lat="45.61562" lon="4.80913">
        <ele>169.33</ele>
        <time>2013-09-27T12:42:08Z</time>
      </trkpt>
      <trkpt lat="45.61562" lon="4.80933">
        <ele>168.85</ele>
        <time>2013-09-27T12:42:17Z</time>
      </trkpt>
      <trkpt lat="45.61564" lon="4.80961">
        <ele>169.33</ele>
        <time>2013-09-27T12:42:23Z</time>
      </trkpt>
      <trkpt lat="45.61578" lon="4.80961">
        <ele>169.33</ele>
        <time>2013-09-27T12:42:30Z</time>
      </trkpt>
      <trkpt lat="45.61584" lon="4.8093">
        <ele>169.81</ele>
        <time>2013-09-27T12:42:38Z</time>
      </trkpt>
      <trkpt lat="45.61599" lon="4.80927">
        <ele>169.81</ele>
        <time>2013-09-27T12:42:43Z</time>
      </trkpt>
      <trkpt lat="45.61618" lon="4.80936">
        <ele>169.81</ele>
        <time>2013-09-27T12:42:47Z</time>
      </trkpt>
      <trkpt lat="45.61638" lon="4.80945">
        <ele>169.81</ele>
        <time>2013-09-27T12:42:52Z</time>
      </trkpt>
      <trkpt lat="45.61657" lon="4.80953">
        <ele>170.29</ele>
        <time>2013-09-27T12:42:57Z</time>
      </trkpt>
      <trkpt lat="45.61677" lon="4.80962">
        <ele>169.81</ele>
        <time>2013-09-27T12:43:04Z</time>
      </trkpt>
      <trkpt lat="45.61696" lon="4.8097">
        <ele>169.33</ele>
        <time>2013-09-27T12:43:09Z</time>
      </trkpt>
      <trkpt lat="45.61717" lon="4.80978">
        <ele>169.33</ele>
        <time>2013-09-27T12:43:14Z</time>
      </trkpt>
      <trkpt lat="45.61735" lon="4.80986">
        <ele>169.33</ele>
        <time>2013-09-27T12:43:18Z</time>
      </trkpt>
      <trkpt lat="45.61755" lon="4.80994">
        <ele>169.33</ele>
        <time>2013-09-27T12:43:22Z</time>
      </trkpt>
      <trkpt lat="45.61775" lon="4.81003">
        <ele>168.85</ele>
        <time>2013-09-27T12:43:26Z</time>
      </trkpt>
      <trkpt lat="45.61797" lon="4.81011">
        <ele>168.85</ele>
        <time>2013-09-27T12:43:30Z</time>
      </trkpt>
      <trkpt lat="45.61818" lon="4.8102">
        <ele>169.33</ele>
        <time>2013-09-27T12:43:34Z</time>
      </trkpt>
      <trkpt lat="45.6184" lon="4.81028">
        <ele>168.85</ele>
        <time>2013-09-27T12:43:38Z</time>
      </trkpt>
      <trkpt lat="45.61862" lon="4.81036">
        <ele>169.33</ele>
        <time>2013-09-27T12:43:42Z</time>
      </trkpt>
      <trkpt lat="45.61885" lon="4.81046">
        <ele>169.33</ele>
        <time>2013-09-27T12:43:46Z</time>
      </trkpt>
      <trkpt lat="45.61902" lon="4.81053">
        <ele>169.33</ele>
        <time>2013-09-27T12:43:49Z</time>
      </trkpt>
      <trkpt lat="45.6192" lon="4.81061">
        <ele>169.33</ele>
        <time>2013-09-27T12:43:52Z</time>
      </trkpt>
      <trkpt lat="45.61943" lon="4.81071">
        <ele>168.85</ele>
        <time>2013-09-27T12:43:56Z</time>
      </trkpt>
      <trkpt lat="45.61966" lon="4.81081">
        <ele>169.33</ele>
        <time>2013-09-27T12:44:00Z</time>
      </trkpt>
      <trkpt lat="45.61989" lon="4.81091">
        <ele>169.33</ele>
        <time>2013-09-27T12:44:04Z</time>
      </trkpt>
      <trkpt lat="45.62007" lon="4.81098">
        <ele>169.33</ele>
        <time>2013-09-27T12:44:07Z</time>
      </trkpt>
      <trkpt lat="45.62025" lon="4.81105">
        <ele>169.33</ele>
        <time>2013-09-27T12:44:10Z</time>
      </trkpt>
      <trkpt lat="45.62043" lon="4.81112">
        <ele>168.85</ele>
        <time>2013-09-27T12:44:13Z</time>
      </trkpt>
      <trkpt lat="45.6206" lon="4.81119">
        <ele>169.33</ele>
        <time>2013-09-27T12:44:16Z</time>
      </trkpt>
      <trkpt lat="45.62083" lon="4.81128">
        <ele>169.33</ele>
        <time>2013-09-27T12:44:20Z</time>
      </trkpt>
      <trkpt lat="45.621" lon="4.81136">
        <ele>169.81</ele>
        <time>2013-09-27T12:44:23Z</time>
      </trkpt>
      <trkpt lat="45.62123" lon="4.81146">
        <ele>169.81</ele>
        <time>2013-09-27T12:44:27Z</time>
      </trkpt>
      <trkpt lat="45.62141" lon="4.81153">
        <ele>169.81</ele>
        <time>2013-09-27T12:44:30Z</time>
      </trkpt>
      <trkpt lat="45.62161" lon="4.81161">
        <ele>169.33</ele>
        <time>2013-09-27T12:44:33Z</time>
      </trkpt>
      <trkpt lat="45.62179" lon="4.81168">
        <ele>169.33</ele>
        <time>2013-09-27T12:44:36Z</time>
      </trkpt>
      <trkpt lat="45.62197" lon="4.81176">
        <ele>169.33</ele>
        <time>2013-09-27T12:44:39Z</time>
      </trkpt>
      <trkpt lat="45.62215" lon="4.81183">
        <ele>169.33</ele>
        <time>2013-09-27T12:44:42Z</time>
      </trkpt>
      <trkpt lat="45.62234" lon="4.81192">
        <ele>169.33</ele>
        <time>2013-09-27T12:44:45Z</time>
      </trkpt>
      <trkpt lat="45.62253" lon="4.812">
        <ele>169.33</ele>
        <time>2013-09-27T12:44:48Z</time>
      </trkpt>
      <trkpt lat="45.62271" lon="4.81208">
        <ele>168.85</ele>
        <time>2013-09-27T12:44:51Z</time>
      </trkpt>
      <trkpt lat="45.6229" lon="4.81215">
        <ele>168.37</ele>
        <time>2013-09-27T12:44:54Z</time>
      </trkpt>
      <trkpt lat="45.62308" lon="4.81222">
        <ele>168.85</ele>
        <time>2013-09-27T12:44:57Z</time>
      </trkpt>
      <trkpt lat="45.62326" lon="4.81229">
        <ele>169.33</ele>
        <time>2013-09-27T12:45:00Z</time>
      </trkpt>
      <trkpt lat="45.62344" lon="4.81235">
        <ele>168.85</ele>
        <time>2013-09-27T12:45:03Z</time>
      </trkpt>
      <trkpt lat="45.62362" lon="4.81242">
        <ele>168.85</ele>
        <time>2013-09-27T12:45:06Z</time>
      </trkpt>
      <trkpt lat="45.6238" lon="4.81249">
        <ele>169.33</ele>
        <time>2013-09-27T12:45:09Z</time>
      </trkpt>
      <trkpt lat="45.62398" lon="4.81257">
        <ele>169.33</ele>
        <time>2013-09-27T12:45:12Z</time>
      </trkpt>
      <trkpt lat="45.62417" lon="4.81264">
        <ele>169.33</ele>
        <time>2013-09-27T12:45:15Z</time>
      </trkpt>
      <trkpt lat="45.62435" lon="4.81272">
        <ele>168.85</ele>
        <time>2013-09-27T12:45:18Z</time>
      </trkpt>
      <trkpt lat="45.62454" lon="4.8128">
        <ele>168.85</ele>
        <time>2013-09-27T12:45:21Z</time>
      </trkpt>
      <trkpt lat="45.62473" lon="4.81288">
        <ele>169.33</ele>
        <time>2013-09-27T12:45:24Z</time>
      </trkpt>
      <trkpt lat="45.62492" lon="4.81296">
        <ele>169.33</ele>
        <time>2013-09-27T12:45:27Z</time>
      </trkpt>
      <trkpt lat="45.6251" lon="4.81303">
        <ele>169.33</ele>
        <time>2013-09-27T12:45:30Z</time>
      </trkpt>
      <trkpt lat="45.62529" lon="4.81311">
        <ele>169.81</ele>
        <time>2013-09-27T12:45:33Z</time>
      </trkpt>
      <trkpt lat="45.62548" lon="4.8132">
        <ele>169.33</ele>
        <time>2013-09-27T12:45:36Z</time>
      </trkpt>
      <trkpt lat="45.62567" lon="4.81327">
        <ele>169.33</ele>
        <time>2013-09-27T12:45:39Z</time>
      </trkpt>
      <trkpt lat="45.62586" lon="4.81335">
        <ele>168.85</ele>
        <time>2013-09-27T12:45:42Z</time>
      </trkpt>
      <trkpt lat="45.62605" lon="4.81342">
        <ele>168.85</ele>
        <time>2013-09-27T12:45:45Z</time>
      </trkpt>
      <trkpt lat="45.62624" lon="4.81352">
        <ele>169.33</ele>
        <time>2013-09-27T12:45:48Z</time>
      </trkpt>
      <trkpt lat="45.62642" lon="4.81362">
        <ele>169.33</ele>
        <time>2013-09-27T12:45:51Z</time>
      </trkpt>
      <trkpt lat="45.6266" lon="4.81371">
        <ele>169.33</ele>
        <time>2013-09-27T12:45:54Z</time>
      </trkpt>
      <trkpt lat="45.62679" lon="4.8138">
        <ele>169.33</ele>
        <time>2013-09-27T12:45:57Z</time>
      </trkpt>
      <trkpt lat="45.62698" lon="4.81389">
        <ele>168.85</ele>
        <time>2013-09-27T12:46:00Z</time>
      </trkpt>
      <trkpt lat="45.62716" lon="4.81398">
        <ele>169.33</ele>
        <time>2013-09-27T12:46:03Z</time>
      </trkpt>
      <trkpt lat="45.62735" lon="4.81407">
        <ele>169.33</ele>
        <time>2013-09-27T12:46:06Z</time>
      </trkpt>
      <trkpt lat="45.62754" lon="4.81416">
        <ele>168.85</ele>
        <time>2013-09-27T12:46:09Z</time>
      </trkpt>
      <trkpt lat="45.62773" lon="4.81426">
        <ele>169.33</ele>
        <time>2013-09-27T12:46:12Z</time>
      </trkpt>
      <trkpt lat="45.62792" lon="4.81435">
        <ele>169.33</ele>
        <time>2013-09-27T12:46:15Z</time>
      </trkpt>
      <trkpt lat="45.62811" lon="4.81445">
        <ele>168.85</ele>
        <time>2013-09-27T12:46:18Z</time>
      </trkpt>
      <trkpt lat="45.62829" lon="4.81454">
        <ele>169.33</ele>
        <time>2013-09-27T12:46:21Z</time>
      </trkpt>
      <trkpt lat="45.62848" lon="4.81464">
        <ele>168.85</ele>
        <time>2013-09-27T12:46:24Z</time>
      </trkpt>
      <trkpt lat="45.62866" lon="4.81475">
        <ele>169.33</ele>
        <time>2013-09-27T12:46:27Z</time>
      </trkpt>
      <trkpt lat="45.62885" lon="4.81485">
        <ele>169.33</ele>
        <time>2013-09-27T12:46:30Z</time>
      </trkpt>
      <trkpt lat="45.62904" lon="4.81494">
        <ele>169.33</ele>
        <time>2013-09-27T12:46:33Z</time>
      </trkpt>
      <trkpt lat="45.62923" lon="4.81504">
        <ele>169.33</ele>
        <time>2013-09-27T12:46:36Z</time>
      </trkpt>
      <trkpt lat="45.62941" lon="4.81513">
        <ele>168.85</ele>
        <time>2013-09-27T12:46:39Z</time>
      </trkpt>
      <trkpt lat="45.6296" lon="4.81523">
        <ele>168.85</ele>
        <time>2013-09-27T12:46:42Z</time>
      </trkpt>
      <trkpt lat="45.62978" lon="4.81532">
        <ele>169.33</ele>
        <time>2013-09-27T12:46:45Z</time>
      </trkpt>
      <trkpt lat="45.62996" lon="4.81542">
        <ele>168.85</ele>
        <time>2013-09-27T12:46:48Z</time>
      </trkpt>
      <trkpt lat="45.63014" lon="4.81553">
        <ele>169.81</ele>
        <time>2013-09-27T12:46:51Z</time>
      </trkpt>
      <trkpt lat="45.63031" lon="4.81564">
        <ele>169.33</ele>
        <time>2013-09-27T12:46:54Z</time>
      </trkpt>
      <trkpt lat="45.63049" lon="4.81574">
        <ele>169.81</ele>
        <time>2013-09-27T12:46:57Z</time>
      </trkpt>
      <trkpt lat="45.63065" lon="4.81585">
        <ele>169.33</ele>
        <time>2013-09-27T12:47:00Z</time>
      </trkpt>
      <trkpt lat="45.63083" lon="4.81595">
        <ele>169.33</ele>
        <time>2013-09-27T12:47:03Z</time>
      </trkpt>
      <trkpt lat="45.631" lon="4.81604">
        <ele>169.33</ele>
        <time>2013-09-27T12:47:06Z</time>
      </trkpt>
      <trkpt lat="45.63118" lon="4.81615">
        <ele>169.81</ele>
        <time>2013-09-27T12:47:09Z</time>
      </trkpt>
      <trkpt lat="45.63135" lon="4.81626">
        <ele>169.33</ele>
        <time>2013-09-27T12:47:12Z</time>
      </trkpt>
      <trkpt lat="45.63152" lon="4.81637">
        <ele>169.81</ele>
        <time>2013-09-27T12:47:15Z</time>
      </trkpt>
      <trkpt lat="45.6317" lon="4.81647">
        <ele>169.81</ele>
        <time>2013-09-27T12:47:18Z</time>
      </trkpt>
      <trkpt lat="45.63188" lon="4.81658">
        <ele>169.81</ele>
        <time>2013-09-27T12:47:21Z</time>
      </trkpt>
      <trkpt lat="45.63206" lon="4.81669">
        <ele>169.33</ele>
        <time>2013-09-27T12:47:24Z</time>
      </trkpt>
      <trkpt lat="45.63224" lon="4.8168">
        <ele>169.33</ele>
        <time>2013-09-27T12:47:27Z</time>
      </trkpt>
      <trkpt lat="45.63242" lon="4.81691">
        <ele>169.81</ele>
        <time>2013-09-27T12:47:30Z</time>
      </trkpt>
      <trkpt lat="45.6326" lon="4.81703">
        <ele>169.33</ele>
        <time>2013-09-27T12:47:33Z</time>
      </trkpt>
      <trkpt lat="45.63278" lon="4.81717">
        <ele>169.33</ele>
        <time>2013-09-27T12:47:36Z</time>
      </trkpt>
      <trkpt lat="45.63295" lon="4.81732">
        <ele>169.81</ele>
        <time>2013-09-27T12:47:39Z</time>
      </trkpt>
      <trkpt lat="45.63314" lon="4.81745">
        <ele>169.33</ele>
        <time>2013-09-27T12:47:42Z</time>
      </trkpt>
      <trkpt lat="45.63331" lon="4.81758">
        <ele>170.29</ele>
        <time>2013-09-27T12:47:45Z</time>
      </trkpt>
      <trkpt lat="45.6335" lon="4.8177">
        <ele>170.29</ele>
        <time>2013-09-27T12:47:48Z</time>
      </trkpt>
      <trkpt lat="45.63368" lon="4.8178">
        <ele>170.29</ele>
        <time>2013-09-27T12:47:51Z</time>
      </trkpt>
      <trkpt lat="45.63386" lon="4.8179">
        <ele>169.81</ele>
        <time>2013-09-27T12:47:54Z</time>
      </trkpt>
      <trkpt lat="45.63404" lon="4.81802">
        <ele>170.29</ele>
        <time>2013-09-27T12:47:57Z</time>
      </trkpt>
      <trkpt lat="45.63421" lon="4.81813">
        <ele>170.29</ele>
        <time>2013-09-27T12:48:00Z</time>
      </trkpt>
      <trkpt lat="45.6344" lon="4.81829">
        <ele>169.81</ele>
        <time>2013-09-27T12:48:04Z</time>
      </trkpt>
      <trkpt lat="45.63458" lon="4.8183">
        <ele>168.37</ele>
        <time>2013-09-27T12:48:11Z</time>
      </trkpt>
      <trkpt lat="45.63477" lon="4.81841">
        <ele>166.93</ele>
        <time>2013-09-27T12:48:15Z</time>
      </trkpt>
      <trkpt lat="45.63495" lon="4.8186">
        <ele>167.41</ele>
        <time>2013-09-27T12:48:19Z</time>
      </trkpt>
      <trkpt lat="45.63515" lon="4.81877">
        <ele>167.89</ele>
        <time>2013-09-27T12:48:23Z</time>
      </trkpt>
      <trkpt lat="45.63538" lon="4.81886">
        <ele>167.41</ele>
        <time>2013-09-27T12:48:27Z</time>
      </trkpt>
      <trkpt lat="45.63557" lon="4.81897">
        <ele>166.93</ele>
        <time>2013-09-27T12:48:30Z</time>
      </trkpt>
      <trkpt lat="45.63575" lon="4.81913">
        <ele>167.41</ele>
        <time>2013-09-27T12:48:33Z</time>
      </trkpt>
      <trkpt lat="45.63593" lon="4.81926">
        <ele>166.93</ele>
        <time>2013-09-27T12:48:36Z</time>
      </trkpt>
      <trkpt lat="45.6361" lon="4.81941">
        <ele>167.41</ele>
        <time>2013-09-27T12:48:39Z</time>
      </trkpt>
      <trkpt lat="45.63627" lon="4.81954">
        <ele>167.89</ele>
        <time>2013-09-27T12:48:42Z</time>
      </trkpt>
      <trkpt lat="45.63644" lon="4.81966">
        <ele>167.89</ele>
        <time>2013-09-27T12:48:45Z</time>
      </trkpt>
      <trkpt lat="45.6366" lon="4.8198">
        <ele>168.85</ele>
        <time>2013-09-27T12:48:48Z</time>
      </trkpt>
      <trkpt lat="45.63676" lon="4.82002">
        <ele>169.81</ele>
        <time>2013-09-27T12:48:53Z</time>
      </trkpt>
      <trkpt lat="45.63693" lon="4.82018">
        <ele>169.81</ele>
        <time>2013-09-27T12:48:57Z</time>
      </trkpt>
      <trkpt lat="45.63713" lon="4.82033">
        <ele>170.29</ele>
        <time>2013-09-27T12:49:01Z</time>
      </trkpt>
      <trkpt lat="45.63733" lon="4.82049">
        <ele>169.81</ele>
        <time>2013-09-27T12:49:05Z</time>
      </trkpt>
      <trkpt lat="45.63754" lon="4.82066">
        <ele>168.85</ele>
        <time>2013-09-27T12:49:09Z</time>
      </trkpt>
      <trkpt lat="45.6377" lon="4.82079">
        <ele>169.33</ele>
        <time>2013-09-27T12:49:12Z</time>
      </trkpt>
      <trkpt lat="45.63786" lon="4.82092">
        <ele>170.29</ele>
        <time>2013-09-27T12:49:15Z</time>
      </trkpt>
      <trkpt lat="45.63802" lon="4.82106">
        <ele>169.81</ele>
        <time>2013-09-27T12:49:18Z</time>
      </trkpt>
      <trkpt lat="45.63817" lon="4.82119">
        <ele>169.33</ele>
        <time>2013-09-27T12:49:21Z</time>
      </trkpt>
      <trkpt lat="45.63833" lon="4.82132">
        <ele>169.81</ele>
        <time>2013-09-27T12:49:24Z</time>
      </trkpt>
      <trkpt lat="45.63854" lon="4.82149">
        <ele>169.33</ele>
        <time>2013-09-27T12:49:28Z</time>
      </trkpt>
      <trkpt lat="45.63873" lon="4.82165">
        <ele>169.33</ele>
        <time>2013-09-27T12:49:32Z</time>
      </trkpt>
      <trkpt lat="45.63888" lon="4.82181">
        <ele>169.81</ele>
        <time>2013-09-27T12:49:36Z</time>
      </trkpt>
      <trkpt lat="45.63906" lon="4.82182">
        <ele>169.33</ele>
        <time>2013-09-27T12:49:41Z</time>
      </trkpt>
      <trkpt lat="45.63924" lon="4.82192">
        <ele>167.41</ele>
        <time>2013-09-27T12:49:45Z</time>
      </trkpt>
      <trkpt lat="45.63941" lon="4.8221">
        <ele>168.37</ele>
        <time>2013-09-27T12:49:48Z</time>
      </trkpt>
      <trkpt lat="45.63958" lon="4.82222">
        <ele>167.89</ele>
        <time>2013-09-27T12:49:51Z</time>
      </trkpt>
      <trkpt lat="45.63976" lon="4.82237">
        <ele>167.89</ele>
        <time>2013-09-27T12:49:54Z</time>
      </trkpt>
      <trkpt lat="45.63994" lon="4.82253">
        <ele>167.41</ele>
        <time>2013-09-27T12:49:57Z</time>
      </trkpt>
      <trkpt lat="45.64011" lon="4.8227">
        <ele>167.89</ele>
        <time>2013-09-27T12:50:00Z</time>
      </trkpt>
      <trkpt lat="45.64031" lon="4.82285">
        <ele>167.41</ele>
        <time>2013-09-27T12:50:03Z</time>
      </trkpt>
      <trkpt lat="45.6405" lon="4.82301">
        <ele>168.37</ele>
        <time>2013-09-27T12:50:06Z</time>
      </trkpt>
      <trkpt lat="45.64069" lon="4.82315">
        <ele>166.93</ele>
        <time>2013-09-27T12:50:09Z</time>
      </trkpt>
      <trkpt lat="45.64089" lon="4.82331">
        <ele>167.89</ele>
        <time>2013-09-27T12:50:12Z</time>
      </trkpt>
      <trkpt lat="45.64109" lon="4.82347">
        <ele>167.41</ele>
        <time>2013-09-27T12:50:15Z</time>
      </trkpt>
      <trkpt lat="45.64129" lon="4.82364">
        <ele>167.41</ele>
        <time>2013-09-27T12:50:18Z</time>
      </trkpt>
      <trkpt lat="45.64148" lon="4.82378">
        <ele>167.89</ele>
        <time>2013-09-27T12:50:21Z</time>
      </trkpt>
      <trkpt lat="45.64165" lon="4.82396">
        <ele>168.37</ele>
        <time>2013-09-27T12:50:24Z</time>
      </trkpt>
      <trkpt lat="45.64185" lon="4.82413">
        <ele>168.37</ele>
        <time>2013-09-27T12:50:28Z</time>
      </trkpt>
      <trkpt lat="45.64202" lon="4.82428">
        <ele>167.89</ele>
        <time>2013-09-27T12:50:31Z</time>
      </trkpt>
      <trkpt lat="45.64218" lon="4.82445">
        <ele>167.89</ele>
        <time>2013-09-27T12:50:34Z</time>
      </trkpt>
      <trkpt lat="45.64234" lon="4.82459">
        <ele>168.37</ele>
        <time>2013-09-27T12:50:37Z</time>
      </trkpt>
      <trkpt lat="45.64251" lon="4.82475">
        <ele>167.89</ele>
        <time>2013-09-27T12:50:40Z</time>
      </trkpt>
      <trkpt lat="45.64273" lon="4.82488">
        <ele>168.37</ele>
        <time>2013-09-27T12:50:44Z</time>
      </trkpt>
      <trkpt lat="45.64293" lon="4.82498">
        <ele>168.37</ele>
        <time>2013-09-27T12:50:48Z</time>
      </trkpt>
      <trkpt lat="45.64304" lon="4.8252">
        <ele>169.81</ele>
        <time>2013-09-27T12:50:55Z</time>
      </trkpt>
      <trkpt lat="45.64321" lon="4.8253">
        <ele>170.29</ele>
        <time>2013-09-27T12:51:07Z</time>
      </trkpt>
      <trkpt lat="45.64337" lon="4.82545">
        <ele>169.33</ele>
        <time>2013-09-27T12:51:14Z</time>
      </trkpt>
      <trkpt lat="45.64354" lon="4.82566">
        <ele>170.29</ele>
        <time>2013-09-27T12:51:20Z</time>
      </trkpt>
      <trkpt lat="45.64369" lon="4.82584">
        <ele>170.29</ele>
        <time>2013-09-27T12:51:26Z</time>
      </trkpt>
      <trkpt lat="45.64386" lon="4.82599">
        <ele>170.29</ele>
        <time>2013-09-27T12:51:32Z</time>
      </trkpt>
      <trkpt lat="45.64405" lon="4.82612">
        <ele>170.29</ele>
        <time>2013-09-27T12:51:37Z</time>
      </trkpt>
      <trkpt lat="45.64422" lon="4.82626">
        <ele>170.29</ele>
        <time>2013-09-27T12:51:41Z</time>
      </trkpt>
      <trkpt lat="45.64439" lon="4.8264">
        <ele>169.81</ele>
        <time>2013-09-27T12:51:45Z</time>
      </trkpt>
      <trkpt lat="45.64457" lon="4.82653">
        <ele>170.29</ele>
        <time>2013-09-27T12:51:49Z</time>
      </trkpt>
      <trkpt lat="45.64476" lon="4.82667">
        <ele>170.29</ele>
        <time>2013-09-27T12:51:53Z</time>
      </trkpt>
      <trkpt lat="45.64496" lon="4.82682">
        <ele>170.29</ele>
        <time>2013-09-27T12:51:57Z</time>
      </trkpt>
      <trkpt lat="45.64515" lon="4.82698">
        <ele>170.29</ele>
        <time>2013-09-27T12:52:01Z</time>
      </trkpt>
      <trkpt lat="45.64534" lon="4.82712">
        <ele>169.81</ele>
        <time>2013-09-27T12:52:05Z</time>
      </trkpt>
      <trkpt lat="45.64554" lon="4.82727">
        <ele>170.29</ele>
        <time>2013-09-27T12:52:09Z</time>
      </trkpt>
      <trkpt lat="45.64573" lon="4.82743">
        <ele>170.29</ele>
        <time>2013-09-27T12:52:13Z</time>
      </trkpt>
      <trkpt lat="45.64592" lon="4.82758">
        <ele>169.81</ele>
        <time>2013-09-27T12:52:17Z</time>
      </trkpt>
      <trkpt lat="45.64611" lon="4.82773">
        <ele>169.81</ele>
        <time>2013-09-27T12:52:21Z</time>
      </trkpt>
      <trkpt lat="45.6463" lon="4.82788">
        <ele>169.81</ele>
        <time>2013-09-27T12:52:25Z</time>
      </trkpt>
      <trkpt lat="45.64649" lon="4.82803">
        <ele>170.29</ele>
        <time>2013-09-27T12:52:29Z</time>
      </trkpt>
      <trkpt lat="45.64669" lon="4.82818">
        <ele>170.29</ele>
        <time>2013-09-27T12:52:33Z</time>
      </trkpt>
      <trkpt lat="45.64688" lon="4.82833">
        <ele>170.77</ele>
        <time>2013-09-27T12:52:37Z</time>
      </trkpt>
      <trkpt lat="45.64708" lon="4.82849">
        <ele>169.81</ele>
        <time>2013-09-27T12:52:41Z</time>
      </trkpt>
      <trkpt lat="45.64729" lon="4.82865">
        <ele>169.81</ele>
        <time>2013-09-27T12:52:45Z</time>
      </trkpt>
      <trkpt lat="45.64748" lon="4.82882">
        <ele>169.81</ele>
        <time>2013-09-27T12:52:49Z</time>
      </trkpt>
      <trkpt lat="45.64767" lon="4.82897">
        <ele>169.81</ele>
        <time>2013-09-27T12:52:53Z</time>
      </trkpt>
      <trkpt lat="45.64785" lon="4.8291">
        <ele>169.81</ele>
        <time>2013-09-27T12:52:57Z</time>
      </trkpt>
      <trkpt lat="45.64803" lon="4.82924">
        <ele>169.81</ele>
        <time>2013-09-27T12:53:01Z</time>
      </trkpt>
      <trkpt lat="45.64822" lon="4.82938">
        <ele>169.81</ele>
        <time>2013-09-27T12:53:05Z</time>
      </trkpt>
      <trkpt lat="45.6484" lon="4.82953">
        <ele>169.81</ele>
        <time>2013-09-27T12:53:09Z</time>
      </trkpt>
      <trkpt lat="45.64859" lon="4.82967">
        <ele>169.81</ele>
        <time>2013-09-27T12:53:13Z</time>
      </trkpt>
      <trkpt lat="45.64879" lon="4.82982">
        <ele>169.81</ele>
        <time>2013-09-27T12:53:17Z</time>
      </trkpt>
      <trkpt lat="45.64898" lon="4.82996">
        <ele>169.81</ele>
        <time>2013-09-27T12:53:21Z</time>
      </trkpt>
      <trkpt lat="45.64916" lon="4.83011">
        <ele>170.29</ele>
        <time>2013-09-27T12:53:25Z</time>
      </trkpt>
      <trkpt lat="45.64934" lon="4.83024">
        <ele>170.29</ele>
        <time>2013-09-27T12:53:29Z</time>
      </trkpt>
      <trkpt lat="45.64952" lon="4.83039">
        <ele>169.81</ele>
        <time>2013-09-27T12:53:33Z</time>
      </trkpt>
      <trkpt lat="45.6497" lon="4.83053">
        <ele>170.77</ele>
        <time>2013-09-27T12:53:37Z</time>
      </trkpt>
      <trkpt lat="45.64989" lon="4.83067">
        <ele>170.29</ele>
        <time>2013-09-27T12:53:41Z</time>
      </trkpt>
      <trkpt lat="45.65008" lon="4.83083">
        <ele>170.77</ele>
        <time>2013-09-27T12:53:45Z</time>
      </trkpt>
      <trkpt lat="45.65029" lon="4.83099">
        <ele>170.29</ele>
        <time>2013-09-27T12:53:49Z</time>
      </trkpt>
      <trkpt lat="45.65049" lon="4.83114">
        <ele>170.77</ele>
        <time>2013-09-27T12:53:53Z</time>
      </trkpt>
      <trkpt lat="45.65069" lon="4.8313">
        <ele>170.29</ele>
        <time>2013-09-27T12:53:57Z</time>
      </trkpt>
      <trkpt lat="45.65088" lon="4.83145">
        <ele>170.77</ele>
        <time>2013-09-27T12:54:01Z</time>
      </trkpt>
      <trkpt lat="45.65107" lon="4.83158">
        <ele>170.29</ele>
        <time>2013-09-27T12:54:05Z</time>
      </trkpt>
      <trkpt lat="45.65126" lon="4.83173">
        <ele>170.29</ele>
        <time>2013-09-27T12:54:09Z</time>
      </trkpt>
      <trkpt lat="45.65144" lon="4.83187">
        <ele>170.77</ele>
        <time>2013-09-27T12:54:13Z</time>
      </trkpt>
      <trkpt lat="45.65163" lon="4.83201">
        <ele>170.77</ele>
        <time>2013-09-27T12:54:17Z</time>
      </trkpt>
      <trkpt lat="45.65181" lon="4.83216">
        <ele>170.77</ele>
        <time>2013-09-27T12:54:21Z</time>
      </trkpt>
      <trkpt lat="45.652" lon="4.83229">
        <ele>170.77</ele>
        <time>2013-09-27T12:54:25Z</time>
      </trkpt>
      <trkpt lat="45.65218" lon="4.83244">
        <ele>170.77</ele>
        <time>2013-09-27T12:54:29Z</time>
      </trkpt>
      <trkpt lat="45.65236" lon="4.83258">
        <ele>170.77</ele>
        <time>2013-09-27T12:54:33Z</time>
      </trkpt>
      <trkpt lat="45.65253" lon="4.83271">
        <ele>170.77</ele>
        <time>2013-09-27T12:54:37Z</time>
      </trkpt>
      <trkpt lat="45.6527" lon="4.83284">
        <ele>170.29</ele>
        <time>2013-09-27T12:54:41Z</time>
      </trkpt>
      <trkpt lat="45.65287" lon="4.83298">
        <ele>170.77</ele>
        <time>2013-09-27T12:54:45Z</time>
      </trkpt>
      <trkpt lat="45.65305" lon="4.83312">
        <ele>170.77</ele>
        <time>2013-09-27T12:54:49Z</time>
      </trkpt>
      <trkpt lat="45.65323" lon="4.83326">
        <ele>170.29</ele>
        <time>2013-09-27T12:54:53Z</time>
      </trkpt>
      <trkpt lat="45.6534" lon="4.83339">
        <ele>171.25</ele>
        <time>2013-09-27T12:54:57Z</time>
      </trkpt>
      <trkpt lat="45.65357" lon="4.83353">
        <ele>170.77</ele>
        <time>2013-09-27T12:55:01Z</time>
      </trkpt>
      <trkpt lat="45.65376" lon="4.83367">
        <ele>170.77</ele>
        <time>2013-09-27T12:55:06Z</time>
      </trkpt>
      <trkpt lat="45.65396" lon="4.83379">
        <ele>170.77</ele>
        <time>2013-09-27T12:55:12Z</time>
      </trkpt>
      <trkpt lat="45.65412" lon="4.83394">
        <ele>170.77</ele>
        <time>2013-09-27T12:55:16Z</time>
      </trkpt>
      <trkpt lat="45.65431" lon="4.83408">
        <ele>170.77</ele>
        <time>2013-09-27T12:55:20Z</time>
      </trkpt>
      <trkpt lat="45.65449" lon="4.83423">
        <ele>170.77</ele>
        <time>2013-09-27T12:55:24Z</time>
      </trkpt>
      <trkpt lat="45.65467" lon="4.83438">
        <ele>171.25</ele>
        <time>2013-09-27T12:55:28Z</time>
      </trkpt>
      <trkpt lat="45.65486" lon="4.83453">
        <ele>170.77</ele>
        <time>2013-09-27T12:55:32Z</time>
      </trkpt>
      <trkpt lat="45.65505" lon="4.83468">
        <ele>170.29</ele>
        <time>2013-09-27T12:55:36Z</time>
      </trkpt>
      <trkpt lat="45.65525" lon="4.83482">
        <ele>171.25</ele>
        <time>2013-09-27T12:55:40Z</time>
      </trkpt>
      <trkpt lat="45.65545" lon="4.83499">
        <ele>170.77</ele>
        <time>2013-09-27T12:55:44Z</time>
      </trkpt>
      <trkpt lat="45.65564" lon="4.83514">
        <ele>170.77</ele>
        <time>2013-09-27T12:55:48Z</time>
      </trkpt>
      <trkpt lat="45.65582" lon="4.83529">
        <ele>170.77</ele>
        <time>2013-09-27T12:55:52Z</time>
      </trkpt>
      <trkpt lat="45.656" lon="4.83543">
        <ele>171.25</ele>
        <time>2013-09-27T12:55:56Z</time>
      </trkpt>
      <trkpt lat="45.65619" lon="4.83555">
        <ele>170.77</ele>
        <time>2013-09-27T12:56:00Z</time>
      </trkpt>
      <trkpt lat="45.65638" lon="4.83571">
        <ele>170.29</ele>
        <time>2013-09-27T12:56:04Z</time>
      </trkpt>
      <trkpt lat="45.65658" lon="4.83584">
        <ele>170.29</ele>
        <time>2013-09-27T12:56:08Z</time>
      </trkpt>
      <trkpt lat="45.65678" lon="4.83597">
        <ele>170.29</ele>
        <time>2013-09-27T12:56:12Z</time>
      </trkpt>
      <trkpt lat="45.65699" lon="4.8361">
        <ele>170.29</ele>
        <time>2013-09-27T12:56:16Z</time>
      </trkpt>
      <trkpt lat="45.6572" lon="4.83623">
        <ele>170.29</ele>
        <time>2013-09-27T12:56:20Z</time>
      </trkpt>
      <trkpt lat="45.6574" lon="4.83635">
        <ele>170.29</ele>
        <time>2013-09-27T12:56:24Z</time>
      </trkpt>
      <trkpt lat="45.65759" lon="4.83646">
        <ele>170.77</ele>
        <time>2013-09-27T12:56:28Z</time>
      </trkpt>
      <trkpt lat="45.65779" lon="4.83658">
        <ele>170.29</ele>
        <time>2013-09-27T12:56:32Z</time>
      </trkpt>
      <trkpt lat="45.658" lon="4.8367">
        <ele>170.77</ele>
        <time>2013-09-27T12:56:36Z</time>
      </trkpt>
      <trkpt lat="45.6582" lon="4.83682">
        <ele>170.29</ele>
        <time>2013-09-27T12:56:40Z</time>
      </trkpt>
      <trkpt lat="45.65841" lon="4.83694">
        <ele>170.77</ele>
        <time>2013-09-27T12:56:44Z</time>
      </trkpt>
      <trkpt lat="45.65863" lon="4.83705">
        <ele>170.77</ele>
        <time>2013-09-27T12:56:48Z</time>
      </trkpt>
      <trkpt lat="45.65884" lon="4.83715">
        <ele>170.29</ele>
        <time>2013-09-27T12:56:52Z</time>
      </trkpt>
      <trkpt lat="45.65906" lon="4.83725">
        <ele>170.29</ele>
        <time>2013-09-27T12:56:56Z</time>
      </trkpt>
      <trkpt lat="45.65927" lon="4.83736">
        <ele>170.29</ele>
        <time>2013-09-27T12:57:00Z</time>
      </trkpt>
      <trkpt lat="45.65949" lon="4.83743">
        <ele>170.77</ele>
        <time>2013-09-27T12:57:04Z</time>
      </trkpt>
      <trkpt lat="45.6597" lon="4.83751">
        <ele>170.77</ele>
        <time>2013-09-27T12:57:08Z</time>
      </trkpt>
      <trkpt lat="45.65992" lon="4.83759">
        <ele>170.29</ele>
        <time>2013-09-27T12:57:12Z</time>
      </trkpt>
      <trkpt lat="45.66015" lon="4.83766">
        <ele>170.77</ele>
        <time>2013-09-27T12:57:16Z</time>
      </trkpt>
      <trkpt lat="45.66037" lon="4.83774">
        <ele>169.81</ele>
        <time>2013-09-27T12:57:20Z</time>
      </trkpt>
      <trkpt lat="45.66058" lon="4.83783">
        <ele>170.29</ele>
        <time>2013-09-27T12:57:24Z</time>
      </trkpt>
      <trkpt lat="45.6608" lon="4.83789">
        <ele>170.77</ele>
        <time>2013-09-27T12:57:28Z</time>
      </trkpt>
      <trkpt lat="45.66101" lon="4.83796">
        <ele>170.29</ele>
        <time>2013-09-27T12:57:32Z</time>
      </trkpt>
      <trkpt lat="45.66122" lon="4.83802">
        <ele>170.29</ele>
        <time>2013-09-27T12:57:36Z</time>
      </trkpt>
      <trkpt lat="45.66143" lon="4.83807">
        <ele>169.81</ele>
        <time>2013-09-27T12:57:40Z</time>
      </trkpt>
      <trkpt lat="45.66164" lon="4.83813">
        <ele>170.29</ele>
        <time>2013-09-27T12:57:44Z</time>
      </trkpt>
      <trkpt lat="45.66185" lon="4.83818">
        <ele>170.29</ele>
        <time>2013-09-27T12:57:48Z</time>
      </trkpt>
      <trkpt lat="45.66206" lon="4.83821">
        <ele>170.77</ele>
        <time>2013-09-27T12:57:52Z</time>
      </trkpt>
      <trkpt lat="45.66228" lon="4.83826">
        <ele>170.29</ele>
        <time>2013-09-27T12:57:56Z</time>
      </trkpt>
      <trkpt lat="45.66248" lon="4.83829">
        <ele>170.77</ele>
        <time>2013-09-27T12:58:00Z</time>
      </trkpt>
      <trkpt lat="45.6627" lon="4.83832">
        <ele>170.29</ele>
        <time>2013-09-27T12:58:04Z</time>
      </trkpt>
      <trkpt lat="45.66291" lon="4.83834">
        <ele>170.29</ele>
        <time>2013-09-27T12:58:08Z</time>
      </trkpt>
      <trkpt lat="45.66313" lon="4.83837">
        <ele>170.29</ele>
        <time>2013-09-27T12:58:12Z</time>
      </trkpt>
      <trkpt lat="45.66335" lon="4.83839">
        <ele>170.29</ele>
        <time>2013-09-27T12:58:16Z</time>
      </trkpt>
      <trkpt lat="45.66357" lon="4.83841">
        <ele>169.81</ele>
        <time>2013-09-27T12:58:20Z</time>
      </trkpt>
      <trkpt lat="45.6638" lon="4.83842">
        <ele>170.29</ele>
        <time>2013-09-27T12:58:24Z</time>
      </trkpt>
      <trkpt lat="45.66402" lon="4.83843">
        <ele>170.29</ele>
        <time>2013-09-27T12:58:28Z</time>
      </trkpt>
      <trkpt lat="45.66424" lon="4.83846">
        <ele>170.29</ele>
        <time>2013-09-27T12:58:32Z</time>
      </trkpt>
      <trkpt lat="45.66446" lon="4.83848">
        <ele>170.29</ele>
        <time>2013-09-27T12:58:36Z</time>
      </trkpt>
      <trkpt lat="45.66468" lon="4.83849">
        <ele>170.29</ele>
        <time>2013-09-27T12:58:40Z</time>
      </trkpt>
      <trkpt lat="45.6649" lon="4.8385">
        <ele>170.29</ele>
        <time>2013-09-27T12:58:44Z</time>
      </trkpt>
      <trkpt lat="45.66512" lon="4.83852">
        <ele>169.81</ele>
        <time>2013-09-27T12:58:48Z</time>
      </trkpt>
      <trkpt lat="45.66534" lon="4.83853">
        <ele>169.81</ele>
        <time>2013-09-27T12:58:52Z</time>
      </trkpt>
      <trkpt lat="45.66556" lon="4.83854">
        <ele>170.29</ele>
        <time>2013-09-27T12:58:56Z</time>
      </trkpt>
      <trkpt lat="45.66578" lon="4.83855">
        <ele>170.29</ele>
        <time>2013-09-27T12:59:00Z</time>
      </trkpt>
      <trkpt lat="45.66601" lon="4.83858">
        <ele>170.77</ele>
        <time>2013-09-27T12:59:04Z</time>
      </trkpt>
      <trkpt lat="45.66622" lon="4.83861">
        <ele>169.81</ele>
        <time>2013-09-27T12:59:08Z</time>
      </trkpt>
      <trkpt lat="45.6664" lon="4.83862">
        <ele>170.29</ele>
        <time>2013-09-27T12:59:12Z</time>
      </trkpt>
      <trkpt lat="45.66658" lon="4.83847">
        <ele>168.85</ele>
        <time>2013-09-27T12:59:19Z</time>
      </trkpt>
      <trkpt lat="45.66677" lon="4.83841">
        <ele>166.45</ele>
        <time>2013-09-27T12:59:26Z</time>
      </trkpt>
      <trkpt lat="45.66695" lon="4.83835">
        <ele>165</ele>
        <time>2013-09-27T12:59:33Z</time>
      </trkpt>
      <trkpt lat="45.66711" lon="4.8383">
        <ele>164.04</ele>
        <time>2013-09-27T12:59:41Z</time>
      </trkpt>
      <trkpt lat="45.66732" lon="4.83833">
        <ele>164.04</ele>
        <time>2013-09-27T12:59:48Z</time>
      </trkpt>
      <trkpt lat="45.66751" lon="4.83835">
        <ele>164.04</ele>
        <time>2013-09-27T12:59:54Z</time>
      </trkpt>
      <trkpt lat="45.6677" lon="4.83836">
        <ele>163.56</ele>
        <time>2013-09-27T12:59:59Z</time>
      </trkpt>
      <trkpt lat="45.66788" lon="4.83837">
        <ele>164.04</ele>
        <time>2013-09-27T13:00:04Z</time>
      </trkpt>
      <trkpt lat="45.66808" lon="4.83837">
        <ele>163.56</ele>
        <time>2013-09-27T13:00:09Z</time>
      </trkpt>
      <trkpt lat="45.66828" lon="4.83838">
        <ele>164.04</ele>
        <time>2013-09-27T13:00:14Z</time>
      </trkpt>
      <trkpt lat="45.66848" lon="4.8384">
        <ele>164.04</ele>
        <time>2013-09-27T13:00:19Z</time>
      </trkpt>
      <trkpt lat="45.66868" lon="4.83841">
        <ele>163.56</ele>
        <time>2013-09-27T13:00:24Z</time>
      </trkpt>
      <trkpt lat="45.66889" lon="4.83842">
        <ele>163.56</ele>
        <time>2013-09-27T13:00:29Z</time>
      </trkpt>
      <trkpt lat="45.66911" lon="4.83844">
        <ele>164.04</ele>
        <time>2013-09-27T13:00:34Z</time>
      </trkpt>
      <trkpt lat="45.66933" lon="4.83845">
        <ele>164.04</ele>
        <time>2013-09-27T13:00:39Z</time>
      </trkpt>
      <trkpt lat="45.66955" lon="4.83846">
        <ele>163.56</ele>
        <time>2013-09-27T13:00:44Z</time>
      </trkpt>
      <trkpt lat="45.66974" lon="4.83847">
        <ele>164.04</ele>
        <time>2013-09-27T13:00:48Z</time>
      </trkpt>
      <trkpt lat="45.66992" lon="4.83848">
        <ele>164.04</ele>
        <time>2013-09-27T13:00:52Z</time>
      </trkpt>
      <trkpt lat="45.67011" lon="4.83849">
        <ele>164.04</ele>
        <time>2013-09-27T13:00:56Z</time>
      </trkpt>
      <trkpt lat="45.67031" lon="4.83851">
        <ele>164.04</ele>
        <time>2013-09-27T13:01:00Z</time>
      </trkpt>
      <trkpt lat="45.67051" lon="4.83852">
        <ele>164.04</ele>
        <time>2013-09-27T13:01:04Z</time>
      </trkpt>
      <trkpt lat="45.6707" lon="4.83852">
        <ele>163.56</ele>
        <time>2013-09-27T13:01:08Z</time>
      </trkpt>
      <trkpt lat="45.6709" lon="4.83854">
        <ele>164.04</ele>
        <time>2013-09-27T13:01:12Z</time>
      </trkpt>
      <trkpt lat="45.67109" lon="4.83856">
        <ele>164.04</ele>
        <time>2013-09-27T13:01:16Z</time>
      </trkpt>
      <trkpt lat="45.6713" lon="4.83857">
        <ele>164.04</ele>
        <time>2013-09-27T13:01:20Z</time>
      </trkpt>
      <trkpt lat="45.67149" lon="4.83859">
        <ele>163.56</ele>
        <time>2013-09-27T13:01:24Z</time>
      </trkpt>
      <trkpt lat="45.67169" lon="4.83859">
        <ele>163.56</ele>
        <time>2013-09-27T13:01:28Z</time>
      </trkpt>
      <trkpt lat="45.67189" lon="4.83861">
        <ele>164.04</ele>
        <time>2013-09-27T13:01:32Z</time>
      </trkpt>
      <trkpt lat="45.6721" lon="4.83862">
        <ele>164.04</ele>
        <time>2013-09-27T13:01:36Z</time>
      </trkpt>
      <trkpt lat="45.67231" lon="4.83864">
        <ele>163.56</ele>
        <time>2013-09-27T13:01:40Z</time>
      </trkpt>
      <trkpt lat="45.67252" lon="4.83866">
        <ele>163.56</ele>
        <time>2013-09-27T13:01:44Z</time>
      </trkpt>
      <trkpt lat="45.67273" lon="4.83867">
        <ele>164.04</ele>
        <time>2013-09-27T13:01:48Z</time>
      </trkpt>
      <trkpt lat="45.67294" lon="4.83869">
        <ele>163.56</ele>
        <time>2013-09-27T13:01:52Z</time>
      </trkpt>
      <trkpt lat="45.67314" lon="4.83869">
        <ele>164.04</ele>
        <time>2013-09-27T13:01:56Z</time>
      </trkpt>
      <trkpt lat="45.67332" lon="4.8387">
        <ele>164.04</ele>
        <time>2013-09-27T13:02:00Z</time>
      </trkpt>
      <trkpt lat="45.67353" lon="4.83871">
        <ele>164.04</ele>
        <time>2013-09-27T13:02:04Z</time>
      </trkpt>
      <trkpt lat="45.67375" lon="4.83873">
        <ele>164.52</ele>
        <time>2013-09-27T13:02:08Z</time>
      </trkpt>
      <trkpt lat="45.67396" lon="4.83874">
        <ele>164.04</ele>
        <time>2013-09-27T13:02:12Z</time>
      </trkpt>
      <trkpt lat="45.67417" lon="4.83875">
        <ele>164.52</ele>
        <time>2013-09-27T13:02:16Z</time>
      </trkpt>
      <trkpt lat="45.67438" lon="4.83877">
        <ele>163.56</ele>
        <time>2013-09-27T13:02:20Z</time>
      </trkpt>
      <trkpt lat="45.6746" lon="4.83877">
        <ele>164.04</ele>
        <time>2013-09-27T13:02:24Z</time>
      </trkpt>
      <trkpt lat="45.6748" lon="4.83878">
        <ele>164.52</ele>
        <time>2013-09-27T13:02:28Z</time>
      </trkpt>
      <trkpt lat="45.67503" lon="4.83879">
        <ele>164.52</ele>
        <time>2013-09-27T13:02:32Z</time>
      </trkpt>
      <trkpt lat="45.67524" lon="4.8388">
        <ele>164.04</ele>
        <time>2013-09-27T13:02:36Z</time>
      </trkpt>
      <trkpt lat="45.67546" lon="4.8388">
        <ele>164.52</ele>
        <time>2013-09-27T13:02:40Z</time>
      </trkpt>
      <trkpt lat="45.67571" lon="4.83884">
        <ele>164.52</ele>
        <time>2013-09-27T13:02:44Z</time>
      </trkpt>
      <trkpt lat="45.67594" lon="4.83885">
        <ele>164.04</ele>
        <time>2013-09-27T13:02:48Z</time>
      </trkpt>
      <trkpt lat="45.67617" lon="4.83887">
        <ele>164.04</ele>
        <time>2013-09-27T13:02:52Z</time>
      </trkpt>
      <trkpt lat="45.67641" lon="4.83889">
        <ele>164.04</ele>
        <time>2013-09-27T13:02:56Z</time>
      </trkpt>
      <trkpt lat="45.67665" lon="4.83892">
        <ele>164.04</ele>
        <time>2013-09-27T13:03:00Z</time>
      </trkpt>
      <trkpt lat="45.67688" lon="4.83894">
        <ele>164.52</ele>
        <time>2013-09-27T13:03:04Z</time>
      </trkpt>
      <trkpt lat="45.67712" lon="4.83897">
        <ele>164.52</ele>
        <time>2013-09-27T13:03:08Z</time>
      </trkpt>
      <trkpt lat="45.6773" lon="4.83899">
        <ele>164.52</ele>
        <time>2013-09-27T13:03:11Z</time>
      </trkpt>
      <trkpt lat="45.67748" lon="4.839">
        <ele>164.04</ele>
        <time>2013-09-27T13:03:14Z</time>
      </trkpt>
      <trkpt lat="45.67771" lon="4.83903">
        <ele>164.04</ele>
        <time>2013-09-27T13:03:18Z</time>
      </trkpt>
      <trkpt lat="45.67796" lon="4.83904">
        <ele>164.04</ele>
        <time>2013-09-27T13:03:22Z</time>
      </trkpt>
      <trkpt lat="45.67814" lon="4.83906">
        <ele>163.56</ele>
        <time>2013-09-27T13:03:25Z</time>
      </trkpt>
      <trkpt lat="45.67838" lon="4.8391">
        <ele>163.56</ele>
        <time>2013-09-27T13:03:29Z</time>
      </trkpt>
      <trkpt lat="45.67862" lon="4.8391">
        <ele>164.04</ele>
        <time>2013-09-27T13:03:33Z</time>
      </trkpt>
      <trkpt lat="45.67884" lon="4.83912">
        <ele>164.04</ele>
        <time>2013-09-27T13:03:37Z</time>
      </trkpt>
      <trkpt lat="45.67903" lon="4.83913">
        <ele>164.04</ele>
        <time>2013-09-27T13:03:40Z</time>
      </trkpt>
      <trkpt lat="45.67923" lon="4.83915">
        <ele>163.56</ele>
        <time>2013-09-27T13:03:43Z</time>
      </trkpt>
      <trkpt lat="45.67946" lon="4.83916">
        <ele>164.52</ele>
        <time>2013-09-27T13:03:47Z</time>
      </trkpt>
      <trkpt lat="45.67965" lon="4.83918">
        <ele>164.52</ele>
        <time>2013-09-27T13:03:50Z</time>
      </trkpt>
      <trkpt lat="45.67985" lon="4.8392">
        <ele>164.52</ele>
        <time>2013-09-27T13:03:53Z</time>
      </trkpt>
      <trkpt lat="45.68005" lon="4.83921">
        <ele>164.04</ele>
        <time>2013-09-27T13:03:56Z</time>
      </trkpt>
      <trkpt lat="45.68024" lon="4.83921">
        <ele>163.56</ele>
        <time>2013-09-27T13:03:59Z</time>
      </trkpt>
      <trkpt lat="45.68044" lon="4.83921">
        <ele>164.04</ele>
        <time>2013-09-27T13:04:02Z</time>
      </trkpt>
      <trkpt lat="45.68063" lon="4.83922">
        <ele>164.04</ele>
        <time>2013-09-27T13:04:05Z</time>
      </trkpt>
      <trkpt lat="45.68082" lon="4.83924">
        <ele>163.56</ele>
        <time>2013-09-27T13:04:08Z</time>
      </trkpt>
      <trkpt lat="45.68101" lon="4.83927">
        <ele>164.04</ele>
        <time>2013-09-27T13:04:11Z</time>
      </trkpt>
      <trkpt lat="45.68119" lon="4.83926">
        <ele>164.52</ele>
        <time>2013-09-27T13:04:14Z</time>
      </trkpt>
      <trkpt lat="45.68139" lon="4.83927">
        <ele>164.04</ele>
        <time>2013-09-27T13:04:17Z</time>
      </trkpt>
      <trkpt lat="45.68162" lon="4.83929">
        <ele>164.04</ele>
        <time>2013-09-27T13:04:21Z</time>
      </trkpt>
      <trkpt lat="45.68185" lon="4.83931">
        <ele>164.04</ele>
        <time>2013-09-27T13:04:25Z</time>
      </trkpt>
      <trkpt lat="45.6821" lon="4.83932">
        <ele>164.04</ele>
        <time>2013-09-27T13:04:29Z</time>
      </trkpt>
      <trkpt lat="45.68229" lon="4.83933">
        <ele>164.04</ele>
        <time>2013-09-27T13:04:32Z</time>
      </trkpt>
      <trkpt lat="45.68248" lon="4.83935">
        <ele>164.04</ele>
        <time>2013-09-27T13:04:35Z</time>
      </trkpt>
      <trkpt lat="45.68266" lon="4.83936">
        <ele>164.52</ele>
        <time>2013-09-27T13:04:38Z</time>
      </trkpt>
      <trkpt lat="45.68285" lon="4.83937">
        <ele>164.04</ele>
        <time>2013-09-27T13:04:41Z</time>
      </trkpt>
      <trkpt lat="45.68309" lon="4.83938">
        <ele>164.04</ele>
        <time>2013-09-27T13:04:45Z</time>
      </trkpt>
      <trkpt lat="45.68328" lon="4.83939">
        <ele>164.04</ele>
        <time>2013-09-27T13:04:48Z</time>
      </trkpt>
      <trkpt lat="45.68347" lon="4.8394">
        <ele>164.04</ele>
        <time>2013-09-27T13:04:51Z</time>
      </trkpt>
      <trkpt lat="45.68366" lon="4.83943">
        <ele>164.04</ele>
        <time>2013-09-27T13:04:54Z</time>
      </trkpt>
      <trkpt lat="45.68385" lon="4.83946">
        <ele>164.52</ele>
        <time>2013-09-27T13:04:57Z</time>
      </trkpt>
      <trkpt lat="45.68402" lon="4.83946">
        <ele>164.04</ele>
        <time>2013-09-27T13:05:00Z</time>
      </trkpt>
      <trkpt lat="45.68427" lon="4.83947">
        <ele>164.52</ele>
        <time>2013-09-27T13:05:04Z</time>
      </trkpt>
      <trkpt lat="45.68445" lon="4.83949">
        <ele>164.04</ele>
        <time>2013-09-27T13:05:07Z</time>
      </trkpt>
      <trkpt lat="45.68464" lon="4.83951">
        <ele>165</ele>
        <time>2013-09-27T13:05:10Z</time>
      </trkpt>
      <trkpt lat="45.68484" lon="4.83951">
        <ele>164.52</ele>
        <time>2013-09-27T13:05:13Z</time>
      </trkpt>
      <trkpt lat="45.68504" lon="4.83951">
        <ele>164.04</ele>
        <time>2013-09-27T13:05:16Z</time>
      </trkpt>
      <trkpt lat="45.68528" lon="4.83953">
        <ele>164.52</ele>
        <time>2013-09-27T13:05:20Z</time>
      </trkpt>
      <trkpt lat="45.68547" lon="4.83954">
        <ele>164.52</ele>
        <time>2013-09-27T13:05:23Z</time>
      </trkpt>
      <trkpt lat="45.68566" lon="4.83955">
        <ele>164.52</ele>
        <time>2013-09-27T13:05:26Z</time>
      </trkpt>
      <trkpt lat="45.6859" lon="4.83955">
        <ele>164.04</ele>
        <time>2013-09-27T13:05:30Z</time>
      </trkpt>
      <trkpt lat="45.68609" lon="4.83957">
        <ele>164.52</ele>
        <time>2013-09-27T13:05:33Z</time>
      </trkpt>
      <trkpt lat="45.68628" lon="4.8396">
        <ele>164.52</ele>
        <time>2013-09-27T13:05:36Z</time>
      </trkpt>
      <trkpt lat="45.68646" lon="4.83964">
        <ele>164.52</ele>
        <time>2013-09-27T13:05:39Z</time>
      </trkpt>
      <trkpt lat="45.68664" lon="4.83968">
        <ele>165</ele>
        <time>2013-09-27T13:05:42Z</time>
      </trkpt>
      <trkpt lat="45.68684" lon="4.83973">
        <ele>164.52</ele>
        <time>2013-09-27T13:05:45Z</time>
      </trkpt>
      <trkpt lat="45.68704" lon="4.83977">
        <ele>164.52</ele>
        <time>2013-09-27T13:05:48Z</time>
      </trkpt>
      <trkpt lat="45.68723" lon="4.83983">
        <ele>164.52</ele>
        <time>2013-09-27T13:05:51Z</time>
      </trkpt>
      <trkpt lat="45.68742" lon="4.83989">
        <ele>164.04</ele>
        <time>2013-09-27T13:05:54Z</time>
      </trkpt>
      <trkpt lat="45.68761" lon="4.83996">
        <ele>164.52</ele>
        <time>2013-09-27T13:05:57Z</time>
      </trkpt>
      <trkpt lat="45.6878" lon="4.84003">
        <ele>164.52</ele>
        <time>2013-09-27T13:06:00Z</time>
      </trkpt>
      <trkpt lat="45.68798" lon="4.84012">
        <ele>165</ele>
        <time>2013-09-27T13:06:03Z</time>
      </trkpt>
      <trkpt lat="45.68817" lon="4.8402">
        <ele>165</ele>
        <time>2013-09-27T13:06:06Z</time>
      </trkpt>
      <trkpt lat="45.6884" lon="4.84031">
        <ele>164.52</ele>
        <time>2013-09-27T13:06:10Z</time>
      </trkpt>
      <trkpt lat="45.68858" lon="4.84041">
        <ele>164.52</ele>
        <time>2013-09-27T13:06:13Z</time>
      </trkpt>
      <trkpt lat="45.68877" lon="4.84051">
        <ele>165</ele>
        <time>2013-09-27T13:06:16Z</time>
      </trkpt>
      <trkpt lat="45.68895" lon="4.84059">
        <ele>164.52</ele>
        <time>2013-09-27T13:06:19Z</time>
      </trkpt>
      <trkpt lat="45.68914" lon="4.84067">
        <ele>164.52</ele>
        <time>2013-09-27T13:06:22Z</time>
      </trkpt>
      <trkpt lat="45.68933" lon="4.84076">
        <ele>165</ele>
        <time>2013-09-27T13:06:25Z</time>
      </trkpt>
      <trkpt lat="45.68953" lon="4.84086">
        <ele>164.52</ele>
        <time>2013-09-27T13:06:28Z</time>
      </trkpt>
      <trkpt lat="45.68973" lon="4.84095">
        <ele>164.52</ele>
        <time>2013-09-27T13:06:31Z</time>
      </trkpt>
      <trkpt lat="45.68993" lon="4.84104">
        <ele>164.52</ele>
        <time>2013-09-27T13:06:34Z</time>
      </trkpt>
      <trkpt lat="45.69012" lon="4.84115">
        <ele>164.04</ele>
        <time>2013-09-27T13:06:37Z</time>
      </trkpt>
      <trkpt lat="45.6903" lon="4.84126">
        <ele>164.52</ele>
        <time>2013-09-27T13:06:40Z</time>
      </trkpt>
      <trkpt lat="45.69048" lon="4.84144">
        <ele>166.45</ele>
        <time>2013-09-27T13:06:44Z</time>
      </trkpt>
      <trkpt lat="45.69064" lon="4.84158">
        <ele>168.85</ele>
        <time>2013-09-27T13:06:49Z</time>
      </trkpt>
      <trkpt lat="45.6908" lon="4.84174">
        <ele>171.25</ele>
        <time>2013-09-27T13:06:56Z</time>
      </trkpt>
      <trkpt lat="45.69095" lon="4.84192">
        <ele>172.69</ele>
        <time>2013-09-27T13:07:04Z</time>
      </trkpt>
      <trkpt lat="45.69114" lon="4.84205">
        <ele>172.69</ele>
        <time>2013-09-27T13:07:10Z</time>
      </trkpt>
      <trkpt lat="45.69132" lon="4.84214">
        <ele>173.17</ele>
        <time>2013-09-27T13:07:15Z</time>
      </trkpt>
      <trkpt lat="45.69151" lon="4.84224">
        <ele>173.17</ele>
        <time>2013-09-27T13:07:20Z</time>
      </trkpt>
      <trkpt lat="45.69171" lon="4.84234">
        <ele>172.69</ele>
        <time>2013-09-27T13:07:25Z</time>
      </trkpt>
      <trkpt lat="45.69188" lon="4.84242">
        <ele>172.69</ele>
        <time>2013-09-27T13:07:29Z</time>
      </trkpt>
      <trkpt lat="45.69206" lon="4.8425">
        <ele>172.69</ele>
        <time>2013-09-27T13:07:33Z</time>
      </trkpt>
      <trkpt lat="45.69224" lon="4.84257">
        <ele>172.21</ele>
        <time>2013-09-27T13:07:37Z</time>
      </trkpt>
      <trkpt lat="45.69242" lon="4.84265">
        <ele>173.17</ele>
        <time>2013-09-27T13:07:41Z</time>
      </trkpt>
      <trkpt lat="45.69262" lon="4.84273">
        <ele>172.69</ele>
        <time>2013-09-27T13:07:46Z</time>
      </trkpt>
      <trkpt lat="45.69283" lon="4.84273">
        <ele>171.73</ele>
        <time>2013-09-27T13:07:52Z</time>
      </trkpt>
      <trkpt lat="45.69308" lon="4.84273">
        <ele>167.89</ele>
        <time>2013-09-27T13:07:56Z</time>
      </trkpt>
      <trkpt lat="45.69334" lon="4.84273">
        <ele>165</ele>
        <time>2013-09-27T13:07:59Z</time>
      </trkpt>
      <trkpt lat="45.69358" lon="4.84285">
        <ele>164.52</ele>
        <time>2013-09-27T13:08:02Z</time>
      </trkpt>
      <trkpt lat="45.69381" lon="4.84296">
        <ele>164.52</ele>
        <time>2013-09-27T13:08:05Z</time>
      </trkpt>
      <trkpt lat="45.69399" lon="4.84307">
        <ele>165</ele>
        <time>2013-09-27T13:08:08Z</time>
      </trkpt>
      <trkpt lat="45.6942" lon="4.84317">
        <ele>165</ele>
        <time>2013-09-27T13:08:12Z</time>
      </trkpt>
      <trkpt lat="45.69439" lon="4.84326">
        <ele>164.52</ele>
        <time>2013-09-27T13:08:16Z</time>
      </trkpt>
      <trkpt lat="45.69461" lon="4.84334">
        <ele>164.52</ele>
        <time>2013-09-27T13:08:20Z</time>
      </trkpt>
      <trkpt lat="45.69482" lon="4.84344">
        <ele>164.52</ele>
        <time>2013-09-27T13:08:24Z</time>
      </trkpt>
      <trkpt lat="45.69502" lon="4.84353">
        <ele>165</ele>
        <time>2013-09-27T13:08:28Z</time>
      </trkpt>
      <trkpt lat="45.69521" lon="4.84363">
        <ele>164.52</ele>
        <time>2013-09-27T13:08:32Z</time>
      </trkpt>
      <trkpt lat="45.6954" lon="4.84374">
        <ele>164.04</ele>
        <time>2013-09-27T13:08:36Z</time>
      </trkpt>
      <trkpt lat="45.69561" lon="4.84385">
        <ele>164.04</ele>
        <time>2013-09-27T13:08:40Z</time>
      </trkpt>
      <trkpt lat="45.69582" lon="4.84396">
        <ele>164.52</ele>
        <time>2013-09-27T13:08:44Z</time>
      </trkpt>
      <trkpt lat="45.69603" lon="4.84408">
        <ele>164.52</ele>
        <time>2013-09-27T13:08:48Z</time>
      </trkpt>
      <trkpt lat="45.69624" lon="4.84419">
        <ele>165</ele>
        <time>2013-09-27T13:08:52Z</time>
      </trkpt>
      <trkpt lat="45.69644" lon="4.8443">
        <ele>165.48</ele>
        <time>2013-09-27T13:08:56Z</time>
      </trkpt>
      <trkpt lat="45.69663" lon="4.84443">
        <ele>165.48</ele>
        <time>2013-09-27T13:09:00Z</time>
      </trkpt>
      <trkpt lat="45.6968" lon="4.84456">
        <ele>165.48</ele>
        <time>2013-09-27T13:09:04Z</time>
      </trkpt>
      <trkpt lat="45.69699" lon="4.84466">
        <ele>165.48</ele>
        <time>2013-09-27T13:09:08Z</time>
      </trkpt>
      <trkpt lat="45.69721" lon="4.84475">
        <ele>166.45</ele>
        <time>2013-09-27T13:09:12Z</time>
      </trkpt>
      <trkpt lat="45.69741" lon="4.84484">
        <ele>166.45</ele>
        <time>2013-09-27T13:09:16Z</time>
      </trkpt>
      <trkpt lat="45.69763" lon="4.84489">
        <ele>166.93</ele>
        <time>2013-09-27T13:09:20Z</time>
      </trkpt>
      <trkpt lat="45.69785" lon="4.84494">
        <ele>166.45</ele>
        <time>2013-09-27T13:09:24Z</time>
      </trkpt>
      <trkpt lat="45.69807" lon="4.845">
        <ele>166.93</ele>
        <time>2013-09-27T13:09:28Z</time>
      </trkpt>
      <trkpt lat="45.69829" lon="4.84504">
        <ele>166.45</ele>
        <time>2013-09-27T13:09:32Z</time>
      </trkpt>
      <trkpt lat="45.6985" lon="4.84507">
        <ele>166.45</ele>
        <time>2013-09-27T13:09:36Z</time>
      </trkpt>
      <trkpt lat="45.6987" lon="4.84509">
        <ele>166.93</ele>
        <time>2013-09-27T13:09:40Z</time>
      </trkpt>
      <trkpt lat="45.69893" lon="4.84511">
        <ele>166.93</ele>
        <time>2013-09-27T13:09:45Z</time>
      </trkpt>
      <trkpt lat="45.69915" lon="4.84512">
        <ele>166.93</ele>
        <time>2013-09-27T13:09:49Z</time>
      </trkpt>
      <trkpt lat="45.69938" lon="4.84513">
        <ele>166.45</ele>
        <time>2013-09-27T13:09:53Z</time>
      </trkpt>
      <trkpt lat="45.69961" lon="4.84511">
        <ele>166.45</ele>
        <time>2013-09-27T13:09:57Z</time>
      </trkpt>
      <trkpt lat="45.69985" lon="4.84508">
        <ele>166.45</ele>
        <time>2013-09-27T13:10:01Z</time>
      </trkpt>
      <trkpt lat="45.70008" lon="4.84504">
        <ele>166.93</ele>
        <time>2013-09-27T13:10:05Z</time>
      </trkpt>
      <trkpt lat="45.70031" lon="4.845">
        <ele>166.45</ele>
        <time>2013-09-27T13:10:09Z</time>
      </trkpt>
      <trkpt lat="45.70054" lon="4.84494">
        <ele>166.93</ele>
        <time>2013-09-27T13:10:13Z</time>
      </trkpt>
      <trkpt lat="45.70076" lon="4.84489">
        <ele>166.93</ele>
        <time>2013-09-27T13:10:17Z</time>
      </trkpt>
      <trkpt lat="45.70098" lon="4.84483">
        <ele>166.93</ele>
        <time>2013-09-27T13:10:21Z</time>
      </trkpt>
      <trkpt lat="45.70117" lon="4.84478">
        <ele>167.41</ele>
        <time>2013-09-27T13:10:25Z</time>
      </trkpt>
      <trkpt lat="45.70135" lon="4.84474">
        <ele>167.89</ele>
        <time>2013-09-27T13:10:30Z</time>
      </trkpt>
      <trkpt lat="45.70155" lon="4.84469">
        <ele>169.33</ele>
        <time>2013-09-27T13:10:36Z</time>
      </trkpt>
      <trkpt lat="45.70176" lon="4.84464">
        <ele>170.77</ele>
        <time>2013-09-27T13:10:43Z</time>
      </trkpt>
      <trkpt lat="45.70194" lon="4.84461">
        <ele>171.73</ele>
        <time>2013-09-27T13:10:49Z</time>
      </trkpt>
      <trkpt lat="45.70214" lon="4.84461">
        <ele>173.17</ele>
        <time>2013-09-27T13:10:56Z</time>
      </trkpt>
      <trkpt lat="45.70232" lon="4.84457">
        <ele>173.17</ele>
        <time>2013-09-27T13:11:02Z</time>
      </trkpt>
      <trkpt lat="45.70249" lon="4.84445">
        <ele>174.14</ele>
        <time>2013-09-27T13:11:08Z</time>
      </trkpt>
      <trkpt lat="45.70263" lon="4.84427">
        <ele>175.1</ele>
        <time>2013-09-27T13:11:18Z</time>
      </trkpt>
      <trkpt lat="45.7028" lon="4.84417">
        <ele>175.1</ele>
        <time>2013-09-27T13:12:51Z</time>
      </trkpt>
      <trkpt lat="45.70299" lon="4.84403">
        <ele>175.1</ele>
        <time>2013-09-27T13:12:58Z</time>
      </trkpt>
      <trkpt lat="45.70318" lon="4.84387">
        <ele>175.1</ele>
        <time>2013-09-27T13:13:04Z</time>
      </trkpt>
      <trkpt lat="45.70334" lon="4.84372">
        <ele>175.1</ele>
        <time>2013-09-27T13:13:09Z</time>
      </trkpt>
      <trkpt lat="45.7035" lon="4.8436">
        <ele>175.58</ele>
        <time>2013-09-27T13:13:15Z</time>
      </trkpt>
      <trkpt lat="45.70369" lon="4.84359">
        <ele>175.1</ele>
        <time>2013-09-27T13:13:20Z</time>
      </trkpt>
      <trkpt lat="45.7039" lon="4.84357">
        <ele>174.62</ele>
        <time>2013-09-27T13:13:25Z</time>
      </trkpt>
      <trkpt lat="45.7041" lon="4.84357">
        <ele>175.1</ele>
        <time>2013-09-27T13:13:30Z</time>
      </trkpt>
      <trkpt lat="45.70432" lon="4.84356">
        <ele>175.1</ele>
        <time>2013-09-27T13:13:35Z</time>
      </trkpt>
      <trkpt lat="45.70453" lon="4.84356">
        <ele>174.62</ele>
        <time>2013-09-27T13:13:41Z</time>
      </trkpt>
      <trkpt lat="45.70473" lon="4.84349">
        <ele>174.62</ele>
        <time>2013-09-27T13:13:50Z</time>
      </trkpt>
      <trkpt lat="45.70491" lon="4.84342">
        <ele>174.62</ele>
        <time>2013-09-27T13:13:58Z</time>
      </trkpt>
      <trkpt lat="45.70509" lon="4.84334">
        <ele>175.1</ele>
        <time>2013-09-27T13:14:06Z</time>
      </trkpt>
      <trkpt lat="45.70528" lon="4.8433">
        <ele>175.58</ele>
        <time>2013-09-27T13:14:12Z</time>
      </trkpt>
      <trkpt lat="45.70546" lon="4.84325">
        <ele>175.1</ele>
        <time>2013-09-27T13:14:17Z</time>
      </trkpt>
      <trkpt lat="45.70567" lon="4.84319">
        <ele>175.58</ele>
        <time>2013-09-27T13:14:23Z</time>
      </trkpt>
      <trkpt lat="45.70589" lon="4.84316">
        <ele>175.58</ele>
        <time>2013-09-27T13:14:29Z</time>
      </trkpt>
      <trkpt lat="45.7061" lon="4.84311">
        <ele>175.1</ele>
        <time>2013-09-27T13:14:35Z</time>
      </trkpt>
      <trkpt lat="45.70617" lon="4.84309">
        <ele>175.1</ele>
        <time>2013-09-27T13:14:45Z</time>
      </trkpt>
      <trkpt lat="45.70581" lon="4.84321">
        <ele>175.1</ele>
        <time>2013-09-27T13:14:54Z</time>
      </trkpt>
      <trkpt lat="45.70559" lon="4.84335">
        <ele>174.62</ele>
        <time>2013-09-27T13:15:00Z</time>
      </trkpt>
      <trkpt lat="45.70539" lon="4.84344">
        <ele>175.1</ele>
        <time>2013-09-27T13:15:07Z</time>
      </trkpt>
      <trkpt lat="45.7052" lon="4.84349">
        <ele>174.62</ele>
        <time>2013-09-27T13:15:13Z</time>
      </trkpt>
      <trkpt lat="45.70498" lon="4.84346">
        <ele>174.62</ele>
        <time>2013-09-27T13:15:18Z</time>
      </trkpt>
      <trkpt lat="45.70479" lon="4.84345">
        <ele>174.14</ele>
        <time>2013-09-27T13:15:23Z</time>
      </trkpt>
      <trkpt lat="45.70498" lon="4.8435">
        <ele>174.62</ele>
        <time>2013-09-27T13:15:34Z</time>
      </trkpt>
      <trkpt lat="45.70526" lon="4.8435">
        <ele>175.1</ele>
        <time>2013-09-27T13:15:40Z</time>
      </trkpt>
      <trkpt lat="45.70549" lon="4.8435">
        <ele>174.62</ele>
        <time>2013-09-27T13:15:46Z</time>
      </trkpt>
      <trkpt lat="45.70569" lon="4.84346">
        <ele>174.14</ele>
        <time>2013-09-27T13:15:52Z</time>
      </trkpt>
      <trkpt lat="45.7059" lon="4.84346">
        <ele>174.62</ele>
        <time>2013-09-27T13:15:59Z</time>
      </trkpt>
      <trkpt lat="45.70612" lon="4.84343">
        <ele>174.62</ele>
        <time>2013-09-27T13:16:05Z</time>
      </trkpt>
      <trkpt lat="45.70634" lon="4.84339">
        <ele>175.1</ele>
        <time>2013-09-27T13:16:11Z</time>
      </trkpt>
      <trkpt lat="45.70654" lon="4.84338">
        <ele>175.1</ele>
        <time>2013-09-27T13:16:18Z</time>
      </trkpt>
      <trkpt lat="45.70668" lon="4.84324">
        <ele>174.62</ele>
        <time>2013-09-27T13:16:25Z</time>
      </trkpt>
      <trkpt lat="45.70686" lon="4.84317">
        <ele>175.58</ele>
        <time>2013-09-27T13:16:31Z</time>
      </trkpt>
      <trkpt lat="45.70706" lon="4.84317">
        <ele>175.1</ele>
        <time>2013-09-27T13:16:36Z</time>
      </trkpt>
      <trkpt lat="45.70722" lon="4.84334">
        <ele>174.62</ele>
        <time>2013-09-27T13:16:43Z</time>
      </trkpt>
      <trkpt lat="45.70731" lon="4.84339">
        <ele>174.62</ele>
        <time>2013-09-27T13:17:13Z</time>
      </trkpt>
      <trkpt lat="45.70717" lon="4.84323">
        <ele>174.14</ele>
        <time>2013-09-27T13:17:42Z</time>
      </trkpt>
      <trkpt lat="45.70706" lon="4.84309">
        <ele>174.62</ele>
        <time>2013-09-27T13:18:27Z</time>
      </trkpt>
      <trkpt lat="45.70691" lon="4.84315">
        <ele>174.62</ele>
        <time>2013-09-27T13:20:09Z</time>
      </trkpt>
      <trkpt lat="45.70676" lon="4.8432">
        <ele>174.62</ele>
        <time>2013-09-27T13:25:27Z</time>
      </trkpt>
      <trkpt lat="45.70657" lon="4.84323">
        <ele>174.62</ele>
        <time>2013-09-27T13:25:40Z</time>
      </trkpt>
      <trkpt lat="45.70646" lon="4.84341">
        <ele>174.62</ele>
        <time>2013-09-27T13:25:53Z</time>
      </trkpt>
      <trkpt lat="45.70629" lon="4.84342">
        <ele>174.14</ele>
        <time>2013-09-27T13:26:04Z</time>
      </trkpt>
      <trkpt lat="45.7061" lon="4.84343">
        <ele>174.14</ele>
        <time>2013-09-27T13:26:15Z</time>
      </trkpt>
      <trkpt lat="45.70589" lon="4.84346">
        <ele>173.66</ele>
        <time>2013-09-27T13:26:26Z</time>
      </trkpt>
      <trkpt lat="45.7057" lon="4.8435">
        <ele>173.66</ele>
        <time>2013-09-27T13:26:32Z</time>
      </trkpt>
      <trkpt lat="45.7055" lon="4.84356">
        <ele>173.17</ele>
        <time>2013-09-27T13:26:38Z</time>
      </trkpt>
      <trkpt lat="45.70529" lon="4.84362">
        <ele>172.21</ele>
        <time>2013-09-27T13:26:44Z</time>
      </trkpt>
      <trkpt lat="45.70512" lon="4.84368">
        <ele>171.73</ele>
        <time>2013-09-27T13:26:49Z</time>
      </trkpt>
      <trkpt lat="45.70492" lon="4.84371">
        <ele>171.73</ele>
        <time>2013-09-27T13:26:55Z</time>
      </trkpt>
      <trkpt lat="45.70475" lon="4.84371">
        <ele>171.73</ele>
        <time>2013-09-27T13:27:01Z</time>
      </trkpt>
      <trkpt lat="45.70456" lon="4.84369">
        <ele>172.69</ele>
        <time>2013-09-27T13:27:07Z</time>
      </trkpt>
      <trkpt lat="45.70439" lon="4.84369">
        <ele>173.17</ele>
        <time>2013-09-27T13:27:13Z</time>
      </trkpt>
      <trkpt lat="45.7042" lon="4.84372">
        <ele>174.14</ele>
        <time>2013-09-27T13:27:19Z</time>
      </trkpt>
      <trkpt lat="45.70399" lon="4.84373">
        <ele>175.1</ele>
        <time>2013-09-27T13:27:26Z</time>
      </trkpt>
      <trkpt lat="45.70381" lon="4.84379">
        <ele>175.58</ele>
        <time>2013-09-27T13:27:33Z</time>
      </trkpt>
      <trkpt lat="45.70362" lon="4.84386">
        <ele>176.06</ele>
        <time>2013-09-27T13:27:41Z</time>
      </trkpt>
      <trkpt lat="45.70355" lon="4.84391">
        <ele>176.54</ele>
        <time>2013-09-27T13:29:09Z</time>
      </trkpt>
      <trkpt lat="45.70356" lon="4.8442">
        <ele>176.54</ele>
        <time>2013-09-27T13:29:17Z</time>
      </trkpt>
      <trkpt lat="45.70362" lon="4.84449">
        <ele>176.54</ele>
        <time>2013-09-27T13:29:23Z</time>
      </trkpt>
      <trkpt lat="45.7037" lon="4.8448">
        <ele>175.1</ele>
        <time>2013-09-27T13:29:28Z</time>
      </trkpt>
      <trkpt lat="45.70375" lon="4.84508">
        <ele>173.17</ele>
        <time>2013-09-27T13:29:32Z</time>
      </trkpt>
      <trkpt lat="45.70385" lon="4.84535">
        <ele>171.73</ele>
        <time>2013-09-27T13:29:41Z</time>
      </trkpt>
      <trkpt lat="45.70404" lon="4.84532">
        <ele>172.21</ele>
        <time>2013-09-27T13:29:46Z</time>
      </trkpt>
      <trkpt lat="45.70424" lon="4.84522">
        <ele>171.73</ele>
        <time>2013-09-27T13:29:51Z</time>
      </trkpt>
      <trkpt lat="45.70443" lon="4.84513">
        <ele>172.21</ele>
        <time>2013-09-27T13:29:56Z</time>
      </trkpt>
      <trkpt lat="45.7046" lon="4.84503">
        <ele>172.21</ele>
        <time>2013-09-27T13:30:01Z</time>
      </trkpt>
      <trkpt lat="45.7048" lon="4.84494">
        <ele>172.21</ele>
        <time>2013-09-27T13:30:06Z</time>
      </trkpt>
      <trkpt lat="45.70496" lon="4.84483">
        <ele>172.21</ele>
        <time>2013-09-27T13:30:10Z</time>
      </trkpt>
      <trkpt lat="45.70513" lon="4.84471">
        <ele>172.21</ele>
        <time>2013-09-27T13:30:14Z</time>
      </trkpt>
      <trkpt lat="45.7053" lon="4.84458">
        <ele>172.21</ele>
        <time>2013-09-27T13:30:18Z</time>
      </trkpt>
      <trkpt lat="45.70548" lon="4.84449">
        <ele>172.21</ele>
        <time>2013-09-27T13:30:22Z</time>
      </trkpt>
      <trkpt lat="45.70565" lon="4.84457">
        <ele>172.21</ele>
        <time>2013-09-27T13:30:26Z</time>
      </trkpt>
      <trkpt lat="45.70574" lon="4.84481">
        <ele>171.73</ele>
        <time>2013-09-27T13:30:30Z</time>
      </trkpt>
      <trkpt lat="45.70583" lon="4.84509">
        <ele>171.73</ele>
        <time>2013-09-27T13:30:34Z</time>
      </trkpt>
      <trkpt lat="45.70593" lon="4.8454">
        <ele>171.73</ele>
        <time>2013-09-27T13:30:38Z</time>
      </trkpt>
      <trkpt lat="45.70604" lon="4.8457">
        <ele>172.21</ele>
        <time>2013-09-27T13:30:42Z</time>
      </trkpt>
      <trkpt lat="45.70614" lon="4.84597">
        <ele>171.73</ele>
        <time>2013-09-27T13:30:46Z</time>
      </trkpt>
      <trkpt lat="45.70622" lon="4.84623">
        <ele>172.21</ele>
        <time>2013-09-27T13:30:50Z</time>
      </trkpt>
      <trkpt lat="45.7063" lon="4.84647">
        <ele>172.21</ele>
        <time>2013-09-27T13:30:54Z</time>
      </trkpt>
      <trkpt lat="45.7064" lon="4.84675">
        <ele>171.73</ele>
        <time>2013-09-27T13:30:59Z</time>
      </trkpt>
      <trkpt lat="45.70644" lon="4.84705">
        <ele>171.73</ele>
        <time>2013-09-27T13:31:05Z</time>
      </trkpt>
      <trkpt lat="45.70648" lon="4.84733">
        <ele>171.73</ele>
        <time>2013-09-27T13:31:10Z</time>
      </trkpt>
      <trkpt lat="45.70652" lon="4.84765">
        <ele>171.25</ele>
        <time>2013-09-27T13:31:15Z</time>
      </trkpt>
      <trkpt lat="45.70653" lon="4.84791">
        <ele>171.73</ele>
        <time>2013-09-27T13:31:19Z</time>
      </trkpt>
      <trkpt lat="45.70652" lon="4.84818">
        <ele>171.25</ele>
        <time>2013-09-27T13:31:23Z</time>
      </trkpt>
      <trkpt lat="45.70647" lon="4.84846">
        <ele>171.73</ele>
        <time>2013-09-27T13:31:28Z</time>
      </trkpt>
      <trkpt lat="45.7063" lon="4.84868">
        <ele>171.73</ele>
        <time>2013-09-27T13:31:34Z</time>
      </trkpt>
      <trkpt lat="45.70637" lon="4.84892">
        <ele>172.21</ele>
        <time>2013-09-27T13:31:41Z</time>
      </trkpt>
      <trkpt lat="45.7064" lon="4.84922">
        <ele>172.21</ele>
        <time>2013-09-27T13:31:47Z</time>
      </trkpt>
      <trkpt lat="45.70641" lon="4.84952">
        <ele>171.73</ele>
        <time>2013-09-27T13:31:52Z</time>
      </trkpt>
      <trkpt lat="45.70643" lon="4.84979">
        <ele>172.21</ele>
        <time>2013-09-27T13:31:57Z</time>
      </trkpt>
      <trkpt lat="45.70648" lon="4.85007">
        <ele>172.21</ele>
        <time>2013-09-27T13:32:03Z</time>
      </trkpt>
      <trkpt lat="45.70665" lon="4.85019">
        <ele>172.69</ele>
        <time>2013-09-27T13:32:08Z</time>
      </trkpt>
      <trkpt lat="45.70688" lon="4.85018">
        <ele>172.21</ele>
        <time>2013-09-27T13:32:13Z</time>
      </trkpt>
      <trkpt lat="45.70707" lon="4.85016">
        <ele>173.17</ele>
        <time>2013-09-27T13:32:17Z</time>
      </trkpt>
      <trkpt lat="45.70727" lon="4.85014">
        <ele>172.69</ele>
        <time>2013-09-27T13:32:21Z</time>
      </trkpt>
      <trkpt lat="45.70747" lon="4.85013">
        <ele>172.69</ele>
        <time>2013-09-27T13:32:25Z</time>
      </trkpt>
      <trkpt lat="45.70767" lon="4.85013">
        <ele>173.66</ele>
        <time>2013-09-27T13:32:29Z</time>
      </trkpt>
      <trkpt lat="45.70789" lon="4.85015">
        <ele>173.17</ele>
        <time>2013-09-27T13:32:33Z</time>
      </trkpt>
      <trkpt lat="45.7081" lon="4.8502">
        <ele>173.66</ele>
        <time>2013-09-27T13:32:37Z</time>
      </trkpt>
      <trkpt lat="45.70832" lon="4.85025">
        <ele>173.66</ele>
        <time>2013-09-27T13:32:41Z</time>
      </trkpt>
      <trkpt lat="45.70853" lon="4.85028">
        <ele>174.14</ele>
        <time>2013-09-27T13:32:45Z</time>
      </trkpt>
      <trkpt lat="45.70873" lon="4.85032">
        <ele>175.58</ele>
        <time>2013-09-27T13:32:49Z</time>
      </trkpt>
      <trkpt lat="45.70894" lon="4.85035">
        <ele>176.06</ele>
        <time>2013-09-27T13:32:53Z</time>
      </trkpt>
      <trkpt lat="45.70914" lon="4.85039">
        <ele>177.02</ele>
        <time>2013-09-27T13:32:57Z</time>
      </trkpt>
      <trkpt lat="45.70933" lon="4.85042">
        <ele>177.98</ele>
        <time>2013-09-27T13:33:01Z</time>
      </trkpt>
      <trkpt lat="45.70954" lon="4.85045">
        <ele>178.94</ele>
        <time>2013-09-27T13:33:06Z</time>
      </trkpt>
      <trkpt lat="45.70972" lon="4.85047">
        <ele>179.9</ele>
        <time>2013-09-27T13:33:13Z</time>
      </trkpt>
      <trkpt lat="45.70984" lon="4.85029">
        <ele>179.42</ele>
        <time>2013-09-27T13:33:19Z</time>
      </trkpt>
      <trkpt lat="45.70989" lon="4.84999">
        <ele>178.94</ele>
        <time>2013-09-27T13:33:23Z</time>
      </trkpt>
      <trkpt lat="45.70993" lon="4.84973">
        <ele>178.46</ele>
        <time>2013-09-27T13:33:26Z</time>
      </trkpt>
      <trkpt lat="45.70998" lon="4.84946">
        <ele>177.5</ele>
        <time>2013-09-27T13:33:29Z</time>
      </trkpt>
      <trkpt lat="45.71003" lon="4.8492">
        <ele>176.54</ele>
        <time>2013-09-27T13:33:32Z</time>
      </trkpt>
      <trkpt lat="45.71007" lon="4.84891">
        <ele>175.1</ele>
        <time>2013-09-27T13:33:35Z</time>
      </trkpt>
      <trkpt lat="45.71012" lon="4.8486">
        <ele>174.14</ele>
        <time>2013-09-27T13:33:38Z</time>
      </trkpt>
      <trkpt lat="45.71019" lon="4.84827">
        <ele>173.17</ele>
        <time>2013-09-27T13:33:41Z</time>
      </trkpt>
      <trkpt lat="45.71026" lon="4.84795">
        <ele>172.69</ele>
        <time>2013-09-27T13:33:44Z</time>
      </trkpt>
      <trkpt lat="45.71035" lon="4.84766">
        <ele>172.21</ele>
        <time>2013-09-27T13:33:47Z</time>
      </trkpt>
      <trkpt lat="45.71046" lon="4.84739">
        <ele>172.69</ele>
        <time>2013-09-27T13:33:50Z</time>
      </trkpt>
      <trkpt lat="45.7106" lon="4.84712">
        <ele>172.69</ele>
        <time>2013-09-27T13:33:53Z</time>
      </trkpt>
      <trkpt lat="45.71073" lon="4.84687">
        <ele>172.69</ele>
        <time>2013-09-27T13:33:56Z</time>
      </trkpt>
      <trkpt lat="45.71086" lon="4.84664">
        <ele>172.69</ele>
        <time>2013-09-27T13:33:59Z</time>
      </trkpt>
      <trkpt lat="45.71098" lon="4.84642">
        <ele>172.69</ele>
        <time>2013-09-27T13:34:02Z</time>
      </trkpt>
      <trkpt lat="45.71112" lon="4.84616">
        <ele>172.69</ele>
        <time>2013-09-27T13:34:06Z</time>
      </trkpt>
      <trkpt lat="45.71126" lon="4.84589">
        <ele>173.17</ele>
        <time>2013-09-27T13:34:10Z</time>
      </trkpt>
      <trkpt lat="45.71138" lon="4.8456">
        <ele>172.69</ele>
        <time>2013-09-27T13:34:14Z</time>
      </trkpt>
      <trkpt lat="45.71147" lon="4.84532">
        <ele>173.66</ele>
        <time>2013-09-27T13:34:18Z</time>
      </trkpt>
      <trkpt lat="45.71155" lon="4.84508">
        <ele>173.66</ele>
        <time>2013-09-27T13:34:23Z</time>
      </trkpt>
      <trkpt lat="45.71175" lon="4.84503">
        <ele>173.66</ele>
        <time>2013-09-27T13:34:43Z</time>
      </trkpt>
      <trkpt lat="45.71194" lon="4.84503">
        <ele>173.17</ele>
        <time>2013-09-27T13:34:48Z</time>
      </trkpt>
      <trkpt lat="45.71214" lon="4.84502">
        <ele>172.69</ele>
        <time>2013-09-27T13:34:52Z</time>
      </trkpt>
      <trkpt lat="45.71237" lon="4.84499">
        <ele>173.17</ele>
        <time>2013-09-27T13:34:56Z</time>
      </trkpt>
      <trkpt lat="45.71261" lon="4.84497">
        <ele>172.69</ele>
        <time>2013-09-27T13:35:00Z</time>
      </trkpt>
      <trkpt lat="45.71283" lon="4.84495">
        <ele>172.69</ele>
        <time>2013-09-27T13:35:04Z</time>
      </trkpt>
      <trkpt lat="45.71307" lon="4.84494">
        <ele>172.69</ele>
        <time>2013-09-27T13:35:08Z</time>
      </trkpt>
      <trkpt lat="45.7133" lon="4.845">
        <ele>172.69</ele>
        <time>2013-09-27T13:35:12Z</time>
      </trkpt>
      <trkpt lat="45.7135" lon="4.84517">
        <ele>172.69</ele>
        <time>2013-09-27T13:35:16Z</time>
      </trkpt>
      <trkpt lat="45.71365" lon="4.84538">
        <ele>173.17</ele>
        <time>2013-09-27T13:35:20Z</time>
      </trkpt>
      <trkpt lat="45.71376" lon="4.84562">
        <ele>172.69</ele>
        <time>2013-09-27T13:35:24Z</time>
      </trkpt>
      <trkpt lat="45.71386" lon="4.84586">
        <ele>173.17</ele>
        <time>2013-09-27T13:35:28Z</time>
      </trkpt>
      <trkpt lat="45.71395" lon="4.84609">
        <ele>173.17</ele>
        <time>2013-09-27T13:35:32Z</time>
      </trkpt>
      <trkpt lat="45.71405" lon="4.84636">
        <ele>173.17</ele>
        <time>2013-09-27T13:35:37Z</time>
      </trkpt>
      <trkpt lat="45.71416" lon="4.84661">
        <ele>173.17</ele>
        <time>2013-09-27T13:35:42Z</time>
      </trkpt>
      <trkpt lat="45.71428" lon="4.84688">
        <ele>173.66</ele>
        <time>2013-09-27T13:35:47Z</time>
      </trkpt>
      <trkpt lat="45.71437" lon="4.84711">
        <ele>173.17</ele>
        <time>2013-09-27T13:35:51Z</time>
      </trkpt>
      <trkpt lat="45.71448" lon="4.84738">
        <ele>173.66</ele>
        <time>2013-09-27T13:35:56Z</time>
      </trkpt>
      <trkpt lat="45.71458" lon="4.84766">
        <ele>174.14</ele>
        <time>2013-09-27T13:36:01Z</time>
      </trkpt>
      <trkpt lat="45.71469" lon="4.84793">
        <ele>174.62</ele>
        <time>2013-09-27T13:36:06Z</time>
      </trkpt>
      <trkpt lat="45.71475" lon="4.8482">
        <ele>175.58</ele>
        <time>2013-09-27T13:36:11Z</time>
      </trkpt>
      <trkpt lat="45.71479" lon="4.84848">
        <ele>176.54</ele>
        <time>2013-09-27T13:36:16Z</time>
      </trkpt>
      <trkpt lat="45.71484" lon="4.84876">
        <ele>177.98</ele>
        <time>2013-09-27T13:36:21Z</time>
      </trkpt>
      <trkpt lat="45.71487" lon="4.84904">
        <ele>178.94</ele>
        <time>2013-09-27T13:36:26Z</time>
      </trkpt>
      <trkpt lat="45.71492" lon="4.8493">
        <ele>179.9</ele>
        <time>2013-09-27T13:36:31Z</time>
      </trkpt>
      <trkpt lat="45.71495" lon="4.84957">
        <ele>181.35</ele>
        <time>2013-09-27T13:36:36Z</time>
      </trkpt>
      <trkpt lat="45.71503" lon="4.84986">
        <ele>182.31</ele>
        <time>2013-09-27T13:36:42Z</time>
      </trkpt>
      <trkpt lat="45.71508" lon="4.85013">
        <ele>182.79</ele>
        <time>2013-09-27T13:36:48Z</time>
      </trkpt>
      <trkpt lat="45.71507" lon="4.8504">
        <ele>182.31</ele>
        <time>2013-09-27T13:36:53Z</time>
      </trkpt>
      <trkpt lat="45.71489" lon="4.85064">
        <ele>181.35</ele>
        <time>2013-09-27T13:36:58Z</time>
      </trkpt>
      <trkpt lat="45.71478" lon="4.85091">
        <ele>180.87</ele>
        <time>2013-09-27T13:37:02Z</time>
      </trkpt>
      <trkpt lat="45.71472" lon="4.85121">
        <ele>180.38</ele>
        <time>2013-09-27T13:37:06Z</time>
      </trkpt>
      <trkpt lat="45.71467" lon="4.85151">
        <ele>180.38</ele>
        <time>2013-09-27T13:37:10Z</time>
      </trkpt>
      <trkpt lat="45.71463" lon="4.85177">
        <ele>180.87</ele>
        <time>2013-09-27T13:37:14Z</time>
      </trkpt>
      <trkpt lat="45.71459" lon="4.85204">
        <ele>181.35</ele>
        <time>2013-09-27T13:37:19Z</time>
      </trkpt>
      <trkpt lat="45.71454" lon="4.85234">
        <ele>181.83</ele>
        <time>2013-09-27T13:37:25Z</time>
      </trkpt>
      <trkpt lat="45.7145" lon="4.85259">
        <ele>181.83</ele>
        <time>2013-09-27T13:37:30Z</time>
      </trkpt>
      <trkpt lat="45.71447" lon="4.85286">
        <ele>182.79</ele>
        <time>2013-09-27T13:37:35Z</time>
      </trkpt>
      <trkpt lat="45.71443" lon="4.85317">
        <ele>182.79</ele>
        <time>2013-09-27T13:37:40Z</time>
      </trkpt>
      <trkpt lat="45.71439" lon="4.85345">
        <ele>181.83</ele>
        <time>2013-09-27T13:37:44Z</time>
      </trkpt>
      <trkpt lat="45.71435" lon="4.85376">
        <ele>181.35</ele>
        <time>2013-09-27T13:37:48Z</time>
      </trkpt>
      <trkpt lat="45.71431" lon="4.85408">
        <ele>180.87</ele>
        <time>2013-09-27T13:37:52Z</time>
      </trkpt>
      <trkpt lat="45.71435" lon="4.85438">
        <ele>181.35</ele>
        <time>2013-09-27T13:37:56Z</time>
      </trkpt>
      <trkpt lat="45.71442" lon="4.85461">
        <ele>181.83</ele>
        <time>2013-09-27T13:38:00Z</time>
      </trkpt>
      <trkpt lat="45.71447" lon="4.85486">
        <ele>182.31</ele>
        <time>2013-09-27T13:38:09Z</time>
      </trkpt>
      <trkpt lat="45.71462" lon="4.85493">
        <ele>182.31</ele>
        <time>2013-09-27T13:38:34Z</time>
      </trkpt>
      <trkpt lat="45.71481" lon="4.85494">
        <ele>181.83</ele>
        <time>2013-09-27T13:38:38Z</time>
      </trkpt>
      <trkpt lat="45.715" lon="4.85493">
        <ele>182.79</ele>
        <time>2013-09-27T13:38:42Z</time>
      </trkpt>
      <trkpt lat="45.71523" lon="4.85491">
        <ele>183.75</ele>
        <time>2013-09-27T13:38:47Z</time>
      </trkpt>
      <trkpt lat="45.71543" lon="4.85489">
        <ele>184.71</ele>
        <time>2013-09-27T13:38:52Z</time>
      </trkpt>
      <trkpt lat="45.71564" lon="4.85487">
        <ele>183.75</ele>
        <time>2013-09-27T13:38:58Z</time>
      </trkpt>
      <trkpt lat="45.71587" lon="4.85485">
        <ele>183.27</ele>
        <time>2013-09-27T13:39:03Z</time>
      </trkpt>
      <trkpt lat="45.71607" lon="4.85485">
        <ele>182.31</ele>
        <time>2013-09-27T13:39:07Z</time>
      </trkpt>
      <trkpt lat="45.71631" lon="4.85491">
        <ele>181.83</ele>
        <time>2013-09-27T13:39:11Z</time>
      </trkpt>
      <trkpt lat="45.7165" lon="4.85495">
        <ele>181.35</ele>
        <time>2013-09-27T13:39:14Z</time>
      </trkpt>
      <trkpt lat="45.71668" lon="4.85494">
        <ele>181.83</ele>
        <time>2013-09-27T13:39:17Z</time>
      </trkpt>
      <trkpt lat="45.71687" lon="4.85492">
        <ele>181.35</ele>
        <time>2013-09-27T13:39:20Z</time>
      </trkpt>
      <trkpt lat="45.71706" lon="4.85491">
        <ele>180.87</ele>
        <time>2013-09-27T13:39:23Z</time>
      </trkpt>
      <trkpt lat="45.71726" lon="4.85489">
        <ele>180.87</ele>
        <time>2013-09-27T13:39:26Z</time>
      </trkpt>
      <trkpt lat="45.71745" lon="4.85486">
        <ele>180.87</ele>
        <time>2013-09-27T13:39:29Z</time>
      </trkpt>
      <trkpt lat="45.71764" lon="4.85483">
        <ele>180.87</ele>
        <time>2013-09-27T13:39:32Z</time>
      </trkpt>
      <trkpt lat="45.71783" lon="4.85479">
        <ele>180.38</ele>
        <time>2013-09-27T13:39:35Z</time>
      </trkpt>
      <trkpt lat="45.71802" lon="4.85473">
        <ele>180.87</ele>
        <time>2013-09-27T13:39:38Z</time>
      </trkpt>
      <trkpt lat="45.71822" lon="4.85468">
        <ele>180.38</ele>
        <time>2013-09-27T13:39:41Z</time>
      </trkpt>
      <trkpt lat="45.71841" lon="4.85463">
        <ele>180.87</ele>
        <time>2013-09-27T13:39:44Z</time>
      </trkpt>
      <trkpt lat="45.71859" lon="4.85462">
        <ele>180.38</ele>
        <time>2013-09-27T13:39:47Z</time>
      </trkpt>
      <trkpt lat="45.71878" lon="4.8546">
        <ele>180.38</ele>
        <time>2013-09-27T13:39:50Z</time>
      </trkpt>
      <trkpt lat="45.719" lon="4.85459">
        <ele>180.38</ele>
        <time>2013-09-27T13:39:54Z</time>
      </trkpt>
      <trkpt lat="45.71918" lon="4.85457">
        <ele>180.38</ele>
        <time>2013-09-27T13:40:40Z</time>
      </trkpt>
      <trkpt lat="45.71938" lon="4.85454">
        <ele>180.38</ele>
        <time>2013-09-27T13:40:46Z</time>
      </trkpt>
      <trkpt lat="45.71958" lon="4.8545">
        <ele>179.9</ele>
        <time>2013-09-27T13:40:50Z</time>
      </trkpt>
      <trkpt lat="45.71981" lon="4.85447">
        <ele>180.38</ele>
        <time>2013-09-27T13:40:54Z</time>
      </trkpt>
      <trkpt lat="45.72" lon="4.85445">
        <ele>180.38</ele>
        <time>2013-09-27T13:40:57Z</time>
      </trkpt>
      <trkpt lat="45.72019" lon="4.85443">
        <ele>179.9</ele>
        <time>2013-09-27T13:41:00Z</time>
      </trkpt>
      <trkpt lat="45.72038" lon="4.85441">
        <ele>179.9</ele>
        <time>2013-09-27T13:41:03Z</time>
      </trkpt>
      <trkpt lat="45.72058" lon="4.85438">
        <ele>179.9</ele>
        <time>2013-09-27T13:41:06Z</time>
      </trkpt>
      <trkpt lat="45.72078" lon="4.85437">
        <ele>179.9</ele>
        <time>2013-09-27T13:41:09Z</time>
      </trkpt>
      <trkpt lat="45.72097" lon="4.85435">
        <ele>179.9</ele>
        <time>2013-09-27T13:41:12Z</time>
      </trkpt>
      <trkpt lat="45.72116" lon="4.85433">
        <ele>179.9</ele>
        <time>2013-09-27T13:41:15Z</time>
      </trkpt>
      <trkpt lat="45.72135" lon="4.85432">
        <ele>179.9</ele>
        <time>2013-09-27T13:41:18Z</time>
      </trkpt>
      <trkpt lat="45.72155" lon="4.8543">
        <ele>179.42</ele>
        <time>2013-09-27T13:41:21Z</time>
      </trkpt>
      <trkpt lat="45.72174" lon="4.85428">
        <ele>179.9</ele>
        <time>2013-09-27T13:41:24Z</time>
      </trkpt>
      <trkpt lat="45.72194" lon="4.85425">
        <ele>179.9</ele>
        <time>2013-09-27T13:41:27Z</time>
      </trkpt>
      <trkpt lat="45.72215" lon="4.85424">
        <ele>179.42</ele>
        <time>2013-09-27T13:41:30Z</time>
      </trkpt>
      <trkpt lat="45.72236" lon="4.85422">
        <ele>179.42</ele>
        <time>2013-09-27T13:41:33Z</time>
      </trkpt>
      <trkpt lat="45.72256" lon="4.85421">
        <ele>179.9</ele>
        <time>2013-09-27T13:41:36Z</time>
      </trkpt>
      <trkpt lat="45.72278" lon="4.85419">
        <ele>179.9</ele>
        <time>2013-09-27T13:41:39Z</time>
      </trkpt>
      <trkpt lat="45.72299" lon="4.85418">
        <ele>179.42</ele>
        <time>2013-09-27T13:41:42Z</time>
      </trkpt>
      <trkpt lat="45.72321" lon="4.85417">
        <ele>178.94</ele>
        <time>2013-09-27T13:41:45Z</time>
      </trkpt>
      <trkpt lat="45.72342" lon="4.85416">
        <ele>179.42</ele>
        <time>2013-09-27T13:41:48Z</time>
      </trkpt>
      <trkpt lat="45.72363" lon="4.85417">
        <ele>179.42</ele>
        <time>2013-09-27T13:41:51Z</time>
      </trkpt>
      <trkpt lat="45.72384" lon="4.85416">
        <ele>179.42</ele>
        <time>2013-09-27T13:41:54Z</time>
      </trkpt>
      <trkpt lat="45.72404" lon="4.85414">
        <ele>179.9</ele>
        <time>2013-09-27T13:41:57Z</time>
      </trkpt>
      <trkpt lat="45.72425" lon="4.85413">
        <ele>179.42</ele>
        <time>2013-09-27T13:42:00Z</time>
      </trkpt>
      <trkpt lat="45.72444" lon="4.85412">
        <ele>179.9</ele>
        <time>2013-09-27T13:42:03Z</time>
      </trkpt>
      <trkpt lat="45.72462" lon="4.85412">
        <ele>179.42</ele>
        <time>2013-09-27T13:42:08Z</time>
      </trkpt>
      <trkpt lat="45.72482" lon="4.8541">
        <ele>179.42</ele>
        <time>2013-09-27T13:42:14Z</time>
      </trkpt>
      <trkpt lat="45.72501" lon="4.8541">
        <ele>179.9</ele>
        <time>2013-09-27T13:42:18Z</time>
      </trkpt>
      <trkpt lat="45.72521" lon="4.85406">
        <ele>179.9</ele>
        <time>2013-09-27T13:42:22Z</time>
      </trkpt>
      <trkpt lat="45.72541" lon="4.85402">
        <ele>179.9</ele>
        <time>2013-09-27T13:42:26Z</time>
      </trkpt>
      <trkpt lat="45.72563" lon="4.85401">
        <ele>179.9</ele>
        <time>2013-09-27T13:42:30Z</time>
      </trkpt>
      <trkpt lat="45.72586" lon="4.85399">
        <ele>179.42</ele>
        <time>2013-09-27T13:42:34Z</time>
      </trkpt>
      <trkpt lat="45.7261" lon="4.85398">
        <ele>179.9</ele>
        <time>2013-09-27T13:42:38Z</time>
      </trkpt>
      <trkpt lat="45.72633" lon="4.85396">
        <ele>179.42</ele>
        <time>2013-09-27T13:42:42Z</time>
      </trkpt>
      <trkpt lat="45.72654" lon="4.85395">
        <ele>179.9</ele>
        <time>2013-09-27T13:42:46Z</time>
      </trkpt>
      <trkpt lat="45.72676" lon="4.85394">
        <ele>179.42</ele>
        <time>2013-09-27T13:42:50Z</time>
      </trkpt>
      <trkpt lat="45.72695" lon="4.85394">
        <ele>179.9</ele>
        <time>2013-09-27T13:42:54Z</time>
      </trkpt>
      <trkpt lat="45.72715" lon="4.85393">
        <ele>179.9</ele>
        <time>2013-09-27T13:42:59Z</time>
      </trkpt>
      <trkpt lat="45.72726" lon="4.85382">
        <ele>180.38</ele>
        <time>2013-09-27T13:43:08Z</time>
      </trkpt>
      <trkpt lat="45.72721" lon="4.85351">
        <ele>179.42</ele>
        <time>2013-09-27T13:43:15Z</time>
      </trkpt>
      <trkpt lat="45.7272" lon="4.85321">
        <ele>178.94</ele>
        <time>2013-09-27T13:43:20Z</time>
      </trkpt>
      <trkpt lat="45.72718" lon="4.85294">
        <ele>178.46</ele>
        <time>2013-09-27T13:43:24Z</time>
      </trkpt>
      <trkpt lat="45.72717" lon="4.85267">
        <ele>178.94</ele>
        <time>2013-09-27T13:43:28Z</time>
      </trkpt>
      <trkpt lat="45.72715" lon="4.85238">
        <ele>178.46</ele>
        <time>2013-09-27T13:43:32Z</time>
      </trkpt>
      <trkpt lat="45.72713" lon="4.85211">
        <ele>177.98</ele>
        <time>2013-09-27T13:43:36Z</time>
      </trkpt>
      <trkpt lat="45.72712" lon="4.85182">
        <ele>178.46</ele>
        <time>2013-09-27T13:43:40Z</time>
      </trkpt>
      <trkpt lat="45.7271" lon="4.85154">
        <ele>178.46</ele>
        <time>2013-09-27T13:43:44Z</time>
      </trkpt>
      <trkpt lat="45.7271" lon="4.85125">
        <ele>178.46</ele>
        <time>2013-09-27T13:43:48Z</time>
      </trkpt>
      <trkpt lat="45.72707" lon="4.85095">
        <ele>178.94</ele>
        <time>2013-09-27T13:43:52Z</time>
      </trkpt>
      <trkpt lat="45.72705" lon="4.85068">
        <ele>178.46</ele>
        <time>2013-09-27T13:43:56Z</time>
      </trkpt>
      <trkpt lat="45.72704" lon="4.85039">
        <ele>178.46</ele>
        <time>2013-09-27T13:44:00Z</time>
      </trkpt>
      <trkpt lat="45.72702" lon="4.8501">
        <ele>178.46</ele>
        <time>2013-09-27T13:44:04Z</time>
      </trkpt>
      <trkpt lat="45.72701" lon="4.84981">
        <ele>178.46</ele>
        <time>2013-09-27T13:44:08Z</time>
      </trkpt>
      <trkpt lat="45.72698" lon="4.84953">
        <ele>178.46</ele>
        <time>2013-09-27T13:44:12Z</time>
      </trkpt>
      <trkpt lat="45.72698" lon="4.84925">
        <ele>178.46</ele>
        <time>2013-09-27T13:44:19Z</time>
      </trkpt>
      <trkpt lat="45.72697" lon="4.8494">
        <ele>178.46</ele>
        <time>2013-09-27T13:44:29Z</time>
      </trkpt>
      <trkpt lat="45.72698" lon="4.84969">
        <ele>178.46</ele>
        <time>2013-09-27T13:44:39Z</time>
      </trkpt>
      <trkpt lat="45.727" lon="4.84996">
        <ele>178.46</ele>
        <time>2013-09-27T13:44:45Z</time>
      </trkpt>
      <trkpt lat="45.72702" lon="4.85027">
        <ele>178.46</ele>
        <time>2013-09-27T13:44:50Z</time>
      </trkpt>
      <trkpt lat="45.72704" lon="4.85055">
        <ele>178.46</ele>
        <time>2013-09-27T13:44:54Z</time>
      </trkpt>
      <trkpt lat="45.72706" lon="4.85084">
        <ele>178.94</ele>
        <time>2013-09-27T13:44:58Z</time>
      </trkpt>
      <trkpt lat="45.72708" lon="4.85114">
        <ele>178.94</ele>
        <time>2013-09-27T13:45:02Z</time>
      </trkpt>
      <trkpt lat="45.72709" lon="4.85141">
        <ele>178.94</ele>
        <time>2013-09-27T13:45:06Z</time>
      </trkpt>
      <trkpt lat="45.7271" lon="4.85168">
        <ele>178.94</ele>
        <time>2013-09-27T13:45:10Z</time>
      </trkpt>
      <trkpt lat="45.72711" lon="4.85194">
        <ele>178.94</ele>
        <time>2013-09-27T13:45:14Z</time>
      </trkpt>
      <trkpt lat="45.72713" lon="4.85225">
        <ele>179.42</ele>
        <time>2013-09-27T13:45:19Z</time>
      </trkpt>
      <trkpt lat="45.72714" lon="4.85252">
        <ele>179.42</ele>
        <time>2013-09-27T13:45:24Z</time>
      </trkpt>
      <trkpt lat="45.72716" lon="4.85284">
        <ele>179.42</ele>
        <time>2013-09-27T13:45:29Z</time>
      </trkpt>
      <trkpt lat="45.72719" lon="4.85314">
        <ele>179.42</ele>
        <time>2013-09-27T13:45:34Z</time>
      </trkpt>
      <trkpt lat="45.72721" lon="4.85344">
        <ele>179.42</ele>
        <time>2013-09-27T13:45:39Z</time>
      </trkpt>
      <trkpt lat="45.72722" lon="4.85372">
        <ele>179.9</ele>
        <time>2013-09-27T13:45:45Z</time>
      </trkpt>
      <trkpt lat="45.72735" lon="4.8538">
        <ele>179.9</ele>
        <time>2013-09-27T13:46:56Z</time>
      </trkpt>
      <trkpt lat="45.72754" lon="4.85387">
        <ele>179.9</ele>
        <time>2013-09-27T13:47:02Z</time>
      </trkpt>
      <trkpt lat="45.72776" lon="4.85385">
        <ele>180.38</ele>
        <time>2013-09-27T13:47:07Z</time>
      </trkpt>
      <trkpt lat="45.72798" lon="4.85384">
        <ele>179.9</ele>
        <time>2013-09-27T13:47:12Z</time>
      </trkpt>
      <trkpt lat="45.7282" lon="4.85383">
        <ele>179.9</ele>
        <time>2013-09-27T13:47:17Z</time>
      </trkpt>
      <trkpt lat="45.7284" lon="4.85382">
        <ele>180.38</ele>
        <time>2013-09-27T13:47:21Z</time>
      </trkpt>
      <trkpt lat="45.72861" lon="4.8538">
        <ele>179.9</ele>
        <time>2013-09-27T13:47:25Z</time>
      </trkpt>
      <trkpt lat="45.72883" lon="4.85381">
        <ele>180.38</ele>
        <time>2013-09-27T13:47:29Z</time>
      </trkpt>
      <trkpt lat="45.72904" lon="4.8538">
        <ele>180.38</ele>
        <time>2013-09-27T13:47:33Z</time>
      </trkpt>
      <trkpt lat="45.72925" lon="4.85377">
        <ele>180.87</ele>
        <time>2013-09-27T13:47:37Z</time>
      </trkpt>
      <trkpt lat="45.72946" lon="4.85375">
        <ele>180.87</ele>
        <time>2013-09-27T13:47:41Z</time>
      </trkpt>
      <trkpt lat="45.72965" lon="4.85366">
        <ele>180.87</ele>
        <time>2013-09-27T13:47:45Z</time>
      </trkpt>
      <trkpt lat="45.72967" lon="4.85339">
        <ele>180.38</ele>
        <time>2013-09-27T13:47:49Z</time>
      </trkpt>
      <trkpt lat="45.7296" lon="4.85315">
        <ele>180.38</ele>
        <time>2013-09-27T13:47:53Z</time>
      </trkpt>
      <trkpt lat="45.72953" lon="4.85288">
        <ele>179.42</ele>
        <time>2013-09-27T13:47:57Z</time>
      </trkpt>
      <trkpt lat="45.72948" lon="4.85258">
        <ele>179.42</ele>
        <time>2013-09-27T13:48:01Z</time>
      </trkpt>
      <trkpt lat="45.72945" lon="4.85233">
        <ele>178.94</ele>
        <time>2013-09-27T13:48:04Z</time>
      </trkpt>
      <trkpt lat="45.72943" lon="4.85207">
        <ele>178.46</ele>
        <time>2013-09-27T13:48:07Z</time>
      </trkpt>
      <trkpt lat="45.72942" lon="4.8518">
        <ele>177.98</ele>
        <time>2013-09-27T13:48:10Z</time>
      </trkpt>
      <trkpt lat="45.72942" lon="4.85153">
        <ele>177.5</ele>
        <time>2013-09-27T13:48:13Z</time>
      </trkpt>
      <trkpt lat="45.72942" lon="4.85125">
        <ele>177.02</ele>
        <time>2013-09-27T13:48:16Z</time>
      </trkpt>
      <trkpt lat="45.72944" lon="4.85096">
        <ele>176.06</ele>
        <time>2013-09-27T13:48:19Z</time>
      </trkpt>
      <trkpt lat="45.72946" lon="4.85065">
        <ele>175.58</ele>
        <time>2013-09-27T13:48:23Z</time>
      </trkpt>
      <trkpt lat="45.72945" lon="4.85031">
        <ele>175.1</ele>
        <time>2013-09-27T13:48:27Z</time>
      </trkpt>
      <trkpt lat="45.72945" lon="4.85004">
        <ele>174.62</ele>
        <time>2013-09-27T13:48:30Z</time>
      </trkpt>
      <trkpt lat="45.72944" lon="4.84976">
        <ele>174.14</ele>
        <time>2013-09-27T13:48:33Z</time>
      </trkpt>
      <trkpt lat="45.72944" lon="4.84945">
        <ele>173.17</ele>
        <time>2013-09-27T13:48:36Z</time>
      </trkpt>
      <trkpt lat="45.72943" lon="4.84914">
        <ele>173.17</ele>
        <time>2013-09-27T13:48:39Z</time>
      </trkpt>
      <trkpt lat="45.72942" lon="4.84883">
        <ele>173.17</ele>
        <time>2013-09-27T13:48:42Z</time>
      </trkpt>
      <trkpt lat="45.7294" lon="4.84852">
        <ele>173.17</ele>
        <time>2013-09-27T13:48:45Z</time>
      </trkpt>
      <trkpt lat="45.72938" lon="4.84823">
        <ele>172.69</ele>
        <time>2013-09-27T13:48:48Z</time>
      </trkpt>
      <trkpt lat="45.72935" lon="4.84797">
        <ele>172.21</ele>
        <time>2013-09-27T13:48:51Z</time>
      </trkpt>
      <trkpt lat="45.72928" lon="4.84764">
        <ele>172.21</ele>
        <time>2013-09-27T13:48:54Z</time>
      </trkpt>
      <trkpt lat="45.72925" lon="4.84727">
        <ele>172.21</ele>
        <time>2013-09-27T13:48:57Z</time>
      </trkpt>
      <trkpt lat="45.72929" lon="4.84694">
        <ele>172.21</ele>
        <time>2013-09-27T13:49:00Z</time>
      </trkpt>
      <trkpt lat="45.72934" lon="4.84663">
        <ele>171.73</ele>
        <time>2013-09-27T13:49:03Z</time>
      </trkpt>
      <trkpt lat="45.72939" lon="4.84633">
        <ele>172.21</ele>
        <time>2013-09-27T13:49:06Z</time>
      </trkpt>
      <trkpt lat="45.72942" lon="4.84605">
        <ele>172.21</ele>
        <time>2013-09-27T13:49:09Z</time>
      </trkpt>
      <trkpt lat="45.72945" lon="4.84578">
        <ele>171.73</ele>
        <time>2013-09-27T13:49:12Z</time>
      </trkpt>
      <trkpt lat="45.72948" lon="4.84551">
        <ele>172.69</ele>
        <time>2013-09-27T13:49:15Z</time>
      </trkpt>
      <trkpt lat="45.72951" lon="4.84524">
        <ele>172.21</ele>
        <time>2013-09-27T13:49:18Z</time>
      </trkpt>
      <trkpt lat="45.72954" lon="4.84499">
        <ele>172.21</ele>
        <time>2013-09-27T13:49:21Z</time>
      </trkpt>
      <trkpt lat="45.72956" lon="4.84473">
        <ele>172.69</ele>
        <time>2013-09-27T13:49:24Z</time>
      </trkpt>
      <trkpt lat="45.72959" lon="4.84445">
        <ele>172.21</ele>
        <time>2013-09-27T13:49:27Z</time>
      </trkpt>
      <trkpt lat="45.72963" lon="4.84419">
        <ele>171.73</ele>
        <time>2013-09-27T13:49:30Z</time>
      </trkpt>
      <trkpt lat="45.72965" lon="4.84392">
        <ele>172.69</ele>
        <time>2013-09-27T13:49:33Z</time>
      </trkpt>
      <trkpt lat="45.72969" lon="4.84358">
        <ele>172.21</ele>
        <time>2013-09-27T13:49:37Z</time>
      </trkpt>
      <trkpt lat="45.72971" lon="4.84325">
        <ele>172.69</ele>
        <time>2013-09-27T13:49:41Z</time>
      </trkpt>
      <trkpt lat="45.72974" lon="4.84294">
        <ele>172.69</ele>
        <time>2013-09-27T13:49:45Z</time>
      </trkpt>
      <trkpt lat="45.72975" lon="4.84264">
        <ele>172.69</ele>
        <time>2013-09-27T13:49:49Z</time>
      </trkpt>
      <trkpt lat="45.72979" lon="4.84235">
        <ele>172.69</ele>
        <time>2013-09-27T13:49:53Z</time>
      </trkpt>
      <trkpt lat="45.72982" lon="4.84211">
        <ele>173.17</ele>
        <time>2013-09-27T13:50:09Z</time>
      </trkpt>
      <trkpt lat="45.72984" lon="4.84182">
        <ele>173.17</ele>
        <time>2013-09-27T13:50:17Z</time>
      </trkpt>
      <trkpt lat="45.72985" lon="4.84156">
        <ele>172.69</ele>
        <time>2013-09-27T13:50:22Z</time>
      </trkpt>
      <trkpt lat="45.72988" lon="4.84128">
        <ele>173.17</ele>
        <time>2013-09-27T13:50:26Z</time>
      </trkpt>
      <trkpt lat="45.72989" lon="4.841">
        <ele>173.17</ele>
        <time>2013-09-27T13:50:30Z</time>
      </trkpt>
      <trkpt lat="45.7299" lon="4.84072">
        <ele>173.17</ele>
        <time>2013-09-27T13:50:34Z</time>
      </trkpt>
      <trkpt lat="45.72994" lon="4.84045">
        <ele>172.69</ele>
        <time>2013-09-27T13:50:38Z</time>
      </trkpt>
      <trkpt lat="45.72998" lon="4.84015">
        <ele>173.17</ele>
        <time>2013-09-27T13:50:42Z</time>
      </trkpt>
      <trkpt lat="45.73001" lon="4.83984">
        <ele>172.69</ele>
        <time>2013-09-27T13:50:46Z</time>
      </trkpt>
      <trkpt lat="45.73003" lon="4.83952">
        <ele>173.17</ele>
        <time>2013-09-27T13:50:50Z</time>
      </trkpt>
      <trkpt lat="45.73005" lon="4.83918">
        <ele>173.66</ele>
        <time>2013-09-27T13:50:54Z</time>
      </trkpt>
      <trkpt lat="45.73009" lon="4.83885">
        <ele>172.69</ele>
        <time>2013-09-27T13:50:58Z</time>
      </trkpt>
      <trkpt lat="45.73012" lon="4.83852">
        <ele>172.69</ele>
        <time>2013-09-27T13:51:02Z</time>
      </trkpt>
      <trkpt lat="45.73014" lon="4.83825">
        <ele>172.69</ele>
        <time>2013-09-27T13:51:06Z</time>
      </trkpt>
      <trkpt lat="45.73016" lon="4.83799">
        <ele>172.69</ele>
        <time>2013-09-27T13:51:10Z</time>
      </trkpt>
      <trkpt lat="45.73021" lon="4.83772">
        <ele>172.69</ele>
        <time>2013-09-27T13:51:14Z</time>
      </trkpt>
      <trkpt lat="45.7303" lon="4.83745">
        <ele>172.21</ele>
        <time>2013-09-27T13:51:18Z</time>
      </trkpt>
      <trkpt lat="45.73039" lon="4.83716">
        <ele>172.21</ele>
        <time>2013-09-27T13:51:22Z</time>
      </trkpt>
      <trkpt lat="45.73048" lon="4.83684">
        <ele>172.21</ele>
        <time>2013-09-27T13:51:26Z</time>
      </trkpt>
      <trkpt lat="45.73054" lon="4.8366">
        <ele>172.21</ele>
        <time>2013-09-27T13:51:29Z</time>
      </trkpt>
      <trkpt lat="45.73062" lon="4.83629">
        <ele>171.73</ele>
        <time>2013-09-27T13:51:33Z</time>
      </trkpt>
      <trkpt lat="45.7307" lon="4.836">
        <ele>172.21</ele>
        <time>2013-09-27T13:51:37Z</time>
      </trkpt>
      <trkpt lat="45.73079" lon="4.83574">
        <ele>172.21</ele>
        <time>2013-09-27T13:51:41Z</time>
      </trkpt>
      <trkpt lat="45.73085" lon="4.83548">
        <ele>172.69</ele>
        <time>2013-09-27T13:51:46Z</time>
      </trkpt>
      <trkpt lat="45.7309" lon="4.83521">
        <ele>172.69</ele>
        <time>2013-09-27T13:52:02Z</time>
      </trkpt>
      <trkpt lat="45.73096" lon="4.83493">
        <ele>173.17</ele>
        <time>2013-09-27T13:52:09Z</time>
      </trkpt>
      <trkpt lat="45.73105" lon="4.83464">
        <ele>173.17</ele>
        <time>2013-09-27T13:52:15Z</time>
      </trkpt>
      <trkpt lat="45.73112" lon="4.8344">
        <ele>173.17</ele>
        <time>2013-09-27T13:52:20Z</time>
      </trkpt>
      <trkpt lat="45.73122" lon="4.83415">
        <ele>173.66</ele>
        <time>2013-09-27T13:52:26Z</time>
      </trkpt>
      <trkpt lat="45.73134" lon="4.83396">
        <ele>173.66</ele>
        <time>2013-09-27T13:52:59Z</time>
      </trkpt>
      <trkpt lat="45.73145" lon="4.83369">
        <ele>173.66</ele>
        <time>2013-09-27T13:53:05Z</time>
      </trkpt>
      <trkpt lat="45.7315" lon="4.83338">
        <ele>172.69</ele>
        <time>2013-09-27T13:53:10Z</time>
      </trkpt>
      <trkpt lat="45.73151" lon="4.83309">
        <ele>172.69</ele>
        <time>2013-09-27T13:53:14Z</time>
      </trkpt>
      <trkpt lat="45.7315" lon="4.83279">
        <ele>172.21</ele>
        <time>2013-09-27T13:53:18Z</time>
      </trkpt>
      <trkpt lat="45.73149" lon="4.83252">
        <ele>172.21</ele>
        <time>2013-09-27T13:53:22Z</time>
      </trkpt>
      <trkpt lat="45.73148" lon="4.83221">
        <ele>172.69</ele>
        <time>2013-09-27T13:53:27Z</time>
      </trkpt>
      <trkpt lat="45.73148" lon="4.83193">
        <ele>173.17</ele>
        <time>2013-09-27T13:53:32Z</time>
      </trkpt>
      <trkpt lat="45.73149" lon="4.83168">
        <ele>173.17</ele>
        <time>2013-09-27T13:53:46Z</time>
      </trkpt>
      <trkpt lat="45.73148" lon="4.8314">
        <ele>172.69</ele>
        <time>2013-09-27T13:53:51Z</time>
      </trkpt>
      <trkpt lat="45.73149" lon="4.83111">
        <ele>172.69</ele>
        <time>2013-09-27T13:53:55Z</time>
      </trkpt>
      <trkpt lat="45.73149" lon="4.83079">
        <ele>172.21</ele>
        <time>2013-09-27T13:53:59Z</time>
      </trkpt>
      <trkpt lat="45.7315" lon="4.8305">
        <ele>172.69</ele>
        <time>2013-09-27T13:54:03Z</time>
      </trkpt>
      <trkpt lat="45.7315" lon="4.83021">
        <ele>172.69</ele>
        <time>2013-09-27T13:54:07Z</time>
      </trkpt>
      <trkpt lat="45.7315" lon="4.82989">
        <ele>172.69</ele>
        <time>2013-09-27T13:54:11Z</time>
      </trkpt>
      <trkpt lat="45.73149" lon="4.82959">
        <ele>172.69</ele>
        <time>2013-09-27T13:54:15Z</time>
      </trkpt>
      <trkpt lat="45.73151" lon="4.82926">
        <ele>172.69</ele>
        <time>2013-09-27T13:54:19Z</time>
      </trkpt>
      <trkpt lat="45.73153" lon="4.82893">
        <ele>173.17</ele>
        <time>2013-09-27T13:54:23Z</time>
      </trkpt>
      <trkpt lat="45.73154" lon="4.82865">
        <ele>173.17</ele>
        <time>2013-09-27T13:54:27Z</time>
      </trkpt>
      <trkpt lat="45.73156" lon="4.82838">
        <ele>173.66</ele>
        <time>2013-09-27T13:54:32Z</time>
      </trkpt>
      <trkpt lat="45.73159" lon="4.82806">
        <ele>173.17</ele>
        <time>2013-09-27T13:54:37Z</time>
      </trkpt>
      <trkpt lat="45.7316" lon="4.82776">
        <ele>173.17</ele>
        <time>2013-09-27T13:54:41Z</time>
      </trkpt>
      <trkpt lat="45.73162" lon="4.82745">
        <ele>173.17</ele>
        <time>2013-09-27T13:54:45Z</time>
      </trkpt>
      <trkpt lat="45.73164" lon="4.82716">
        <ele>173.17</ele>
        <time>2013-09-27T13:54:49Z</time>
      </trkpt>
      <trkpt lat="45.73166" lon="4.82684">
        <ele>173.17</ele>
        <time>2013-09-27T13:54:54Z</time>
      </trkpt>
      <trkpt lat="45.73165" lon="4.82652">
        <ele>174.14</ele>
        <time>2013-09-27T13:55:00Z</time>
      </trkpt>
      <trkpt lat="45.73164" lon="4.82619">
        <ele>174.14</ele>
        <time>2013-09-27T13:55:06Z</time>
      </trkpt>
      <trkpt lat="45.73167" lon="4.82587">
        <ele>174.14</ele>
        <time>2013-09-27T13:55:11Z</time>
      </trkpt>
      <trkpt lat="45.7317" lon="4.8256">
        <ele>174.14</ele>
        <time>2013-09-27T13:55:16Z</time>
      </trkpt>
      <trkpt lat="45.73172" lon="4.82529">
        <ele>174.14</ele>
        <time>2013-09-27T13:55:21Z</time>
      </trkpt>
      <trkpt lat="45.73175" lon="4.82501">
        <ele>174.14</ele>
        <time>2013-09-27T13:55:27Z</time>
      </trkpt>
      <trkpt lat="45.73172" lon="4.82475">
        <ele>173.66</ele>
        <time>2013-09-27T13:55:36Z</time>
      </trkpt>
      <trkpt lat="45.73171" lon="4.82451">
        <ele>173.66</ele>
        <time>2013-09-27T13:55:58Z</time>
      </trkpt>
      <trkpt lat="45.7318" lon="4.82442">
        <ele>174.14</ele>
        <time>2013-09-27T13:56:38Z</time>
      </trkpt>
      <trkpt lat="45.73201" lon="4.82442">
        <ele>173.66</ele>
        <time>2013-09-27T13:56:46Z</time>
      </trkpt>
      <trkpt lat="45.73221" lon="4.82446">
        <ele>174.14</ele>
        <time>2013-09-27T13:56:53Z</time>
      </trkpt>
      <trkpt lat="45.73241" lon="4.82447">
        <ele>174.14</ele>
        <time>2013-09-27T13:57:00Z</time>
      </trkpt>
      <trkpt lat="45.73263" lon="4.82448">
        <ele>173.66</ele>
        <time>2013-09-27T13:57:06Z</time>
      </trkpt>
      <trkpt lat="45.73281" lon="4.82454">
        <ele>173.17</ele>
        <time>2013-09-27T13:57:14Z</time>
      </trkpt>
      <trkpt lat="45.7329" lon="4.82433">
        <ele>172.69</ele>
        <time>2013-09-27T13:57:23Z</time>
      </trkpt>
      <trkpt lat="45.73293" lon="4.82406">
        <ele>173.17</ele>
        <time>2013-09-27T13:57:30Z</time>
      </trkpt>
      <trkpt lat="45.73311" lon="4.82398">
        <ele>173.17</ele>
        <time>2013-09-27T13:57:37Z</time>
      </trkpt>
      <trkpt lat="45.73335" lon="4.82393">
        <ele>172.21</ele>
        <time>2013-09-27T13:57:42Z</time>
      </trkpt>
      <trkpt lat="45.73355" lon="4.82388">
        <ele>172.69</ele>
        <time>2013-09-27T13:57:46Z</time>
      </trkpt>
      <trkpt lat="45.73378" lon="4.82385">
        <ele>172.69</ele>
        <time>2013-09-27T13:57:50Z</time>
      </trkpt>
      <trkpt lat="45.734" lon="4.82383">
        <ele>172.69</ele>
        <time>2013-09-27T13:57:54Z</time>
      </trkpt>
      <trkpt lat="45.73423" lon="4.82382">
        <ele>173.17</ele>
        <time>2013-09-27T13:57:58Z</time>
      </trkpt>
      <trkpt lat="45.73447" lon="4.8238">
        <ele>173.17</ele>
        <time>2013-09-27T13:58:02Z</time>
      </trkpt>
      <trkpt lat="45.73465" lon="4.82377">
        <ele>173.17</ele>
        <time>2013-09-27T13:58:05Z</time>
      </trkpt>
      <trkpt lat="45.73483" lon="4.82376">
        <ele>173.17</ele>
        <time>2013-09-27T13:58:08Z</time>
      </trkpt>
      <trkpt lat="45.73506" lon="4.82375">
        <ele>172.69</ele>
        <time>2013-09-27T13:58:12Z</time>
      </trkpt>
      <trkpt lat="45.73528" lon="4.82376">
        <ele>172.69</ele>
        <time>2013-09-27T13:58:16Z</time>
      </trkpt>
      <trkpt lat="45.73552" lon="4.82378">
        <ele>172.69</ele>
        <time>2013-09-27T13:58:20Z</time>
      </trkpt>
      <trkpt lat="45.73574" lon="4.8238">
        <ele>172.69</ele>
        <time>2013-09-27T13:58:24Z</time>
      </trkpt>
      <trkpt lat="45.73598" lon="4.82385">
        <ele>173.17</ele>
        <time>2013-09-27T13:58:28Z</time>
      </trkpt>
      <trkpt lat="45.73621" lon="4.82391">
        <ele>172.69</ele>
        <time>2013-09-27T13:58:32Z</time>
      </trkpt>
      <trkpt lat="45.73641" lon="4.82398">
        <ele>173.17</ele>
        <time>2013-09-27T13:58:36Z</time>
      </trkpt>
      <trkpt lat="45.73661" lon="4.82405">
        <ele>173.17</ele>
        <time>2013-09-27T13:58:40Z</time>
      </trkpt>
      <trkpt lat="45.73679" lon="4.82412">
        <ele>173.17</ele>
        <time>2013-09-27T13:58:44Z</time>
      </trkpt>
      <trkpt lat="45.737" lon="4.82412">
        <ele>173.17</ele>
        <time>2013-09-27T13:58:48Z</time>
      </trkpt>
      <trkpt lat="45.73722" lon="4.82422">
        <ele>174.14</ele>
        <time>2013-09-27T13:58:53Z</time>
      </trkpt>
      <trkpt lat="45.73738" lon="4.82437">
        <ele>174.14</ele>
        <time>2013-09-27T13:58:57Z</time>
      </trkpt>
      <trkpt lat="45.73758" lon="4.82444">
        <ele>174.14</ele>
        <time>2013-09-27T13:59:02Z</time>
      </trkpt>
      <trkpt lat="45.73779" lon="4.82453">
        <ele>173.17</ele>
        <time>2013-09-27T13:59:07Z</time>
      </trkpt>
      <trkpt lat="45.73799" lon="4.82464">
        <ele>172.69</ele>
        <time>2013-09-27T13:59:11Z</time>
      </trkpt>
      <trkpt lat="45.73821" lon="4.82476">
        <ele>171.73</ele>
        <time>2013-09-27T13:59:15Z</time>
      </trkpt>
      <trkpt lat="45.7384" lon="4.82491">
        <ele>171.73</ele>
        <time>2013-09-27T13:59:19Z</time>
      </trkpt>
      <trkpt lat="45.7386" lon="4.8251">
        <ele>171.73</ele>
        <time>2013-09-27T13:59:23Z</time>
      </trkpt>
      <trkpt lat="45.73876" lon="4.82524">
        <ele>172.21</ele>
        <time>2013-09-27T13:59:26Z</time>
      </trkpt>
      <trkpt lat="45.73894" lon="4.82539">
        <ele>171.73</ele>
        <time>2013-09-27T13:59:29Z</time>
      </trkpt>
      <trkpt lat="45.73911" lon="4.82553">
        <ele>171.73</ele>
        <time>2013-09-27T13:59:32Z</time>
      </trkpt>
      <trkpt lat="45.73927" lon="4.82567">
        <ele>172.21</ele>
        <time>2013-09-27T13:59:35Z</time>
      </trkpt>
      <trkpt lat="45.73944" lon="4.8258">
        <ele>172.21</ele>
        <time>2013-09-27T13:59:38Z</time>
      </trkpt>
      <trkpt lat="45.73962" lon="4.82594">
        <ele>171.73</ele>
        <time>2013-09-27T13:59:41Z</time>
      </trkpt>
      <trkpt lat="45.73978" lon="4.82608">
        <ele>171.73</ele>
        <time>2013-09-27T13:59:44Z</time>
      </trkpt>
      <trkpt lat="45.73995" lon="4.82621">
        <ele>172.21</ele>
        <time>2013-09-27T13:59:47Z</time>
      </trkpt>
      <trkpt lat="45.74012" lon="4.82635">
        <ele>172.21</ele>
        <time>2013-09-27T13:59:50Z</time>
      </trkpt>
      <trkpt lat="45.74028" lon="4.82648">
        <ele>172.21</ele>
        <time>2013-09-27T13:59:53Z</time>
      </trkpt>
      <trkpt lat="45.74048" lon="4.82667">
        <ele>172.21</ele>
        <time>2013-09-27T13:59:57Z</time>
      </trkpt>
      <trkpt lat="45.74069" lon="4.82684">
        <ele>172.21</ele>
        <time>2013-09-27T14:00:01Z</time>
      </trkpt>
      <trkpt lat="45.74086" lon="4.82697">
        <ele>172.21</ele>
        <time>2013-09-27T14:00:04Z</time>
      </trkpt>
      <trkpt lat="45.74103" lon="4.82709">
        <ele>172.69</ele>
        <time>2013-09-27T14:00:07Z</time>
      </trkpt>
      <trkpt lat="45.7412" lon="4.82723">
        <ele>172.21</ele>
        <time>2013-09-27T14:00:10Z</time>
      </trkpt>
      <trkpt lat="45.74136" lon="4.82736">
        <ele>172.69</ele>
        <time>2013-09-27T14:00:13Z</time>
      </trkpt>
      <trkpt lat="45.74153" lon="4.8275">
        <ele>172.21</ele>
        <time>2013-09-27T14:00:16Z</time>
      </trkpt>
      <trkpt lat="45.7417" lon="4.82765">
        <ele>172.69</ele>
        <time>2013-09-27T14:00:19Z</time>
      </trkpt>
      <trkpt lat="45.74188" lon="4.8278">
        <ele>172.21</ele>
        <time>2013-09-27T14:00:22Z</time>
      </trkpt>
      <trkpt lat="45.74206" lon="4.82796">
        <ele>172.21</ele>
        <time>2013-09-27T14:00:25Z</time>
      </trkpt>
      <trkpt lat="45.74225" lon="4.82811">
        <ele>172.69</ele>
        <time>2013-09-27T14:00:28Z</time>
      </trkpt>
      <trkpt lat="45.74243" lon="4.82827">
        <ele>171.73</ele>
        <time>2013-09-27T14:00:31Z</time>
      </trkpt>
      <trkpt lat="45.74261" lon="4.82844">
        <ele>171.73</ele>
        <time>2013-09-27T14:00:34Z</time>
      </trkpt>
      <trkpt lat="45.74279" lon="4.8286">
        <ele>171.73</ele>
        <time>2013-09-27T14:00:37Z</time>
      </trkpt>
      <trkpt lat="45.74296" lon="4.82875">
        <ele>172.21</ele>
        <time>2013-09-27T14:00:40Z</time>
      </trkpt>
      <trkpt lat="45.74313" lon="4.82891">
        <ele>172.21</ele>
        <time>2013-09-27T14:00:43Z</time>
      </trkpt>
      <trkpt lat="45.7433" lon="4.82908">
        <ele>172.21</ele>
        <time>2013-09-27T14:00:46Z</time>
      </trkpt>
      <trkpt lat="45.74348" lon="4.82923">
        <ele>172.21</ele>
        <time>2013-09-27T14:00:49Z</time>
      </trkpt>
      <trkpt lat="45.74365" lon="4.82937">
        <ele>171.73</ele>
        <time>2013-09-27T14:00:52Z</time>
      </trkpt>
      <trkpt lat="45.74383" lon="4.82951">
        <ele>172.21</ele>
        <time>2013-09-27T14:00:55Z</time>
      </trkpt>
      <trkpt lat="45.74402" lon="4.82964">
        <ele>171.73</ele>
        <time>2013-09-27T14:00:58Z</time>
      </trkpt>
      <trkpt lat="45.7442" lon="4.8298">
        <ele>172.21</ele>
        <time>2013-09-27T14:01:01Z</time>
      </trkpt>
      <trkpt lat="45.74439" lon="4.82997">
        <ele>172.21</ele>
        <time>2013-09-27T14:01:04Z</time>
      </trkpt>
      <trkpt lat="45.74456" lon="4.83014">
        <ele>172.21</ele>
        <time>2013-09-27T14:01:07Z</time>
      </trkpt>
      <trkpt lat="45.74473" lon="4.83031">
        <ele>171.73</ele>
        <time>2013-09-27T14:01:10Z</time>
      </trkpt>
      <trkpt lat="45.74488" lon="4.83048">
        <ele>171.73</ele>
        <time>2013-09-27T14:01:13Z</time>
      </trkpt>
      <trkpt lat="45.74503" lon="4.83066">
        <ele>171.73</ele>
        <time>2013-09-27T14:01:16Z</time>
      </trkpt>
      <trkpt lat="45.74518" lon="4.83084">
        <ele>172.21</ele>
        <time>2013-09-27T14:01:19Z</time>
      </trkpt>
      <trkpt lat="45.74532" lon="4.83101">
        <ele>171.73</ele>
        <time>2013-09-27T14:01:22Z</time>
      </trkpt>
      <trkpt lat="45.74548" lon="4.83117">
        <ele>171.73</ele>
        <time>2013-09-27T14:01:25Z</time>
      </trkpt>
      <trkpt lat="45.74563" lon="4.83134">
        <ele>172.21</ele>
        <time>2013-09-27T14:01:28Z</time>
      </trkpt>
      <trkpt lat="45.74577" lon="4.83149">
        <ele>171.73</ele>
        <time>2013-09-27T14:01:31Z</time>
      </trkpt>
      <trkpt lat="45.74597" lon="4.83166">
        <ele>171.73</ele>
        <time>2013-09-27T14:01:35Z</time>
      </trkpt>
      <trkpt lat="45.74619" lon="4.83178">
        <ele>171.73</ele>
        <time>2013-09-27T14:01:39Z</time>
      </trkpt>
      <trkpt lat="45.74635" lon="4.83192">
        <ele>171.73</ele>
        <time>2013-09-27T14:01:42Z</time>
      </trkpt>
      <trkpt lat="45.74651" lon="4.83207">
        <ele>172.21</ele>
        <time>2013-09-27T14:01:45Z</time>
      </trkpt>
      <trkpt lat="45.74668" lon="4.83223">
        <ele>172.21</ele>
        <time>2013-09-27T14:01:48Z</time>
      </trkpt>
      <trkpt lat="45.74684" lon="4.83238">
        <ele>172.21</ele>
        <time>2013-09-27T14:01:51Z</time>
      </trkpt>
      <trkpt lat="45.74701" lon="4.83253">
        <ele>171.73</ele>
        <time>2013-09-27T14:01:54Z</time>
      </trkpt>
      <trkpt lat="45.74717" lon="4.83266">
        <ele>172.21</ele>
        <time>2013-09-27T14:01:57Z</time>
      </trkpt>
      <trkpt lat="45.74736" lon="4.83281">
        <ele>172.21</ele>
        <time>2013-09-27T14:02:00Z</time>
      </trkpt>
      <trkpt lat="45.74754" lon="4.83294">
        <ele>171.73</ele>
        <time>2013-09-27T14:02:03Z</time>
      </trkpt>
      <trkpt lat="45.74771" lon="4.83308">
        <ele>171.25</ele>
        <time>2013-09-27T14:02:06Z</time>
      </trkpt>
      <trkpt lat="45.74788" lon="4.8332">
        <ele>171.25</ele>
        <time>2013-09-27T14:02:09Z</time>
      </trkpt>
      <trkpt lat="45.74807" lon="4.83335">
        <ele>171.25</ele>
        <time>2013-09-27T14:02:12Z</time>
      </trkpt>
      <trkpt lat="45.74825" lon="4.83349">
        <ele>172.21</ele>
        <time>2013-09-27T14:02:15Z</time>
      </trkpt>
      <trkpt lat="45.74846" lon="4.83365">
        <ele>172.21</ele>
        <time>2013-09-27T14:02:19Z</time>
      </trkpt>
      <trkpt lat="45.74865" lon="4.8338">
        <ele>172.21</ele>
        <time>2013-09-27T14:02:23Z</time>
      </trkpt>
      <trkpt lat="45.74882" lon="4.83393">
        <ele>172.21</ele>
        <time>2013-09-27T14:02:27Z</time>
      </trkpt>
      <trkpt lat="45.74899" lon="4.83406">
        <ele>172.69</ele>
        <time>2013-09-27T14:02:31Z</time>
      </trkpt>
      <trkpt lat="45.74918" lon="4.83423">
        <ele>172.21</ele>
        <time>2013-09-27T14:02:36Z</time>
      </trkpt>
      <trkpt lat="45.74938" lon="4.83437">
        <ele>172.21</ele>
        <time>2013-09-27T14:02:41Z</time>
      </trkpt>
      <trkpt lat="45.74958" lon="4.83453">
        <ele>172.21</ele>
        <time>2013-09-27T14:02:46Z</time>
      </trkpt>
      <trkpt lat="45.74974" lon="4.83466">
        <ele>171.73</ele>
        <time>2013-09-27T14:02:50Z</time>
      </trkpt>
      <trkpt lat="45.74991" lon="4.8348">
        <ele>171.73</ele>
        <time>2013-09-27T14:02:54Z</time>
      </trkpt>
      <trkpt lat="45.75008" lon="4.83493">
        <ele>172.21</ele>
        <time>2013-09-27T14:02:58Z</time>
      </trkpt>
      <trkpt lat="45.75025" lon="4.83508">
        <ele>171.73</ele>
        <time>2013-09-27T14:03:02Z</time>
      </trkpt>
      <trkpt lat="45.7504" lon="4.83526">
        <ele>171.73</ele>
        <time>2013-09-27T14:03:06Z</time>
      </trkpt>
      <trkpt lat="45.75056" lon="4.83544">
        <ele>172.21</ele>
        <time>2013-09-27T14:03:10Z</time>
      </trkpt>
      <trkpt lat="45.75072" lon="4.83558">
        <ele>172.21</ele>
        <time>2013-09-27T14:03:14Z</time>
      </trkpt>
      <trkpt lat="45.7509" lon="4.83571">
        <ele>172.21</ele>
        <time>2013-09-27T14:03:18Z</time>
      </trkpt>
      <trkpt lat="45.75106" lon="4.83584">
        <ele>172.69</ele>
        <time>2013-09-27T14:03:22Z</time>
      </trkpt>
      <trkpt lat="45.75123" lon="4.83597">
        <ele>172.69</ele>
        <time>2013-09-27T14:03:26Z</time>
      </trkpt>
      <trkpt lat="45.75141" lon="4.83602">
        <ele>172.69</ele>
        <time>2013-09-27T14:03:31Z</time>
      </trkpt>
      <trkpt lat="45.75156" lon="4.83602">
        <ele>172.21</ele>
        <time>2013-09-27T14:05:56Z</time>
      </trkpt>
      <trkpt lat="45.75174" lon="4.83617">
        <ele>172.21</ele>
        <time>2013-09-27T14:06:04Z</time>
      </trkpt>
      <trkpt lat="45.75181" lon="4.83641">
        <ele>171.73</ele>
        <time>2013-09-27T14:06:11Z</time>
      </trkpt>
      <trkpt lat="45.75189" lon="4.83665">
        <ele>172.69</ele>
        <time>2013-09-27T14:06:19Z</time>
      </trkpt>
      <trkpt lat="45.75208" lon="4.8368">
        <ele>172.21</ele>
        <time>2013-09-27T14:06:26Z</time>
      </trkpt>
      <trkpt lat="45.7523" lon="4.8368">
        <ele>172.21</ele>
        <time>2013-09-27T14:06:34Z</time>
      </trkpt>
      <trkpt lat="45.7525" lon="4.83672">
        <ele>172.21</ele>
        <time>2013-09-27T14:06:39Z</time>
      </trkpt>
      <trkpt lat="45.75273" lon="4.83686">
        <ele>172.21</ele>
        <time>2013-09-27T14:06:44Z</time>
      </trkpt>
      <trkpt lat="45.7529" lon="4.837">
        <ele>172.69</ele>
        <time>2013-09-27T14:06:48Z</time>
      </trkpt>
      <trkpt lat="45.75309" lon="4.83715">
        <ele>172.21</ele>
        <time>2013-09-27T14:06:52Z</time>
      </trkpt>
      <trkpt lat="45.75327" lon="4.83729">
        <ele>172.21</ele>
        <time>2013-09-27T14:06:56Z</time>
      </trkpt>
      <trkpt lat="45.75343" lon="4.83742">
        <ele>172.69</ele>
        <time>2013-09-27T14:07:00Z</time>
      </trkpt>
      <trkpt lat="45.75359" lon="4.83754">
        <ele>172.21</ele>
        <time>2013-09-27T14:07:04Z</time>
      </trkpt>
      <trkpt lat="45.75376" lon="4.83767">
        <ele>172.21</ele>
        <time>2013-09-27T14:07:08Z</time>
      </trkpt>
      <trkpt lat="45.75392" lon="4.83779">
        <ele>172.21</ele>
        <time>2013-09-27T14:07:12Z</time>
      </trkpt>
      <trkpt lat="45.75411" lon="4.83792">
        <ele>172.21</ele>
        <time>2013-09-27T14:07:16Z</time>
      </trkpt>
      <trkpt lat="45.75432" lon="4.83806">
        <ele>172.21</ele>
        <time>2013-09-27T14:07:20Z</time>
      </trkpt>
      <trkpt lat="45.75451" lon="4.8382">
        <ele>172.69</ele>
        <time>2013-09-27T14:07:24Z</time>
      </trkpt>
      <trkpt lat="45.75467" lon="4.83832">
        <ele>172.21</ele>
        <time>2013-09-27T14:07:56Z</time>
      </trkpt>
      <trkpt lat="45.75488" lon="4.83846">
        <ele>172.21</ele>
        <time>2013-09-27T14:08:01Z</time>
      </trkpt>
      <trkpt lat="45.7551" lon="4.83859">
        <ele>171.73</ele>
        <time>2013-09-27T14:08:05Z</time>
      </trkpt>
      <trkpt lat="45.75531" lon="4.83873">
        <ele>171.73</ele>
        <time>2013-09-27T14:08:09Z</time>
      </trkpt>
      <trkpt lat="45.75551" lon="4.83893">
        <ele>171.73</ele>
        <time>2013-09-27T14:08:13Z</time>
      </trkpt>
      <trkpt lat="45.75572" lon="4.83908">
        <ele>172.21</ele>
        <time>2013-09-27T14:08:17Z</time>
      </trkpt>
      <trkpt lat="45.75593" lon="4.8392">
        <ele>172.21</ele>
        <time>2013-09-27T14:08:21Z</time>
      </trkpt>
      <trkpt lat="45.75612" lon="4.8393">
        <ele>171.73</ele>
        <time>2013-09-27T14:08:25Z</time>
      </trkpt>
      <trkpt lat="45.75631" lon="4.83939">
        <ele>172.21</ele>
        <time>2013-09-27T14:08:29Z</time>
      </trkpt>
      <trkpt lat="45.75649" lon="4.83949">
        <ele>172.21</ele>
        <time>2013-09-27T14:08:33Z</time>
      </trkpt>
      <trkpt lat="45.75666" lon="4.83958">
        <ele>172.21</ele>
        <time>2013-09-27T14:08:37Z</time>
      </trkpt>
      <trkpt lat="45.75689" lon="4.83968">
        <ele>172.21</ele>
        <time>2013-09-27T14:08:42Z</time>
      </trkpt>
      <trkpt lat="45.75708" lon="4.83981">
        <ele>172.69</ele>
        <time>2013-09-27T14:08:47Z</time>
      </trkpt>
      <trkpt lat="45.75726" lon="4.83989">
        <ele>172.69</ele>
        <time>2013-09-27T14:08:52Z</time>
      </trkpt>
      <trkpt lat="45.75744" lon="4.83997">
        <ele>172.69</ele>
        <time>2013-09-27T14:08:58Z</time>
      </trkpt>
      <trkpt lat="45.75761" lon="4.84006">
        <ele>172.21</ele>
        <time>2013-09-27T14:09:06Z</time>
      </trkpt>
      <trkpt lat="45.75779" lon="4.84014">
        <ele>172.69</ele>
        <time>2013-09-27T14:09:14Z</time>
      </trkpt>
      <trkpt lat="45.75797" lon="4.84022">
        <ele>173.17</ele>
        <time>2013-09-27T14:09:24Z</time>
      </trkpt>
      <trkpt lat="45.75816" lon="4.84029">
        <ele>173.17</ele>
        <time>2013-09-27T14:09:34Z</time>
      </trkpt>
      <trkpt lat="45.75835" lon="4.84036">
        <ele>173.17</ele>
        <time>2013-09-27T14:09:43Z</time>
      </trkpt>
      <trkpt lat="45.75854" lon="4.84043">
        <ele>173.17</ele>
        <time>2013-09-27T14:09:55Z</time>
      </trkpt>
      <trkpt lat="45.75873" lon="4.84043">
        <ele>173.17</ele>
        <time>2013-09-27T14:10:01Z</time>
      </trkpt>
      <trkpt lat="45.75894" lon="4.8405">
        <ele>173.66</ele>
        <time>2013-09-27T14:10:06Z</time>
      </trkpt>
      <trkpt lat="45.75916" lon="4.84056">
        <ele>173.66</ele>
        <time>2013-09-27T14:10:11Z</time>
      </trkpt>
      <trkpt lat="45.75938" lon="4.84061">
        <ele>173.17</ele>
        <time>2013-09-27T14:10:16Z</time>
      </trkpt>
      <trkpt lat="45.7596" lon="4.84065">
        <ele>173.66</ele>
        <time>2013-09-27T14:10:21Z</time>
      </trkpt>
      <trkpt lat="45.75983" lon="4.84068">
        <ele>172.69</ele>
        <time>2013-09-27T14:10:26Z</time>
      </trkpt>
      <trkpt lat="45.76004" lon="4.84073">
        <ele>173.17</ele>
        <time>2013-09-27T14:10:31Z</time>
      </trkpt>
      <trkpt lat="45.76029" lon="4.84072">
        <ele>174.14</ele>
        <time>2013-09-27T14:10:35Z</time>
      </trkpt>
      <trkpt lat="45.76051" lon="4.84072">
        <ele>174.14</ele>
        <time>2013-09-27T14:10:39Z</time>
      </trkpt>
      <trkpt lat="45.76074" lon="4.84074">
        <ele>173.17</ele>
        <time>2013-09-27T14:10:43Z</time>
      </trkpt>
      <trkpt lat="45.76097" lon="4.84076">
        <ele>173.17</ele>
        <time>2013-09-27T14:10:47Z</time>
      </trkpt>
      <trkpt lat="45.76118" lon="4.84078">
        <ele>173.17</ele>
        <time>2013-09-27T14:10:51Z</time>
      </trkpt>
      <trkpt lat="45.76139" lon="4.8408">
        <ele>173.66</ele>
        <time>2013-09-27T14:10:56Z</time>
      </trkpt>
      <trkpt lat="45.76159" lon="4.84083">
        <ele>173.66</ele>
        <time>2013-09-27T14:11:01Z</time>
      </trkpt>
      <trkpt lat="45.76179" lon="4.84084">
        <ele>173.66</ele>
        <time>2013-09-27T14:11:06Z</time>
      </trkpt>
      <trkpt lat="45.76201" lon="4.84086">
        <ele>173.17</ele>
        <time>2013-09-27T14:11:11Z</time>
      </trkpt>
      <trkpt lat="45.76223" lon="4.84088">
        <ele>173.17</ele>
        <time>2013-09-27T14:11:16Z</time>
      </trkpt>
      <trkpt lat="45.76244" lon="4.84091">
        <ele>173.17</ele>
        <time>2013-09-27T14:11:21Z</time>
      </trkpt>
      <trkpt lat="45.76265" lon="4.84093">
        <ele>173.17</ele>
        <time>2013-09-27T14:11:26Z</time>
      </trkpt>
      <trkpt lat="45.76285" lon="4.84096">
        <ele>173.17</ele>
        <time>2013-09-27T14:11:31Z</time>
      </trkpt>
      <trkpt lat="45.76304" lon="4.84098">
        <ele>173.17</ele>
        <time>2013-09-27T14:11:36Z</time>
      </trkpt>
      <trkpt lat="45.76326" lon="4.84099">
        <ele>173.17</ele>
        <time>2013-09-27T14:11:41Z</time>
      </trkpt>
      <trkpt lat="45.76345" lon="4.84099">
        <ele>172.21</ele>
        <time>2013-09-27T14:11:45Z</time>
      </trkpt>
      <trkpt lat="45.76365" lon="4.84097">
        <ele>172.21</ele>
        <time>2013-09-27T14:11:50Z</time>
      </trkpt>
      <trkpt lat="45.76388" lon="4.84096">
        <ele>172.69</ele>
        <time>2013-09-27T14:11:55Z</time>
      </trkpt>
      <trkpt lat="45.76411" lon="4.84095">
        <ele>172.69</ele>
        <time>2013-09-27T14:12:00Z</time>
      </trkpt>
      <trkpt lat="45.76431" lon="4.84095">
        <ele>172.69</ele>
        <time>2013-09-27T14:12:04Z</time>
      </trkpt>
      <trkpt lat="45.76451" lon="4.84097">
        <ele>172.69</ele>
        <time>2013-09-27T14:12:08Z</time>
      </trkpt>
      <trkpt lat="45.76471" lon="4.84098">
        <ele>172.69</ele>
        <time>2013-09-27T14:12:12Z</time>
      </trkpt>
      <trkpt lat="45.7649" lon="4.84097">
        <ele>172.69</ele>
        <time>2013-09-27T14:12:16Z</time>
      </trkpt>
      <trkpt lat="45.7651" lon="4.84096">
        <ele>172.69</ele>
        <time>2013-09-27T14:12:20Z</time>
      </trkpt>
      <trkpt lat="45.7653" lon="4.84097">
        <ele>172.69</ele>
        <time>2013-09-27T14:12:24Z</time>
      </trkpt>
      <trkpt lat="45.76549" lon="4.84101">
        <ele>173.17</ele>
        <time>2013-09-27T14:12:28Z</time>
      </trkpt>
      <trkpt lat="45.76568" lon="4.84103">
        <ele>173.17</ele>
        <time>2013-09-27T14:12:32Z</time>
      </trkpt>
      <trkpt lat="45.76591" lon="4.84102">
        <ele>173.17</ele>
        <time>2013-09-27T14:12:37Z</time>
      </trkpt>
      <trkpt lat="45.76611" lon="4.84101">
        <ele>173.17</ele>
        <time>2013-09-27T14:12:41Z</time>
      </trkpt>
      <trkpt lat="45.76631" lon="4.841">
        <ele>173.66</ele>
        <time>2013-09-27T14:12:45Z</time>
      </trkpt>
      <trkpt lat="45.76653" lon="4.84098">
        <ele>173.66</ele>
        <time>2013-09-27T14:12:50Z</time>
      </trkpt>
      <trkpt lat="45.76673" lon="4.84095">
        <ele>173.17</ele>
        <time>2013-09-27T14:12:55Z</time>
      </trkpt>
      <trkpt lat="45.76692" lon="4.84092">
        <ele>173.66</ele>
        <time>2013-09-27T14:12:59Z</time>
      </trkpt>
      <trkpt lat="45.76715" lon="4.84088">
        <ele>174.14</ele>
        <time>2013-09-27T14:13:03Z</time>
      </trkpt>
      <trkpt lat="45.76737" lon="4.84085">
        <ele>173.66</ele>
        <time>2013-09-27T14:13:07Z</time>
      </trkpt>
      <trkpt lat="45.7676" lon="4.84082">
        <ele>173.66</ele>
        <time>2013-09-27T14:13:11Z</time>
      </trkpt>
      <trkpt lat="45.7678" lon="4.84078">
        <ele>173.66</ele>
        <time>2013-09-27T14:13:14Z</time>
      </trkpt>
      <trkpt lat="45.76803" lon="4.84075">
        <ele>173.17</ele>
        <time>2013-09-27T14:13:18Z</time>
      </trkpt>
      <trkpt lat="45.76827" lon="4.84073">
        <ele>173.17</ele>
        <time>2013-09-27T14:13:22Z</time>
      </trkpt>
      <trkpt lat="45.76846" lon="4.84072">
        <ele>173.17</ele>
        <time>2013-09-27T14:13:25Z</time>
      </trkpt>
      <trkpt lat="45.76865" lon="4.84069">
        <ele>173.17</ele>
        <time>2013-09-27T14:13:28Z</time>
      </trkpt>
      <trkpt lat="45.76884" lon="4.84068">
        <ele>173.66</ele>
        <time>2013-09-27T14:13:31Z</time>
      </trkpt>
      <trkpt lat="45.76902" lon="4.84067">
        <ele>173.66</ele>
        <time>2013-09-27T14:13:34Z</time>
      </trkpt>
      <trkpt lat="45.7692" lon="4.84063">
        <ele>173.66</ele>
        <time>2013-09-27T14:13:46Z</time>
      </trkpt>
      <trkpt lat="45.76941" lon="4.84066">
        <ele>173.66</ele>
        <time>2013-09-27T14:13:57Z</time>
      </trkpt>
      <trkpt lat="45.76961" lon="4.84066">
        <ele>174.14</ele>
        <time>2013-09-27T14:14:04Z</time>
      </trkpt>
      <trkpt lat="45.76982" lon="4.84067">
        <ele>174.14</ele>
        <time>2013-09-27T14:14:10Z</time>
      </trkpt>
      <trkpt lat="45.77005" lon="4.84068">
        <ele>174.14</ele>
        <time>2013-09-27T14:14:15Z</time>
      </trkpt>
      <trkpt lat="45.77025" lon="4.84068">
        <ele>173.66</ele>
        <time>2013-09-27T14:14:19Z</time>
      </trkpt>
      <trkpt lat="45.77045" lon="4.84068">
        <ele>173.66</ele>
        <time>2013-09-27T14:14:23Z</time>
      </trkpt>
      <trkpt lat="45.77065" lon="4.84069">
        <ele>174.14</ele>
        <time>2013-09-27T14:14:27Z</time>
      </trkpt>
      <trkpt lat="45.77087" lon="4.84069">
        <ele>174.62</ele>
        <time>2013-09-27T14:14:31Z</time>
      </trkpt>
      <trkpt lat="45.77111" lon="4.8407">
        <ele>173.66</ele>
        <time>2013-09-27T14:14:35Z</time>
      </trkpt>
      <trkpt lat="45.77136" lon="4.84073">
        <ele>174.14</ele>
        <time>2013-09-27T14:14:39Z</time>
      </trkpt>
      <trkpt lat="45.7716" lon="4.84074">
        <ele>174.14</ele>
        <time>2013-09-27T14:14:43Z</time>
      </trkpt>
      <trkpt lat="45.77184" lon="4.84075">
        <ele>174.62</ele>
        <time>2013-09-27T14:14:47Z</time>
      </trkpt>
      <trkpt lat="45.77207" lon="4.84075">
        <ele>174.62</ele>
        <time>2013-09-27T14:14:51Z</time>
      </trkpt>
      <trkpt lat="45.77228" lon="4.84075">
        <ele>174.62</ele>
        <time>2013-09-27T14:14:55Z</time>
      </trkpt>
      <trkpt lat="45.77247" lon="4.8408">
        <ele>175.1</ele>
        <time>2013-09-27T14:14:59Z</time>
      </trkpt>
      <trkpt lat="45.77266" lon="4.84086">
        <ele>174.62</ele>
        <time>2013-09-27T14:15:02Z</time>
      </trkpt>
      <trkpt lat="45.77286" lon="4.84093">
        <ele>174.62</ele>
        <time>2013-09-27T14:15:05Z</time>
      </trkpt>
      <trkpt lat="45.77303" lon="4.84103">
        <ele>174.62</ele>
        <time>2013-09-27T14:15:08Z</time>
      </trkpt>
      <trkpt lat="45.77321" lon="4.84115">
        <ele>174.62</ele>
        <time>2013-09-27T14:15:11Z</time>
      </trkpt>
      <trkpt lat="45.77338" lon="4.84127">
        <ele>174.62</ele>
        <time>2013-09-27T14:15:14Z</time>
      </trkpt>
      <trkpt lat="45.77354" lon="4.84139">
        <ele>174.14</ele>
        <time>2013-09-27T14:15:17Z</time>
      </trkpt>
      <trkpt lat="45.77371" lon="4.84151">
        <ele>174.14</ele>
        <time>2013-09-27T14:15:20Z</time>
      </trkpt>
      <trkpt lat="45.77388" lon="4.84162">
        <ele>174.14</ele>
        <time>2013-09-27T14:15:23Z</time>
      </trkpt>
      <trkpt lat="45.77405" lon="4.84175">
        <ele>174.14</ele>
        <time>2013-09-27T14:15:26Z</time>
      </trkpt>
      <trkpt lat="45.77423" lon="4.84186">
        <ele>174.62</ele>
        <time>2013-09-27T14:15:29Z</time>
      </trkpt>
      <trkpt lat="45.7744" lon="4.84197">
        <ele>174.14</ele>
        <time>2013-09-27T14:15:32Z</time>
      </trkpt>
      <trkpt lat="45.77457" lon="4.84209">
        <ele>174.14</ele>
        <time>2013-09-27T14:15:35Z</time>
      </trkpt>
      <trkpt lat="45.77473" lon="4.84221">
        <ele>174.14</ele>
        <time>2013-09-27T14:15:39Z</time>
      </trkpt>
      <trkpt lat="45.77496" lon="4.84235">
        <ele>174.14</ele>
        <time>2013-09-27T14:15:42Z</time>
      </trkpt>
      <trkpt lat="45.77517" lon="4.84249">
        <ele>174.14</ele>
        <time>2013-09-27T14:15:46Z</time>
      </trkpt>
      <trkpt lat="45.77538" lon="4.84264">
        <ele>174.14</ele>
        <time>2013-09-27T14:15:50Z</time>
      </trkpt>
      <trkpt lat="45.7756" lon="4.84279">
        <ele>174.62</ele>
        <time>2013-09-27T14:15:54Z</time>
      </trkpt>
      <trkpt lat="45.77578" lon="4.8429">
        <ele>174.14</ele>
        <time>2013-09-27T14:15:57Z</time>
      </trkpt>
      <trkpt lat="45.77594" lon="4.84302">
        <ele>173.66</ele>
        <time>2013-09-27T14:16:00Z</time>
      </trkpt>
      <trkpt lat="45.77616" lon="4.84317">
        <ele>174.14</ele>
        <time>2013-09-27T14:16:04Z</time>
      </trkpt>
      <trkpt lat="45.77638" lon="4.84332">
        <ele>174.14</ele>
        <time>2013-09-27T14:16:08Z</time>
      </trkpt>
      <trkpt lat="45.7766" lon="4.84348">
        <ele>174.14</ele>
        <time>2013-09-27T14:16:12Z</time>
      </trkpt>
      <trkpt lat="45.7768" lon="4.84362">
        <ele>174.62</ele>
        <time>2013-09-27T14:16:16Z</time>
      </trkpt>
      <trkpt lat="45.77697" lon="4.84373">
        <ele>174.14</ele>
        <time>2013-09-27T14:16:20Z</time>
      </trkpt>
      <trkpt lat="45.77718" lon="4.8438">
        <ele>175.1</ele>
        <time>2013-09-27T14:16:25Z</time>
      </trkpt>
      <trkpt lat="45.77737" lon="4.84387">
        <ele>174.62</ele>
        <time>2013-09-27T14:16:30Z</time>
      </trkpt>
      <trkpt lat="45.77754" lon="4.84397">
        <ele>174.62</ele>
        <time>2013-09-27T14:16:36Z</time>
      </trkpt>
      <trkpt lat="45.77735" lon="4.84393">
        <ele>175.58</ele>
        <time>2013-09-27T14:16:43Z</time>
      </trkpt>
      <trkpt lat="45.77715" lon="4.84387">
        <ele>176.54</ele>
        <time>2013-09-27T14:16:49Z</time>
      </trkpt>
      <trkpt lat="45.77696" lon="4.84381">
        <ele>177.02</ele>
        <time>2013-09-27T14:16:55Z</time>
      </trkpt>
      <trkpt lat="45.77678" lon="4.84375">
        <ele>177.98</ele>
        <time>2013-09-27T14:17:01Z</time>
      </trkpt>
      <trkpt lat="45.77665" lon="4.84398">
        <ele>177.98</ele>
        <time>2013-09-27T14:17:08Z</time>
      </trkpt>
      <trkpt lat="45.77652" lon="4.84422">
        <ele>177.98</ele>
        <time>2013-09-27T14:17:16Z</time>
      </trkpt>
      <trkpt lat="45.77642" lon="4.84447">
        <ele>177.5</ele>
        <time>2013-09-27T14:17:24Z</time>
      </trkpt>
      <trkpt lat="45.77634" lon="4.84469">
        <ele>177.5</ele>
        <time>2013-09-27T14:17:32Z</time>
      </trkpt>
      <trkpt lat="45.77647" lon="4.84486">
        <ele>177.02</ele>
        <time>2013-09-27T14:17:49Z</time>
      </trkpt>
      <trkpt lat="45.77663" lon="4.84504">
        <ele>177.5</ele>
        <time>2013-09-27T14:17:57Z</time>
      </trkpt>
      <trkpt lat="45.77679" lon="4.84517">
        <ele>177.02</ele>
        <time>2013-09-27T14:18:04Z</time>
      </trkpt>
      <trkpt lat="45.77697" lon="4.84523">
        <ele>177.5</ele>
        <time>2013-09-27T14:18:12Z</time>
      </trkpt>
      <trkpt lat="45.77716" lon="4.84516">
        <ele>176.54</ele>
        <time>2013-09-27T14:19:35Z</time>
      </trkpt>
    </trkseg>
  </trk>
</gpx>